<?xml version="1.0" encoding="UTF-8" standalone="no" ?>
<gpx xmlns="http://www.topografix.com/GPX/1/1" xmlns:xsi="http://www.w3.org/2001/XMLSchema-instance" xsi:schemaLocation="http://www.topografix.com/GPX/1/1 http://www.topografix.com/GPX/1/1/gpx.xsd" version="1.1" creator="VisuGPX - https://www.visugpx.com">
  <metadata>
    <name>St Philippe_Plaine des Palmistes</name>
    <desc><![CDATA[Une partie de la Caldeira Trail]]></desc>
  </metadata>
  <trk>
    <name><![CDATA[2013-03-25-st philippe plaine des palmistes_unified]]></name>
    <trkseg>
      <trkpt lat="-21.36795" lon="55.73469">
        <ele>73.4</ele>
        <time>2013-03-25T02:15:38Z</time>
      </trkpt>
      <trkpt lat="-21.36786" lon="55.73469">
        <ele>74.4</ele>
        <time>2013-03-25T02:15:45Z</time>
      </trkpt>
      <trkpt lat="-21.36778" lon="55.7347">
        <ele>73.9</ele>
        <time>2013-03-25T02:15:52Z</time>
      </trkpt>
      <trkpt lat="-21.3677" lon="55.73471">
        <ele>75.3</ele>
        <time>2013-03-25T02:15:58Z</time>
      </trkpt>
      <trkpt lat="-21.36761" lon="55.73471">
        <ele>75.1</ele>
        <time>2013-03-25T02:16:05Z</time>
      </trkpt>
      <trkpt lat="-21.36753" lon="55.73472">
        <ele>75.5</ele>
        <time>2013-03-25T02:16:12Z</time>
      </trkpt>
      <trkpt lat="-21.36745" lon="55.73472">
        <ele>76.5</ele>
        <time>2013-03-25T02:16:18Z</time>
      </trkpt>
      <trkpt lat="-21.36736" lon="55.73473">
        <ele>76</ele>
        <time>2013-03-25T02:16:25Z</time>
      </trkpt>
      <trkpt lat="-21.36728" lon="55.73474">
        <ele>76.5</ele>
        <time>2013-03-25T02:16:33Z</time>
      </trkpt>
      <trkpt lat="-21.36719" lon="55.73474">
        <ele>77.7</ele>
        <time>2013-03-25T02:16:40Z</time>
      </trkpt>
      <trkpt lat="-21.36711" lon="55.73474">
        <ele>78</ele>
        <time>2013-03-25T02:16:47Z</time>
      </trkpt>
      <trkpt lat="-21.36703" lon="55.73473">
        <ele>78.4</ele>
        <time>2013-03-25T02:16:53Z</time>
      </trkpt>
      <trkpt lat="-21.36695" lon="55.73472">
        <ele>78.8</ele>
        <time>2013-03-25T02:16:59Z</time>
      </trkpt>
      <trkpt lat="-21.36686" lon="55.7347">
        <ele>79.3</ele>
        <time>2013-03-25T02:17:05Z</time>
      </trkpt>
      <trkpt lat="-21.36678" lon="55.7347">
        <ele>79.7</ele>
        <time>2013-03-25T02:17:11Z</time>
      </trkpt>
      <trkpt lat="-21.36669" lon="55.73469">
        <ele>80.8</ele>
        <time>2013-03-25T02:17:17Z</time>
      </trkpt>
      <trkpt lat="-21.36661" lon="55.73469">
        <ele>80.8</ele>
        <time>2013-03-25T02:17:23Z</time>
      </trkpt>
      <trkpt lat="-21.36652" lon="55.7347">
        <ele>81</ele>
        <time>2013-03-25T02:17:29Z</time>
      </trkpt>
      <trkpt lat="-21.36644" lon="55.7347">
        <ele>82.2</ele>
        <time>2013-03-25T02:17:35Z</time>
      </trkpt>
      <trkpt lat="-21.36636" lon="55.73471">
        <ele>82.5</ele>
        <time>2013-03-25T02:17:41Z</time>
      </trkpt>
      <trkpt lat="-21.36628" lon="55.73472">
        <ele>82.7</ele>
        <time>2013-03-25T02:17:47Z</time>
      </trkpt>
      <trkpt lat="-21.36621" lon="55.73473">
        <ele>82.9</ele>
        <time>2013-03-25T02:17:53Z</time>
      </trkpt>
      <trkpt lat="-21.36612" lon="55.73474">
        <ele>83</ele>
        <time>2013-03-25T02:17:59Z</time>
      </trkpt>
      <trkpt lat="-21.36604" lon="55.73475">
        <ele>84.1</ele>
        <time>2013-03-25T02:18:06Z</time>
      </trkpt>
      <trkpt lat="-21.36596" lon="55.73476">
        <ele>86</ele>
        <time>2013-03-25T02:18:13Z</time>
      </trkpt>
      <trkpt lat="-21.36588" lon="55.73475">
        <ele>86.1</ele>
        <time>2013-03-25T02:18:21Z</time>
      </trkpt>
      <trkpt lat="-21.36579" lon="55.73475">
        <ele>86.6</ele>
        <time>2013-03-25T02:18:28Z</time>
      </trkpt>
      <trkpt lat="-21.36571" lon="55.73475">
        <ele>85.9</ele>
        <time>2013-03-25T02:18:34Z</time>
      </trkpt>
      <trkpt lat="-21.36562" lon="55.73476">
        <ele>86.2</ele>
        <time>2013-03-25T02:18:40Z</time>
      </trkpt>
      <trkpt lat="-21.36554" lon="55.73477">
        <ele>87.1</ele>
        <time>2013-03-25T02:18:46Z</time>
      </trkpt>
      <trkpt lat="-21.36546" lon="55.73477">
        <ele>87.4</ele>
        <time>2013-03-25T02:18:52Z</time>
      </trkpt>
      <trkpt lat="-21.36538" lon="55.73478">
        <ele>88.1</ele>
        <time>2013-03-25T02:18:58Z</time>
      </trkpt>
      <trkpt lat="-21.36529" lon="55.73478">
        <ele>89.2</ele>
        <time>2013-03-25T02:19:04Z</time>
      </trkpt>
      <trkpt lat="-21.36521" lon="55.73479">
        <ele>89.2</ele>
        <time>2013-03-25T02:19:09Z</time>
      </trkpt>
      <trkpt lat="-21.36513" lon="55.7348">
        <ele>90.2</ele>
        <time>2013-03-25T02:19:15Z</time>
      </trkpt>
      <trkpt lat="-21.36504" lon="55.73481">
        <ele>90.5</ele>
        <time>2013-03-25T02:19:21Z</time>
      </trkpt>
      <trkpt lat="-21.36496" lon="55.73482">
        <ele>90.5</ele>
        <time>2013-03-25T02:19:26Z</time>
      </trkpt>
      <trkpt lat="-21.36489" lon="55.73483">
        <ele>91</ele>
        <time>2013-03-25T02:19:32Z</time>
      </trkpt>
      <trkpt lat="-21.36482" lon="55.73486">
        <ele>90.6</ele>
        <time>2013-03-25T02:19:37Z</time>
      </trkpt>
      <trkpt lat="-21.36474" lon="55.73491">
        <ele>92</ele>
        <time>2013-03-25T02:19:43Z</time>
      </trkpt>
      <trkpt lat="-21.36468" lon="55.73497">
        <ele>91.9</ele>
        <time>2013-03-25T02:19:49Z</time>
      </trkpt>
      <trkpt lat="-21.36463" lon="55.73503">
        <ele>92.8</ele>
        <time>2013-03-25T02:19:55Z</time>
      </trkpt>
      <trkpt lat="-21.36458" lon="55.73511">
        <ele>93.4</ele>
        <time>2013-03-25T02:20:01Z</time>
      </trkpt>
      <trkpt lat="-21.36454" lon="55.73519">
        <ele>93.4</ele>
        <time>2013-03-25T02:20:07Z</time>
      </trkpt>
      <trkpt lat="-21.36449" lon="55.73526">
        <ele>94.1</ele>
        <time>2013-03-25T02:20:13Z</time>
      </trkpt>
      <trkpt lat="-21.36444" lon="55.73534">
        <ele>95.2</ele>
        <time>2013-03-25T02:20:19Z</time>
      </trkpt>
      <trkpt lat="-21.36439" lon="55.73541">
        <ele>96.5</ele>
        <time>2013-03-25T02:20:24Z</time>
      </trkpt>
      <trkpt lat="-21.36433" lon="55.73547">
        <ele>96.7</ele>
        <time>2013-03-25T02:20:31Z</time>
      </trkpt>
      <trkpt lat="-21.36427" lon="55.73555">
        <ele>97.7</ele>
        <time>2013-03-25T02:20:37Z</time>
      </trkpt>
      <trkpt lat="-21.36422" lon="55.73562">
        <ele>98.3</ele>
        <time>2013-03-25T02:20:44Z</time>
      </trkpt>
      <trkpt lat="-21.36416" lon="55.73569">
        <ele>98.4</ele>
        <time>2013-03-25T02:20:50Z</time>
      </trkpt>
      <trkpt lat="-21.3641" lon="55.73577">
        <ele>99.3</ele>
        <time>2013-03-25T02:20:56Z</time>
      </trkpt>
      <trkpt lat="-21.36406" lon="55.73584">
        <ele>98.3</ele>
        <time>2013-03-25T02:21:02Z</time>
      </trkpt>
      <trkpt lat="-21.36399" lon="55.7359">
        <ele>99.3</ele>
        <time>2013-03-25T02:21:08Z</time>
      </trkpt>
      <trkpt lat="-21.36392" lon="55.73595">
        <ele>99.9</ele>
        <time>2013-03-25T02:21:14Z</time>
      </trkpt>
      <trkpt lat="-21.36385" lon="55.736">
        <ele>99.7</ele>
        <time>2013-03-25T02:21:20Z</time>
      </trkpt>
      <trkpt lat="-21.36377" lon="55.73605">
        <ele>100.9</ele>
        <time>2013-03-25T02:21:26Z</time>
      </trkpt>
      <trkpt lat="-21.36371" lon="55.73609">
        <ele>101.5</ele>
        <time>2013-03-25T02:21:31Z</time>
      </trkpt>
      <trkpt lat="-21.36364" lon="55.73614">
        <ele>101.6</ele>
        <time>2013-03-25T02:21:37Z</time>
      </trkpt>
      <trkpt lat="-21.36357" lon="55.73619">
        <ele>102.3</ele>
        <time>2013-03-25T02:21:43Z</time>
      </trkpt>
      <trkpt lat="-21.36349" lon="55.73623">
        <ele>102.9</ele>
        <time>2013-03-25T02:21:49Z</time>
      </trkpt>
      <trkpt lat="-21.36342" lon="55.73628">
        <ele>103.7</ele>
        <time>2013-03-25T02:21:55Z</time>
      </trkpt>
      <trkpt lat="-21.36335" lon="55.73633">
        <ele>103.9</ele>
        <time>2013-03-25T02:22:01Z</time>
      </trkpt>
      <trkpt lat="-21.36328" lon="55.73637">
        <ele>104.8</ele>
        <time>2013-03-25T02:22:07Z</time>
      </trkpt>
      <trkpt lat="-21.36321" lon="55.73641">
        <ele>105.4</ele>
        <time>2013-03-25T02:22:13Z</time>
      </trkpt>
      <trkpt lat="-21.36312" lon="55.73642">
        <ele>105.4</ele>
        <time>2013-03-25T02:22:19Z</time>
      </trkpt>
      <trkpt lat="-21.36305" lon="55.73638">
        <ele>105.8</ele>
        <time>2013-03-25T02:22:25Z</time>
      </trkpt>
      <trkpt lat="-21.36299" lon="55.73631">
        <ele>106.8</ele>
        <time>2013-03-25T02:22:31Z</time>
      </trkpt>
      <trkpt lat="-21.36295" lon="55.73624">
        <ele>107.6</ele>
        <time>2013-03-25T02:22:36Z</time>
      </trkpt>
      <trkpt lat="-21.36288" lon="55.73619">
        <ele>108.6</ele>
        <time>2013-03-25T02:22:42Z</time>
      </trkpt>
      <trkpt lat="-21.3628" lon="55.7362">
        <ele>108.5</ele>
        <time>2013-03-25T02:22:49Z</time>
      </trkpt>
      <trkpt lat="-21.36272" lon="55.73624">
        <ele>109.9</ele>
        <time>2013-03-25T02:22:55Z</time>
      </trkpt>
      <trkpt lat="-21.36266" lon="55.7363">
        <ele>110.3</ele>
        <time>2013-03-25T02:23:02Z</time>
      </trkpt>
      <trkpt lat="-21.36261" lon="55.73637">
        <ele>110.5</ele>
        <time>2013-03-25T02:23:07Z</time>
      </trkpt>
      <trkpt lat="-21.36258" lon="55.73645">
        <ele>110.4</ele>
        <time>2013-03-25T02:23:13Z</time>
      </trkpt>
      <trkpt lat="-21.36257" lon="55.73654">
        <ele>111.1</ele>
        <time>2013-03-25T02:23:18Z</time>
      </trkpt>
      <trkpt lat="-21.36256" lon="55.73662">
        <ele>111.5</ele>
        <time>2013-03-25T02:23:23Z</time>
      </trkpt>
      <trkpt lat="-21.36256" lon="55.7367">
        <ele>112.2</ele>
        <time>2013-03-25T02:23:29Z</time>
      </trkpt>
      <trkpt lat="-21.36254" lon="55.73679">
        <ele>113</ele>
        <time>2013-03-25T02:23:34Z</time>
      </trkpt>
      <trkpt lat="-21.36252" lon="55.73687">
        <ele>114</ele>
        <time>2013-03-25T02:23:39Z</time>
      </trkpt>
      <trkpt lat="-21.36247" lon="55.73695">
        <ele>114</ele>
        <time>2013-03-25T02:23:45Z</time>
      </trkpt>
      <trkpt lat="-21.36239" lon="55.73691">
        <ele>114.7</ele>
        <time>2013-03-25T02:23:51Z</time>
      </trkpt>
      <trkpt lat="-21.36234" lon="55.73684">
        <ele>115.3</ele>
        <time>2013-03-25T02:23:57Z</time>
      </trkpt>
      <trkpt lat="-21.36228" lon="55.73679">
        <ele>115.9</ele>
        <time>2013-03-25T02:24:02Z</time>
      </trkpt>
      <trkpt lat="-21.3622" lon="55.73679">
        <ele>116.9</ele>
        <time>2013-03-25T02:24:08Z</time>
      </trkpt>
      <trkpt lat="-21.36215" lon="55.73686">
        <ele>117.5</ele>
        <time>2013-03-25T02:24:13Z</time>
      </trkpt>
      <trkpt lat="-21.36215" lon="55.73696">
        <ele>118.9</ele>
        <time>2013-03-25T02:24:20Z</time>
      </trkpt>
      <trkpt lat="-21.36217" lon="55.73705">
        <ele>119.2</ele>
        <time>2013-03-25T02:24:26Z</time>
      </trkpt>
      <trkpt lat="-21.36217" lon="55.73714">
        <ele>120.1</ele>
        <time>2013-03-25T02:24:32Z</time>
      </trkpt>
      <trkpt lat="-21.36215" lon="55.73723">
        <ele>121</ele>
        <time>2013-03-25T02:24:38Z</time>
      </trkpt>
      <trkpt lat="-21.3621" lon="55.73729">
        <ele>121.8</ele>
        <time>2013-03-25T02:24:43Z</time>
      </trkpt>
      <trkpt lat="-21.36203" lon="55.73733">
        <ele>121.9</ele>
        <time>2013-03-25T02:24:49Z</time>
      </trkpt>
      <trkpt lat="-21.36196" lon="55.73736">
        <ele>121.8</ele>
        <time>2013-03-25T02:24:55Z</time>
      </trkpt>
      <trkpt lat="-21.36188" lon="55.7374">
        <ele>122.4</ele>
        <time>2013-03-25T02:25:00Z</time>
      </trkpt>
      <trkpt lat="-21.36181" lon="55.73744">
        <ele>122.5</ele>
        <time>2013-03-25T02:25:05Z</time>
      </trkpt>
      <trkpt lat="-21.36175" lon="55.73748">
        <ele>122.8</ele>
        <time>2013-03-25T02:25:10Z</time>
      </trkpt>
      <trkpt lat="-21.36168" lon="55.73753">
        <ele>123.4</ele>
        <time>2013-03-25T02:25:15Z</time>
      </trkpt>
      <trkpt lat="-21.36162" lon="55.73758">
        <ele>123.9</ele>
        <time>2013-03-25T02:25:20Z</time>
      </trkpt>
      <trkpt lat="-21.36156" lon="55.73763">
        <ele>124.5</ele>
        <time>2013-03-25T02:25:25Z</time>
      </trkpt>
      <trkpt lat="-21.3615" lon="55.73767">
        <ele>124.3</ele>
        <time>2013-03-25T02:25:30Z</time>
      </trkpt>
      <trkpt lat="-21.36144" lon="55.73772">
        <ele>125.1</ele>
        <time>2013-03-25T02:25:34Z</time>
      </trkpt>
      <trkpt lat="-21.36139" lon="55.73779">
        <ele>125.8</ele>
        <time>2013-03-25T02:25:39Z</time>
      </trkpt>
      <trkpt lat="-21.36139" lon="55.73788">
        <ele>126.3</ele>
        <time>2013-03-25T02:25:45Z</time>
      </trkpt>
      <trkpt lat="-21.36141" lon="55.73797">
        <ele>126.1</ele>
        <time>2013-03-25T02:25:50Z</time>
      </trkpt>
      <trkpt lat="-21.36143" lon="55.73805">
        <ele>126.2</ele>
        <time>2013-03-25T02:25:55Z</time>
      </trkpt>
      <trkpt lat="-21.36144" lon="55.73814">
        <ele>126.7</ele>
        <time>2013-03-25T02:26:00Z</time>
      </trkpt>
      <trkpt lat="-21.36145" lon="55.73823">
        <ele>126.8</ele>
        <time>2013-03-25T02:26:06Z</time>
      </trkpt>
      <trkpt lat="-21.36144" lon="55.73831">
        <ele>127.6</ele>
        <time>2013-03-25T02:26:12Z</time>
      </trkpt>
      <trkpt lat="-21.36143" lon="55.7384">
        <ele>127.8</ele>
        <time>2013-03-25T02:26:17Z</time>
      </trkpt>
      <trkpt lat="-21.36141" lon="55.73848">
        <ele>127.9</ele>
        <time>2013-03-25T02:26:22Z</time>
      </trkpt>
      <trkpt lat="-21.36142" lon="55.73857">
        <ele>128.2</ele>
        <time>2013-03-25T02:26:27Z</time>
      </trkpt>
      <trkpt lat="-21.36143" lon="55.73866">
        <ele>128.5</ele>
        <time>2013-03-25T02:26:33Z</time>
      </trkpt>
      <trkpt lat="-21.36142" lon="55.73874">
        <ele>128.9</ele>
        <time>2013-03-25T02:26:39Z</time>
      </trkpt>
      <trkpt lat="-21.3614" lon="55.73882">
        <ele>128.9</ele>
        <time>2013-03-25T02:26:44Z</time>
      </trkpt>
      <trkpt lat="-21.36134" lon="55.73889">
        <ele>129.6</ele>
        <time>2013-03-25T02:26:49Z</time>
      </trkpt>
      <trkpt lat="-21.36131" lon="55.73897">
        <ele>130.2</ele>
        <time>2013-03-25T02:26:54Z</time>
      </trkpt>
      <trkpt lat="-21.36132" lon="55.73905">
        <ele>129.5</ele>
        <time>2013-03-25T02:26:59Z</time>
      </trkpt>
      <trkpt lat="-21.36133" lon="55.73914">
        <ele>129.9</ele>
        <time>2013-03-25T02:27:06Z</time>
      </trkpt>
      <trkpt lat="-21.3613" lon="55.73922">
        <ele>130.3</ele>
        <time>2013-03-25T02:27:11Z</time>
      </trkpt>
      <trkpt lat="-21.3613" lon="55.7393">
        <ele>131</ele>
        <time>2013-03-25T02:27:17Z</time>
      </trkpt>
      <trkpt lat="-21.36127" lon="55.73939">
        <ele>130.7</ele>
        <time>2013-03-25T02:27:23Z</time>
      </trkpt>
      <trkpt lat="-21.36122" lon="55.73946">
        <ele>130.2</ele>
        <time>2013-03-25T02:27:29Z</time>
      </trkpt>
      <trkpt lat="-21.36117" lon="55.73953">
        <ele>130</ele>
        <time>2013-03-25T02:27:34Z</time>
      </trkpt>
      <trkpt lat="-21.36113" lon="55.7396">
        <ele>131</ele>
        <time>2013-03-25T02:27:39Z</time>
      </trkpt>
      <trkpt lat="-21.36109" lon="55.73968">
        <ele>132.1</ele>
        <time>2013-03-25T02:27:46Z</time>
      </trkpt>
      <trkpt lat="-21.36104" lon="55.73976">
        <ele>132.1</ele>
        <time>2013-03-25T02:27:56Z</time>
      </trkpt>
      <trkpt lat="-21.36102" lon="55.73985">
        <ele>131.9</ele>
        <time>2013-03-25T02:28:03Z</time>
      </trkpt>
      <trkpt lat="-21.36098" lon="55.73992">
        <ele>133.2</ele>
        <time>2013-03-25T02:28:09Z</time>
      </trkpt>
      <trkpt lat="-21.36093" lon="55.74">
        <ele>133</ele>
        <time>2013-03-25T02:28:15Z</time>
      </trkpt>
      <trkpt lat="-21.36088" lon="55.74006">
        <ele>133.5</ele>
        <time>2013-03-25T02:28:20Z</time>
      </trkpt>
      <trkpt lat="-21.36083" lon="55.74013">
        <ele>133.5</ele>
        <time>2013-03-25T02:28:24Z</time>
      </trkpt>
      <trkpt lat="-21.36077" lon="55.74017">
        <ele>133.7</ele>
        <time>2013-03-25T02:28:28Z</time>
      </trkpt>
      <trkpt lat="-21.36071" lon="55.74022">
        <ele>134.2</ele>
        <time>2013-03-25T02:28:32Z</time>
      </trkpt>
      <trkpt lat="-21.36066" lon="55.74028">
        <ele>134.8</ele>
        <time>2013-03-25T02:28:37Z</time>
      </trkpt>
      <trkpt lat="-21.3606" lon="55.74035">
        <ele>134.5</ele>
        <time>2013-03-25T02:28:41Z</time>
      </trkpt>
      <trkpt lat="-21.36054" lon="55.74041">
        <ele>134.4</ele>
        <time>2013-03-25T02:28:46Z</time>
      </trkpt>
      <trkpt lat="-21.3605" lon="55.74048">
        <ele>135.6</ele>
        <time>2013-03-25T02:28:53Z</time>
      </trkpt>
      <trkpt lat="-21.36045" lon="55.74055">
        <ele>135.9</ele>
        <time>2013-03-25T02:28:59Z</time>
      </trkpt>
      <trkpt lat="-21.3604" lon="55.74061">
        <ele>135.7</ele>
        <time>2013-03-25T02:29:04Z</time>
      </trkpt>
      <trkpt lat="-21.36032" lon="55.7407">
        <ele>135.3</ele>
        <time>2013-03-25T02:29:10Z</time>
      </trkpt>
      <trkpt lat="-21.36026" lon="55.74076">
        <ele>135.4</ele>
        <time>2013-03-25T02:29:14Z</time>
      </trkpt>
      <trkpt lat="-21.36018" lon="55.74081">
        <ele>135.7</ele>
        <time>2013-03-25T02:29:18Z</time>
      </trkpt>
      <trkpt lat="-21.36012" lon="55.74087">
        <ele>136.7</ele>
        <time>2013-03-25T02:29:23Z</time>
      </trkpt>
      <trkpt lat="-21.36004" lon="55.74091">
        <ele>136.5</ele>
        <time>2013-03-25T02:29:29Z</time>
      </trkpt>
      <trkpt lat="-21.35997" lon="55.74097">
        <ele>137</ele>
        <time>2013-03-25T02:29:34Z</time>
      </trkpt>
      <trkpt lat="-21.35991" lon="55.74103">
        <ele>136.9</ele>
        <time>2013-03-25T02:29:38Z</time>
      </trkpt>
      <trkpt lat="-21.35988" lon="55.74111">
        <ele>137.3</ele>
        <time>2013-03-25T02:29:44Z</time>
      </trkpt>
      <trkpt lat="-21.3599" lon="55.74119">
        <ele>138.1</ele>
        <time>2013-03-25T02:29:49Z</time>
      </trkpt>
      <trkpt lat="-21.35991" lon="55.74128">
        <ele>138.5</ele>
        <time>2013-03-25T02:29:54Z</time>
      </trkpt>
      <trkpt lat="-21.35991" lon="55.74137">
        <ele>137.8</ele>
        <time>2013-03-25T02:29:59Z</time>
      </trkpt>
      <trkpt lat="-21.35994" lon="55.74145">
        <ele>138.2</ele>
        <time>2013-03-25T02:30:05Z</time>
      </trkpt>
      <trkpt lat="-21.35995" lon="55.74154">
        <ele>138.3</ele>
        <time>2013-03-25T02:30:09Z</time>
      </trkpt>
      <trkpt lat="-21.35995" lon="55.74162">
        <ele>137.3</ele>
        <time>2013-03-25T02:30:14Z</time>
      </trkpt>
      <trkpt lat="-21.35994" lon="55.7417">
        <ele>138.3</ele>
        <time>2013-03-25T02:30:19Z</time>
      </trkpt>
      <trkpt lat="-21.35994" lon="55.74178">
        <ele>137.4</ele>
        <time>2013-03-25T02:30:23Z</time>
      </trkpt>
      <trkpt lat="-21.35994" lon="55.74186">
        <ele>138</ele>
        <time>2013-03-25T02:30:27Z</time>
      </trkpt>
      <trkpt lat="-21.35994" lon="55.74194">
        <ele>138.6</ele>
        <time>2013-03-25T02:30:31Z</time>
      </trkpt>
      <trkpt lat="-21.35994" lon="55.74203">
        <ele>138.8</ele>
        <time>2013-03-25T02:30:36Z</time>
      </trkpt>
      <trkpt lat="-21.35994" lon="55.74212">
        <ele>139.3</ele>
        <time>2013-03-25T02:30:41Z</time>
      </trkpt>
      <trkpt lat="-21.35994" lon="55.74221">
        <ele>139.2</ele>
        <time>2013-03-25T02:30:46Z</time>
      </trkpt>
      <trkpt lat="-21.35995" lon="55.74229">
        <ele>138.7</ele>
        <time>2013-03-25T02:30:50Z</time>
      </trkpt>
      <trkpt lat="-21.35995" lon="55.74237">
        <ele>138.7</ele>
        <time>2013-03-25T02:30:56Z</time>
      </trkpt>
      <trkpt lat="-21.35994" lon="55.74246">
        <ele>139.2</ele>
        <time>2013-03-25T02:31:02Z</time>
      </trkpt>
      <trkpt lat="-21.35992" lon="55.74254">
        <ele>138.2</ele>
        <time>2013-03-25T02:31:07Z</time>
      </trkpt>
      <trkpt lat="-21.3599" lon="55.74263">
        <ele>138.7</ele>
        <time>2013-03-25T02:31:13Z</time>
      </trkpt>
      <trkpt lat="-21.35989" lon="55.74272">
        <ele>139.4</ele>
        <time>2013-03-25T02:31:18Z</time>
      </trkpt>
      <trkpt lat="-21.35988" lon="55.74281">
        <ele>139.8</ele>
        <time>2013-03-25T02:31:24Z</time>
      </trkpt>
      <trkpt lat="-21.35986" lon="55.7429">
        <ele>140.5</ele>
        <time>2013-03-25T02:31:30Z</time>
      </trkpt>
      <trkpt lat="-21.35986" lon="55.74299">
        <ele>141</ele>
        <time>2013-03-25T02:31:36Z</time>
      </trkpt>
      <trkpt lat="-21.35984" lon="55.74308">
        <ele>141.7</ele>
        <time>2013-03-25T02:31:42Z</time>
      </trkpt>
      <trkpt lat="-21.3598" lon="55.74316">
        <ele>141.2</ele>
        <time>2013-03-25T02:31:47Z</time>
      </trkpt>
      <trkpt lat="-21.35976" lon="55.74324">
        <ele>141.1</ele>
        <time>2013-03-25T02:31:52Z</time>
      </trkpt>
      <trkpt lat="-21.35973" lon="55.74332">
        <ele>142.5</ele>
        <time>2013-03-25T02:31:58Z</time>
      </trkpt>
      <trkpt lat="-21.35971" lon="55.74341">
        <ele>142.8</ele>
        <time>2013-03-25T02:32:04Z</time>
      </trkpt>
      <trkpt lat="-21.35968" lon="55.74349">
        <ele>141.9</ele>
        <time>2013-03-25T02:32:10Z</time>
      </trkpt>
      <trkpt lat="-21.35969" lon="55.74358">
        <ele>142.5</ele>
        <time>2013-03-25T02:32:16Z</time>
      </trkpt>
      <trkpt lat="-21.3597" lon="55.74367">
        <ele>143.1</ele>
        <time>2013-03-25T02:32:22Z</time>
      </trkpt>
      <trkpt lat="-21.35973" lon="55.74376">
        <ele>143.5</ele>
        <time>2013-03-25T02:32:28Z</time>
      </trkpt>
      <trkpt lat="-21.35974" lon="55.74384">
        <ele>144.1</ele>
        <time>2013-03-25T02:32:33Z</time>
      </trkpt>
      <trkpt lat="-21.35975" lon="55.74393">
        <ele>144.9</ele>
        <time>2013-03-25T02:32:39Z</time>
      </trkpt>
      <trkpt lat="-21.35973" lon="55.74402">
        <ele>145.2</ele>
        <time>2013-03-25T02:32:45Z</time>
      </trkpt>
      <trkpt lat="-21.35969" lon="55.74409">
        <ele>146.1</ele>
        <time>2013-03-25T02:32:52Z</time>
      </trkpt>
      <trkpt lat="-21.35965" lon="55.74416">
        <ele>145.7</ele>
        <time>2013-03-25T02:32:59Z</time>
      </trkpt>
      <trkpt lat="-21.3596" lon="55.74422">
        <ele>145.7</ele>
        <time>2013-03-25T02:33:05Z</time>
      </trkpt>
      <trkpt lat="-21.35955" lon="55.7443">
        <ele>145.5</ele>
        <time>2013-03-25T02:33:11Z</time>
      </trkpt>
      <trkpt lat="-21.35949" lon="55.74437">
        <ele>147.2</ele>
        <time>2013-03-25T02:33:17Z</time>
      </trkpt>
      <trkpt lat="-21.35945" lon="55.74444">
        <ele>147.2</ele>
        <time>2013-03-25T02:33:22Z</time>
      </trkpt>
      <trkpt lat="-21.3594" lon="55.74451">
        <ele>147.3</ele>
        <time>2013-03-25T02:33:28Z</time>
      </trkpt>
      <trkpt lat="-21.35942" lon="55.74443">
        <ele>146.8</ele>
        <time>2013-03-25T02:33:51Z</time>
      </trkpt>
      <trkpt lat="-21.35944" lon="55.74435">
        <ele>146.5</ele>
        <time>2013-03-25T02:33:57Z</time>
      </trkpt>
      <trkpt lat="-21.35949" lon="55.74428">
        <ele>146.5</ele>
        <time>2013-03-25T02:34:03Z</time>
      </trkpt>
      <trkpt lat="-21.35953" lon="55.7442">
        <ele>147</ele>
        <time>2013-03-25T02:34:11Z</time>
      </trkpt>
      <trkpt lat="-21.35956" lon="55.74411">
        <ele>148.2</ele>
        <time>2013-03-25T02:34:18Z</time>
      </trkpt>
      <trkpt lat="-21.35957" lon="55.74403">
        <ele>148.2</ele>
        <time>2013-03-25T02:34:24Z</time>
      </trkpt>
      <trkpt lat="-21.35953" lon="55.74395">
        <ele>148.1</ele>
        <time>2013-03-25T02:34:31Z</time>
      </trkpt>
      <trkpt lat="-21.35944" lon="55.74394">
        <ele>148.6</ele>
        <time>2013-03-25T02:34:39Z</time>
      </trkpt>
      <trkpt lat="-21.35936" lon="55.7439">
        <ele>150.1</ele>
        <time>2013-03-25T02:34:48Z</time>
      </trkpt>
      <trkpt lat="-21.35931" lon="55.74383">
        <ele>149.5</ele>
        <time>2013-03-25T02:34:56Z</time>
      </trkpt>
      <trkpt lat="-21.35929" lon="55.74373">
        <ele>149.6</ele>
        <time>2013-03-25T02:35:02Z</time>
      </trkpt>
      <trkpt lat="-21.35925" lon="55.74367">
        <ele>151.1</ele>
        <time>2013-03-25T02:35:07Z</time>
      </trkpt>
      <trkpt lat="-21.3592" lon="55.74359">
        <ele>150.5</ele>
        <time>2013-03-25T02:35:13Z</time>
      </trkpt>
      <trkpt lat="-21.35915" lon="55.74352">
        <ele>151.3</ele>
        <time>2013-03-25T02:35:18Z</time>
      </trkpt>
      <trkpt lat="-21.35912" lon="55.74344">
        <ele>151.9</ele>
        <time>2013-03-25T02:35:24Z</time>
      </trkpt>
      <trkpt lat="-21.3591" lon="55.74336">
        <ele>152.4</ele>
        <time>2013-03-25T02:35:29Z</time>
      </trkpt>
      <trkpt lat="-21.35907" lon="55.74327">
        <ele>152.2</ele>
        <time>2013-03-25T02:35:35Z</time>
      </trkpt>
      <trkpt lat="-21.35906" lon="55.74319">
        <ele>152.2</ele>
        <time>2013-03-25T02:35:40Z</time>
      </trkpt>
      <trkpt lat="-21.35905" lon="55.74311">
        <ele>153</ele>
        <time>2013-03-25T02:35:45Z</time>
      </trkpt>
      <trkpt lat="-21.35904" lon="55.74302">
        <ele>153.9</ele>
        <time>2013-03-25T02:35:51Z</time>
      </trkpt>
      <trkpt lat="-21.35901" lon="55.74293">
        <ele>153.8</ele>
        <time>2013-03-25T02:35:57Z</time>
      </trkpt>
      <trkpt lat="-21.35895" lon="55.74285">
        <ele>154.3</ele>
        <time>2013-03-25T02:36:03Z</time>
      </trkpt>
      <trkpt lat="-21.3589" lon="55.74279">
        <ele>154.6</ele>
        <time>2013-03-25T02:36:10Z</time>
      </trkpt>
      <trkpt lat="-21.35885" lon="55.74271">
        <ele>155.4</ele>
        <time>2013-03-25T02:36:16Z</time>
      </trkpt>
      <trkpt lat="-21.35883" lon="55.74263">
        <ele>155.7</ele>
        <time>2013-03-25T02:36:21Z</time>
      </trkpt>
      <trkpt lat="-21.35881" lon="55.74254">
        <ele>155.7</ele>
        <time>2013-03-25T02:36:26Z</time>
      </trkpt>
      <trkpt lat="-21.3588" lon="55.74244">
        <ele>156.4</ele>
        <time>2013-03-25T02:36:31Z</time>
      </trkpt>
      <trkpt lat="-21.35879" lon="55.74235">
        <ele>156.9</ele>
        <time>2013-03-25T02:36:36Z</time>
      </trkpt>
      <trkpt lat="-21.3588" lon="55.74227">
        <ele>156.7</ele>
        <time>2013-03-25T02:36:40Z</time>
      </trkpt>
      <trkpt lat="-21.35879" lon="55.74218">
        <ele>157</ele>
        <time>2013-03-25T02:36:44Z</time>
      </trkpt>
      <trkpt lat="-21.35876" lon="55.74209">
        <ele>157.5</ele>
        <time>2013-03-25T02:36:51Z</time>
      </trkpt>
      <trkpt lat="-21.35876" lon="55.742">
        <ele>158.4</ele>
        <time>2013-03-25T02:36:58Z</time>
      </trkpt>
      <trkpt lat="-21.35876" lon="55.74192">
        <ele>157.9</ele>
        <time>2013-03-25T02:37:03Z</time>
      </trkpt>
      <trkpt lat="-21.35877" lon="55.74182">
        <ele>158.9</ele>
        <time>2013-03-25T02:37:09Z</time>
      </trkpt>
      <trkpt lat="-21.35878" lon="55.74174">
        <ele>158.7</ele>
        <time>2013-03-25T02:37:14Z</time>
      </trkpt>
      <trkpt lat="-21.35881" lon="55.74166">
        <ele>159.6</ele>
        <time>2013-03-25T02:37:18Z</time>
      </trkpt>
      <trkpt lat="-21.35882" lon="55.74158">
        <ele>159.6</ele>
        <time>2013-03-25T02:37:23Z</time>
      </trkpt>
      <trkpt lat="-21.35883" lon="55.74149">
        <ele>160.1</ele>
        <time>2013-03-25T02:37:28Z</time>
      </trkpt>
      <trkpt lat="-21.35881" lon="55.74141">
        <ele>160</ele>
        <time>2013-03-25T02:37:33Z</time>
      </trkpt>
      <trkpt lat="-21.35878" lon="55.74133">
        <ele>160.6</ele>
        <time>2013-03-25T02:37:38Z</time>
      </trkpt>
      <trkpt lat="-21.35875" lon="55.74125">
        <ele>160.9</ele>
        <time>2013-03-25T02:37:43Z</time>
      </trkpt>
      <trkpt lat="-21.35871" lon="55.74117">
        <ele>161</ele>
        <time>2013-03-25T02:37:49Z</time>
      </trkpt>
      <trkpt lat="-21.35868" lon="55.74109">
        <ele>161.4</ele>
        <time>2013-03-25T02:37:54Z</time>
      </trkpt>
      <trkpt lat="-21.35866" lon="55.74101">
        <ele>161.9</ele>
        <time>2013-03-25T02:38:00Z</time>
      </trkpt>
      <trkpt lat="-21.35863" lon="55.74093">
        <ele>162.7</ele>
        <time>2013-03-25T02:38:07Z</time>
      </trkpt>
      <trkpt lat="-21.3586" lon="55.74085">
        <ele>164.1</ele>
        <time>2013-03-25T02:38:13Z</time>
      </trkpt>
      <trkpt lat="-21.35856" lon="55.74077">
        <ele>165.6</ele>
        <time>2013-03-25T02:38:20Z</time>
      </trkpt>
      <trkpt lat="-21.35852" lon="55.74071">
        <ele>166.5</ele>
        <time>2013-03-25T02:38:25Z</time>
      </trkpt>
      <trkpt lat="-21.35848" lon="55.74063">
        <ele>166.7</ele>
        <time>2013-03-25T02:38:30Z</time>
      </trkpt>
      <trkpt lat="-21.35844" lon="55.74054">
        <ele>168.1</ele>
        <time>2013-03-25T02:38:36Z</time>
      </trkpt>
      <trkpt lat="-21.35841" lon="55.74046">
        <ele>168.1</ele>
        <time>2013-03-25T02:38:42Z</time>
      </trkpt>
      <trkpt lat="-21.35838" lon="55.74038">
        <ele>168.2</ele>
        <time>2013-03-25T02:38:48Z</time>
      </trkpt>
      <trkpt lat="-21.35837" lon="55.74029">
        <ele>169.4</ele>
        <time>2013-03-25T02:38:54Z</time>
      </trkpt>
      <trkpt lat="-21.35837" lon="55.7402">
        <ele>170</ele>
        <time>2013-03-25T02:39:00Z</time>
      </trkpt>
      <trkpt lat="-21.35836" lon="55.74011">
        <ele>171.5</ele>
        <time>2013-03-25T02:39:07Z</time>
      </trkpt>
      <trkpt lat="-21.35834" lon="55.74002">
        <ele>171.4</ele>
        <time>2013-03-25T02:39:13Z</time>
      </trkpt>
      <trkpt lat="-21.35832" lon="55.73993">
        <ele>173.4</ele>
        <time>2013-03-25T02:39:19Z</time>
      </trkpt>
      <trkpt lat="-21.35831" lon="55.73985">
        <ele>174.2</ele>
        <time>2013-03-25T02:39:25Z</time>
      </trkpt>
      <trkpt lat="-21.35827" lon="55.73977">
        <ele>174.2</ele>
        <time>2013-03-25T02:39:31Z</time>
      </trkpt>
      <trkpt lat="-21.3582" lon="55.73973">
        <ele>175.2</ele>
        <time>2013-03-25T02:39:39Z</time>
      </trkpt>
      <trkpt lat="-21.35813" lon="55.73979">
        <ele>176.5</ele>
        <time>2013-03-25T02:39:50Z</time>
      </trkpt>
      <trkpt lat="-21.35807" lon="55.73984">
        <ele>178</ele>
        <time>2013-03-25T02:39:58Z</time>
      </trkpt>
      <trkpt lat="-21.35802" lon="55.73991">
        <ele>178.3</ele>
        <time>2013-03-25T02:40:03Z</time>
      </trkpt>
      <trkpt lat="-21.35796" lon="55.73997">
        <ele>179.2</ele>
        <time>2013-03-25T02:40:08Z</time>
      </trkpt>
      <trkpt lat="-21.35789" lon="55.74002">
        <ele>179</ele>
        <time>2013-03-25T02:40:14Z</time>
      </trkpt>
      <trkpt lat="-21.35783" lon="55.73995">
        <ele>180.5</ele>
        <time>2013-03-25T02:40:25Z</time>
      </trkpt>
      <trkpt lat="-21.35783" lon="55.73987">
        <ele>181.7</ele>
        <time>2013-03-25T02:40:34Z</time>
      </trkpt>
      <trkpt lat="-21.35782" lon="55.73978">
        <ele>182.8</ele>
        <time>2013-03-25T02:40:43Z</time>
      </trkpt>
      <trkpt lat="-21.35783" lon="55.73968">
        <ele>183.2</ele>
        <time>2013-03-25T02:40:52Z</time>
      </trkpt>
      <trkpt lat="-21.35781" lon="55.73961">
        <ele>184.6</ele>
        <time>2013-03-25T02:40:58Z</time>
      </trkpt>
      <trkpt lat="-21.35782" lon="55.73953">
        <ele>184.6</ele>
        <time>2013-03-25T02:41:03Z</time>
      </trkpt>
      <trkpt lat="-21.35781" lon="55.73944">
        <ele>185.6</ele>
        <time>2013-03-25T02:41:08Z</time>
      </trkpt>
      <trkpt lat="-21.3578" lon="55.73936">
        <ele>186.9</ele>
        <time>2013-03-25T02:41:13Z</time>
      </trkpt>
      <trkpt lat="-21.35774" lon="55.7393">
        <ele>187.3</ele>
        <time>2013-03-25T02:41:19Z</time>
      </trkpt>
      <trkpt lat="-21.35766" lon="55.7393">
        <ele>188.1</ele>
        <time>2013-03-25T02:41:24Z</time>
      </trkpt>
      <trkpt lat="-21.35758" lon="55.73933">
        <ele>188.6</ele>
        <time>2013-03-25T02:41:30Z</time>
      </trkpt>
      <trkpt lat="-21.35751" lon="55.73938">
        <ele>189.4</ele>
        <time>2013-03-25T02:41:36Z</time>
      </trkpt>
      <trkpt lat="-21.35743" lon="55.73943">
        <ele>189.5</ele>
        <time>2013-03-25T02:41:45Z</time>
      </trkpt>
      <trkpt lat="-21.35737" lon="55.7395">
        <ele>190</ele>
        <time>2013-03-25T02:41:54Z</time>
      </trkpt>
      <trkpt lat="-21.35733" lon="55.73958">
        <ele>190.8</ele>
        <time>2013-03-25T02:42:00Z</time>
      </trkpt>
      <trkpt lat="-21.35729" lon="55.73966">
        <ele>191.6</ele>
        <time>2013-03-25T02:42:07Z</time>
      </trkpt>
      <trkpt lat="-21.35727" lon="55.73975">
        <ele>191.9</ele>
        <time>2013-03-25T02:42:15Z</time>
      </trkpt>
      <trkpt lat="-21.35724" lon="55.73983">
        <ele>191.8</ele>
        <time>2013-03-25T02:42:22Z</time>
      </trkpt>
      <trkpt lat="-21.35719" lon="55.73991">
        <ele>191.9</ele>
        <time>2013-03-25T02:42:29Z</time>
      </trkpt>
      <trkpt lat="-21.35715" lon="55.73997">
        <ele>192</ele>
        <time>2013-03-25T02:42:34Z</time>
      </trkpt>
      <trkpt lat="-21.35711" lon="55.74005">
        <ele>192.7</ele>
        <time>2013-03-25T02:42:39Z</time>
      </trkpt>
      <trkpt lat="-21.35706" lon="55.74012">
        <ele>193.3</ele>
        <time>2013-03-25T02:42:43Z</time>
      </trkpt>
      <trkpt lat="-21.35702" lon="55.74019">
        <ele>193.5</ele>
        <time>2013-03-25T02:42:47Z</time>
      </trkpt>
      <trkpt lat="-21.35698" lon="55.74028">
        <ele>194.3</ele>
        <time>2013-03-25T02:42:53Z</time>
      </trkpt>
      <trkpt lat="-21.35692" lon="55.74034">
        <ele>195.1</ele>
        <time>2013-03-25T02:43:00Z</time>
      </trkpt>
      <trkpt lat="-21.35684" lon="55.74038">
        <ele>195.8</ele>
        <time>2013-03-25T02:43:08Z</time>
      </trkpt>
      <trkpt lat="-21.35676" lon="55.74038">
        <ele>196.1</ele>
        <time>2013-03-25T02:43:12Z</time>
      </trkpt>
      <trkpt lat="-21.3567" lon="55.74032">
        <ele>197.6</ele>
        <time>2013-03-25T02:43:20Z</time>
      </trkpt>
      <trkpt lat="-21.35663" lon="55.74026">
        <ele>198.3</ele>
        <time>2013-03-25T02:43:27Z</time>
      </trkpt>
      <trkpt lat="-21.35659" lon="55.74018">
        <ele>199.7</ele>
        <time>2013-03-25T02:43:35Z</time>
      </trkpt>
      <trkpt lat="-21.35656" lon="55.7401">
        <ele>200.7</ele>
        <time>2013-03-25T02:43:41Z</time>
      </trkpt>
      <trkpt lat="-21.35653" lon="55.74001">
        <ele>201.1</ele>
        <time>2013-03-25T02:43:47Z</time>
      </trkpt>
      <trkpt lat="-21.3565" lon="55.73992">
        <ele>201.4</ele>
        <time>2013-03-25T02:43:53Z</time>
      </trkpt>
      <trkpt lat="-21.35648" lon="55.73984">
        <ele>201.8</ele>
        <time>2013-03-25T02:43:58Z</time>
      </trkpt>
      <trkpt lat="-21.35646" lon="55.73976">
        <ele>202.9</ele>
        <time>2013-03-25T02:44:03Z</time>
      </trkpt>
      <trkpt lat="-21.35644" lon="55.73967">
        <ele>202.7</ele>
        <time>2013-03-25T02:44:08Z</time>
      </trkpt>
      <trkpt lat="-21.3564" lon="55.73959">
        <ele>203.7</ele>
        <time>2013-03-25T02:44:14Z</time>
      </trkpt>
      <trkpt lat="-21.35638" lon="55.73951">
        <ele>204.6</ele>
        <time>2013-03-25T02:44:19Z</time>
      </trkpt>
      <trkpt lat="-21.35635" lon="55.73942">
        <ele>203.7</ele>
        <time>2013-03-25T02:44:24Z</time>
      </trkpt>
      <trkpt lat="-21.35633" lon="55.73934">
        <ele>204.8</ele>
        <time>2013-03-25T02:44:29Z</time>
      </trkpt>
      <trkpt lat="-21.35631" lon="55.73925">
        <ele>204.2</ele>
        <time>2013-03-25T02:44:35Z</time>
      </trkpt>
      <trkpt lat="-21.3563" lon="55.73916">
        <ele>205.1</ele>
        <time>2013-03-25T02:44:40Z</time>
      </trkpt>
      <trkpt lat="-21.35627" lon="55.73908">
        <ele>206.4</ele>
        <time>2013-03-25T02:44:46Z</time>
      </trkpt>
      <trkpt lat="-21.35619" lon="55.73909">
        <ele>207</ele>
        <time>2013-03-25T02:44:56Z</time>
      </trkpt>
      <trkpt lat="-21.35613" lon="55.73913">
        <ele>207.6</ele>
        <time>2013-03-25T02:45:04Z</time>
      </trkpt>
      <trkpt lat="-21.35606" lon="55.73918">
        <ele>208.3</ele>
        <time>2013-03-25T02:45:10Z</time>
      </trkpt>
      <trkpt lat="-21.35598" lon="55.73922">
        <ele>208.5</ele>
        <time>2013-03-25T02:45:16Z</time>
      </trkpt>
      <trkpt lat="-21.3559" lon="55.73927">
        <ele>208.1</ele>
        <time>2013-03-25T02:45:22Z</time>
      </trkpt>
      <trkpt lat="-21.35585" lon="55.73932">
        <ele>209.2</ele>
        <time>2013-03-25T02:45:28Z</time>
      </trkpt>
      <trkpt lat="-21.35579" lon="55.73938">
        <ele>209.2</ele>
        <time>2013-03-25T02:45:33Z</time>
      </trkpt>
      <trkpt lat="-21.35574" lon="55.73943">
        <ele>209.7</ele>
        <time>2013-03-25T02:45:37Z</time>
      </trkpt>
      <trkpt lat="-21.35569" lon="55.73949">
        <ele>210.6</ele>
        <time>2013-03-25T02:45:41Z</time>
      </trkpt>
      <trkpt lat="-21.35563" lon="55.73956">
        <ele>211.1</ele>
        <time>2013-03-25T02:45:46Z</time>
      </trkpt>
      <trkpt lat="-21.35557" lon="55.73961">
        <ele>210.7</ele>
        <time>2013-03-25T02:45:52Z</time>
      </trkpt>
      <trkpt lat="-21.35554" lon="55.73969">
        <ele>211.3</ele>
        <time>2013-03-25T02:45:58Z</time>
      </trkpt>
      <trkpt lat="-21.3555" lon="55.73977">
        <ele>212.1</ele>
        <time>2013-03-25T02:46:03Z</time>
      </trkpt>
      <trkpt lat="-21.35546" lon="55.73985">
        <ele>212.4</ele>
        <time>2013-03-25T02:46:07Z</time>
      </trkpt>
      <trkpt lat="-21.35541" lon="55.73992">
        <ele>212.5</ele>
        <time>2013-03-25T02:46:10Z</time>
      </trkpt>
      <trkpt lat="-21.35537" lon="55.73999">
        <ele>211.7</ele>
        <time>2013-03-25T02:46:14Z</time>
      </trkpt>
      <trkpt lat="-21.35535" lon="55.74007">
        <ele>212.3</ele>
        <time>2013-03-25T02:46:18Z</time>
      </trkpt>
      <trkpt lat="-21.35532" lon="55.74015">
        <ele>213.3</ele>
        <time>2013-03-25T02:46:23Z</time>
      </trkpt>
      <trkpt lat="-21.35528" lon="55.74023">
        <ele>213</ele>
        <time>2013-03-25T02:46:27Z</time>
      </trkpt>
      <trkpt lat="-21.35523" lon="55.7403">
        <ele>214.1</ele>
        <time>2013-03-25T02:46:31Z</time>
      </trkpt>
      <trkpt lat="-21.3552" lon="55.74038">
        <ele>214.4</ele>
        <time>2013-03-25T02:46:35Z</time>
      </trkpt>
      <trkpt lat="-21.35518" lon="55.74046">
        <ele>214.2</ele>
        <time>2013-03-25T02:46:40Z</time>
      </trkpt>
      <trkpt lat="-21.35517" lon="55.74055">
        <ele>214.5</ele>
        <time>2013-03-25T02:46:47Z</time>
      </trkpt>
      <trkpt lat="-21.35515" lon="55.74063">
        <ele>215.1</ele>
        <time>2013-03-25T02:46:53Z</time>
      </trkpt>
      <trkpt lat="-21.35515" lon="55.74071">
        <ele>215.1</ele>
        <time>2013-03-25T02:46:59Z</time>
      </trkpt>
      <trkpt lat="-21.35514" lon="55.74081">
        <ele>215.8</ele>
        <time>2013-03-25T02:47:06Z</time>
      </trkpt>
      <trkpt lat="-21.35512" lon="55.74089">
        <ele>215.4</ele>
        <time>2013-03-25T02:47:12Z</time>
      </trkpt>
      <trkpt lat="-21.3551" lon="55.74098">
        <ele>215.4</ele>
        <time>2013-03-25T02:47:17Z</time>
      </trkpt>
      <trkpt lat="-21.35507" lon="55.74107">
        <ele>215.5</ele>
        <time>2013-03-25T02:47:22Z</time>
      </trkpt>
      <trkpt lat="-21.35505" lon="55.74114">
        <ele>215.4</ele>
        <time>2013-03-25T02:47:27Z</time>
      </trkpt>
      <trkpt lat="-21.35501" lon="55.74123">
        <ele>216.6</ele>
        <time>2013-03-25T02:47:33Z</time>
      </trkpt>
      <trkpt lat="-21.35495" lon="55.74129">
        <ele>216.9</ele>
        <time>2013-03-25T02:47:37Z</time>
      </trkpt>
      <trkpt lat="-21.3549" lon="55.74134">
        <ele>217.5</ele>
        <time>2013-03-25T02:47:41Z</time>
      </trkpt>
      <trkpt lat="-21.35483" lon="55.74141">
        <ele>216.6</ele>
        <time>2013-03-25T02:47:46Z</time>
      </trkpt>
      <trkpt lat="-21.35477" lon="55.74148">
        <ele>216.6</ele>
        <time>2013-03-25T02:47:51Z</time>
      </trkpt>
      <trkpt lat="-21.35471" lon="55.74154">
        <ele>217.3</ele>
        <time>2013-03-25T02:47:57Z</time>
      </trkpt>
      <trkpt lat="-21.35464" lon="55.74161">
        <ele>217.9</ele>
        <time>2013-03-25T02:48:02Z</time>
      </trkpt>
      <trkpt lat="-21.35459" lon="55.74168">
        <ele>217.9</ele>
        <time>2013-03-25T02:48:07Z</time>
      </trkpt>
      <trkpt lat="-21.35457" lon="55.74176">
        <ele>218.1</ele>
        <time>2013-03-25T02:48:12Z</time>
      </trkpt>
      <trkpt lat="-21.35454" lon="55.74183">
        <ele>218.9</ele>
        <time>2013-03-25T02:48:17Z</time>
      </trkpt>
      <trkpt lat="-21.3545" lon="55.74191">
        <ele>219.2</ele>
        <time>2013-03-25T02:48:22Z</time>
      </trkpt>
      <trkpt lat="-21.35448" lon="55.74199">
        <ele>219.8</ele>
        <time>2013-03-25T02:48:29Z</time>
      </trkpt>
      <trkpt lat="-21.35447" lon="55.74208">
        <ele>219.8</ele>
        <time>2013-03-25T02:48:37Z</time>
      </trkpt>
      <trkpt lat="-21.35447" lon="55.74218">
        <ele>219.9</ele>
        <time>2013-03-25T02:48:44Z</time>
      </trkpt>
      <trkpt lat="-21.35451" lon="55.74226">
        <ele>221.3</ele>
        <time>2013-03-25T02:48:51Z</time>
      </trkpt>
      <trkpt lat="-21.3545" lon="55.74235">
        <ele>221.3</ele>
        <time>2013-03-25T02:48:57Z</time>
      </trkpt>
      <trkpt lat="-21.3545" lon="55.74244">
        <ele>221.4</ele>
        <time>2013-03-25T02:49:04Z</time>
      </trkpt>
      <trkpt lat="-21.3545" lon="55.74253">
        <ele>221.3</ele>
        <time>2013-03-25T02:49:10Z</time>
      </trkpt>
      <trkpt lat="-21.35447" lon="55.7426">
        <ele>220.9</ele>
        <time>2013-03-25T02:49:14Z</time>
      </trkpt>
      <trkpt lat="-21.35444" lon="55.74268">
        <ele>221.9</ele>
        <time>2013-03-25T02:49:18Z</time>
      </trkpt>
      <trkpt lat="-21.35444" lon="55.74276">
        <ele>222</ele>
        <time>2013-03-25T02:49:23Z</time>
      </trkpt>
      <trkpt lat="-21.35444" lon="55.74285">
        <ele>222.2</ele>
        <time>2013-03-25T02:49:28Z</time>
      </trkpt>
      <trkpt lat="-21.35444" lon="55.74294">
        <ele>222.3</ele>
        <time>2013-03-25T02:49:33Z</time>
      </trkpt>
      <trkpt lat="-21.35444" lon="55.74303">
        <ele>222.6</ele>
        <time>2013-03-25T02:49:38Z</time>
      </trkpt>
      <trkpt lat="-21.3544" lon="55.74311">
        <ele>223.9</ele>
        <time>2013-03-25T02:49:42Z</time>
      </trkpt>
      <trkpt lat="-21.35438" lon="55.7432">
        <ele>224.1</ele>
        <time>2013-03-25T02:49:47Z</time>
      </trkpt>
      <trkpt lat="-21.35438" lon="55.74328">
        <ele>224.6</ele>
        <time>2013-03-25T02:49:51Z</time>
      </trkpt>
      <trkpt lat="-21.35435" lon="55.74337">
        <ele>225.3</ele>
        <time>2013-03-25T02:49:56Z</time>
      </trkpt>
      <trkpt lat="-21.35434" lon="55.74346">
        <ele>225.4</ele>
        <time>2013-03-25T02:50:05Z</time>
      </trkpt>
      <trkpt lat="-21.35432" lon="55.74355">
        <ele>226.5</ele>
        <time>2013-03-25T02:50:13Z</time>
      </trkpt>
      <trkpt lat="-21.35432" lon="55.74363">
        <ele>227.1</ele>
        <time>2013-03-25T02:50:20Z</time>
      </trkpt>
      <trkpt lat="-21.35425" lon="55.74369">
        <ele>228.1</ele>
        <time>2013-03-25T02:50:25Z</time>
      </trkpt>
      <trkpt lat="-21.35419" lon="55.74375">
        <ele>229.2</ele>
        <time>2013-03-25T02:50:30Z</time>
      </trkpt>
      <trkpt lat="-21.35412" lon="55.74378">
        <ele>229.5</ele>
        <time>2013-03-25T02:50:35Z</time>
      </trkpt>
      <trkpt lat="-21.35403" lon="55.74378">
        <ele>230.6</ele>
        <time>2013-03-25T02:50:40Z</time>
      </trkpt>
      <trkpt lat="-21.35395" lon="55.74377">
        <ele>231.9</ele>
        <time>2013-03-25T02:50:46Z</time>
      </trkpt>
      <trkpt lat="-21.35388" lon="55.74378">
        <ele>232.4</ele>
        <time>2013-03-25T02:50:51Z</time>
      </trkpt>
      <trkpt lat="-21.3538" lon="55.74375">
        <ele>232.2</ele>
        <time>2013-03-25T02:50:55Z</time>
      </trkpt>
      <trkpt lat="-21.35372" lon="55.74371">
        <ele>232.7</ele>
        <time>2013-03-25T02:51:00Z</time>
      </trkpt>
      <trkpt lat="-21.35365" lon="55.74366">
        <ele>232.7</ele>
        <time>2013-03-25T02:51:06Z</time>
      </trkpt>
      <trkpt lat="-21.35362" lon="55.74359">
        <ele>233.8</ele>
        <time>2013-03-25T02:51:13Z</time>
      </trkpt>
      <trkpt lat="-21.35363" lon="55.74351">
        <ele>234.7</ele>
        <time>2013-03-25T02:51:19Z</time>
      </trkpt>
      <trkpt lat="-21.35362" lon="55.74342">
        <ele>235.3</ele>
        <time>2013-03-25T02:51:24Z</time>
      </trkpt>
      <trkpt lat="-21.3536" lon="55.74333">
        <ele>235.4</ele>
        <time>2013-03-25T02:51:29Z</time>
      </trkpt>
      <trkpt lat="-21.35356" lon="55.74325">
        <ele>235.9</ele>
        <time>2013-03-25T02:51:34Z</time>
      </trkpt>
      <trkpt lat="-21.35351" lon="55.74318">
        <ele>237.6</ele>
        <time>2013-03-25T02:51:40Z</time>
      </trkpt>
      <trkpt lat="-21.35346" lon="55.74311">
        <ele>237.6</ele>
        <time>2013-03-25T02:51:46Z</time>
      </trkpt>
      <trkpt lat="-21.35341" lon="55.74303">
        <ele>238</ele>
        <time>2013-03-25T02:51:54Z</time>
      </trkpt>
      <trkpt lat="-21.35341" lon="55.74294">
        <ele>238.8</ele>
        <time>2013-03-25T02:52:02Z</time>
      </trkpt>
      <trkpt lat="-21.35343" lon="55.74286">
        <ele>239</ele>
        <time>2013-03-25T02:52:08Z</time>
      </trkpt>
      <trkpt lat="-21.35342" lon="55.74278">
        <ele>239.5</ele>
        <time>2013-03-25T02:52:13Z</time>
      </trkpt>
      <trkpt lat="-21.35341" lon="55.74269">
        <ele>240.7</ele>
        <time>2013-03-25T02:52:19Z</time>
      </trkpt>
      <trkpt lat="-21.3534" lon="55.74261">
        <ele>241.4</ele>
        <time>2013-03-25T02:52:24Z</time>
      </trkpt>
      <trkpt lat="-21.35337" lon="55.74252">
        <ele>240.6</ele>
        <time>2013-03-25T02:52:31Z</time>
      </trkpt>
      <trkpt lat="-21.35333" lon="55.74245">
        <ele>241.6</ele>
        <time>2013-03-25T02:52:36Z</time>
      </trkpt>
      <trkpt lat="-21.35328" lon="55.74237">
        <ele>242.5</ele>
        <time>2013-03-25T02:52:41Z</time>
      </trkpt>
      <trkpt lat="-21.35326" lon="55.74229">
        <ele>243.2</ele>
        <time>2013-03-25T02:52:46Z</time>
      </trkpt>
      <trkpt lat="-21.35324" lon="55.74221">
        <ele>244</ele>
        <time>2013-03-25T02:52:51Z</time>
      </trkpt>
      <trkpt lat="-21.35322" lon="55.74213">
        <ele>244.6</ele>
        <time>2013-03-25T02:52:56Z</time>
      </trkpt>
      <trkpt lat="-21.35319" lon="55.74204">
        <ele>245.1</ele>
        <time>2013-03-25T02:53:03Z</time>
      </trkpt>
      <trkpt lat="-21.35315" lon="55.74196">
        <ele>245.6</ele>
        <time>2013-03-25T02:53:08Z</time>
      </trkpt>
      <trkpt lat="-21.35312" lon="55.74187">
        <ele>245.4</ele>
        <time>2013-03-25T02:53:15Z</time>
      </trkpt>
      <trkpt lat="-21.35309" lon="55.74178">
        <ele>246</ele>
        <time>2013-03-25T02:53:20Z</time>
      </trkpt>
      <trkpt lat="-21.35307" lon="55.74171">
        <ele>246.7</ele>
        <time>2013-03-25T02:53:24Z</time>
      </trkpt>
      <trkpt lat="-21.35304" lon="55.74163">
        <ele>247.2</ele>
        <time>2013-03-25T02:53:29Z</time>
      </trkpt>
      <trkpt lat="-21.35301" lon="55.74155">
        <ele>246.6</ele>
        <time>2013-03-25T02:53:33Z</time>
      </trkpt>
      <trkpt lat="-21.35298" lon="55.74148">
        <ele>247.3</ele>
        <time>2013-03-25T02:53:38Z</time>
      </trkpt>
      <trkpt lat="-21.35297" lon="55.74139">
        <ele>248.5</ele>
        <time>2013-03-25T02:53:44Z</time>
      </trkpt>
      <trkpt lat="-21.35296" lon="55.7413">
        <ele>249.3</ele>
        <time>2013-03-25T02:53:51Z</time>
      </trkpt>
      <trkpt lat="-21.35292" lon="55.74122">
        <ele>250.4</ele>
        <time>2013-03-25T02:53:58Z</time>
      </trkpt>
      <trkpt lat="-21.3529" lon="55.74113">
        <ele>250.6</ele>
        <time>2013-03-25T02:54:03Z</time>
      </trkpt>
      <trkpt lat="-21.35286" lon="55.74106">
        <ele>250</ele>
        <time>2013-03-25T02:54:08Z</time>
      </trkpt>
      <trkpt lat="-21.35279" lon="55.74099">
        <ele>251</ele>
        <time>2013-03-25T02:54:13Z</time>
      </trkpt>
      <trkpt lat="-21.35272" lon="55.74095">
        <ele>251.7</ele>
        <time>2013-03-25T02:54:18Z</time>
      </trkpt>
      <trkpt lat="-21.35264" lon="55.74092">
        <ele>251.3</ele>
        <time>2013-03-25T02:54:23Z</time>
      </trkpt>
      <trkpt lat="-21.35256" lon="55.74087">
        <ele>251.4</ele>
        <time>2013-03-25T02:54:30Z</time>
      </trkpt>
      <trkpt lat="-21.35249" lon="55.74085">
        <ele>252.6</ele>
        <time>2013-03-25T02:54:34Z</time>
      </trkpt>
      <trkpt lat="-21.35242" lon="55.74081">
        <ele>252.5</ele>
        <time>2013-03-25T02:54:38Z</time>
      </trkpt>
      <trkpt lat="-21.35237" lon="55.74074">
        <ele>252.7</ele>
        <time>2013-03-25T02:54:42Z</time>
      </trkpt>
      <trkpt lat="-21.35237" lon="55.74065">
        <ele>252.1</ele>
        <time>2013-03-25T02:54:47Z</time>
      </trkpt>
      <trkpt lat="-21.35237" lon="55.74057">
        <ele>252.9</ele>
        <time>2013-03-25T02:54:52Z</time>
      </trkpt>
      <trkpt lat="-21.35239" lon="55.74048">
        <ele>253.7</ele>
        <time>2013-03-25T02:54:57Z</time>
      </trkpt>
      <trkpt lat="-21.35238" lon="55.7404">
        <ele>253.7</ele>
        <time>2013-03-25T02:55:01Z</time>
      </trkpt>
      <trkpt lat="-21.35237" lon="55.74031">
        <ele>255.4</ele>
        <time>2013-03-25T02:55:06Z</time>
      </trkpt>
      <trkpt lat="-21.3524" lon="55.74022">
        <ele>255.9</ele>
        <time>2013-03-25T02:55:12Z</time>
      </trkpt>
      <trkpt lat="-21.35244" lon="55.74016">
        <ele>255.6</ele>
        <time>2013-03-25T02:55:16Z</time>
      </trkpt>
      <trkpt lat="-21.3525" lon="55.7401">
        <ele>256.3</ele>
        <time>2013-03-25T02:55:20Z</time>
      </trkpt>
      <trkpt lat="-21.35256" lon="55.74003">
        <ele>256.2</ele>
        <time>2013-03-25T02:55:26Z</time>
      </trkpt>
      <trkpt lat="-21.3526" lon="55.73996">
        <ele>257.1</ele>
        <time>2013-03-25T02:55:32Z</time>
      </trkpt>
      <trkpt lat="-21.35264" lon="55.73988">
        <ele>258.3</ele>
        <time>2013-03-25T02:55:38Z</time>
      </trkpt>
      <trkpt lat="-21.35266" lon="55.73979">
        <ele>258.5</ele>
        <time>2013-03-25T02:55:45Z</time>
      </trkpt>
      <trkpt lat="-21.35266" lon="55.73971">
        <ele>259</ele>
        <time>2013-03-25T02:55:50Z</time>
      </trkpt>
      <trkpt lat="-21.35263" lon="55.73962">
        <ele>258.9</ele>
        <time>2013-03-25T02:55:55Z</time>
      </trkpt>
      <trkpt lat="-21.35258" lon="55.73955">
        <ele>259.5</ele>
        <time>2013-03-25T02:56:02Z</time>
      </trkpt>
      <trkpt lat="-21.35251" lon="55.7395">
        <ele>260.4</ele>
        <time>2013-03-25T02:56:09Z</time>
      </trkpt>
      <trkpt lat="-21.35246" lon="55.73943">
        <ele>261.3</ele>
        <time>2013-03-25T02:56:15Z</time>
      </trkpt>
      <trkpt lat="-21.35238" lon="55.73938">
        <ele>262.9</ele>
        <time>2013-03-25T02:56:21Z</time>
      </trkpt>
      <trkpt lat="-21.35232" lon="55.73932">
        <ele>262.8</ele>
        <time>2013-03-25T02:56:29Z</time>
      </trkpt>
      <trkpt lat="-21.35227" lon="55.73925">
        <ele>263.9</ele>
        <time>2013-03-25T02:56:36Z</time>
      </trkpt>
      <trkpt lat="-21.35221" lon="55.7392">
        <ele>264.3</ele>
        <time>2013-03-25T02:56:41Z</time>
      </trkpt>
      <trkpt lat="-21.35213" lon="55.73917">
        <ele>264.8</ele>
        <time>2013-03-25T02:56:46Z</time>
      </trkpt>
      <trkpt lat="-21.35205" lon="55.73916">
        <ele>265.3</ele>
        <time>2013-03-25T02:56:52Z</time>
      </trkpt>
      <trkpt lat="-21.35197" lon="55.73916">
        <ele>265.6</ele>
        <time>2013-03-25T02:56:58Z</time>
      </trkpt>
      <trkpt lat="-21.35189" lon="55.73918">
        <ele>266.9</ele>
        <time>2013-03-25T02:57:04Z</time>
      </trkpt>
      <trkpt lat="-21.35182" lon="55.73918">
        <ele>267.8</ele>
        <time>2013-03-25T02:57:08Z</time>
      </trkpt>
      <trkpt lat="-21.35174" lon="55.73916">
        <ele>267.5</ele>
        <time>2013-03-25T02:57:12Z</time>
      </trkpt>
      <trkpt lat="-21.35165" lon="55.73917">
        <ele>269.2</ele>
        <time>2013-03-25T02:57:20Z</time>
      </trkpt>
      <trkpt lat="-21.35157" lon="55.73919">
        <ele>269.1</ele>
        <time>2013-03-25T02:57:26Z</time>
      </trkpt>
      <trkpt lat="-21.35149" lon="55.73922">
        <ele>269.5</ele>
        <time>2013-03-25T02:57:32Z</time>
      </trkpt>
      <trkpt lat="-21.35143" lon="55.73928">
        <ele>270.4</ele>
        <time>2013-03-25T02:57:45Z</time>
      </trkpt>
      <trkpt lat="-21.35138" lon="55.73935">
        <ele>272.4</ele>
        <time>2013-03-25T02:57:53Z</time>
      </trkpt>
      <trkpt lat="-21.35133" lon="55.73943">
        <ele>273.5</ele>
        <time>2013-03-25T02:57:59Z</time>
      </trkpt>
      <trkpt lat="-21.35128" lon="55.73949">
        <ele>274.2</ele>
        <time>2013-03-25T02:58:05Z</time>
      </trkpt>
      <trkpt lat="-21.35127" lon="55.73957">
        <ele>273.7</ele>
        <time>2013-03-25T02:58:10Z</time>
      </trkpt>
      <trkpt lat="-21.35123" lon="55.73964">
        <ele>274</ele>
        <time>2013-03-25T02:58:15Z</time>
      </trkpt>
      <trkpt lat="-21.35119" lon="55.73972">
        <ele>275</ele>
        <time>2013-03-25T02:58:20Z</time>
      </trkpt>
      <trkpt lat="-21.35115" lon="55.7398">
        <ele>275.5</ele>
        <time>2013-03-25T02:58:26Z</time>
      </trkpt>
      <trkpt lat="-21.35111" lon="55.73988">
        <ele>276.3</ele>
        <time>2013-03-25T02:58:31Z</time>
      </trkpt>
      <trkpt lat="-21.35106" lon="55.73996">
        <ele>277.4</ele>
        <time>2013-03-25T02:58:35Z</time>
      </trkpt>
      <trkpt lat="-21.35103" lon="55.74005">
        <ele>278.3</ele>
        <time>2013-03-25T02:58:40Z</time>
      </trkpt>
      <trkpt lat="-21.35101" lon="55.74014">
        <ele>279.2</ele>
        <time>2013-03-25T02:58:46Z</time>
      </trkpt>
      <trkpt lat="-21.35095" lon="55.7402">
        <ele>279.5</ele>
        <time>2013-03-25T02:58:52Z</time>
      </trkpt>
      <trkpt lat="-21.3509" lon="55.74026">
        <ele>279.8</ele>
        <time>2013-03-25T02:58:56Z</time>
      </trkpt>
      <trkpt lat="-21.35086" lon="55.74034">
        <ele>280.5</ele>
        <time>2013-03-25T02:59:01Z</time>
      </trkpt>
      <trkpt lat="-21.35082" lon="55.7404">
        <ele>281.1</ele>
        <time>2013-03-25T02:59:06Z</time>
      </trkpt>
      <trkpt lat="-21.35079" lon="55.74048">
        <ele>281.3</ele>
        <time>2013-03-25T02:59:10Z</time>
      </trkpt>
      <trkpt lat="-21.35078" lon="55.74057">
        <ele>281.5</ele>
        <time>2013-03-25T02:59:15Z</time>
      </trkpt>
      <trkpt lat="-21.35075" lon="55.74065">
        <ele>283.1</ele>
        <time>2013-03-25T02:59:20Z</time>
      </trkpt>
      <trkpt lat="-21.3507" lon="55.74072">
        <ele>283.6</ele>
        <time>2013-03-25T02:59:27Z</time>
      </trkpt>
      <trkpt lat="-21.35066" lon="55.7408">
        <ele>284.4</ele>
        <time>2013-03-25T02:59:34Z</time>
      </trkpt>
      <trkpt lat="-21.35063" lon="55.74089">
        <ele>285.4</ele>
        <time>2013-03-25T02:59:40Z</time>
      </trkpt>
      <trkpt lat="-21.3506" lon="55.74097">
        <ele>285.8</ele>
        <time>2013-03-25T02:59:46Z</time>
      </trkpt>
      <trkpt lat="-21.35059" lon="55.74105">
        <ele>286.2</ele>
        <time>2013-03-25T02:59:51Z</time>
      </trkpt>
      <trkpt lat="-21.35057" lon="55.74114">
        <ele>286.5</ele>
        <time>2013-03-25T02:59:56Z</time>
      </trkpt>
      <trkpt lat="-21.35055" lon="55.74122">
        <ele>286.7</ele>
        <time>2013-03-25T03:00:00Z</time>
      </trkpt>
      <trkpt lat="-21.35053" lon="55.7413">
        <ele>287.7</ele>
        <time>2013-03-25T03:00:04Z</time>
      </trkpt>
      <trkpt lat="-21.35052" lon="55.74138">
        <ele>288.5</ele>
        <time>2013-03-25T03:00:10Z</time>
      </trkpt>
      <trkpt lat="-21.3505" lon="55.74147">
        <ele>289</ele>
        <time>2013-03-25T03:00:16Z</time>
      </trkpt>
      <trkpt lat="-21.35048" lon="55.74156">
        <ele>289.7</ele>
        <time>2013-03-25T03:00:21Z</time>
      </trkpt>
      <trkpt lat="-21.35046" lon="55.74164">
        <ele>289.6</ele>
        <time>2013-03-25T03:00:27Z</time>
      </trkpt>
      <trkpt lat="-21.35043" lon="55.74172">
        <ele>290</ele>
        <time>2013-03-25T03:00:33Z</time>
      </trkpt>
      <trkpt lat="-21.35042" lon="55.74182">
        <ele>290.9</ele>
        <time>2013-03-25T03:00:40Z</time>
      </trkpt>
      <trkpt lat="-21.3504" lon="55.7419">
        <ele>290.3</ele>
        <time>2013-03-25T03:00:45Z</time>
      </trkpt>
      <trkpt lat="-21.35038" lon="55.74199">
        <ele>292.3</ele>
        <time>2013-03-25T03:00:52Z</time>
      </trkpt>
      <trkpt lat="-21.35038" lon="55.74207">
        <ele>292.7</ele>
        <time>2013-03-25T03:00:58Z</time>
      </trkpt>
      <trkpt lat="-21.35038" lon="55.74216">
        <ele>293.2</ele>
        <time>2013-03-25T03:01:03Z</time>
      </trkpt>
      <trkpt lat="-21.35037" lon="55.74224">
        <ele>294.5</ele>
        <time>2013-03-25T03:01:08Z</time>
      </trkpt>
      <trkpt lat="-21.35029" lon="55.74227">
        <ele>294.9</ele>
        <time>2013-03-25T03:01:18Z</time>
      </trkpt>
      <trkpt lat="-21.35027" lon="55.74219">
        <ele>295.4</ele>
        <time>2013-03-25T03:01:25Z</time>
      </trkpt>
      <trkpt lat="-21.35025" lon="55.7421">
        <ele>296.2</ele>
        <time>2013-03-25T03:01:33Z</time>
      </trkpt>
      <trkpt lat="-21.35022" lon="55.74202">
        <ele>297.2</ele>
        <time>2013-03-25T03:01:40Z</time>
      </trkpt>
      <trkpt lat="-21.35016" lon="55.74195">
        <ele>298.1</ele>
        <time>2013-03-25T03:01:47Z</time>
      </trkpt>
      <trkpt lat="-21.35012" lon="55.74187">
        <ele>298.3</ele>
        <time>2013-03-25T03:01:54Z</time>
      </trkpt>
      <trkpt lat="-21.3501" lon="55.74179">
        <ele>299.2</ele>
        <time>2013-03-25T03:02:00Z</time>
      </trkpt>
      <trkpt lat="-21.35008" lon="55.7417">
        <ele>299.6</ele>
        <time>2013-03-25T03:02:06Z</time>
      </trkpt>
      <trkpt lat="-21.35008" lon="55.74161">
        <ele>300.2</ele>
        <time>2013-03-25T03:02:11Z</time>
      </trkpt>
      <trkpt lat="-21.35007" lon="55.74151">
        <ele>300.4</ele>
        <time>2013-03-25T03:02:17Z</time>
      </trkpt>
      <trkpt lat="-21.35004" lon="55.74143">
        <ele>301.4</ele>
        <time>2013-03-25T03:02:23Z</time>
      </trkpt>
      <trkpt lat="-21.35" lon="55.74135">
        <ele>303.3</ele>
        <time>2013-03-25T03:02:28Z</time>
      </trkpt>
      <trkpt lat="-21.34994" lon="55.74128">
        <ele>303.1</ele>
        <time>2013-03-25T03:02:35Z</time>
      </trkpt>
      <trkpt lat="-21.34991" lon="55.74121">
        <ele>303.5</ele>
        <time>2013-03-25T03:02:40Z</time>
      </trkpt>
      <trkpt lat="-21.34986" lon="55.74113">
        <ele>303.5</ele>
        <time>2013-03-25T03:02:47Z</time>
      </trkpt>
      <trkpt lat="-21.34981" lon="55.74105">
        <ele>304.9</ele>
        <time>2013-03-25T03:02:54Z</time>
      </trkpt>
      <trkpt lat="-21.34979" lon="55.74097">
        <ele>305.8</ele>
        <time>2013-03-25T03:03:01Z</time>
      </trkpt>
      <trkpt lat="-21.34981" lon="55.74088">
        <ele>306.2</ele>
        <time>2013-03-25T03:03:06Z</time>
      </trkpt>
      <trkpt lat="-21.34983" lon="55.74079">
        <ele>307.2</ele>
        <time>2013-03-25T03:03:12Z</time>
      </trkpt>
      <trkpt lat="-21.34988" lon="55.74071">
        <ele>307.2</ele>
        <time>2013-03-25T03:03:18Z</time>
      </trkpt>
      <trkpt lat="-21.34988" lon="55.74062">
        <ele>306.8</ele>
        <time>2013-03-25T03:03:23Z</time>
      </trkpt>
      <trkpt lat="-21.34986" lon="55.74054">
        <ele>308.1</ele>
        <time>2013-03-25T03:03:28Z</time>
      </trkpt>
      <trkpt lat="-21.34983" lon="55.74045">
        <ele>308.5</ele>
        <time>2013-03-25T03:03:34Z</time>
      </trkpt>
      <trkpt lat="-21.34982" lon="55.74037">
        <ele>308.3</ele>
        <time>2013-03-25T03:03:39Z</time>
      </trkpt>
      <trkpt lat="-21.34982" lon="55.74028">
        <ele>308.8</ele>
        <time>2013-03-25T03:03:45Z</time>
      </trkpt>
      <trkpt lat="-21.34981" lon="55.7402">
        <ele>308.7</ele>
        <time>2013-03-25T03:03:51Z</time>
      </trkpt>
      <trkpt lat="-21.34976" lon="55.74012">
        <ele>309.6</ele>
        <time>2013-03-25T03:03:59Z</time>
      </trkpt>
      <trkpt lat="-21.34969" lon="55.7401">
        <ele>309.9</ele>
        <time>2013-03-25T03:04:04Z</time>
      </trkpt>
      <trkpt lat="-21.34961" lon="55.74012">
        <ele>311.4</ele>
        <time>2013-03-25T03:04:10Z</time>
      </trkpt>
      <trkpt lat="-21.34954" lon="55.74017">
        <ele>312.6</ele>
        <time>2013-03-25T03:04:26Z</time>
      </trkpt>
      <trkpt lat="-21.34951" lon="55.74026">
        <ele>313.5</ele>
        <time>2013-03-25T03:04:33Z</time>
      </trkpt>
      <trkpt lat="-21.34951" lon="55.74035">
        <ele>314.3</ele>
        <time>2013-03-25T03:04:40Z</time>
      </trkpt>
      <trkpt lat="-21.3495" lon="55.74043">
        <ele>315.2</ele>
        <time>2013-03-25T03:04:45Z</time>
      </trkpt>
      <trkpt lat="-21.34949" lon="55.7405">
        <ele>314.9</ele>
        <time>2013-03-25T03:04:50Z</time>
      </trkpt>
      <trkpt lat="-21.34948" lon="55.7406">
        <ele>314.7</ele>
        <time>2013-03-25T03:04:55Z</time>
      </trkpt>
      <trkpt lat="-21.34945" lon="55.74069">
        <ele>315.1</ele>
        <time>2013-03-25T03:05:01Z</time>
      </trkpt>
      <trkpt lat="-21.34943" lon="55.74078">
        <ele>316.4</ele>
        <time>2013-03-25T03:05:07Z</time>
      </trkpt>
      <trkpt lat="-21.34942" lon="55.74085">
        <ele>316.7</ele>
        <time>2013-03-25T03:05:12Z</time>
      </trkpt>
      <trkpt lat="-21.34941" lon="55.74093">
        <ele>317.2</ele>
        <time>2013-03-25T03:05:16Z</time>
      </trkpt>
      <trkpt lat="-21.34938" lon="55.74101">
        <ele>317.7</ele>
        <time>2013-03-25T03:05:21Z</time>
      </trkpt>
      <trkpt lat="-21.34936" lon="55.74109">
        <ele>318.6</ele>
        <time>2013-03-25T03:05:27Z</time>
      </trkpt>
      <trkpt lat="-21.34933" lon="55.74117">
        <ele>318.6</ele>
        <time>2013-03-25T03:05:32Z</time>
      </trkpt>
      <trkpt lat="-21.34931" lon="55.74125">
        <ele>318.8</ele>
        <time>2013-03-25T03:05:39Z</time>
      </trkpt>
      <trkpt lat="-21.34926" lon="55.74132">
        <ele>319.9</ele>
        <time>2013-03-25T03:05:45Z</time>
      </trkpt>
      <trkpt lat="-21.3492" lon="55.7414">
        <ele>319</ele>
        <time>2013-03-25T03:05:52Z</time>
      </trkpt>
      <trkpt lat="-21.34918" lon="55.74149">
        <ele>321.6</ele>
        <time>2013-03-25T03:06:00Z</time>
      </trkpt>
      <trkpt lat="-21.34918" lon="55.74157">
        <ele>322.1</ele>
        <time>2013-03-25T03:06:07Z</time>
      </trkpt>
      <trkpt lat="-21.34916" lon="55.74166">
        <ele>322.9</ele>
        <time>2013-03-25T03:06:13Z</time>
      </trkpt>
      <trkpt lat="-21.34915" lon="55.74174">
        <ele>324.1</ele>
        <time>2013-03-25T03:06:19Z</time>
      </trkpt>
      <trkpt lat="-21.34918" lon="55.74183">
        <ele>323.6</ele>
        <time>2013-03-25T03:06:25Z</time>
      </trkpt>
      <trkpt lat="-21.3492" lon="55.74191">
        <ele>324.1</ele>
        <time>2013-03-25T03:06:31Z</time>
      </trkpt>
      <trkpt lat="-21.34923" lon="55.742">
        <ele>324.4</ele>
        <time>2013-03-25T03:06:38Z</time>
      </trkpt>
      <trkpt lat="-21.34926" lon="55.74209">
        <ele>325.5</ele>
        <time>2013-03-25T03:06:46Z</time>
      </trkpt>
      <trkpt lat="-21.34929" lon="55.74217">
        <ele>325.7</ele>
        <time>2013-03-25T03:06:51Z</time>
      </trkpt>
      <trkpt lat="-21.34932" lon="55.74225">
        <ele>326.3</ele>
        <time>2013-03-25T03:06:56Z</time>
      </trkpt>
      <trkpt lat="-21.34936" lon="55.74233">
        <ele>326.4</ele>
        <time>2013-03-25T03:07:02Z</time>
      </trkpt>
      <trkpt lat="-21.34938" lon="55.74241">
        <ele>327.6</ele>
        <time>2013-03-25T03:07:07Z</time>
      </trkpt>
      <trkpt lat="-21.34937" lon="55.74249">
        <ele>328.2</ele>
        <time>2013-03-25T03:07:13Z</time>
      </trkpt>
      <trkpt lat="-21.34934" lon="55.74258">
        <ele>328.2</ele>
        <time>2013-03-25T03:07:19Z</time>
      </trkpt>
      <trkpt lat="-21.34932" lon="55.74266">
        <ele>327.9</ele>
        <time>2013-03-25T03:07:26Z</time>
      </trkpt>
      <trkpt lat="-21.3493" lon="55.74274">
        <ele>329</ele>
        <time>2013-03-25T03:07:32Z</time>
      </trkpt>
      <trkpt lat="-21.34927" lon="55.74283">
        <ele>329.4</ele>
        <time>2013-03-25T03:07:38Z</time>
      </trkpt>
      <trkpt lat="-21.34925" lon="55.7429">
        <ele>330.6</ele>
        <time>2013-03-25T03:07:43Z</time>
      </trkpt>
      <trkpt lat="-21.34922" lon="55.74299">
        <ele>331.3</ele>
        <time>2013-03-25T03:07:47Z</time>
      </trkpt>
      <trkpt lat="-21.3492" lon="55.74308">
        <ele>332.3</ele>
        <time>2013-03-25T03:07:53Z</time>
      </trkpt>
      <trkpt lat="-21.34921" lon="55.74316">
        <ele>333.6</ele>
        <time>2013-03-25T03:07:59Z</time>
      </trkpt>
      <trkpt lat="-21.34923" lon="55.74324">
        <ele>332.7</ele>
        <time>2013-03-25T03:08:04Z</time>
      </trkpt>
      <trkpt lat="-21.34925" lon="55.74332">
        <ele>333.7</ele>
        <time>2013-03-25T03:08:09Z</time>
      </trkpt>
      <trkpt lat="-21.34925" lon="55.74342">
        <ele>334.1</ele>
        <time>2013-03-25T03:08:16Z</time>
      </trkpt>
      <trkpt lat="-21.34925" lon="55.7435">
        <ele>334.4</ele>
        <time>2013-03-25T03:08:22Z</time>
      </trkpt>
      <trkpt lat="-21.34924" lon="55.74358">
        <ele>334.9</ele>
        <time>2013-03-25T03:08:28Z</time>
      </trkpt>
      <trkpt lat="-21.34923" lon="55.74368">
        <ele>336</ele>
        <time>2013-03-25T03:08:33Z</time>
      </trkpt>
      <trkpt lat="-21.34923" lon="55.74377">
        <ele>336.2</ele>
        <time>2013-03-25T03:08:38Z</time>
      </trkpt>
      <trkpt lat="-21.3492" lon="55.74386">
        <ele>335.9</ele>
        <time>2013-03-25T03:08:42Z</time>
      </trkpt>
      <trkpt lat="-21.34917" lon="55.74395">
        <ele>336.8</ele>
        <time>2013-03-25T03:08:47Z</time>
      </trkpt>
      <trkpt lat="-21.34913" lon="55.74402">
        <ele>337.1</ele>
        <time>2013-03-25T03:08:53Z</time>
      </trkpt>
      <trkpt lat="-21.34911" lon="55.7441">
        <ele>337.9</ele>
        <time>2013-03-25T03:08:59Z</time>
      </trkpt>
      <trkpt lat="-21.34905" lon="55.74417">
        <ele>337.9</ele>
        <time>2013-03-25T03:09:05Z</time>
      </trkpt>
      <trkpt lat="-21.349" lon="55.74424">
        <ele>340.2</ele>
        <time>2013-03-25T03:09:11Z</time>
      </trkpt>
      <trkpt lat="-21.34892" lon="55.74422">
        <ele>341.6</ele>
        <time>2013-03-25T03:09:23Z</time>
      </trkpt>
      <trkpt lat="-21.34886" lon="55.74415">
        <ele>343.3</ele>
        <time>2013-03-25T03:09:33Z</time>
      </trkpt>
      <trkpt lat="-21.34884" lon="55.74406">
        <ele>344.3</ele>
        <time>2013-03-25T03:09:40Z</time>
      </trkpt>
      <trkpt lat="-21.34882" lon="55.74398">
        <ele>343.8</ele>
        <time>2013-03-25T03:09:48Z</time>
      </trkpt>
      <trkpt lat="-21.34882" lon="55.74389">
        <ele>345.6</ele>
        <time>2013-03-25T03:09:55Z</time>
      </trkpt>
      <trkpt lat="-21.34879" lon="55.7438">
        <ele>345.9</ele>
        <time>2013-03-25T03:10:02Z</time>
      </trkpt>
      <trkpt lat="-21.34875" lon="55.74372">
        <ele>346.1</ele>
        <time>2013-03-25T03:10:09Z</time>
      </trkpt>
      <trkpt lat="-21.34872" lon="55.74364">
        <ele>347.2</ele>
        <time>2013-03-25T03:10:16Z</time>
      </trkpt>
      <trkpt lat="-21.34869" lon="55.74355">
        <ele>348</ele>
        <time>2013-03-25T03:10:22Z</time>
      </trkpt>
      <trkpt lat="-21.34867" lon="55.74346">
        <ele>348.9</ele>
        <time>2013-03-25T03:10:30Z</time>
      </trkpt>
      <trkpt lat="-21.34865" lon="55.74337">
        <ele>348.9</ele>
        <time>2013-03-25T03:10:36Z</time>
      </trkpt>
      <trkpt lat="-21.34862" lon="55.74329">
        <ele>349.6</ele>
        <time>2013-03-25T03:10:41Z</time>
      </trkpt>
      <trkpt lat="-21.34858" lon="55.74321">
        <ele>349.7</ele>
        <time>2013-03-25T03:10:46Z</time>
      </trkpt>
      <trkpt lat="-21.34853" lon="55.74313">
        <ele>349.9</ele>
        <time>2013-03-25T03:10:52Z</time>
      </trkpt>
      <trkpt lat="-21.34849" lon="55.74307">
        <ele>350.3</ele>
        <time>2013-03-25T03:10:57Z</time>
      </trkpt>
      <trkpt lat="-21.34845" lon="55.74298">
        <ele>351.3</ele>
        <time>2013-03-25T03:11:03Z</time>
      </trkpt>
      <trkpt lat="-21.34841" lon="55.7429">
        <ele>350.8</ele>
        <time>2013-03-25T03:11:08Z</time>
      </trkpt>
      <trkpt lat="-21.34837" lon="55.74282">
        <ele>351.6</ele>
        <time>2013-03-25T03:11:14Z</time>
      </trkpt>
      <trkpt lat="-21.34835" lon="55.74274">
        <ele>352.5</ele>
        <time>2013-03-25T03:11:20Z</time>
      </trkpt>
      <trkpt lat="-21.34832" lon="55.74266">
        <ele>353.2</ele>
        <time>2013-03-25T03:11:25Z</time>
      </trkpt>
      <trkpt lat="-21.34829" lon="55.74258">
        <ele>353.3</ele>
        <time>2013-03-25T03:11:31Z</time>
      </trkpt>
      <trkpt lat="-21.34827" lon="55.74249">
        <ele>353.3</ele>
        <time>2013-03-25T03:11:37Z</time>
      </trkpt>
      <trkpt lat="-21.34824" lon="55.7424">
        <ele>355</ele>
        <time>2013-03-25T03:11:44Z</time>
      </trkpt>
      <trkpt lat="-21.34822" lon="55.74232">
        <ele>354.6</ele>
        <time>2013-03-25T03:11:49Z</time>
      </trkpt>
      <trkpt lat="-21.34818" lon="55.74225">
        <ele>355.7</ele>
        <time>2013-03-25T03:11:54Z</time>
      </trkpt>
      <trkpt lat="-21.34814" lon="55.74216">
        <ele>356.4</ele>
        <time>2013-03-25T03:11:59Z</time>
      </trkpt>
      <trkpt lat="-21.34809" lon="55.74211">
        <ele>356.5</ele>
        <time>2013-03-25T03:12:03Z</time>
      </trkpt>
      <trkpt lat="-21.34802" lon="55.74208">
        <ele>357.1</ele>
        <time>2013-03-25T03:12:07Z</time>
      </trkpt>
      <trkpt lat="-21.34794" lon="55.74204">
        <ele>357.7</ele>
        <time>2013-03-25T03:12:12Z</time>
      </trkpt>
      <trkpt lat="-21.34786" lon="55.742">
        <ele>358.7</ele>
        <time>2013-03-25T03:12:19Z</time>
      </trkpt>
      <trkpt lat="-21.34782" lon="55.74194">
        <ele>360.4</ele>
        <time>2013-03-25T03:12:26Z</time>
      </trkpt>
      <trkpt lat="-21.34777" lon="55.74186">
        <ele>361.3</ele>
        <time>2013-03-25T03:12:31Z</time>
      </trkpt>
      <trkpt lat="-21.34776" lon="55.74178">
        <ele>361</ele>
        <time>2013-03-25T03:12:36Z</time>
      </trkpt>
      <trkpt lat="-21.34773" lon="55.7417">
        <ele>362.4</ele>
        <time>2013-03-25T03:12:41Z</time>
      </trkpt>
      <trkpt lat="-21.34771" lon="55.74161">
        <ele>363.4</ele>
        <time>2013-03-25T03:12:46Z</time>
      </trkpt>
      <trkpt lat="-21.34767" lon="55.74153">
        <ele>363.5</ele>
        <time>2013-03-25T03:12:51Z</time>
      </trkpt>
      <trkpt lat="-21.34765" lon="55.74145">
        <ele>364.5</ele>
        <time>2013-03-25T03:12:56Z</time>
      </trkpt>
      <trkpt lat="-21.34762" lon="55.74137">
        <ele>364.5</ele>
        <time>2013-03-25T03:13:01Z</time>
      </trkpt>
      <trkpt lat="-21.3476" lon="55.74128">
        <ele>364.7</ele>
        <time>2013-03-25T03:13:07Z</time>
      </trkpt>
      <trkpt lat="-21.3476" lon="55.74119">
        <ele>365.9</ele>
        <time>2013-03-25T03:13:13Z</time>
      </trkpt>
      <trkpt lat="-21.34758" lon="55.7411">
        <ele>365.8</ele>
        <time>2013-03-25T03:13:19Z</time>
      </trkpt>
      <trkpt lat="-21.34754" lon="55.74102">
        <ele>367.8</ele>
        <time>2013-03-25T03:13:25Z</time>
      </trkpt>
      <trkpt lat="-21.34752" lon="55.74094">
        <ele>367.8</ele>
        <time>2013-03-25T03:13:31Z</time>
      </trkpt>
      <trkpt lat="-21.34749" lon="55.74086">
        <ele>368.9</ele>
        <time>2013-03-25T03:13:37Z</time>
      </trkpt>
      <trkpt lat="-21.34748" lon="55.74077">
        <ele>369.9</ele>
        <time>2013-03-25T03:13:44Z</time>
      </trkpt>
      <trkpt lat="-21.34747" lon="55.74068">
        <ele>369.4</ele>
        <time>2013-03-25T03:13:50Z</time>
      </trkpt>
      <trkpt lat="-21.34747" lon="55.74059">
        <ele>370.3</ele>
        <time>2013-03-25T03:13:56Z</time>
      </trkpt>
      <trkpt lat="-21.34746" lon="55.7405">
        <ele>371.6</ele>
        <time>2013-03-25T03:14:01Z</time>
      </trkpt>
      <trkpt lat="-21.34746" lon="55.74041">
        <ele>371.9</ele>
        <time>2013-03-25T03:14:06Z</time>
      </trkpt>
      <trkpt lat="-21.34743" lon="55.74034">
        <ele>372.4</ele>
        <time>2013-03-25T03:14:10Z</time>
      </trkpt>
      <trkpt lat="-21.34743" lon="55.74024">
        <ele>373</ele>
        <time>2013-03-25T03:14:15Z</time>
      </trkpt>
      <trkpt lat="-21.34743" lon="55.74015">
        <ele>373.7</ele>
        <time>2013-03-25T03:14:20Z</time>
      </trkpt>
      <trkpt lat="-21.34744" lon="55.74006">
        <ele>374.1</ele>
        <time>2013-03-25T03:14:25Z</time>
      </trkpt>
      <trkpt lat="-21.34746" lon="55.73998">
        <ele>375.1</ele>
        <time>2013-03-25T03:14:30Z</time>
      </trkpt>
      <trkpt lat="-21.34748" lon="55.7399">
        <ele>375.1</ele>
        <time>2013-03-25T03:14:35Z</time>
      </trkpt>
      <trkpt lat="-21.34749" lon="55.73982">
        <ele>375.9</ele>
        <time>2013-03-25T03:14:39Z</time>
      </trkpt>
      <trkpt lat="-21.3475" lon="55.73974">
        <ele>376.7</ele>
        <time>2013-03-25T03:14:44Z</time>
      </trkpt>
      <trkpt lat="-21.34749" lon="55.73965">
        <ele>375.8</ele>
        <time>2013-03-25T03:14:49Z</time>
      </trkpt>
      <trkpt lat="-21.34749" lon="55.73956">
        <ele>376.3</ele>
        <time>2013-03-25T03:14:54Z</time>
      </trkpt>
      <trkpt lat="-21.34748" lon="55.73947">
        <ele>376.7</ele>
        <time>2013-03-25T03:14:59Z</time>
      </trkpt>
      <trkpt lat="-21.34748" lon="55.73938">
        <ele>377.4</ele>
        <time>2013-03-25T03:15:04Z</time>
      </trkpt>
      <trkpt lat="-21.34748" lon="55.7393">
        <ele>377.4</ele>
        <time>2013-03-25T03:15:09Z</time>
      </trkpt>
      <trkpt lat="-21.34747" lon="55.73922">
        <ele>377.1</ele>
        <time>2013-03-25T03:15:14Z</time>
      </trkpt>
      <trkpt lat="-21.34745" lon="55.73913">
        <ele>377.7</ele>
        <time>2013-03-25T03:15:19Z</time>
      </trkpt>
      <trkpt lat="-21.34743" lon="55.73904">
        <ele>378.1</ele>
        <time>2013-03-25T03:15:24Z</time>
      </trkpt>
      <trkpt lat="-21.3474" lon="55.73897">
        <ele>378.3</ele>
        <time>2013-03-25T03:15:29Z</time>
      </trkpt>
      <trkpt lat="-21.34737" lon="55.73888">
        <ele>378.5</ele>
        <time>2013-03-25T03:15:34Z</time>
      </trkpt>
      <trkpt lat="-21.34735" lon="55.7388">
        <ele>379.1</ele>
        <time>2013-03-25T03:15:40Z</time>
      </trkpt>
      <trkpt lat="-21.34736" lon="55.7387">
        <ele>379.2</ele>
        <time>2013-03-25T03:15:46Z</time>
      </trkpt>
      <trkpt lat="-21.34737" lon="55.73861">
        <ele>379.4</ele>
        <time>2013-03-25T03:15:51Z</time>
      </trkpt>
      <trkpt lat="-21.3474" lon="55.73852">
        <ele>379.3</ele>
        <time>2013-03-25T03:15:56Z</time>
      </trkpt>
      <trkpt lat="-21.3474" lon="55.73844">
        <ele>380.3</ele>
        <time>2013-03-25T03:16:01Z</time>
      </trkpt>
      <trkpt lat="-21.34741" lon="55.73836">
        <ele>381.4</ele>
        <time>2013-03-25T03:16:06Z</time>
      </trkpt>
      <trkpt lat="-21.3474" lon="55.73828">
        <ele>381.6</ele>
        <time>2013-03-25T03:16:11Z</time>
      </trkpt>
      <trkpt lat="-21.3474" lon="55.73819">
        <ele>382.4</ele>
        <time>2013-03-25T03:16:16Z</time>
      </trkpt>
      <trkpt lat="-21.34739" lon="55.73811">
        <ele>382.2</ele>
        <time>2013-03-25T03:16:21Z</time>
      </trkpt>
      <trkpt lat="-21.34736" lon="55.73802">
        <ele>383.6</ele>
        <time>2013-03-25T03:16:27Z</time>
      </trkpt>
      <trkpt lat="-21.34735" lon="55.73793">
        <ele>384.7</ele>
        <time>2013-03-25T03:16:36Z</time>
      </trkpt>
      <trkpt lat="-21.34732" lon="55.73785">
        <ele>385.9</ele>
        <time>2013-03-25T03:16:41Z</time>
      </trkpt>
      <trkpt lat="-21.34729" lon="55.73777">
        <ele>386.1</ele>
        <time>2013-03-25T03:16:47Z</time>
      </trkpt>
      <trkpt lat="-21.34726" lon="55.73769">
        <ele>387.2</ele>
        <time>2013-03-25T03:16:53Z</time>
      </trkpt>
      <trkpt lat="-21.34721" lon="55.73762">
        <ele>386.8</ele>
        <time>2013-03-25T03:16:58Z</time>
      </trkpt>
      <trkpt lat="-21.34717" lon="55.73755">
        <ele>388.2</ele>
        <time>2013-03-25T03:17:03Z</time>
      </trkpt>
      <trkpt lat="-21.34715" lon="55.73746">
        <ele>388.8</ele>
        <time>2013-03-25T03:17:09Z</time>
      </trkpt>
      <trkpt lat="-21.3471" lon="55.73738">
        <ele>388.6</ele>
        <time>2013-03-25T03:17:15Z</time>
      </trkpt>
      <trkpt lat="-21.34706" lon="55.73729">
        <ele>389.4</ele>
        <time>2013-03-25T03:17:20Z</time>
      </trkpt>
      <trkpt lat="-21.34704" lon="55.73721">
        <ele>391</ele>
        <time>2013-03-25T03:17:25Z</time>
      </trkpt>
      <trkpt lat="-21.34701" lon="55.73713">
        <ele>391.1</ele>
        <time>2013-03-25T03:17:31Z</time>
      </trkpt>
      <trkpt lat="-21.34698" lon="55.73705">
        <ele>391.8</ele>
        <time>2013-03-25T03:17:36Z</time>
      </trkpt>
      <trkpt lat="-21.34694" lon="55.73697">
        <ele>391.7</ele>
        <time>2013-03-25T03:17:42Z</time>
      </trkpt>
      <trkpt lat="-21.34691" lon="55.73688">
        <ele>392.7</ele>
        <time>2013-03-25T03:17:48Z</time>
      </trkpt>
      <trkpt lat="-21.34687" lon="55.7368">
        <ele>393.8</ele>
        <time>2013-03-25T03:17:54Z</time>
      </trkpt>
      <trkpt lat="-21.34686" lon="55.73672">
        <ele>394.3</ele>
        <time>2013-03-25T03:17:59Z</time>
      </trkpt>
      <trkpt lat="-21.34683" lon="55.73663">
        <ele>395.3</ele>
        <time>2013-03-25T03:18:05Z</time>
      </trkpt>
      <trkpt lat="-21.34681" lon="55.73654">
        <ele>395.5</ele>
        <time>2013-03-25T03:18:11Z</time>
      </trkpt>
      <trkpt lat="-21.34678" lon="55.73647">
        <ele>396.7</ele>
        <time>2013-03-25T03:18:16Z</time>
      </trkpt>
      <trkpt lat="-21.3467" lon="55.73643">
        <ele>398.2</ele>
        <time>2013-03-25T03:18:23Z</time>
      </trkpt>
      <trkpt lat="-21.34662" lon="55.73646">
        <ele>399</ele>
        <time>2013-03-25T03:18:30Z</time>
      </trkpt>
      <trkpt lat="-21.34656" lon="55.73652">
        <ele>399.6</ele>
        <time>2013-03-25T03:18:41Z</time>
      </trkpt>
      <trkpt lat="-21.34656" lon="55.73661">
        <ele>399.8</ele>
        <time>2013-03-25T03:18:49Z</time>
      </trkpt>
      <trkpt lat="-21.34654" lon="55.73669">
        <ele>400.9</ele>
        <time>2013-03-25T03:18:56Z</time>
      </trkpt>
      <trkpt lat="-21.34653" lon="55.73678">
        <ele>401.5</ele>
        <time>2013-03-25T03:19:01Z</time>
      </trkpt>
      <trkpt lat="-21.34649" lon="55.73686">
        <ele>402</ele>
        <time>2013-03-25T03:19:07Z</time>
      </trkpt>
      <trkpt lat="-21.34648" lon="55.73694">
        <ele>402.7</ele>
        <time>2013-03-25T03:19:14Z</time>
      </trkpt>
      <trkpt lat="-21.34647" lon="55.73703">
        <ele>402.6</ele>
        <time>2013-03-25T03:19:20Z</time>
      </trkpt>
      <trkpt lat="-21.34647" lon="55.73712">
        <ele>404.7</ele>
        <time>2013-03-25T03:19:25Z</time>
      </trkpt>
      <trkpt lat="-21.34648" lon="55.73721">
        <ele>405.1</ele>
        <time>2013-03-25T03:19:30Z</time>
      </trkpt>
      <trkpt lat="-21.34645" lon="55.7373">
        <ele>404.7</ele>
        <time>2013-03-25T03:19:35Z</time>
      </trkpt>
      <trkpt lat="-21.34645" lon="55.73739">
        <ele>404.8</ele>
        <time>2013-03-25T03:19:40Z</time>
      </trkpt>
      <trkpt lat="-21.34645" lon="55.73748">
        <ele>405</ele>
        <time>2013-03-25T03:19:46Z</time>
      </trkpt>
      <trkpt lat="-21.34645" lon="55.73757">
        <ele>406</ele>
        <time>2013-03-25T03:19:51Z</time>
      </trkpt>
      <trkpt lat="-21.34643" lon="55.73765">
        <ele>406.2</ele>
        <time>2013-03-25T03:19:56Z</time>
      </trkpt>
      <trkpt lat="-21.34641" lon="55.73774">
        <ele>406.5</ele>
        <time>2013-03-25T03:20:01Z</time>
      </trkpt>
      <trkpt lat="-21.3464" lon="55.73783">
        <ele>407.2</ele>
        <time>2013-03-25T03:20:05Z</time>
      </trkpt>
      <trkpt lat="-21.3464" lon="55.73791">
        <ele>406.9</ele>
        <time>2013-03-25T03:20:10Z</time>
      </trkpt>
      <trkpt lat="-21.3464" lon="55.73799">
        <ele>407.7</ele>
        <time>2013-03-25T03:20:15Z</time>
      </trkpt>
      <trkpt lat="-21.3464" lon="55.73809">
        <ele>408.2</ele>
        <time>2013-03-25T03:20:21Z</time>
      </trkpt>
      <trkpt lat="-21.3464" lon="55.73818">
        <ele>409.3</ele>
        <time>2013-03-25T03:20:27Z</time>
      </trkpt>
      <trkpt lat="-21.3464" lon="55.73827">
        <ele>409.5</ele>
        <time>2013-03-25T03:20:32Z</time>
      </trkpt>
      <trkpt lat="-21.3464" lon="55.73835">
        <ele>409.7</ele>
        <time>2013-03-25T03:20:37Z</time>
      </trkpt>
      <trkpt lat="-21.3464" lon="55.73843">
        <ele>409.9</ele>
        <time>2013-03-25T03:20:42Z</time>
      </trkpt>
      <trkpt lat="-21.3464" lon="55.73852">
        <ele>410.3</ele>
        <time>2013-03-25T03:20:47Z</time>
      </trkpt>
      <trkpt lat="-21.34641" lon="55.7386">
        <ele>411</ele>
        <time>2013-03-25T03:20:52Z</time>
      </trkpt>
      <trkpt lat="-21.3464" lon="55.73869">
        <ele>412</ele>
        <time>2013-03-25T03:20:57Z</time>
      </trkpt>
      <trkpt lat="-21.3464" lon="55.73877">
        <ele>412.1</ele>
        <time>2013-03-25T03:21:02Z</time>
      </trkpt>
      <trkpt lat="-21.34639" lon="55.73886">
        <ele>412.4</ele>
        <time>2013-03-25T03:21:07Z</time>
      </trkpt>
      <trkpt lat="-21.34639" lon="55.73895">
        <ele>412.4</ele>
        <time>2013-03-25T03:21:12Z</time>
      </trkpt>
      <trkpt lat="-21.34639" lon="55.73902">
        <ele>412.6</ele>
        <time>2013-03-25T03:21:16Z</time>
      </trkpt>
      <trkpt lat="-21.34638" lon="55.73912">
        <ele>414</ele>
        <time>2013-03-25T03:21:21Z</time>
      </trkpt>
      <trkpt lat="-21.34638" lon="55.73921">
        <ele>414.1</ele>
        <time>2013-03-25T03:21:26Z</time>
      </trkpt>
      <trkpt lat="-21.34637" lon="55.73929">
        <ele>415.1</ele>
        <time>2013-03-25T03:21:31Z</time>
      </trkpt>
      <trkpt lat="-21.34637" lon="55.73938">
        <ele>415.8</ele>
        <time>2013-03-25T03:21:36Z</time>
      </trkpt>
      <trkpt lat="-21.34636" lon="55.73946">
        <ele>415.7</ele>
        <time>2013-03-25T03:21:41Z</time>
      </trkpt>
      <trkpt lat="-21.34635" lon="55.73954">
        <ele>415.8</ele>
        <time>2013-03-25T03:21:46Z</time>
      </trkpt>
      <trkpt lat="-21.34634" lon="55.73963">
        <ele>416.3</ele>
        <time>2013-03-25T03:21:52Z</time>
      </trkpt>
      <trkpt lat="-21.34632" lon="55.73971">
        <ele>416.5</ele>
        <time>2013-03-25T03:21:57Z</time>
      </trkpt>
      <trkpt lat="-21.34629" lon="55.7398">
        <ele>416.3</ele>
        <time>2013-03-25T03:22:02Z</time>
      </trkpt>
      <trkpt lat="-21.34625" lon="55.73988">
        <ele>417</ele>
        <time>2013-03-25T03:22:07Z</time>
      </trkpt>
      <trkpt lat="-21.34622" lon="55.73996">
        <ele>417.4</ele>
        <time>2013-03-25T03:22:12Z</time>
      </trkpt>
      <trkpt lat="-21.34618" lon="55.74004">
        <ele>418.1</ele>
        <time>2013-03-25T03:22:17Z</time>
      </trkpt>
      <trkpt lat="-21.34614" lon="55.74012">
        <ele>417.7</ele>
        <time>2013-03-25T03:22:23Z</time>
      </trkpt>
      <trkpt lat="-21.34611" lon="55.74021">
        <ele>418.7</ele>
        <time>2013-03-25T03:22:29Z</time>
      </trkpt>
      <trkpt lat="-21.34607" lon="55.74029">
        <ele>419.1</ele>
        <time>2013-03-25T03:22:36Z</time>
      </trkpt>
      <trkpt lat="-21.34604" lon="55.74037">
        <ele>420.7</ele>
        <time>2013-03-25T03:22:42Z</time>
      </trkpt>
      <trkpt lat="-21.34601" lon="55.74044">
        <ele>420.1</ele>
        <time>2013-03-25T03:22:47Z</time>
      </trkpt>
      <trkpt lat="-21.34597" lon="55.74053">
        <ele>422.4</ele>
        <time>2013-03-25T03:22:54Z</time>
      </trkpt>
      <trkpt lat="-21.34593" lon="55.74061">
        <ele>422.4</ele>
        <time>2013-03-25T03:23:01Z</time>
      </trkpt>
      <trkpt lat="-21.34588" lon="55.74069">
        <ele>423.3</ele>
        <time>2013-03-25T03:23:07Z</time>
      </trkpt>
      <trkpt lat="-21.34584" lon="55.74076">
        <ele>423.2</ele>
        <time>2013-03-25T03:23:14Z</time>
      </trkpt>
      <trkpt lat="-21.34579" lon="55.74083">
        <ele>423.8</ele>
        <time>2013-03-25T03:23:19Z</time>
      </trkpt>
      <trkpt lat="-21.34572" lon="55.74087">
        <ele>424.4</ele>
        <time>2013-03-25T03:23:25Z</time>
      </trkpt>
      <trkpt lat="-21.34565" lon="55.74092">
        <ele>424.3</ele>
        <time>2013-03-25T03:23:34Z</time>
      </trkpt>
      <trkpt lat="-21.34558" lon="55.74095">
        <ele>425.2</ele>
        <time>2013-03-25T03:23:40Z</time>
      </trkpt>
      <trkpt lat="-21.34553" lon="55.74098">
        <ele>425.1</ele>
        <time>2013-03-25T03:23:44Z</time>
      </trkpt>
      <trkpt lat="-21.34552" lon="55.74099">
        <ele>425.1</ele>
        <time>2013-03-25T03:23:45Z</time>
      </trkpt>
      <trkpt lat="-21.34545" lon="55.74103">
        <ele>424.5</ele>
        <time>2013-03-25T03:23:51Z</time>
      </trkpt>
      <trkpt lat="-21.34538" lon="55.74109">
        <ele>425.3</ele>
        <time>2013-03-25T03:23:57Z</time>
      </trkpt>
      <trkpt lat="-21.34533" lon="55.74117">
        <ele>426.3</ele>
        <time>2013-03-25T03:24:03Z</time>
      </trkpt>
      <trkpt lat="-21.34528" lon="55.74124">
        <ele>427.1</ele>
        <time>2013-03-25T03:24:12Z</time>
      </trkpt>
      <trkpt lat="-21.34523" lon="55.74131">
        <ele>427.9</ele>
        <time>2013-03-25T03:24:20Z</time>
      </trkpt>
      <trkpt lat="-21.34521" lon="55.7414">
        <ele>427.6</ele>
        <time>2013-03-25T03:24:27Z</time>
      </trkpt>
      <trkpt lat="-21.34517" lon="55.74147">
        <ele>428.1</ele>
        <time>2013-03-25T03:24:33Z</time>
      </trkpt>
      <trkpt lat="-21.34514" lon="55.74154">
        <ele>428.8</ele>
        <time>2013-03-25T03:24:39Z</time>
      </trkpt>
      <trkpt lat="-21.34508" lon="55.74161">
        <ele>429.2</ele>
        <time>2013-03-25T03:24:46Z</time>
      </trkpt>
      <trkpt lat="-21.34507" lon="55.74162">
        <ele>429</ele>
        <time>2013-03-25T03:24:47Z</time>
      </trkpt>
      <trkpt lat="-21.34498" lon="55.74176">
        <ele>430.1</ele>
        <time>2013-03-25T03:24:59Z</time>
      </trkpt>
      <trkpt lat="-21.34496" lon="55.74184">
        <ele>429.1</ele>
        <time>2013-03-25T03:25:04Z</time>
      </trkpt>
      <trkpt lat="-21.34493" lon="55.74192">
        <ele>430.9</ele>
        <time>2013-03-25T03:25:10Z</time>
      </trkpt>
      <trkpt lat="-21.34491" lon="55.74201">
        <ele>431.1</ele>
        <time>2013-03-25T03:25:18Z</time>
      </trkpt>
      <trkpt lat="-21.34491" lon="55.7421">
        <ele>431.9</ele>
        <time>2013-03-25T03:25:27Z</time>
      </trkpt>
      <trkpt lat="-21.3449" lon="55.74215">
        <ele>432.3</ele>
        <time>2013-03-25T03:25:30Z</time>
      </trkpt>
      <trkpt lat="-21.34489" lon="55.74222">
        <ele>432.6</ele>
        <time>2013-03-25T03:25:35Z</time>
      </trkpt>
      <trkpt lat="-21.34487" lon="55.74231">
        <ele>432.8</ele>
        <time>2013-03-25T03:25:40Z</time>
      </trkpt>
      <trkpt lat="-21.34488" lon="55.74239">
        <ele>433.3</ele>
        <time>2013-03-25T03:25:46Z</time>
      </trkpt>
      <trkpt lat="-21.34487" lon="55.74248">
        <ele>434</ele>
        <time>2013-03-25T03:25:53Z</time>
      </trkpt>
      <trkpt lat="-21.34487" lon="55.7425">
        <ele>434.3</ele>
        <time>2013-03-25T03:25:54Z</time>
      </trkpt>
      <trkpt lat="-21.34483" lon="55.74264">
        <ele>435</ele>
        <time>2013-03-25T03:26:03Z</time>
      </trkpt>
      <trkpt lat="-21.34482" lon="55.74272">
        <ele>434.4</ele>
        <time>2013-03-25T03:26:08Z</time>
      </trkpt>
      <trkpt lat="-21.3448" lon="55.74281">
        <ele>435.7</ele>
        <time>2013-03-25T03:26:14Z</time>
      </trkpt>
      <trkpt lat="-21.34481" lon="55.74289">
        <ele>436</ele>
        <time>2013-03-25T03:26:22Z</time>
      </trkpt>
      <trkpt lat="-21.3448" lon="55.74298">
        <ele>436.3</ele>
        <time>2013-03-25T03:26:29Z</time>
      </trkpt>
      <trkpt lat="-21.34479" lon="55.74307">
        <ele>437</ele>
        <time>2013-03-25T03:26:37Z</time>
      </trkpt>
      <trkpt lat="-21.34477" lon="55.74316">
        <ele>437.8</ele>
        <time>2013-03-25T03:26:45Z</time>
      </trkpt>
      <trkpt lat="-21.34478" lon="55.74325">
        <ele>438.5</ele>
        <time>2013-03-25T03:26:55Z</time>
      </trkpt>
      <trkpt lat="-21.34478" lon="55.74326">
        <ele>438.6</ele>
        <time>2013-03-25T03:26:56Z</time>
      </trkpt>
      <trkpt lat="-21.34481" lon="55.74342">
        <ele>438.9</ele>
        <time>2013-03-25T03:27:11Z</time>
      </trkpt>
      <trkpt lat="-21.34478" lon="55.74351">
        <ele>439.3</ele>
        <time>2013-03-25T03:27:20Z</time>
      </trkpt>
      <trkpt lat="-21.34478" lon="55.74359">
        <ele>440.3</ele>
        <time>2013-03-25T03:27:27Z</time>
      </trkpt>
      <trkpt lat="-21.34474" lon="55.74367">
        <ele>441</ele>
        <time>2013-03-25T03:27:31Z</time>
      </trkpt>
      <trkpt lat="-21.3447" lon="55.74374">
        <ele>440.8</ele>
        <time>2013-03-25T03:27:35Z</time>
      </trkpt>
      <trkpt lat="-21.34466" lon="55.74382">
        <ele>440.9</ele>
        <time>2013-03-25T03:27:40Z</time>
      </trkpt>
      <trkpt lat="-21.3446" lon="55.74389">
        <ele>441.2</ele>
        <time>2013-03-25T03:27:45Z</time>
      </trkpt>
      <trkpt lat="-21.34457" lon="55.74396">
        <ele>441.2</ele>
        <time>2013-03-25T03:27:50Z</time>
      </trkpt>
      <trkpt lat="-21.34453" lon="55.74404">
        <ele>440.8</ele>
        <time>2013-03-25T03:27:57Z</time>
      </trkpt>
      <trkpt lat="-21.34452" lon="55.74406">
        <ele>441</ele>
        <time>2013-03-25T03:27:58Z</time>
      </trkpt>
      <trkpt lat="-21.3444" lon="55.74417">
        <ele>442.9</ele>
        <time>2013-03-25T03:28:07Z</time>
      </trkpt>
      <trkpt lat="-21.34434" lon="55.74421">
        <ele>443.4</ele>
        <time>2013-03-25T03:28:12Z</time>
      </trkpt>
      <trkpt lat="-21.34427" lon="55.74424">
        <ele>443.8</ele>
        <time>2013-03-25T03:28:17Z</time>
      </trkpt>
      <trkpt lat="-21.3442" lon="55.7443">
        <ele>444</ele>
        <time>2013-03-25T03:28:22Z</time>
      </trkpt>
      <trkpt lat="-21.34413" lon="55.74435">
        <ele>445</ele>
        <time>2013-03-25T03:28:27Z</time>
      </trkpt>
      <trkpt lat="-21.34406" lon="55.7444">
        <ele>445.4</ele>
        <time>2013-03-25T03:28:34Z</time>
      </trkpt>
      <trkpt lat="-21.344" lon="55.74446">
        <ele>445.6</ele>
        <time>2013-03-25T03:28:40Z</time>
      </trkpt>
      <trkpt lat="-21.34393" lon="55.74451">
        <ele>447.5</ele>
        <time>2013-03-25T03:28:47Z</time>
      </trkpt>
      <trkpt lat="-21.34386" lon="55.74457">
        <ele>447.2</ele>
        <time>2013-03-25T03:28:54Z</time>
      </trkpt>
      <trkpt lat="-21.3438" lon="55.74463">
        <ele>448.1</ele>
        <time>2013-03-25T03:29:00Z</time>
      </trkpt>
      <trkpt lat="-21.34379" lon="55.74464">
        <ele>447.9</ele>
        <time>2013-03-25T03:29:01Z</time>
      </trkpt>
      <trkpt lat="-21.34368" lon="55.74476">
        <ele>449.1</ele>
        <time>2013-03-25T03:29:14Z</time>
      </trkpt>
      <trkpt lat="-21.34363" lon="55.74484">
        <ele>449.3</ele>
        <time>2013-03-25T03:29:22Z</time>
      </trkpt>
      <trkpt lat="-21.34358" lon="55.74491">
        <ele>449.9</ele>
        <time>2013-03-25T03:29:28Z</time>
      </trkpt>
      <trkpt lat="-21.34353" lon="55.74499">
        <ele>450.4</ele>
        <time>2013-03-25T03:29:34Z</time>
      </trkpt>
      <trkpt lat="-21.34349" lon="55.74506">
        <ele>451</ele>
        <time>2013-03-25T03:29:39Z</time>
      </trkpt>
      <trkpt lat="-21.34343" lon="55.74515">
        <ele>450</ele>
        <time>2013-03-25T03:29:46Z</time>
      </trkpt>
      <trkpt lat="-21.34339" lon="55.74523">
        <ele>453</ele>
        <time>2013-03-25T03:29:54Z</time>
      </trkpt>
      <trkpt lat="-21.34338" lon="55.74531">
        <ele>454</ele>
        <time>2013-03-25T03:29:59Z</time>
      </trkpt>
      <trkpt lat="-21.34333" lon="55.74539">
        <ele>454.1</ele>
        <time>2013-03-25T03:30:04Z</time>
      </trkpt>
      <trkpt lat="-21.34332" lon="55.7454">
        <ele>453.9</ele>
        <time>2013-03-25T03:30:05Z</time>
      </trkpt>
      <trkpt lat="-21.34325" lon="55.74556">
        <ele>455.6</ele>
        <time>2013-03-25T03:30:17Z</time>
      </trkpt>
      <trkpt lat="-21.34321" lon="55.74564">
        <ele>455.6</ele>
        <time>2013-03-25T03:30:23Z</time>
      </trkpt>
      <trkpt lat="-21.34318" lon="55.74571">
        <ele>456.9</ele>
        <time>2013-03-25T03:30:28Z</time>
      </trkpt>
      <trkpt lat="-21.34315" lon="55.74579">
        <ele>457.1</ele>
        <time>2013-03-25T03:30:32Z</time>
      </trkpt>
      <trkpt lat="-21.34311" lon="55.74586">
        <ele>457.9</ele>
        <time>2013-03-25T03:30:37Z</time>
      </trkpt>
      <trkpt lat="-21.34304" lon="55.74592">
        <ele>458</ele>
        <time>2013-03-25T03:30:43Z</time>
      </trkpt>
      <trkpt lat="-21.34296" lon="55.74592">
        <ele>459</ele>
        <time>2013-03-25T03:30:55Z</time>
      </trkpt>
      <trkpt lat="-21.34296" lon="55.74584">
        <ele>459.2</ele>
        <time>2013-03-25T03:31:05Z</time>
      </trkpt>
      <trkpt lat="-21.34296" lon="55.74582">
        <ele>459.6</ele>
        <time>2013-03-25T03:31:06Z</time>
      </trkpt>
      <trkpt lat="-21.34296" lon="55.74565">
        <ele>459.8</ele>
        <time>2013-03-25T03:31:19Z</time>
      </trkpt>
      <trkpt lat="-21.34299" lon="55.74558">
        <ele>460.7</ele>
        <time>2013-03-25T03:31:23Z</time>
      </trkpt>
      <trkpt lat="-21.34302" lon="55.7455">
        <ele>461.2</ele>
        <time>2013-03-25T03:31:29Z</time>
      </trkpt>
      <trkpt lat="-21.34304" lon="55.74541">
        <ele>461.2</ele>
        <time>2013-03-25T03:31:36Z</time>
      </trkpt>
      <trkpt lat="-21.34306" lon="55.74532">
        <ele>462.2</ele>
        <time>2013-03-25T03:31:43Z</time>
      </trkpt>
      <trkpt lat="-21.34307" lon="55.74523">
        <ele>460.8</ele>
        <time>2013-03-25T03:31:50Z</time>
      </trkpt>
      <trkpt lat="-21.34308" lon="55.74513">
        <ele>462.2</ele>
        <time>2013-03-25T03:31:58Z</time>
      </trkpt>
      <trkpt lat="-21.3431" lon="55.74505">
        <ele>463.1</ele>
        <time>2013-03-25T03:32:06Z</time>
      </trkpt>
      <trkpt lat="-21.34311" lon="55.74504">
        <ele>463.2</ele>
        <time>2013-03-25T03:32:07Z</time>
      </trkpt>
      <trkpt lat="-21.34313" lon="55.74487">
        <ele>464.3</ele>
        <time>2013-03-25T03:32:17Z</time>
      </trkpt>
      <trkpt lat="-21.34315" lon="55.74479">
        <ele>465.1</ele>
        <time>2013-03-25T03:32:21Z</time>
      </trkpt>
      <trkpt lat="-21.34318" lon="55.7447">
        <ele>465.6</ele>
        <time>2013-03-25T03:32:26Z</time>
      </trkpt>
      <trkpt lat="-21.34319" lon="55.74462">
        <ele>465.6</ele>
        <time>2013-03-25T03:32:31Z</time>
      </trkpt>
      <trkpt lat="-21.34321" lon="55.74453">
        <ele>466.3</ele>
        <time>2013-03-25T03:32:36Z</time>
      </trkpt>
      <trkpt lat="-21.34322" lon="55.74446">
        <ele>465.9</ele>
        <time>2013-03-25T03:32:41Z</time>
      </trkpt>
      <trkpt lat="-21.34324" lon="55.74437">
        <ele>467</ele>
        <time>2013-03-25T03:32:46Z</time>
      </trkpt>
      <trkpt lat="-21.34324" lon="55.74427">
        <ele>468.6</ele>
        <time>2013-03-25T03:32:52Z</time>
      </trkpt>
      <trkpt lat="-21.34326" lon="55.74419">
        <ele>467.9</ele>
        <time>2013-03-25T03:32:56Z</time>
      </trkpt>
      <trkpt lat="-21.34325" lon="55.7441">
        <ele>469</ele>
        <time>2013-03-25T03:33:01Z</time>
      </trkpt>
      <trkpt lat="-21.34325" lon="55.74401">
        <ele>469.5</ele>
        <time>2013-03-25T03:33:07Z</time>
      </trkpt>
      <trkpt lat="-21.34326" lon="55.74399">
        <ele>469.5</ele>
        <time>2013-03-25T03:33:08Z</time>
      </trkpt>
      <trkpt lat="-21.34329" lon="55.74383">
        <ele>470.6</ele>
        <time>2013-03-25T03:33:19Z</time>
      </trkpt>
      <trkpt lat="-21.34333" lon="55.74375">
        <ele>470.5</ele>
        <time>2013-03-25T03:33:24Z</time>
      </trkpt>
      <trkpt lat="-21.34335" lon="55.74368">
        <ele>471.4</ele>
        <time>2013-03-25T03:33:28Z</time>
      </trkpt>
      <trkpt lat="-21.34337" lon="55.74359">
        <ele>472.1</ele>
        <time>2013-03-25T03:33:33Z</time>
      </trkpt>
      <trkpt lat="-21.34338" lon="55.74349">
        <ele>473.3</ele>
        <time>2013-03-25T03:33:38Z</time>
      </trkpt>
      <trkpt lat="-21.3434" lon="55.7434">
        <ele>472.9</ele>
        <time>2013-03-25T03:33:43Z</time>
      </trkpt>
      <trkpt lat="-21.34342" lon="55.74332">
        <ele>473.2</ele>
        <time>2013-03-25T03:33:48Z</time>
      </trkpt>
      <trkpt lat="-21.34345" lon="55.74324">
        <ele>474.1</ele>
        <time>2013-03-25T03:33:53Z</time>
      </trkpt>
      <trkpt lat="-21.34349" lon="55.74317">
        <ele>474.5</ele>
        <time>2013-03-25T03:33:59Z</time>
      </trkpt>
      <trkpt lat="-21.34351" lon="55.74309">
        <ele>474.8</ele>
        <time>2013-03-25T03:34:03Z</time>
      </trkpt>
      <trkpt lat="-21.34355" lon="55.74302">
        <ele>475.1</ele>
        <time>2013-03-25T03:34:07Z</time>
      </trkpt>
      <trkpt lat="-21.34357" lon="55.74294">
        <ele>475.9</ele>
        <time>2013-03-25T03:34:11Z</time>
      </trkpt>
      <trkpt lat="-21.34357" lon="55.74292">
        <ele>475.8</ele>
        <time>2013-03-25T03:34:12Z</time>
      </trkpt>
      <trkpt lat="-21.34357" lon="55.74276">
        <ele>477.1</ele>
        <time>2013-03-25T03:34:23Z</time>
      </trkpt>
      <trkpt lat="-21.34351" lon="55.7427">
        <ele>477.4</ele>
        <time>2013-03-25T03:34:29Z</time>
      </trkpt>
      <trkpt lat="-21.34345" lon="55.74265">
        <ele>479.3</ele>
        <time>2013-03-25T03:34:36Z</time>
      </trkpt>
      <trkpt lat="-21.34338" lon="55.74259">
        <ele>479.8</ele>
        <time>2013-03-25T03:34:42Z</time>
      </trkpt>
      <trkpt lat="-21.3433" lon="55.74257">
        <ele>479.9</ele>
        <time>2013-03-25T03:34:49Z</time>
      </trkpt>
      <trkpt lat="-21.34321" lon="55.74259">
        <ele>480</ele>
        <time>2013-03-25T03:34:55Z</time>
      </trkpt>
      <trkpt lat="-21.34313" lon="55.74261">
        <ele>481.5</ele>
        <time>2013-03-25T03:35:01Z</time>
      </trkpt>
      <trkpt lat="-21.34304" lon="55.74261">
        <ele>481.7</ele>
        <time>2013-03-25T03:35:09Z</time>
      </trkpt>
      <trkpt lat="-21.34297" lon="55.74266">
        <ele>482.7</ele>
        <time>2013-03-25T03:35:18Z</time>
      </trkpt>
      <trkpt lat="-21.34297" lon="55.74267">
        <ele>482.7</ele>
        <time>2013-03-25T03:35:19Z</time>
      </trkpt>
      <trkpt lat="-21.34291" lon="55.74283">
        <ele>484.1</ele>
        <time>2013-03-25T03:35:34Z</time>
      </trkpt>
      <trkpt lat="-21.3429" lon="55.74293">
        <ele>484.4</ele>
        <time>2013-03-25T03:35:44Z</time>
      </trkpt>
      <trkpt lat="-21.34286" lon="55.74301">
        <ele>485.4</ele>
        <time>2013-03-25T03:35:52Z</time>
      </trkpt>
      <trkpt lat="-21.34287" lon="55.7431">
        <ele>486.5</ele>
        <time>2013-03-25T03:35:59Z</time>
      </trkpt>
      <trkpt lat="-21.34291" lon="55.74318">
        <ele>486.6</ele>
        <time>2013-03-25T03:36:07Z</time>
      </trkpt>
      <trkpt lat="-21.3429" lon="55.74326">
        <ele>487</ele>
        <time>2013-03-25T03:36:12Z</time>
      </trkpt>
      <trkpt lat="-21.34287" lon="55.74333">
        <ele>486.6</ele>
        <time>2013-03-25T03:36:16Z</time>
      </trkpt>
      <trkpt lat="-21.34283" lon="55.7434">
        <ele>487.4</ele>
        <time>2013-03-25T03:36:19Z</time>
      </trkpt>
      <trkpt lat="-21.34282" lon="55.74342">
        <ele>487.5</ele>
        <time>2013-03-25T03:36:20Z</time>
      </trkpt>
      <trkpt lat="-21.34274" lon="55.74355">
        <ele>488</ele>
        <time>2013-03-25T03:36:28Z</time>
      </trkpt>
      <trkpt lat="-21.34271" lon="55.74363">
        <ele>487.5</ele>
        <time>2013-03-25T03:36:35Z</time>
      </trkpt>
      <trkpt lat="-21.34268" lon="55.74371">
        <ele>488.7</ele>
        <time>2013-03-25T03:36:40Z</time>
      </trkpt>
      <trkpt lat="-21.34264" lon="55.74377">
        <ele>489.2</ele>
        <time>2013-03-25T03:36:44Z</time>
      </trkpt>
      <trkpt lat="-21.34259" lon="55.74385">
        <ele>489.9</ele>
        <time>2013-03-25T03:36:48Z</time>
      </trkpt>
      <trkpt lat="-21.34255" lon="55.74392">
        <ele>490.1</ele>
        <time>2013-03-25T03:36:52Z</time>
      </trkpt>
      <trkpt lat="-21.34248" lon="55.74398">
        <ele>490.6</ele>
        <time>2013-03-25T03:36:57Z</time>
      </trkpt>
      <trkpt lat="-21.34244" lon="55.74406">
        <ele>491.1</ele>
        <time>2013-03-25T03:37:01Z</time>
      </trkpt>
      <trkpt lat="-21.34239" lon="55.74414">
        <ele>491.9</ele>
        <time>2013-03-25T03:37:07Z</time>
      </trkpt>
      <trkpt lat="-21.34234" lon="55.7442">
        <ele>492.2</ele>
        <time>2013-03-25T03:37:11Z</time>
      </trkpt>
      <trkpt lat="-21.34229" lon="55.74427">
        <ele>492.8</ele>
        <time>2013-03-25T03:37:17Z</time>
      </trkpt>
      <trkpt lat="-21.34224" lon="55.74435">
        <ele>494.6</ele>
        <time>2013-03-25T03:37:24Z</time>
      </trkpt>
      <trkpt lat="-21.34222" lon="55.74436">
        <ele>494.8</ele>
        <time>2013-03-25T03:37:25Z</time>
      </trkpt>
      <trkpt lat="-21.34209" lon="55.74438">
        <ele>495.9</ele>
        <time>2013-03-25T03:37:37Z</time>
      </trkpt>
      <trkpt lat="-21.34206" lon="55.7443">
        <ele>497.4</ele>
        <time>2013-03-25T03:37:48Z</time>
      </trkpt>
      <trkpt lat="-21.34208" lon="55.74421">
        <ele>498</ele>
        <time>2013-03-25T03:37:56Z</time>
      </trkpt>
      <trkpt lat="-21.34211" lon="55.74414">
        <ele>498.1</ele>
        <time>2013-03-25T03:38:01Z</time>
      </trkpt>
      <trkpt lat="-21.34211" lon="55.74406">
        <ele>499.5</ele>
        <time>2013-03-25T03:38:06Z</time>
      </trkpt>
      <trkpt lat="-21.34212" lon="55.74398">
        <ele>499.1</ele>
        <time>2013-03-25T03:38:12Z</time>
      </trkpt>
      <trkpt lat="-21.34213" lon="55.74389">
        <ele>499.3</ele>
        <time>2013-03-25T03:38:18Z</time>
      </trkpt>
      <trkpt lat="-21.34215" lon="55.7438">
        <ele>499.1</ele>
        <time>2013-03-25T03:38:24Z</time>
      </trkpt>
      <trkpt lat="-21.34217" lon="55.74371">
        <ele>499.9</ele>
        <time>2013-03-25T03:38:31Z</time>
      </trkpt>
      <trkpt lat="-21.34218" lon="55.74369">
        <ele>500.3</ele>
        <time>2013-03-25T03:38:32Z</time>
      </trkpt>
      <trkpt lat="-21.3422" lon="55.74354">
        <ele>500.7</ele>
        <time>2013-03-25T03:38:44Z</time>
      </trkpt>
      <trkpt lat="-21.34223" lon="55.74345">
        <ele>501.6</ele>
        <time>2013-03-25T03:38:51Z</time>
      </trkpt>
      <trkpt lat="-21.34225" lon="55.74337">
        <ele>502.4</ele>
        <time>2013-03-25T03:38:58Z</time>
      </trkpt>
      <trkpt lat="-21.34226" lon="55.74329">
        <ele>503.3</ele>
        <time>2013-03-25T03:39:04Z</time>
      </trkpt>
      <trkpt lat="-21.34227" lon="55.74319">
        <ele>503.3</ele>
        <time>2013-03-25T03:39:10Z</time>
      </trkpt>
      <trkpt lat="-21.34226" lon="55.74311">
        <ele>503.6</ele>
        <time>2013-03-25T03:39:16Z</time>
      </trkpt>
      <trkpt lat="-21.34225" lon="55.74302">
        <ele>503.8</ele>
        <time>2013-03-25T03:39:21Z</time>
      </trkpt>
      <trkpt lat="-21.34224" lon="55.74293">
        <ele>504.3</ele>
        <time>2013-03-25T03:39:25Z</time>
      </trkpt>
      <trkpt lat="-21.34223" lon="55.74285">
        <ele>504.1</ele>
        <time>2013-03-25T03:39:29Z</time>
      </trkpt>
      <trkpt lat="-21.34222" lon="55.74276">
        <ele>505.5</ele>
        <time>2013-03-25T03:39:34Z</time>
      </trkpt>
      <trkpt lat="-21.34222" lon="55.74274">
        <ele>506</ele>
        <time>2013-03-25T03:39:35Z</time>
      </trkpt>
      <trkpt lat="-21.3422" lon="55.74259">
        <ele>506.1</ele>
        <time>2013-03-25T03:39:45Z</time>
      </trkpt>
      <trkpt lat="-21.34218" lon="55.7425">
        <ele>506.9</ele>
        <time>2013-03-25T03:39:51Z</time>
      </trkpt>
      <trkpt lat="-21.34217" lon="55.74242">
        <ele>506.7</ele>
        <time>2013-03-25T03:39:56Z</time>
      </trkpt>
      <trkpt lat="-21.34216" lon="55.74232">
        <ele>507.9</ele>
        <time>2013-03-25T03:40:03Z</time>
      </trkpt>
      <trkpt lat="-21.34213" lon="55.74223">
        <ele>507.7</ele>
        <time>2013-03-25T03:40:11Z</time>
      </trkpt>
      <trkpt lat="-21.34212" lon="55.74214">
        <ele>507.9</ele>
        <time>2013-03-25T03:40:17Z</time>
      </trkpt>
      <trkpt lat="-21.34211" lon="55.74205">
        <ele>508.5</ele>
        <time>2013-03-25T03:40:22Z</time>
      </trkpt>
      <trkpt lat="-21.34212" lon="55.74196">
        <ele>509.4</ele>
        <time>2013-03-25T03:40:27Z</time>
      </trkpt>
      <trkpt lat="-21.34212" lon="55.74188">
        <ele>509.9</ele>
        <time>2013-03-25T03:40:32Z</time>
      </trkpt>
      <trkpt lat="-21.34212" lon="55.74179">
        <ele>510.5</ele>
        <time>2013-03-25T03:40:37Z</time>
      </trkpt>
      <trkpt lat="-21.34211" lon="55.74177">
        <ele>510.5</ele>
        <time>2013-03-25T03:40:38Z</time>
      </trkpt>
      <trkpt lat="-21.3421" lon="55.74162">
        <ele>510.9</ele>
        <time>2013-03-25T03:40:46Z</time>
      </trkpt>
      <trkpt lat="-21.34207" lon="55.74154">
        <ele>510.1</ele>
        <time>2013-03-25T03:40:51Z</time>
      </trkpt>
      <trkpt lat="-21.34207" lon="55.74145">
        <ele>510.4</ele>
        <time>2013-03-25T03:40:56Z</time>
      </trkpt>
      <trkpt lat="-21.34208" lon="55.74136">
        <ele>510.6</ele>
        <time>2013-03-25T03:41:00Z</time>
      </trkpt>
      <trkpt lat="-21.34209" lon="55.74127">
        <ele>511.1</ele>
        <time>2013-03-25T03:41:05Z</time>
      </trkpt>
      <trkpt lat="-21.34211" lon="55.74118">
        <ele>511.5</ele>
        <time>2013-03-25T03:41:10Z</time>
      </trkpt>
      <trkpt lat="-21.34211" lon="55.74109">
        <ele>511</ele>
        <time>2013-03-25T03:41:15Z</time>
      </trkpt>
      <trkpt lat="-21.34211" lon="55.74101">
        <ele>511.5</ele>
        <time>2013-03-25T03:41:22Z</time>
      </trkpt>
      <trkpt lat="-21.34211" lon="55.74092">
        <ele>512</ele>
        <time>2013-03-25T03:41:28Z</time>
      </trkpt>
      <trkpt lat="-21.34213" lon="55.74083">
        <ele>511.9</ele>
        <time>2013-03-25T03:41:35Z</time>
      </trkpt>
      <trkpt lat="-21.34213" lon="55.74075">
        <ele>513.4</ele>
        <time>2013-03-25T03:41:41Z</time>
      </trkpt>
      <trkpt lat="-21.34214" lon="55.74073">
        <ele>513.3</ele>
        <time>2013-03-25T03:41:42Z</time>
      </trkpt>
      <trkpt lat="-21.34214" lon="55.74058">
        <ele>514.1</ele>
        <time>2013-03-25T03:41:52Z</time>
      </trkpt>
      <trkpt lat="-21.34216" lon="55.74049">
        <ele>514.2</ele>
        <time>2013-03-25T03:41:57Z</time>
      </trkpt>
      <trkpt lat="-21.34216" lon="55.74041">
        <ele>514.5</ele>
        <time>2013-03-25T03:42:01Z</time>
      </trkpt>
      <trkpt lat="-21.34216" lon="55.74033">
        <ele>515.5</ele>
        <time>2013-03-25T03:42:06Z</time>
      </trkpt>
      <trkpt lat="-21.34214" lon="55.74025">
        <ele>515.6</ele>
        <time>2013-03-25T03:42:10Z</time>
      </trkpt>
      <trkpt lat="-21.34214" lon="55.74016">
        <ele>515.9</ele>
        <time>2013-03-25T03:42:14Z</time>
      </trkpt>
      <trkpt lat="-21.34213" lon="55.74008">
        <ele>515.2</ele>
        <time>2013-03-25T03:42:20Z</time>
      </trkpt>
      <trkpt lat="-21.34214" lon="55.73999">
        <ele>515.2</ele>
        <time>2013-03-25T03:42:27Z</time>
      </trkpt>
      <trkpt lat="-21.34214" lon="55.73991">
        <ele>515.5</ele>
        <time>2013-03-25T03:42:32Z</time>
      </trkpt>
      <trkpt lat="-21.34213" lon="55.73982">
        <ele>516.2</ele>
        <time>2013-03-25T03:42:37Z</time>
      </trkpt>
      <trkpt lat="-21.34213" lon="55.73973">
        <ele>517.1</ele>
        <time>2013-03-25T03:42:42Z</time>
      </trkpt>
      <trkpt lat="-21.34213" lon="55.73971">
        <ele>517.3</ele>
        <time>2013-03-25T03:42:43Z</time>
      </trkpt>
      <trkpt lat="-21.34214" lon="55.73956">
        <ele>518.4</ele>
        <time>2013-03-25T03:42:50Z</time>
      </trkpt>
      <trkpt lat="-21.3421" lon="55.73949">
        <ele>518.4</ele>
        <time>2013-03-25T03:42:54Z</time>
      </trkpt>
      <trkpt lat="-21.34207" lon="55.73941">
        <ele>518.2</ele>
        <time>2013-03-25T03:42:59Z</time>
      </trkpt>
      <trkpt lat="-21.34206" lon="55.73933">
        <ele>519.4</ele>
        <time>2013-03-25T03:43:05Z</time>
      </trkpt>
      <trkpt lat="-21.34205" lon="55.73924">
        <ele>520.5</ele>
        <time>2013-03-25T03:43:11Z</time>
      </trkpt>
      <trkpt lat="-21.34207" lon="55.73916">
        <ele>520.3</ele>
        <time>2013-03-25T03:43:17Z</time>
      </trkpt>
      <trkpt lat="-21.3421" lon="55.73909">
        <ele>520.9</ele>
        <time>2013-03-25T03:43:23Z</time>
      </trkpt>
      <trkpt lat="-21.34212" lon="55.739">
        <ele>521.5</ele>
        <time>2013-03-25T03:43:29Z</time>
      </trkpt>
      <trkpt lat="-21.34212" lon="55.73892">
        <ele>522.6</ele>
        <time>2013-03-25T03:43:36Z</time>
      </trkpt>
      <trkpt lat="-21.34214" lon="55.73883">
        <ele>523.5</ele>
        <time>2013-03-25T03:43:43Z</time>
      </trkpt>
      <trkpt lat="-21.34214" lon="55.73881">
        <ele>523.4</ele>
        <time>2013-03-25T03:43:44Z</time>
      </trkpt>
      <trkpt lat="-21.34214" lon="55.73865">
        <ele>523.6</ele>
        <time>2013-03-25T03:43:54Z</time>
      </trkpt>
      <trkpt lat="-21.34214" lon="55.73856">
        <ele>524</ele>
        <time>2013-03-25T03:43:59Z</time>
      </trkpt>
      <trkpt lat="-21.34213" lon="55.73848">
        <ele>524.2</ele>
        <time>2013-03-25T03:44:04Z</time>
      </trkpt>
      <trkpt lat="-21.34212" lon="55.7384">
        <ele>524.2</ele>
        <time>2013-03-25T03:44:08Z</time>
      </trkpt>
      <trkpt lat="-21.34212" lon="55.73831">
        <ele>524.5</ele>
        <time>2013-03-25T03:44:13Z</time>
      </trkpt>
      <trkpt lat="-21.34211" lon="55.73823">
        <ele>524.1</ele>
        <time>2013-03-25T03:44:19Z</time>
      </trkpt>
      <trkpt lat="-21.34211" lon="55.73814">
        <ele>524.3</ele>
        <time>2013-03-25T03:44:23Z</time>
      </trkpt>
      <trkpt lat="-21.3421" lon="55.73806">
        <ele>525.2</ele>
        <time>2013-03-25T03:44:28Z</time>
      </trkpt>
      <trkpt lat="-21.34209" lon="55.73797">
        <ele>525</ele>
        <time>2013-03-25T03:44:34Z</time>
      </trkpt>
      <trkpt lat="-21.34208" lon="55.73788">
        <ele>525.6</ele>
        <time>2013-03-25T03:44:40Z</time>
      </trkpt>
      <trkpt lat="-21.34208" lon="55.73779">
        <ele>525.8</ele>
        <time>2013-03-25T03:44:46Z</time>
      </trkpt>
      <trkpt lat="-21.34209" lon="55.73777">
        <ele>526.1</ele>
        <time>2013-03-25T03:44:47Z</time>
      </trkpt>
      <trkpt lat="-21.34209" lon="55.73761">
        <ele>526.7</ele>
        <time>2013-03-25T03:44:59Z</time>
      </trkpt>
      <trkpt lat="-21.34209" lon="55.73751">
        <ele>526.9</ele>
        <time>2013-03-25T03:45:05Z</time>
      </trkpt>
      <trkpt lat="-21.34207" lon="55.73742">
        <ele>527.2</ele>
        <time>2013-03-25T03:45:11Z</time>
      </trkpt>
      <trkpt lat="-21.34205" lon="55.73734">
        <ele>527.6</ele>
        <time>2013-03-25T03:45:16Z</time>
      </trkpt>
      <trkpt lat="-21.34204" lon="55.73725">
        <ele>527.1</ele>
        <time>2013-03-25T03:45:21Z</time>
      </trkpt>
      <trkpt lat="-21.34204" lon="55.73716">
        <ele>528.1</ele>
        <time>2013-03-25T03:45:26Z</time>
      </trkpt>
      <trkpt lat="-21.34202" lon="55.73709">
        <ele>528.1</ele>
        <time>2013-03-25T03:45:30Z</time>
      </trkpt>
      <trkpt lat="-21.34198" lon="55.73701">
        <ele>528</ele>
        <time>2013-03-25T03:45:34Z</time>
      </trkpt>
      <trkpt lat="-21.34195" lon="55.73694">
        <ele>527.8</ele>
        <time>2013-03-25T03:45:38Z</time>
      </trkpt>
      <trkpt lat="-21.34188" lon="55.73689">
        <ele>528</ele>
        <time>2013-03-25T03:45:42Z</time>
      </trkpt>
      <trkpt lat="-21.34183" lon="55.73681">
        <ele>527.7</ele>
        <time>2013-03-25T03:45:48Z</time>
      </trkpt>
      <trkpt lat="-21.34182" lon="55.7368">
        <ele>527.9</ele>
        <time>2013-03-25T03:45:49Z</time>
      </trkpt>
      <trkpt lat="-21.34186" lon="55.73664">
        <ele>528.6</ele>
        <time>2013-03-25T03:46:00Z</time>
      </trkpt>
      <trkpt lat="-21.34184" lon="55.73656">
        <ele>528.9</ele>
        <time>2013-03-25T03:46:05Z</time>
      </trkpt>
      <trkpt lat="-21.34186" lon="55.73648">
        <ele>529.5</ele>
        <time>2013-03-25T03:46:12Z</time>
      </trkpt>
      <trkpt lat="-21.34188" lon="55.73639">
        <ele>530.7</ele>
        <time>2013-03-25T03:46:22Z</time>
      </trkpt>
      <trkpt lat="-21.3419" lon="55.73629">
        <ele>530.5</ele>
        <time>2013-03-25T03:46:29Z</time>
      </trkpt>
      <trkpt lat="-21.34191" lon="55.7362">
        <ele>530.9</ele>
        <time>2013-03-25T03:46:35Z</time>
      </trkpt>
      <trkpt lat="-21.34193" lon="55.73612">
        <ele>530.5</ele>
        <time>2013-03-25T03:46:39Z</time>
      </trkpt>
      <trkpt lat="-21.34193" lon="55.73604">
        <ele>530.5</ele>
        <time>2013-03-25T03:46:44Z</time>
      </trkpt>
      <trkpt lat="-21.34195" lon="55.73596">
        <ele>531.1</ele>
        <time>2013-03-25T03:46:49Z</time>
      </trkpt>
      <trkpt lat="-21.34194" lon="55.73594">
        <ele>531</ele>
        <time>2013-03-25T03:46:50Z</time>
      </trkpt>
      <trkpt lat="-21.34196" lon="55.73578">
        <ele>530.8</ele>
        <time>2013-03-25T03:46:59Z</time>
      </trkpt>
      <trkpt lat="-21.34196" lon="55.73569">
        <ele>530.7</ele>
        <time>2013-03-25T03:47:04Z</time>
      </trkpt>
      <trkpt lat="-21.34195" lon="55.7356">
        <ele>530.8</ele>
        <time>2013-03-25T03:47:10Z</time>
      </trkpt>
      <trkpt lat="-21.34192" lon="55.73552">
        <ele>530.6</ele>
        <time>2013-03-25T03:47:15Z</time>
      </trkpt>
      <trkpt lat="-21.34188" lon="55.73544">
        <ele>531.2</ele>
        <time>2013-03-25T03:47:20Z</time>
      </trkpt>
      <trkpt lat="-21.34182" lon="55.73537">
        <ele>530.9</ele>
        <time>2013-03-25T03:47:25Z</time>
      </trkpt>
      <trkpt lat="-21.34176" lon="55.73531">
        <ele>530.6</ele>
        <time>2013-03-25T03:47:30Z</time>
      </trkpt>
      <trkpt lat="-21.34168" lon="55.73529">
        <ele>530.6</ele>
        <time>2013-03-25T03:47:35Z</time>
      </trkpt>
      <trkpt lat="-21.34159" lon="55.73528">
        <ele>531.4</ele>
        <time>2013-03-25T03:47:40Z</time>
      </trkpt>
      <trkpt lat="-21.34152" lon="55.73527">
        <ele>530.7</ele>
        <time>2013-03-25T03:47:44Z</time>
      </trkpt>
      <trkpt lat="-21.34143" lon="55.73526">
        <ele>531.5</ele>
        <time>2013-03-25T03:47:49Z</time>
      </trkpt>
      <trkpt lat="-21.34134" lon="55.73525">
        <ele>532</ele>
        <time>2013-03-25T03:47:54Z</time>
      </trkpt>
      <trkpt lat="-21.34133" lon="55.73525">
        <ele>532.1</ele>
        <time>2013-03-25T03:47:55Z</time>
      </trkpt>
      <trkpt lat="-21.34118" lon="55.73521">
        <ele>531.5</ele>
        <time>2013-03-25T03:48:07Z</time>
      </trkpt>
      <trkpt lat="-21.34113" lon="55.73514">
        <ele>531.8</ele>
        <time>2013-03-25T03:48:12Z</time>
      </trkpt>
      <trkpt lat="-21.34112" lon="55.73504">
        <ele>531.2</ele>
        <time>2013-03-25T03:48:17Z</time>
      </trkpt>
      <trkpt lat="-21.34112" lon="55.73495">
        <ele>531.2</ele>
        <time>2013-03-25T03:48:23Z</time>
      </trkpt>
      <trkpt lat="-21.34112" lon="55.73486">
        <ele>531.9</ele>
        <time>2013-03-25T03:48:29Z</time>
      </trkpt>
      <trkpt lat="-21.34111" lon="55.73477">
        <ele>532.3</ele>
        <time>2013-03-25T03:48:36Z</time>
      </trkpt>
      <trkpt lat="-21.34109" lon="55.73468">
        <ele>533</ele>
        <time>2013-03-25T03:48:45Z</time>
      </trkpt>
      <trkpt lat="-21.34107" lon="55.7346">
        <ele>533.6</ele>
        <time>2013-03-25T03:48:53Z</time>
      </trkpt>
      <trkpt lat="-21.34102" lon="55.73451">
        <ele>533.8</ele>
        <time>2013-03-25T03:49:00Z</time>
      </trkpt>
      <trkpt lat="-21.34101" lon="55.7345">
        <ele>533.7</ele>
        <time>2013-03-25T03:49:01Z</time>
      </trkpt>
      <trkpt lat="-21.34093" lon="55.73436">
        <ele>535</ele>
        <time>2013-03-25T03:49:10Z</time>
      </trkpt>
      <trkpt lat="-21.34087" lon="55.7343">
        <ele>535.7</ele>
        <time>2013-03-25T03:49:16Z</time>
      </trkpt>
      <trkpt lat="-21.34085" lon="55.73422">
        <ele>535.4</ele>
        <time>2013-03-25T03:49:21Z</time>
      </trkpt>
      <trkpt lat="-21.34081" lon="55.73413">
        <ele>536.9</ele>
        <time>2013-03-25T03:49:28Z</time>
      </trkpt>
      <trkpt lat="-21.34084" lon="55.73404">
        <ele>536.9</ele>
        <time>2013-03-25T03:49:37Z</time>
      </trkpt>
      <trkpt lat="-21.34089" lon="55.73397">
        <ele>538.2</ele>
        <time>2013-03-25T03:49:43Z</time>
      </trkpt>
      <trkpt lat="-21.34093" lon="55.7339">
        <ele>537.2</ele>
        <time>2013-03-25T03:49:49Z</time>
      </trkpt>
      <trkpt lat="-21.34097" lon="55.73383">
        <ele>538</ele>
        <time>2013-03-25T03:49:55Z</time>
      </trkpt>
      <trkpt lat="-21.34104" lon="55.73379">
        <ele>538.8</ele>
        <time>2013-03-25T03:50:06Z</time>
      </trkpt>
      <trkpt lat="-21.34106" lon="55.7338">
        <ele>538.7</ele>
        <time>2013-03-25T03:50:07Z</time>
      </trkpt>
      <trkpt lat="-21.34121" lon="55.73381">
        <ele>539.4</ele>
        <time>2013-03-25T03:50:17Z</time>
      </trkpt>
      <trkpt lat="-21.34128" lon="55.73378">
        <ele>540.1</ele>
        <time>2013-03-25T03:50:21Z</time>
      </trkpt>
      <trkpt lat="-21.34134" lon="55.73372">
        <ele>539.9</ele>
        <time>2013-03-25T03:50:25Z</time>
      </trkpt>
      <trkpt lat="-21.34139" lon="55.73365">
        <ele>539.8</ele>
        <time>2013-03-25T03:50:28Z</time>
      </trkpt>
      <trkpt lat="-21.34142" lon="55.73357">
        <ele>539.6</ele>
        <time>2013-03-25T03:50:31Z</time>
      </trkpt>
      <trkpt lat="-21.34145" lon="55.73349">
        <ele>539</ele>
        <time>2013-03-25T03:50:35Z</time>
      </trkpt>
      <trkpt lat="-21.34147" lon="55.7334">
        <ele>540.1</ele>
        <time>2013-03-25T03:50:40Z</time>
      </trkpt>
      <trkpt lat="-21.34145" lon="55.73331">
        <ele>540.6</ele>
        <time>2013-03-25T03:50:46Z</time>
      </trkpt>
      <trkpt lat="-21.34145" lon="55.73318">
        <ele>540</ele>
        <time>2013-03-25T03:50:53Z</time>
      </trkpt>
      <trkpt lat="-21.34145" lon="55.7331">
        <ele>541.3</ele>
        <time>2013-03-25T03:50:58Z</time>
      </trkpt>
      <trkpt lat="-21.34146" lon="55.73301">
        <ele>540.8</ele>
        <time>2013-03-25T03:51:03Z</time>
      </trkpt>
      <trkpt lat="-21.34147" lon="55.73292">
        <ele>541.6</ele>
        <time>2013-03-25T03:51:09Z</time>
      </trkpt>
      <trkpt lat="-21.34147" lon="55.7329">
        <ele>541.7</ele>
        <time>2013-03-25T03:51:10Z</time>
      </trkpt>
      <trkpt lat="-21.34152" lon="55.73276">
        <ele>541.5</ele>
        <time>2013-03-25T03:51:18Z</time>
      </trkpt>
      <trkpt lat="-21.34154" lon="55.73267">
        <ele>542.1</ele>
        <time>2013-03-25T03:51:23Z</time>
      </trkpt>
      <trkpt lat="-21.34154" lon="55.73259">
        <ele>542.8</ele>
        <time>2013-03-25T03:51:28Z</time>
      </trkpt>
      <trkpt lat="-21.34153" lon="55.7325">
        <ele>542.9</ele>
        <time>2013-03-25T03:51:33Z</time>
      </trkpt>
      <trkpt lat="-21.34153" lon="55.73242">
        <ele>543.2</ele>
        <time>2013-03-25T03:51:38Z</time>
      </trkpt>
      <trkpt lat="-21.3415" lon="55.73233">
        <ele>543.8</ele>
        <time>2013-03-25T03:51:44Z</time>
      </trkpt>
      <trkpt lat="-21.34149" lon="55.73225">
        <ele>544.3</ele>
        <time>2013-03-25T03:51:51Z</time>
      </trkpt>
      <trkpt lat="-21.3415" lon="55.73217">
        <ele>544.7</ele>
        <time>2013-03-25T03:51:56Z</time>
      </trkpt>
      <trkpt lat="-21.34149" lon="55.73209">
        <ele>544.8</ele>
        <time>2013-03-25T03:52:01Z</time>
      </trkpt>
      <trkpt lat="-21.34147" lon="55.73201">
        <ele>544.8</ele>
        <time>2013-03-25T03:52:06Z</time>
      </trkpt>
      <trkpt lat="-21.34143" lon="55.73193">
        <ele>545</ele>
        <time>2013-03-25T03:52:12Z</time>
      </trkpt>
      <trkpt lat="-21.34142" lon="55.73192">
        <ele>545.1</ele>
        <time>2013-03-25T03:52:13Z</time>
      </trkpt>
      <trkpt lat="-21.34139" lon="55.73175">
        <ele>546.9</ele>
        <time>2013-03-25T03:52:25Z</time>
      </trkpt>
      <trkpt lat="-21.34137" lon="55.73168">
        <ele>548</ele>
        <time>2013-03-25T03:52:30Z</time>
      </trkpt>
      <trkpt lat="-21.34137" lon="55.73159">
        <ele>547.7</ele>
        <time>2013-03-25T03:52:35Z</time>
      </trkpt>
      <trkpt lat="-21.34134" lon="55.73151">
        <ele>548.7</ele>
        <time>2013-03-25T03:52:40Z</time>
      </trkpt>
      <trkpt lat="-21.34134" lon="55.73143">
        <ele>549.4</ele>
        <time>2013-03-25T03:52:45Z</time>
      </trkpt>
      <trkpt lat="-21.3413" lon="55.73135">
        <ele>549.5</ele>
        <time>2013-03-25T03:52:51Z</time>
      </trkpt>
      <trkpt lat="-21.34126" lon="55.73127">
        <ele>549.8</ele>
        <time>2013-03-25T03:52:58Z</time>
      </trkpt>
      <trkpt lat="-21.3412" lon="55.73122">
        <ele>549.1</ele>
        <time>2013-03-25T03:53:04Z</time>
      </trkpt>
      <trkpt lat="-21.34116" lon="55.73114">
        <ele>549.8</ele>
        <time>2013-03-25T03:53:10Z</time>
      </trkpt>
      <trkpt lat="-21.34111" lon="55.73108">
        <ele>549.5</ele>
        <time>2013-03-25T03:53:15Z</time>
      </trkpt>
      <trkpt lat="-21.34111" lon="55.73106">
        <ele>549.6</ele>
        <time>2013-03-25T03:53:16Z</time>
      </trkpt>
      <trkpt lat="-21.34109" lon="55.73089">
        <ele>549.9</ele>
        <time>2013-03-25T03:53:28Z</time>
      </trkpt>
      <trkpt lat="-21.34108" lon="55.7308">
        <ele>550.6</ele>
        <time>2013-03-25T03:53:34Z</time>
      </trkpt>
      <trkpt lat="-21.34107" lon="55.73072">
        <ele>552</ele>
        <time>2013-03-25T03:53:40Z</time>
      </trkpt>
      <trkpt lat="-21.34103" lon="55.73063">
        <ele>552.9</ele>
        <time>2013-03-25T03:53:50Z</time>
      </trkpt>
      <trkpt lat="-21.341" lon="55.73055">
        <ele>553.1</ele>
        <time>2013-03-25T03:53:56Z</time>
      </trkpt>
      <trkpt lat="-21.34096" lon="55.73048">
        <ele>553.1</ele>
        <time>2013-03-25T03:54:03Z</time>
      </trkpt>
      <trkpt lat="-21.34093" lon="55.73039">
        <ele>553.4</ele>
        <time>2013-03-25T03:54:08Z</time>
      </trkpt>
      <trkpt lat="-21.3409" lon="55.7303">
        <ele>554.3</ele>
        <time>2013-03-25T03:54:13Z</time>
      </trkpt>
      <trkpt lat="-21.3409" lon="55.73022">
        <ele>553.7</ele>
        <time>2013-03-25T03:54:18Z</time>
      </trkpt>
      <trkpt lat="-21.3409" lon="55.7302">
        <ele>554</ele>
        <time>2013-03-25T03:54:19Z</time>
      </trkpt>
      <trkpt lat="-21.34092" lon="55.73003">
        <ele>556.1</ele>
        <time>2013-03-25T03:54:32Z</time>
      </trkpt>
      <trkpt lat="-21.34092" lon="55.72995">
        <ele>556.8</ele>
        <time>2013-03-25T03:54:38Z</time>
      </trkpt>
      <trkpt lat="-21.34092" lon="55.72986">
        <ele>556.9</ele>
        <time>2013-03-25T03:54:43Z</time>
      </trkpt>
      <trkpt lat="-21.34094" lon="55.72977">
        <ele>558.2</ele>
        <time>2013-03-25T03:54:49Z</time>
      </trkpt>
      <trkpt lat="-21.34096" lon="55.72968">
        <ele>558.4</ele>
        <time>2013-03-25T03:54:55Z</time>
      </trkpt>
      <trkpt lat="-21.34096" lon="55.7296">
        <ele>558.5</ele>
        <time>2013-03-25T03:55:00Z</time>
      </trkpt>
      <trkpt lat="-21.34098" lon="55.7295">
        <ele>558.8</ele>
        <time>2013-03-25T03:55:05Z</time>
      </trkpt>
      <trkpt lat="-21.34098" lon="55.72942">
        <ele>558.6</ele>
        <time>2013-03-25T03:55:10Z</time>
      </trkpt>
      <trkpt lat="-21.34096" lon="55.72933">
        <ele>558.4</ele>
        <time>2013-03-25T03:55:16Z</time>
      </trkpt>
      <trkpt lat="-21.34091" lon="55.72925">
        <ele>558.5</ele>
        <time>2013-03-25T03:55:22Z</time>
      </trkpt>
      <trkpt lat="-21.34091" lon="55.72923">
        <ele>558.3</ele>
        <time>2013-03-25T03:55:23Z</time>
      </trkpt>
      <trkpt lat="-21.34086" lon="55.72909">
        <ele>560.1</ele>
        <time>2013-03-25T03:55:35Z</time>
      </trkpt>
      <trkpt lat="-21.34082" lon="55.72901">
        <ele>560.3</ele>
        <time>2013-03-25T03:55:42Z</time>
      </trkpt>
      <trkpt lat="-21.34078" lon="55.72894">
        <ele>561.3</ele>
        <time>2013-03-25T03:55:48Z</time>
      </trkpt>
      <trkpt lat="-21.34074" lon="55.72885">
        <ele>560.3</ele>
        <time>2013-03-25T03:55:53Z</time>
      </trkpt>
      <trkpt lat="-21.34072" lon="55.72877">
        <ele>561.9</ele>
        <time>2013-03-25T03:55:59Z</time>
      </trkpt>
      <trkpt lat="-21.34073" lon="55.72868">
        <ele>562.6</ele>
        <time>2013-03-25T03:56:07Z</time>
      </trkpt>
      <trkpt lat="-21.34077" lon="55.7286">
        <ele>563.4</ele>
        <time>2013-03-25T03:56:15Z</time>
      </trkpt>
      <trkpt lat="-21.3408" lon="55.72851">
        <ele>564.5</ele>
        <time>2013-03-25T03:56:21Z</time>
      </trkpt>
      <trkpt lat="-21.34084" lon="55.72843">
        <ele>566.1</ele>
        <time>2013-03-25T03:56:27Z</time>
      </trkpt>
      <trkpt lat="-21.34084" lon="55.72842">
        <ele>566.3</ele>
        <time>2013-03-25T03:56:28Z</time>
      </trkpt>
      <trkpt lat="-21.34088" lon="55.72826">
        <ele>566.2</ele>
        <time>2013-03-25T03:56:40Z</time>
      </trkpt>
      <trkpt lat="-21.34092" lon="55.72817">
        <ele>566.8</ele>
        <time>2013-03-25T03:56:47Z</time>
      </trkpt>
      <trkpt lat="-21.34095" lon="55.72808">
        <ele>567.2</ele>
        <time>2013-03-25T03:56:53Z</time>
      </trkpt>
      <trkpt lat="-21.34096" lon="55.72801">
        <ele>567.5</ele>
        <time>2013-03-25T03:56:57Z</time>
      </trkpt>
      <trkpt lat="-21.34099" lon="55.72794">
        <ele>567.6</ele>
        <time>2013-03-25T03:57:00Z</time>
      </trkpt>
      <trkpt lat="-21.34101" lon="55.72786">
        <ele>567.6</ele>
        <time>2013-03-25T03:57:05Z</time>
      </trkpt>
      <trkpt lat="-21.34101" lon="55.72776">
        <ele>567.5</ele>
        <time>2013-03-25T03:57:13Z</time>
      </trkpt>
      <trkpt lat="-21.34104" lon="55.72768">
        <ele>566.5</ele>
        <time>2013-03-25T03:57:20Z</time>
      </trkpt>
      <trkpt lat="-21.34105" lon="55.72759">
        <ele>566.8</ele>
        <time>2013-03-25T03:57:24Z</time>
      </trkpt>
      <trkpt lat="-21.34109" lon="55.72751">
        <ele>567.7</ele>
        <time>2013-03-25T03:57:30Z</time>
      </trkpt>
      <trkpt lat="-21.3411" lon="55.7275">
        <ele>567.8</ele>
        <time>2013-03-25T03:57:31Z</time>
      </trkpt>
      <trkpt lat="-21.34116" lon="55.72734">
        <ele>567.9</ele>
        <time>2013-03-25T03:57:44Z</time>
      </trkpt>
      <trkpt lat="-21.34119" lon="55.72727">
        <ele>568.8</ele>
        <time>2013-03-25T03:57:49Z</time>
      </trkpt>
      <trkpt lat="-21.3412" lon="55.72718">
        <ele>568.8</ele>
        <time>2013-03-25T03:57:54Z</time>
      </trkpt>
      <trkpt lat="-21.34121" lon="55.72709">
        <ele>568.6</ele>
        <time>2013-03-25T03:57:59Z</time>
      </trkpt>
      <trkpt lat="-21.3412" lon="55.727">
        <ele>570</ele>
        <time>2013-03-25T03:58:06Z</time>
      </trkpt>
      <trkpt lat="-21.3412" lon="55.72691">
        <ele>570.1</ele>
        <time>2013-03-25T03:58:14Z</time>
      </trkpt>
      <trkpt lat="-21.3412" lon="55.72682">
        <ele>571.1</ele>
        <time>2013-03-25T03:58:20Z</time>
      </trkpt>
      <trkpt lat="-21.34119" lon="55.72674">
        <ele>571.6</ele>
        <time>2013-03-25T03:58:25Z</time>
      </trkpt>
      <trkpt lat="-21.34119" lon="55.72666">
        <ele>571.3</ele>
        <time>2013-03-25T03:58:30Z</time>
      </trkpt>
      <trkpt lat="-21.34117" lon="55.72657">
        <ele>571.7</ele>
        <time>2013-03-25T03:58:36Z</time>
      </trkpt>
      <trkpt lat="-21.34117" lon="55.72655">
        <ele>572.3</ele>
        <time>2013-03-25T03:58:37Z</time>
      </trkpt>
      <trkpt lat="-21.34114" lon="55.7264">
        <ele>573.8</ele>
        <time>2013-03-25T03:58:46Z</time>
      </trkpt>
      <trkpt lat="-21.34113" lon="55.72632">
        <ele>574.2</ele>
        <time>2013-03-25T03:58:52Z</time>
      </trkpt>
      <trkpt lat="-21.34111" lon="55.72624">
        <ele>573.9</ele>
        <time>2013-03-25T03:58:57Z</time>
      </trkpt>
      <trkpt lat="-21.3411" lon="55.72615">
        <ele>574.4</ele>
        <time>2013-03-25T03:59:02Z</time>
      </trkpt>
      <trkpt lat="-21.34108" lon="55.72607">
        <ele>574.5</ele>
        <time>2013-03-25T03:59:07Z</time>
      </trkpt>
      <trkpt lat="-21.34104" lon="55.72599">
        <ele>573.5</ele>
        <time>2013-03-25T03:59:13Z</time>
      </trkpt>
      <trkpt lat="-21.34104" lon="55.7259">
        <ele>574.3</ele>
        <time>2013-03-25T03:59:21Z</time>
      </trkpt>
      <trkpt lat="-21.34102" lon="55.72581">
        <ele>575.6</ele>
        <time>2013-03-25T03:59:29Z</time>
      </trkpt>
      <trkpt lat="-21.341" lon="55.72573">
        <ele>576.3</ele>
        <time>2013-03-25T03:59:37Z</time>
      </trkpt>
      <trkpt lat="-21.341" lon="55.72571">
        <ele>576.2</ele>
        <time>2013-03-25T03:59:38Z</time>
      </trkpt>
      <trkpt lat="-21.34101" lon="55.72555">
        <ele>576.3</ele>
        <time>2013-03-25T03:59:49Z</time>
      </trkpt>
      <trkpt lat="-21.341" lon="55.72546">
        <ele>576.9</ele>
        <time>2013-03-25T03:59:54Z</time>
      </trkpt>
      <trkpt lat="-21.34101" lon="55.72536">
        <ele>577.1</ele>
        <time>2013-03-25T03:59:59Z</time>
      </trkpt>
      <trkpt lat="-21.341" lon="55.72527">
        <ele>577.5</ele>
        <time>2013-03-25T04:00:04Z</time>
      </trkpt>
      <trkpt lat="-21.34099" lon="55.72519">
        <ele>578.3</ele>
        <time>2013-03-25T04:00:09Z</time>
      </trkpt>
      <trkpt lat="-21.34097" lon="55.7251">
        <ele>578.4</ele>
        <time>2013-03-25T04:00:15Z</time>
      </trkpt>
      <trkpt lat="-21.34096" lon="55.72502">
        <ele>578</ele>
        <time>2013-03-25T04:00:20Z</time>
      </trkpt>
      <trkpt lat="-21.34096" lon="55.72493">
        <ele>577.1</ele>
        <time>2013-03-25T04:00:25Z</time>
      </trkpt>
      <trkpt lat="-21.34094" lon="55.72485">
        <ele>577.3</ele>
        <time>2013-03-25T04:00:30Z</time>
      </trkpt>
      <trkpt lat="-21.34092" lon="55.72477">
        <ele>577.7</ele>
        <time>2013-03-25T04:00:35Z</time>
      </trkpt>
      <trkpt lat="-21.3409" lon="55.72468">
        <ele>578.3</ele>
        <time>2013-03-25T04:00:41Z</time>
      </trkpt>
      <trkpt lat="-21.3409" lon="55.72466">
        <ele>578.4</ele>
        <time>2013-03-25T04:00:42Z</time>
      </trkpt>
      <trkpt lat="-21.3409" lon="55.72451">
        <ele>578.3</ele>
        <time>2013-03-25T04:00:51Z</time>
      </trkpt>
      <trkpt lat="-21.34091" lon="55.72443">
        <ele>578.3</ele>
        <time>2013-03-25T04:00:56Z</time>
      </trkpt>
      <trkpt lat="-21.34093" lon="55.72434">
        <ele>578.6</ele>
        <time>2013-03-25T04:01:02Z</time>
      </trkpt>
      <trkpt lat="-21.34096" lon="55.72425">
        <ele>579.9</ele>
        <time>2013-03-25T04:01:09Z</time>
      </trkpt>
      <trkpt lat="-21.34098" lon="55.72416">
        <ele>579.8</ele>
        <time>2013-03-25T04:01:16Z</time>
      </trkpt>
      <trkpt lat="-21.34103" lon="55.72408">
        <ele>580.9</ele>
        <time>2013-03-25T04:01:22Z</time>
      </trkpt>
      <trkpt lat="-21.34105" lon="55.72399">
        <ele>581.2</ele>
        <time>2013-03-25T04:01:28Z</time>
      </trkpt>
      <trkpt lat="-21.34106" lon="55.72391">
        <ele>581.5</ele>
        <time>2013-03-25T04:01:34Z</time>
      </trkpt>
      <trkpt lat="-21.34109" lon="55.72382">
        <ele>582</ele>
        <time>2013-03-25T04:01:40Z</time>
      </trkpt>
      <trkpt lat="-21.34112" lon="55.72374">
        <ele>582.2</ele>
        <time>2013-03-25T04:01:45Z</time>
      </trkpt>
      <trkpt lat="-21.34112" lon="55.72373">
        <ele>582.1</ele>
        <time>2013-03-25T04:01:46Z</time>
      </trkpt>
      <trkpt lat="-21.34117" lon="55.72357">
        <ele>582.6</ele>
        <time>2013-03-25T04:01:56Z</time>
      </trkpt>
      <trkpt lat="-21.34121" lon="55.7235">
        <ele>582.9</ele>
        <time>2013-03-25T04:02:01Z</time>
      </trkpt>
      <trkpt lat="-21.34123" lon="55.72342">
        <ele>583.6</ele>
        <time>2013-03-25T04:02:07Z</time>
      </trkpt>
      <trkpt lat="-21.34124" lon="55.72333">
        <ele>584.6</ele>
        <time>2013-03-25T04:02:15Z</time>
      </trkpt>
      <trkpt lat="-21.34125" lon="55.72323">
        <ele>584.8</ele>
        <time>2013-03-25T04:02:21Z</time>
      </trkpt>
      <trkpt lat="-21.34129" lon="55.72315">
        <ele>585.1</ele>
        <time>2013-03-25T04:02:26Z</time>
      </trkpt>
      <trkpt lat="-21.34133" lon="55.72307">
        <ele>586.2</ele>
        <time>2013-03-25T04:02:31Z</time>
      </trkpt>
      <trkpt lat="-21.34134" lon="55.72299">
        <ele>587.1</ele>
        <time>2013-03-25T04:02:38Z</time>
      </trkpt>
      <trkpt lat="-21.34137" lon="55.7229">
        <ele>587.5</ele>
        <time>2013-03-25T04:02:44Z</time>
      </trkpt>
      <trkpt lat="-21.3414" lon="55.72281">
        <ele>587.8</ele>
        <time>2013-03-25T04:02:52Z</time>
      </trkpt>
      <trkpt lat="-21.3414" lon="55.7228">
        <ele>587.7</ele>
        <time>2013-03-25T04:02:53Z</time>
      </trkpt>
      <trkpt lat="-21.34141" lon="55.72263">
        <ele>588.8</ele>
        <time>2013-03-25T04:03:06Z</time>
      </trkpt>
      <trkpt lat="-21.34142" lon="55.72255">
        <ele>589.1</ele>
        <time>2013-03-25T04:03:13Z</time>
      </trkpt>
      <trkpt lat="-21.34142" lon="55.72247">
        <ele>589.4</ele>
        <time>2013-03-25T04:03:18Z</time>
      </trkpt>
      <trkpt lat="-21.34139" lon="55.72238">
        <ele>589.3</ele>
        <time>2013-03-25T04:03:23Z</time>
      </trkpt>
      <trkpt lat="-21.34135" lon="55.72231">
        <ele>589.6</ele>
        <time>2013-03-25T04:03:30Z</time>
      </trkpt>
      <trkpt lat="-21.34128" lon="55.72225">
        <ele>590.5</ele>
        <time>2013-03-25T04:03:35Z</time>
      </trkpt>
      <trkpt lat="-21.34125" lon="55.72217">
        <ele>591.8</ele>
        <time>2013-03-25T04:03:43Z</time>
      </trkpt>
      <trkpt lat="-21.34125" lon="55.72208">
        <ele>592.8</ele>
        <time>2013-03-25T04:03:52Z</time>
      </trkpt>
      <trkpt lat="-21.34129" lon="55.72201">
        <ele>593.8</ele>
        <time>2013-03-25T04:03:58Z</time>
      </trkpt>
      <trkpt lat="-21.3413" lon="55.72199">
        <ele>594</ele>
        <time>2013-03-25T04:03:59Z</time>
      </trkpt>
      <trkpt lat="-21.34128" lon="55.72184">
        <ele>595.2</ele>
        <time>2013-03-25T04:04:09Z</time>
      </trkpt>
      <trkpt lat="-21.34123" lon="55.72177">
        <ele>595</ele>
        <time>2013-03-25T04:04:14Z</time>
      </trkpt>
      <trkpt lat="-21.34117" lon="55.7217">
        <ele>595.7</ele>
        <time>2013-03-25T04:04:21Z</time>
      </trkpt>
      <trkpt lat="-21.34114" lon="55.72162">
        <ele>597.1</ele>
        <time>2013-03-25T04:04:28Z</time>
      </trkpt>
      <trkpt lat="-21.34109" lon="55.72154">
        <ele>598.2</ele>
        <time>2013-03-25T04:04:36Z</time>
      </trkpt>
      <trkpt lat="-21.34106" lon="55.72145">
        <ele>597.6</ele>
        <time>2013-03-25T04:04:42Z</time>
      </trkpt>
      <trkpt lat="-21.34107" lon="55.72136">
        <ele>598</ele>
        <time>2013-03-25T04:04:49Z</time>
      </trkpt>
      <trkpt lat="-21.34109" lon="55.72127">
        <ele>598.4</ele>
        <time>2013-03-25T04:04:58Z</time>
      </trkpt>
      <trkpt lat="-21.34116" lon="55.72121">
        <ele>598.7</ele>
        <time>2013-03-25T04:05:03Z</time>
      </trkpt>
      <trkpt lat="-21.34116" lon="55.72119">
        <ele>599.2</ele>
        <time>2013-03-25T04:05:04Z</time>
      </trkpt>
      <trkpt lat="-21.34122" lon="55.72105">
        <ele>602</ele>
        <time>2013-03-25T04:05:19Z</time>
      </trkpt>
      <trkpt lat="-21.34127" lon="55.72097">
        <ele>601.8</ele>
        <time>2013-03-25T04:05:24Z</time>
      </trkpt>
      <trkpt lat="-21.34128" lon="55.72088">
        <ele>601.7</ele>
        <time>2013-03-25T04:05:30Z</time>
      </trkpt>
      <trkpt lat="-21.34128" lon="55.72079">
        <ele>601.8</ele>
        <time>2013-03-25T04:05:35Z</time>
      </trkpt>
      <trkpt lat="-21.34131" lon="55.72071">
        <ele>601.3</ele>
        <time>2013-03-25T04:05:40Z</time>
      </trkpt>
      <trkpt lat="-21.34132" lon="55.72062">
        <ele>601.4</ele>
        <time>2013-03-25T04:05:45Z</time>
      </trkpt>
      <trkpt lat="-21.34134" lon="55.72053">
        <ele>601.5</ele>
        <time>2013-03-25T04:05:52Z</time>
      </trkpt>
      <trkpt lat="-21.34138" lon="55.72045">
        <ele>602.6</ele>
        <time>2013-03-25T04:05:58Z</time>
      </trkpt>
      <trkpt lat="-21.34143" lon="55.72037">
        <ele>603.8</ele>
        <time>2013-03-25T04:06:03Z</time>
      </trkpt>
      <trkpt lat="-21.34141" lon="55.72028">
        <ele>605.3</ele>
        <time>2013-03-25T04:06:09Z</time>
      </trkpt>
      <trkpt lat="-21.34141" lon="55.72027">
        <ele>605.5</ele>
        <time>2013-03-25T04:06:10Z</time>
      </trkpt>
      <trkpt lat="-21.34142" lon="55.7201">
        <ele>605.9</ele>
        <time>2013-03-25T04:06:20Z</time>
      </trkpt>
      <trkpt lat="-21.34143" lon="55.72">
        <ele>607.2</ele>
        <time>2013-03-25T04:06:27Z</time>
      </trkpt>
      <trkpt lat="-21.34143" lon="55.71991">
        <ele>608.3</ele>
        <time>2013-03-25T04:06:35Z</time>
      </trkpt>
      <trkpt lat="-21.34139" lon="55.71982">
        <ele>609.2</ele>
        <time>2013-03-25T04:06:44Z</time>
      </trkpt>
      <trkpt lat="-21.34133" lon="55.71976">
        <ele>609.9</ele>
        <time>2013-03-25T04:06:50Z</time>
      </trkpt>
      <trkpt lat="-21.34128" lon="55.71968">
        <ele>610.9</ele>
        <time>2013-03-25T04:06:56Z</time>
      </trkpt>
      <trkpt lat="-21.34122" lon="55.71962">
        <ele>611.2</ele>
        <time>2013-03-25T04:07:02Z</time>
      </trkpt>
      <trkpt lat="-21.34118" lon="55.71954">
        <ele>611.7</ele>
        <time>2013-03-25T04:07:08Z</time>
      </trkpt>
      <trkpt lat="-21.34115" lon="55.71945">
        <ele>612</ele>
        <time>2013-03-25T04:07:13Z</time>
      </trkpt>
      <trkpt lat="-21.34114" lon="55.71943">
        <ele>612.1</ele>
        <time>2013-03-25T04:07:14Z</time>
      </trkpt>
      <trkpt lat="-21.34117" lon="55.71928">
        <ele>613.5</ele>
        <time>2013-03-25T04:07:24Z</time>
      </trkpt>
      <trkpt lat="-21.34116" lon="55.71919">
        <ele>614.3</ele>
        <time>2013-03-25T04:07:30Z</time>
      </trkpt>
      <trkpt lat="-21.34111" lon="55.71912">
        <ele>613.8</ele>
        <time>2013-03-25T04:07:34Z</time>
      </trkpt>
      <trkpt lat="-21.3411" lon="55.71904">
        <ele>614.4</ele>
        <time>2013-03-25T04:07:39Z</time>
      </trkpt>
      <trkpt lat="-21.3411" lon="55.71894">
        <ele>614.5</ele>
        <time>2013-03-25T04:07:45Z</time>
      </trkpt>
      <trkpt lat="-21.34111" lon="55.71885">
        <ele>615.4</ele>
        <time>2013-03-25T04:07:52Z</time>
      </trkpt>
      <trkpt lat="-21.34111" lon="55.71876">
        <ele>615.4</ele>
        <time>2013-03-25T04:07:58Z</time>
      </trkpt>
      <trkpt lat="-21.34111" lon="55.71867">
        <ele>616.4</ele>
        <time>2013-03-25T04:08:04Z</time>
      </trkpt>
      <trkpt lat="-21.3411" lon="55.71858">
        <ele>615.8</ele>
        <time>2013-03-25T04:08:11Z</time>
      </trkpt>
      <trkpt lat="-21.34111" lon="55.71849">
        <ele>617.4</ele>
        <time>2013-03-25T04:08:17Z</time>
      </trkpt>
      <trkpt lat="-21.34112" lon="55.71848">
        <ele>617.6</ele>
        <time>2013-03-25T04:08:18Z</time>
      </trkpt>
      <trkpt lat="-21.34118" lon="55.71834">
        <ele>618.5</ele>
        <time>2013-03-25T04:08:29Z</time>
      </trkpt>
      <trkpt lat="-21.34119" lon="55.71824">
        <ele>618.9</ele>
        <time>2013-03-25T04:08:37Z</time>
      </trkpt>
      <trkpt lat="-21.34119" lon="55.71816">
        <ele>620.7</ele>
        <time>2013-03-25T04:08:42Z</time>
      </trkpt>
      <trkpt lat="-21.34121" lon="55.71807">
        <ele>621.4</ele>
        <time>2013-03-25T04:08:49Z</time>
      </trkpt>
      <trkpt lat="-21.34121" lon="55.71798">
        <ele>621.7</ele>
        <time>2013-03-25T04:08:56Z</time>
      </trkpt>
      <trkpt lat="-21.3412" lon="55.71789">
        <ele>622.4</ele>
        <time>2013-03-25T04:09:02Z</time>
      </trkpt>
      <trkpt lat="-21.34118" lon="55.71781">
        <ele>623.7</ele>
        <time>2013-03-25T04:09:08Z</time>
      </trkpt>
      <trkpt lat="-21.34113" lon="55.71774">
        <ele>623.9</ele>
        <time>2013-03-25T04:09:15Z</time>
      </trkpt>
      <trkpt lat="-21.34113" lon="55.71764">
        <ele>625</ele>
        <time>2013-03-25T04:09:21Z</time>
      </trkpt>
      <trkpt lat="-21.34113" lon="55.71763">
        <ele>625.1</ele>
        <time>2013-03-25T04:09:22Z</time>
      </trkpt>
      <trkpt lat="-21.34114" lon="55.71746">
        <ele>626.8</ele>
        <time>2013-03-25T04:09:35Z</time>
      </trkpt>
      <trkpt lat="-21.3411" lon="55.71738">
        <ele>627.5</ele>
        <time>2013-03-25T04:09:41Z</time>
      </trkpt>
      <trkpt lat="-21.34104" lon="55.71734">
        <ele>627.3</ele>
        <time>2013-03-25T04:09:45Z</time>
      </trkpt>
      <trkpt lat="-21.34097" lon="55.71728">
        <ele>627.6</ele>
        <time>2013-03-25T04:09:50Z</time>
      </trkpt>
      <trkpt lat="-21.34094" lon="55.7172">
        <ele>629</ele>
        <time>2013-03-25T04:09:56Z</time>
      </trkpt>
      <trkpt lat="-21.34089" lon="55.71709">
        <ele>630</ele>
        <time>2013-03-25T04:10:05Z</time>
      </trkpt>
      <trkpt lat="-21.34088" lon="55.717">
        <ele>630.8</ele>
        <time>2013-03-25T04:10:12Z</time>
      </trkpt>
      <trkpt lat="-21.34089" lon="55.71691">
        <ele>630.6</ele>
        <time>2013-03-25T04:10:18Z</time>
      </trkpt>
      <trkpt lat="-21.3409" lon="55.71683">
        <ele>629.9</ele>
        <time>2013-03-25T04:10:22Z</time>
      </trkpt>
      <trkpt lat="-21.3409" lon="55.71681">
        <ele>629.3</ele>
        <time>2013-03-25T04:10:23Z</time>
      </trkpt>
      <trkpt lat="-21.34086" lon="55.7166">
        <ele>630</ele>
        <time>2013-03-25T04:10:34Z</time>
      </trkpt>
      <trkpt lat="-21.34086" lon="55.71652">
        <ele>631.1</ele>
        <time>2013-03-25T04:10:39Z</time>
      </trkpt>
      <trkpt lat="-21.34088" lon="55.71643">
        <ele>631.9</ele>
        <time>2013-03-25T04:10:44Z</time>
      </trkpt>
      <trkpt lat="-21.34091" lon="55.71636">
        <ele>632.5</ele>
        <time>2013-03-25T04:10:49Z</time>
      </trkpt>
      <trkpt lat="-21.34091" lon="55.71627">
        <ele>633.2</ele>
        <time>2013-03-25T04:10:55Z</time>
      </trkpt>
      <trkpt lat="-21.34092" lon="55.71618">
        <ele>634.7</ele>
        <time>2013-03-25T04:11:01Z</time>
      </trkpt>
      <trkpt lat="-21.34095" lon="55.71609">
        <ele>635</ele>
        <time>2013-03-25T04:11:08Z</time>
      </trkpt>
      <trkpt lat="-21.34097" lon="55.716">
        <ele>635.2</ele>
        <time>2013-03-25T04:11:14Z</time>
      </trkpt>
      <trkpt lat="-21.34099" lon="55.71591">
        <ele>637</ele>
        <time>2013-03-25T04:11:21Z</time>
      </trkpt>
      <trkpt lat="-21.34098" lon="55.71582">
        <ele>638.1</ele>
        <time>2013-03-25T04:11:28Z</time>
      </trkpt>
      <trkpt lat="-21.34098" lon="55.7158">
        <ele>638.2</ele>
        <time>2013-03-25T04:11:29Z</time>
      </trkpt>
      <trkpt lat="-21.3409" lon="55.71566">
        <ele>639.2</ele>
        <time>2013-03-25T04:11:40Z</time>
      </trkpt>
      <trkpt lat="-21.34088" lon="55.71557">
        <ele>638.9</ele>
        <time>2013-03-25T04:11:46Z</time>
      </trkpt>
      <trkpt lat="-21.34082" lon="55.71552">
        <ele>639.5</ele>
        <time>2013-03-25T04:11:51Z</time>
      </trkpt>
      <trkpt lat="-21.34079" lon="55.71544">
        <ele>641</ele>
        <time>2013-03-25T04:11:57Z</time>
      </trkpt>
      <trkpt lat="-21.34081" lon="55.71535">
        <ele>642</ele>
        <time>2013-03-25T04:12:04Z</time>
      </trkpt>
      <trkpt lat="-21.34083" lon="55.71527">
        <ele>642</ele>
        <time>2013-03-25T04:12:10Z</time>
      </trkpt>
      <trkpt lat="-21.34084" lon="55.71517">
        <ele>642.7</ele>
        <time>2013-03-25T04:12:17Z</time>
      </trkpt>
      <trkpt lat="-21.34084" lon="55.71509">
        <ele>643.2</ele>
        <time>2013-03-25T04:12:23Z</time>
      </trkpt>
      <trkpt lat="-21.34083" lon="55.715">
        <ele>643.8</ele>
        <time>2013-03-25T04:12:30Z</time>
      </trkpt>
      <trkpt lat="-21.34082" lon="55.71498">
        <ele>643.9</ele>
        <time>2013-03-25T04:12:31Z</time>
      </trkpt>
      <trkpt lat="-21.34077" lon="55.71484">
        <ele>644.8</ele>
        <time>2013-03-25T04:12:39Z</time>
      </trkpt>
      <trkpt lat="-21.34075" lon="55.71476">
        <ele>645.5</ele>
        <time>2013-03-25T04:12:44Z</time>
      </trkpt>
      <trkpt lat="-21.34074" lon="55.71467">
        <ele>646</ele>
        <time>2013-03-25T04:12:50Z</time>
      </trkpt>
      <trkpt lat="-21.34074" lon="55.71457">
        <ele>645.9</ele>
        <time>2013-03-25T04:12:56Z</time>
      </trkpt>
      <trkpt lat="-21.34076" lon="55.71448">
        <ele>646</ele>
        <time>2013-03-25T04:13:02Z</time>
      </trkpt>
      <trkpt lat="-21.34076" lon="55.7144">
        <ele>645.6</ele>
        <time>2013-03-25T04:13:08Z</time>
      </trkpt>
      <trkpt lat="-21.34074" lon="55.7143">
        <ele>645.6</ele>
        <time>2013-03-25T04:13:14Z</time>
      </trkpt>
      <trkpt lat="-21.34073" lon="55.71422">
        <ele>646.5</ele>
        <time>2013-03-25T04:13:19Z</time>
      </trkpt>
      <trkpt lat="-21.34072" lon="55.71413">
        <ele>646.6</ele>
        <time>2013-03-25T04:13:24Z</time>
      </trkpt>
      <trkpt lat="-21.34072" lon="55.71405">
        <ele>645.9</ele>
        <time>2013-03-25T04:13:29Z</time>
      </trkpt>
      <trkpt lat="-21.34072" lon="55.71396">
        <ele>646.3</ele>
        <time>2013-03-25T04:13:34Z</time>
      </trkpt>
      <trkpt lat="-21.34072" lon="55.71395">
        <ele>646.3</ele>
        <time>2013-03-25T04:13:35Z</time>
      </trkpt>
      <trkpt lat="-21.34077" lon="55.71379">
        <ele>647.5</ele>
        <time>2013-03-25T04:13:46Z</time>
      </trkpt>
      <trkpt lat="-21.34078" lon="55.7137">
        <ele>648.2</ele>
        <time>2013-03-25T04:13:52Z</time>
      </trkpt>
      <trkpt lat="-21.34082" lon="55.71363">
        <ele>647.6</ele>
        <time>2013-03-25T04:13:59Z</time>
      </trkpt>
      <trkpt lat="-21.34084" lon="55.71354">
        <ele>647.7</ele>
        <time>2013-03-25T04:14:06Z</time>
      </trkpt>
      <trkpt lat="-21.34087" lon="55.71346">
        <ele>648.3</ele>
        <time>2013-03-25T04:14:11Z</time>
      </trkpt>
      <trkpt lat="-21.34093" lon="55.71337">
        <ele>648.3</ele>
        <time>2013-03-25T04:14:17Z</time>
      </trkpt>
      <trkpt lat="-21.34096" lon="55.71328">
        <ele>648.7</ele>
        <time>2013-03-25T04:14:24Z</time>
      </trkpt>
      <trkpt lat="-21.34097" lon="55.71319">
        <ele>648.6</ele>
        <time>2013-03-25T04:14:30Z</time>
      </trkpt>
      <trkpt lat="-21.34095" lon="55.71312">
        <ele>649.1</ele>
        <time>2013-03-25T04:14:35Z</time>
      </trkpt>
      <trkpt lat="-21.34094" lon="55.7131">
        <ele>649</ele>
        <time>2013-03-25T04:14:36Z</time>
      </trkpt>
      <trkpt lat="-21.34088" lon="55.71298">
        <ele>648.5</ele>
        <time>2013-03-25T04:14:44Z</time>
      </trkpt>
      <trkpt lat="-21.34086" lon="55.7129">
        <ele>648.9</ele>
        <time>2013-03-25T04:14:49Z</time>
      </trkpt>
      <trkpt lat="-21.34081" lon="55.71282">
        <ele>649.1</ele>
        <time>2013-03-25T04:14:53Z</time>
      </trkpt>
      <trkpt lat="-21.34076" lon="55.71276">
        <ele>650</ele>
        <time>2013-03-25T04:14:57Z</time>
      </trkpt>
      <trkpt lat="-21.34069" lon="55.71273">
        <ele>651.3</ele>
        <time>2013-03-25T04:15:01Z</time>
      </trkpt>
      <trkpt lat="-21.34064" lon="55.71266">
        <ele>652.1</ele>
        <time>2013-03-25T04:15:05Z</time>
      </trkpt>
      <trkpt lat="-21.34057" lon="55.71259">
        <ele>652.6</ele>
        <time>2013-03-25T04:15:10Z</time>
      </trkpt>
      <trkpt lat="-21.34052" lon="55.71253">
        <ele>653.5</ele>
        <time>2013-03-25T04:15:15Z</time>
      </trkpt>
      <trkpt lat="-21.34052" lon="55.71244">
        <ele>654</ele>
        <time>2013-03-25T04:15:22Z</time>
      </trkpt>
      <trkpt lat="-21.34056" lon="55.71237">
        <ele>653.7</ele>
        <time>2013-03-25T04:15:26Z</time>
      </trkpt>
      <trkpt lat="-21.34062" lon="55.71231">
        <ele>653.6</ele>
        <time>2013-03-25T04:15:30Z</time>
      </trkpt>
      <trkpt lat="-21.34067" lon="55.71225">
        <ele>654</ele>
        <time>2013-03-25T04:15:39Z</time>
      </trkpt>
      <trkpt lat="-21.34068" lon="55.71224">
        <ele>653.9</ele>
        <time>2013-03-25T04:15:40Z</time>
      </trkpt>
      <trkpt lat="-21.34075" lon="55.71211">
        <ele>654.5</ele>
        <time>2013-03-25T04:15:49Z</time>
      </trkpt>
      <trkpt lat="-21.34074" lon="55.71202">
        <ele>653.8</ele>
        <time>2013-03-25T04:15:54Z</time>
      </trkpt>
      <trkpt lat="-21.34074" lon="55.71193">
        <ele>653.7</ele>
        <time>2013-03-25T04:16:00Z</time>
      </trkpt>
      <trkpt lat="-21.34076" lon="55.71184">
        <ele>654.5</ele>
        <time>2013-03-25T04:16:06Z</time>
      </trkpt>
      <trkpt lat="-21.34076" lon="55.71175">
        <ele>654.8</ele>
        <time>2013-03-25T04:16:12Z</time>
      </trkpt>
      <trkpt lat="-21.34076" lon="55.71166">
        <ele>654.6</ele>
        <time>2013-03-25T04:16:18Z</time>
      </trkpt>
      <trkpt lat="-21.34072" lon="55.71157">
        <ele>654.6</ele>
        <time>2013-03-25T04:16:23Z</time>
      </trkpt>
      <trkpt lat="-21.34071" lon="55.71148">
        <ele>654.9</ele>
        <time>2013-03-25T04:16:28Z</time>
      </trkpt>
      <trkpt lat="-21.34069" lon="55.7114">
        <ele>654.9</ele>
        <time>2013-03-25T04:16:33Z</time>
      </trkpt>
      <trkpt lat="-21.34069" lon="55.71133">
        <ele>655.2</ele>
        <time>2013-03-25T04:16:37Z</time>
      </trkpt>
      <trkpt lat="-21.3407" lon="55.71124">
        <ele>655.2</ele>
        <time>2013-03-25T04:16:41Z</time>
      </trkpt>
      <trkpt lat="-21.3407" lon="55.71123">
        <ele>655.3</ele>
        <time>2013-03-25T04:16:42Z</time>
      </trkpt>
      <trkpt lat="-21.34076" lon="55.71105">
        <ele>654.9</ele>
        <time>2013-03-25T04:16:52Z</time>
      </trkpt>
      <trkpt lat="-21.34076" lon="55.71096">
        <ele>655.3</ele>
        <time>2013-03-25T04:16:58Z</time>
      </trkpt>
      <trkpt lat="-21.34078" lon="55.71088">
        <ele>655.1</ele>
        <time>2013-03-25T04:17:03Z</time>
      </trkpt>
      <trkpt lat="-21.34076" lon="55.71078">
        <ele>654.8</ele>
        <time>2013-03-25T04:17:08Z</time>
      </trkpt>
      <trkpt lat="-21.34076" lon="55.7107">
        <ele>654.3</ele>
        <time>2013-03-25T04:17:12Z</time>
      </trkpt>
      <trkpt lat="-21.34074" lon="55.71063">
        <ele>655.1</ele>
        <time>2013-03-25T04:17:16Z</time>
      </trkpt>
      <trkpt lat="-21.34073" lon="55.71054">
        <ele>655.6</ele>
        <time>2013-03-25T04:17:21Z</time>
      </trkpt>
      <trkpt lat="-21.34074" lon="55.71046">
        <ele>655.9</ele>
        <time>2013-03-25T04:17:25Z</time>
      </trkpt>
      <trkpt lat="-21.34074" lon="55.71037">
        <ele>656</ele>
        <time>2013-03-25T04:17:31Z</time>
      </trkpt>
      <trkpt lat="-21.3407" lon="55.71029">
        <ele>657.1</ele>
        <time>2013-03-25T04:17:37Z</time>
      </trkpt>
      <trkpt lat="-21.34067" lon="55.71021">
        <ele>657.8</ele>
        <time>2013-03-25T04:17:43Z</time>
      </trkpt>
      <trkpt lat="-21.34067" lon="55.7102">
        <ele>657.9</ele>
        <time>2013-03-25T04:17:44Z</time>
      </trkpt>
      <trkpt lat="-21.34067" lon="55.71003">
        <ele>659</ele>
        <time>2013-03-25T04:18:00Z</time>
      </trkpt>
      <trkpt lat="-21.34067" lon="55.70994">
        <ele>660.1</ele>
        <time>2013-03-25T04:18:06Z</time>
      </trkpt>
      <trkpt lat="-21.34069" lon="55.70985">
        <ele>660</ele>
        <time>2013-03-25T04:18:11Z</time>
      </trkpt>
      <trkpt lat="-21.3407" lon="55.70977">
        <ele>660.1</ele>
        <time>2013-03-25T04:18:16Z</time>
      </trkpt>
      <trkpt lat="-21.3407" lon="55.70969">
        <ele>661.4</ele>
        <time>2013-03-25T04:18:21Z</time>
      </trkpt>
      <trkpt lat="-21.34068" lon="55.70961">
        <ele>660.6</ele>
        <time>2013-03-25T04:18:26Z</time>
      </trkpt>
      <trkpt lat="-21.34069" lon="55.70954">
        <ele>660.7</ele>
        <time>2013-03-25T04:18:30Z</time>
      </trkpt>
      <trkpt lat="-21.3407" lon="55.70945">
        <ele>661</ele>
        <time>2013-03-25T04:18:35Z</time>
      </trkpt>
      <trkpt lat="-21.34073" lon="55.70936">
        <ele>661.4</ele>
        <time>2013-03-25T04:18:41Z</time>
      </trkpt>
      <trkpt lat="-21.34078" lon="55.70929">
        <ele>661.6</ele>
        <time>2013-03-25T04:18:46Z</time>
      </trkpt>
      <trkpt lat="-21.34079" lon="55.70927">
        <ele>661.6</ele>
        <time>2013-03-25T04:18:47Z</time>
      </trkpt>
      <trkpt lat="-21.34088" lon="55.70915">
        <ele>660.7</ele>
        <time>2013-03-25T04:18:57Z</time>
      </trkpt>
      <trkpt lat="-21.34091" lon="55.70906">
        <ele>661</ele>
        <time>2013-03-25T04:19:04Z</time>
      </trkpt>
      <trkpt lat="-21.34091" lon="55.70898">
        <ele>660.9</ele>
        <time>2013-03-25T04:19:44Z</time>
      </trkpt>
      <trkpt lat="-21.34089" lon="55.70889">
        <ele>661.4</ele>
        <time>2013-03-25T04:19:50Z</time>
      </trkpt>
      <trkpt lat="-21.34089" lon="55.70888">
        <ele>661.3</ele>
        <time>2013-03-25T04:19:51Z</time>
      </trkpt>
      <trkpt lat="-21.34085" lon="55.70872">
        <ele>662</ele>
        <time>2013-03-25T04:20:01Z</time>
      </trkpt>
      <trkpt lat="-21.34084" lon="55.70863">
        <ele>662.5</ele>
        <time>2013-03-25T04:20:07Z</time>
      </trkpt>
      <trkpt lat="-21.34082" lon="55.70855">
        <ele>662.9</ele>
        <time>2013-03-25T04:20:13Z</time>
      </trkpt>
      <trkpt lat="-21.34081" lon="55.70847">
        <ele>663</ele>
        <time>2013-03-25T04:20:19Z</time>
      </trkpt>
      <trkpt lat="-21.34081" lon="55.70837">
        <ele>663.2</ele>
        <time>2013-03-25T04:20:25Z</time>
      </trkpt>
      <trkpt lat="-21.34079" lon="55.70829">
        <ele>663.9</ele>
        <time>2013-03-25T04:20:31Z</time>
      </trkpt>
      <trkpt lat="-21.34072" lon="55.70824">
        <ele>664</ele>
        <time>2013-03-25T04:20:38Z</time>
      </trkpt>
      <trkpt lat="-21.34068" lon="55.70814">
        <ele>663</ele>
        <time>2013-03-25T04:20:45Z</time>
      </trkpt>
      <trkpt lat="-21.34066" lon="55.70805">
        <ele>665</ele>
        <time>2013-03-25T04:20:53Z</time>
      </trkpt>
      <trkpt lat="-21.34065" lon="55.70804">
        <ele>665</ele>
        <time>2013-03-25T04:20:54Z</time>
      </trkpt>
      <trkpt lat="-21.34059" lon="55.70789">
        <ele>665.6</ele>
        <time>2013-03-25T04:21:05Z</time>
      </trkpt>
      <trkpt lat="-21.34054" lon="55.70781">
        <ele>665.1</ele>
        <time>2013-03-25T04:21:11Z</time>
      </trkpt>
      <trkpt lat="-21.34051" lon="55.70773">
        <ele>665.4</ele>
        <time>2013-03-25T04:21:17Z</time>
      </trkpt>
      <trkpt lat="-21.3405" lon="55.70766">
        <ele>666.1</ele>
        <time>2013-03-25T04:21:21Z</time>
      </trkpt>
      <trkpt lat="-21.34052" lon="55.70757">
        <ele>665.2</ele>
        <time>2013-03-25T04:21:25Z</time>
      </trkpt>
      <trkpt lat="-21.34051" lon="55.70748">
        <ele>666</ele>
        <time>2013-03-25T04:21:30Z</time>
      </trkpt>
      <trkpt lat="-21.34049" lon="55.70741">
        <ele>666.8</ele>
        <time>2013-03-25T04:21:35Z</time>
      </trkpt>
      <trkpt lat="-21.34046" lon="55.70732">
        <ele>667</ele>
        <time>2013-03-25T04:21:40Z</time>
      </trkpt>
      <trkpt lat="-21.34041" lon="55.70724">
        <ele>667.1</ele>
        <time>2013-03-25T04:21:45Z</time>
      </trkpt>
      <trkpt lat="-21.34036" lon="55.70717">
        <ele>667.2</ele>
        <time>2013-03-25T04:21:50Z</time>
      </trkpt>
      <trkpt lat="-21.3403" lon="55.7071">
        <ele>667.6</ele>
        <time>2013-03-25T04:21:55Z</time>
      </trkpt>
      <trkpt lat="-21.34029" lon="55.70709">
        <ele>667.7</ele>
        <time>2013-03-25T04:21:56Z</time>
      </trkpt>
      <trkpt lat="-21.34018" lon="55.70699">
        <ele>667.8</ele>
        <time>2013-03-25T04:22:04Z</time>
      </trkpt>
      <trkpt lat="-21.34013" lon="55.70694">
        <ele>667.9</ele>
        <time>2013-03-25T04:22:08Z</time>
      </trkpt>
      <trkpt lat="-21.34009" lon="55.70687">
        <ele>668.2</ele>
        <time>2013-03-25T04:22:12Z</time>
      </trkpt>
      <trkpt lat="-21.34007" lon="55.70678">
        <ele>668.5</ele>
        <time>2013-03-25T04:22:17Z</time>
      </trkpt>
      <trkpt lat="-21.34005" lon="55.70669">
        <ele>668.4</ele>
        <time>2013-03-25T04:22:23Z</time>
      </trkpt>
      <trkpt lat="-21.34005" lon="55.7066">
        <ele>668.7</ele>
        <time>2013-03-25T04:22:31Z</time>
      </trkpt>
      <trkpt lat="-21.34003" lon="55.70651">
        <ele>668.8</ele>
        <time>2013-03-25T04:22:39Z</time>
      </trkpt>
      <trkpt lat="-21.33996" lon="55.70644">
        <ele>670.5</ele>
        <time>2013-03-25T04:22:48Z</time>
      </trkpt>
      <trkpt lat="-21.33989" lon="55.70639">
        <ele>673.1</ele>
        <time>2013-03-25T04:22:57Z</time>
      </trkpt>
      <trkpt lat="-21.33989" lon="55.70639">
        <ele>673.1</ele>
        <time>2013-03-25T04:22:58Z</time>
      </trkpt>
      <trkpt lat="-21.33986" lon="55.70636">
        <ele>674</ele>
        <time>2013-03-25T04:23:05Z</time>
      </trkpt>
      <trkpt lat="-21.33986" lon="55.70636">
        <ele>674</ele>
        <time>2013-03-25T04:23:05Z</time>
      </trkpt>
      <trkpt lat="-21.33985" lon="55.70635">
        <ele>674.2</ele>
        <time>2013-03-25T04:23:08Z</time>
      </trkpt>
      <trkpt lat="-21.33972" lon="55.70638">
        <ele>675</ele>
        <time>2013-03-25T04:27:08Z</time>
      </trkpt>
      <trkpt lat="-21.33968" lon="55.70631">
        <ele>677.2</ele>
        <time>2013-03-25T04:27:38Z</time>
      </trkpt>
      <trkpt lat="-21.33963" lon="55.70623">
        <ele>681.9</ele>
        <time>2013-03-25T04:27:56Z</time>
      </trkpt>
      <trkpt lat="-21.33955" lon="55.7062">
        <ele>684.1</ele>
        <time>2013-03-25T04:28:09Z</time>
      </trkpt>
      <trkpt lat="-21.33949" lon="55.70614">
        <ele>685.5</ele>
        <time>2013-03-25T04:28:21Z</time>
      </trkpt>
      <trkpt lat="-21.33944" lon="55.70607">
        <ele>686.7</ele>
        <time>2013-03-25T04:28:28Z</time>
      </trkpt>
      <trkpt lat="-21.33935" lon="55.7061">
        <ele>690.5</ele>
        <time>2013-03-25T04:28:40Z</time>
      </trkpt>
      <trkpt lat="-21.33926" lon="55.70613">
        <ele>692.1</ele>
        <time>2013-03-25T04:28:50Z</time>
      </trkpt>
      <trkpt lat="-21.33919" lon="55.70618">
        <ele>694.6</ele>
        <time>2013-03-25T04:29:04Z</time>
      </trkpt>
      <trkpt lat="-21.33911" lon="55.70617">
        <ele>697.7</ele>
        <time>2013-03-25T04:29:20Z</time>
      </trkpt>
      <trkpt lat="-21.33904" lon="55.70613">
        <ele>698.9</ele>
        <time>2013-03-25T04:29:29Z</time>
      </trkpt>
      <trkpt lat="-21.33896" lon="55.70609">
        <ele>700.6</ele>
        <time>2013-03-25T04:29:38Z</time>
      </trkpt>
      <trkpt lat="-21.33887" lon="55.70608">
        <ele>703.1</ele>
        <time>2013-03-25T04:29:48Z</time>
      </trkpt>
      <trkpt lat="-21.33879" lon="55.70608">
        <ele>705.4</ele>
        <time>2013-03-25T04:29:57Z</time>
      </trkpt>
      <trkpt lat="-21.33872" lon="55.70604">
        <ele>705.8</ele>
        <time>2013-03-25T04:30:04Z</time>
      </trkpt>
      <trkpt lat="-21.33863" lon="55.70607">
        <ele>707.8</ele>
        <time>2013-03-25T04:30:14Z</time>
      </trkpt>
      <trkpt lat="-21.33855" lon="55.70605">
        <ele>710.3</ele>
        <time>2013-03-25T04:30:21Z</time>
      </trkpt>
      <trkpt lat="-21.33848" lon="55.706">
        <ele>711.6</ele>
        <time>2013-03-25T04:30:32Z</time>
      </trkpt>
      <trkpt lat="-21.3384" lon="55.70604">
        <ele>713.4</ele>
        <time>2013-03-25T04:30:40Z</time>
      </trkpt>
      <trkpt lat="-21.33833" lon="55.70608">
        <ele>715.3</ele>
        <time>2013-03-25T04:30:49Z</time>
      </trkpt>
      <trkpt lat="-21.33825" lon="55.70612">
        <ele>718.2</ele>
        <time>2013-03-25T04:31:01Z</time>
      </trkpt>
      <trkpt lat="-21.33816" lon="55.70612">
        <ele>720.7</ele>
        <time>2013-03-25T04:31:14Z</time>
      </trkpt>
      <trkpt lat="-21.33808" lon="55.7061">
        <ele>725.1</ele>
        <time>2013-03-25T04:31:33Z</time>
      </trkpt>
      <trkpt lat="-21.33799" lon="55.7061">
        <ele>732.6</ele>
        <time>2013-03-25T04:31:58Z</time>
      </trkpt>
      <trkpt lat="-21.33791" lon="55.70613">
        <ele>734.3</ele>
        <time>2013-03-25T04:32:13Z</time>
      </trkpt>
      <trkpt lat="-21.33785" lon="55.7062">
        <ele>735.4</ele>
        <time>2013-03-25T04:32:21Z</time>
      </trkpt>
      <trkpt lat="-21.33778" lon="55.70624">
        <ele>738.5</ele>
        <time>2013-03-25T04:32:35Z</time>
      </trkpt>
      <trkpt lat="-21.33773" lon="55.70631">
        <ele>740.3</ele>
        <time>2013-03-25T04:32:46Z</time>
      </trkpt>
      <trkpt lat="-21.3377" lon="55.70639">
        <ele>743.3</ele>
        <time>2013-03-25T04:32:56Z</time>
      </trkpt>
      <trkpt lat="-21.33765" lon="55.70647">
        <ele>745.8</ele>
        <time>2013-03-25T04:33:09Z</time>
      </trkpt>
      <trkpt lat="-21.3376" lon="55.70655">
        <ele>748.8</ele>
        <time>2013-03-25T04:33:27Z</time>
      </trkpt>
      <trkpt lat="-21.33758" lon="55.70664">
        <ele>750.8</ele>
        <time>2013-03-25T04:33:36Z</time>
      </trkpt>
      <trkpt lat="-21.33751" lon="55.70669">
        <ele>754</ele>
        <time>2013-03-25T04:33:48Z</time>
      </trkpt>
      <trkpt lat="-21.33743" lon="55.70667">
        <ele>757.6</ele>
        <time>2013-03-25T04:34:05Z</time>
      </trkpt>
      <trkpt lat="-21.33735" lon="55.70667">
        <ele>759</ele>
        <time>2013-03-25T04:34:13Z</time>
      </trkpt>
      <trkpt lat="-21.33726" lon="55.70664">
        <ele>760.8</ele>
        <time>2013-03-25T04:34:26Z</time>
      </trkpt>
      <trkpt lat="-21.33717" lon="55.70663">
        <ele>763.2</ele>
        <time>2013-03-25T04:34:44Z</time>
      </trkpt>
      <trkpt lat="-21.33709" lon="55.70661">
        <ele>764.9</ele>
        <time>2013-03-25T04:34:56Z</time>
      </trkpt>
      <trkpt lat="-21.33701" lon="55.70661">
        <ele>765.7</ele>
        <time>2013-03-25T04:35:05Z</time>
      </trkpt>
      <trkpt lat="-21.33692" lon="55.70661">
        <ele>769.1</ele>
        <time>2013-03-25T04:35:23Z</time>
      </trkpt>
      <trkpt lat="-21.33684" lon="55.7066">
        <ele>772.5</ele>
        <time>2013-03-25T04:35:36Z</time>
      </trkpt>
      <trkpt lat="-21.33675" lon="55.70657">
        <ele>775.5</ele>
        <time>2013-03-25T04:35:50Z</time>
      </trkpt>
      <trkpt lat="-21.33669" lon="55.70651">
        <ele>776.9</ele>
        <time>2013-03-25T04:36:01Z</time>
      </trkpt>
      <trkpt lat="-21.33664" lon="55.70644">
        <ele>778.5</ele>
        <time>2013-03-25T04:36:10Z</time>
      </trkpt>
      <trkpt lat="-21.33656" lon="55.70644">
        <ele>781.3</ele>
        <time>2013-03-25T04:36:23Z</time>
      </trkpt>
      <trkpt lat="-21.33648" lon="55.70643">
        <ele>782.4</ele>
        <time>2013-03-25T04:36:30Z</time>
      </trkpt>
      <trkpt lat="-21.3364" lon="55.70646">
        <ele>783.2</ele>
        <time>2013-03-25T04:36:36Z</time>
      </trkpt>
      <trkpt lat="-21.33633" lon="55.70639">
        <ele>784.8</ele>
        <time>2013-03-25T04:36:49Z</time>
      </trkpt>
      <trkpt lat="-21.33625" lon="55.70637">
        <ele>786.1</ele>
        <time>2013-03-25T04:37:03Z</time>
      </trkpt>
      <trkpt lat="-21.33616" lon="55.70636">
        <ele>787.7</ele>
        <time>2013-03-25T04:37:15Z</time>
      </trkpt>
      <trkpt lat="-21.33608" lon="55.70639">
        <ele>789.2</ele>
        <time>2013-03-25T04:37:23Z</time>
      </trkpt>
      <trkpt lat="-21.336" lon="55.70642">
        <ele>792.8</ele>
        <time>2013-03-25T04:37:43Z</time>
      </trkpt>
      <trkpt lat="-21.33592" lon="55.70638">
        <ele>794.7</ele>
        <time>2013-03-25T04:37:55Z</time>
      </trkpt>
      <trkpt lat="-21.33585" lon="55.70633">
        <ele>795.6</ele>
        <time>2013-03-25T04:38:09Z</time>
      </trkpt>
      <trkpt lat="-21.33577" lon="55.70634">
        <ele>796.5</ele>
        <time>2013-03-25T04:38:21Z</time>
      </trkpt>
      <trkpt lat="-21.33569" lon="55.70629">
        <ele>799</ele>
        <time>2013-03-25T04:38:40Z</time>
      </trkpt>
      <trkpt lat="-21.3356" lon="55.70629">
        <ele>801.1</ele>
        <time>2013-03-25T04:38:55Z</time>
      </trkpt>
      <trkpt lat="-21.33553" lon="55.70624">
        <ele>802.5</ele>
        <time>2013-03-25T04:39:03Z</time>
      </trkpt>
      <trkpt lat="-21.33544" lon="55.70621">
        <ele>803.9</ele>
        <time>2013-03-25T04:39:13Z</time>
      </trkpt>
      <trkpt lat="-21.33536" lon="55.70617">
        <ele>804</ele>
        <time>2013-03-25T04:39:20Z</time>
      </trkpt>
      <trkpt lat="-21.33527" lon="55.70616">
        <ele>805.5</ele>
        <time>2013-03-25T04:39:35Z</time>
      </trkpt>
      <trkpt lat="-21.3352" lon="55.70614">
        <ele>808.1</ele>
        <time>2013-03-25T04:39:48Z</time>
      </trkpt>
      <trkpt lat="-21.33511" lon="55.70611">
        <ele>810</ele>
        <time>2013-03-25T04:40:05Z</time>
      </trkpt>
      <trkpt lat="-21.33503" lon="55.70611">
        <ele>810.7</ele>
        <time>2013-03-25T04:40:15Z</time>
      </trkpt>
      <trkpt lat="-21.33494" lon="55.70607">
        <ele>812.2</ele>
        <time>2013-03-25T04:40:23Z</time>
      </trkpt>
      <trkpt lat="-21.33486" lon="55.70603">
        <ele>814</ele>
        <time>2013-03-25T04:40:32Z</time>
      </trkpt>
      <trkpt lat="-21.33481" lon="55.70596">
        <ele>816.8</ele>
        <time>2013-03-25T04:40:49Z</time>
      </trkpt>
      <trkpt lat="-21.33472" lon="55.70593">
        <ele>818.5</ele>
        <time>2013-03-25T04:41:00Z</time>
      </trkpt>
      <trkpt lat="-21.33464" lon="55.70592">
        <ele>820.5</ele>
        <time>2013-03-25T04:41:12Z</time>
      </trkpt>
      <trkpt lat="-21.33455" lon="55.70588">
        <ele>821.3</ele>
        <time>2013-03-25T04:41:20Z</time>
      </trkpt>
      <trkpt lat="-21.33448" lon="55.70586">
        <ele>822.6</ele>
        <time>2013-03-25T04:41:29Z</time>
      </trkpt>
      <trkpt lat="-21.3344" lon="55.70584">
        <ele>823.4</ele>
        <time>2013-03-25T04:41:38Z</time>
      </trkpt>
      <trkpt lat="-21.33434" lon="55.70577">
        <ele>827.5</ele>
        <time>2013-03-25T04:41:57Z</time>
      </trkpt>
      <trkpt lat="-21.33425" lon="55.70575">
        <ele>829.3</ele>
        <time>2013-03-25T04:42:08Z</time>
      </trkpt>
      <trkpt lat="-21.3342" lon="55.70569">
        <ele>831.2</ele>
        <time>2013-03-25T04:42:20Z</time>
      </trkpt>
      <trkpt lat="-21.33414" lon="55.70563">
        <ele>832.9</ele>
        <time>2013-03-25T04:42:28Z</time>
      </trkpt>
      <trkpt lat="-21.33407" lon="55.70559">
        <ele>833</ele>
        <time>2013-03-25T04:42:36Z</time>
      </trkpt>
      <trkpt lat="-21.33398" lon="55.70557">
        <ele>833.7</ele>
        <time>2013-03-25T04:42:44Z</time>
      </trkpt>
      <trkpt lat="-21.3339" lon="55.70556">
        <ele>835</ele>
        <time>2013-03-25T04:42:53Z</time>
      </trkpt>
      <trkpt lat="-21.33381" lon="55.70555">
        <ele>835.7</ele>
        <time>2013-03-25T04:43:01Z</time>
      </trkpt>
      <trkpt lat="-21.33373" lon="55.70555">
        <ele>836.7</ele>
        <time>2013-03-25T04:43:10Z</time>
      </trkpt>
      <trkpt lat="-21.33365" lon="55.70558">
        <ele>838.5</ele>
        <time>2013-03-25T04:43:20Z</time>
      </trkpt>
      <trkpt lat="-21.33358" lon="55.70562">
        <ele>838.6</ele>
        <time>2013-03-25T04:43:27Z</time>
      </trkpt>
      <trkpt lat="-21.33351" lon="55.70557">
        <ele>840.3</ele>
        <time>2013-03-25T04:43:36Z</time>
      </trkpt>
      <trkpt lat="-21.33344" lon="55.70552">
        <ele>842.9</ele>
        <time>2013-03-25T04:43:47Z</time>
      </trkpt>
      <trkpt lat="-21.33337" lon="55.70546">
        <ele>843.9</ele>
        <time>2013-03-25T04:43:56Z</time>
      </trkpt>
      <trkpt lat="-21.3333" lon="55.70541">
        <ele>844.6</ele>
        <time>2013-03-25T04:44:05Z</time>
      </trkpt>
      <trkpt lat="-21.33323" lon="55.7054">
        <ele>845.5</ele>
        <time>2013-03-25T04:44:12Z</time>
      </trkpt>
      <trkpt lat="-21.33314" lon="55.70538">
        <ele>846.3</ele>
        <time>2013-03-25T04:44:19Z</time>
      </trkpt>
      <trkpt lat="-21.33306" lon="55.70539">
        <ele>847.3</ele>
        <time>2013-03-25T04:44:26Z</time>
      </trkpt>
      <trkpt lat="-21.33299" lon="55.70542">
        <ele>849.3</ele>
        <time>2013-03-25T04:44:36Z</time>
      </trkpt>
      <trkpt lat="-21.3329" lon="55.7054">
        <ele>851.1</ele>
        <time>2013-03-25T04:44:47Z</time>
      </trkpt>
      <trkpt lat="-21.33288" lon="55.70531">
        <ele>851.8</ele>
        <time>2013-03-25T04:44:58Z</time>
      </trkpt>
      <trkpt lat="-21.33281" lon="55.70526">
        <ele>854.5</ele>
        <time>2013-03-25T04:45:14Z</time>
      </trkpt>
      <trkpt lat="-21.33274" lon="55.70522">
        <ele>855.5</ele>
        <time>2013-03-25T04:45:23Z</time>
      </trkpt>
      <trkpt lat="-21.33267" lon="55.70517">
        <ele>857</ele>
        <time>2013-03-25T04:45:35Z</time>
      </trkpt>
      <trkpt lat="-21.3326" lon="55.70512">
        <ele>857.6</ele>
        <time>2013-03-25T04:45:46Z</time>
      </trkpt>
      <trkpt lat="-21.33252" lon="55.70509">
        <ele>860</ele>
        <time>2013-03-25T04:45:54Z</time>
      </trkpt>
      <trkpt lat="-21.33246" lon="55.70504">
        <ele>860.5</ele>
        <time>2013-03-25T04:46:00Z</time>
      </trkpt>
      <trkpt lat="-21.33239" lon="55.70498">
        <ele>861.5</ele>
        <time>2013-03-25T04:46:10Z</time>
      </trkpt>
      <trkpt lat="-21.33231" lon="55.70496">
        <ele>864.7</ele>
        <time>2013-03-25T04:46:27Z</time>
      </trkpt>
      <trkpt lat="-21.33225" lon="55.7049">
        <ele>866.2</ele>
        <time>2013-03-25T04:46:35Z</time>
      </trkpt>
      <trkpt lat="-21.33216" lon="55.7049">
        <ele>865.4</ele>
        <time>2013-03-25T04:46:48Z</time>
      </trkpt>
      <trkpt lat="-21.33209" lon="55.70487">
        <ele>866.8</ele>
        <time>2013-03-25T04:46:57Z</time>
      </trkpt>
      <trkpt lat="-21.33201" lon="55.70483">
        <ele>868.7</ele>
        <time>2013-03-25T04:47:06Z</time>
      </trkpt>
      <trkpt lat="-21.33194" lon="55.7048">
        <ele>870.3</ele>
        <time>2013-03-25T04:47:14Z</time>
      </trkpt>
      <trkpt lat="-21.33187" lon="55.70476">
        <ele>870.9</ele>
        <time>2013-03-25T04:47:22Z</time>
      </trkpt>
      <trkpt lat="-21.33184" lon="55.70467">
        <ele>872.3</ele>
        <time>2013-03-25T04:47:28Z</time>
      </trkpt>
      <trkpt lat="-21.33179" lon="55.7046">
        <ele>873.3</ele>
        <time>2013-03-25T04:47:38Z</time>
      </trkpt>
      <trkpt lat="-21.33172" lon="55.70456">
        <ele>874.5</ele>
        <time>2013-03-25T04:47:45Z</time>
      </trkpt>
      <trkpt lat="-21.33163" lon="55.70455">
        <ele>875.3</ele>
        <time>2013-03-25T04:47:53Z</time>
      </trkpt>
      <trkpt lat="-21.33154" lon="55.70455">
        <ele>875.3</ele>
        <time>2013-03-25T04:48:02Z</time>
      </trkpt>
      <trkpt lat="-21.33146" lon="55.70454">
        <ele>876.1</ele>
        <time>2013-03-25T04:48:14Z</time>
      </trkpt>
      <trkpt lat="-21.33138" lon="55.70453">
        <ele>878.7</ele>
        <time>2013-03-25T04:48:29Z</time>
      </trkpt>
      <trkpt lat="-21.33129" lon="55.7045">
        <ele>881.2</ele>
        <time>2013-03-25T04:48:41Z</time>
      </trkpt>
      <trkpt lat="-21.33121" lon="55.70449">
        <ele>881.4</ele>
        <time>2013-03-25T04:48:53Z</time>
      </trkpt>
      <trkpt lat="-21.33114" lon="55.70445">
        <ele>882.1</ele>
        <time>2013-03-25T04:49:01Z</time>
      </trkpt>
      <trkpt lat="-21.33107" lon="55.7044">
        <ele>883.6</ele>
        <time>2013-03-25T04:49:15Z</time>
      </trkpt>
      <trkpt lat="-21.33099" lon="55.70437">
        <ele>884.7</ele>
        <time>2013-03-25T04:49:24Z</time>
      </trkpt>
      <trkpt lat="-21.33092" lon="55.70433">
        <ele>886.5</ele>
        <time>2013-03-25T04:49:33Z</time>
      </trkpt>
      <trkpt lat="-21.33084" lon="55.7043">
        <ele>887.4</ele>
        <time>2013-03-25T04:49:41Z</time>
      </trkpt>
      <trkpt lat="-21.33078" lon="55.70424">
        <ele>890</ele>
        <time>2013-03-25T04:49:57Z</time>
      </trkpt>
      <trkpt lat="-21.3307" lon="55.7042">
        <ele>891.9</ele>
        <time>2013-03-25T04:50:11Z</time>
      </trkpt>
      <trkpt lat="-21.33065" lon="55.70413">
        <ele>893.6</ele>
        <time>2013-03-25T04:50:21Z</time>
      </trkpt>
      <trkpt lat="-21.33057" lon="55.70409">
        <ele>895.5</ele>
        <time>2013-03-25T04:50:32Z</time>
      </trkpt>
      <trkpt lat="-21.33049" lon="55.70406">
        <ele>897.7</ele>
        <time>2013-03-25T04:50:42Z</time>
      </trkpt>
      <trkpt lat="-21.3304" lon="55.70404">
        <ele>897.1</ele>
        <time>2013-03-25T04:50:50Z</time>
      </trkpt>
      <trkpt lat="-21.33032" lon="55.70403">
        <ele>898.4</ele>
        <time>2013-03-25T04:51:02Z</time>
      </trkpt>
      <trkpt lat="-21.33025" lon="55.70399">
        <ele>900.8</ele>
        <time>2013-03-25T04:51:11Z</time>
      </trkpt>
      <trkpt lat="-21.33023" lon="55.7039">
        <ele>901.2</ele>
        <time>2013-03-25T04:51:21Z</time>
      </trkpt>
      <trkpt lat="-21.33022" lon="55.70381">
        <ele>904.5</ele>
        <time>2013-03-25T04:51:33Z</time>
      </trkpt>
      <trkpt lat="-21.33016" lon="55.70374">
        <ele>904.9</ele>
        <time>2013-03-25T04:51:42Z</time>
      </trkpt>
      <trkpt lat="-21.3301" lon="55.70368">
        <ele>906.2</ele>
        <time>2013-03-25T04:51:53Z</time>
      </trkpt>
      <trkpt lat="-21.33003" lon="55.70363">
        <ele>907.4</ele>
        <time>2013-03-25T04:52:04Z</time>
      </trkpt>
      <trkpt lat="-21.32997" lon="55.70357">
        <ele>908.2</ele>
        <time>2013-03-25T04:52:11Z</time>
      </trkpt>
      <trkpt lat="-21.32988" lon="55.70354">
        <ele>908.8</ele>
        <time>2013-03-25T04:52:25Z</time>
      </trkpt>
      <trkpt lat="-21.3298" lon="55.70352">
        <ele>910.5</ele>
        <time>2013-03-25T04:52:35Z</time>
      </trkpt>
      <trkpt lat="-21.32972" lon="55.70348">
        <ele>910.8</ele>
        <time>2013-03-25T04:52:42Z</time>
      </trkpt>
      <trkpt lat="-21.32964" lon="55.70351">
        <ele>911.7</ele>
        <time>2013-03-25T04:52:50Z</time>
      </trkpt>
      <trkpt lat="-21.32956" lon="55.70346">
        <ele>913</ele>
        <time>2013-03-25T04:52:59Z</time>
      </trkpt>
      <trkpt lat="-21.3295" lon="55.7034">
        <ele>913.3</ele>
        <time>2013-03-25T04:53:08Z</time>
      </trkpt>
      <trkpt lat="-21.32943" lon="55.70334">
        <ele>913.9</ele>
        <time>2013-03-25T04:53:19Z</time>
      </trkpt>
      <trkpt lat="-21.32936" lon="55.70329">
        <ele>915.9</ele>
        <time>2013-03-25T04:53:29Z</time>
      </trkpt>
      <trkpt lat="-21.32931" lon="55.70321">
        <ele>917.1</ele>
        <time>2013-03-25T04:53:38Z</time>
      </trkpt>
      <trkpt lat="-21.32926" lon="55.70314">
        <ele>916.5</ele>
        <time>2013-03-25T04:53:45Z</time>
      </trkpt>
      <trkpt lat="-21.32921" lon="55.70305">
        <ele>917.3</ele>
        <time>2013-03-25T04:53:56Z</time>
      </trkpt>
      <trkpt lat="-21.32913" lon="55.70302">
        <ele>919.9</ele>
        <time>2013-03-25T04:54:13Z</time>
      </trkpt>
      <trkpt lat="-21.32905" lon="55.70304">
        <ele>919.1</ele>
        <time>2013-03-25T04:54:21Z</time>
      </trkpt>
      <trkpt lat="-21.32896" lon="55.70302">
        <ele>919.8</ele>
        <time>2013-03-25T04:54:31Z</time>
      </trkpt>
      <trkpt lat="-21.32888" lon="55.703">
        <ele>921.7</ele>
        <time>2013-03-25T04:54:42Z</time>
      </trkpt>
      <trkpt lat="-21.32879" lon="55.70298">
        <ele>922.2</ele>
        <time>2013-03-25T04:54:50Z</time>
      </trkpt>
      <trkpt lat="-21.32871" lon="55.70296">
        <ele>924.4</ele>
        <time>2013-03-25T04:55:06Z</time>
      </trkpt>
      <trkpt lat="-21.32863" lon="55.70294">
        <ele>926.7</ele>
        <time>2013-03-25T04:55:19Z</time>
      </trkpt>
      <trkpt lat="-21.32855" lon="55.70297">
        <ele>931.5</ele>
        <time>2013-03-25T04:55:39Z</time>
      </trkpt>
      <trkpt lat="-21.32846" lon="55.70299">
        <ele>934.8</ele>
        <time>2013-03-25T04:56:04Z</time>
      </trkpt>
      <trkpt lat="-21.32838" lon="55.70299">
        <ele>938.3</ele>
        <time>2013-03-25T04:56:19Z</time>
      </trkpt>
      <trkpt lat="-21.32829" lon="55.70301">
        <ele>943.3</ele>
        <time>2013-03-25T04:56:45Z</time>
      </trkpt>
      <trkpt lat="-21.32821" lon="55.70305">
        <ele>945.5</ele>
        <time>2013-03-25T04:56:57Z</time>
      </trkpt>
      <trkpt lat="-21.32812" lon="55.70304">
        <ele>949.7</ele>
        <time>2013-03-25T04:57:21Z</time>
      </trkpt>
      <trkpt lat="-21.32804" lon="55.70309">
        <ele>953.3</ele>
        <time>2013-03-25T04:57:41Z</time>
      </trkpt>
      <trkpt lat="-21.32796" lon="55.70312">
        <ele>955.1</ele>
        <time>2013-03-25T04:57:55Z</time>
      </trkpt>
      <trkpt lat="-21.32787" lon="55.70314">
        <ele>956.8</ele>
        <time>2013-03-25T04:58:07Z</time>
      </trkpt>
      <trkpt lat="-21.32779" lon="55.70312">
        <ele>958.2</ele>
        <time>2013-03-25T04:58:19Z</time>
      </trkpt>
      <trkpt lat="-21.32771" lon="55.7031">
        <ele>959.8</ele>
        <time>2013-03-25T04:58:31Z</time>
      </trkpt>
      <trkpt lat="-21.32764" lon="55.70304">
        <ele>961.8</ele>
        <time>2013-03-25T04:58:41Z</time>
      </trkpt>
      <trkpt lat="-21.32756" lon="55.70301">
        <ele>962.5</ele>
        <time>2013-03-25T04:58:51Z</time>
      </trkpt>
      <trkpt lat="-21.32748" lon="55.70298">
        <ele>964.5</ele>
        <time>2013-03-25T04:59:02Z</time>
      </trkpt>
      <trkpt lat="-21.32739" lon="55.70297">
        <ele>967.4</ele>
        <time>2013-03-25T04:59:17Z</time>
      </trkpt>
      <trkpt lat="-21.32731" lon="55.703">
        <ele>968.9</ele>
        <time>2013-03-25T04:59:30Z</time>
      </trkpt>
      <trkpt lat="-21.32723" lon="55.70302">
        <ele>970.7</ele>
        <time>2013-03-25T04:59:41Z</time>
      </trkpt>
      <trkpt lat="-21.32714" lon="55.70306">
        <ele>973.4</ele>
        <time>2013-03-25T04:59:55Z</time>
      </trkpt>
      <trkpt lat="-21.32706" lon="55.70307">
        <ele>975.5</ele>
        <time>2013-03-25T05:00:10Z</time>
      </trkpt>
      <trkpt lat="-21.32699" lon="55.70313">
        <ele>977.1</ele>
        <time>2013-03-25T05:00:24Z</time>
      </trkpt>
      <trkpt lat="-21.32692" lon="55.70318">
        <ele>979.1</ele>
        <time>2013-03-25T05:00:38Z</time>
      </trkpt>
      <trkpt lat="-21.32685" lon="55.70323">
        <ele>978.4</ele>
        <time>2013-03-25T05:00:48Z</time>
      </trkpt>
      <trkpt lat="-21.32678" lon="55.70329">
        <ele>979.9</ele>
        <time>2013-03-25T05:01:03Z</time>
      </trkpt>
      <trkpt lat="-21.32671" lon="55.70334">
        <ele>981.2</ele>
        <time>2013-03-25T05:01:14Z</time>
      </trkpt>
      <trkpt lat="-21.32663" lon="55.70338">
        <ele>983.6</ele>
        <time>2013-03-25T05:01:26Z</time>
      </trkpt>
      <trkpt lat="-21.32658" lon="55.70346">
        <ele>986</ele>
        <time>2013-03-25T05:01:43Z</time>
      </trkpt>
      <trkpt lat="-21.3265" lon="55.70349">
        <ele>989</ele>
        <time>2013-03-25T05:01:58Z</time>
      </trkpt>
      <trkpt lat="-21.32641" lon="55.70349">
        <ele>990.9</ele>
        <time>2013-03-25T05:02:13Z</time>
      </trkpt>
      <trkpt lat="-21.32634" lon="55.70353">
        <ele>994</ele>
        <time>2013-03-25T05:02:28Z</time>
      </trkpt>
      <trkpt lat="-21.32626" lon="55.70357">
        <ele>996.4</ele>
        <time>2013-03-25T05:02:38Z</time>
      </trkpt>
      <trkpt lat="-21.32619" lon="55.70362">
        <ele>997.9</ele>
        <time>2013-03-25T05:02:48Z</time>
      </trkpt>
      <trkpt lat="-21.32611" lon="55.70367">
        <ele>1000.4</ele>
        <time>2013-03-25T05:03:04Z</time>
      </trkpt>
      <trkpt lat="-21.32605" lon="55.70373">
        <ele>1001.1</ele>
        <time>2013-03-25T05:03:16Z</time>
      </trkpt>
      <trkpt lat="-21.326" lon="55.70381">
        <ele>1003.6</ele>
        <time>2013-03-25T05:03:27Z</time>
      </trkpt>
      <trkpt lat="-21.32596" lon="55.70388">
        <ele>1004.5</ele>
        <time>2013-03-25T05:03:38Z</time>
      </trkpt>
      <trkpt lat="-21.32592" lon="55.70397">
        <ele>1006.1</ele>
        <time>2013-03-25T05:03:52Z</time>
      </trkpt>
      <trkpt lat="-21.32585" lon="55.70402">
        <ele>1009.5</ele>
        <time>2013-03-25T05:04:16Z</time>
      </trkpt>
      <trkpt lat="-21.32577" lon="55.70406">
        <ele>1011.3</ele>
        <time>2013-03-25T05:04:26Z</time>
      </trkpt>
      <trkpt lat="-21.3257" lon="55.70411">
        <ele>1012.1</ele>
        <time>2013-03-25T05:04:40Z</time>
      </trkpt>
      <trkpt lat="-21.32564" lon="55.70416">
        <ele>1015.8</ele>
        <time>2013-03-25T05:04:57Z</time>
      </trkpt>
      <trkpt lat="-21.32557" lon="55.70422">
        <ele>1017.1</ele>
        <time>2013-03-25T05:05:10Z</time>
      </trkpt>
      <trkpt lat="-21.32549" lon="55.70427">
        <ele>1019.4</ele>
        <time>2013-03-25T05:05:23Z</time>
      </trkpt>
      <trkpt lat="-21.32542" lon="55.70432">
        <ele>1021.3</ele>
        <time>2013-03-25T05:05:36Z</time>
      </trkpt>
      <trkpt lat="-21.32534" lon="55.70437">
        <ele>1023.3</ele>
        <time>2013-03-25T05:05:53Z</time>
      </trkpt>
      <trkpt lat="-21.32528" lon="55.70444">
        <ele>1026.3</ele>
        <time>2013-03-25T05:06:06Z</time>
      </trkpt>
      <trkpt lat="-21.3252" lon="55.70448">
        <ele>1029.3</ele>
        <time>2013-03-25T05:06:23Z</time>
      </trkpt>
      <trkpt lat="-21.32512" lon="55.70447">
        <ele>1032.2</ele>
        <time>2013-03-25T05:06:42Z</time>
      </trkpt>
      <trkpt lat="-21.32503" lon="55.70445">
        <ele>1034</ele>
        <time>2013-03-25T05:06:54Z</time>
      </trkpt>
      <trkpt lat="-21.32494" lon="55.70447">
        <ele>1035.6</ele>
        <time>2013-03-25T05:07:09Z</time>
      </trkpt>
      <trkpt lat="-21.32486" lon="55.70445">
        <ele>1037.7</ele>
        <time>2013-03-25T05:07:20Z</time>
      </trkpt>
      <trkpt lat="-21.32478" lon="55.70444">
        <ele>1038.8</ele>
        <time>2013-03-25T05:07:30Z</time>
      </trkpt>
      <trkpt lat="-21.32469" lon="55.70445">
        <ele>1040.2</ele>
        <time>2013-03-25T05:07:39Z</time>
      </trkpt>
      <trkpt lat="-21.3246" lon="55.70444">
        <ele>1042.6</ele>
        <time>2013-03-25T05:07:56Z</time>
      </trkpt>
      <trkpt lat="-21.32452" lon="55.70446">
        <ele>1045.6</ele>
        <time>2013-03-25T05:08:12Z</time>
      </trkpt>
      <trkpt lat="-21.32444" lon="55.70445">
        <ele>1048.5</ele>
        <time>2013-03-25T05:08:29Z</time>
      </trkpt>
      <trkpt lat="-21.32435" lon="55.70447">
        <ele>1051.1</ele>
        <time>2013-03-25T05:08:43Z</time>
      </trkpt>
      <trkpt lat="-21.32428" lon="55.70451">
        <ele>1052</ele>
        <time>2013-03-25T05:08:53Z</time>
      </trkpt>
      <trkpt lat="-21.3242" lon="55.70453">
        <ele>1054.3</ele>
        <time>2013-03-25T05:09:08Z</time>
      </trkpt>
      <trkpt lat="-21.32412" lon="55.70454">
        <ele>1058.8</ele>
        <time>2013-03-25T05:09:34Z</time>
      </trkpt>
      <trkpt lat="-21.32404" lon="55.70457">
        <ele>1061</ele>
        <time>2013-03-25T05:09:44Z</time>
      </trkpt>
      <trkpt lat="-21.32395" lon="55.70457">
        <ele>1062.1</ele>
        <time>2013-03-25T05:09:55Z</time>
      </trkpt>
      <trkpt lat="-21.32388" lon="55.70461">
        <ele>1061.1</ele>
        <time>2013-03-25T05:10:03Z</time>
      </trkpt>
      <trkpt lat="-21.3238" lon="55.7046">
        <ele>1061.7</ele>
        <time>2013-03-25T05:10:12Z</time>
      </trkpt>
      <trkpt lat="-21.32373" lon="55.70454">
        <ele>1062.5</ele>
        <time>2013-03-25T05:10:25Z</time>
      </trkpt>
      <trkpt lat="-21.32366" lon="55.70458">
        <ele>1064.9</ele>
        <time>2013-03-25T05:10:38Z</time>
      </trkpt>
      <trkpt lat="-21.32357" lon="55.70458">
        <ele>1068.3</ele>
        <time>2013-03-25T05:11:03Z</time>
      </trkpt>
      <trkpt lat="-21.32349" lon="55.70461">
        <ele>1069.4</ele>
        <time>2013-03-25T05:11:12Z</time>
      </trkpt>
      <trkpt lat="-21.32341" lon="55.70461">
        <ele>1071.7</ele>
        <time>2013-03-25T05:11:21Z</time>
      </trkpt>
      <trkpt lat="-21.32333" lon="55.70457">
        <ele>1073.9</ele>
        <time>2013-03-25T05:11:39Z</time>
      </trkpt>
      <trkpt lat="-21.32324" lon="55.70458">
        <ele>1077.8</ele>
        <time>2013-03-25T05:12:01Z</time>
      </trkpt>
      <trkpt lat="-21.32317" lon="55.70463">
        <ele>1081</ele>
        <time>2013-03-25T05:12:20Z</time>
      </trkpt>
      <trkpt lat="-21.3231" lon="55.70467">
        <ele>1082.8</ele>
        <time>2013-03-25T05:12:34Z</time>
      </trkpt>
      <trkpt lat="-21.32302" lon="55.70472">
        <ele>1086.4</ele>
        <time>2013-03-25T05:12:47Z</time>
      </trkpt>
      <trkpt lat="-21.32298" lon="55.7048">
        <ele>1087.7</ele>
        <time>2013-03-25T05:13:02Z</time>
      </trkpt>
      <trkpt lat="-21.3229" lon="55.70484">
        <ele>1090.3</ele>
        <time>2013-03-25T05:13:25Z</time>
      </trkpt>
      <trkpt lat="-21.32281" lon="55.70486">
        <ele>1091.2</ele>
        <time>2013-03-25T05:13:41Z</time>
      </trkpt>
      <trkpt lat="-21.32272" lon="55.70485">
        <ele>1094.5</ele>
        <time>2013-03-25T05:13:58Z</time>
      </trkpt>
      <trkpt lat="-21.32264" lon="55.70487">
        <ele>1098.1</ele>
        <time>2013-03-25T05:14:22Z</time>
      </trkpt>
      <trkpt lat="-21.32258" lon="55.70493">
        <ele>1100.4</ele>
        <time>2013-03-25T05:14:36Z</time>
      </trkpt>
      <trkpt lat="-21.32249" lon="55.70495">
        <ele>1101.9</ele>
        <time>2013-03-25T05:14:48Z</time>
      </trkpt>
      <trkpt lat="-21.32242" lon="55.705">
        <ele>1103.2</ele>
        <time>2013-03-25T05:14:57Z</time>
      </trkpt>
      <trkpt lat="-21.32234" lon="55.70503">
        <ele>1103.7</ele>
        <time>2013-03-25T05:15:07Z</time>
      </trkpt>
      <trkpt lat="-21.32225" lon="55.70505">
        <ele>1104.5</ele>
        <time>2013-03-25T05:15:17Z</time>
      </trkpt>
      <trkpt lat="-21.32219" lon="55.70511">
        <ele>1106</ele>
        <time>2013-03-25T05:15:31Z</time>
      </trkpt>
      <trkpt lat="-21.3221" lon="55.70512">
        <ele>1108</ele>
        <time>2013-03-25T05:15:44Z</time>
      </trkpt>
      <trkpt lat="-21.32202" lon="55.70516">
        <ele>1112.4</ele>
        <time>2013-03-25T05:16:05Z</time>
      </trkpt>
      <trkpt lat="-21.32194" lon="55.7052">
        <ele>1116.8</ele>
        <time>2013-03-25T05:16:39Z</time>
      </trkpt>
      <trkpt lat="-21.32186" lon="55.70522">
        <ele>1120.1</ele>
        <time>2013-03-25T05:17:00Z</time>
      </trkpt>
      <trkpt lat="-21.32178" lon="55.70524">
        <ele>1121.1</ele>
        <time>2013-03-25T05:17:12Z</time>
      </trkpt>
      <trkpt lat="-21.32171" lon="55.7053">
        <ele>1122.1</ele>
        <time>2013-03-25T05:17:18Z</time>
      </trkpt>
      <trkpt lat="-21.32164" lon="55.70534">
        <ele>1123.1</ele>
        <time>2013-03-25T05:17:25Z</time>
      </trkpt>
      <trkpt lat="-21.32156" lon="55.70539">
        <ele>1124.4</ele>
        <time>2013-03-25T05:17:39Z</time>
      </trkpt>
      <trkpt lat="-21.32148" lon="55.7054">
        <ele>1128.5</ele>
        <time>2013-03-25T05:18:01Z</time>
      </trkpt>
      <trkpt lat="-21.3214" lon="55.70537">
        <ele>1129.5</ele>
        <time>2013-03-25T05:18:08Z</time>
      </trkpt>
      <trkpt lat="-21.32132" lon="55.70539">
        <ele>1130.2</ele>
        <time>2013-03-25T05:18:18Z</time>
      </trkpt>
      <trkpt lat="-21.32127" lon="55.70547">
        <ele>1134.1</ele>
        <time>2013-03-25T05:18:41Z</time>
      </trkpt>
      <trkpt lat="-21.3212" lon="55.70553">
        <ele>1139</ele>
        <time>2013-03-25T05:19:12Z</time>
      </trkpt>
      <trkpt lat="-21.32113" lon="55.70552">
        <ele>1141.2</ele>
        <time>2013-03-25T05:19:30Z</time>
      </trkpt>
      <trkpt lat="-21.32106" lon="55.70558">
        <ele>1142.9</ele>
        <time>2013-03-25T05:19:39Z</time>
      </trkpt>
      <trkpt lat="-21.32099" lon="55.70564">
        <ele>1145.9</ele>
        <time>2013-03-25T05:20:00Z</time>
      </trkpt>
      <trkpt lat="-21.32092" lon="55.70567">
        <ele>1147.6</ele>
        <time>2013-03-25T05:20:17Z</time>
      </trkpt>
      <trkpt lat="-21.3209" lon="55.70577">
        <ele>1147.6</ele>
        <time>2013-03-25T05:20:33Z</time>
      </trkpt>
      <trkpt lat="-21.32086" lon="55.70584">
        <ele>1147.5</ele>
        <time>2013-03-25T05:20:46Z</time>
      </trkpt>
      <trkpt lat="-21.32081" lon="55.7059">
        <ele>1147.7</ele>
        <time>2013-03-25T05:20:51Z</time>
      </trkpt>
      <trkpt lat="-21.32073" lon="55.70591">
        <ele>1149.4</ele>
        <time>2013-03-25T05:20:55Z</time>
      </trkpt>
      <trkpt lat="-21.32065" lon="55.7059">
        <ele>1151.2</ele>
        <time>2013-03-25T05:21:04Z</time>
      </trkpt>
      <trkpt lat="-21.32059" lon="55.70597">
        <ele>1156.8</ele>
        <time>2013-03-25T05:21:34Z</time>
      </trkpt>
      <trkpt lat="-21.32054" lon="55.70604">
        <ele>1159.9</ele>
        <time>2013-03-25T05:21:55Z</time>
      </trkpt>
      <trkpt lat="-21.32045" lon="55.70603">
        <ele>1160</ele>
        <time>2013-03-25T05:22:06Z</time>
      </trkpt>
      <trkpt lat="-21.32036" lon="55.70604">
        <ele>1163.7</ele>
        <time>2013-03-25T05:22:22Z</time>
      </trkpt>
      <trkpt lat="-21.32031" lon="55.70612">
        <ele>1168.2</ele>
        <time>2013-03-25T05:23:01Z</time>
      </trkpt>
      <trkpt lat="-21.32022" lon="55.70614">
        <ele>1170.8</ele>
        <time>2013-03-25T05:23:23Z</time>
      </trkpt>
      <trkpt lat="-21.32014" lon="55.70617">
        <ele>1176.3</ele>
        <time>2013-03-25T05:24:01Z</time>
      </trkpt>
      <trkpt lat="-21.32007" lon="55.70619">
        <ele>1179.2</ele>
        <time>2013-03-25T05:24:13Z</time>
      </trkpt>
      <trkpt lat="-21.31999" lon="55.70619">
        <ele>1179.8</ele>
        <time>2013-03-25T05:24:21Z</time>
      </trkpt>
      <trkpt lat="-21.31991" lon="55.70623">
        <ele>1180.8</ele>
        <time>2013-03-25T05:24:30Z</time>
      </trkpt>
      <trkpt lat="-21.31983" lon="55.70627">
        <ele>1182.3</ele>
        <time>2013-03-25T05:24:42Z</time>
      </trkpt>
      <trkpt lat="-21.31975" lon="55.70624">
        <ele>1188.3</ele>
        <time>2013-03-25T05:25:24Z</time>
      </trkpt>
      <trkpt lat="-21.31968" lon="55.70619">
        <ele>1190.5</ele>
        <time>2013-03-25T05:25:36Z</time>
      </trkpt>
      <trkpt lat="-21.31959" lon="55.70618">
        <ele>1192.8</ele>
        <time>2013-03-25T05:25:59Z</time>
      </trkpt>
      <trkpt lat="-21.3195" lon="55.70621">
        <ele>1195.6</ele>
        <time>2013-03-25T05:26:14Z</time>
      </trkpt>
      <trkpt lat="-21.31941" lon="55.7062">
        <ele>1197.6</ele>
        <time>2013-03-25T05:26:28Z</time>
      </trkpt>
      <trkpt lat="-21.31933" lon="55.70623">
        <ele>1200.2</ele>
        <time>2013-03-25T05:26:52Z</time>
      </trkpt>
      <trkpt lat="-21.31926" lon="55.70629">
        <ele>1202</ele>
        <time>2013-03-25T05:27:07Z</time>
      </trkpt>
      <trkpt lat="-21.31918" lon="55.70631">
        <ele>1205.8</ele>
        <time>2013-03-25T05:27:25Z</time>
      </trkpt>
      <trkpt lat="-21.31909" lon="55.7063">
        <ele>1209.6</ele>
        <time>2013-03-25T05:27:53Z</time>
      </trkpt>
      <trkpt lat="-21.31901" lon="55.70627">
        <ele>1213.6</ele>
        <time>2013-03-25T05:28:24Z</time>
      </trkpt>
      <trkpt lat="-21.31893" lon="55.70624">
        <ele>1216.1</ele>
        <time>2013-03-25T05:28:40Z</time>
      </trkpt>
      <trkpt lat="-21.3189" lon="55.70633">
        <ele>1218.6</ele>
        <time>2013-03-25T05:28:55Z</time>
      </trkpt>
      <trkpt lat="-21.31882" lon="55.70632">
        <ele>1221.3</ele>
        <time>2013-03-25T05:29:12Z</time>
      </trkpt>
      <trkpt lat="-21.31874" lon="55.70629">
        <ele>1223</ele>
        <time>2013-03-25T05:29:23Z</time>
      </trkpt>
      <trkpt lat="-21.31867" lon="55.70633">
        <ele>1224.3</ele>
        <time>2013-03-25T05:29:31Z</time>
      </trkpt>
      <trkpt lat="-21.31859" lon="55.70627">
        <ele>1230</ele>
        <time>2013-03-25T05:30:06Z</time>
      </trkpt>
      <trkpt lat="-21.31852" lon="55.70623">
        <ele>1232.2</ele>
        <time>2013-03-25T05:30:25Z</time>
      </trkpt>
      <trkpt lat="-21.31843" lon="55.70622">
        <ele>1234.3</ele>
        <time>2013-03-25T05:30:39Z</time>
      </trkpt>
      <trkpt lat="-21.31836" lon="55.70617">
        <ele>1235.9</ele>
        <time>2013-03-25T05:30:45Z</time>
      </trkpt>
      <trkpt lat="-21.31827" lon="55.70614">
        <ele>1237</ele>
        <time>2013-03-25T05:30:56Z</time>
      </trkpt>
      <trkpt lat="-21.31819" lon="55.70616">
        <ele>1239.6</ele>
        <time>2013-03-25T05:31:10Z</time>
      </trkpt>
      <trkpt lat="-21.3181" lon="55.70616">
        <ele>1245.8</ele>
        <time>2013-03-25T05:31:41Z</time>
      </trkpt>
      <trkpt lat="-21.31803" lon="55.70612">
        <ele>1247.2</ele>
        <time>2013-03-25T05:31:52Z</time>
      </trkpt>
      <trkpt lat="-21.31794" lon="55.70609">
        <ele>1247.9</ele>
        <time>2013-03-25T05:32:02Z</time>
      </trkpt>
      <trkpt lat="-21.31786" lon="55.70607">
        <ele>1249.9</ele>
        <time>2013-03-25T05:32:25Z</time>
      </trkpt>
      <trkpt lat="-21.31777" lon="55.70607">
        <ele>1252.7</ele>
        <time>2013-03-25T05:32:40Z</time>
      </trkpt>
      <trkpt lat="-21.31769" lon="55.70603">
        <ele>1252.8</ele>
        <time>2013-03-25T05:32:51Z</time>
      </trkpt>
      <trkpt lat="-21.31761" lon="55.70606">
        <ele>1255.7</ele>
        <time>2013-03-25T05:33:21Z</time>
      </trkpt>
      <trkpt lat="-21.31753" lon="55.70606">
        <ele>1257.1</ele>
        <time>2013-03-25T05:33:29Z</time>
      </trkpt>
      <trkpt lat="-21.3175" lon="55.70613">
        <ele>1258</ele>
        <time>2013-03-25T05:33:34Z</time>
      </trkpt>
      <trkpt lat="-21.31743" lon="55.70619">
        <ele>1259.1</ele>
        <time>2013-03-25T05:33:40Z</time>
      </trkpt>
      <trkpt lat="-21.31737" lon="55.70625">
        <ele>1267.9</ele>
        <time>2013-03-25T05:34:36Z</time>
      </trkpt>
      <trkpt lat="-21.31728" lon="55.70624">
        <ele>1272.3</ele>
        <time>2013-03-25T05:35:03Z</time>
      </trkpt>
      <trkpt lat="-21.3172" lon="55.70628">
        <ele>1278.4</ele>
        <time>2013-03-25T05:35:43Z</time>
      </trkpt>
      <trkpt lat="-21.31712" lon="55.70626">
        <ele>1281.1</ele>
        <time>2013-03-25T05:35:59Z</time>
      </trkpt>
      <trkpt lat="-21.31704" lon="55.70621">
        <ele>1285</ele>
        <time>2013-03-25T05:36:30Z</time>
      </trkpt>
      <trkpt lat="-21.31696" lon="55.70621">
        <ele>1287.7</ele>
        <time>2013-03-25T05:36:52Z</time>
      </trkpt>
      <trkpt lat="-21.31688" lon="55.70616">
        <ele>1291.3</ele>
        <time>2013-03-25T05:37:12Z</time>
      </trkpt>
      <trkpt lat="-21.3168" lon="55.70617">
        <ele>1293.7</ele>
        <time>2013-03-25T05:37:27Z</time>
      </trkpt>
      <trkpt lat="-21.31672" lon="55.70619">
        <ele>1297.8</ele>
        <time>2013-03-25T05:37:55Z</time>
      </trkpt>
      <trkpt lat="-21.31663" lon="55.70621">
        <ele>1301.1</ele>
        <time>2013-03-25T05:38:08Z</time>
      </trkpt>
      <trkpt lat="-21.31655" lon="55.70619">
        <ele>1302.1</ele>
        <time>2013-03-25T05:38:25Z</time>
      </trkpt>
      <trkpt lat="-21.31646" lon="55.70619">
        <ele>1310.1</ele>
        <time>2013-03-25T05:39:14Z</time>
      </trkpt>
      <trkpt lat="-21.31637" lon="55.70619">
        <ele>1313.2</ele>
        <time>2013-03-25T05:39:34Z</time>
      </trkpt>
      <trkpt lat="-21.31628" lon="55.70619">
        <ele>1316.7</ele>
        <time>2013-03-25T05:40:04Z</time>
      </trkpt>
      <trkpt lat="-21.3162" lon="55.70619">
        <ele>1318.6</ele>
        <time>2013-03-25T05:40:18Z</time>
      </trkpt>
      <trkpt lat="-21.31613" lon="55.70624">
        <ele>1319.4</ele>
        <time>2013-03-25T05:40:27Z</time>
      </trkpt>
      <trkpt lat="-21.31605" lon="55.70626">
        <ele>1319.3</ele>
        <time>2013-03-25T05:40:40Z</time>
      </trkpt>
      <trkpt lat="-21.31597" lon="55.70621">
        <ele>1322.3</ele>
        <time>2013-03-25T05:41:01Z</time>
      </trkpt>
      <trkpt lat="-21.31589" lon="55.70621">
        <ele>1326.4</ele>
        <time>2013-03-25T05:41:31Z</time>
      </trkpt>
      <trkpt lat="-21.31581" lon="55.70626">
        <ele>1329</ele>
        <time>2013-03-25T05:41:51Z</time>
      </trkpt>
      <trkpt lat="-21.31573" lon="55.70623">
        <ele>1333.1</ele>
        <time>2013-03-25T05:42:18Z</time>
      </trkpt>
      <trkpt lat="-21.31564" lon="55.70622">
        <ele>1335.6</ele>
        <time>2013-03-25T05:42:38Z</time>
      </trkpt>
      <trkpt lat="-21.31557" lon="55.70627">
        <ele>1338.4</ele>
        <time>2013-03-25T05:42:58Z</time>
      </trkpt>
      <trkpt lat="-21.3155" lon="55.70633">
        <ele>1340</ele>
        <time>2013-03-25T05:43:12Z</time>
      </trkpt>
      <trkpt lat="-21.31542" lon="55.70637">
        <ele>1344.2</ele>
        <time>2013-03-25T05:43:38Z</time>
      </trkpt>
      <trkpt lat="-21.31534" lon="55.70642">
        <ele>1346.5</ele>
        <time>2013-03-25T05:44:01Z</time>
      </trkpt>
      <trkpt lat="-21.31527" lon="55.70648">
        <ele>1347.2</ele>
        <time>2013-03-25T05:44:11Z</time>
      </trkpt>
      <trkpt lat="-21.3152" lon="55.70652">
        <ele>1352.5</ele>
        <time>2013-03-25T05:44:34Z</time>
      </trkpt>
      <trkpt lat="-21.31514" lon="55.70659">
        <ele>1354.5</ele>
        <time>2013-03-25T05:44:51Z</time>
      </trkpt>
      <trkpt lat="-21.31506" lon="55.70662">
        <ele>1355.5</ele>
        <time>2013-03-25T05:45:00Z</time>
      </trkpt>
      <trkpt lat="-21.31498" lon="55.70665">
        <ele>1358.3</ele>
        <time>2013-03-25T05:45:19Z</time>
      </trkpt>
      <trkpt lat="-21.31491" lon="55.70671">
        <ele>1360.8</ele>
        <time>2013-03-25T05:45:44Z</time>
      </trkpt>
      <trkpt lat="-21.31486" lon="55.70678">
        <ele>1364.1</ele>
        <time>2013-03-25T05:46:07Z</time>
      </trkpt>
      <trkpt lat="-21.31479" lon="55.70684">
        <ele>1364.9</ele>
        <time>2013-03-25T05:46:24Z</time>
      </trkpt>
      <trkpt lat="-21.31471" lon="55.70688">
        <ele>1370.6</ele>
        <time>2013-03-25T05:47:01Z</time>
      </trkpt>
      <trkpt lat="-21.31465" lon="55.70694">
        <ele>1373.7</ele>
        <time>2013-03-25T05:47:18Z</time>
      </trkpt>
      <trkpt lat="-21.31457" lon="55.70698">
        <ele>1379.7</ele>
        <time>2013-03-25T05:48:04Z</time>
      </trkpt>
      <trkpt lat="-21.31449" lon="55.70703">
        <ele>1381.1</ele>
        <time>2013-03-25T05:48:23Z</time>
      </trkpt>
      <trkpt lat="-21.31443" lon="55.70709">
        <ele>1382.8</ele>
        <time>2013-03-25T05:48:43Z</time>
      </trkpt>
      <trkpt lat="-21.31438" lon="55.70717">
        <ele>1382.7</ele>
        <time>2013-03-25T05:48:53Z</time>
      </trkpt>
      <trkpt lat="-21.31431" lon="55.70721">
        <ele>1384.9</ele>
        <time>2013-03-25T05:49:06Z</time>
      </trkpt>
      <trkpt lat="-21.31429" lon="55.7073">
        <ele>1389.9</ele>
        <time>2013-03-25T05:49:44Z</time>
      </trkpt>
      <trkpt lat="-21.31422" lon="55.70735">
        <ele>1392.7</ele>
        <time>2013-03-25T05:50:02Z</time>
      </trkpt>
      <trkpt lat="-21.31413" lon="55.70735">
        <ele>1392.5</ele>
        <time>2013-03-25T05:50:09Z</time>
      </trkpt>
      <trkpt lat="-21.31405" lon="55.70737">
        <ele>1394.2</ele>
        <time>2013-03-25T05:50:22Z</time>
      </trkpt>
      <trkpt lat="-21.314" lon="55.70744">
        <ele>1396.6</ele>
        <time>2013-03-25T05:50:36Z</time>
      </trkpt>
      <trkpt lat="-21.31393" lon="55.70749">
        <ele>1397.9</ele>
        <time>2013-03-25T05:50:55Z</time>
      </trkpt>
      <trkpt lat="-21.31385" lon="55.70747">
        <ele>1401.2</ele>
        <time>2013-03-25T05:51:11Z</time>
      </trkpt>
      <trkpt lat="-21.31377" lon="55.70753">
        <ele>1402.8</ele>
        <time>2013-03-25T05:51:29Z</time>
      </trkpt>
      <trkpt lat="-21.31369" lon="55.70754">
        <ele>1403.5</ele>
        <time>2013-03-25T05:51:42Z</time>
      </trkpt>
      <trkpt lat="-21.31361" lon="55.70759">
        <ele>1405.3</ele>
        <time>2013-03-25T05:51:53Z</time>
      </trkpt>
      <trkpt lat="-21.31355" lon="55.70765">
        <ele>1408.9</ele>
        <time>2013-03-25T05:52:23Z</time>
      </trkpt>
      <trkpt lat="-21.31348" lon="55.7077">
        <ele>1410.7</ele>
        <time>2013-03-25T05:52:33Z</time>
      </trkpt>
      <trkpt lat="-21.3134" lon="55.70769">
        <ele>1411.8</ele>
        <time>2013-03-25T05:52:45Z</time>
      </trkpt>
      <trkpt lat="-21.31333" lon="55.70776">
        <ele>1415</ele>
        <time>2013-03-25T05:53:05Z</time>
      </trkpt>
      <trkpt lat="-21.31325" lon="55.70777">
        <ele>1417.7</ele>
        <time>2013-03-25T05:53:20Z</time>
      </trkpt>
      <trkpt lat="-21.31317" lon="55.70777">
        <ele>1417.7</ele>
        <time>2013-03-25T05:53:30Z</time>
      </trkpt>
      <trkpt lat="-21.3131" lon="55.70784">
        <ele>1425.6</ele>
        <time>2013-03-25T05:54:13Z</time>
      </trkpt>
      <trkpt lat="-21.31302" lon="55.70783">
        <ele>1427.4</ele>
        <time>2013-03-25T05:54:34Z</time>
      </trkpt>
      <trkpt lat="-21.31295" lon="55.70781">
        <ele>1428.6</ele>
        <time>2013-03-25T05:54:41Z</time>
      </trkpt>
      <trkpt lat="-21.31287" lon="55.70776">
        <ele>1431.4</ele>
        <time>2013-03-25T05:55:00Z</time>
      </trkpt>
      <trkpt lat="-21.31291" lon="55.70785">
        <ele>1433</ele>
        <time>2013-03-25T05:55:22Z</time>
      </trkpt>
      <trkpt lat="-21.31283" lon="55.70788">
        <ele>1438.6</ele>
        <time>2013-03-25T05:55:59Z</time>
      </trkpt>
      <trkpt lat="-21.31276" lon="55.70793">
        <ele>1441.2</ele>
        <time>2013-03-25T05:56:21Z</time>
      </trkpt>
      <trkpt lat="-21.31269" lon="55.70788">
        <ele>1444.4</ele>
        <time>2013-03-25T05:56:42Z</time>
      </trkpt>
      <trkpt lat="-21.3126" lon="55.7079">
        <ele>1447.4</ele>
        <time>2013-03-25T05:57:15Z</time>
      </trkpt>
      <trkpt lat="-21.31252" lon="55.7079">
        <ele>1449.5</ele>
        <time>2013-03-25T05:57:33Z</time>
      </trkpt>
      <trkpt lat="-21.31244" lon="55.70789">
        <ele>1451.4</ele>
        <time>2013-03-25T05:57:42Z</time>
      </trkpt>
      <trkpt lat="-21.31237" lon="55.70788">
        <ele>1453.1</ele>
        <time>2013-03-25T05:58:02Z</time>
      </trkpt>
      <trkpt lat="-21.31231" lon="55.70795">
        <ele>1456.5</ele>
        <time>2013-03-25T05:58:27Z</time>
      </trkpt>
      <trkpt lat="-21.31224" lon="55.70799">
        <ele>1458.3</ele>
        <time>2013-03-25T05:58:41Z</time>
      </trkpt>
      <trkpt lat="-21.31219" lon="55.70807">
        <ele>1460.2</ele>
        <time>2013-03-25T05:58:56Z</time>
      </trkpt>
      <trkpt lat="-21.31222" lon="55.70816">
        <ele>1463.1</ele>
        <time>2013-03-25T05:59:19Z</time>
      </trkpt>
      <trkpt lat="-21.31214" lon="55.70821">
        <ele>1465.1</ele>
        <time>2013-03-25T05:59:33Z</time>
      </trkpt>
      <trkpt lat="-21.31209" lon="55.70829">
        <ele>1466.5</ele>
        <time>2013-03-25T05:59:46Z</time>
      </trkpt>
      <trkpt lat="-21.31201" lon="55.70831">
        <ele>1468.8</ele>
        <time>2013-03-25T06:00:07Z</time>
      </trkpt>
      <trkpt lat="-21.31194" lon="55.70837">
        <ele>1469.3</ele>
        <time>2013-03-25T06:00:16Z</time>
      </trkpt>
      <trkpt lat="-21.31189" lon="55.70844">
        <ele>1470.3</ele>
        <time>2013-03-25T06:00:26Z</time>
      </trkpt>
      <trkpt lat="-21.31185" lon="55.70853">
        <ele>1471.5</ele>
        <time>2013-03-25T06:00:40Z</time>
      </trkpt>
      <trkpt lat="-21.31177" lon="55.70854">
        <ele>1471.1</ele>
        <time>2013-03-25T06:00:55Z</time>
      </trkpt>
      <trkpt lat="-21.31175" lon="55.70863">
        <ele>1474.1</ele>
        <time>2013-03-25T06:01:09Z</time>
      </trkpt>
      <trkpt lat="-21.31168" lon="55.70869">
        <ele>1474.5</ele>
        <time>2013-03-25T06:01:17Z</time>
      </trkpt>
      <trkpt lat="-21.31162" lon="55.70875">
        <ele>1473.9</ele>
        <time>2013-03-25T06:01:26Z</time>
      </trkpt>
      <trkpt lat="-21.31156" lon="55.70882">
        <ele>1474.9</ele>
        <time>2013-03-25T06:01:38Z</time>
      </trkpt>
      <trkpt lat="-21.31148" lon="55.70886">
        <ele>1478.3</ele>
        <time>2013-03-25T06:01:56Z</time>
      </trkpt>
      <trkpt lat="-21.31139" lon="55.70889">
        <ele>1480.6</ele>
        <time>2013-03-25T06:02:13Z</time>
      </trkpt>
      <trkpt lat="-21.31133" lon="55.70895">
        <ele>1484.5</ele>
        <time>2013-03-25T06:02:43Z</time>
      </trkpt>
      <trkpt lat="-21.31124" lon="55.70894">
        <ele>1487.1</ele>
        <time>2013-03-25T06:03:05Z</time>
      </trkpt>
      <trkpt lat="-21.31116" lon="55.70893">
        <ele>1489.1</ele>
        <time>2013-03-25T06:03:22Z</time>
      </trkpt>
      <trkpt lat="-21.31108" lon="55.7089">
        <ele>1492.6</ele>
        <time>2013-03-25T06:03:47Z</time>
      </trkpt>
      <trkpt lat="-21.31099" lon="55.70889">
        <ele>1494.1</ele>
        <time>2013-03-25T06:04:04Z</time>
      </trkpt>
      <trkpt lat="-21.31091" lon="55.70894">
        <ele>1498.2</ele>
        <time>2013-03-25T06:04:29Z</time>
      </trkpt>
      <trkpt lat="-21.31084" lon="55.70899">
        <ele>1498.5</ele>
        <time>2013-03-25T06:04:43Z</time>
      </trkpt>
      <trkpt lat="-21.31076" lon="55.70897">
        <ele>1501.5</ele>
        <time>2013-03-25T06:05:02Z</time>
      </trkpt>
      <trkpt lat="-21.31069" lon="55.70891">
        <ele>1505</ele>
        <time>2013-03-25T06:05:24Z</time>
      </trkpt>
      <trkpt lat="-21.31061" lon="55.70887">
        <ele>1506.9</ele>
        <time>2013-03-25T06:05:53Z</time>
      </trkpt>
      <trkpt lat="-21.31053" lon="55.70883">
        <ele>1509.2</ele>
        <time>2013-03-25T06:06:10Z</time>
      </trkpt>
      <trkpt lat="-21.31045" lon="55.70879">
        <ele>1513</ele>
        <time>2013-03-25T06:06:33Z</time>
      </trkpt>
      <trkpt lat="-21.31037" lon="55.70883">
        <ele>1514.9</ele>
        <time>2013-03-25T06:06:49Z</time>
      </trkpt>
      <trkpt lat="-21.31029" lon="55.7088">
        <ele>1515.6</ele>
        <time>2013-03-25T06:07:03Z</time>
      </trkpt>
      <trkpt lat="-21.31022" lon="55.70876">
        <ele>1517.4</ele>
        <time>2013-03-25T06:07:16Z</time>
      </trkpt>
      <trkpt lat="-21.31014" lon="55.7087">
        <ele>1519.3</ele>
        <time>2013-03-25T06:07:30Z</time>
      </trkpt>
      <trkpt lat="-21.31007" lon="55.70866">
        <ele>1521.5</ele>
        <time>2013-03-25T06:07:47Z</time>
      </trkpt>
      <trkpt lat="-21.31" lon="55.70861">
        <ele>1523.3</ele>
        <time>2013-03-25T06:07:59Z</time>
      </trkpt>
      <trkpt lat="-21.30994" lon="55.70854">
        <ele>1524.6</ele>
        <time>2013-03-25T06:08:12Z</time>
      </trkpt>
      <trkpt lat="-21.30986" lon="55.70849">
        <ele>1527.9</ele>
        <time>2013-03-25T06:08:28Z</time>
      </trkpt>
      <trkpt lat="-21.30981" lon="55.70842">
        <ele>1529.4</ele>
        <time>2013-03-25T06:08:45Z</time>
      </trkpt>
      <trkpt lat="-21.30974" lon="55.70837">
        <ele>1532.3</ele>
        <time>2013-03-25T06:09:02Z</time>
      </trkpt>
      <trkpt lat="-21.30967" lon="55.70833">
        <ele>1533.8</ele>
        <time>2013-03-25T06:09:15Z</time>
      </trkpt>
      <trkpt lat="-21.3096" lon="55.70826">
        <ele>1535</ele>
        <time>2013-03-25T06:09:30Z</time>
      </trkpt>
      <trkpt lat="-21.30954" lon="55.7082">
        <ele>1538.8</ele>
        <time>2013-03-25T06:09:49Z</time>
      </trkpt>
      <trkpt lat="-21.30947" lon="55.70814">
        <ele>1539.6</ele>
        <time>2013-03-25T06:10:05Z</time>
      </trkpt>
      <trkpt lat="-21.30939" lon="55.7081">
        <ele>1541.9</ele>
        <time>2013-03-25T06:10:22Z</time>
      </trkpt>
      <trkpt lat="-21.30931" lon="55.70807">
        <ele>1544.6</ele>
        <time>2013-03-25T06:10:38Z</time>
      </trkpt>
      <trkpt lat="-21.30922" lon="55.70806">
        <ele>1545.7</ele>
        <time>2013-03-25T06:10:55Z</time>
      </trkpt>
      <trkpt lat="-21.30913" lon="55.70804">
        <ele>1548.9</ele>
        <time>2013-03-25T06:11:14Z</time>
      </trkpt>
      <trkpt lat="-21.30905" lon="55.708">
        <ele>1553.1</ele>
        <time>2013-03-25T06:11:35Z</time>
      </trkpt>
      <trkpt lat="-21.30896" lon="55.708">
        <ele>1554.7</ele>
        <time>2013-03-25T06:11:55Z</time>
      </trkpt>
      <trkpt lat="-21.30891" lon="55.70792">
        <ele>1559.1</ele>
        <time>2013-03-25T06:12:23Z</time>
      </trkpt>
      <trkpt lat="-21.30885" lon="55.70786">
        <ele>1563.5</ele>
        <time>2013-03-25T06:12:42Z</time>
      </trkpt>
      <trkpt lat="-21.30877" lon="55.70783">
        <ele>1564.6</ele>
        <time>2013-03-25T06:12:57Z</time>
      </trkpt>
      <trkpt lat="-21.30869" lon="55.70778">
        <ele>1567.3</ele>
        <time>2013-03-25T06:13:14Z</time>
      </trkpt>
      <trkpt lat="-21.30861" lon="55.70775">
        <ele>1568.7</ele>
        <time>2013-03-25T06:13:30Z</time>
      </trkpt>
      <trkpt lat="-21.30853" lon="55.7077">
        <ele>1573</ele>
        <time>2013-03-25T06:13:51Z</time>
      </trkpt>
      <trkpt lat="-21.30846" lon="55.70765">
        <ele>1575.2</ele>
        <time>2013-03-25T06:14:03Z</time>
      </trkpt>
      <trkpt lat="-21.30839" lon="55.70759">
        <ele>1576.4</ele>
        <time>2013-03-25T06:14:17Z</time>
      </trkpt>
      <trkpt lat="-21.30831" lon="55.70756">
        <ele>1579.6</ele>
        <time>2013-03-25T06:14:33Z</time>
      </trkpt>
      <trkpt lat="-21.30823" lon="55.70753">
        <ele>1580.3</ele>
        <time>2013-03-25T06:14:44Z</time>
      </trkpt>
      <trkpt lat="-21.30814" lon="55.70751">
        <ele>1583</ele>
        <time>2013-03-25T06:14:54Z</time>
      </trkpt>
      <trkpt lat="-21.30807" lon="55.70746">
        <ele>1583.7</ele>
        <time>2013-03-25T06:15:05Z</time>
      </trkpt>
      <trkpt lat="-21.30799" lon="55.70746">
        <ele>1586.5</ele>
        <time>2013-03-25T06:15:25Z</time>
      </trkpt>
      <trkpt lat="-21.3079" lon="55.70745">
        <ele>1589.3</ele>
        <time>2013-03-25T06:15:45Z</time>
      </trkpt>
      <trkpt lat="-21.30781" lon="55.70743">
        <ele>1592.4</ele>
        <time>2013-03-25T06:16:11Z</time>
      </trkpt>
      <trkpt lat="-21.30772" lon="55.70742">
        <ele>1596.1</ele>
        <time>2013-03-25T06:16:35Z</time>
      </trkpt>
      <trkpt lat="-21.30764" lon="55.7074">
        <ele>1597.9</ele>
        <time>2013-03-25T06:16:50Z</time>
      </trkpt>
      <trkpt lat="-21.30755" lon="55.70737">
        <ele>1600.7</ele>
        <time>2013-03-25T06:17:09Z</time>
      </trkpt>
      <trkpt lat="-21.30747" lon="55.70735">
        <ele>1604.3</ele>
        <time>2013-03-25T06:17:30Z</time>
      </trkpt>
      <trkpt lat="-21.30739" lon="55.7073">
        <ele>1607</ele>
        <time>2013-03-25T06:17:52Z</time>
      </trkpt>
      <trkpt lat="-21.30732" lon="55.70725">
        <ele>1609</ele>
        <time>2013-03-25T06:18:08Z</time>
      </trkpt>
      <trkpt lat="-21.30724" lon="55.70722">
        <ele>1611.6</ele>
        <time>2013-03-25T06:18:21Z</time>
      </trkpt>
      <trkpt lat="-21.30715" lon="55.70718">
        <ele>1612.1</ele>
        <time>2013-03-25T06:18:35Z</time>
      </trkpt>
      <trkpt lat="-21.30712" lon="55.7071">
        <ele>1613.9</ele>
        <time>2013-03-25T06:18:48Z</time>
      </trkpt>
      <trkpt lat="-21.30705" lon="55.70704">
        <ele>1616.5</ele>
        <time>2013-03-25T06:19:09Z</time>
      </trkpt>
      <trkpt lat="-21.30697" lon="55.707">
        <ele>1618.5</ele>
        <time>2013-03-25T06:19:26Z</time>
      </trkpt>
      <trkpt lat="-21.30692" lon="55.70692">
        <ele>1621.5</ele>
        <time>2013-03-25T06:19:48Z</time>
      </trkpt>
      <trkpt lat="-21.30685" lon="55.70688">
        <ele>1626.4</ele>
        <time>2013-03-25T06:20:19Z</time>
      </trkpt>
      <trkpt lat="-21.30676" lon="55.70685">
        <ele>1628.2</ele>
        <time>2013-03-25T06:20:36Z</time>
      </trkpt>
      <trkpt lat="-21.30667" lon="55.70686">
        <ele>1631.1</ele>
        <time>2013-03-25T06:20:55Z</time>
      </trkpt>
      <trkpt lat="-21.30659" lon="55.70682">
        <ele>1635.7</ele>
        <time>2013-03-25T06:21:15Z</time>
      </trkpt>
      <trkpt lat="-21.30651" lon="55.70681">
        <ele>1637.3</ele>
        <time>2013-03-25T06:21:32Z</time>
      </trkpt>
      <trkpt lat="-21.30643" lon="55.70676">
        <ele>1641.5</ele>
        <time>2013-03-25T06:21:53Z</time>
      </trkpt>
      <trkpt lat="-21.30636" lon="55.70671">
        <ele>1646.1</ele>
        <time>2013-03-25T06:22:17Z</time>
      </trkpt>
      <trkpt lat="-21.30629" lon="55.70665">
        <ele>1649.7</ele>
        <time>2013-03-25T06:22:36Z</time>
      </trkpt>
      <trkpt lat="-21.3062" lon="55.70666">
        <ele>1655.2</ele>
        <time>2013-03-25T06:22:59Z</time>
      </trkpt>
      <trkpt lat="-21.30612" lon="55.70662">
        <ele>1657.2</ele>
        <time>2013-03-25T06:23:18Z</time>
      </trkpt>
      <trkpt lat="-21.30607" lon="55.70654">
        <ele>1662.6</ele>
        <time>2013-03-25T06:23:42Z</time>
      </trkpt>
      <trkpt lat="-21.306" lon="55.70649">
        <ele>1667.3</ele>
        <time>2013-03-25T06:24:14Z</time>
      </trkpt>
      <trkpt lat="-21.30593" lon="55.70644">
        <ele>1671.4</ele>
        <time>2013-03-25T06:24:37Z</time>
      </trkpt>
      <trkpt lat="-21.30586" lon="55.70638">
        <ele>1675.5</ele>
        <time>2013-03-25T06:24:56Z</time>
      </trkpt>
      <trkpt lat="-21.30577" lon="55.70638">
        <ele>1678</ele>
        <time>2013-03-25T06:25:12Z</time>
      </trkpt>
      <trkpt lat="-21.30569" lon="55.70642">
        <ele>1683.3</ele>
        <time>2013-03-25T06:25:41Z</time>
      </trkpt>
      <trkpt lat="-21.3056" lon="55.70642">
        <ele>1687.9</ele>
        <time>2013-03-25T06:26:09Z</time>
      </trkpt>
      <trkpt lat="-21.30553" lon="55.70645">
        <ele>1690.2</ele>
        <time>2013-03-25T06:26:26Z</time>
      </trkpt>
      <trkpt lat="-21.30544" lon="55.70645">
        <ele>1692.2</ele>
        <time>2013-03-25T06:26:39Z</time>
      </trkpt>
      <trkpt lat="-21.30536" lon="55.70645">
        <ele>1691.8</ele>
        <time>2013-03-25T06:26:51Z</time>
      </trkpt>
      <trkpt lat="-21.30528" lon="55.70643">
        <ele>1692.5</ele>
        <time>2013-03-25T06:27:02Z</time>
      </trkpt>
      <trkpt lat="-21.30519" lon="55.70641">
        <ele>1693.4</ele>
        <time>2013-03-25T06:27:13Z</time>
      </trkpt>
      <trkpt lat="-21.3051" lon="55.70639">
        <ele>1695.9</ele>
        <time>2013-03-25T06:27:29Z</time>
      </trkpt>
      <trkpt lat="-21.30502" lon="55.70635">
        <ele>1697.8</ele>
        <time>2013-03-25T06:27:43Z</time>
      </trkpt>
      <trkpt lat="-21.30494" lon="55.70632">
        <ele>1701.1</ele>
        <time>2013-03-25T06:28:00Z</time>
      </trkpt>
      <trkpt lat="-21.30486" lon="55.7063">
        <ele>1704.8</ele>
        <time>2013-03-25T06:28:21Z</time>
      </trkpt>
      <trkpt lat="-21.30478" lon="55.70625">
        <ele>1709.2</ele>
        <time>2013-03-25T06:28:44Z</time>
      </trkpt>
      <trkpt lat="-21.3047" lon="55.70622">
        <ele>1713.1</ele>
        <time>2013-03-25T06:29:02Z</time>
      </trkpt>
      <trkpt lat="-21.30462" lon="55.70618">
        <ele>1717.4</ele>
        <time>2013-03-25T06:29:30Z</time>
      </trkpt>
      <trkpt lat="-21.30454" lon="55.70617">
        <ele>1720.6</ele>
        <time>2013-03-25T06:29:48Z</time>
      </trkpt>
      <trkpt lat="-21.30445" lon="55.70615">
        <ele>1722.8</ele>
        <time>2013-03-25T06:30:01Z</time>
      </trkpt>
      <trkpt lat="-21.30436" lon="55.70612">
        <ele>1725.5</ele>
        <time>2013-03-25T06:30:17Z</time>
      </trkpt>
      <trkpt lat="-21.30428" lon="55.70609">
        <ele>1728.8</ele>
        <time>2013-03-25T06:30:35Z</time>
      </trkpt>
      <trkpt lat="-21.3042" lon="55.70607">
        <ele>1732.2</ele>
        <time>2013-03-25T06:30:53Z</time>
      </trkpt>
      <trkpt lat="-21.30412" lon="55.70604">
        <ele>1734.6</ele>
        <time>2013-03-25T06:31:06Z</time>
      </trkpt>
      <trkpt lat="-21.30403" lon="55.70603">
        <ele>1737.5</ele>
        <time>2013-03-25T06:31:22Z</time>
      </trkpt>
      <trkpt lat="-21.30394" lon="55.70601">
        <ele>1741.6</ele>
        <time>2013-03-25T06:31:43Z</time>
      </trkpt>
      <trkpt lat="-21.30386" lon="55.70597">
        <ele>1744.5</ele>
        <time>2013-03-25T06:32:02Z</time>
      </trkpt>
      <trkpt lat="-21.30377" lon="55.70595">
        <ele>1749</ele>
        <time>2013-03-25T06:32:21Z</time>
      </trkpt>
      <trkpt lat="-21.3037" lon="55.7059">
        <ele>1750.3</ele>
        <time>2013-03-25T06:32:37Z</time>
      </trkpt>
      <trkpt lat="-21.30365" lon="55.70582">
        <ele>1754.7</ele>
        <time>2013-03-25T06:33:02Z</time>
      </trkpt>
      <trkpt lat="-21.30358" lon="55.70577">
        <ele>1759.4</ele>
        <time>2013-03-25T06:33:23Z</time>
      </trkpt>
      <trkpt lat="-21.30351" lon="55.70572">
        <ele>1762.3</ele>
        <time>2013-03-25T06:33:44Z</time>
      </trkpt>
      <trkpt lat="-21.30342" lon="55.70569">
        <ele>1765.9</ele>
        <time>2013-03-25T06:34:00Z</time>
      </trkpt>
      <trkpt lat="-21.30334" lon="55.70569">
        <ele>1768.8</ele>
        <time>2013-03-25T06:34:17Z</time>
      </trkpt>
      <trkpt lat="-21.30326" lon="55.70566">
        <ele>1772.7</ele>
        <time>2013-03-25T06:34:37Z</time>
      </trkpt>
      <trkpt lat="-21.30317" lon="55.70564">
        <ele>1776.4</ele>
        <time>2013-03-25T06:35:00Z</time>
      </trkpt>
      <trkpt lat="-21.30309" lon="55.70563">
        <ele>1781.5</ele>
        <time>2013-03-25T06:35:26Z</time>
      </trkpt>
      <trkpt lat="-21.303" lon="55.70561">
        <ele>1787.5</ele>
        <time>2013-03-25T06:35:56Z</time>
      </trkpt>
      <trkpt lat="-21.30292" lon="55.70556">
        <ele>1790.1</ele>
        <time>2013-03-25T06:36:14Z</time>
      </trkpt>
      <trkpt lat="-21.30283" lon="55.70556">
        <ele>1792.2</ele>
        <time>2013-03-25T06:36:28Z</time>
      </trkpt>
      <trkpt lat="-21.30275" lon="55.70556">
        <ele>1794.8</ele>
        <time>2013-03-25T06:36:43Z</time>
      </trkpt>
      <trkpt lat="-21.30267" lon="55.70556">
        <ele>1797.2</ele>
        <time>2013-03-25T06:36:57Z</time>
      </trkpt>
      <trkpt lat="-21.30258" lon="55.70555">
        <ele>1799.5</ele>
        <time>2013-03-25T06:37:10Z</time>
      </trkpt>
      <trkpt lat="-21.3025" lon="55.70553">
        <ele>1803.3</ele>
        <time>2013-03-25T06:37:28Z</time>
      </trkpt>
      <trkpt lat="-21.30241" lon="55.70551">
        <ele>1807.2</ele>
        <time>2013-03-25T06:37:47Z</time>
      </trkpt>
      <trkpt lat="-21.30236" lon="55.70543">
        <ele>1810.2</ele>
        <time>2013-03-25T06:38:11Z</time>
      </trkpt>
      <trkpt lat="-21.3023" lon="55.70537">
        <ele>1816.5</ele>
        <time>2013-03-25T06:38:33Z</time>
      </trkpt>
      <trkpt lat="-21.30222" lon="55.70533">
        <ele>1825.9</ele>
        <time>2013-03-25T06:39:24Z</time>
      </trkpt>
      <trkpt lat="-21.30216" lon="55.70527">
        <ele>1829.2</ele>
        <time>2013-03-25T06:39:44Z</time>
      </trkpt>
      <trkpt lat="-21.30209" lon="55.70523">
        <ele>1831.5</ele>
        <time>2013-03-25T06:39:59Z</time>
      </trkpt>
      <trkpt lat="-21.30202" lon="55.70517">
        <ele>1834.2</ele>
        <time>2013-03-25T06:40:11Z</time>
      </trkpt>
      <trkpt lat="-21.30194" lon="55.70512">
        <ele>1836.9</ele>
        <time>2013-03-25T06:40:26Z</time>
      </trkpt>
      <trkpt lat="-21.30187" lon="55.70507">
        <ele>1840.8</ele>
        <time>2013-03-25T06:40:48Z</time>
      </trkpt>
      <trkpt lat="-21.30178" lon="55.70505">
        <ele>1844.2</ele>
        <time>2013-03-25T06:41:04Z</time>
      </trkpt>
      <trkpt lat="-21.30171" lon="55.705">
        <ele>1847.9</ele>
        <time>2013-03-25T06:41:23Z</time>
      </trkpt>
      <trkpt lat="-21.30164" lon="55.70495">
        <ele>1850.9</ele>
        <time>2013-03-25T06:41:37Z</time>
      </trkpt>
      <trkpt lat="-21.30155" lon="55.70493">
        <ele>1853.1</ele>
        <time>2013-03-25T06:41:54Z</time>
      </trkpt>
      <trkpt lat="-21.30147" lon="55.70495">
        <ele>1860.2</ele>
        <time>2013-03-25T06:42:36Z</time>
      </trkpt>
      <trkpt lat="-21.30138" lon="55.70495">
        <ele>1865.1</ele>
        <time>2013-03-25T06:43:04Z</time>
      </trkpt>
      <trkpt lat="-21.30132" lon="55.70501">
        <ele>1868.3</ele>
        <time>2013-03-25T06:43:18Z</time>
      </trkpt>
      <trkpt lat="-21.30127" lon="55.70509">
        <ele>1870.8</ele>
        <time>2013-03-25T06:43:31Z</time>
      </trkpt>
      <trkpt lat="-21.30121" lon="55.70515">
        <ele>1874</ele>
        <time>2013-03-25T06:43:46Z</time>
      </trkpt>
      <trkpt lat="-21.30115" lon="55.70522">
        <ele>1877</ele>
        <time>2013-03-25T06:44:03Z</time>
      </trkpt>
      <trkpt lat="-21.3011" lon="55.7053">
        <ele>1880.1</ele>
        <time>2013-03-25T06:44:17Z</time>
      </trkpt>
      <trkpt lat="-21.30104" lon="55.70537">
        <ele>1882.8</ele>
        <time>2013-03-25T06:44:30Z</time>
      </trkpt>
      <trkpt lat="-21.301" lon="55.70544">
        <ele>1884.1</ele>
        <time>2013-03-25T06:44:39Z</time>
      </trkpt>
      <trkpt lat="-21.30098" lon="55.70554">
        <ele>1886.2</ele>
        <time>2013-03-25T06:44:50Z</time>
      </trkpt>
      <trkpt lat="-21.30102" lon="55.70562">
        <ele>1888.1</ele>
        <time>2013-03-25T06:45:04Z</time>
      </trkpt>
      <trkpt lat="-21.30107" lon="55.7057">
        <ele>1889.9</ele>
        <time>2013-03-25T06:45:18Z</time>
      </trkpt>
      <trkpt lat="-21.30107" lon="55.70561">
        <ele>1899.4</ele>
        <time>2013-03-25T06:48:35Z</time>
      </trkpt>
      <trkpt lat="-21.30099" lon="55.70561">
        <ele>1903.7</ele>
        <time>2013-03-25T06:52:25Z</time>
      </trkpt>
      <trkpt lat="-21.30091" lon="55.70564">
        <ele>1903</ele>
        <time>2013-03-25T06:52:35Z</time>
      </trkpt>
      <trkpt lat="-21.30083" lon="55.70568">
        <ele>1903.9</ele>
        <time>2013-03-25T06:52:47Z</time>
      </trkpt>
      <trkpt lat="-21.30075" lon="55.70571">
        <ele>1906.4</ele>
        <time>2013-03-25T06:53:03Z</time>
      </trkpt>
      <trkpt lat="-21.30067" lon="55.70566">
        <ele>1910</ele>
        <time>2013-03-25T06:53:25Z</time>
      </trkpt>
      <trkpt lat="-21.30058" lon="55.70567">
        <ele>1913.5</ele>
        <time>2013-03-25T06:53:40Z</time>
      </trkpt>
      <trkpt lat="-21.30051" lon="55.7057">
        <ele>1916.3</ele>
        <time>2013-03-25T06:53:55Z</time>
      </trkpt>
      <trkpt lat="-21.30044" lon="55.70575">
        <ele>1917.5</ele>
        <time>2013-03-25T06:54:06Z</time>
      </trkpt>
      <trkpt lat="-21.30037" lon="55.70581">
        <ele>1918.3</ele>
        <time>2013-03-25T06:54:17Z</time>
      </trkpt>
      <trkpt lat="-21.30032" lon="55.70588">
        <ele>1920.2</ele>
        <time>2013-03-25T06:54:32Z</time>
      </trkpt>
      <trkpt lat="-21.30029" lon="55.70596">
        <ele>1921.2</ele>
        <time>2013-03-25T06:54:44Z</time>
      </trkpt>
      <trkpt lat="-21.30024" lon="55.70604">
        <ele>1924</ele>
        <time>2013-03-25T06:55:00Z</time>
      </trkpt>
      <trkpt lat="-21.30018" lon="55.7061">
        <ele>1926.4</ele>
        <time>2013-03-25T06:55:11Z</time>
      </trkpt>
      <trkpt lat="-21.30013" lon="55.70618">
        <ele>1928.3</ele>
        <time>2013-03-25T06:55:23Z</time>
      </trkpt>
      <trkpt lat="-21.30004" lon="55.7062">
        <ele>1931.7</ele>
        <time>2013-03-25T06:55:49Z</time>
      </trkpt>
      <trkpt lat="-21.29999" lon="55.70612">
        <ele>1935.6</ele>
        <time>2013-03-25T06:56:05Z</time>
      </trkpt>
      <trkpt lat="-21.2999" lon="55.70614">
        <ele>1936.6</ele>
        <time>2013-03-25T06:56:19Z</time>
      </trkpt>
      <trkpt lat="-21.29982" lon="55.70618">
        <ele>1940.3</ele>
        <time>2013-03-25T06:56:42Z</time>
      </trkpt>
      <trkpt lat="-21.29974" lon="55.7062">
        <ele>1943.7</ele>
        <time>2013-03-25T06:57:03Z</time>
      </trkpt>
      <trkpt lat="-21.29969" lon="55.70628">
        <ele>1944.6</ele>
        <time>2013-03-25T06:57:13Z</time>
      </trkpt>
      <trkpt lat="-21.29964" lon="55.70636">
        <ele>1945.8</ele>
        <time>2013-03-25T06:57:32Z</time>
      </trkpt>
      <trkpt lat="-21.29956" lon="55.70636">
        <ele>1951.1</ele>
        <time>2013-03-25T06:58:00Z</time>
      </trkpt>
      <trkpt lat="-21.29947" lon="55.70638">
        <ele>1954.6</ele>
        <time>2013-03-25T06:58:24Z</time>
      </trkpt>
      <trkpt lat="-21.29938" lon="55.70639">
        <ele>1959.4</ele>
        <time>2013-03-25T06:58:55Z</time>
      </trkpt>
      <trkpt lat="-21.29931" lon="55.70645">
        <ele>1963.9</ele>
        <time>2013-03-25T06:59:22Z</time>
      </trkpt>
      <trkpt lat="-21.29925" lon="55.70651">
        <ele>1965.1</ele>
        <time>2013-03-25T06:59:43Z</time>
      </trkpt>
      <trkpt lat="-21.29917" lon="55.70655">
        <ele>1967.6</ele>
        <time>2013-03-25T07:00:00Z</time>
      </trkpt>
      <trkpt lat="-21.29908" lon="55.70657">
        <ele>1971.7</ele>
        <time>2013-03-25T07:00:29Z</time>
      </trkpt>
      <trkpt lat="-21.29905" lon="55.70648">
        <ele>1975.2</ele>
        <time>2013-03-25T07:00:54Z</time>
      </trkpt>
      <trkpt lat="-21.29896" lon="55.70647">
        <ele>1978.7</ele>
        <time>2013-03-25T07:01:17Z</time>
      </trkpt>
      <trkpt lat="-21.29888" lon="55.70649">
        <ele>1983.1</ele>
        <time>2013-03-25T07:01:48Z</time>
      </trkpt>
      <trkpt lat="-21.2988" lon="55.70653">
        <ele>1985.8</ele>
        <time>2013-03-25T07:02:03Z</time>
      </trkpt>
      <trkpt lat="-21.29871" lon="55.70653">
        <ele>1987.7</ele>
        <time>2013-03-25T07:02:22Z</time>
      </trkpt>
      <trkpt lat="-21.29863" lon="55.70652">
        <ele>1990.7</ele>
        <time>2013-03-25T07:02:39Z</time>
      </trkpt>
      <trkpt lat="-21.29858" lon="55.70644">
        <ele>1993.2</ele>
        <time>2013-03-25T07:03:04Z</time>
      </trkpt>
      <trkpt lat="-21.29857" lon="55.70635">
        <ele>1995.7</ele>
        <time>2013-03-25T07:03:22Z</time>
      </trkpt>
      <trkpt lat="-21.29851" lon="55.70628">
        <ele>1998.2</ele>
        <time>2013-03-25T07:03:43Z</time>
      </trkpt>
      <trkpt lat="-21.29845" lon="55.70621">
        <ele>2001.6</ele>
        <time>2013-03-25T07:04:05Z</time>
      </trkpt>
      <trkpt lat="-21.29836" lon="55.70621">
        <ele>2006.5</ele>
        <time>2013-03-25T07:04:38Z</time>
      </trkpt>
      <trkpt lat="-21.29829" lon="55.70627">
        <ele>2008.4</ele>
        <time>2013-03-25T07:04:59Z</time>
      </trkpt>
      <trkpt lat="-21.29821" lon="55.70624">
        <ele>2011.7</ele>
        <time>2013-03-25T07:05:16Z</time>
      </trkpt>
      <trkpt lat="-21.29814" lon="55.70618">
        <ele>2014</ele>
        <time>2013-03-25T07:05:35Z</time>
      </trkpt>
      <trkpt lat="-21.29811" lon="55.7061">
        <ele>2015.5</ele>
        <time>2013-03-25T07:05:50Z</time>
      </trkpt>
      <trkpt lat="-21.2981" lon="55.70601">
        <ele>2017.9</ele>
        <time>2013-03-25T07:06:05Z</time>
      </trkpt>
      <trkpt lat="-21.29804" lon="55.70594">
        <ele>2019.2</ele>
        <time>2013-03-25T07:06:21Z</time>
      </trkpt>
      <trkpt lat="-21.29797" lon="55.70589">
        <ele>2020.7</ele>
        <time>2013-03-25T07:06:35Z</time>
      </trkpt>
      <trkpt lat="-21.29788" lon="55.70588">
        <ele>2024.9</ele>
        <time>2013-03-25T07:06:51Z</time>
      </trkpt>
      <trkpt lat="-21.2978" lon="55.70585">
        <ele>2026.9</ele>
        <time>2013-03-25T07:07:06Z</time>
      </trkpt>
      <trkpt lat="-21.29772" lon="55.70588">
        <ele>2028.5</ele>
        <time>2013-03-25T07:07:22Z</time>
      </trkpt>
      <trkpt lat="-21.29763" lon="55.70584">
        <ele>2029.9</ele>
        <time>2013-03-25T07:07:38Z</time>
      </trkpt>
      <trkpt lat="-21.29755" lon="55.70585">
        <ele>2031.8</ele>
        <time>2013-03-25T07:07:52Z</time>
      </trkpt>
      <trkpt lat="-21.29746" lon="55.70581">
        <ele>2034.8</ele>
        <time>2013-03-25T07:08:13Z</time>
      </trkpt>
      <trkpt lat="-21.29739" lon="55.70576">
        <ele>2037.3</ele>
        <time>2013-03-25T07:08:30Z</time>
      </trkpt>
      <trkpt lat="-21.29731" lon="55.70572">
        <ele>2041</ele>
        <time>2013-03-25T07:08:54Z</time>
      </trkpt>
      <trkpt lat="-21.29724" lon="55.70566">
        <ele>2043.3</ele>
        <time>2013-03-25T07:09:12Z</time>
      </trkpt>
      <trkpt lat="-21.29716" lon="55.70564">
        <ele>2046.7</ele>
        <time>2013-03-25T07:09:38Z</time>
      </trkpt>
      <trkpt lat="-21.29711" lon="55.70556">
        <ele>2050.2</ele>
        <time>2013-03-25T07:10:05Z</time>
      </trkpt>
      <trkpt lat="-21.29705" lon="55.70549">
        <ele>2053.4</ele>
        <time>2013-03-25T07:10:28Z</time>
      </trkpt>
      <trkpt lat="-21.29697" lon="55.70545">
        <ele>2054.7</ele>
        <time>2013-03-25T07:10:44Z</time>
      </trkpt>
      <trkpt lat="-21.2969" lon="55.70539">
        <ele>2058.1</ele>
        <time>2013-03-25T07:11:05Z</time>
      </trkpt>
      <trkpt lat="-21.29683" lon="55.70533">
        <ele>2059.9</ele>
        <time>2013-03-25T07:11:19Z</time>
      </trkpt>
      <trkpt lat="-21.29675" lon="55.70532">
        <ele>2061</ele>
        <time>2013-03-25T07:11:32Z</time>
      </trkpt>
      <trkpt lat="-21.29667" lon="55.70532">
        <ele>2063.8</ele>
        <time>2013-03-25T07:11:48Z</time>
      </trkpt>
      <trkpt lat="-21.2966" lon="55.70537">
        <ele>2064.4</ele>
        <time>2013-03-25T07:11:58Z</time>
      </trkpt>
      <trkpt lat="-21.29652" lon="55.70541">
        <ele>2065.9</ele>
        <time>2013-03-25T07:12:13Z</time>
      </trkpt>
      <trkpt lat="-21.29646" lon="55.70534">
        <ele>2067.8</ele>
        <time>2013-03-25T07:12:25Z</time>
      </trkpt>
      <trkpt lat="-21.29644" lon="55.70525">
        <ele>2068</ele>
        <time>2013-03-25T07:12:35Z</time>
      </trkpt>
      <trkpt lat="-21.2964" lon="55.70518">
        <ele>2068.2</ele>
        <time>2013-03-25T07:12:43Z</time>
      </trkpt>
      <trkpt lat="-21.29632" lon="55.70514">
        <ele>2067.5</ele>
        <time>2013-03-25T07:12:51Z</time>
      </trkpt>
      <trkpt lat="-21.29627" lon="55.70507">
        <ele>2067.8</ele>
        <time>2013-03-25T07:12:59Z</time>
      </trkpt>
      <trkpt lat="-21.29619" lon="55.70505">
        <ele>2067.6</ele>
        <time>2013-03-25T07:13:07Z</time>
      </trkpt>
      <trkpt lat="-21.29611" lon="55.70503">
        <ele>2068.2</ele>
        <time>2013-03-25T07:13:15Z</time>
      </trkpt>
      <trkpt lat="-21.29603" lon="55.70501">
        <ele>2069.1</ele>
        <time>2013-03-25T07:13:25Z</time>
      </trkpt>
      <trkpt lat="-21.29595" lon="55.70506">
        <ele>2070.4</ele>
        <time>2013-03-25T07:13:37Z</time>
      </trkpt>
      <trkpt lat="-21.29589" lon="55.70499">
        <ele>2072</ele>
        <time>2013-03-25T07:13:51Z</time>
      </trkpt>
      <trkpt lat="-21.29582" lon="55.70495">
        <ele>2071.6</ele>
        <time>2013-03-25T07:14:00Z</time>
      </trkpt>
      <trkpt lat="-21.29573" lon="55.70496">
        <ele>2073</ele>
        <time>2013-03-25T07:14:07Z</time>
      </trkpt>
      <trkpt lat="-21.29565" lon="55.70493">
        <ele>2072.3</ele>
        <time>2013-03-25T07:14:16Z</time>
      </trkpt>
      <trkpt lat="-21.29558" lon="55.70487">
        <ele>2072.4</ele>
        <time>2013-03-25T07:14:25Z</time>
      </trkpt>
      <trkpt lat="-21.29549" lon="55.70486">
        <ele>2072.7</ele>
        <time>2013-03-25T07:14:33Z</time>
      </trkpt>
      <trkpt lat="-21.29541" lon="55.70487">
        <ele>2072.2</ele>
        <time>2013-03-25T07:14:41Z</time>
      </trkpt>
      <trkpt lat="-21.29532" lon="55.70487">
        <ele>2071.8</ele>
        <time>2013-03-25T07:14:48Z</time>
      </trkpt>
      <trkpt lat="-21.29525" lon="55.70491">
        <ele>2072</ele>
        <time>2013-03-25T07:14:55Z</time>
      </trkpt>
      <trkpt lat="-21.29519" lon="55.70498">
        <ele>2071.6</ele>
        <time>2013-03-25T07:15:02Z</time>
      </trkpt>
      <trkpt lat="-21.29515" lon="55.70506">
        <ele>2072</ele>
        <time>2013-03-25T07:15:09Z</time>
      </trkpt>
      <trkpt lat="-21.2951" lon="55.70514">
        <ele>2072.1</ele>
        <time>2013-03-25T07:15:17Z</time>
      </trkpt>
      <trkpt lat="-21.29506" lon="55.70522">
        <ele>2070.8</ele>
        <time>2013-03-25T07:15:25Z</time>
      </trkpt>
      <trkpt lat="-21.29501" lon="55.70528">
        <ele>2070.7</ele>
        <time>2013-03-25T07:15:30Z</time>
      </trkpt>
      <trkpt lat="-21.29496" lon="55.70536">
        <ele>2070.1</ele>
        <time>2013-03-25T07:15:36Z</time>
      </trkpt>
      <trkpt lat="-21.2949" lon="55.70543">
        <ele>2070.5</ele>
        <time>2013-03-25T07:15:43Z</time>
      </trkpt>
      <trkpt lat="-21.29484" lon="55.70548">
        <ele>2070.1</ele>
        <time>2013-03-25T07:15:50Z</time>
      </trkpt>
      <trkpt lat="-21.29477" lon="55.70554">
        <ele>2070.9</ele>
        <time>2013-03-25T07:15:57Z</time>
      </trkpt>
      <trkpt lat="-21.29471" lon="55.7056">
        <ele>2070.5</ele>
        <time>2013-03-25T07:16:02Z</time>
      </trkpt>
      <trkpt lat="-21.29464" lon="55.70563">
        <ele>2071.5</ele>
        <time>2013-03-25T07:16:08Z</time>
      </trkpt>
      <trkpt lat="-21.29456" lon="55.70567">
        <ele>2071.1</ele>
        <time>2013-03-25T07:16:14Z</time>
      </trkpt>
      <trkpt lat="-21.29449" lon="55.70569">
        <ele>2070.2</ele>
        <time>2013-03-25T07:16:19Z</time>
      </trkpt>
      <trkpt lat="-21.2944" lon="55.70569">
        <ele>2070.7</ele>
        <time>2013-03-25T07:16:25Z</time>
      </trkpt>
      <trkpt lat="-21.29432" lon="55.7057">
        <ele>2070.3</ele>
        <time>2013-03-25T07:16:32Z</time>
      </trkpt>
      <trkpt lat="-21.29423" lon="55.70572">
        <ele>2070.3</ele>
        <time>2013-03-25T07:16:38Z</time>
      </trkpt>
      <trkpt lat="-21.29416" lon="55.70572">
        <ele>2069.8</ele>
        <time>2013-03-25T07:16:43Z</time>
      </trkpt>
      <trkpt lat="-21.29408" lon="55.70572">
        <ele>2069.3</ele>
        <time>2013-03-25T07:16:48Z</time>
      </trkpt>
      <trkpt lat="-21.29401" lon="55.70571">
        <ele>2068.1</ele>
        <time>2013-03-25T07:16:53Z</time>
      </trkpt>
      <trkpt lat="-21.29393" lon="55.70568">
        <ele>2066.8</ele>
        <time>2013-03-25T07:17:00Z</time>
      </trkpt>
      <trkpt lat="-21.29386" lon="55.70563">
        <ele>2067.4</ele>
        <time>2013-03-25T07:17:08Z</time>
      </trkpt>
      <trkpt lat="-21.29381" lon="55.70556">
        <ele>2068.6</ele>
        <time>2013-03-25T07:17:16Z</time>
      </trkpt>
      <trkpt lat="-21.29375" lon="55.70549">
        <ele>2069.7</ele>
        <time>2013-03-25T07:17:25Z</time>
      </trkpt>
      <trkpt lat="-21.29368" lon="55.70544">
        <ele>2071.4</ele>
        <time>2013-03-25T07:17:37Z</time>
      </trkpt>
      <trkpt lat="-21.29365" lon="55.70535">
        <ele>2073.8</ele>
        <time>2013-03-25T07:17:45Z</time>
      </trkpt>
      <trkpt lat="-21.29364" lon="55.70526">
        <ele>2074.6</ele>
        <time>2013-03-25T07:17:52Z</time>
      </trkpt>
      <trkpt lat="-21.29363" lon="55.70517">
        <ele>2075.8</ele>
        <time>2013-03-25T07:18:01Z</time>
      </trkpt>
      <trkpt lat="-21.29361" lon="55.70509">
        <ele>2075.7</ele>
        <time>2013-03-25T07:18:09Z</time>
      </trkpt>
      <trkpt lat="-21.2936" lon="55.705">
        <ele>2076.3</ele>
        <time>2013-03-25T07:18:16Z</time>
      </trkpt>
      <trkpt lat="-21.29362" lon="55.70491">
        <ele>2077.4</ele>
        <time>2013-03-25T07:18:24Z</time>
      </trkpt>
      <trkpt lat="-21.29364" lon="55.70482">
        <ele>2078.5</ele>
        <time>2013-03-25T07:18:33Z</time>
      </trkpt>
      <trkpt lat="-21.29362" lon="55.70473">
        <ele>2076.5</ele>
        <time>2013-03-25T07:18:41Z</time>
      </trkpt>
      <trkpt lat="-21.29361" lon="55.70465">
        <ele>2074</ele>
        <time>2013-03-25T07:18:47Z</time>
      </trkpt>
      <trkpt lat="-21.2936" lon="55.70456">
        <ele>2071.7</ele>
        <time>2013-03-25T07:18:53Z</time>
      </trkpt>
      <trkpt lat="-21.29357" lon="55.70447">
        <ele>2070.6</ele>
        <time>2013-03-25T07:18:59Z</time>
      </trkpt>
      <trkpt lat="-21.29353" lon="55.7044">
        <ele>2069.5</ele>
        <time>2013-03-25T07:19:04Z</time>
      </trkpt>
      <trkpt lat="-21.29348" lon="55.70433">
        <ele>2070.1</ele>
        <time>2013-03-25T07:19:10Z</time>
      </trkpt>
      <trkpt lat="-21.29344" lon="55.70425">
        <ele>2070.4</ele>
        <time>2013-03-25T07:19:17Z</time>
      </trkpt>
      <trkpt lat="-21.29337" lon="55.70421">
        <ele>2071</ele>
        <time>2013-03-25T07:19:24Z</time>
      </trkpt>
      <trkpt lat="-21.29329" lon="55.70419">
        <ele>2070.5</ele>
        <time>2013-03-25T07:19:30Z</time>
      </trkpt>
      <trkpt lat="-21.29322" lon="55.70413">
        <ele>2070.9</ele>
        <time>2013-03-25T07:19:36Z</time>
      </trkpt>
      <trkpt lat="-21.29316" lon="55.70408">
        <ele>2069.9</ele>
        <time>2013-03-25T07:19:42Z</time>
      </trkpt>
      <trkpt lat="-21.2931" lon="55.70402">
        <ele>2068.7</ele>
        <time>2013-03-25T07:19:49Z</time>
      </trkpt>
      <trkpt lat="-21.29306" lon="55.70395">
        <ele>2069.5</ele>
        <time>2013-03-25T07:19:57Z</time>
      </trkpt>
      <trkpt lat="-21.29297" lon="55.70393">
        <ele>2068.4</ele>
        <time>2013-03-25T07:20:05Z</time>
      </trkpt>
      <trkpt lat="-21.29291" lon="55.70387">
        <ele>2069.2</ele>
        <time>2013-03-25T07:20:14Z</time>
      </trkpt>
      <trkpt lat="-21.29287" lon="55.70379">
        <ele>2069.9</ele>
        <time>2013-03-25T07:20:21Z</time>
      </trkpt>
      <trkpt lat="-21.29278" lon="55.70377">
        <ele>2070.4</ele>
        <time>2013-03-25T07:20:29Z</time>
      </trkpt>
      <trkpt lat="-21.2927" lon="55.70374">
        <ele>2071.2</ele>
        <time>2013-03-25T07:20:36Z</time>
      </trkpt>
      <trkpt lat="-21.29262" lon="55.70374">
        <ele>2071.3</ele>
        <time>2013-03-25T07:20:44Z</time>
      </trkpt>
      <trkpt lat="-21.29253" lon="55.70372">
        <ele>2072.4</ele>
        <time>2013-03-25T07:20:53Z</time>
      </trkpt>
      <trkpt lat="-21.29245" lon="55.70372">
        <ele>2072.8</ele>
        <time>2013-03-25T07:21:00Z</time>
      </trkpt>
      <trkpt lat="-21.29237" lon="55.70371">
        <ele>2073.7</ele>
        <time>2013-03-25T07:21:07Z</time>
      </trkpt>
      <trkpt lat="-21.29229" lon="55.70366">
        <ele>2073.8</ele>
        <time>2013-03-25T07:21:14Z</time>
      </trkpt>
      <trkpt lat="-21.29221" lon="55.70362">
        <ele>2072.5</ele>
        <time>2013-03-25T07:21:23Z</time>
      </trkpt>
      <trkpt lat="-21.29214" lon="55.70357">
        <ele>2075.1</ele>
        <time>2013-03-25T07:21:39Z</time>
      </trkpt>
      <trkpt lat="-21.29208" lon="55.70351">
        <ele>2075.6</ele>
        <time>2013-03-25T07:21:46Z</time>
      </trkpt>
      <trkpt lat="-21.29202" lon="55.70345">
        <ele>2076.1</ele>
        <time>2013-03-25T07:21:53Z</time>
      </trkpt>
      <trkpt lat="-21.29198" lon="55.70337">
        <ele>2077.2</ele>
        <time>2013-03-25T07:22:02Z</time>
      </trkpt>
      <trkpt lat="-21.29195" lon="55.70329">
        <ele>2078.2</ele>
        <time>2013-03-25T07:22:12Z</time>
      </trkpt>
      <trkpt lat="-21.29193" lon="55.7032">
        <ele>2078.6</ele>
        <time>2013-03-25T07:22:21Z</time>
      </trkpt>
      <trkpt lat="-21.29187" lon="55.70314">
        <ele>2081</ele>
        <time>2013-03-25T07:22:30Z</time>
      </trkpt>
      <trkpt lat="-21.29178" lon="55.70314">
        <ele>2080.2</ele>
        <time>2013-03-25T07:22:37Z</time>
      </trkpt>
      <trkpt lat="-21.2917" lon="55.70313">
        <ele>2080.5</ele>
        <time>2013-03-25T07:22:43Z</time>
      </trkpt>
      <trkpt lat="-21.29162" lon="55.70314">
        <ele>2078.1</ele>
        <time>2013-03-25T07:22:49Z</time>
      </trkpt>
      <trkpt lat="-21.29154" lon="55.70314">
        <ele>2077.9</ele>
        <time>2013-03-25T07:22:55Z</time>
      </trkpt>
      <trkpt lat="-21.29146" lon="55.70314">
        <ele>2079.1</ele>
        <time>2013-03-25T07:23:01Z</time>
      </trkpt>
      <trkpt lat="-21.29138" lon="55.70316">
        <ele>2080</ele>
        <time>2013-03-25T07:23:07Z</time>
      </trkpt>
      <trkpt lat="-21.2913" lon="55.70318">
        <ele>2079.1</ele>
        <time>2013-03-25T07:23:15Z</time>
      </trkpt>
      <trkpt lat="-21.29121" lon="55.70316">
        <ele>2079.1</ele>
        <time>2013-03-25T07:23:24Z</time>
      </trkpt>
      <trkpt lat="-21.29113" lon="55.70318">
        <ele>2079.6</ele>
        <time>2013-03-25T07:23:34Z</time>
      </trkpt>
      <trkpt lat="-21.29104" lon="55.70321">
        <ele>2080.4</ele>
        <time>2013-03-25T07:23:43Z</time>
      </trkpt>
      <trkpt lat="-21.29096" lon="55.70318">
        <ele>2081.5</ele>
        <time>2013-03-25T07:23:54Z</time>
      </trkpt>
      <trkpt lat="-21.29088" lon="55.70318">
        <ele>2082</ele>
        <time>2013-03-25T07:24:03Z</time>
      </trkpt>
      <trkpt lat="-21.29079" lon="55.70317">
        <ele>2084</ele>
        <time>2013-03-25T07:24:15Z</time>
      </trkpt>
      <trkpt lat="-21.29071" lon="55.70315">
        <ele>2086.8</ele>
        <time>2013-03-25T07:24:30Z</time>
      </trkpt>
      <trkpt lat="-21.29063" lon="55.70313">
        <ele>2088.8</ele>
        <time>2013-03-25T07:24:40Z</time>
      </trkpt>
      <trkpt lat="-21.29055" lon="55.70313">
        <ele>2089.5</ele>
        <time>2013-03-25T07:24:51Z</time>
      </trkpt>
      <trkpt lat="-21.29047" lon="55.70316">
        <ele>2090.4</ele>
        <time>2013-03-25T07:25:00Z</time>
      </trkpt>
      <trkpt lat="-21.29038" lon="55.70317">
        <ele>2091.2</ele>
        <time>2013-03-25T07:25:10Z</time>
      </trkpt>
      <trkpt lat="-21.2903" lon="55.70316">
        <ele>2091.4</ele>
        <time>2013-03-25T07:25:17Z</time>
      </trkpt>
      <trkpt lat="-21.29022" lon="55.70311">
        <ele>2090.6</ele>
        <time>2013-03-25T07:25:27Z</time>
      </trkpt>
      <trkpt lat="-21.29015" lon="55.70308">
        <ele>2093</ele>
        <time>2013-03-25T07:25:35Z</time>
      </trkpt>
      <trkpt lat="-21.29006" lon="55.70306">
        <ele>2094.1</ele>
        <time>2013-03-25T07:25:44Z</time>
      </trkpt>
      <trkpt lat="-21.28997" lon="55.70305">
        <ele>2095.2</ele>
        <time>2013-03-25T07:25:52Z</time>
      </trkpt>
      <trkpt lat="-21.2899" lon="55.70309">
        <ele>2094.5</ele>
        <time>2013-03-25T07:26:02Z</time>
      </trkpt>
      <trkpt lat="-21.28982" lon="55.70314">
        <ele>2095.8</ele>
        <time>2013-03-25T07:26:14Z</time>
      </trkpt>
      <trkpt lat="-21.28974" lon="55.70316">
        <ele>2097.2</ele>
        <time>2013-03-25T07:26:26Z</time>
      </trkpt>
      <trkpt lat="-21.28966" lon="55.70313">
        <ele>2098</ele>
        <time>2013-03-25T07:26:35Z</time>
      </trkpt>
      <trkpt lat="-21.2896" lon="55.70306">
        <ele>2099.8</ele>
        <time>2013-03-25T07:26:48Z</time>
      </trkpt>
      <trkpt lat="-21.28954" lon="55.70298">
        <ele>2100.3</ele>
        <time>2013-03-25T07:27:06Z</time>
      </trkpt>
      <trkpt lat="-21.28946" lon="55.70297">
        <ele>2101.7</ele>
        <time>2013-03-25T07:27:17Z</time>
      </trkpt>
      <trkpt lat="-21.28937" lon="55.70297">
        <ele>2103.6</ele>
        <time>2013-03-25T07:27:31Z</time>
      </trkpt>
      <trkpt lat="-21.28929" lon="55.70297">
        <ele>2104.4</ele>
        <time>2013-03-25T07:27:41Z</time>
      </trkpt>
      <trkpt lat="-21.28921" lon="55.70293">
        <ele>2107.4</ele>
        <time>2013-03-25T07:27:54Z</time>
      </trkpt>
      <trkpt lat="-21.28913" lon="55.70294">
        <ele>2107</ele>
        <time>2013-03-25T07:28:07Z</time>
      </trkpt>
      <trkpt lat="-21.28904" lon="55.70296">
        <ele>2109.3</ele>
        <time>2013-03-25T07:28:19Z</time>
      </trkpt>
      <trkpt lat="-21.28896" lon="55.70294">
        <ele>2110.3</ele>
        <time>2013-03-25T07:28:28Z</time>
      </trkpt>
      <trkpt lat="-21.28887" lon="55.70294">
        <ele>2110.3</ele>
        <time>2013-03-25T07:28:36Z</time>
      </trkpt>
      <trkpt lat="-21.28879" lon="55.70292">
        <ele>2109.4</ele>
        <time>2013-03-25T07:28:44Z</time>
      </trkpt>
      <trkpt lat="-21.28871" lon="55.70292">
        <ele>2111</ele>
        <time>2013-03-25T07:28:56Z</time>
      </trkpt>
      <trkpt lat="-21.28862" lon="55.70292">
        <ele>2113.4</ele>
        <time>2013-03-25T07:29:11Z</time>
      </trkpt>
      <trkpt lat="-21.28855" lon="55.70286">
        <ele>2117.5</ele>
        <time>2013-03-25T07:29:26Z</time>
      </trkpt>
      <trkpt lat="-21.2885" lon="55.70279">
        <ele>2118.9</ele>
        <time>2013-03-25T07:29:39Z</time>
      </trkpt>
      <trkpt lat="-21.28843" lon="55.70273">
        <ele>2120.6</ele>
        <time>2013-03-25T07:29:53Z</time>
      </trkpt>
      <trkpt lat="-21.28837" lon="55.70266">
        <ele>2120.7</ele>
        <time>2013-03-25T07:30:08Z</time>
      </trkpt>
      <trkpt lat="-21.28829" lon="55.70263">
        <ele>2119.3</ele>
        <time>2013-03-25T07:30:17Z</time>
      </trkpt>
      <trkpt lat="-21.28821" lon="55.70259">
        <ele>2122.2</ele>
        <time>2013-03-25T07:30:29Z</time>
      </trkpt>
      <trkpt lat="-21.28814" lon="55.70254">
        <ele>2122.9</ele>
        <time>2013-03-25T07:30:39Z</time>
      </trkpt>
      <trkpt lat="-21.28805" lon="55.70252">
        <ele>2124.8</ele>
        <time>2013-03-25T07:30:48Z</time>
      </trkpt>
      <trkpt lat="-21.28797" lon="55.70248">
        <ele>2125.3</ele>
        <time>2013-03-25T07:30:56Z</time>
      </trkpt>
      <trkpt lat="-21.28791" lon="55.70242">
        <ele>2125.1</ele>
        <time>2013-03-25T07:31:05Z</time>
      </trkpt>
      <trkpt lat="-21.28787" lon="55.70234">
        <ele>2125.6</ele>
        <time>2013-03-25T07:31:14Z</time>
      </trkpt>
      <trkpt lat="-21.28779" lon="55.70229">
        <ele>2126.8</ele>
        <time>2013-03-25T07:31:26Z</time>
      </trkpt>
      <trkpt lat="-21.28772" lon="55.70225">
        <ele>2127.3</ele>
        <time>2013-03-25T07:31:34Z</time>
      </trkpt>
      <trkpt lat="-21.28768" lon="55.70217">
        <ele>2127.6</ele>
        <time>2013-03-25T07:31:45Z</time>
      </trkpt>
      <trkpt lat="-21.28763" lon="55.70209">
        <ele>2128.9</ele>
        <time>2013-03-25T07:31:55Z</time>
      </trkpt>
      <trkpt lat="-21.28757" lon="55.70202">
        <ele>2129.6</ele>
        <time>2013-03-25T07:32:07Z</time>
      </trkpt>
      <trkpt lat="-21.2875" lon="55.70196">
        <ele>2131.5</ele>
        <time>2013-03-25T07:32:19Z</time>
      </trkpt>
      <trkpt lat="-21.28742" lon="55.70195">
        <ele>2133.3</ele>
        <time>2013-03-25T07:32:28Z</time>
      </trkpt>
      <trkpt lat="-21.28734" lon="55.70193">
        <ele>2133.6</ele>
        <time>2013-03-25T07:32:36Z</time>
      </trkpt>
      <trkpt lat="-21.28726" lon="55.70193">
        <ele>2135.6</ele>
        <time>2013-03-25T07:32:50Z</time>
      </trkpt>
      <trkpt lat="-21.28718" lon="55.70199">
        <ele>2136.5</ele>
        <time>2013-03-25T07:33:03Z</time>
      </trkpt>
      <trkpt lat="-21.2871" lon="55.70199">
        <ele>2138.8</ele>
        <time>2013-03-25T07:33:18Z</time>
      </trkpt>
      <trkpt lat="-21.28701" lon="55.70195">
        <ele>2140.7</ele>
        <time>2013-03-25T07:33:33Z</time>
      </trkpt>
      <trkpt lat="-21.28696" lon="55.70188">
        <ele>2141.9</ele>
        <time>2013-03-25T07:33:48Z</time>
      </trkpt>
      <trkpt lat="-21.28688" lon="55.70183">
        <ele>2143.7</ele>
        <time>2013-03-25T07:33:58Z</time>
      </trkpt>
      <trkpt lat="-21.2868" lon="55.70178">
        <ele>2145</ele>
        <time>2013-03-25T07:34:09Z</time>
      </trkpt>
      <trkpt lat="-21.28673" lon="55.70172">
        <ele>2147.1</ele>
        <time>2013-03-25T07:34:23Z</time>
      </trkpt>
      <trkpt lat="-21.28665" lon="55.70173">
        <ele>2146.7</ele>
        <time>2013-03-25T07:34:32Z</time>
      </trkpt>
      <trkpt lat="-21.28657" lon="55.7017">
        <ele>2148</ele>
        <time>2013-03-25T07:34:42Z</time>
      </trkpt>
      <trkpt lat="-21.28649" lon="55.70166">
        <ele>2149.7</ele>
        <time>2013-03-25T07:34:53Z</time>
      </trkpt>
      <trkpt lat="-21.28641" lon="55.70165">
        <ele>2149.8</ele>
        <time>2013-03-25T07:35:02Z</time>
      </trkpt>
      <trkpt lat="-21.28632" lon="55.70165">
        <ele>2151</ele>
        <time>2013-03-25T07:35:12Z</time>
      </trkpt>
      <trkpt lat="-21.28624" lon="55.70163">
        <ele>2152.1</ele>
        <time>2013-03-25T07:35:23Z</time>
      </trkpt>
      <trkpt lat="-21.28615" lon="55.70163">
        <ele>2152.9</ele>
        <time>2013-03-25T07:35:32Z</time>
      </trkpt>
      <trkpt lat="-21.28607" lon="55.70163">
        <ele>2153.4</ele>
        <time>2013-03-25T07:35:41Z</time>
      </trkpt>
      <trkpt lat="-21.28598" lon="55.70162">
        <ele>2155.4</ele>
        <time>2013-03-25T07:35:51Z</time>
      </trkpt>
      <trkpt lat="-21.28592" lon="55.70155">
        <ele>2156.7</ele>
        <time>2013-03-25T07:36:03Z</time>
      </trkpt>
      <trkpt lat="-21.28585" lon="55.7015">
        <ele>2157</ele>
        <time>2013-03-25T07:36:13Z</time>
      </trkpt>
      <trkpt lat="-21.28578" lon="55.70146">
        <ele>2157.7</ele>
        <time>2013-03-25T07:36:21Z</time>
      </trkpt>
      <trkpt lat="-21.28571" lon="55.70141">
        <ele>2157.4</ele>
        <time>2013-03-25T07:36:29Z</time>
      </trkpt>
      <trkpt lat="-21.28565" lon="55.70135">
        <ele>2159.4</ele>
        <time>2013-03-25T07:36:36Z</time>
      </trkpt>
      <trkpt lat="-21.28559" lon="55.70131">
        <ele>2159.4</ele>
        <time>2013-03-25T07:36:42Z</time>
      </trkpt>
      <trkpt lat="-21.28552" lon="55.70126">
        <ele>2159.2</ele>
        <time>2013-03-25T07:36:49Z</time>
      </trkpt>
      <trkpt lat="-21.28544" lon="55.70122">
        <ele>2160.3</ele>
        <time>2013-03-25T07:36:56Z</time>
      </trkpt>
      <trkpt lat="-21.28536" lon="55.7012">
        <ele>2159.3</ele>
        <time>2013-03-25T07:37:03Z</time>
      </trkpt>
      <trkpt lat="-21.28528" lon="55.70115">
        <ele>2161</ele>
        <time>2013-03-25T07:37:10Z</time>
      </trkpt>
      <trkpt lat="-21.28524" lon="55.70107">
        <ele>2161.1</ele>
        <time>2013-03-25T07:37:18Z</time>
      </trkpt>
      <trkpt lat="-21.28521" lon="55.70099">
        <ele>2161.3</ele>
        <time>2013-03-25T07:37:25Z</time>
      </trkpt>
      <trkpt lat="-21.28517" lon="55.7009">
        <ele>2161.6</ele>
        <time>2013-03-25T07:37:33Z</time>
      </trkpt>
      <trkpt lat="-21.28513" lon="55.70083">
        <ele>2162.7</ele>
        <time>2013-03-25T07:37:41Z</time>
      </trkpt>
      <trkpt lat="-21.28506" lon="55.70077">
        <ele>2162.6</ele>
        <time>2013-03-25T07:37:48Z</time>
      </trkpt>
      <trkpt lat="-21.28503" lon="55.70069">
        <ele>2163.7</ele>
        <time>2013-03-25T07:37:56Z</time>
      </trkpt>
      <trkpt lat="-21.28497" lon="55.70062">
        <ele>2164.2</ele>
        <time>2013-03-25T07:38:04Z</time>
      </trkpt>
      <trkpt lat="-21.28491" lon="55.70056">
        <ele>2165.3</ele>
        <time>2013-03-25T07:38:14Z</time>
      </trkpt>
      <trkpt lat="-21.28485" lon="55.7005">
        <ele>2165.7</ele>
        <time>2013-03-25T07:38:22Z</time>
      </trkpt>
      <trkpt lat="-21.28478" lon="55.70046">
        <ele>2166.7</ele>
        <time>2013-03-25T07:38:28Z</time>
      </trkpt>
      <trkpt lat="-21.28471" lon="55.70042">
        <ele>2166.9</ele>
        <time>2013-03-25T07:38:35Z</time>
      </trkpt>
      <trkpt lat="-21.28464" lon="55.70039">
        <ele>2167.2</ele>
        <time>2013-03-25T07:38:41Z</time>
      </trkpt>
      <trkpt lat="-21.28456" lon="55.70036">
        <ele>2167.7</ele>
        <time>2013-03-25T07:38:47Z</time>
      </trkpt>
      <trkpt lat="-21.28448" lon="55.70034">
        <ele>2168.1</ele>
        <time>2013-03-25T07:38:54Z</time>
      </trkpt>
      <trkpt lat="-21.2844" lon="55.70031">
        <ele>2167.7</ele>
        <time>2013-03-25T07:39:01Z</time>
      </trkpt>
      <trkpt lat="-21.28431" lon="55.70029">
        <ele>2168.7</ele>
        <time>2013-03-25T07:39:10Z</time>
      </trkpt>
      <trkpt lat="-21.28423" lon="55.70029">
        <ele>2169.9</ele>
        <time>2013-03-25T07:39:18Z</time>
      </trkpt>
      <trkpt lat="-21.28414" lon="55.70031">
        <ele>2169.9</ele>
        <time>2013-03-25T07:39:27Z</time>
      </trkpt>
      <trkpt lat="-21.28405" lon="55.7003">
        <ele>2173.2</ele>
        <time>2013-03-25T07:39:40Z</time>
      </trkpt>
      <trkpt lat="-21.28397" lon="55.70027">
        <ele>2174.8</ele>
        <time>2013-03-25T07:39:49Z</time>
      </trkpt>
      <trkpt lat="-21.28389" lon="55.70026">
        <ele>2176.2</ele>
        <time>2013-03-25T07:40:00Z</time>
      </trkpt>
      <trkpt lat="-21.28382" lon="55.70021">
        <ele>2175.9</ele>
        <time>2013-03-25T07:40:08Z</time>
      </trkpt>
      <trkpt lat="-21.28374" lon="55.70017">
        <ele>2178.4</ele>
        <time>2013-03-25T07:40:20Z</time>
      </trkpt>
      <trkpt lat="-21.28366" lon="55.70016">
        <ele>2179.1</ele>
        <time>2013-03-25T07:40:28Z</time>
      </trkpt>
      <trkpt lat="-21.28358" lon="55.70016">
        <ele>2178.8</ele>
        <time>2013-03-25T07:40:37Z</time>
      </trkpt>
      <trkpt lat="-21.2835" lon="55.70014">
        <ele>2179.6</ele>
        <time>2013-03-25T07:40:45Z</time>
      </trkpt>
      <trkpt lat="-21.28343" lon="55.70011">
        <ele>2180.7</ele>
        <time>2013-03-25T07:40:52Z</time>
      </trkpt>
      <trkpt lat="-21.28335" lon="55.70008">
        <ele>2181.8</ele>
        <time>2013-03-25T07:41:00Z</time>
      </trkpt>
      <trkpt lat="-21.28329" lon="55.70001">
        <ele>2181.6</ele>
        <time>2013-03-25T07:41:11Z</time>
      </trkpt>
      <trkpt lat="-21.2832" lon="55.70003">
        <ele>2183.3</ele>
        <time>2013-03-25T07:41:21Z</time>
      </trkpt>
      <trkpt lat="-21.28312" lon="55.70005">
        <ele>2183.8</ele>
        <time>2013-03-25T07:41:35Z</time>
      </trkpt>
      <trkpt lat="-21.28303" lon="55.70002">
        <ele>2185.2</ele>
        <time>2013-03-25T07:41:46Z</time>
      </trkpt>
      <trkpt lat="-21.28295" lon="55.7">
        <ele>2187.5</ele>
        <time>2013-03-25T07:41:59Z</time>
      </trkpt>
      <trkpt lat="-21.28286" lon="55.69998">
        <ele>2188.5</ele>
        <time>2013-03-25T07:42:09Z</time>
      </trkpt>
      <trkpt lat="-21.28278" lon="55.69997">
        <ele>2188.8</ele>
        <time>2013-03-25T07:42:19Z</time>
      </trkpt>
      <trkpt lat="-21.2827" lon="55.69993">
        <ele>2190.1</ele>
        <time>2013-03-25T07:42:28Z</time>
      </trkpt>
      <trkpt lat="-21.28262" lon="55.69992">
        <ele>2191.7</ele>
        <time>2013-03-25T07:42:37Z</time>
      </trkpt>
      <trkpt lat="-21.28255" lon="55.69985">
        <ele>2192.2</ele>
        <time>2013-03-25T07:42:46Z</time>
      </trkpt>
      <trkpt lat="-21.2825" lon="55.6998">
        <ele>2193.2</ele>
        <time>2013-03-25T07:42:54Z</time>
      </trkpt>
      <trkpt lat="-21.28242" lon="55.69976">
        <ele>2194.2</ele>
        <time>2013-03-25T07:43:02Z</time>
      </trkpt>
      <trkpt lat="-21.28235" lon="55.69971">
        <ele>2195.1</ele>
        <time>2013-03-25T07:43:09Z</time>
      </trkpt>
      <trkpt lat="-21.28228" lon="55.69967">
        <ele>2196.8</ele>
        <time>2013-03-25T07:43:16Z</time>
      </trkpt>
      <trkpt lat="-21.28221" lon="55.69962">
        <ele>2196.8</ele>
        <time>2013-03-25T07:43:23Z</time>
      </trkpt>
      <trkpt lat="-21.28214" lon="55.69957">
        <ele>2197.7</ele>
        <time>2013-03-25T07:43:30Z</time>
      </trkpt>
      <trkpt lat="-21.28207" lon="55.69953">
        <ele>2197.4</ele>
        <time>2013-03-25T07:43:37Z</time>
      </trkpt>
      <trkpt lat="-21.282" lon="55.69949">
        <ele>2196.8</ele>
        <time>2013-03-25T07:43:44Z</time>
      </trkpt>
      <trkpt lat="-21.28191" lon="55.69947">
        <ele>2196.9</ele>
        <time>2013-03-25T07:43:51Z</time>
      </trkpt>
      <trkpt lat="-21.28183" lon="55.69944">
        <ele>2196.7</ele>
        <time>2013-03-25T07:43:58Z</time>
      </trkpt>
      <trkpt lat="-21.28176" lon="55.69938">
        <ele>2197.7</ele>
        <time>2013-03-25T07:44:08Z</time>
      </trkpt>
      <trkpt lat="-21.28169" lon="55.69934">
        <ele>2197.4</ele>
        <time>2013-03-25T07:44:16Z</time>
      </trkpt>
      <trkpt lat="-21.28161" lon="55.6993">
        <ele>2198.5</ele>
        <time>2013-03-25T07:44:23Z</time>
      </trkpt>
      <trkpt lat="-21.28153" lon="55.69929">
        <ele>2200.2</ele>
        <time>2013-03-25T07:44:32Z</time>
      </trkpt>
      <trkpt lat="-21.28146" lon="55.69923">
        <ele>2200.2</ele>
        <time>2013-03-25T07:44:40Z</time>
      </trkpt>
      <trkpt lat="-21.2814" lon="55.69916">
        <ele>2201.6</ele>
        <time>2013-03-25T07:44:49Z</time>
      </trkpt>
      <trkpt lat="-21.28134" lon="55.69911">
        <ele>2201.8</ele>
        <time>2013-03-25T07:44:56Z</time>
      </trkpt>
      <trkpt lat="-21.28127" lon="55.69905">
        <ele>2202.2</ele>
        <time>2013-03-25T07:45:04Z</time>
      </trkpt>
      <trkpt lat="-21.28121" lon="55.69899">
        <ele>2202.1</ele>
        <time>2013-03-25T07:45:10Z</time>
      </trkpt>
      <trkpt lat="-21.28113" lon="55.69898">
        <ele>2201.9</ele>
        <time>2013-03-25T07:45:17Z</time>
      </trkpt>
      <trkpt lat="-21.28105" lon="55.69897">
        <ele>2201.1</ele>
        <time>2013-03-25T07:45:24Z</time>
      </trkpt>
      <trkpt lat="-21.28097" lon="55.69894">
        <ele>2201.7</ele>
        <time>2013-03-25T07:45:32Z</time>
      </trkpt>
      <trkpt lat="-21.28088" lon="55.69893">
        <ele>2202.9</ele>
        <time>2013-03-25T07:45:39Z</time>
      </trkpt>
      <trkpt lat="-21.28081" lon="55.69889">
        <ele>2202.8</ele>
        <time>2013-03-25T07:45:45Z</time>
      </trkpt>
      <trkpt lat="-21.28072" lon="55.69889">
        <ele>2203.6</ele>
        <time>2013-03-25T07:45:52Z</time>
      </trkpt>
      <trkpt lat="-21.28064" lon="55.69886">
        <ele>2204.2</ele>
        <time>2013-03-25T07:45:59Z</time>
      </trkpt>
      <trkpt lat="-21.28056" lon="55.69885">
        <ele>2205.5</ele>
        <time>2013-03-25T07:46:10Z</time>
      </trkpt>
      <trkpt lat="-21.28048" lon="55.69882">
        <ele>2206.8</ele>
        <time>2013-03-25T07:46:18Z</time>
      </trkpt>
      <trkpt lat="-21.28039" lon="55.69883">
        <ele>2207.6</ele>
        <time>2013-03-25T07:46:29Z</time>
      </trkpt>
      <trkpt lat="-21.28031" lon="55.69883">
        <ele>2209.1</ele>
        <time>2013-03-25T07:46:36Z</time>
      </trkpt>
      <trkpt lat="-21.28023" lon="55.69879">
        <ele>2209.1</ele>
        <time>2013-03-25T07:46:46Z</time>
      </trkpt>
      <trkpt lat="-21.28017" lon="55.69874">
        <ele>2210</ele>
        <time>2013-03-25T07:46:53Z</time>
      </trkpt>
      <trkpt lat="-21.28008" lon="55.69871">
        <ele>2210.1</ele>
        <time>2013-03-25T07:47:02Z</time>
      </trkpt>
      <trkpt lat="-21.28" lon="55.69871">
        <ele>2211.6</ele>
        <time>2013-03-25T07:47:11Z</time>
      </trkpt>
      <trkpt lat="-21.27992" lon="55.69871">
        <ele>2213.4</ele>
        <time>2013-03-25T07:47:21Z</time>
      </trkpt>
      <trkpt lat="-21.27984" lon="55.6987">
        <ele>2213.7</ele>
        <time>2013-03-25T07:47:30Z</time>
      </trkpt>
      <trkpt lat="-21.27977" lon="55.69865">
        <ele>2215.5</ele>
        <time>2013-03-25T07:47:39Z</time>
      </trkpt>
      <trkpt lat="-21.27971" lon="55.69859">
        <ele>2216.8</ele>
        <time>2013-03-25T07:47:47Z</time>
      </trkpt>
      <trkpt lat="-21.27968" lon="55.69851">
        <ele>2216.9</ele>
        <time>2013-03-25T07:47:56Z</time>
      </trkpt>
      <trkpt lat="-21.27964" lon="55.69843">
        <ele>2217.7</ele>
        <time>2013-03-25T07:48:02Z</time>
      </trkpt>
      <trkpt lat="-21.27961" lon="55.69836">
        <ele>2217.4</ele>
        <time>2013-03-25T07:48:08Z</time>
      </trkpt>
      <trkpt lat="-21.27956" lon="55.69828">
        <ele>2217</ele>
        <time>2013-03-25T07:48:16Z</time>
      </trkpt>
      <trkpt lat="-21.27951" lon="55.69821">
        <ele>2219.9</ele>
        <time>2013-03-25T07:48:27Z</time>
      </trkpt>
      <trkpt lat="-21.27946" lon="55.69813">
        <ele>2220.3</ele>
        <time>2013-03-25T07:48:37Z</time>
      </trkpt>
      <trkpt lat="-21.27937" lon="55.6981">
        <ele>2221.2</ele>
        <time>2013-03-25T07:48:47Z</time>
      </trkpt>
      <trkpt lat="-21.27929" lon="55.69809">
        <ele>2222.2</ele>
        <time>2013-03-25T07:48:56Z</time>
      </trkpt>
      <trkpt lat="-21.27921" lon="55.69811">
        <ele>2224.1</ele>
        <time>2013-03-25T07:49:05Z</time>
      </trkpt>
      <trkpt lat="-21.27913" lon="55.69808">
        <ele>2224.6</ele>
        <time>2013-03-25T07:49:14Z</time>
      </trkpt>
      <trkpt lat="-21.27906" lon="55.69803">
        <ele>2225.7</ele>
        <time>2013-03-25T07:49:22Z</time>
      </trkpt>
      <trkpt lat="-21.27898" lon="55.69801">
        <ele>2227.7</ele>
        <time>2013-03-25T07:49:32Z</time>
      </trkpt>
      <trkpt lat="-21.2789" lon="55.69797">
        <ele>2228.9</ele>
        <time>2013-03-25T07:49:42Z</time>
      </trkpt>
      <trkpt lat="-21.27882" lon="55.69795">
        <ele>2231.1</ele>
        <time>2013-03-25T07:49:55Z</time>
      </trkpt>
      <trkpt lat="-21.27874" lon="55.69792">
        <ele>2232.8</ele>
        <time>2013-03-25T07:50:08Z</time>
      </trkpt>
      <trkpt lat="-21.27867" lon="55.69786">
        <ele>2235.5</ele>
        <time>2013-03-25T07:50:22Z</time>
      </trkpt>
      <trkpt lat="-21.2786" lon="55.69782">
        <ele>2237.1</ele>
        <time>2013-03-25T07:50:30Z</time>
      </trkpt>
      <trkpt lat="-21.27854" lon="55.69776">
        <ele>2237.1</ele>
        <time>2013-03-25T07:50:36Z</time>
      </trkpt>
      <trkpt lat="-21.2785" lon="55.69769">
        <ele>2237</ele>
        <time>2013-03-25T07:50:42Z</time>
      </trkpt>
      <trkpt lat="-21.27843" lon="55.69763">
        <ele>2236.3</ele>
        <time>2013-03-25T07:50:49Z</time>
      </trkpt>
      <trkpt lat="-21.27835" lon="55.6976">
        <ele>2236.5</ele>
        <time>2013-03-25T07:50:57Z</time>
      </trkpt>
      <trkpt lat="-21.27826" lon="55.69759">
        <ele>2236.9</ele>
        <time>2013-03-25T07:51:05Z</time>
      </trkpt>
      <trkpt lat="-21.27821" lon="55.69751">
        <ele>2238</ele>
        <time>2013-03-25T07:51:13Z</time>
      </trkpt>
      <trkpt lat="-21.27815" lon="55.69743">
        <ele>2238.1</ele>
        <time>2013-03-25T07:51:20Z</time>
      </trkpt>
      <trkpt lat="-21.27811" lon="55.69735">
        <ele>2238.1</ele>
        <time>2013-03-25T07:51:27Z</time>
      </trkpt>
      <trkpt lat="-21.27806" lon="55.69728">
        <ele>2240</ele>
        <time>2013-03-25T07:51:35Z</time>
      </trkpt>
      <trkpt lat="-21.27802" lon="55.6972">
        <ele>2240.7</ele>
        <time>2013-03-25T07:51:43Z</time>
      </trkpt>
      <trkpt lat="-21.27796" lon="55.69713">
        <ele>2241.5</ele>
        <time>2013-03-25T07:51:52Z</time>
      </trkpt>
      <trkpt lat="-21.2779" lon="55.69707">
        <ele>2242.6</ele>
        <time>2013-03-25T07:52:00Z</time>
      </trkpt>
      <trkpt lat="-21.27783" lon="55.69702">
        <ele>2244.1</ele>
        <time>2013-03-25T07:52:09Z</time>
      </trkpt>
      <trkpt lat="-21.27775" lon="55.69701">
        <ele>2244.5</ele>
        <time>2013-03-25T07:52:17Z</time>
      </trkpt>
      <trkpt lat="-21.27766" lon="55.69702">
        <ele>2245.6</ele>
        <time>2013-03-25T07:52:24Z</time>
      </trkpt>
      <trkpt lat="-21.27758" lon="55.69703">
        <ele>2245.7</ele>
        <time>2013-03-25T07:52:31Z</time>
      </trkpt>
      <trkpt lat="-21.2775" lon="55.697">
        <ele>2245.6</ele>
        <time>2013-03-25T07:52:38Z</time>
      </trkpt>
      <trkpt lat="-21.27741" lon="55.697">
        <ele>2247.5</ele>
        <time>2013-03-25T07:52:47Z</time>
      </trkpt>
      <trkpt lat="-21.27732" lon="55.69698">
        <ele>2250.4</ele>
        <time>2013-03-25T07:52:57Z</time>
      </trkpt>
      <trkpt lat="-21.27724" lon="55.69698">
        <ele>2250.5</ele>
        <time>2013-03-25T07:53:06Z</time>
      </trkpt>
      <trkpt lat="-21.27715" lon="55.69699">
        <ele>2251.9</ele>
        <time>2013-03-25T07:53:14Z</time>
      </trkpt>
      <trkpt lat="-21.27708" lon="55.69704">
        <ele>2251.9</ele>
        <time>2013-03-25T07:53:22Z</time>
      </trkpt>
      <trkpt lat="-21.27703" lon="55.69712">
        <ele>2253.2</ele>
        <time>2013-03-25T07:53:29Z</time>
      </trkpt>
      <trkpt lat="-21.27698" lon="55.69718">
        <ele>2253.5</ele>
        <time>2013-03-25T07:53:36Z</time>
      </trkpt>
      <trkpt lat="-21.27692" lon="55.69724">
        <ele>2255.2</ele>
        <time>2013-03-25T07:53:44Z</time>
      </trkpt>
      <trkpt lat="-21.27683" lon="55.69726">
        <ele>2254.5</ele>
        <time>2013-03-25T07:53:56Z</time>
      </trkpt>
      <trkpt lat="-21.27675" lon="55.69726">
        <ele>2254.3</ele>
        <time>2013-03-25T07:54:04Z</time>
      </trkpt>
      <trkpt lat="-21.27666" lon="55.69725">
        <ele>2255.9</ele>
        <time>2013-03-25T07:54:13Z</time>
      </trkpt>
      <trkpt lat="-21.2766" lon="55.69719">
        <ele>2256.4</ele>
        <time>2013-03-25T07:54:21Z</time>
      </trkpt>
      <trkpt lat="-21.27653" lon="55.69713">
        <ele>2257.4</ele>
        <time>2013-03-25T07:54:29Z</time>
      </trkpt>
      <trkpt lat="-21.27645" lon="55.6971">
        <ele>2257.5</ele>
        <time>2013-03-25T07:54:36Z</time>
      </trkpt>
      <trkpt lat="-21.27637" lon="55.69708">
        <ele>2258</ele>
        <time>2013-03-25T07:54:44Z</time>
      </trkpt>
      <trkpt lat="-21.27629" lon="55.69704">
        <ele>2257.8</ele>
        <time>2013-03-25T07:54:51Z</time>
      </trkpt>
      <trkpt lat="-21.27622" lon="55.69699">
        <ele>2257.4</ele>
        <time>2013-03-25T07:54:57Z</time>
      </trkpt>
      <trkpt lat="-21.27615" lon="55.69694">
        <ele>2258.8</ele>
        <time>2013-03-25T07:55:03Z</time>
      </trkpt>
      <trkpt lat="-21.2761" lon="55.69691">
        <ele>2258.5</ele>
        <time>2013-03-25T07:55:08Z</time>
      </trkpt>
      <trkpt lat="-21.2761" lon="55.69691">
        <ele>2258.5</ele>
        <time>2013-03-25T07:55:08Z</time>
      </trkpt>
      <trkpt lat="-21.27605" lon="55.69684">
        <ele>2258.4</ele>
        <time>2013-03-25T07:55:17Z</time>
      </trkpt>
      <trkpt lat="-21.27604" lon="55.69675">
        <ele>2257.6</ele>
        <time>2013-03-25T07:55:25Z</time>
      </trkpt>
      <trkpt lat="-21.27604" lon="55.69666">
        <ele>2257.1</ele>
        <time>2013-03-25T07:55:34Z</time>
      </trkpt>
      <trkpt lat="-21.27604" lon="55.69666">
        <ele>2257.1</ele>
        <time>2013-03-25T07:55:34Z</time>
      </trkpt>
      <trkpt lat="-21.27603" lon="55.69663">
        <ele>2257.4</ele>
        <time>2013-03-25T07:55:38Z</time>
      </trkpt>
      <trkpt lat="-21.27587" lon="55.69634">
        <ele>2258.5</ele>
        <time>2013-03-25T07:56:17Z</time>
      </trkpt>
      <trkpt lat="-21.2758" lon="55.69628">
        <ele>2259</ele>
        <time>2013-03-25T07:56:29Z</time>
      </trkpt>
      <trkpt lat="-21.27579" lon="55.69619">
        <ele>2258.9</ele>
        <time>2013-03-25T07:56:57Z</time>
      </trkpt>
      <trkpt lat="-21.27577" lon="55.69611">
        <ele>2258.7</ele>
        <time>2013-03-25T07:57:05Z</time>
      </trkpt>
      <trkpt lat="-21.27576" lon="55.69601">
        <ele>2257.6</ele>
        <time>2013-03-25T07:57:13Z</time>
      </trkpt>
      <trkpt lat="-21.27575" lon="55.69592">
        <ele>2257.4</ele>
        <time>2013-03-25T07:57:21Z</time>
      </trkpt>
      <trkpt lat="-21.27572" lon="55.69583">
        <ele>2257.1</ele>
        <time>2013-03-25T07:57:29Z</time>
      </trkpt>
      <trkpt lat="-21.27569" lon="55.69574">
        <ele>2257.6</ele>
        <time>2013-03-25T07:57:39Z</time>
      </trkpt>
      <trkpt lat="-21.27568" lon="55.69565">
        <ele>2259</ele>
        <time>2013-03-25T07:57:48Z</time>
      </trkpt>
      <trkpt lat="-21.27564" lon="55.69557">
        <ele>2260.2</ele>
        <time>2013-03-25T07:57:57Z</time>
      </trkpt>
      <trkpt lat="-21.27563" lon="55.69548">
        <ele>2260</ele>
        <time>2013-03-25T07:58:05Z</time>
      </trkpt>
      <trkpt lat="-21.27559" lon="55.69539">
        <ele>2259.2</ele>
        <time>2013-03-25T07:58:12Z</time>
      </trkpt>
      <trkpt lat="-21.27558" lon="55.6953">
        <ele>2258.9</ele>
        <time>2013-03-25T07:58:18Z</time>
      </trkpt>
      <trkpt lat="-21.27557" lon="55.69521">
        <ele>2259.9</ele>
        <time>2013-03-25T07:58:25Z</time>
      </trkpt>
      <trkpt lat="-21.27554" lon="55.69513">
        <ele>2260.1</ele>
        <time>2013-03-25T07:58:31Z</time>
      </trkpt>
      <trkpt lat="-21.27551" lon="55.69505">
        <ele>2259.1</ele>
        <time>2013-03-25T07:58:37Z</time>
      </trkpt>
      <trkpt lat="-21.27549" lon="55.69497">
        <ele>2258.9</ele>
        <time>2013-03-25T07:58:43Z</time>
      </trkpt>
      <trkpt lat="-21.27548" lon="55.69488">
        <ele>2258.8</ele>
        <time>2013-03-25T07:58:49Z</time>
      </trkpt>
      <trkpt lat="-21.27541" lon="55.69482">
        <ele>2260.3</ele>
        <time>2013-03-25T07:58:58Z</time>
      </trkpt>
      <trkpt lat="-21.27538" lon="55.69476">
        <ele>2261.3</ele>
        <time>2013-03-25T07:59:08Z</time>
      </trkpt>
      <trkpt lat="-21.27558" lon="55.6953">
        <ele>2258.8</ele>
        <time>2013-03-25T07:58:18Z</time>
      </trkpt>
      <trkpt lat="-21.27557" lon="55.69521">
        <ele>2259.8</ele>
        <time>2013-03-25T07:58:25Z</time>
      </trkpt>
      <trkpt lat="-21.27554" lon="55.69513">
        <ele>2260</ele>
        <time>2013-03-25T07:58:31Z</time>
      </trkpt>
      <trkpt lat="-21.27551" lon="55.69505">
        <ele>2259.1</ele>
        <time>2013-03-25T07:58:37Z</time>
      </trkpt>
      <trkpt lat="-21.27549" lon="55.69497">
        <ele>2258.9</ele>
        <time>2013-03-25T07:58:43Z</time>
      </trkpt>
      <trkpt lat="-21.27548" lon="55.69488">
        <ele>2258.8</ele>
        <time>2013-03-25T07:58:49Z</time>
      </trkpt>
      <trkpt lat="-21.27541" lon="55.69482">
        <ele>2260.3</ele>
        <time>2013-03-25T07:58:58Z</time>
      </trkpt>
      <trkpt lat="-21.27538" lon="55.69475">
        <ele>2261.3</ele>
        <time>2013-03-25T07:59:09Z</time>
      </trkpt>
      <trkpt lat="-21.27538" lon="55.69475">
        <ele>2261.3</ele>
        <time>2013-03-25T07:59:09Z</time>
      </trkpt>
      <trkpt lat="-21.2754" lon="55.69466">
        <ele>2289.1</ele>
        <time>2013-03-25T08:28:19Z</time>
      </trkpt>
      <trkpt lat="-21.27543" lon="55.69458">
        <ele>2288.9</ele>
        <time>2013-03-25T08:28:37Z</time>
      </trkpt>
      <trkpt lat="-21.27541" lon="55.69449">
        <ele>2287.2</ele>
        <time>2013-03-25T08:28:45Z</time>
      </trkpt>
      <trkpt lat="-21.27541" lon="55.69447">
        <ele>2287.1</ele>
        <time>2013-03-25T08:28:46Z</time>
      </trkpt>
      <trkpt lat="-21.27542" lon="55.69432">
        <ele>2287.2</ele>
        <time>2013-03-25T08:28:57Z</time>
      </trkpt>
      <trkpt lat="-21.27542" lon="55.69424">
        <ele>2287</ele>
        <time>2013-03-25T08:29:03Z</time>
      </trkpt>
      <trkpt lat="-21.27543" lon="55.69414">
        <ele>2286.5</ele>
        <time>2013-03-25T08:29:10Z</time>
      </trkpt>
      <trkpt lat="-21.27537" lon="55.69407">
        <ele>2286.1</ele>
        <time>2013-03-25T08:29:16Z</time>
      </trkpt>
      <trkpt lat="-21.27532" lon="55.694">
        <ele>2286.2</ele>
        <time>2013-03-25T08:29:22Z</time>
      </trkpt>
      <trkpt lat="-21.27526" lon="55.69393">
        <ele>2286.2</ele>
        <time>2013-03-25T08:29:28Z</time>
      </trkpt>
      <trkpt lat="-21.27522" lon="55.69386">
        <ele>2285.6</ele>
        <time>2013-03-25T08:29:34Z</time>
      </trkpt>
      <trkpt lat="-21.27519" lon="55.69377">
        <ele>2285.7</ele>
        <time>2013-03-25T08:29:40Z</time>
      </trkpt>
      <trkpt lat="-21.27517" lon="55.69368">
        <ele>2285.4</ele>
        <time>2013-03-25T08:29:52Z</time>
      </trkpt>
      <trkpt lat="-21.27517" lon="55.69368">
        <ele>2285.3</ele>
        <time>2013-03-25T08:29:53Z</time>
      </trkpt>
      <trkpt lat="-21.2751" lon="55.69352">
        <ele>2286.9</ele>
        <time>2013-03-25T08:30:07Z</time>
      </trkpt>
      <trkpt lat="-21.27508" lon="55.69343">
        <ele>2287.3</ele>
        <time>2013-03-25T08:30:14Z</time>
      </trkpt>
      <trkpt lat="-21.27507" lon="55.69334">
        <ele>2288.8</ele>
        <time>2013-03-25T08:30:23Z</time>
      </trkpt>
      <trkpt lat="-21.27503" lon="55.69326">
        <ele>2287.9</ele>
        <time>2013-03-25T08:30:32Z</time>
      </trkpt>
      <trkpt lat="-21.27501" lon="55.69318">
        <ele>2288.4</ele>
        <time>2013-03-25T08:30:37Z</time>
      </trkpt>
      <trkpt lat="-21.27496" lon="55.69311">
        <ele>2288.9</ele>
        <time>2013-03-25T08:30:42Z</time>
      </trkpt>
      <trkpt lat="-21.27493" lon="55.69302">
        <ele>2288.2</ele>
        <time>2013-03-25T08:30:48Z</time>
      </trkpt>
      <trkpt lat="-21.27491" lon="55.69293">
        <ele>2287.7</ele>
        <time>2013-03-25T08:30:54Z</time>
      </trkpt>
      <trkpt lat="-21.27491" lon="55.69292">
        <ele>2288</ele>
        <time>2013-03-25T08:30:55Z</time>
      </trkpt>
      <trkpt lat="-21.27488" lon="55.69275">
        <ele>2289.4</ele>
        <time>2013-03-25T08:31:10Z</time>
      </trkpt>
      <trkpt lat="-21.27486" lon="55.69266">
        <ele>2290.8</ele>
        <time>2013-03-25T08:31:16Z</time>
      </trkpt>
      <trkpt lat="-21.27482" lon="55.69258">
        <ele>2291.6</ele>
        <time>2013-03-25T08:31:22Z</time>
      </trkpt>
      <trkpt lat="-21.27482" lon="55.69249">
        <ele>2292.3</ele>
        <time>2013-03-25T08:31:29Z</time>
      </trkpt>
      <trkpt lat="-21.27479" lon="55.6924">
        <ele>2291.8</ele>
        <time>2013-03-25T08:31:36Z</time>
      </trkpt>
      <trkpt lat="-21.27474" lon="55.69233">
        <ele>2292.4</ele>
        <time>2013-03-25T08:31:42Z</time>
      </trkpt>
      <trkpt lat="-21.27471" lon="55.69225">
        <ele>2292.1</ele>
        <time>2013-03-25T08:31:48Z</time>
      </trkpt>
      <trkpt lat="-21.27469" lon="55.69217">
        <ele>2293.1</ele>
        <time>2013-03-25T08:31:54Z</time>
      </trkpt>
      <trkpt lat="-21.27464" lon="55.69209">
        <ele>2293.7</ele>
        <time>2013-03-25T08:32:01Z</time>
      </trkpt>
      <trkpt lat="-21.27464" lon="55.69207">
        <ele>2293.7</ele>
        <time>2013-03-25T08:32:02Z</time>
      </trkpt>
      <trkpt lat="-21.27464" lon="55.69191">
        <ele>2293</ele>
        <time>2013-03-25T08:32:14Z</time>
      </trkpt>
      <trkpt lat="-21.27465" lon="55.69182">
        <ele>2292.6</ele>
        <time>2013-03-25T08:32:21Z</time>
      </trkpt>
      <trkpt lat="-21.27467" lon="55.69173">
        <ele>2292.8</ele>
        <time>2013-03-25T08:32:28Z</time>
      </trkpt>
      <trkpt lat="-21.27465" lon="55.69164">
        <ele>2292.2</ele>
        <time>2013-03-25T08:32:35Z</time>
      </trkpt>
      <trkpt lat="-21.2746" lon="55.69157">
        <ele>2291.2</ele>
        <time>2013-03-25T08:32:42Z</time>
      </trkpt>
      <trkpt lat="-21.27456" lon="55.6915">
        <ele>2289.7</ele>
        <time>2013-03-25T08:32:49Z</time>
      </trkpt>
      <trkpt lat="-21.27452" lon="55.69143">
        <ele>2289.4</ele>
        <time>2013-03-25T08:32:55Z</time>
      </trkpt>
      <trkpt lat="-21.27449" lon="55.69134">
        <ele>2290.1</ele>
        <time>2013-03-25T08:33:01Z</time>
      </trkpt>
      <trkpt lat="-21.27447" lon="55.69126">
        <ele>2289.9</ele>
        <time>2013-03-25T08:33:07Z</time>
      </trkpt>
      <trkpt lat="-21.27447" lon="55.69124">
        <ele>2290</ele>
        <time>2013-03-25T08:33:08Z</time>
      </trkpt>
      <trkpt lat="-21.27444" lon="55.69108">
        <ele>2290.1</ele>
        <time>2013-03-25T08:33:19Z</time>
      </trkpt>
      <trkpt lat="-21.27442" lon="55.69099">
        <ele>2289.2</ele>
        <time>2013-03-25T08:33:25Z</time>
      </trkpt>
      <trkpt lat="-21.2744" lon="55.69091">
        <ele>2289.3</ele>
        <time>2013-03-25T08:33:31Z</time>
      </trkpt>
      <trkpt lat="-21.27438" lon="55.69082">
        <ele>2289.2</ele>
        <time>2013-03-25T08:33:37Z</time>
      </trkpt>
      <trkpt lat="-21.27437" lon="55.69073">
        <ele>2289.6</ele>
        <time>2013-03-25T08:33:43Z</time>
      </trkpt>
      <trkpt lat="-21.27435" lon="55.69064">
        <ele>2289.3</ele>
        <time>2013-03-25T08:33:49Z</time>
      </trkpt>
      <trkpt lat="-21.27434" lon="55.69055">
        <ele>2289.9</ele>
        <time>2013-03-25T08:33:55Z</time>
      </trkpt>
      <trkpt lat="-21.27432" lon="55.69046">
        <ele>2288.5</ele>
        <time>2013-03-25T08:34:01Z</time>
      </trkpt>
      <trkpt lat="-21.2743" lon="55.69038">
        <ele>2288.8</ele>
        <time>2013-03-25T08:34:06Z</time>
      </trkpt>
      <trkpt lat="-21.27428" lon="55.6903">
        <ele>2289.5</ele>
        <time>2013-03-25T08:34:11Z</time>
      </trkpt>
      <trkpt lat="-21.27427" lon="55.69028">
        <ele>2289.3</ele>
        <time>2013-03-25T08:34:12Z</time>
      </trkpt>
      <trkpt lat="-21.27423" lon="55.69014">
        <ele>2289.8</ele>
        <time>2013-03-25T08:34:21Z</time>
      </trkpt>
      <trkpt lat="-21.27419" lon="55.69007">
        <ele>2289.3</ele>
        <time>2013-03-25T08:34:26Z</time>
      </trkpt>
      <trkpt lat="-21.27417" lon="55.68998">
        <ele>2288.7</ele>
        <time>2013-03-25T08:34:32Z</time>
      </trkpt>
      <trkpt lat="-21.27415" lon="55.6899">
        <ele>2289.6</ele>
        <time>2013-03-25T08:34:39Z</time>
      </trkpt>
      <trkpt lat="-21.27412" lon="55.68982">
        <ele>2290.6</ele>
        <time>2013-03-25T08:34:46Z</time>
      </trkpt>
      <trkpt lat="-21.27408" lon="55.68975">
        <ele>2292.1</ele>
        <time>2013-03-25T08:34:52Z</time>
      </trkpt>
      <trkpt lat="-21.27404" lon="55.68968">
        <ele>2291.2</ele>
        <time>2013-03-25T08:34:58Z</time>
      </trkpt>
      <trkpt lat="-21.27399" lon="55.68961">
        <ele>2291.3</ele>
        <time>2013-03-25T08:35:03Z</time>
      </trkpt>
      <trkpt lat="-21.27396" lon="55.68954">
        <ele>2291.1</ele>
        <time>2013-03-25T08:35:08Z</time>
      </trkpt>
      <trkpt lat="-21.27392" lon="55.68947">
        <ele>2291.2</ele>
        <time>2013-03-25T08:35:13Z</time>
      </trkpt>
      <trkpt lat="-21.27391" lon="55.68945">
        <ele>2290.7</ele>
        <time>2013-03-25T08:35:14Z</time>
      </trkpt>
      <trkpt lat="-21.27381" lon="55.68933">
        <ele>2291.2</ele>
        <time>2013-03-25T08:35:23Z</time>
      </trkpt>
      <trkpt lat="-21.27376" lon="55.68925">
        <ele>2291.7</ele>
        <time>2013-03-25T08:35:29Z</time>
      </trkpt>
      <trkpt lat="-21.27371" lon="55.68919">
        <ele>2291.8</ele>
        <time>2013-03-25T08:35:34Z</time>
      </trkpt>
      <trkpt lat="-21.27365" lon="55.68914">
        <ele>2291.8</ele>
        <time>2013-03-25T08:35:39Z</time>
      </trkpt>
      <trkpt lat="-21.27358" lon="55.68908">
        <ele>2290.9</ele>
        <time>2013-03-25T08:35:45Z</time>
      </trkpt>
      <trkpt lat="-21.27351" lon="55.68904">
        <ele>2291.5</ele>
        <time>2013-03-25T08:35:51Z</time>
      </trkpt>
      <trkpt lat="-21.27344" lon="55.68898">
        <ele>2291.8</ele>
        <time>2013-03-25T08:35:57Z</time>
      </trkpt>
      <trkpt lat="-21.27339" lon="55.68891">
        <ele>2291.8</ele>
        <time>2013-03-25T08:36:03Z</time>
      </trkpt>
      <trkpt lat="-21.27335" lon="55.68884">
        <ele>2292.1</ele>
        <time>2013-03-25T08:36:08Z</time>
      </trkpt>
      <trkpt lat="-21.27329" lon="55.68877">
        <ele>2292.8</ele>
        <time>2013-03-25T08:36:13Z</time>
      </trkpt>
      <trkpt lat="-21.2733" lon="55.68868">
        <ele>2291.4</ele>
        <time>2013-03-25T08:36:19Z</time>
      </trkpt>
      <trkpt lat="-21.27329" lon="55.68867">
        <ele>2292</ele>
        <time>2013-03-25T08:36:20Z</time>
      </trkpt>
      <trkpt lat="-21.27321" lon="55.68854">
        <ele>2291.7</ele>
        <time>2013-03-25T08:36:32Z</time>
      </trkpt>
      <trkpt lat="-21.27314" lon="55.68848">
        <ele>2290.9</ele>
        <time>2013-03-25T08:36:39Z</time>
      </trkpt>
      <trkpt lat="-21.27308" lon="55.68842">
        <ele>2290.3</ele>
        <time>2013-03-25T08:36:45Z</time>
      </trkpt>
      <trkpt lat="-21.27302" lon="55.68839">
        <ele>2289.9</ele>
        <time>2013-03-25T08:36:50Z</time>
      </trkpt>
      <trkpt lat="-21.27295" lon="55.68836">
        <ele>2289.2</ele>
        <time>2013-03-25T08:36:55Z</time>
      </trkpt>
      <trkpt lat="-21.27288" lon="55.68832">
        <ele>2289.7</ele>
        <time>2013-03-25T08:37:00Z</time>
      </trkpt>
      <trkpt lat="-21.27282" lon="55.68825">
        <ele>2290.2</ele>
        <time>2013-03-25T08:37:07Z</time>
      </trkpt>
      <trkpt lat="-21.27277" lon="55.68818">
        <ele>2290.6</ele>
        <time>2013-03-25T08:37:13Z</time>
      </trkpt>
      <trkpt lat="-21.27272" lon="55.6881">
        <ele>2289.8</ele>
        <time>2013-03-25T08:37:19Z</time>
      </trkpt>
      <trkpt lat="-21.27265" lon="55.68805">
        <ele>2288.9</ele>
        <time>2013-03-25T08:37:25Z</time>
      </trkpt>
      <trkpt lat="-21.27264" lon="55.68804">
        <ele>2288.8</ele>
        <time>2013-03-25T08:37:26Z</time>
      </trkpt>
      <trkpt lat="-21.27254" lon="55.68791">
        <ele>2287.3</ele>
        <time>2013-03-25T08:37:37Z</time>
      </trkpt>
      <trkpt lat="-21.27248" lon="55.68784">
        <ele>2287.8</ele>
        <time>2013-03-25T08:37:43Z</time>
      </trkpt>
      <trkpt lat="-21.27242" lon="55.68779">
        <ele>2288.9</ele>
        <time>2013-03-25T08:37:49Z</time>
      </trkpt>
      <trkpt lat="-21.27237" lon="55.68771">
        <ele>2288.4</ele>
        <time>2013-03-25T08:37:55Z</time>
      </trkpt>
      <trkpt lat="-21.27231" lon="55.68765">
        <ele>2287.7</ele>
        <time>2013-03-25T08:38:02Z</time>
      </trkpt>
      <trkpt lat="-21.27226" lon="55.68758">
        <ele>2287.9</ele>
        <time>2013-03-25T08:38:08Z</time>
      </trkpt>
      <trkpt lat="-21.27221" lon="55.68751">
        <ele>2287.5</ele>
        <time>2013-03-25T08:38:14Z</time>
      </trkpt>
      <trkpt lat="-21.27216" lon="55.68743">
        <ele>2287.2</ele>
        <time>2013-03-25T08:38:20Z</time>
      </trkpt>
      <trkpt lat="-21.27213" lon="55.68735">
        <ele>2287.3</ele>
        <time>2013-03-25T08:38:26Z</time>
      </trkpt>
      <trkpt lat="-21.27213" lon="55.68734">
        <ele>2287.4</ele>
        <time>2013-03-25T08:38:27Z</time>
      </trkpt>
      <trkpt lat="-21.27207" lon="55.6872">
        <ele>2288.7</ele>
        <time>2013-03-25T08:38:38Z</time>
      </trkpt>
      <trkpt lat="-21.272" lon="55.68716">
        <ele>2289.2</ele>
        <time>2013-03-25T08:38:44Z</time>
      </trkpt>
      <trkpt lat="-21.27193" lon="55.68712">
        <ele>2290</ele>
        <time>2013-03-25T08:38:50Z</time>
      </trkpt>
      <trkpt lat="-21.27185" lon="55.68708">
        <ele>2288.2</ele>
        <time>2013-03-25T08:38:56Z</time>
      </trkpt>
      <trkpt lat="-21.27178" lon="55.68703">
        <ele>2287.7</ele>
        <time>2013-03-25T08:39:01Z</time>
      </trkpt>
      <trkpt lat="-21.27175" lon="55.68696">
        <ele>2288.5</ele>
        <time>2013-03-25T08:39:06Z</time>
      </trkpt>
      <trkpt lat="-21.27171" lon="55.68688">
        <ele>2287.5</ele>
        <time>2013-03-25T08:39:11Z</time>
      </trkpt>
      <trkpt lat="-21.27167" lon="55.6868">
        <ele>2286.4</ele>
        <time>2013-03-25T08:39:16Z</time>
      </trkpt>
      <trkpt lat="-21.27165" lon="55.68671">
        <ele>2286.6</ele>
        <time>2013-03-25T08:39:22Z</time>
      </trkpt>
      <trkpt lat="-21.27164" lon="55.68662">
        <ele>2286.4</ele>
        <time>2013-03-25T08:39:28Z</time>
      </trkpt>
      <trkpt lat="-21.27164" lon="55.6866">
        <ele>2286.3</ele>
        <time>2013-03-25T08:39:29Z</time>
      </trkpt>
      <trkpt lat="-21.27154" lon="55.68648">
        <ele>2286</ele>
        <time>2013-03-25T08:39:40Z</time>
      </trkpt>
      <trkpt lat="-21.27148" lon="55.6864">
        <ele>2285.7</ele>
        <time>2013-03-25T08:39:46Z</time>
      </trkpt>
      <trkpt lat="-21.27143" lon="55.68633">
        <ele>2284.9</ele>
        <time>2013-03-25T08:39:53Z</time>
      </trkpt>
      <trkpt lat="-21.27136" lon="55.68627">
        <ele>2283.5</ele>
        <time>2013-03-25T08:40:00Z</time>
      </trkpt>
      <trkpt lat="-21.27131" lon="55.6862">
        <ele>2283.1</ele>
        <time>2013-03-25T08:40:06Z</time>
      </trkpt>
      <trkpt lat="-21.27127" lon="55.68614">
        <ele>2281.9</ele>
        <time>2013-03-25T08:40:11Z</time>
      </trkpt>
      <trkpt lat="-21.27123" lon="55.68607">
        <ele>2283.1</ele>
        <time>2013-03-25T08:40:16Z</time>
      </trkpt>
      <trkpt lat="-21.27116" lon="55.68602">
        <ele>2282.9</ele>
        <time>2013-03-25T08:40:22Z</time>
      </trkpt>
      <trkpt lat="-21.27108" lon="55.68598">
        <ele>2282.7</ele>
        <time>2013-03-25T08:40:29Z</time>
      </trkpt>
      <trkpt lat="-21.27106" lon="55.68598">
        <ele>2282.6</ele>
        <time>2013-03-25T08:40:30Z</time>
      </trkpt>
      <trkpt lat="-21.27094" lon="55.68589">
        <ele>2282.6</ele>
        <time>2013-03-25T08:40:41Z</time>
      </trkpt>
      <trkpt lat="-21.27087" lon="55.68583">
        <ele>2281.8</ele>
        <time>2013-03-25T08:40:47Z</time>
      </trkpt>
      <trkpt lat="-21.27081" lon="55.68578">
        <ele>2282.4</ele>
        <time>2013-03-25T08:40:52Z</time>
      </trkpt>
      <trkpt lat="-21.27074" lon="55.68573">
        <ele>2281.8</ele>
        <time>2013-03-25T08:40:58Z</time>
      </trkpt>
      <trkpt lat="-21.27067" lon="55.68567">
        <ele>2281.9</ele>
        <time>2013-03-25T08:41:04Z</time>
      </trkpt>
      <trkpt lat="-21.27061" lon="55.68561">
        <ele>2282.1</ele>
        <time>2013-03-25T08:41:10Z</time>
      </trkpt>
      <trkpt lat="-21.27055" lon="55.68556">
        <ele>2280.8</ele>
        <time>2013-03-25T08:41:15Z</time>
      </trkpt>
      <trkpt lat="-21.2705" lon="55.6855">
        <ele>2281.9</ele>
        <time>2013-03-25T08:41:20Z</time>
      </trkpt>
      <trkpt lat="-21.27044" lon="55.68543">
        <ele>2281.5</ele>
        <time>2013-03-25T08:41:26Z</time>
      </trkpt>
      <trkpt lat="-21.27036" lon="55.68539">
        <ele>2281.6</ele>
        <time>2013-03-25T08:41:32Z</time>
      </trkpt>
      <trkpt lat="-21.27035" lon="55.68538">
        <ele>2281.7</ele>
        <time>2013-03-25T08:41:33Z</time>
      </trkpt>
      <trkpt lat="-21.27025" lon="55.68527">
        <ele>2282.7</ele>
        <time>2013-03-25T08:41:44Z</time>
      </trkpt>
      <trkpt lat="-21.27018" lon="55.68521">
        <ele>2282.7</ele>
        <time>2013-03-25T08:41:50Z</time>
      </trkpt>
      <trkpt lat="-21.2701" lon="55.68518">
        <ele>2282.2</ele>
        <time>2013-03-25T08:41:55Z</time>
      </trkpt>
      <trkpt lat="-21.27001" lon="55.68517">
        <ele>2283.5</ele>
        <time>2013-03-25T08:42:01Z</time>
      </trkpt>
      <trkpt lat="-21.26994" lon="55.68515">
        <ele>2285.1</ele>
        <time>2013-03-25T08:42:07Z</time>
      </trkpt>
      <trkpt lat="-21.26989" lon="55.68507">
        <ele>2286.3</ele>
        <time>2013-03-25T08:42:14Z</time>
      </trkpt>
      <trkpt lat="-21.26988" lon="55.68499">
        <ele>2285.8</ele>
        <time>2013-03-25T08:42:19Z</time>
      </trkpt>
      <trkpt lat="-21.26984" lon="55.68491">
        <ele>2286.3</ele>
        <time>2013-03-25T08:42:25Z</time>
      </trkpt>
      <trkpt lat="-21.26978" lon="55.68484">
        <ele>2285.4</ele>
        <time>2013-03-25T08:42:31Z</time>
      </trkpt>
      <trkpt lat="-21.26971" lon="55.68479">
        <ele>2286.1</ele>
        <time>2013-03-25T08:42:37Z</time>
      </trkpt>
      <trkpt lat="-21.2697" lon="55.68478">
        <ele>2286.3</ele>
        <time>2013-03-25T08:42:38Z</time>
      </trkpt>
      <trkpt lat="-21.26958" lon="55.68469">
        <ele>2288</ele>
        <time>2013-03-25T08:42:49Z</time>
      </trkpt>
      <trkpt lat="-21.26953" lon="55.68462">
        <ele>2288.4</ele>
        <time>2013-03-25T08:42:56Z</time>
      </trkpt>
      <trkpt lat="-21.26948" lon="55.68456">
        <ele>2288.4</ele>
        <time>2013-03-25T08:43:02Z</time>
      </trkpt>
      <trkpt lat="-21.26941" lon="55.6845">
        <ele>2289.5</ele>
        <time>2013-03-25T08:43:08Z</time>
      </trkpt>
      <trkpt lat="-21.26934" lon="55.68447">
        <ele>2289.2</ele>
        <time>2013-03-25T08:43:14Z</time>
      </trkpt>
      <trkpt lat="-21.26927" lon="55.68446">
        <ele>2289.9</ele>
        <time>2013-03-25T08:43:20Z</time>
      </trkpt>
      <trkpt lat="-21.26918" lon="55.68445">
        <ele>2290.5</ele>
        <time>2013-03-25T08:43:26Z</time>
      </trkpt>
      <trkpt lat="-21.26911" lon="55.68445">
        <ele>2291.6</ele>
        <time>2013-03-25T08:43:32Z</time>
      </trkpt>
      <trkpt lat="-21.26903" lon="55.68443">
        <ele>2292.5</ele>
        <time>2013-03-25T08:43:38Z</time>
      </trkpt>
      <trkpt lat="-21.26902" lon="55.68442">
        <ele>2292.3</ele>
        <time>2013-03-25T08:43:39Z</time>
      </trkpt>
      <trkpt lat="-21.26887" lon="55.6844">
        <ele>2293.1</ele>
        <time>2013-03-25T08:43:50Z</time>
      </trkpt>
      <trkpt lat="-21.26879" lon="55.68439">
        <ele>2293.3</ele>
        <time>2013-03-25T08:43:56Z</time>
      </trkpt>
      <trkpt lat="-21.26871" lon="55.68436">
        <ele>2293.2</ele>
        <time>2013-03-25T08:44:02Z</time>
      </trkpt>
      <trkpt lat="-21.26866" lon="55.68428">
        <ele>2293.3</ele>
        <time>2013-03-25T08:44:08Z</time>
      </trkpt>
      <trkpt lat="-21.26861" lon="55.68421">
        <ele>2292.9</ele>
        <time>2013-03-25T08:44:13Z</time>
      </trkpt>
      <trkpt lat="-21.26854" lon="55.68416">
        <ele>2292.7</ele>
        <time>2013-03-25T08:44:18Z</time>
      </trkpt>
      <trkpt lat="-21.26847" lon="55.68412">
        <ele>2293.4</ele>
        <time>2013-03-25T08:44:23Z</time>
      </trkpt>
      <trkpt lat="-21.26839" lon="55.68408">
        <ele>2292</ele>
        <time>2013-03-25T08:44:29Z</time>
      </trkpt>
      <trkpt lat="-21.26832" lon="55.68404">
        <ele>2292.1</ele>
        <time>2013-03-25T08:44:35Z</time>
      </trkpt>
      <trkpt lat="-21.26824" lon="55.684">
        <ele>2293.4</ele>
        <time>2013-03-25T08:44:41Z</time>
      </trkpt>
      <trkpt lat="-21.26823" lon="55.68399">
        <ele>2293.7</ele>
        <time>2013-03-25T08:44:42Z</time>
      </trkpt>
      <trkpt lat="-21.2681" lon="55.68391">
        <ele>2294</ele>
        <time>2013-03-25T08:44:53Z</time>
      </trkpt>
      <trkpt lat="-21.26802" lon="55.68387">
        <ele>2295.1</ele>
        <time>2013-03-25T08:44:59Z</time>
      </trkpt>
      <trkpt lat="-21.26795" lon="55.68383">
        <ele>2295.8</ele>
        <time>2013-03-25T08:45:04Z</time>
      </trkpt>
      <trkpt lat="-21.26788" lon="55.6838">
        <ele>2295.1</ele>
        <time>2013-03-25T08:45:09Z</time>
      </trkpt>
      <trkpt lat="-21.2678" lon="55.68375">
        <ele>2294.4</ele>
        <time>2013-03-25T08:45:15Z</time>
      </trkpt>
      <trkpt lat="-21.26773" lon="55.6837">
        <ele>2295.7</ele>
        <time>2013-03-25T08:45:21Z</time>
      </trkpt>
      <trkpt lat="-21.26767" lon="55.68363">
        <ele>2296.4</ele>
        <time>2013-03-25T08:45:27Z</time>
      </trkpt>
      <trkpt lat="-21.2676" lon="55.68358">
        <ele>2296.9</ele>
        <time>2013-03-25T08:45:33Z</time>
      </trkpt>
      <trkpt lat="-21.26752" lon="55.68352">
        <ele>2296.1</ele>
        <time>2013-03-25T08:45:39Z</time>
      </trkpt>
      <trkpt lat="-21.26745" lon="55.68348">
        <ele>2296.3</ele>
        <time>2013-03-25T08:45:45Z</time>
      </trkpt>
      <trkpt lat="-21.26743" lon="55.68347">
        <ele>2296.3</ele>
        <time>2013-03-25T08:45:46Z</time>
      </trkpt>
      <trkpt lat="-21.2673" lon="55.68342">
        <ele>2296.3</ele>
        <time>2013-03-25T08:45:55Z</time>
      </trkpt>
      <trkpt lat="-21.26722" lon="55.68339">
        <ele>2295.6</ele>
        <time>2013-03-25T08:46:00Z</time>
      </trkpt>
      <trkpt lat="-21.26715" lon="55.68336">
        <ele>2295.1</ele>
        <time>2013-03-25T08:46:05Z</time>
      </trkpt>
      <trkpt lat="-21.26707" lon="55.68333">
        <ele>2295.2</ele>
        <time>2013-03-25T08:46:10Z</time>
      </trkpt>
      <trkpt lat="-21.267" lon="55.68329">
        <ele>2295.5</ele>
        <time>2013-03-25T08:46:15Z</time>
      </trkpt>
      <trkpt lat="-21.26694" lon="55.68324">
        <ele>2295.4</ele>
        <time>2013-03-25T08:46:20Z</time>
      </trkpt>
      <trkpt lat="-21.26688" lon="55.68318">
        <ele>2296.2</ele>
        <time>2013-03-25T08:46:26Z</time>
      </trkpt>
      <trkpt lat="-21.26681" lon="55.68314">
        <ele>2296.2</ele>
        <time>2013-03-25T08:46:31Z</time>
      </trkpt>
      <trkpt lat="-21.26674" lon="55.6831">
        <ele>2295.8</ele>
        <time>2013-03-25T08:46:36Z</time>
      </trkpt>
      <trkpt lat="-21.26666" lon="55.68308">
        <ele>2295.3</ele>
        <time>2013-03-25T08:46:41Z</time>
      </trkpt>
      <trkpt lat="-21.26658" lon="55.68306">
        <ele>2296.3</ele>
        <time>2013-03-25T08:46:46Z</time>
      </trkpt>
      <trkpt lat="-21.26657" lon="55.68306">
        <ele>2296.2</ele>
        <time>2013-03-25T08:46:47Z</time>
      </trkpt>
      <trkpt lat="-21.26642" lon="55.68304">
        <ele>2296.9</ele>
        <time>2013-03-25T08:46:58Z</time>
      </trkpt>
      <trkpt lat="-21.26634" lon="55.68302">
        <ele>2298.1</ele>
        <time>2013-03-25T08:47:04Z</time>
      </trkpt>
      <trkpt lat="-21.26627" lon="55.68299">
        <ele>2298.5</ele>
        <time>2013-03-25T08:47:09Z</time>
      </trkpt>
      <trkpt lat="-21.2662" lon="55.68296">
        <ele>2298.7</ele>
        <time>2013-03-25T08:47:14Z</time>
      </trkpt>
      <trkpt lat="-21.26612" lon="55.68293">
        <ele>2299.5</ele>
        <time>2013-03-25T08:47:19Z</time>
      </trkpt>
      <trkpt lat="-21.26605" lon="55.6829">
        <ele>2299.1</ele>
        <time>2013-03-25T08:47:24Z</time>
      </trkpt>
      <trkpt lat="-21.26597" lon="55.68289">
        <ele>2298.2</ele>
        <time>2013-03-25T08:47:29Z</time>
      </trkpt>
      <trkpt lat="-21.26589" lon="55.68286">
        <ele>2298.4</ele>
        <time>2013-03-25T08:47:34Z</time>
      </trkpt>
      <trkpt lat="-21.26582" lon="55.68284">
        <ele>2298.9</ele>
        <time>2013-03-25T08:47:39Z</time>
      </trkpt>
      <trkpt lat="-21.26574" lon="55.68282">
        <ele>2299.1</ele>
        <time>2013-03-25T08:47:44Z</time>
      </trkpt>
      <trkpt lat="-21.26566" lon="55.68279">
        <ele>2299.3</ele>
        <time>2013-03-25T08:47:50Z</time>
      </trkpt>
      <trkpt lat="-21.26565" lon="55.68278">
        <ele>2299</ele>
        <time>2013-03-25T08:47:51Z</time>
      </trkpt>
      <trkpt lat="-21.2655" lon="55.68272">
        <ele>2299.8</ele>
        <time>2013-03-25T08:48:02Z</time>
      </trkpt>
      <trkpt lat="-21.26543" lon="55.6827">
        <ele>2300.2</ele>
        <time>2013-03-25T08:48:07Z</time>
      </trkpt>
      <trkpt lat="-21.26534" lon="55.68268">
        <ele>2299.6</ele>
        <time>2013-03-25T08:48:12Z</time>
      </trkpt>
      <trkpt lat="-21.26527" lon="55.68266">
        <ele>2298.8</ele>
        <time>2013-03-25T08:48:17Z</time>
      </trkpt>
      <trkpt lat="-21.2652" lon="55.68263">
        <ele>2298.7</ele>
        <time>2013-03-25T08:48:23Z</time>
      </trkpt>
      <trkpt lat="-21.26513" lon="55.68259">
        <ele>2298.2</ele>
        <time>2013-03-25T08:48:28Z</time>
      </trkpt>
      <trkpt lat="-21.26507" lon="55.68255">
        <ele>2297.9</ele>
        <time>2013-03-25T08:48:33Z</time>
      </trkpt>
      <trkpt lat="-21.265" lon="55.6825">
        <ele>2297.2</ele>
        <time>2013-03-25T08:48:38Z</time>
      </trkpt>
      <trkpt lat="-21.26494" lon="55.68243">
        <ele>2296.8</ele>
        <time>2013-03-25T08:48:44Z</time>
      </trkpt>
      <trkpt lat="-21.26488" lon="55.68237">
        <ele>2296.9</ele>
        <time>2013-03-25T08:48:49Z</time>
      </trkpt>
      <trkpt lat="-21.26483" lon="55.68231">
        <ele>2297.3</ele>
        <time>2013-03-25T08:48:54Z</time>
      </trkpt>
      <trkpt lat="-21.26482" lon="55.68229">
        <ele>2297.3</ele>
        <time>2013-03-25T08:48:55Z</time>
      </trkpt>
      <trkpt lat="-21.26472" lon="55.68218">
        <ele>2298.2</ele>
        <time>2013-03-25T08:49:04Z</time>
      </trkpt>
      <trkpt lat="-21.26464" lon="55.68214">
        <ele>2299</ele>
        <time>2013-03-25T08:49:10Z</time>
      </trkpt>
      <trkpt lat="-21.26456" lon="55.68212">
        <ele>2299.5</ele>
        <time>2013-03-25T08:49:16Z</time>
      </trkpt>
      <trkpt lat="-21.26447" lon="55.6821">
        <ele>2299.5</ele>
        <time>2013-03-25T08:49:22Z</time>
      </trkpt>
      <trkpt lat="-21.2644" lon="55.68207">
        <ele>2299.8</ele>
        <time>2013-03-25T08:49:27Z</time>
      </trkpt>
      <trkpt lat="-21.26432" lon="55.68203">
        <ele>2300.2</ele>
        <time>2013-03-25T08:49:32Z</time>
      </trkpt>
      <trkpt lat="-21.26425" lon="55.68198">
        <ele>2301.2</ele>
        <time>2013-03-25T08:49:38Z</time>
      </trkpt>
      <trkpt lat="-21.26417" lon="55.68193">
        <ele>2300.5</ele>
        <time>2013-03-25T08:49:44Z</time>
      </trkpt>
      <trkpt lat="-21.26409" lon="55.6819">
        <ele>2300.4</ele>
        <time>2013-03-25T08:49:50Z</time>
      </trkpt>
      <trkpt lat="-21.26402" lon="55.68187">
        <ele>2301.4</ele>
        <time>2013-03-25T08:49:55Z</time>
      </trkpt>
      <trkpt lat="-21.26401" lon="55.68186">
        <ele>2301.4</ele>
        <time>2013-03-25T08:49:56Z</time>
      </trkpt>
      <trkpt lat="-21.26388" lon="55.68178">
        <ele>2300.8</ele>
        <time>2013-03-25T08:50:06Z</time>
      </trkpt>
      <trkpt lat="-21.2638" lon="55.68174">
        <ele>2299.7</ele>
        <time>2013-03-25T08:50:12Z</time>
      </trkpt>
      <trkpt lat="-21.26373" lon="55.68169">
        <ele>2299.7</ele>
        <time>2013-03-25T08:50:18Z</time>
      </trkpt>
      <trkpt lat="-21.26366" lon="55.68165">
        <ele>2298.9</ele>
        <time>2013-03-25T08:50:23Z</time>
      </trkpt>
      <trkpt lat="-21.26359" lon="55.68161">
        <ele>2299</ele>
        <time>2013-03-25T08:50:28Z</time>
      </trkpt>
      <trkpt lat="-21.26351" lon="55.68159">
        <ele>2298.2</ele>
        <time>2013-03-25T08:50:33Z</time>
      </trkpt>
      <trkpt lat="-21.26343" lon="55.68156">
        <ele>2297</ele>
        <time>2013-03-25T08:50:38Z</time>
      </trkpt>
      <trkpt lat="-21.26335" lon="55.68153">
        <ele>2296.8</ele>
        <time>2013-03-25T08:50:43Z</time>
      </trkpt>
      <trkpt lat="-21.26327" lon="55.6815">
        <ele>2296.6</ele>
        <time>2013-03-25T08:50:48Z</time>
      </trkpt>
      <trkpt lat="-21.26319" lon="55.68147">
        <ele>2296.4</ele>
        <time>2013-03-25T08:50:53Z</time>
      </trkpt>
      <trkpt lat="-21.26312" lon="55.68144">
        <ele>2296.6</ele>
        <time>2013-03-25T08:50:58Z</time>
      </trkpt>
      <trkpt lat="-21.2631" lon="55.68144">
        <ele>2296.4</ele>
        <time>2013-03-25T08:50:59Z</time>
      </trkpt>
      <trkpt lat="-21.26297" lon="55.68139">
        <ele>2297.3</ele>
        <time>2013-03-25T08:51:09Z</time>
      </trkpt>
      <trkpt lat="-21.26289" lon="55.68136">
        <ele>2297.2</ele>
        <time>2013-03-25T08:51:15Z</time>
      </trkpt>
      <trkpt lat="-21.2628" lon="55.68133">
        <ele>2297</ele>
        <time>2013-03-25T08:51:21Z</time>
      </trkpt>
      <trkpt lat="-21.26273" lon="55.68131">
        <ele>2297.3</ele>
        <time>2013-03-25T08:51:26Z</time>
      </trkpt>
      <trkpt lat="-21.26265" lon="55.68128">
        <ele>2297.7</ele>
        <time>2013-03-25T08:51:31Z</time>
      </trkpt>
      <trkpt lat="-21.26258" lon="55.68125">
        <ele>2297.5</ele>
        <time>2013-03-25T08:51:36Z</time>
      </trkpt>
      <trkpt lat="-21.2625" lon="55.68121">
        <ele>2297.2</ele>
        <time>2013-03-25T08:51:41Z</time>
      </trkpt>
      <trkpt lat="-21.26243" lon="55.68117">
        <ele>2297.1</ele>
        <time>2013-03-25T08:51:46Z</time>
      </trkpt>
      <trkpt lat="-21.26237" lon="55.68112">
        <ele>2298.1</ele>
        <time>2013-03-25T08:51:51Z</time>
      </trkpt>
      <trkpt lat="-21.2623" lon="55.68108">
        <ele>2297.1</ele>
        <time>2013-03-25T08:51:56Z</time>
      </trkpt>
      <trkpt lat="-21.26222" lon="55.68106">
        <ele>2297</ele>
        <time>2013-03-25T08:52:01Z</time>
      </trkpt>
      <trkpt lat="-21.26221" lon="55.68106">
        <ele>2297.3</ele>
        <time>2013-03-25T08:52:02Z</time>
      </trkpt>
      <trkpt lat="-21.26205" lon="55.68108">
        <ele>2298.8</ele>
        <time>2013-03-25T08:52:13Z</time>
      </trkpt>
      <trkpt lat="-21.26197" lon="55.68109">
        <ele>2299.1</ele>
        <time>2013-03-25T08:52:19Z</time>
      </trkpt>
      <trkpt lat="-21.26189" lon="55.68108">
        <ele>2299.6</ele>
        <time>2013-03-25T08:52:24Z</time>
      </trkpt>
      <trkpt lat="-21.26181" lon="55.68108">
        <ele>2300.2</ele>
        <time>2013-03-25T08:52:30Z</time>
      </trkpt>
      <trkpt lat="-21.26173" lon="55.68106">
        <ele>2300.4</ele>
        <time>2013-03-25T08:52:36Z</time>
      </trkpt>
      <trkpt lat="-21.26165" lon="55.68106">
        <ele>2300.5</ele>
        <time>2013-03-25T08:52:41Z</time>
      </trkpt>
      <trkpt lat="-21.26156" lon="55.68107">
        <ele>2303.1</ele>
        <time>2013-03-25T08:52:47Z</time>
      </trkpt>
      <trkpt lat="-21.26148" lon="55.68105">
        <ele>2303.5</ele>
        <time>2013-03-25T08:52:53Z</time>
      </trkpt>
      <trkpt lat="-21.26139" lon="55.68105">
        <ele>2303.9</ele>
        <time>2013-03-25T08:52:58Z</time>
      </trkpt>
      <trkpt lat="-21.26131" lon="55.68105">
        <ele>2303.5</ele>
        <time>2013-03-25T08:53:04Z</time>
      </trkpt>
      <trkpt lat="-21.26129" lon="55.68105">
        <ele>2303.6</ele>
        <time>2013-03-25T08:53:05Z</time>
      </trkpt>
      <trkpt lat="-21.26115" lon="55.68106">
        <ele>2303.3</ele>
        <time>2013-03-25T08:53:14Z</time>
      </trkpt>
      <trkpt lat="-21.26107" lon="55.68106">
        <ele>2302.1</ele>
        <time>2013-03-25T08:53:20Z</time>
      </trkpt>
      <trkpt lat="-21.26099" lon="55.68106">
        <ele>2302.6</ele>
        <time>2013-03-25T08:53:25Z</time>
      </trkpt>
      <trkpt lat="-21.2609" lon="55.68105">
        <ele>2303</ele>
        <time>2013-03-25T08:53:31Z</time>
      </trkpt>
      <trkpt lat="-21.26081" lon="55.68105">
        <ele>2303</ele>
        <time>2013-03-25T08:53:37Z</time>
      </trkpt>
      <trkpt lat="-21.26073" lon="55.68105">
        <ele>2303.5</ele>
        <time>2013-03-25T08:53:43Z</time>
      </trkpt>
      <trkpt lat="-21.26064" lon="55.68105">
        <ele>2304</ele>
        <time>2013-03-25T08:53:50Z</time>
      </trkpt>
      <trkpt lat="-21.26056" lon="55.68103">
        <ele>2304.7</ele>
        <time>2013-03-25T08:53:56Z</time>
      </trkpt>
      <trkpt lat="-21.26048" lon="55.68102">
        <ele>2304.7</ele>
        <time>2013-03-25T08:54:01Z</time>
      </trkpt>
      <trkpt lat="-21.2604" lon="55.68099">
        <ele>2306.3</ele>
        <time>2013-03-25T08:54:07Z</time>
      </trkpt>
      <trkpt lat="-21.26038" lon="55.68099">
        <ele>2306.4</ele>
        <time>2013-03-25T08:54:08Z</time>
      </trkpt>
      <trkpt lat="-21.26024" lon="55.68095">
        <ele>2307.3</ele>
        <time>2013-03-25T08:54:19Z</time>
      </trkpt>
      <trkpt lat="-21.26017" lon="55.68092">
        <ele>2308.4</ele>
        <time>2013-03-25T08:54:24Z</time>
      </trkpt>
      <trkpt lat="-21.2601" lon="55.68088">
        <ele>2308.7</ele>
        <time>2013-03-25T08:54:29Z</time>
      </trkpt>
      <trkpt lat="-21.26002" lon="55.68085">
        <ele>2310</ele>
        <time>2013-03-25T08:54:34Z</time>
      </trkpt>
      <trkpt lat="-21.25994" lon="55.68083">
        <ele>2310.8</ele>
        <time>2013-03-25T08:54:40Z</time>
      </trkpt>
      <trkpt lat="-21.25986" lon="55.68083">
        <ele>2309.8</ele>
        <time>2013-03-25T08:54:46Z</time>
      </trkpt>
      <trkpt lat="-21.25977" lon="55.68081">
        <ele>2310.3</ele>
        <time>2013-03-25T08:54:52Z</time>
      </trkpt>
      <trkpt lat="-21.25969" lon="55.6808">
        <ele>2310</ele>
        <time>2013-03-25T08:54:57Z</time>
      </trkpt>
      <trkpt lat="-21.25962" lon="55.6808">
        <ele>2310.1</ele>
        <time>2013-03-25T08:55:03Z</time>
      </trkpt>
      <trkpt lat="-21.25954" lon="55.68079">
        <ele>2311.1</ele>
        <time>2013-03-25T08:55:09Z</time>
      </trkpt>
      <trkpt lat="-21.25953" lon="55.68078">
        <ele>2311.2</ele>
        <time>2013-03-25T08:55:10Z</time>
      </trkpt>
      <trkpt lat="-21.25939" lon="55.6807">
        <ele>2312.8</ele>
        <time>2013-03-25T08:55:23Z</time>
      </trkpt>
      <trkpt lat="-21.25931" lon="55.6807">
        <ele>2313.9</ele>
        <time>2013-03-25T08:55:30Z</time>
      </trkpt>
      <trkpt lat="-21.25923" lon="55.68068">
        <ele>2314.2</ele>
        <time>2013-03-25T08:55:36Z</time>
      </trkpt>
      <trkpt lat="-21.25914" lon="55.68066">
        <ele>2314.3</ele>
        <time>2013-03-25T08:55:42Z</time>
      </trkpt>
      <trkpt lat="-21.25906" lon="55.68063">
        <ele>2314.9</ele>
        <time>2013-03-25T08:55:48Z</time>
      </trkpt>
      <trkpt lat="-21.25897" lon="55.68062">
        <ele>2315.8</ele>
        <time>2013-03-25T08:55:54Z</time>
      </trkpt>
      <trkpt lat="-21.2589" lon="55.6806">
        <ele>2315.6</ele>
        <time>2013-03-25T08:55:59Z</time>
      </trkpt>
      <trkpt lat="-21.25882" lon="55.6806">
        <ele>2316.4</ele>
        <time>2013-03-25T08:56:05Z</time>
      </trkpt>
      <trkpt lat="-21.25873" lon="55.68058">
        <ele>2316.2</ele>
        <time>2013-03-25T08:56:11Z</time>
      </trkpt>
      <trkpt lat="-21.25872" lon="55.68058">
        <ele>2316.2</ele>
        <time>2013-03-25T08:56:12Z</time>
      </trkpt>
      <trkpt lat="-21.25858" lon="55.68054">
        <ele>2317.2</ele>
        <time>2013-03-25T08:56:22Z</time>
      </trkpt>
      <trkpt lat="-21.2585" lon="55.68052">
        <ele>2316.3</ele>
        <time>2013-03-25T08:56:27Z</time>
      </trkpt>
      <trkpt lat="-21.25843" lon="55.68048">
        <ele>2317.2</ele>
        <time>2013-03-25T08:56:33Z</time>
      </trkpt>
      <trkpt lat="-21.25835" lon="55.68044">
        <ele>2317</ele>
        <time>2013-03-25T08:56:39Z</time>
      </trkpt>
      <trkpt lat="-21.25827" lon="55.68041">
        <ele>2316.6</ele>
        <time>2013-03-25T08:56:45Z</time>
      </trkpt>
      <trkpt lat="-21.25819" lon="55.6804">
        <ele>2316.6</ele>
        <time>2013-03-25T08:56:50Z</time>
      </trkpt>
      <trkpt lat="-21.25812" lon="55.6804">
        <ele>2316.8</ele>
        <time>2013-03-25T08:56:55Z</time>
      </trkpt>
      <trkpt lat="-21.25803" lon="55.68038">
        <ele>2317.3</ele>
        <time>2013-03-25T08:57:01Z</time>
      </trkpt>
      <trkpt lat="-21.25795" lon="55.68036">
        <ele>2316.7</ele>
        <time>2013-03-25T08:57:07Z</time>
      </trkpt>
      <trkpt lat="-21.25788" lon="55.68033">
        <ele>2316.1</ele>
        <time>2013-03-25T08:57:12Z</time>
      </trkpt>
      <trkpt lat="-21.25786" lon="55.68032">
        <ele>2315.9</ele>
        <time>2013-03-25T08:57:13Z</time>
      </trkpt>
      <trkpt lat="-21.25774" lon="55.68026">
        <ele>2315</ele>
        <time>2013-03-25T08:57:22Z</time>
      </trkpt>
      <trkpt lat="-21.25766" lon="55.68024">
        <ele>2314.6</ele>
        <time>2013-03-25T08:57:27Z</time>
      </trkpt>
      <trkpt lat="-21.25759" lon="55.68022">
        <ele>2315</ele>
        <time>2013-03-25T08:57:32Z</time>
      </trkpt>
      <trkpt lat="-21.2575" lon="55.6802">
        <ele>2313.6</ele>
        <time>2013-03-25T08:57:38Z</time>
      </trkpt>
      <trkpt lat="-21.25741" lon="55.6802">
        <ele>2313.5</ele>
        <time>2013-03-25T08:57:44Z</time>
      </trkpt>
      <trkpt lat="-21.25732" lon="55.68018">
        <ele>2313.6</ele>
        <time>2013-03-25T08:57:50Z</time>
      </trkpt>
      <trkpt lat="-21.25724" lon="55.68018">
        <ele>2313.7</ele>
        <time>2013-03-25T08:57:55Z</time>
      </trkpt>
      <trkpt lat="-21.25717" lon="55.68018">
        <ele>2314.2</ele>
        <time>2013-03-25T08:58:01Z</time>
      </trkpt>
      <trkpt lat="-21.25709" lon="55.68014">
        <ele>2316.4</ele>
        <time>2013-03-25T08:58:08Z</time>
      </trkpt>
      <trkpt lat="-21.25703" lon="55.68008">
        <ele>2316.4</ele>
        <time>2013-03-25T08:58:14Z</time>
      </trkpt>
      <trkpt lat="-21.25702" lon="55.68007">
        <ele>2316.7</ele>
        <time>2013-03-25T08:58:15Z</time>
      </trkpt>
      <trkpt lat="-21.25695" lon="55.67992">
        <ele>2317.9</ele>
        <time>2013-03-25T08:58:28Z</time>
      </trkpt>
      <trkpt lat="-21.25691" lon="55.67984">
        <ele>2319.8</ele>
        <time>2013-03-25T08:58:36Z</time>
      </trkpt>
      <trkpt lat="-21.25683" lon="55.67981">
        <ele>2322.1</ele>
        <time>2013-03-25T08:58:46Z</time>
      </trkpt>
      <trkpt lat="-21.25677" lon="55.67988">
        <ele>2322</ele>
        <time>2013-03-25T08:58:52Z</time>
      </trkpt>
      <trkpt lat="-21.25671" lon="55.67994">
        <ele>2322.3</ele>
        <time>2013-03-25T08:58:58Z</time>
      </trkpt>
      <trkpt lat="-21.25666" lon="55.68">
        <ele>2323.3</ele>
        <time>2013-03-25T08:59:04Z</time>
      </trkpt>
      <trkpt lat="-21.25659" lon="55.68005">
        <ele>2324.4</ele>
        <time>2013-03-25T08:59:10Z</time>
      </trkpt>
      <trkpt lat="-21.25652" lon="55.68009">
        <ele>2324.3</ele>
        <time>2013-03-25T08:59:16Z</time>
      </trkpt>
      <trkpt lat="-21.2565" lon="55.68009">
        <ele>2324.1</ele>
        <time>2013-03-25T08:59:17Z</time>
      </trkpt>
      <trkpt lat="-21.25635" lon="55.68007">
        <ele>2323</ele>
        <time>2013-03-25T08:59:28Z</time>
      </trkpt>
      <trkpt lat="-21.25627" lon="55.68005">
        <ele>2323.2</ele>
        <time>2013-03-25T08:59:34Z</time>
      </trkpt>
      <trkpt lat="-21.25618" lon="55.68004">
        <ele>2324.3</ele>
        <time>2013-03-25T08:59:40Z</time>
      </trkpt>
      <trkpt lat="-21.2561" lon="55.68003">
        <ele>2324.2</ele>
        <time>2013-03-25T08:59:46Z</time>
      </trkpt>
      <trkpt lat="-21.25602" lon="55.68005">
        <ele>2324.5</ele>
        <time>2013-03-25T08:59:52Z</time>
      </trkpt>
      <trkpt lat="-21.25593" lon="55.68008">
        <ele>2325</ele>
        <time>2013-03-25T08:59:58Z</time>
      </trkpt>
      <trkpt lat="-21.25584" lon="55.68008">
        <ele>2325.7</ele>
        <time>2013-03-25T09:00:04Z</time>
      </trkpt>
      <trkpt lat="-21.25577" lon="55.68008">
        <ele>2325.6</ele>
        <time>2013-03-25T09:00:09Z</time>
      </trkpt>
      <trkpt lat="-21.25569" lon="55.68008">
        <ele>2325.5</ele>
        <time>2013-03-25T09:00:15Z</time>
      </trkpt>
      <trkpt lat="-21.2556" lon="55.68007">
        <ele>2326.9</ele>
        <time>2013-03-25T09:00:21Z</time>
      </trkpt>
      <trkpt lat="-21.25559" lon="55.68007">
        <ele>2326.8</ele>
        <time>2013-03-25T09:00:22Z</time>
      </trkpt>
      <trkpt lat="-21.25545" lon="55.68008">
        <ele>2324.2</ele>
        <time>2013-03-25T09:00:30Z</time>
      </trkpt>
      <trkpt lat="-21.25538" lon="55.68006">
        <ele>2324.3</ele>
        <time>2013-03-25T09:00:36Z</time>
      </trkpt>
      <trkpt lat="-21.2553" lon="55.68002">
        <ele>2325.1</ele>
        <time>2013-03-25T09:00:42Z</time>
      </trkpt>
      <trkpt lat="-21.25523" lon="55.67998">
        <ele>2325.2</ele>
        <time>2013-03-25T09:00:48Z</time>
      </trkpt>
      <trkpt lat="-21.25515" lon="55.67995">
        <ele>2325.7</ele>
        <time>2013-03-25T09:00:54Z</time>
      </trkpt>
      <trkpt lat="-21.25507" lon="55.67992">
        <ele>2326</ele>
        <time>2013-03-25T09:01:00Z</time>
      </trkpt>
      <trkpt lat="-21.25498" lon="55.6799">
        <ele>2326.4</ele>
        <time>2013-03-25T09:01:06Z</time>
      </trkpt>
      <trkpt lat="-21.25489" lon="55.67988">
        <ele>2326.6</ele>
        <time>2013-03-25T09:01:12Z</time>
      </trkpt>
      <trkpt lat="-21.25481" lon="55.67987">
        <ele>2325.8</ele>
        <time>2013-03-25T09:01:18Z</time>
      </trkpt>
      <trkpt lat="-21.25472" lon="55.67988">
        <ele>2326.6</ele>
        <time>2013-03-25T09:01:24Z</time>
      </trkpt>
      <trkpt lat="-21.25471" lon="55.67989">
        <ele>2326.8</ele>
        <time>2013-03-25T09:01:25Z</time>
      </trkpt>
      <trkpt lat="-21.25455" lon="55.67992">
        <ele>2326.4</ele>
        <time>2013-03-25T09:01:36Z</time>
      </trkpt>
      <trkpt lat="-21.25447" lon="55.67989">
        <ele>2326.5</ele>
        <time>2013-03-25T09:01:42Z</time>
      </trkpt>
      <trkpt lat="-21.2544" lon="55.67985">
        <ele>2325.7</ele>
        <time>2013-03-25T09:01:47Z</time>
      </trkpt>
      <trkpt lat="-21.25433" lon="55.67981">
        <ele>2325.4</ele>
        <time>2013-03-25T09:01:52Z</time>
      </trkpt>
      <trkpt lat="-21.25426" lon="55.67977">
        <ele>2324.8</ele>
        <time>2013-03-25T09:01:57Z</time>
      </trkpt>
      <trkpt lat="-21.25419" lon="55.67974">
        <ele>2324</ele>
        <time>2013-03-25T09:02:02Z</time>
      </trkpt>
      <trkpt lat="-21.2541" lon="55.6797">
        <ele>2324.5</ele>
        <time>2013-03-25T09:02:08Z</time>
      </trkpt>
      <trkpt lat="-21.25403" lon="55.67967">
        <ele>2324.9</ele>
        <time>2013-03-25T09:02:14Z</time>
      </trkpt>
      <trkpt lat="-21.25395" lon="55.67965">
        <ele>2325.5</ele>
        <time>2013-03-25T09:02:19Z</time>
      </trkpt>
      <trkpt lat="-21.25388" lon="55.67963">
        <ele>2324.5</ele>
        <time>2013-03-25T09:02:24Z</time>
      </trkpt>
      <trkpt lat="-21.25379" lon="55.67961">
        <ele>2324.9</ele>
        <time>2013-03-25T09:02:30Z</time>
      </trkpt>
      <trkpt lat="-21.25377" lon="55.6796">
        <ele>2324.9</ele>
        <time>2013-03-25T09:02:31Z</time>
      </trkpt>
      <trkpt lat="-21.25361" lon="55.67958">
        <ele>2325.9</ele>
        <time>2013-03-25T09:02:42Z</time>
      </trkpt>
      <trkpt lat="-21.25353" lon="55.67957">
        <ele>2326.8</ele>
        <time>2013-03-25T09:02:48Z</time>
      </trkpt>
      <trkpt lat="-21.25344" lon="55.67954">
        <ele>2326.4</ele>
        <time>2013-03-25T09:02:54Z</time>
      </trkpt>
      <trkpt lat="-21.25336" lon="55.67953">
        <ele>2325.2</ele>
        <time>2013-03-25T09:03:00Z</time>
      </trkpt>
      <trkpt lat="-21.25328" lon="55.6795">
        <ele>2324.6</ele>
        <time>2013-03-25T09:03:05Z</time>
      </trkpt>
      <trkpt lat="-21.2532" lon="55.67949">
        <ele>2324.4</ele>
        <time>2013-03-25T09:03:11Z</time>
      </trkpt>
      <trkpt lat="-21.25312" lon="55.6795">
        <ele>2325</ele>
        <time>2013-03-25T09:03:17Z</time>
      </trkpt>
      <trkpt lat="-21.25304" lon="55.6795">
        <ele>2325.7</ele>
        <time>2013-03-25T09:03:23Z</time>
      </trkpt>
      <trkpt lat="-21.25295" lon="55.67948">
        <ele>2327.8</ele>
        <time>2013-03-25T09:03:29Z</time>
      </trkpt>
      <trkpt lat="-21.25287" lon="55.67945">
        <ele>2327.7</ele>
        <time>2013-03-25T09:03:35Z</time>
      </trkpt>
      <trkpt lat="-21.25286" lon="55.67945">
        <ele>2327.9</ele>
        <time>2013-03-25T09:03:36Z</time>
      </trkpt>
      <trkpt lat="-21.25271" lon="55.67943">
        <ele>2326.9</ele>
        <time>2013-03-25T09:03:47Z</time>
      </trkpt>
      <trkpt lat="-21.25263" lon="55.67942">
        <ele>2327</ele>
        <time>2013-03-25T09:03:53Z</time>
      </trkpt>
      <trkpt lat="-21.25256" lon="55.67938">
        <ele>2326.5</ele>
        <time>2013-03-25T09:03:59Z</time>
      </trkpt>
      <trkpt lat="-21.25248" lon="55.67934">
        <ele>2326.2</ele>
        <time>2013-03-25T09:04:05Z</time>
      </trkpt>
      <trkpt lat="-21.25239" lon="55.67933">
        <ele>2326.6</ele>
        <time>2013-03-25T09:04:11Z</time>
      </trkpt>
      <trkpt lat="-21.2523" lon="55.67934">
        <ele>2327.5</ele>
        <time>2013-03-25T09:04:17Z</time>
      </trkpt>
      <trkpt lat="-21.25222" lon="55.67935">
        <ele>2326.9</ele>
        <time>2013-03-25T09:04:22Z</time>
      </trkpt>
      <trkpt lat="-21.25214" lon="55.67935">
        <ele>2327.2</ele>
        <time>2013-03-25T09:04:27Z</time>
      </trkpt>
      <trkpt lat="-21.25206" lon="55.67934">
        <ele>2326.5</ele>
        <time>2013-03-25T09:04:32Z</time>
      </trkpt>
      <trkpt lat="-21.25198" lon="55.67933">
        <ele>2325.6</ele>
        <time>2013-03-25T09:04:37Z</time>
      </trkpt>
      <trkpt lat="-21.25197" lon="55.67933">
        <ele>2325.5</ele>
        <time>2013-03-25T09:04:38Z</time>
      </trkpt>
      <trkpt lat="-21.25183" lon="55.67928">
        <ele>2326.6</ele>
        <time>2013-03-25T09:04:48Z</time>
      </trkpt>
      <trkpt lat="-21.25175" lon="55.67926">
        <ele>2326.6</ele>
        <time>2013-03-25T09:04:54Z</time>
      </trkpt>
      <trkpt lat="-21.25168" lon="55.67922">
        <ele>2328.1</ele>
        <time>2013-03-25T09:05:01Z</time>
      </trkpt>
      <trkpt lat="-21.2516" lon="55.67918">
        <ele>2329.6</ele>
        <time>2013-03-25T09:05:09Z</time>
      </trkpt>
      <trkpt lat="-21.25151" lon="55.67917">
        <ele>2331.5</ele>
        <time>2013-03-25T09:05:17Z</time>
      </trkpt>
      <trkpt lat="-21.25143" lon="55.67917">
        <ele>2332</ele>
        <time>2013-03-25T09:05:23Z</time>
      </trkpt>
      <trkpt lat="-21.25136" lon="55.67916">
        <ele>2331.6</ele>
        <time>2013-03-25T09:05:29Z</time>
      </trkpt>
      <trkpt lat="-21.25127" lon="55.67916">
        <ele>2332.9</ele>
        <time>2013-03-25T09:05:35Z</time>
      </trkpt>
      <trkpt lat="-21.25119" lon="55.67916">
        <ele>2333.5</ele>
        <time>2013-03-25T09:05:41Z</time>
      </trkpt>
      <trkpt lat="-21.25117" lon="55.67916">
        <ele>2333.5</ele>
        <time>2013-03-25T09:05:42Z</time>
      </trkpt>
      <trkpt lat="-21.25102" lon="55.67915">
        <ele>2334.3</ele>
        <time>2013-03-25T09:05:53Z</time>
      </trkpt>
      <trkpt lat="-21.25094" lon="55.67915">
        <ele>2334.5</ele>
        <time>2013-03-25T09:05:59Z</time>
      </trkpt>
      <trkpt lat="-21.25086" lon="55.67915">
        <ele>2335.7</ele>
        <time>2013-03-25T09:06:05Z</time>
      </trkpt>
      <trkpt lat="-21.25077" lon="55.67914">
        <ele>2335.6</ele>
        <time>2013-03-25T09:06:11Z</time>
      </trkpt>
      <trkpt lat="-21.25068" lon="55.67913">
        <ele>2336</ele>
        <time>2013-03-25T09:06:17Z</time>
      </trkpt>
      <trkpt lat="-21.25061" lon="55.67911">
        <ele>2336.6</ele>
        <time>2013-03-25T09:06:23Z</time>
      </trkpt>
      <trkpt lat="-21.25053" lon="55.67908">
        <ele>2336.7</ele>
        <time>2013-03-25T09:06:29Z</time>
      </trkpt>
      <trkpt lat="-21.25044" lon="55.67906">
        <ele>2336.7</ele>
        <time>2013-03-25T09:06:35Z</time>
      </trkpt>
      <trkpt lat="-21.25036" lon="55.67906">
        <ele>2337.2</ele>
        <time>2013-03-25T09:06:41Z</time>
      </trkpt>
      <trkpt lat="-21.25028" lon="55.67906">
        <ele>2337</ele>
        <time>2013-03-25T09:06:47Z</time>
      </trkpt>
      <trkpt lat="-21.25027" lon="55.67906">
        <ele>2337</ele>
        <time>2013-03-25T09:06:48Z</time>
      </trkpt>
      <trkpt lat="-21.25011" lon="55.67904">
        <ele>2336.7</ele>
        <time>2013-03-25T09:06:59Z</time>
      </trkpt>
      <trkpt lat="-21.25003" lon="55.67903">
        <ele>2337.7</ele>
        <time>2013-03-25T09:07:05Z</time>
      </trkpt>
      <trkpt lat="-21.24995" lon="55.67901">
        <ele>2338.5</ele>
        <time>2013-03-25T09:07:12Z</time>
      </trkpt>
      <trkpt lat="-21.24987" lon="55.67899">
        <ele>2339.3</ele>
        <time>2013-03-25T09:07:18Z</time>
      </trkpt>
      <trkpt lat="-21.24979" lon="55.67897">
        <ele>2340.4</ele>
        <time>2013-03-25T09:07:24Z</time>
      </trkpt>
      <trkpt lat="-21.24972" lon="55.67893">
        <ele>2340</ele>
        <time>2013-03-25T09:07:31Z</time>
      </trkpt>
      <trkpt lat="-21.24964" lon="55.6789">
        <ele>2341</ele>
        <time>2013-03-25T09:07:38Z</time>
      </trkpt>
      <trkpt lat="-21.24957" lon="55.67885">
        <ele>2342.8</ele>
        <time>2013-03-25T09:07:45Z</time>
      </trkpt>
      <trkpt lat="-21.2495" lon="55.67879">
        <ele>2344.5</ele>
        <time>2013-03-25T09:07:52Z</time>
      </trkpt>
      <trkpt lat="-21.24949" lon="55.67878">
        <ele>2344.6</ele>
        <time>2013-03-25T09:07:53Z</time>
      </trkpt>
      <trkpt lat="-21.24937" lon="55.67869">
        <ele>2344.7</ele>
        <time>2013-03-25T09:08:04Z</time>
      </trkpt>
      <trkpt lat="-21.2493" lon="55.67863">
        <ele>2343.9</ele>
        <time>2013-03-25T09:08:10Z</time>
      </trkpt>
      <trkpt lat="-21.24923" lon="55.67859">
        <ele>2343.2</ele>
        <time>2013-03-25T09:08:16Z</time>
      </trkpt>
      <trkpt lat="-21.24916" lon="55.67854">
        <ele>2342.9</ele>
        <time>2013-03-25T09:08:21Z</time>
      </trkpt>
      <trkpt lat="-21.2491" lon="55.6785">
        <ele>2343</ele>
        <time>2013-03-25T09:08:26Z</time>
      </trkpt>
      <trkpt lat="-21.24903" lon="55.67845">
        <ele>2342.7</ele>
        <time>2013-03-25T09:08:31Z</time>
      </trkpt>
      <trkpt lat="-21.24897" lon="55.6784">
        <ele>2342.3</ele>
        <time>2013-03-25T09:08:36Z</time>
      </trkpt>
      <trkpt lat="-21.24892" lon="55.67835">
        <ele>2342.2</ele>
        <time>2013-03-25T09:08:41Z</time>
      </trkpt>
      <trkpt lat="-21.24886" lon="55.6783">
        <ele>2342</ele>
        <time>2013-03-25T09:08:46Z</time>
      </trkpt>
      <trkpt lat="-21.24879" lon="55.67825">
        <ele>2341.7</ele>
        <time>2013-03-25T09:08:51Z</time>
      </trkpt>
      <trkpt lat="-21.24872" lon="55.67819">
        <ele>2341.5</ele>
        <time>2013-03-25T09:08:57Z</time>
      </trkpt>
      <trkpt lat="-21.24871" lon="55.67818">
        <ele>2341.2</ele>
        <time>2013-03-25T09:08:58Z</time>
      </trkpt>
      <trkpt lat="-21.2486" lon="55.67807">
        <ele>2340.8</ele>
        <time>2013-03-25T09:09:08Z</time>
      </trkpt>
      <trkpt lat="-21.24853" lon="55.67801">
        <ele>2341.1</ele>
        <time>2013-03-25T09:09:14Z</time>
      </trkpt>
      <trkpt lat="-21.24845" lon="55.67796">
        <ele>2340.5</ele>
        <time>2013-03-25T09:09:20Z</time>
      </trkpt>
      <trkpt lat="-21.24837" lon="55.67792">
        <ele>2340.3</ele>
        <time>2013-03-25T09:09:26Z</time>
      </trkpt>
      <trkpt lat="-21.2483" lon="55.67788">
        <ele>2341.1</ele>
        <time>2013-03-25T09:09:32Z</time>
      </trkpt>
      <trkpt lat="-21.24823" lon="55.67784">
        <ele>2341.2</ele>
        <time>2013-03-25T09:09:37Z</time>
      </trkpt>
      <trkpt lat="-21.24817" lon="55.67779">
        <ele>2341.1</ele>
        <time>2013-03-25T09:09:42Z</time>
      </trkpt>
      <trkpt lat="-21.24811" lon="55.67774">
        <ele>2341.3</ele>
        <time>2013-03-25T09:09:47Z</time>
      </trkpt>
      <trkpt lat="-21.24804" lon="55.67768">
        <ele>2340.9</ele>
        <time>2013-03-25T09:09:53Z</time>
      </trkpt>
      <trkpt lat="-21.24797" lon="55.67762">
        <ele>2341.4</ele>
        <time>2013-03-25T09:09:59Z</time>
      </trkpt>
      <trkpt lat="-21.24796" lon="55.67761">
        <ele>2341.3</ele>
        <time>2013-03-25T09:10:00Z</time>
      </trkpt>
      <trkpt lat="-21.24785" lon="55.67753">
        <ele>2340.8</ele>
        <time>2013-03-25T09:10:09Z</time>
      </trkpt>
      <trkpt lat="-21.24779" lon="55.67748">
        <ele>2340.5</ele>
        <time>2013-03-25T09:10:14Z</time>
      </trkpt>
      <trkpt lat="-21.24771" lon="55.67743">
        <ele>2340.5</ele>
        <time>2013-03-25T09:10:20Z</time>
      </trkpt>
      <trkpt lat="-21.24766" lon="55.67737">
        <ele>2341.2</ele>
        <time>2013-03-25T09:10:26Z</time>
      </trkpt>
      <trkpt lat="-21.2476" lon="55.6773">
        <ele>2341</ele>
        <time>2013-03-25T09:10:32Z</time>
      </trkpt>
      <trkpt lat="-21.24754" lon="55.67723">
        <ele>2341.2</ele>
        <time>2013-03-25T09:10:38Z</time>
      </trkpt>
      <trkpt lat="-21.24748" lon="55.67718">
        <ele>2340.8</ele>
        <time>2013-03-25T09:10:44Z</time>
      </trkpt>
      <trkpt lat="-21.2474" lon="55.67715">
        <ele>2341.7</ele>
        <time>2013-03-25T09:10:50Z</time>
      </trkpt>
      <trkpt lat="-21.24732" lon="55.67713">
        <ele>2342.3</ele>
        <time>2013-03-25T09:10:56Z</time>
      </trkpt>
      <trkpt lat="-21.24725" lon="55.67709">
        <ele>2342.7</ele>
        <time>2013-03-25T09:11:02Z</time>
      </trkpt>
      <trkpt lat="-21.24724" lon="55.67708">
        <ele>2342.6</ele>
        <time>2013-03-25T09:11:03Z</time>
      </trkpt>
      <trkpt lat="-21.24709" lon="55.67703">
        <ele>2345</ele>
        <time>2013-03-25T09:11:16Z</time>
      </trkpt>
      <trkpt lat="-21.24702" lon="55.67697">
        <ele>2345.7</ele>
        <time>2013-03-25T09:11:23Z</time>
      </trkpt>
      <trkpt lat="-21.24697" lon="55.6769">
        <ele>2346.1</ele>
        <time>2013-03-25T09:11:30Z</time>
      </trkpt>
      <trkpt lat="-21.24692" lon="55.67683">
        <ele>2346.1</ele>
        <time>2013-03-25T09:11:37Z</time>
      </trkpt>
      <trkpt lat="-21.24688" lon="55.67676">
        <ele>2346.7</ele>
        <time>2013-03-25T09:11:43Z</time>
      </trkpt>
      <trkpt lat="-21.24684" lon="55.67668">
        <ele>2348.1</ele>
        <time>2013-03-25T09:11:49Z</time>
      </trkpt>
      <trkpt lat="-21.24681" lon="55.6766">
        <ele>2348.7</ele>
        <time>2013-03-25T09:11:55Z</time>
      </trkpt>
      <trkpt lat="-21.24678" lon="55.67652">
        <ele>2348.6</ele>
        <time>2013-03-25T09:12:00Z</time>
      </trkpt>
      <trkpt lat="-21.24676" lon="55.67644">
        <ele>2348.3</ele>
        <time>2013-03-25T09:12:05Z</time>
      </trkpt>
      <trkpt lat="-21.24676" lon="55.67643">
        <ele>2348</ele>
        <time>2013-03-25T09:12:06Z</time>
      </trkpt>
      <trkpt lat="-21.24672" lon="55.67626">
        <ele>2347.4</ele>
        <time>2013-03-25T09:12:17Z</time>
      </trkpt>
      <trkpt lat="-21.24667" lon="55.67619">
        <ele>2346.9</ele>
        <time>2013-03-25T09:12:23Z</time>
      </trkpt>
      <trkpt lat="-21.2466" lon="55.67614">
        <ele>2347.6</ele>
        <time>2013-03-25T09:12:30Z</time>
      </trkpt>
      <trkpt lat="-21.24651" lon="55.67615">
        <ele>2347.7</ele>
        <time>2013-03-25T09:12:36Z</time>
      </trkpt>
      <trkpt lat="-21.24642" lon="55.67617">
        <ele>2347.6</ele>
        <time>2013-03-25T09:12:42Z</time>
      </trkpt>
      <trkpt lat="-21.24634" lon="55.67621">
        <ele>2347.3</ele>
        <time>2013-03-25T09:12:48Z</time>
      </trkpt>
      <trkpt lat="-21.24627" lon="55.67624">
        <ele>2348.8</ele>
        <time>2013-03-25T09:12:54Z</time>
      </trkpt>
      <trkpt lat="-21.24619" lon="55.67627">
        <ele>2349.8</ele>
        <time>2013-03-25T09:13:01Z</time>
      </trkpt>
      <trkpt lat="-21.24611" lon="55.6763">
        <ele>2350.4</ele>
        <time>2013-03-25T09:13:07Z</time>
      </trkpt>
      <trkpt lat="-21.2461" lon="55.6763">
        <ele>2350.3</ele>
        <time>2013-03-25T09:13:08Z</time>
      </trkpt>
      <trkpt lat="-21.24595" lon="55.67634">
        <ele>2350.6</ele>
        <time>2013-03-25T09:13:19Z</time>
      </trkpt>
      <trkpt lat="-21.24587" lon="55.67633">
        <ele>2350.1</ele>
        <time>2013-03-25T09:13:25Z</time>
      </trkpt>
      <trkpt lat="-21.24578" lon="55.67631">
        <ele>2349.9</ele>
        <time>2013-03-25T09:13:31Z</time>
      </trkpt>
      <trkpt lat="-21.2457" lon="55.67629">
        <ele>2349.2</ele>
        <time>2013-03-25T09:13:37Z</time>
      </trkpt>
      <trkpt lat="-21.24562" lon="55.67628">
        <ele>2349.4</ele>
        <time>2013-03-25T09:13:43Z</time>
      </trkpt>
      <trkpt lat="-21.24554" lon="55.67627">
        <ele>2350.2</ele>
        <time>2013-03-25T09:13:49Z</time>
      </trkpt>
      <trkpt lat="-21.24546" lon="55.67626">
        <ele>2350.5</ele>
        <time>2013-03-25T09:13:55Z</time>
      </trkpt>
      <trkpt lat="-21.24538" lon="55.67625">
        <ele>2350.1</ele>
        <time>2013-03-25T09:14:01Z</time>
      </trkpt>
      <trkpt lat="-21.2453" lon="55.67623">
        <ele>2350.9</ele>
        <time>2013-03-25T09:14:08Z</time>
      </trkpt>
      <trkpt lat="-21.24528" lon="55.67622">
        <ele>2350.9</ele>
        <time>2013-03-25T09:14:09Z</time>
      </trkpt>
      <trkpt lat="-21.24513" lon="55.67618">
        <ele>2351.1</ele>
        <time>2013-03-25T09:14:22Z</time>
      </trkpt>
      <trkpt lat="-21.24504" lon="55.67618">
        <ele>2351.7</ele>
        <time>2013-03-25T09:14:29Z</time>
      </trkpt>
      <trkpt lat="-21.24496" lon="55.67618">
        <ele>2353.1</ele>
        <time>2013-03-25T09:14:35Z</time>
      </trkpt>
      <trkpt lat="-21.24487" lon="55.67619">
        <ele>2352.6</ele>
        <time>2013-03-25T09:14:41Z</time>
      </trkpt>
      <trkpt lat="-21.24479" lon="55.6762">
        <ele>2353.1</ele>
        <time>2013-03-25T09:14:47Z</time>
      </trkpt>
      <trkpt lat="-21.24471" lon="55.67621">
        <ele>2353.6</ele>
        <time>2013-03-25T09:14:53Z</time>
      </trkpt>
      <trkpt lat="-21.24462" lon="55.67622">
        <ele>2354.3</ele>
        <time>2013-03-25T09:15:00Z</time>
      </trkpt>
      <trkpt lat="-21.24456" lon="55.67616">
        <ele>2354.3</ele>
        <time>2013-03-25T09:15:16Z</time>
      </trkpt>
      <trkpt lat="-21.24456" lon="55.67615">
        <ele>2354.3</ele>
        <time>2013-03-25T09:15:17Z</time>
      </trkpt>
      <trkpt lat="-21.24445" lon="55.67605">
        <ele>2354.1</ele>
        <time>2013-03-25T09:15:31Z</time>
      </trkpt>
      <trkpt lat="-21.24436" lon="55.67603">
        <ele>2355.4</ele>
        <time>2013-03-25T09:15:38Z</time>
      </trkpt>
      <trkpt lat="-21.24428" lon="55.67601">
        <ele>2356.6</ele>
        <time>2013-03-25T09:15:46Z</time>
      </trkpt>
      <trkpt lat="-21.2442" lon="55.67604">
        <ele>2357.1</ele>
        <time>2013-03-25T09:15:53Z</time>
      </trkpt>
      <trkpt lat="-21.24413" lon="55.67607">
        <ele>2357.3</ele>
        <time>2013-03-25T09:15:59Z</time>
      </trkpt>
      <trkpt lat="-21.24405" lon="55.6761">
        <ele>2357.4</ele>
        <time>2013-03-25T09:16:06Z</time>
      </trkpt>
      <trkpt lat="-21.24397" lon="55.67612">
        <ele>2357.5</ele>
        <time>2013-03-25T09:16:11Z</time>
      </trkpt>
      <trkpt lat="-21.24389" lon="55.67616">
        <ele>2358.1</ele>
        <time>2013-03-25T09:16:17Z</time>
      </trkpt>
      <trkpt lat="-21.24381" lon="55.67619">
        <ele>2358.6</ele>
        <time>2013-03-25T09:16:23Z</time>
      </trkpt>
      <trkpt lat="-21.2438" lon="55.67619">
        <ele>2358.5</ele>
        <time>2013-03-25T09:16:24Z</time>
      </trkpt>
      <trkpt lat="-21.24364" lon="55.67617">
        <ele>2357.4</ele>
        <time>2013-03-25T09:16:38Z</time>
      </trkpt>
      <trkpt lat="-21.24358" lon="55.6761">
        <ele>2358.9</ele>
        <time>2013-03-25T09:16:47Z</time>
      </trkpt>
      <trkpt lat="-21.24351" lon="55.67607">
        <ele>2359.8</ele>
        <time>2013-03-25T09:16:54Z</time>
      </trkpt>
      <trkpt lat="-21.24343" lon="55.67605">
        <ele>2359.1</ele>
        <time>2013-03-25T09:17:00Z</time>
      </trkpt>
      <trkpt lat="-21.24335" lon="55.67601">
        <ele>2360.2</ele>
        <time>2013-03-25T09:17:07Z</time>
      </trkpt>
      <trkpt lat="-21.24328" lon="55.67597">
        <ele>2359.8</ele>
        <time>2013-03-25T09:17:13Z</time>
      </trkpt>
      <trkpt lat="-21.2432" lon="55.67599">
        <ele>2360.3</ele>
        <time>2013-03-25T09:17:19Z</time>
      </trkpt>
      <trkpt lat="-21.24313" lon="55.67605">
        <ele>2360</ele>
        <time>2013-03-25T09:17:25Z</time>
      </trkpt>
      <trkpt lat="-21.24312" lon="55.67606">
        <ele>2359.8</ele>
        <time>2013-03-25T09:17:26Z</time>
      </trkpt>
      <trkpt lat="-21.24299" lon="55.67613">
        <ele>2360.6</ele>
        <time>2013-03-25T09:17:37Z</time>
      </trkpt>
      <trkpt lat="-21.24291" lon="55.6761">
        <ele>2362.2</ele>
        <time>2013-03-25T09:17:44Z</time>
      </trkpt>
      <trkpt lat="-21.24283" lon="55.67609">
        <ele>2362.2</ele>
        <time>2013-03-25T09:17:52Z</time>
      </trkpt>
      <trkpt lat="-21.24274" lon="55.67607">
        <ele>2362.4</ele>
        <time>2013-03-25T09:17:59Z</time>
      </trkpt>
      <trkpt lat="-21.24266" lon="55.67608">
        <ele>2362.6</ele>
        <time>2013-03-25T09:18:06Z</time>
      </trkpt>
      <trkpt lat="-21.24257" lon="55.67609">
        <ele>2363.2</ele>
        <time>2013-03-25T09:18:13Z</time>
      </trkpt>
      <trkpt lat="-21.24248" lon="55.6761">
        <ele>2362.6</ele>
        <time>2013-03-25T09:18:20Z</time>
      </trkpt>
      <trkpt lat="-21.2424" lon="55.67609">
        <ele>2363.5</ele>
        <time>2013-03-25T09:18:26Z</time>
      </trkpt>
      <trkpt lat="-21.24239" lon="55.67609">
        <ele>2363.4</ele>
        <time>2013-03-25T09:18:27Z</time>
      </trkpt>
      <trkpt lat="-21.24225" lon="55.67605">
        <ele>2364</ele>
        <time>2013-03-25T09:18:39Z</time>
      </trkpt>
      <trkpt lat="-21.24216" lon="55.67605">
        <ele>2364.3</ele>
        <time>2013-03-25T09:18:46Z</time>
      </trkpt>
      <trkpt lat="-21.24208" lon="55.67603">
        <ele>2364.6</ele>
        <time>2013-03-25T09:18:53Z</time>
      </trkpt>
      <trkpt lat="-21.24199" lon="55.67602">
        <ele>2364.4</ele>
        <time>2013-03-25T09:19:00Z</time>
      </trkpt>
      <trkpt lat="-21.24191" lon="55.67601">
        <ele>2363.8</ele>
        <time>2013-03-25T09:19:06Z</time>
      </trkpt>
      <trkpt lat="-21.24183" lon="55.67602">
        <ele>2364.3</ele>
        <time>2013-03-25T09:19:12Z</time>
      </trkpt>
      <trkpt lat="-21.24175" lon="55.67602">
        <ele>2363.9</ele>
        <time>2013-03-25T09:19:18Z</time>
      </trkpt>
      <trkpt lat="-21.24167" lon="55.67599">
        <ele>2365</ele>
        <time>2013-03-25T09:19:25Z</time>
      </trkpt>
      <trkpt lat="-21.24159" lon="55.67598">
        <ele>2365.9</ele>
        <time>2013-03-25T09:19:31Z</time>
      </trkpt>
      <trkpt lat="-21.24158" lon="55.67597">
        <ele>2365.9</ele>
        <time>2013-03-25T09:19:32Z</time>
      </trkpt>
      <trkpt lat="-21.24144" lon="55.67598">
        <ele>2365.2</ele>
        <time>2013-03-25T09:19:44Z</time>
      </trkpt>
      <trkpt lat="-21.24137" lon="55.67602">
        <ele>2365.8</ele>
        <time>2013-03-25T09:19:50Z</time>
      </trkpt>
      <trkpt lat="-21.24129" lon="55.67603">
        <ele>2365.6</ele>
        <time>2013-03-25T09:19:56Z</time>
      </trkpt>
      <trkpt lat="-21.24121" lon="55.67604">
        <ele>2365.6</ele>
        <time>2013-03-25T09:20:02Z</time>
      </trkpt>
      <trkpt lat="-21.24113" lon="55.67603">
        <ele>2365.4</ele>
        <time>2013-03-25T09:20:08Z</time>
      </trkpt>
      <trkpt lat="-21.24105" lon="55.67601">
        <ele>2366.4</ele>
        <time>2013-03-25T09:20:15Z</time>
      </trkpt>
      <trkpt lat="-21.24096" lon="55.67603">
        <ele>2366.7</ele>
        <time>2013-03-25T09:20:23Z</time>
      </trkpt>
      <trkpt lat="-21.24088" lon="55.67605">
        <ele>2367.1</ele>
        <time>2013-03-25T09:20:31Z</time>
      </trkpt>
      <trkpt lat="-21.2408" lon="55.67605">
        <ele>2368</ele>
        <time>2013-03-25T09:20:38Z</time>
      </trkpt>
      <trkpt lat="-21.24078" lon="55.67605">
        <ele>2367.7</ele>
        <time>2013-03-25T09:20:39Z</time>
      </trkpt>
      <trkpt lat="-21.24063" lon="55.67609">
        <ele>2367</ele>
        <time>2013-03-25T09:20:50Z</time>
      </trkpt>
      <trkpt lat="-21.24055" lon="55.67613">
        <ele>2368.4</ele>
        <time>2013-03-25T09:20:57Z</time>
      </trkpt>
      <trkpt lat="-21.24048" lon="55.67616">
        <ele>2367.9</ele>
        <time>2013-03-25T09:21:03Z</time>
      </trkpt>
      <trkpt lat="-21.2404" lon="55.67616">
        <ele>2368</ele>
        <time>2013-03-25T09:21:09Z</time>
      </trkpt>
      <trkpt lat="-21.24031" lon="55.67617">
        <ele>2367.9</ele>
        <time>2013-03-25T09:21:15Z</time>
      </trkpt>
      <trkpt lat="-21.24022" lon="55.67618">
        <ele>2367.8</ele>
        <time>2013-03-25T09:21:21Z</time>
      </trkpt>
      <trkpt lat="-21.24014" lon="55.67615">
        <ele>2368.2</ele>
        <time>2013-03-25T09:21:28Z</time>
      </trkpt>
      <trkpt lat="-21.24006" lon="55.6761">
        <ele>2369.1</ele>
        <time>2013-03-25T09:21:34Z</time>
      </trkpt>
      <trkpt lat="-21.24" lon="55.67604">
        <ele>2368.9</ele>
        <time>2013-03-25T09:21:40Z</time>
      </trkpt>
      <trkpt lat="-21.23999" lon="55.67603">
        <ele>2368.8</ele>
        <time>2013-03-25T09:21:41Z</time>
      </trkpt>
      <trkpt lat="-21.23987" lon="55.67592">
        <ele>2368.2</ele>
        <time>2013-03-25T09:21:52Z</time>
      </trkpt>
      <trkpt lat="-21.23981" lon="55.67586">
        <ele>2368.5</ele>
        <time>2013-03-25T09:21:58Z</time>
      </trkpt>
      <trkpt lat="-21.23972" lon="55.67583">
        <ele>2367.7</ele>
        <time>2013-03-25T09:22:04Z</time>
      </trkpt>
      <trkpt lat="-21.23965" lon="55.67581">
        <ele>2368.2</ele>
        <time>2013-03-25T09:22:09Z</time>
      </trkpt>
      <trkpt lat="-21.23957" lon="55.67586">
        <ele>2367.9</ele>
        <time>2013-03-25T09:22:15Z</time>
      </trkpt>
      <trkpt lat="-21.23949" lon="55.67588">
        <ele>2367.9</ele>
        <time>2013-03-25T09:22:22Z</time>
      </trkpt>
      <trkpt lat="-21.23941" lon="55.67585">
        <ele>2368</ele>
        <time>2013-03-25T09:22:28Z</time>
      </trkpt>
      <trkpt lat="-21.23934" lon="55.67581">
        <ele>2368.5</ele>
        <time>2013-03-25T09:22:33Z</time>
      </trkpt>
      <trkpt lat="-21.23927" lon="55.67577">
        <ele>2369.1</ele>
        <time>2013-03-25T09:22:38Z</time>
      </trkpt>
      <trkpt lat="-21.23919" lon="55.67575">
        <ele>2369.6</ele>
        <time>2013-03-25T09:22:44Z</time>
      </trkpt>
      <trkpt lat="-21.23917" lon="55.67575">
        <ele>2369.4</ele>
        <time>2013-03-25T09:22:45Z</time>
      </trkpt>
      <trkpt lat="-21.23902" lon="55.6757">
        <ele>2369.2</ele>
        <time>2013-03-25T09:22:56Z</time>
      </trkpt>
      <trkpt lat="-21.23893" lon="55.67567">
        <ele>2369.6</ele>
        <time>2013-03-25T09:23:02Z</time>
      </trkpt>
      <trkpt lat="-21.23885" lon="55.67567">
        <ele>2369.6</ele>
        <time>2013-03-25T09:23:08Z</time>
      </trkpt>
      <trkpt lat="-21.23878" lon="55.67564">
        <ele>2370.4</ele>
        <time>2013-03-25T09:23:14Z</time>
      </trkpt>
      <trkpt lat="-21.2387" lon="55.67559">
        <ele>2370.4</ele>
        <time>2013-03-25T09:23:21Z</time>
      </trkpt>
      <trkpt lat="-21.23864" lon="55.67554">
        <ele>2370.6</ele>
        <time>2013-03-25T09:23:31Z</time>
      </trkpt>
      <trkpt lat="-21.23856" lon="55.67552">
        <ele>2371.1</ele>
        <time>2013-03-25T09:23:37Z</time>
      </trkpt>
      <trkpt lat="-21.23848" lon="55.67549">
        <ele>2371.5</ele>
        <time>2013-03-25T09:23:43Z</time>
      </trkpt>
      <trkpt lat="-21.2384" lon="55.67546">
        <ele>2371.3</ele>
        <time>2013-03-25T09:23:50Z</time>
      </trkpt>
      <trkpt lat="-21.23839" lon="55.67545">
        <ele>2371.3</ele>
        <time>2013-03-25T09:23:51Z</time>
      </trkpt>
      <trkpt lat="-21.23824" lon="55.67547">
        <ele>2372.6</ele>
        <time>2013-03-25T09:24:04Z</time>
      </trkpt>
      <trkpt lat="-21.23816" lon="55.67549">
        <ele>2372.2</ele>
        <time>2013-03-25T09:24:10Z</time>
      </trkpt>
      <trkpt lat="-21.23808" lon="55.67545">
        <ele>2371.9</ele>
        <time>2013-03-25T09:24:17Z</time>
      </trkpt>
      <trkpt lat="-21.23799" lon="55.67545">
        <ele>2372.4</ele>
        <time>2013-03-25T09:24:24Z</time>
      </trkpt>
      <trkpt lat="-21.23791" lon="55.67545">
        <ele>2371.7</ele>
        <time>2013-03-25T09:24:30Z</time>
      </trkpt>
      <trkpt lat="-21.23783" lon="55.67541">
        <ele>2372.1</ele>
        <time>2013-03-25T09:24:36Z</time>
      </trkpt>
      <trkpt lat="-21.23776" lon="55.67537">
        <ele>2372.4</ele>
        <time>2013-03-25T09:24:42Z</time>
      </trkpt>
      <trkpt lat="-21.23768" lon="55.67534">
        <ele>2372.6</ele>
        <time>2013-03-25T09:24:48Z</time>
      </trkpt>
      <trkpt lat="-21.2376" lon="55.6753">
        <ele>2371.6</ele>
        <time>2013-03-25T09:24:54Z</time>
      </trkpt>
      <trkpt lat="-21.23759" lon="55.67529">
        <ele>2371.6</ele>
        <time>2013-03-25T09:24:55Z</time>
      </trkpt>
      <trkpt lat="-21.23745" lon="55.67522">
        <ele>2370.7</ele>
        <time>2013-03-25T09:25:06Z</time>
      </trkpt>
      <trkpt lat="-21.23739" lon="55.67517">
        <ele>2371.1</ele>
        <time>2013-03-25T09:25:11Z</time>
      </trkpt>
      <trkpt lat="-21.23731" lon="55.67513">
        <ele>2371</ele>
        <time>2013-03-25T09:25:17Z</time>
      </trkpt>
      <trkpt lat="-21.23723" lon="55.6751">
        <ele>2371.1</ele>
        <time>2013-03-25T09:25:23Z</time>
      </trkpt>
      <trkpt lat="-21.23716" lon="55.67508">
        <ele>2370.8</ele>
        <time>2013-03-25T09:25:28Z</time>
      </trkpt>
      <trkpt lat="-21.23709" lon="55.67502">
        <ele>2369.7</ele>
        <time>2013-03-25T09:25:34Z</time>
      </trkpt>
      <trkpt lat="-21.23703" lon="55.67496">
        <ele>2369</ele>
        <time>2013-03-25T09:25:40Z</time>
      </trkpt>
      <trkpt lat="-21.23695" lon="55.67494">
        <ele>2369.5</ele>
        <time>2013-03-25T09:25:45Z</time>
      </trkpt>
      <trkpt lat="-21.23688" lon="55.67491">
        <ele>2369.1</ele>
        <time>2013-03-25T09:25:50Z</time>
      </trkpt>
      <trkpt lat="-21.2368" lon="55.67488">
        <ele>2368.8</ele>
        <time>2013-03-25T09:25:56Z</time>
      </trkpt>
      <trkpt lat="-21.23678" lon="55.67488">
        <ele>2368.5</ele>
        <time>2013-03-25T09:25:57Z</time>
      </trkpt>
      <trkpt lat="-21.23663" lon="55.67482">
        <ele>2370</ele>
        <time>2013-03-25T09:26:08Z</time>
      </trkpt>
      <trkpt lat="-21.23655" lon="55.6748">
        <ele>2370.2</ele>
        <time>2013-03-25T09:26:13Z</time>
      </trkpt>
      <trkpt lat="-21.23648" lon="55.67476">
        <ele>2370.2</ele>
        <time>2013-03-25T09:26:18Z</time>
      </trkpt>
      <trkpt lat="-21.23641" lon="55.67474">
        <ele>2370.3</ele>
        <time>2013-03-25T09:26:23Z</time>
      </trkpt>
      <trkpt lat="-21.23634" lon="55.6747">
        <ele>2370</ele>
        <time>2013-03-25T09:26:28Z</time>
      </trkpt>
      <trkpt lat="-21.23626" lon="55.67468">
        <ele>2369.3</ele>
        <time>2013-03-25T09:26:33Z</time>
      </trkpt>
      <trkpt lat="-21.23619" lon="55.67466">
        <ele>2370.6</ele>
        <time>2013-03-25T09:26:38Z</time>
      </trkpt>
      <trkpt lat="-21.23611" lon="55.67463">
        <ele>2370</ele>
        <time>2013-03-25T09:26:44Z</time>
      </trkpt>
      <trkpt lat="-21.23604" lon="55.6746">
        <ele>2370.6</ele>
        <time>2013-03-25T09:26:49Z</time>
      </trkpt>
      <trkpt lat="-21.23595" lon="55.67457">
        <ele>2370.9</ele>
        <time>2013-03-25T09:26:55Z</time>
      </trkpt>
      <trkpt lat="-21.23587" lon="55.67455">
        <ele>2370.9</ele>
        <time>2013-03-25T09:27:00Z</time>
      </trkpt>
      <trkpt lat="-21.23586" lon="55.67454">
        <ele>2371</ele>
        <time>2013-03-25T09:27:01Z</time>
      </trkpt>
      <trkpt lat="-21.23571" lon="55.67449">
        <ele>2371</ele>
        <time>2013-03-25T09:27:12Z</time>
      </trkpt>
      <trkpt lat="-21.23563" lon="55.67446">
        <ele>2370.4</ele>
        <time>2013-03-25T09:27:18Z</time>
      </trkpt>
      <trkpt lat="-21.23555" lon="55.67444">
        <ele>2371</ele>
        <time>2013-03-25T09:27:24Z</time>
      </trkpt>
      <trkpt lat="-21.23547" lon="55.67441">
        <ele>2370.5</ele>
        <time>2013-03-25T09:27:29Z</time>
      </trkpt>
      <trkpt lat="-21.2354" lon="55.67439">
        <ele>2370.1</ele>
        <time>2013-03-25T09:27:34Z</time>
      </trkpt>
      <trkpt lat="-21.23533" lon="55.67435">
        <ele>2370.3</ele>
        <time>2013-03-25T09:27:39Z</time>
      </trkpt>
      <trkpt lat="-21.23524" lon="55.67432">
        <ele>2370.8</ele>
        <time>2013-03-25T09:27:45Z</time>
      </trkpt>
      <trkpt lat="-21.23516" lon="55.67429">
        <ele>2370.4</ele>
        <time>2013-03-25T09:27:51Z</time>
      </trkpt>
      <trkpt lat="-21.23508" lon="55.67427">
        <ele>2370.1</ele>
        <time>2013-03-25T09:27:56Z</time>
      </trkpt>
      <trkpt lat="-21.235" lon="55.67424">
        <ele>2370.7</ele>
        <time>2013-03-25T09:28:02Z</time>
      </trkpt>
      <trkpt lat="-21.23499" lon="55.67424">
        <ele>2370.6</ele>
        <time>2013-03-25T09:28:03Z</time>
      </trkpt>
      <trkpt lat="-21.23484" lon="55.6742">
        <ele>2370</ele>
        <time>2013-03-25T09:28:15Z</time>
      </trkpt>
      <trkpt lat="-21.23476" lon="55.67417">
        <ele>2370.8</ele>
        <time>2013-03-25T09:28:21Z</time>
      </trkpt>
      <trkpt lat="-21.2347" lon="55.67411">
        <ele>2370.2</ele>
        <time>2013-03-25T09:28:27Z</time>
      </trkpt>
      <trkpt lat="-21.23462" lon="55.6741">
        <ele>2369.7</ele>
        <time>2013-03-25T09:28:33Z</time>
      </trkpt>
      <trkpt lat="-21.23454" lon="55.67411">
        <ele>2369.3</ele>
        <time>2013-03-25T09:28:40Z</time>
      </trkpt>
      <trkpt lat="-21.23446" lon="55.6741">
        <ele>2369</ele>
        <time>2013-03-25T09:28:47Z</time>
      </trkpt>
      <trkpt lat="-21.23442" lon="55.67403">
        <ele>2368</ele>
        <time>2013-03-25T09:28:53Z</time>
      </trkpt>
      <trkpt lat="-21.23436" lon="55.67396">
        <ele>2368</ele>
        <time>2013-03-25T09:29:00Z</time>
      </trkpt>
      <trkpt lat="-21.2343" lon="55.67391">
        <ele>2367.6</ele>
        <time>2013-03-25T09:29:06Z</time>
      </trkpt>
      <trkpt lat="-21.23429" lon="55.67391">
        <ele>2367.4</ele>
        <time>2013-03-25T09:29:07Z</time>
      </trkpt>
      <trkpt lat="-21.23415" lon="55.67383">
        <ele>2366.1</ele>
        <time>2013-03-25T09:29:17Z</time>
      </trkpt>
      <trkpt lat="-21.23408" lon="55.6738">
        <ele>2365.9</ele>
        <time>2013-03-25T09:29:23Z</time>
      </trkpt>
      <trkpt lat="-21.23399" lon="55.67378">
        <ele>2365.7</ele>
        <time>2013-03-25T09:29:31Z</time>
      </trkpt>
      <trkpt lat="-21.23393" lon="55.67372">
        <ele>2365</ele>
        <time>2013-03-25T09:29:37Z</time>
      </trkpt>
      <trkpt lat="-21.23386" lon="55.67368">
        <ele>2366.1</ele>
        <time>2013-03-25T09:29:43Z</time>
      </trkpt>
      <trkpt lat="-21.23378" lon="55.67365">
        <ele>2365.6</ele>
        <time>2013-03-25T09:29:49Z</time>
      </trkpt>
      <trkpt lat="-21.23369" lon="55.67364">
        <ele>2364.8</ele>
        <time>2013-03-25T09:29:55Z</time>
      </trkpt>
      <trkpt lat="-21.23361" lon="55.67363">
        <ele>2364.4</ele>
        <time>2013-03-25T09:30:01Z</time>
      </trkpt>
      <trkpt lat="-21.23354" lon="55.6736">
        <ele>2364</ele>
        <time>2013-03-25T09:30:07Z</time>
      </trkpt>
      <trkpt lat="-21.23346" lon="55.67356">
        <ele>2363.7</ele>
        <time>2013-03-25T09:30:13Z</time>
      </trkpt>
      <trkpt lat="-21.23345" lon="55.67355">
        <ele>2363.4</ele>
        <time>2013-03-25T09:30:14Z</time>
      </trkpt>
      <trkpt lat="-21.23332" lon="55.67348">
        <ele>2362.9</ele>
        <time>2013-03-25T09:30:25Z</time>
      </trkpt>
      <trkpt lat="-21.23327" lon="55.67341">
        <ele>2361.9</ele>
        <time>2013-03-25T09:30:31Z</time>
      </trkpt>
      <trkpt lat="-21.23322" lon="55.67335">
        <ele>2362.2</ele>
        <time>2013-03-25T09:30:38Z</time>
      </trkpt>
      <trkpt lat="-21.23314" lon="55.67334">
        <ele>2361.6</ele>
        <time>2013-03-25T09:30:43Z</time>
      </trkpt>
      <trkpt lat="-21.23306" lon="55.67333">
        <ele>2361.5</ele>
        <time>2013-03-25T09:30:49Z</time>
      </trkpt>
      <trkpt lat="-21.23298" lon="55.67331">
        <ele>2361.7</ele>
        <time>2013-03-25T09:30:55Z</time>
      </trkpt>
      <trkpt lat="-21.23289" lon="55.6733">
        <ele>2360.8</ele>
        <time>2013-03-25T09:31:01Z</time>
      </trkpt>
      <trkpt lat="-21.23281" lon="55.67326">
        <ele>2360.9</ele>
        <time>2013-03-25T09:31:07Z</time>
      </trkpt>
      <trkpt lat="-21.23274" lon="55.67326">
        <ele>2360.6</ele>
        <time>2013-03-25T09:31:14Z</time>
      </trkpt>
      <trkpt lat="-21.23265" lon="55.67325">
        <ele>2360.7</ele>
        <time>2013-03-25T09:31:20Z</time>
      </trkpt>
      <trkpt lat="-21.23264" lon="55.67324">
        <ele>2360.5</ele>
        <time>2013-03-25T09:31:21Z</time>
      </trkpt>
      <trkpt lat="-21.23249" lon="55.6732">
        <ele>2360</ele>
        <time>2013-03-25T09:31:33Z</time>
      </trkpt>
      <trkpt lat="-21.23244" lon="55.67313">
        <ele>2359.9</ele>
        <time>2013-03-25T09:31:39Z</time>
      </trkpt>
      <trkpt lat="-21.23237" lon="55.67307">
        <ele>2360.8</ele>
        <time>2013-03-25T09:31:45Z</time>
      </trkpt>
      <trkpt lat="-21.23231" lon="55.67302">
        <ele>2360.7</ele>
        <time>2013-03-25T09:31:51Z</time>
      </trkpt>
      <trkpt lat="-21.23224" lon="55.67296">
        <ele>2361.3</ele>
        <time>2013-03-25T09:31:57Z</time>
      </trkpt>
      <trkpt lat="-21.23218" lon="55.6729">
        <ele>2360.7</ele>
        <time>2013-03-25T09:32:03Z</time>
      </trkpt>
      <trkpt lat="-21.23212" lon="55.67282">
        <ele>2360.1</ele>
        <time>2013-03-25T09:32:09Z</time>
      </trkpt>
      <trkpt lat="-21.23208" lon="55.67275">
        <ele>2360.5</ele>
        <time>2013-03-25T09:32:14Z</time>
      </trkpt>
      <trkpt lat="-21.23204" lon="55.67268">
        <ele>2360.7</ele>
        <time>2013-03-25T09:32:20Z</time>
      </trkpt>
      <trkpt lat="-21.232" lon="55.67261">
        <ele>2361.3</ele>
        <time>2013-03-25T09:32:25Z</time>
      </trkpt>
      <trkpt lat="-21.23199" lon="55.67259">
        <ele>2361.4</ele>
        <time>2013-03-25T09:32:26Z</time>
      </trkpt>
      <trkpt lat="-21.23191" lon="55.67246">
        <ele>2362</ele>
        <time>2013-03-25T09:32:36Z</time>
      </trkpt>
      <trkpt lat="-21.23184" lon="55.6724">
        <ele>2362.1</ele>
        <time>2013-03-25T09:32:42Z</time>
      </trkpt>
      <trkpt lat="-21.23177" lon="55.67243">
        <ele>2361.8</ele>
        <time>2013-03-25T09:32:47Z</time>
      </trkpt>
      <trkpt lat="-21.2317" lon="55.67246">
        <ele>2362.5</ele>
        <time>2013-03-25T09:32:52Z</time>
      </trkpt>
      <trkpt lat="-21.23163" lon="55.6725">
        <ele>2361.8</ele>
        <time>2013-03-25T09:32:57Z</time>
      </trkpt>
      <trkpt lat="-21.23155" lon="55.67253">
        <ele>2362.2</ele>
        <time>2013-03-25T09:33:03Z</time>
      </trkpt>
      <trkpt lat="-21.23148" lon="55.67257">
        <ele>2362.6</ele>
        <time>2013-03-25T09:33:08Z</time>
      </trkpt>
      <trkpt lat="-21.23141" lon="55.6726">
        <ele>2362.6</ele>
        <time>2013-03-25T09:33:13Z</time>
      </trkpt>
      <trkpt lat="-21.23133" lon="55.67262">
        <ele>2361.9</ele>
        <time>2013-03-25T09:33:19Z</time>
      </trkpt>
      <trkpt lat="-21.23125" lon="55.67263">
        <ele>2361.7</ele>
        <time>2013-03-25T09:33:25Z</time>
      </trkpt>
      <trkpt lat="-21.23117" lon="55.67267">
        <ele>2361.6</ele>
        <time>2013-03-25T09:33:31Z</time>
      </trkpt>
      <trkpt lat="-21.23116" lon="55.67268">
        <ele>2361.5</ele>
        <time>2013-03-25T09:33:32Z</time>
      </trkpt>
      <trkpt lat="-21.23102" lon="55.67273">
        <ele>2362.4</ele>
        <time>2013-03-25T09:33:41Z</time>
      </trkpt>
      <trkpt lat="-21.23095" lon="55.67278">
        <ele>2362.6</ele>
        <time>2013-03-25T09:33:47Z</time>
      </trkpt>
      <trkpt lat="-21.23088" lon="55.67284">
        <ele>2360.9</ele>
        <time>2013-03-25T09:33:53Z</time>
      </trkpt>
      <trkpt lat="-21.2308" lon="55.67285">
        <ele>2361.4</ele>
        <time>2013-03-25T09:33:58Z</time>
      </trkpt>
      <trkpt lat="-21.23072" lon="55.67287">
        <ele>2361.1</ele>
        <time>2013-03-25T09:34:03Z</time>
      </trkpt>
      <trkpt lat="-21.23066" lon="55.6729">
        <ele>2360.7</ele>
        <time>2013-03-25T09:34:08Z</time>
      </trkpt>
      <trkpt lat="-21.23057" lon="55.6729">
        <ele>2360.6</ele>
        <time>2013-03-25T09:34:15Z</time>
      </trkpt>
      <trkpt lat="-21.23049" lon="55.6729">
        <ele>2360.7</ele>
        <time>2013-03-25T09:34:20Z</time>
      </trkpt>
      <trkpt lat="-21.2304" lon="55.67291">
        <ele>2360.3</ele>
        <time>2013-03-25T09:34:26Z</time>
      </trkpt>
      <trkpt lat="-21.23032" lon="55.67295">
        <ele>2360</ele>
        <time>2013-03-25T09:34:32Z</time>
      </trkpt>
      <trkpt lat="-21.23031" lon="55.67296">
        <ele>2359.8</ele>
        <time>2013-03-25T09:34:33Z</time>
      </trkpt>
      <trkpt lat="-21.23018" lon="55.67305">
        <ele>2360.7</ele>
        <time>2013-03-25T09:34:44Z</time>
      </trkpt>
      <trkpt lat="-21.2301" lon="55.6731">
        <ele>2361.1</ele>
        <time>2013-03-25T09:34:50Z</time>
      </trkpt>
      <trkpt lat="-21.23002" lon="55.67313">
        <ele>2361.8</ele>
        <time>2013-03-25T09:34:57Z</time>
      </trkpt>
      <trkpt lat="-21.22994" lon="55.67316">
        <ele>2361.9</ele>
        <time>2013-03-25T09:35:04Z</time>
      </trkpt>
      <trkpt lat="-21.22986" lon="55.67319">
        <ele>2362.1</ele>
        <time>2013-03-25T09:35:10Z</time>
      </trkpt>
      <trkpt lat="-21.22979" lon="55.67321">
        <ele>2362.8</ele>
        <time>2013-03-25T09:35:15Z</time>
      </trkpt>
      <trkpt lat="-21.22971" lon="55.67325">
        <ele>2362.9</ele>
        <time>2013-03-25T09:35:21Z</time>
      </trkpt>
      <trkpt lat="-21.22964" lon="55.67328">
        <ele>2362.4</ele>
        <time>2013-03-25T09:35:26Z</time>
      </trkpt>
      <trkpt lat="-21.22956" lon="55.67329">
        <ele>2361.8</ele>
        <time>2013-03-25T09:35:31Z</time>
      </trkpt>
      <trkpt lat="-21.22949" lon="55.67333">
        <ele>2362</ele>
        <time>2013-03-25T09:35:37Z</time>
      </trkpt>
      <trkpt lat="-21.22947" lon="55.67334">
        <ele>2362.1</ele>
        <time>2013-03-25T09:35:38Z</time>
      </trkpt>
      <trkpt lat="-21.22933" lon="55.67341">
        <ele>2361.9</ele>
        <time>2013-03-25T09:35:49Z</time>
      </trkpt>
      <trkpt lat="-21.22926" lon="55.67344">
        <ele>2361.6</ele>
        <time>2013-03-25T09:35:55Z</time>
      </trkpt>
      <trkpt lat="-21.22917" lon="55.67347">
        <ele>2361.7</ele>
        <time>2013-03-25T09:36:01Z</time>
      </trkpt>
      <trkpt lat="-21.22909" lon="55.6735">
        <ele>2361.6</ele>
        <time>2013-03-25T09:36:07Z</time>
      </trkpt>
      <trkpt lat="-21.22902" lon="55.67354">
        <ele>2361.6</ele>
        <time>2013-03-25T09:36:12Z</time>
      </trkpt>
      <trkpt lat="-21.22894" lon="55.67358">
        <ele>2361.6</ele>
        <time>2013-03-25T09:36:18Z</time>
      </trkpt>
      <trkpt lat="-21.22887" lon="55.67361">
        <ele>2360.7</ele>
        <time>2013-03-25T09:36:24Z</time>
      </trkpt>
      <trkpt lat="-21.22879" lon="55.67362">
        <ele>2360.6</ele>
        <time>2013-03-25T09:36:29Z</time>
      </trkpt>
      <trkpt lat="-21.22871" lon="55.67364">
        <ele>2360.5</ele>
        <time>2013-03-25T09:36:35Z</time>
      </trkpt>
      <trkpt lat="-21.22863" lon="55.67366">
        <ele>2361.9</ele>
        <time>2013-03-25T09:36:42Z</time>
      </trkpt>
      <trkpt lat="-21.22862" lon="55.67366">
        <ele>2361.1</ele>
        <time>2013-03-25T09:36:43Z</time>
      </trkpt>
      <trkpt lat="-21.22847" lon="55.67371">
        <ele>2358.5</ele>
        <time>2013-03-25T09:36:53Z</time>
      </trkpt>
      <trkpt lat="-21.22839" lon="55.67372">
        <ele>2358.5</ele>
        <time>2013-03-25T09:36:58Z</time>
      </trkpt>
      <trkpt lat="-21.22832" lon="55.67373">
        <ele>2359.3</ele>
        <time>2013-03-25T09:37:03Z</time>
      </trkpt>
      <trkpt lat="-21.22823" lon="55.67375">
        <ele>2358.2</ele>
        <time>2013-03-25T09:37:09Z</time>
      </trkpt>
      <trkpt lat="-21.22816" lon="55.67379">
        <ele>2357.7</ele>
        <time>2013-03-25T09:37:15Z</time>
      </trkpt>
      <trkpt lat="-21.22808" lon="55.67383">
        <ele>2357.3</ele>
        <time>2013-03-25T09:37:22Z</time>
      </trkpt>
      <trkpt lat="-21.22799" lon="55.67383">
        <ele>2357.1</ele>
        <time>2013-03-25T09:37:29Z</time>
      </trkpt>
      <trkpt lat="-21.22791" lon="55.67382">
        <ele>2356.8</ele>
        <time>2013-03-25T09:37:35Z</time>
      </trkpt>
      <trkpt lat="-21.22783" lon="55.67383">
        <ele>2356.6</ele>
        <time>2013-03-25T09:37:41Z</time>
      </trkpt>
      <trkpt lat="-21.22775" lon="55.67384">
        <ele>2357.2</ele>
        <time>2013-03-25T09:37:47Z</time>
      </trkpt>
      <trkpt lat="-21.22773" lon="55.67384">
        <ele>2357.2</ele>
        <time>2013-03-25T09:37:48Z</time>
      </trkpt>
      <trkpt lat="-21.22759" lon="55.67388">
        <ele>2356.4</ele>
        <time>2013-03-25T09:37:59Z</time>
      </trkpt>
      <trkpt lat="-21.22751" lon="55.67392">
        <ele>2356.3</ele>
        <time>2013-03-25T09:38:06Z</time>
      </trkpt>
      <trkpt lat="-21.22742" lon="55.67393">
        <ele>2356.3</ele>
        <time>2013-03-25T09:38:13Z</time>
      </trkpt>
      <trkpt lat="-21.22734" lon="55.67395">
        <ele>2356.7</ele>
        <time>2013-03-25T09:38:21Z</time>
      </trkpt>
      <trkpt lat="-21.22728" lon="55.674">
        <ele>2354.1</ele>
        <time>2013-03-25T09:38:29Z</time>
      </trkpt>
      <trkpt lat="-21.22721" lon="55.67404">
        <ele>2353.5</ele>
        <time>2013-03-25T09:38:35Z</time>
      </trkpt>
      <trkpt lat="-21.22712" lon="55.67405">
        <ele>2354</ele>
        <time>2013-03-25T09:38:42Z</time>
      </trkpt>
      <trkpt lat="-21.22705" lon="55.67409">
        <ele>2353.8</ele>
        <time>2013-03-25T09:38:48Z</time>
      </trkpt>
      <trkpt lat="-21.22696" lon="55.67407">
        <ele>2352.8</ele>
        <time>2013-03-25T09:38:54Z</time>
      </trkpt>
      <trkpt lat="-21.22695" lon="55.67406">
        <ele>2352.8</ele>
        <time>2013-03-25T09:38:55Z</time>
      </trkpt>
      <trkpt lat="-21.22681" lon="55.67402">
        <ele>2353.6</ele>
        <time>2013-03-25T09:39:05Z</time>
      </trkpt>
      <trkpt lat="-21.22672" lon="55.67399">
        <ele>2353.1</ele>
        <time>2013-03-25T09:39:11Z</time>
      </trkpt>
      <trkpt lat="-21.22664" lon="55.67396">
        <ele>2354</ele>
        <time>2013-03-25T09:39:17Z</time>
      </trkpt>
      <trkpt lat="-21.22655" lon="55.67393">
        <ele>2353.5</ele>
        <time>2013-03-25T09:39:23Z</time>
      </trkpt>
      <trkpt lat="-21.22647" lon="55.67391">
        <ele>2352.3</ele>
        <time>2013-03-25T09:39:29Z</time>
      </trkpt>
      <trkpt lat="-21.22638" lon="55.6739">
        <ele>2352.7</ele>
        <time>2013-03-25T09:39:35Z</time>
      </trkpt>
      <trkpt lat="-21.2263" lon="55.6739">
        <ele>2352</ele>
        <time>2013-03-25T09:39:41Z</time>
      </trkpt>
      <trkpt lat="-21.22622" lon="55.6739">
        <ele>2353.3</ele>
        <time>2013-03-25T09:39:47Z</time>
      </trkpt>
      <trkpt lat="-21.22614" lon="55.67389">
        <ele>2352</ele>
        <time>2013-03-25T09:39:53Z</time>
      </trkpt>
      <trkpt lat="-21.22605" lon="55.67388">
        <ele>2352.5</ele>
        <time>2013-03-25T09:39:59Z</time>
      </trkpt>
      <trkpt lat="-21.22604" lon="55.67387">
        <ele>2352.3</ele>
        <time>2013-03-25T09:40:00Z</time>
      </trkpt>
      <trkpt lat="-21.22589" lon="55.67385">
        <ele>2351.6</ele>
        <time>2013-03-25T09:40:10Z</time>
      </trkpt>
      <trkpt lat="-21.2258" lon="55.67383">
        <ele>2351.2</ele>
        <time>2013-03-25T09:40:16Z</time>
      </trkpt>
      <trkpt lat="-21.22572" lon="55.67381">
        <ele>2352.5</ele>
        <time>2013-03-25T09:40:22Z</time>
      </trkpt>
      <trkpt lat="-21.22564" lon="55.67381">
        <ele>2352.3</ele>
        <time>2013-03-25T09:40:27Z</time>
      </trkpt>
      <trkpt lat="-21.22556" lon="55.67381">
        <ele>2351.9</ele>
        <time>2013-03-25T09:40:33Z</time>
      </trkpt>
      <trkpt lat="-21.22549" lon="55.6738">
        <ele>2351.8</ele>
        <time>2013-03-25T09:40:38Z</time>
      </trkpt>
      <trkpt lat="-21.22541" lon="55.67379">
        <ele>2351.5</ele>
        <time>2013-03-25T09:40:43Z</time>
      </trkpt>
      <trkpt lat="-21.22534" lon="55.67376">
        <ele>2351.2</ele>
        <time>2013-03-25T09:40:48Z</time>
      </trkpt>
      <trkpt lat="-21.2253" lon="55.67368">
        <ele>2352</ele>
        <time>2013-03-25T09:40:56Z</time>
      </trkpt>
      <trkpt lat="-21.2253" lon="55.6736">
        <ele>2352.4</ele>
        <time>2013-03-25T09:41:05Z</time>
      </trkpt>
      <trkpt lat="-21.22531" lon="55.67359">
        <ele>2352.8</ele>
        <time>2013-03-25T09:41:06Z</time>
      </trkpt>
      <trkpt lat="-21.2253" lon="55.67342">
        <ele>2354.8</ele>
        <time>2013-03-25T09:41:26Z</time>
      </trkpt>
      <trkpt lat="-21.22524" lon="55.67335">
        <ele>2357.5</ele>
        <time>2013-03-25T09:41:35Z</time>
      </trkpt>
      <trkpt lat="-21.22517" lon="55.67328">
        <ele>2356.6</ele>
        <time>2013-03-25T09:41:44Z</time>
      </trkpt>
      <trkpt lat="-21.22512" lon="55.67322">
        <ele>2353.7</ele>
        <time>2013-03-25T09:41:51Z</time>
      </trkpt>
      <trkpt lat="-21.2251" lon="55.67314">
        <ele>2351</ele>
        <time>2013-03-25T09:41:57Z</time>
      </trkpt>
      <trkpt lat="-21.22507" lon="55.67306">
        <ele>2348.1</ele>
        <time>2013-03-25T09:42:03Z</time>
      </trkpt>
      <trkpt lat="-21.22505" lon="55.67298">
        <ele>2346.7</ele>
        <time>2013-03-25T09:42:08Z</time>
      </trkpt>
      <trkpt lat="-21.22504" lon="55.67297">
        <ele>2346.2</ele>
        <time>2013-03-25T09:42:09Z</time>
      </trkpt>
      <trkpt lat="-21.22494" lon="55.67285">
        <ele>2342.5</ele>
        <time>2013-03-25T09:42:22Z</time>
      </trkpt>
      <trkpt lat="-21.22488" lon="55.67277">
        <ele>2342.5</ele>
        <time>2013-03-25T09:42:29Z</time>
      </trkpt>
      <trkpt lat="-21.22487" lon="55.67269">
        <ele>2341.7</ele>
        <time>2013-03-25T09:42:56Z</time>
      </trkpt>
      <trkpt lat="-21.22486" lon="55.6726">
        <ele>2341.1</ele>
        <time>2013-03-25T09:43:02Z</time>
      </trkpt>
      <trkpt lat="-21.22484" lon="55.67251">
        <ele>2340.6</ele>
        <time>2013-03-25T09:43:08Z</time>
      </trkpt>
      <trkpt lat="-21.22482" lon="55.67243">
        <ele>2340.2</ele>
        <time>2013-03-25T09:43:13Z</time>
      </trkpt>
      <trkpt lat="-21.22482" lon="55.67241">
        <ele>2339.6</ele>
        <time>2013-03-25T09:43:14Z</time>
      </trkpt>
      <trkpt lat="-21.22473" lon="55.67229">
        <ele>2338.9</ele>
        <time>2013-03-25T09:43:28Z</time>
      </trkpt>
      <trkpt lat="-21.22468" lon="55.67222">
        <ele>2340.7</ele>
        <time>2013-03-25T09:43:36Z</time>
      </trkpt>
      <trkpt lat="-21.22465" lon="55.67213">
        <ele>2341.4</ele>
        <time>2013-03-25T09:43:43Z</time>
      </trkpt>
      <trkpt lat="-21.22461" lon="55.67205">
        <ele>2340.7</ele>
        <time>2013-03-25T09:43:49Z</time>
      </trkpt>
      <trkpt lat="-21.22457" lon="55.67196">
        <ele>2341</ele>
        <time>2013-03-25T09:43:55Z</time>
      </trkpt>
      <trkpt lat="-21.22453" lon="55.67188">
        <ele>2341.9</ele>
        <time>2013-03-25T09:44:01Z</time>
      </trkpt>
      <trkpt lat="-21.22449" lon="55.67181">
        <ele>2341.7</ele>
        <time>2013-03-25T09:44:06Z</time>
      </trkpt>
      <trkpt lat="-21.22446" lon="55.67172">
        <ele>2341.8</ele>
        <time>2013-03-25T09:44:12Z</time>
      </trkpt>
      <trkpt lat="-21.22447" lon="55.67163">
        <ele>2342.1</ele>
        <time>2013-03-25T09:44:19Z</time>
      </trkpt>
      <trkpt lat="-21.22447" lon="55.67162">
        <ele>2342.2</ele>
        <time>2013-03-25T09:44:20Z</time>
      </trkpt>
      <trkpt lat="-21.22447" lon="55.67145">
        <ele>2344.7</ele>
        <time>2013-03-25T09:44:33Z</time>
      </trkpt>
      <trkpt lat="-21.22447" lon="55.67136">
        <ele>2344</ele>
        <time>2013-03-25T09:44:40Z</time>
      </trkpt>
      <trkpt lat="-21.22446" lon="55.67127">
        <ele>2344.3</ele>
        <time>2013-03-25T09:44:46Z</time>
      </trkpt>
      <trkpt lat="-21.22445" lon="55.67118">
        <ele>2343.8</ele>
        <time>2013-03-25T09:44:52Z</time>
      </trkpt>
      <trkpt lat="-21.22443" lon="55.6711">
        <ele>2343.3</ele>
        <time>2013-03-25T09:44:58Z</time>
      </trkpt>
      <trkpt lat="-21.22439" lon="55.67102">
        <ele>2343.3</ele>
        <time>2013-03-25T09:45:04Z</time>
      </trkpt>
      <trkpt lat="-21.22435" lon="55.67093">
        <ele>2342.4</ele>
        <time>2013-03-25T09:45:16Z</time>
      </trkpt>
      <trkpt lat="-21.22433" lon="55.67085">
        <ele>2341.2</ele>
        <time>2013-03-25T09:45:22Z</time>
      </trkpt>
      <trkpt lat="-21.22432" lon="55.67084">
        <ele>2341.1</ele>
        <time>2013-03-25T09:45:23Z</time>
      </trkpt>
      <trkpt lat="-21.22428" lon="55.67068">
        <ele>2338.2</ele>
        <time>2013-03-25T09:45:35Z</time>
      </trkpt>
      <trkpt lat="-21.22427" lon="55.67059">
        <ele>2335.6</ele>
        <time>2013-03-25T09:45:41Z</time>
      </trkpt>
      <trkpt lat="-21.22422" lon="55.67051">
        <ele>2335.4</ele>
        <time>2013-03-25T09:45:48Z</time>
      </trkpt>
      <trkpt lat="-21.22418" lon="55.67043">
        <ele>2333.8</ele>
        <time>2013-03-25T09:45:55Z</time>
      </trkpt>
      <trkpt lat="-21.22415" lon="55.67034">
        <ele>2332.7</ele>
        <time>2013-03-25T09:46:02Z</time>
      </trkpt>
      <trkpt lat="-21.22412" lon="55.67026">
        <ele>2332.3</ele>
        <time>2013-03-25T09:46:09Z</time>
      </trkpt>
      <trkpt lat="-21.2241" lon="55.67017">
        <ele>2329.5</ele>
        <time>2013-03-25T09:46:17Z</time>
      </trkpt>
      <trkpt lat="-21.22405" lon="55.6701">
        <ele>2328.1</ele>
        <time>2013-03-25T09:46:25Z</time>
      </trkpt>
      <trkpt lat="-21.22404" lon="55.67009">
        <ele>2328</ele>
        <time>2013-03-25T09:46:26Z</time>
      </trkpt>
      <trkpt lat="-21.22402" lon="55.66992">
        <ele>2324.1</ele>
        <time>2013-03-25T09:46:39Z</time>
      </trkpt>
      <trkpt lat="-21.22402" lon="55.66983">
        <ele>2321.7</ele>
        <time>2013-03-25T09:46:46Z</time>
      </trkpt>
      <trkpt lat="-21.22403" lon="55.66974">
        <ele>2320</ele>
        <time>2013-03-25T09:46:52Z</time>
      </trkpt>
      <trkpt lat="-21.22401" lon="55.66965">
        <ele>2319</ele>
        <time>2013-03-25T09:46:58Z</time>
      </trkpt>
      <trkpt lat="-21.22399" lon="55.66956">
        <ele>2318.5</ele>
        <time>2013-03-25T09:47:04Z</time>
      </trkpt>
      <trkpt lat="-21.22396" lon="55.66947">
        <ele>2317.2</ele>
        <time>2013-03-25T09:47:10Z</time>
      </trkpt>
      <trkpt lat="-21.22394" lon="55.66938">
        <ele>2315.9</ele>
        <time>2013-03-25T09:47:16Z</time>
      </trkpt>
      <trkpt lat="-21.22389" lon="55.66932">
        <ele>2314.3</ele>
        <time>2013-03-25T09:47:21Z</time>
      </trkpt>
      <trkpt lat="-21.22385" lon="55.66925">
        <ele>2313.4</ele>
        <time>2013-03-25T09:47:26Z</time>
      </trkpt>
      <trkpt lat="-21.22384" lon="55.66924">
        <ele>2312.8</ele>
        <time>2013-03-25T09:47:27Z</time>
      </trkpt>
      <trkpt lat="-21.22377" lon="55.66911">
        <ele>2310.9</ele>
        <time>2013-03-25T09:47:36Z</time>
      </trkpt>
      <trkpt lat="-21.22373" lon="55.66903">
        <ele>2309.8</ele>
        <time>2013-03-25T09:47:41Z</time>
      </trkpt>
      <trkpt lat="-21.22369" lon="55.66896">
        <ele>2309.3</ele>
        <time>2013-03-25T09:47:46Z</time>
      </trkpt>
      <trkpt lat="-21.22365" lon="55.66889">
        <ele>2308.4</ele>
        <time>2013-03-25T09:47:51Z</time>
      </trkpt>
      <trkpt lat="-21.2236" lon="55.66882">
        <ele>2307.7</ele>
        <time>2013-03-25T09:47:56Z</time>
      </trkpt>
      <trkpt lat="-21.22356" lon="55.66874">
        <ele>2308</ele>
        <time>2013-03-25T09:48:02Z</time>
      </trkpt>
      <trkpt lat="-21.22352" lon="55.66866">
        <ele>2307.8</ele>
        <time>2013-03-25T09:48:08Z</time>
      </trkpt>
      <trkpt lat="-21.22347" lon="55.66858">
        <ele>2306</ele>
        <time>2013-03-25T09:48:14Z</time>
      </trkpt>
      <trkpt lat="-21.22341" lon="55.66852">
        <ele>2306.1</ele>
        <time>2013-03-25T09:48:21Z</time>
      </trkpt>
      <trkpt lat="-21.22337" lon="55.66845">
        <ele>2306</ele>
        <time>2013-03-25T09:48:27Z</time>
      </trkpt>
      <trkpt lat="-21.22333" lon="55.66837">
        <ele>2306</ele>
        <time>2013-03-25T09:48:33Z</time>
      </trkpt>
      <trkpt lat="-21.22332" lon="55.66835">
        <ele>2305.9</ele>
        <time>2013-03-25T09:48:34Z</time>
      </trkpt>
      <trkpt lat="-21.22324" lon="55.66823">
        <ele>2305.2</ele>
        <time>2013-03-25T09:48:43Z</time>
      </trkpt>
      <trkpt lat="-21.2232" lon="55.66816">
        <ele>2304.8</ele>
        <time>2013-03-25T09:48:48Z</time>
      </trkpt>
      <trkpt lat="-21.22315" lon="55.66808">
        <ele>2304.2</ele>
        <time>2013-03-25T09:48:54Z</time>
      </trkpt>
      <trkpt lat="-21.2231" lon="55.66801">
        <ele>2303.3</ele>
        <time>2013-03-25T09:48:59Z</time>
      </trkpt>
      <trkpt lat="-21.22306" lon="55.66794">
        <ele>2303</ele>
        <time>2013-03-25T09:49:04Z</time>
      </trkpt>
      <trkpt lat="-21.22302" lon="55.66787">
        <ele>2302.9</ele>
        <time>2013-03-25T09:49:09Z</time>
      </trkpt>
      <trkpt lat="-21.22298" lon="55.66779">
        <ele>2303</ele>
        <time>2013-03-25T09:49:14Z</time>
      </trkpt>
      <trkpt lat="-21.22294" lon="55.66772">
        <ele>2302.4</ele>
        <time>2013-03-25T09:49:19Z</time>
      </trkpt>
      <trkpt lat="-21.2229" lon="55.66765">
        <ele>2302.6</ele>
        <time>2013-03-25T09:49:24Z</time>
      </trkpt>
      <trkpt lat="-21.22286" lon="55.66758">
        <ele>2302.8</ele>
        <time>2013-03-25T09:49:30Z</time>
      </trkpt>
      <trkpt lat="-21.2228" lon="55.6675">
        <ele>2303.2</ele>
        <time>2013-03-25T09:49:36Z</time>
      </trkpt>
      <trkpt lat="-21.2228" lon="55.66748">
        <ele>2303.3</ele>
        <time>2013-03-25T09:49:37Z</time>
      </trkpt>
      <trkpt lat="-21.22272" lon="55.66737">
        <ele>2303.4</ele>
        <time>2013-03-25T09:49:46Z</time>
      </trkpt>
      <trkpt lat="-21.22268" lon="55.66729">
        <ele>2304.4</ele>
        <time>2013-03-25T09:49:51Z</time>
      </trkpt>
      <trkpt lat="-21.22263" lon="55.66723">
        <ele>2303.7</ele>
        <time>2013-03-25T09:49:56Z</time>
      </trkpt>
      <trkpt lat="-21.22259" lon="55.66716">
        <ele>2302.9</ele>
        <time>2013-03-25T09:50:01Z</time>
      </trkpt>
      <trkpt lat="-21.22255" lon="55.66709">
        <ele>2301.4</ele>
        <time>2013-03-25T09:50:06Z</time>
      </trkpt>
      <trkpt lat="-21.2225" lon="55.66702">
        <ele>2301.9</ele>
        <time>2013-03-25T09:50:11Z</time>
      </trkpt>
      <trkpt lat="-21.22245" lon="55.66694">
        <ele>2301.7</ele>
        <time>2013-03-25T09:50:17Z</time>
      </trkpt>
      <trkpt lat="-21.22241" lon="55.66687">
        <ele>2300.7</ele>
        <time>2013-03-25T09:50:22Z</time>
      </trkpt>
      <trkpt lat="-21.22237" lon="55.6668">
        <ele>2299.9</ele>
        <time>2013-03-25T09:50:27Z</time>
      </trkpt>
      <trkpt lat="-21.22233" lon="55.66672">
        <ele>2300.3</ele>
        <time>2013-03-25T09:50:33Z</time>
      </trkpt>
      <trkpt lat="-21.22228" lon="55.66664">
        <ele>2301.5</ele>
        <time>2013-03-25T09:50:39Z</time>
      </trkpt>
      <trkpt lat="-21.22227" lon="55.66662">
        <ele>2301.6</ele>
        <time>2013-03-25T09:50:40Z</time>
      </trkpt>
      <trkpt lat="-21.22219" lon="55.66649">
        <ele>2299.9</ele>
        <time>2013-03-25T09:50:50Z</time>
      </trkpt>
      <trkpt lat="-21.22214" lon="55.66642">
        <ele>2300.4</ele>
        <time>2013-03-25T09:50:55Z</time>
      </trkpt>
      <trkpt lat="-21.22209" lon="55.66634">
        <ele>2300.2</ele>
        <time>2013-03-25T09:51:01Z</time>
      </trkpt>
      <trkpt lat="-21.22205" lon="55.66627">
        <ele>2299.3</ele>
        <time>2013-03-25T09:51:06Z</time>
      </trkpt>
      <trkpt lat="-21.222" lon="55.66619">
        <ele>2299.1</ele>
        <time>2013-03-25T09:51:12Z</time>
      </trkpt>
      <trkpt lat="-21.22195" lon="55.66611">
        <ele>2298.5</ele>
        <time>2013-03-25T09:51:18Z</time>
      </trkpt>
      <trkpt lat="-21.2219" lon="55.66603">
        <ele>2299.3</ele>
        <time>2013-03-25T09:51:24Z</time>
      </trkpt>
      <trkpt lat="-21.22186" lon="55.66595">
        <ele>2298.9</ele>
        <time>2013-03-25T09:51:30Z</time>
      </trkpt>
      <trkpt lat="-21.22182" lon="55.66588">
        <ele>2298.6</ele>
        <time>2013-03-25T09:51:35Z</time>
      </trkpt>
      <trkpt lat="-21.22178" lon="55.66581">
        <ele>2297.9</ele>
        <time>2013-03-25T09:51:40Z</time>
      </trkpt>
      <trkpt lat="-21.22177" lon="55.66579">
        <ele>2297.7</ele>
        <time>2013-03-25T09:51:41Z</time>
      </trkpt>
      <trkpt lat="-21.2217" lon="55.66566">
        <ele>2297.7</ele>
        <time>2013-03-25T09:51:50Z</time>
      </trkpt>
      <trkpt lat="-21.22165" lon="55.6656">
        <ele>2298.7</ele>
        <time>2013-03-25T09:51:55Z</time>
      </trkpt>
      <trkpt lat="-21.2216" lon="55.66553">
        <ele>2298.5</ele>
        <time>2013-03-25T09:52:00Z</time>
      </trkpt>
      <trkpt lat="-21.22156" lon="55.66546">
        <ele>2298.3</ele>
        <time>2013-03-25T09:52:05Z</time>
      </trkpt>
      <trkpt lat="-21.22151" lon="55.66539">
        <ele>2298.1</ele>
        <time>2013-03-25T09:52:11Z</time>
      </trkpt>
      <trkpt lat="-21.22146" lon="55.66531">
        <ele>2297.5</ele>
        <time>2013-03-25T09:52:17Z</time>
      </trkpt>
      <trkpt lat="-21.22142" lon="55.66524">
        <ele>2297.9</ele>
        <time>2013-03-25T09:52:22Z</time>
      </trkpt>
      <trkpt lat="-21.22137" lon="55.66517">
        <ele>2298</ele>
        <time>2013-03-25T09:52:27Z</time>
      </trkpt>
      <trkpt lat="-21.22132" lon="55.6651">
        <ele>2298</ele>
        <time>2013-03-25T09:52:32Z</time>
      </trkpt>
      <trkpt lat="-21.22127" lon="55.66504">
        <ele>2297.7</ele>
        <time>2013-03-25T09:52:37Z</time>
      </trkpt>
      <trkpt lat="-21.22124" lon="55.66496">
        <ele>2297.1</ele>
        <time>2013-03-25T09:52:43Z</time>
      </trkpt>
      <trkpt lat="-21.22123" lon="55.66495">
        <ele>2296.9</ele>
        <time>2013-03-25T09:52:44Z</time>
      </trkpt>
      <trkpt lat="-21.22116" lon="55.6648">
        <ele>2296.2</ele>
        <time>2013-03-25T09:52:55Z</time>
      </trkpt>
      <trkpt lat="-21.22112" lon="55.66473">
        <ele>2296.4</ele>
        <time>2013-03-25T09:53:00Z</time>
      </trkpt>
      <trkpt lat="-21.22108" lon="55.66465">
        <ele>2296.5</ele>
        <time>2013-03-25T09:53:06Z</time>
      </trkpt>
      <trkpt lat="-21.22104" lon="55.66457">
        <ele>2296.8</ele>
        <time>2013-03-25T09:53:11Z</time>
      </trkpt>
      <trkpt lat="-21.22099" lon="55.6645">
        <ele>2297.3</ele>
        <time>2013-03-25T09:53:17Z</time>
      </trkpt>
      <trkpt lat="-21.22094" lon="55.66443">
        <ele>2297.8</ele>
        <time>2013-03-25T09:53:22Z</time>
      </trkpt>
      <trkpt lat="-21.22089" lon="55.66435">
        <ele>2298</ele>
        <time>2013-03-25T09:53:28Z</time>
      </trkpt>
      <trkpt lat="-21.22085" lon="55.66429">
        <ele>2297.2</ele>
        <time>2013-03-25T09:53:33Z</time>
      </trkpt>
      <trkpt lat="-21.2208" lon="55.66422">
        <ele>2297.8</ele>
        <time>2013-03-25T09:53:39Z</time>
      </trkpt>
      <trkpt lat="-21.22075" lon="55.66415">
        <ele>2296.8</ele>
        <time>2013-03-25T09:53:45Z</time>
      </trkpt>
      <trkpt lat="-21.22075" lon="55.66414">
        <ele>2296.6</ele>
        <time>2013-03-25T09:53:46Z</time>
      </trkpt>
      <trkpt lat="-21.22067" lon="55.66401">
        <ele>2297.8</ele>
        <time>2013-03-25T09:53:57Z</time>
      </trkpt>
      <trkpt lat="-21.22064" lon="55.66392">
        <ele>2298.5</ele>
        <time>2013-03-25T09:54:03Z</time>
      </trkpt>
      <trkpt lat="-21.22063" lon="55.66383">
        <ele>2298.1</ele>
        <time>2013-03-25T09:54:10Z</time>
      </trkpt>
      <trkpt lat="-21.22061" lon="55.66374">
        <ele>2298.8</ele>
        <time>2013-03-25T09:54:16Z</time>
      </trkpt>
      <trkpt lat="-21.22056" lon="55.66367">
        <ele>2298.4</ele>
        <time>2013-03-25T09:54:22Z</time>
      </trkpt>
      <trkpt lat="-21.22053" lon="55.66359">
        <ele>2298.8</ele>
        <time>2013-03-25T09:54:27Z</time>
      </trkpt>
      <trkpt lat="-21.22051" lon="55.66351">
        <ele>2297.7</ele>
        <time>2013-03-25T09:54:32Z</time>
      </trkpt>
      <trkpt lat="-21.2205" lon="55.66342">
        <ele>2298.7</ele>
        <time>2013-03-25T09:54:38Z</time>
      </trkpt>
      <trkpt lat="-21.22051" lon="55.66332">
        <ele>2297.7</ele>
        <time>2013-03-25T09:54:45Z</time>
      </trkpt>
      <trkpt lat="-21.22051" lon="55.66323">
        <ele>2297.9</ele>
        <time>2013-03-25T09:54:52Z</time>
      </trkpt>
      <trkpt lat="-21.2205" lon="55.66322">
        <ele>2297.7</ele>
        <time>2013-03-25T09:54:53Z</time>
      </trkpt>
      <trkpt lat="-21.22054" lon="55.66305">
        <ele>2296.3</ele>
        <time>2013-03-25T09:55:04Z</time>
      </trkpt>
      <trkpt lat="-21.22054" lon="55.66296">
        <ele>2296.6</ele>
        <time>2013-03-25T09:55:10Z</time>
      </trkpt>
      <trkpt lat="-21.22056" lon="55.66287">
        <ele>2295.7</ele>
        <time>2013-03-25T09:55:16Z</time>
      </trkpt>
      <trkpt lat="-21.22059" lon="55.66279">
        <ele>2295.3</ele>
        <time>2013-03-25T09:55:22Z</time>
      </trkpt>
      <trkpt lat="-21.22059" lon="55.66269">
        <ele>2294.9</ele>
        <time>2013-03-25T09:55:28Z</time>
      </trkpt>
      <trkpt lat="-21.22057" lon="55.6626">
        <ele>2295.1</ele>
        <time>2013-03-25T09:55:34Z</time>
      </trkpt>
      <trkpt lat="-21.22056" lon="55.66252">
        <ele>2295.2</ele>
        <time>2013-03-25T09:55:40Z</time>
      </trkpt>
      <trkpt lat="-21.22053" lon="55.66243">
        <ele>2294.6</ele>
        <time>2013-03-25T09:55:47Z</time>
      </trkpt>
      <trkpt lat="-21.22054" lon="55.66233">
        <ele>2292.4</ele>
        <time>2013-03-25T09:55:53Z</time>
      </trkpt>
      <trkpt lat="-21.22053" lon="55.66232">
        <ele>2292.2</ele>
        <time>2013-03-25T09:55:54Z</time>
      </trkpt>
      <trkpt lat="-21.22047" lon="55.66217">
        <ele>2291.4</ele>
        <time>2013-03-25T09:56:04Z</time>
      </trkpt>
      <trkpt lat="-21.22046" lon="55.66208">
        <ele>2290.9</ele>
        <time>2013-03-25T09:56:11Z</time>
      </trkpt>
      <trkpt lat="-21.22039" lon="55.66202">
        <ele>2291.3</ele>
        <time>2013-03-25T09:56:18Z</time>
      </trkpt>
      <trkpt lat="-21.22035" lon="55.66195">
        <ele>2291.3</ele>
        <time>2013-03-25T09:56:23Z</time>
      </trkpt>
      <trkpt lat="-21.22031" lon="55.66187">
        <ele>2290</ele>
        <time>2013-03-25T09:56:29Z</time>
      </trkpt>
      <trkpt lat="-21.2203" lon="55.66178">
        <ele>2289.7</ele>
        <time>2013-03-25T09:56:34Z</time>
      </trkpt>
      <trkpt lat="-21.22028" lon="55.66169">
        <ele>2289.9</ele>
        <time>2013-03-25T09:56:40Z</time>
      </trkpt>
      <trkpt lat="-21.22026" lon="55.66161">
        <ele>2290.6</ele>
        <time>2013-03-25T09:56:45Z</time>
      </trkpt>
      <trkpt lat="-21.22024" lon="55.66153">
        <ele>2289.8</ele>
        <time>2013-03-25T09:56:50Z</time>
      </trkpt>
      <trkpt lat="-21.22023" lon="55.66144">
        <ele>2289.3</ele>
        <time>2013-03-25T09:56:56Z</time>
      </trkpt>
      <trkpt lat="-21.22022" lon="55.66143">
        <ele>2289.4</ele>
        <time>2013-03-25T09:56:57Z</time>
      </trkpt>
      <trkpt lat="-21.2202" lon="55.66128">
        <ele>2289.3</ele>
        <time>2013-03-25T09:57:06Z</time>
      </trkpt>
      <trkpt lat="-21.22019" lon="55.66119">
        <ele>2289</ele>
        <time>2013-03-25T09:57:12Z</time>
      </trkpt>
      <trkpt lat="-21.22016" lon="55.6611">
        <ele>2289.5</ele>
        <time>2013-03-25T09:57:18Z</time>
      </trkpt>
      <trkpt lat="-21.22013" lon="55.66102">
        <ele>2288.3</ele>
        <time>2013-03-25T09:57:24Z</time>
      </trkpt>
      <trkpt lat="-21.22012" lon="55.66093">
        <ele>2288.6</ele>
        <time>2013-03-25T09:57:30Z</time>
      </trkpt>
      <trkpt lat="-21.22009" lon="55.66083">
        <ele>2288.1</ele>
        <time>2013-03-25T09:57:36Z</time>
      </trkpt>
      <trkpt lat="-21.22005" lon="55.66076">
        <ele>2288.6</ele>
        <time>2013-03-25T09:57:42Z</time>
      </trkpt>
      <trkpt lat="-21.22003" lon="55.66068">
        <ele>2289.2</ele>
        <time>2013-03-25T09:57:47Z</time>
      </trkpt>
      <trkpt lat="-21.22" lon="55.66059">
        <ele>2289.7</ele>
        <time>2013-03-25T09:57:53Z</time>
      </trkpt>
      <trkpt lat="-21.21998" lon="55.66051">
        <ele>2289.5</ele>
        <time>2013-03-25T09:57:59Z</time>
      </trkpt>
      <trkpt lat="-21.21998" lon="55.66049">
        <ele>2289.3</ele>
        <time>2013-03-25T09:58:00Z</time>
      </trkpt>
      <trkpt lat="-21.21995" lon="55.66033">
        <ele>2288.4</ele>
        <time>2013-03-25T09:58:11Z</time>
      </trkpt>
      <trkpt lat="-21.21992" lon="55.66024">
        <ele>2288.7</ele>
        <time>2013-03-25T09:58:18Z</time>
      </trkpt>
      <trkpt lat="-21.2199" lon="55.66016">
        <ele>2288.9</ele>
        <time>2013-03-25T09:58:25Z</time>
      </trkpt>
      <trkpt lat="-21.21988" lon="55.66007">
        <ele>2288.8</ele>
        <time>2013-03-25T09:58:32Z</time>
      </trkpt>
      <trkpt lat="-21.21985" lon="55.65999">
        <ele>2288.1</ele>
        <time>2013-03-25T09:58:39Z</time>
      </trkpt>
      <trkpt lat="-21.21983" lon="55.6599">
        <ele>2288.8</ele>
        <time>2013-03-25T09:58:53Z</time>
      </trkpt>
      <trkpt lat="-21.2198" lon="55.65981">
        <ele>2289.2</ele>
        <time>2013-03-25T09:59:00Z</time>
      </trkpt>
      <trkpt lat="-21.21977" lon="55.65973">
        <ele>2288.9</ele>
        <time>2013-03-25T09:59:06Z</time>
      </trkpt>
      <trkpt lat="-21.21977" lon="55.65972">
        <ele>2288.7</ele>
        <time>2013-03-25T09:59:07Z</time>
      </trkpt>
      <trkpt lat="-21.21972" lon="55.65957">
        <ele>2289.1</ele>
        <time>2013-03-25T09:59:19Z</time>
      </trkpt>
      <trkpt lat="-21.2197" lon="55.65948">
        <ele>2289</ele>
        <time>2013-03-25T09:59:26Z</time>
      </trkpt>
      <trkpt lat="-21.21969" lon="55.65938">
        <ele>2288.4</ele>
        <time>2013-03-25T09:59:33Z</time>
      </trkpt>
      <trkpt lat="-21.21966" lon="55.6593">
        <ele>2289.6</ele>
        <time>2013-03-25T09:59:41Z</time>
      </trkpt>
      <trkpt lat="-21.21964" lon="55.65921">
        <ele>2287.5</ele>
        <time>2013-03-25T09:59:47Z</time>
      </trkpt>
      <trkpt lat="-21.21962" lon="55.65912">
        <ele>2287.1</ele>
        <time>2013-03-25T09:59:53Z</time>
      </trkpt>
      <trkpt lat="-21.2196" lon="55.65903">
        <ele>2287.8</ele>
        <time>2013-03-25T09:59:59Z</time>
      </trkpt>
      <trkpt lat="-21.21958" lon="55.65895">
        <ele>2286.5</ele>
        <time>2013-03-25T10:00:04Z</time>
      </trkpt>
      <trkpt lat="-21.21956" lon="55.65886">
        <ele>2286.8</ele>
        <time>2013-03-25T10:00:10Z</time>
      </trkpt>
      <trkpt lat="-21.21955" lon="55.65884">
        <ele>2286.8</ele>
        <time>2013-03-25T10:00:11Z</time>
      </trkpt>
      <trkpt lat="-21.2195" lon="55.65869">
        <ele>2286.5</ele>
        <time>2013-03-25T10:00:24Z</time>
      </trkpt>
      <trkpt lat="-21.21949" lon="55.6586">
        <ele>2288.1</ele>
        <time>2013-03-25T10:00:31Z</time>
      </trkpt>
      <trkpt lat="-21.21945" lon="55.65852">
        <ele>2288.5</ele>
        <time>2013-03-25T10:00:38Z</time>
      </trkpt>
      <trkpt lat="-21.21943" lon="55.65842">
        <ele>2286.6</ele>
        <time>2013-03-25T10:00:45Z</time>
      </trkpt>
      <trkpt lat="-21.2194" lon="55.65833">
        <ele>2286.7</ele>
        <time>2013-03-25T10:00:52Z</time>
      </trkpt>
      <trkpt lat="-21.21937" lon="55.65825">
        <ele>2286.6</ele>
        <time>2013-03-25T10:00:59Z</time>
      </trkpt>
      <trkpt lat="-21.21935" lon="55.65816">
        <ele>2286.8</ele>
        <time>2013-03-25T10:01:05Z</time>
      </trkpt>
      <trkpt lat="-21.21932" lon="55.65807">
        <ele>2286</ele>
        <time>2013-03-25T10:01:11Z</time>
      </trkpt>
      <trkpt lat="-21.21932" lon="55.65806">
        <ele>2286.3</ele>
        <time>2013-03-25T10:01:12Z</time>
      </trkpt>
      <trkpt lat="-21.21929" lon="55.65791">
        <ele>2286.2</ele>
        <time>2013-03-25T10:01:23Z</time>
      </trkpt>
      <trkpt lat="-21.21926" lon="55.65783">
        <ele>2286.5</ele>
        <time>2013-03-25T10:01:29Z</time>
      </trkpt>
      <trkpt lat="-21.21924" lon="55.65774">
        <ele>2286.1</ele>
        <time>2013-03-25T10:01:36Z</time>
      </trkpt>
      <trkpt lat="-21.21922" lon="55.65765">
        <ele>2285.8</ele>
        <time>2013-03-25T10:01:43Z</time>
      </trkpt>
      <trkpt lat="-21.21919" lon="55.65757">
        <ele>2286.6</ele>
        <time>2013-03-25T10:01:51Z</time>
      </trkpt>
      <trkpt lat="-21.21916" lon="55.65749">
        <ele>2288</ele>
        <time>2013-03-25T10:01:58Z</time>
      </trkpt>
      <trkpt lat="-21.21916" lon="55.65739">
        <ele>2288</ele>
        <time>2013-03-25T10:02:05Z</time>
      </trkpt>
      <trkpt lat="-21.21915" lon="55.6573">
        <ele>2287.7</ele>
        <time>2013-03-25T10:02:20Z</time>
      </trkpt>
      <trkpt lat="-21.21914" lon="55.6573">
        <ele>2287.5</ele>
        <time>2013-03-25T10:02:21Z</time>
      </trkpt>
      <trkpt lat="-21.21907" lon="55.65715">
        <ele>2287.6</ele>
        <time>2013-03-25T10:02:38Z</time>
      </trkpt>
      <trkpt lat="-21.21902" lon="55.65708">
        <ele>2287.9</ele>
        <time>2013-03-25T10:02:46Z</time>
      </trkpt>
      <trkpt lat="-21.21897" lon="55.657">
        <ele>2289.1</ele>
        <time>2013-03-25T10:02:54Z</time>
      </trkpt>
      <trkpt lat="-21.21894" lon="55.65692">
        <ele>2290.3</ele>
        <time>2013-03-25T10:03:02Z</time>
      </trkpt>
      <trkpt lat="-21.21888" lon="55.65686">
        <ele>2291.7</ele>
        <time>2013-03-25T10:03:11Z</time>
      </trkpt>
      <trkpt lat="-21.21883" lon="55.65678">
        <ele>2292.8</ele>
        <time>2013-03-25T10:03:21Z</time>
      </trkpt>
      <trkpt lat="-21.21883" lon="55.65678">
        <ele>2292.7</ele>
        <time>2013-03-25T10:03:22Z</time>
      </trkpt>
      <trkpt lat="-21.2187" lon="55.65666">
        <ele>2297.3</ele>
        <time>2013-03-25T10:03:54Z</time>
      </trkpt>
      <trkpt lat="-21.21872" lon="55.65657">
        <ele>2302.5</ele>
        <time>2013-03-25T10:04:20Z</time>
      </trkpt>
      <trkpt lat="-21.21865" lon="55.65652">
        <ele>2304.4</ele>
        <time>2013-03-25T10:04:35Z</time>
      </trkpt>
      <trkpt lat="-21.21864" lon="55.65652">
        <ele>2304.4</ele>
        <time>2013-03-25T10:04:36Z</time>
      </trkpt>
      <trkpt lat="-21.2186" lon="55.65641">
        <ele>2308.4</ele>
        <time>2013-03-25T10:05:14Z</time>
      </trkpt>
      <trkpt lat="-21.21866" lon="55.65634">
        <ele>2309.8</ele>
        <time>2013-03-25T10:05:27Z</time>
      </trkpt>
      <trkpt lat="-21.21874" lon="55.6563">
        <ele>2311.6</ele>
        <time>2013-03-25T10:05:40Z</time>
      </trkpt>
      <trkpt lat="-21.21875" lon="55.65629">
        <ele>2311.8</ele>
        <time>2013-03-25T10:05:41Z</time>
      </trkpt>
      <trkpt lat="-21.21889" lon="55.6562">
        <ele>2314.7</ele>
        <time>2013-03-25T10:06:05Z</time>
      </trkpt>
      <trkpt lat="-21.21897" lon="55.65617">
        <ele>2317</ele>
        <time>2013-03-25T10:06:18Z</time>
      </trkpt>
      <trkpt lat="-21.21905" lon="55.65612">
        <ele>2318.6</ele>
        <time>2013-03-25T10:06:31Z</time>
      </trkpt>
      <trkpt lat="-21.21913" lon="55.65608">
        <ele>2320.3</ele>
        <time>2013-03-25T10:06:44Z</time>
      </trkpt>
      <trkpt lat="-21.21913" lon="55.65608">
        <ele>2320.5</ele>
        <time>2013-03-25T10:06:45Z</time>
      </trkpt>
      <trkpt lat="-21.21912" lon="55.656">
        <ele>2325.7</ele>
        <time>2013-03-25T10:07:25Z</time>
      </trkpt>
      <trkpt lat="-21.21903" lon="55.65599">
        <ele>2328.4</ele>
        <time>2013-03-25T10:07:41Z</time>
      </trkpt>
      <trkpt lat="-21.21895" lon="55.65599">
        <ele>2329.3</ele>
        <time>2013-03-25T10:07:52Z</time>
      </trkpt>
      <trkpt lat="-21.21894" lon="55.65599">
        <ele>2329.2</ele>
        <time>2013-03-25T10:07:53Z</time>
      </trkpt>
      <trkpt lat="-21.21904" lon="55.65585">
        <ele>2334</ele>
        <time>2013-03-25T10:08:31Z</time>
      </trkpt>
      <trkpt lat="-21.21912" lon="55.65581">
        <ele>2336.1</ele>
        <time>2013-03-25T10:08:50Z</time>
      </trkpt>
      <trkpt lat="-21.2192" lon="55.65578">
        <ele>2339.4</ele>
        <time>2013-03-25T10:09:11Z</time>
      </trkpt>
      <trkpt lat="-21.21921" lon="55.65578">
        <ele>2339.6</ele>
        <time>2013-03-25T10:09:12Z</time>
      </trkpt>
      <trkpt lat="-21.21904" lon="55.65571">
        <ele>2345.3</ele>
        <time>2013-03-25T10:09:53Z</time>
      </trkpt>
      <trkpt lat="-21.21896" lon="55.65572">
        <ele>2344.7</ele>
        <time>2013-03-25T10:10:02Z</time>
      </trkpt>
      <trkpt lat="-21.21887" lon="55.65572">
        <ele>2345.9</ele>
        <time>2013-03-25T10:10:12Z</time>
      </trkpt>
      <trkpt lat="-21.21886" lon="55.65572">
        <ele>2346</ele>
        <time>2013-03-25T10:10:13Z</time>
      </trkpt>
      <trkpt lat="-21.21871" lon="55.65577">
        <ele>2346.8</ele>
        <time>2013-03-25T10:10:29Z</time>
      </trkpt>
      <trkpt lat="-21.21862" lon="55.65579">
        <ele>2348.6</ele>
        <time>2013-03-25T10:10:38Z</time>
      </trkpt>
      <trkpt lat="-21.21854" lon="55.6558">
        <ele>2350.3</ele>
        <time>2013-03-25T10:10:48Z</time>
      </trkpt>
      <trkpt lat="-21.21845" lon="55.65579">
        <ele>2350.8</ele>
        <time>2013-03-25T10:10:58Z</time>
      </trkpt>
      <trkpt lat="-21.21837" lon="55.65583">
        <ele>2352.7</ele>
        <time>2013-03-25T10:11:06Z</time>
      </trkpt>
      <trkpt lat="-21.21832" lon="55.65589">
        <ele>2353.4</ele>
        <time>2013-03-25T10:11:14Z</time>
      </trkpt>
      <trkpt lat="-21.21831" lon="55.6559">
        <ele>2353.3</ele>
        <time>2013-03-25T10:11:15Z</time>
      </trkpt>
      <trkpt lat="-21.21822" lon="55.65604">
        <ele>2355.1</ele>
        <time>2013-03-25T10:11:31Z</time>
      </trkpt>
      <trkpt lat="-21.21816" lon="55.65609">
        <ele>2355.1</ele>
        <time>2013-03-25T10:11:38Z</time>
      </trkpt>
      <trkpt lat="-21.21808" lon="55.65613">
        <ele>2355.3</ele>
        <time>2013-03-25T10:11:46Z</time>
      </trkpt>
      <trkpt lat="-21.218" lon="55.65617">
        <ele>2356.9</ele>
        <time>2013-03-25T10:11:56Z</time>
      </trkpt>
      <trkpt lat="-21.21793" lon="55.6562">
        <ele>2357.4</ele>
        <time>2013-03-25T10:12:06Z</time>
      </trkpt>
      <trkpt lat="-21.21784" lon="55.65618">
        <ele>2358.3</ele>
        <time>2013-03-25T10:12:19Z</time>
      </trkpt>
      <trkpt lat="-21.21784" lon="55.65618">
        <ele>2358.5</ele>
        <time>2013-03-25T10:12:20Z</time>
      </trkpt>
      <trkpt lat="-21.21769" lon="55.65609">
        <ele>2359.9</ele>
        <time>2013-03-25T10:12:41Z</time>
      </trkpt>
      <trkpt lat="-21.21761" lon="55.65606">
        <ele>2361.2</ele>
        <time>2013-03-25T10:12:53Z</time>
      </trkpt>
      <trkpt lat="-21.21753" lon="55.65603">
        <ele>2362.2</ele>
        <time>2013-03-25T10:13:03Z</time>
      </trkpt>
      <trkpt lat="-21.21745" lon="55.65602">
        <ele>2363.1</ele>
        <time>2013-03-25T10:13:14Z</time>
      </trkpt>
      <trkpt lat="-21.21737" lon="55.65598">
        <ele>2364.8</ele>
        <time>2013-03-25T10:13:24Z</time>
      </trkpt>
      <trkpt lat="-21.21737" lon="55.65598">
        <ele>2364.7</ele>
        <time>2013-03-25T10:13:25Z</time>
      </trkpt>
      <trkpt lat="-21.21737" lon="55.65591">
        <ele>2369.5</ele>
        <time>2013-03-25T10:13:53Z</time>
      </trkpt>
      <trkpt lat="-21.21746" lon="55.65593">
        <ele>2369.5</ele>
        <time>2013-03-25T10:14:04Z</time>
      </trkpt>
      <trkpt lat="-21.21754" lon="55.65596">
        <ele>2369.2</ele>
        <time>2013-03-25T10:14:13Z</time>
      </trkpt>
      <trkpt lat="-21.21762" lon="55.65598">
        <ele>2370.5</ele>
        <time>2013-03-25T10:14:22Z</time>
      </trkpt>
      <trkpt lat="-21.2176" lon="55.65589">
        <ele>2373.3</ele>
        <time>2013-03-25T10:14:46Z</time>
      </trkpt>
      <trkpt lat="-21.21759" lon="55.65589">
        <ele>2373.7</ele>
        <time>2013-03-25T10:14:47Z</time>
      </trkpt>
      <trkpt lat="-21.21744" lon="55.65582">
        <ele>2375.8</ele>
        <time>2013-03-25T10:15:07Z</time>
      </trkpt>
      <trkpt lat="-21.21736" lon="55.65581">
        <ele>2377.3</ele>
        <time>2013-03-25T10:15:21Z</time>
      </trkpt>
      <trkpt lat="-21.21727" lon="55.65582">
        <ele>2378.5</ele>
        <time>2013-03-25T10:15:35Z</time>
      </trkpt>
      <trkpt lat="-21.21719" lon="55.65585">
        <ele>2379.2</ele>
        <time>2013-03-25T10:15:52Z</time>
      </trkpt>
      <trkpt lat="-21.21719" lon="55.65586">
        <ele>2379.4</ele>
        <time>2013-03-25T10:15:53Z</time>
      </trkpt>
      <trkpt lat="-21.21719" lon="55.65585">
        <ele>2383.4</ele>
        <time>2013-03-25T10:16:27Z</time>
      </trkpt>
      <trkpt lat="-21.21727" lon="55.65587">
        <ele>2386.4</ele>
        <time>2013-03-25T10:16:51Z</time>
      </trkpt>
      <trkpt lat="-21.21736" lon="55.65585">
        <ele>2389</ele>
        <time>2013-03-25T10:17:06Z</time>
      </trkpt>
      <trkpt lat="-21.21736" lon="55.65585">
        <ele>2389.4</ele>
        <time>2013-03-25T10:17:07Z</time>
      </trkpt>
      <trkpt lat="-21.21746" lon="55.65571">
        <ele>2391.9</ele>
        <time>2013-03-25T10:17:31Z</time>
      </trkpt>
      <trkpt lat="-21.21741" lon="55.65564">
        <ele>2394.6</ele>
        <time>2013-03-25T10:17:48Z</time>
      </trkpt>
      <trkpt lat="-21.21732" lon="55.65561">
        <ele>2394.3</ele>
        <time>2013-03-25T10:17:59Z</time>
      </trkpt>
      <trkpt lat="-21.21725" lon="55.65556">
        <ele>2396.6</ele>
        <time>2013-03-25T10:18:09Z</time>
      </trkpt>
      <trkpt lat="-21.21724" lon="55.65556">
        <ele>2396.6</ele>
        <time>2013-03-25T10:18:10Z</time>
      </trkpt>
      <trkpt lat="-21.21708" lon="55.6556">
        <ele>2396.5</ele>
        <time>2013-03-25T10:18:30Z</time>
      </trkpt>
      <trkpt lat="-21.217" lon="55.65556">
        <ele>2397.8</ele>
        <time>2013-03-25T10:18:44Z</time>
      </trkpt>
      <trkpt lat="-21.21692" lon="55.65559">
        <ele>2401</ele>
        <time>2013-03-25T10:18:57Z</time>
      </trkpt>
      <trkpt lat="-21.21685" lon="55.65565">
        <ele>2401.1</ele>
        <time>2013-03-25T10:19:06Z</time>
      </trkpt>
      <trkpt lat="-21.21683" lon="55.65574">
        <ele>2402.7</ele>
        <time>2013-03-25T10:19:18Z</time>
      </trkpt>
      <trkpt lat="-21.21683" lon="55.65575">
        <ele>2402.7</ele>
        <time>2013-03-25T10:19:19Z</time>
      </trkpt>
      <trkpt lat="-21.21686" lon="55.65591">
        <ele>2403.7</ele>
        <time>2013-03-25T10:19:35Z</time>
      </trkpt>
      <trkpt lat="-21.21685" lon="55.656">
        <ele>2403.9</ele>
        <time>2013-03-25T10:19:42Z</time>
      </trkpt>
      <trkpt lat="-21.21681" lon="55.65609">
        <ele>2404.3</ele>
        <time>2013-03-25T10:19:51Z</time>
      </trkpt>
      <trkpt lat="-21.21673" lon="55.65611">
        <ele>2402.7</ele>
        <time>2013-03-25T10:19:59Z</time>
      </trkpt>
      <trkpt lat="-21.21666" lon="55.65611">
        <ele>2402.9</ele>
        <time>2013-03-25T10:20:06Z</time>
      </trkpt>
      <trkpt lat="-21.21658" lon="55.65609">
        <ele>2402.7</ele>
        <time>2013-03-25T10:20:13Z</time>
      </trkpt>
      <trkpt lat="-21.2165" lon="55.65609">
        <ele>2402.6</ele>
        <time>2013-03-25T10:20:19Z</time>
      </trkpt>
      <trkpt lat="-21.21648" lon="55.65609">
        <ele>2402.6</ele>
        <time>2013-03-25T10:20:20Z</time>
      </trkpt>
      <trkpt lat="-21.21634" lon="55.65608">
        <ele>2403.1</ele>
        <time>2013-03-25T10:20:31Z</time>
      </trkpt>
      <trkpt lat="-21.21626" lon="55.65607">
        <ele>2402</ele>
        <time>2013-03-25T10:20:37Z</time>
      </trkpt>
      <trkpt lat="-21.21619" lon="55.65606">
        <ele>2402.3</ele>
        <time>2013-03-25T10:20:42Z</time>
      </trkpt>
      <trkpt lat="-21.21611" lon="55.65605">
        <ele>2401.8</ele>
        <time>2013-03-25T10:20:47Z</time>
      </trkpt>
      <trkpt lat="-21.21603" lon="55.65604">
        <ele>2401.9</ele>
        <time>2013-03-25T10:20:53Z</time>
      </trkpt>
      <trkpt lat="-21.21595" lon="55.65604">
        <ele>2401.8</ele>
        <time>2013-03-25T10:20:59Z</time>
      </trkpt>
      <trkpt lat="-21.21586" lon="55.65603">
        <ele>2401.6</ele>
        <time>2013-03-25T10:21:05Z</time>
      </trkpt>
      <trkpt lat="-21.21577" lon="55.65602">
        <ele>2401.6</ele>
        <time>2013-03-25T10:21:11Z</time>
      </trkpt>
      <trkpt lat="-21.21569" lon="55.65603">
        <ele>2401</ele>
        <time>2013-03-25T10:21:18Z</time>
      </trkpt>
      <trkpt lat="-21.2156" lon="55.65603">
        <ele>2400.4</ele>
        <time>2013-03-25T10:21:25Z</time>
      </trkpt>
      <trkpt lat="-21.21559" lon="55.65603">
        <ele>2400.5</ele>
        <time>2013-03-25T10:21:26Z</time>
      </trkpt>
      <trkpt lat="-21.21543" lon="55.65601">
        <ele>2400</ele>
        <time>2013-03-25T10:21:38Z</time>
      </trkpt>
      <trkpt lat="-21.21535" lon="55.65601">
        <ele>2399.1</ele>
        <time>2013-03-25T10:21:44Z</time>
      </trkpt>
      <trkpt lat="-21.21527" lon="55.65601">
        <ele>2399.7</ele>
        <time>2013-03-25T10:21:50Z</time>
      </trkpt>
      <trkpt lat="-21.21519" lon="55.656">
        <ele>2399.3</ele>
        <time>2013-03-25T10:21:56Z</time>
      </trkpt>
      <trkpt lat="-21.21511" lon="55.65599">
        <ele>2400.3</ele>
        <time>2013-03-25T10:22:02Z</time>
      </trkpt>
      <trkpt lat="-21.21504" lon="55.65599">
        <ele>2399.9</ele>
        <time>2013-03-25T10:22:08Z</time>
      </trkpt>
      <trkpt lat="-21.21496" lon="55.65597">
        <ele>2399.5</ele>
        <time>2013-03-25T10:22:15Z</time>
      </trkpt>
      <trkpt lat="-21.21488" lon="55.65597">
        <ele>2399.8</ele>
        <time>2013-03-25T10:22:22Z</time>
      </trkpt>
      <trkpt lat="-21.21479" lon="55.65596">
        <ele>2399.6</ele>
        <time>2013-03-25T10:22:29Z</time>
      </trkpt>
      <trkpt lat="-21.21478" lon="55.65596">
        <ele>2399.3</ele>
        <time>2013-03-25T10:22:30Z</time>
      </trkpt>
      <trkpt lat="-21.21464" lon="55.65589">
        <ele>2400</ele>
        <time>2013-03-25T10:22:44Z</time>
      </trkpt>
      <trkpt lat="-21.21457" lon="55.65584">
        <ele>2401.2</ele>
        <time>2013-03-25T10:22:53Z</time>
      </trkpt>
      <trkpt lat="-21.2145" lon="55.65578">
        <ele>2403</ele>
        <time>2013-03-25T10:23:02Z</time>
      </trkpt>
      <trkpt lat="-21.21445" lon="55.65571">
        <ele>2402.8</ele>
        <time>2013-03-25T10:23:11Z</time>
      </trkpt>
      <trkpt lat="-21.21438" lon="55.65565">
        <ele>2403.4</ele>
        <time>2013-03-25T10:23:20Z</time>
      </trkpt>
      <trkpt lat="-21.21431" lon="55.65561">
        <ele>2405.1</ele>
        <time>2013-03-25T10:23:33Z</time>
      </trkpt>
      <trkpt lat="-21.2143" lon="55.65561">
        <ele>2405.1</ele>
        <time>2013-03-25T10:23:34Z</time>
      </trkpt>
      <trkpt lat="-21.21415" lon="55.65556">
        <ele>2406.6</ele>
        <time>2013-03-25T10:23:59Z</time>
      </trkpt>
      <trkpt lat="-21.21408" lon="55.65551">
        <ele>2407.8</ele>
        <time>2013-03-25T10:24:08Z</time>
      </trkpt>
      <trkpt lat="-21.21402" lon="55.65543">
        <ele>2408.1</ele>
        <time>2013-03-25T10:24:15Z</time>
      </trkpt>
      <trkpt lat="-21.21398" lon="55.65536">
        <ele>2409</ele>
        <time>2013-03-25T10:24:22Z</time>
      </trkpt>
      <trkpt lat="-21.21393" lon="55.65528">
        <ele>2409</ele>
        <time>2013-03-25T10:24:31Z</time>
      </trkpt>
      <trkpt lat="-21.21385" lon="55.65525">
        <ele>2409.5</ele>
        <time>2013-03-25T10:24:41Z</time>
      </trkpt>
      <trkpt lat="-21.21384" lon="55.65524">
        <ele>2409.5</ele>
        <time>2013-03-25T10:24:42Z</time>
      </trkpt>
      <trkpt lat="-21.21369" lon="55.65518">
        <ele>2413.1</ele>
        <time>2013-03-25T10:24:58Z</time>
      </trkpt>
      <trkpt lat="-21.21361" lon="55.65514">
        <ele>2413.1</ele>
        <time>2013-03-25T10:25:05Z</time>
      </trkpt>
      <trkpt lat="-21.21355" lon="55.65508">
        <ele>2414.2</ele>
        <time>2013-03-25T10:25:14Z</time>
      </trkpt>
      <trkpt lat="-21.21347" lon="55.65505">
        <ele>2414.5</ele>
        <time>2013-03-25T10:25:24Z</time>
      </trkpt>
      <trkpt lat="-21.21339" lon="55.65502">
        <ele>2414.8</ele>
        <time>2013-03-25T10:25:32Z</time>
      </trkpt>
      <trkpt lat="-21.2133" lon="55.65499">
        <ele>2415.9</ele>
        <time>2013-03-25T10:25:43Z</time>
      </trkpt>
      <trkpt lat="-21.2133" lon="55.65499">
        <ele>2415.7</ele>
        <time>2013-03-25T10:25:44Z</time>
      </trkpt>
      <trkpt lat="-21.21315" lon="55.65493">
        <ele>2415.6</ele>
        <time>2013-03-25T10:26:02Z</time>
      </trkpt>
      <trkpt lat="-21.21307" lon="55.6549">
        <ele>2415.8</ele>
        <time>2013-03-25T10:26:13Z</time>
      </trkpt>
      <trkpt lat="-21.21298" lon="55.6549">
        <ele>2418.5</ele>
        <time>2013-03-25T10:26:25Z</time>
      </trkpt>
      <trkpt lat="-21.2129" lon="55.6549">
        <ele>2418</ele>
        <time>2013-03-25T10:26:32Z</time>
      </trkpt>
      <trkpt lat="-21.21282" lon="55.65491">
        <ele>2418.6</ele>
        <time>2013-03-25T10:26:40Z</time>
      </trkpt>
      <trkpt lat="-21.21274" lon="55.65491">
        <ele>2419.1</ele>
        <time>2013-03-25T10:26:49Z</time>
      </trkpt>
      <trkpt lat="-21.21273" lon="55.65491">
        <ele>2419</ele>
        <time>2013-03-25T10:26:50Z</time>
      </trkpt>
      <trkpt lat="-21.21258" lon="55.65485">
        <ele>2422.3</ele>
        <time>2013-03-25T10:27:11Z</time>
      </trkpt>
      <trkpt lat="-21.21249" lon="55.65483">
        <ele>2424</ele>
        <time>2013-03-25T10:27:19Z</time>
      </trkpt>
      <trkpt lat="-21.21242" lon="55.6548">
        <ele>2424.9</ele>
        <time>2013-03-25T10:27:28Z</time>
      </trkpt>
      <trkpt lat="-21.21236" lon="55.65473">
        <ele>2426.1</ele>
        <time>2013-03-25T10:27:36Z</time>
      </trkpt>
      <trkpt lat="-21.21228" lon="55.65467">
        <ele>2427.2</ele>
        <time>2013-03-25T10:27:46Z</time>
      </trkpt>
      <trkpt lat="-21.21221" lon="55.65463">
        <ele>2427.6</ele>
        <time>2013-03-25T10:27:55Z</time>
      </trkpt>
      <trkpt lat="-21.2122" lon="55.65462">
        <ele>2427.5</ele>
        <time>2013-03-25T10:27:56Z</time>
      </trkpt>
      <trkpt lat="-21.21205" lon="55.65459">
        <ele>2431.2</ele>
        <time>2013-03-25T10:28:21Z</time>
      </trkpt>
      <trkpt lat="-21.21197" lon="55.65456">
        <ele>2431.1</ele>
        <time>2013-03-25T10:28:30Z</time>
      </trkpt>
      <trkpt lat="-21.21189" lon="55.65457">
        <ele>2431.6</ele>
        <time>2013-03-25T10:28:40Z</time>
      </trkpt>
      <trkpt lat="-21.21182" lon="55.65452">
        <ele>2432.5</ele>
        <time>2013-03-25T10:28:52Z</time>
      </trkpt>
      <trkpt lat="-21.21173" lon="55.6545">
        <ele>2433.4</ele>
        <time>2013-03-25T10:29:00Z</time>
      </trkpt>
      <trkpt lat="-21.21172" lon="55.6545">
        <ele>2433.7</ele>
        <time>2013-03-25T10:29:01Z</time>
      </trkpt>
      <trkpt lat="-21.21157" lon="55.65448">
        <ele>2437.3</ele>
        <time>2013-03-25T10:29:24Z</time>
      </trkpt>
      <trkpt lat="-21.21151" lon="55.65441">
        <ele>2437.9</ele>
        <time>2013-03-25T10:29:34Z</time>
      </trkpt>
      <trkpt lat="-21.21143" lon="55.65437">
        <ele>2437.9</ele>
        <time>2013-03-25T10:29:41Z</time>
      </trkpt>
      <trkpt lat="-21.21136" lon="55.65433">
        <ele>2436.7</ele>
        <time>2013-03-25T10:29:47Z</time>
      </trkpt>
      <trkpt lat="-21.21127" lon="55.65431">
        <ele>2435.7</ele>
        <time>2013-03-25T10:29:54Z</time>
      </trkpt>
      <trkpt lat="-21.21118" lon="55.65431">
        <ele>2436.4</ele>
        <time>2013-03-25T10:30:04Z</time>
      </trkpt>
      <trkpt lat="-21.21118" lon="55.65431">
        <ele>2436.2</ele>
        <time>2013-03-25T10:30:05Z</time>
      </trkpt>
      <trkpt lat="-21.21116" lon="55.65432">
        <ele>2436</ele>
        <time>2013-03-25T10:31:58Z</time>
      </trkpt>
      <trkpt lat="-21.21116" lon="55.65432">
        <ele>2436</ele>
        <time>2013-03-25T10:31:58Z</time>
      </trkpt>
      <trkpt lat="-21.21116" lon="55.65432">
        <ele>2436.2</ele>
        <time>2013-03-25T10:32:01Z</time>
      </trkpt>
      <trkpt lat="-21.21108" lon="55.65435">
        <ele>2437.6</ele>
        <time>2013-03-25T10:39:53Z</time>
      </trkpt>
      <trkpt lat="-21.211" lon="55.65439">
        <ele>2437.4</ele>
        <time>2013-03-25T10:40:02Z</time>
      </trkpt>
      <trkpt lat="-21.21093" lon="55.65444">
        <ele>2436.7</ele>
        <time>2013-03-25T10:40:10Z</time>
      </trkpt>
      <trkpt lat="-21.21091" lon="55.65444">
        <ele>2436.2</ele>
        <time>2013-03-25T10:40:11Z</time>
      </trkpt>
      <trkpt lat="-21.21076" lon="55.65449">
        <ele>2436.4</ele>
        <time>2013-03-25T10:40:26Z</time>
      </trkpt>
      <trkpt lat="-21.21068" lon="55.65451">
        <ele>2437</ele>
        <time>2013-03-25T10:40:33Z</time>
      </trkpt>
      <trkpt lat="-21.21061" lon="55.65456">
        <ele>2438</ele>
        <time>2013-03-25T10:40:40Z</time>
      </trkpt>
      <trkpt lat="-21.21054" lon="55.65462">
        <ele>2438.8</ele>
        <time>2013-03-25T10:40:49Z</time>
      </trkpt>
      <trkpt lat="-21.21047" lon="55.65467">
        <ele>2440.3</ele>
        <time>2013-03-25T10:40:57Z</time>
      </trkpt>
      <trkpt lat="-21.2104" lon="55.65473">
        <ele>2439.4</ele>
        <time>2013-03-25T10:41:05Z</time>
      </trkpt>
      <trkpt lat="-21.21034" lon="55.65478">
        <ele>2438.4</ele>
        <time>2013-03-25T10:41:13Z</time>
      </trkpt>
      <trkpt lat="-21.21033" lon="55.65479">
        <ele>2438.4</ele>
        <time>2013-03-25T10:41:14Z</time>
      </trkpt>
      <trkpt lat="-21.21026" lon="55.65485">
        <ele>2437.8</ele>
        <time>2013-03-25T10:41:21Z</time>
      </trkpt>
      <trkpt lat="-21.21019" lon="55.65489">
        <ele>2437.2</ele>
        <time>2013-03-25T10:41:27Z</time>
      </trkpt>
      <trkpt lat="-21.21012" lon="55.65493">
        <ele>2436</ele>
        <time>2013-03-25T10:41:33Z</time>
      </trkpt>
      <trkpt lat="-21.21005" lon="55.65498">
        <ele>2436.7</ele>
        <time>2013-03-25T10:41:39Z</time>
      </trkpt>
      <trkpt lat="-21.20998" lon="55.65504">
        <ele>2437.3</ele>
        <time>2013-03-25T10:41:46Z</time>
      </trkpt>
      <trkpt lat="-21.20989" lon="55.65506">
        <ele>2436.3</ele>
        <time>2013-03-25T10:41:54Z</time>
      </trkpt>
      <trkpt lat="-21.20982" lon="55.65507">
        <ele>2435.9</ele>
        <time>2013-03-25T10:42:00Z</time>
      </trkpt>
      <trkpt lat="-21.20974" lon="55.65509">
        <ele>2436.2</ele>
        <time>2013-03-25T10:42:07Z</time>
      </trkpt>
      <trkpt lat="-21.20966" lon="55.65512">
        <ele>2437.9</ele>
        <time>2013-03-25T10:42:15Z</time>
      </trkpt>
      <trkpt lat="-21.20965" lon="55.65511">
        <ele>2437.8</ele>
        <time>2013-03-25T10:42:16Z</time>
      </trkpt>
      <trkpt lat="-21.20949" lon="55.65512">
        <ele>2441.4</ele>
        <time>2013-03-25T10:42:31Z</time>
      </trkpt>
      <trkpt lat="-21.20943" lon="55.65518">
        <ele>2441.4</ele>
        <time>2013-03-25T10:42:38Z</time>
      </trkpt>
      <trkpt lat="-21.20938" lon="55.65525">
        <ele>2440.1</ele>
        <time>2013-03-25T10:42:45Z</time>
      </trkpt>
      <trkpt lat="-21.20932" lon="55.65531">
        <ele>2436.6</ele>
        <time>2013-03-25T10:42:54Z</time>
      </trkpt>
      <trkpt lat="-21.20925" lon="55.65536">
        <ele>2433.7</ele>
        <time>2013-03-25T10:43:02Z</time>
      </trkpt>
      <trkpt lat="-21.20918" lon="55.65541">
        <ele>2430.5</ele>
        <time>2013-03-25T10:43:11Z</time>
      </trkpt>
      <trkpt lat="-21.20912" lon="55.65548">
        <ele>2429.1</ele>
        <time>2013-03-25T10:43:20Z</time>
      </trkpt>
      <trkpt lat="-21.20911" lon="55.65549">
        <ele>2428.7</ele>
        <time>2013-03-25T10:43:21Z</time>
      </trkpt>
      <trkpt lat="-21.20898" lon="55.65557">
        <ele>2427.5</ele>
        <time>2013-03-25T10:43:32Z</time>
      </trkpt>
      <trkpt lat="-21.20891" lon="55.65562">
        <ele>2427.7</ele>
        <time>2013-03-25T10:43:38Z</time>
      </trkpt>
      <trkpt lat="-21.20885" lon="55.65567">
        <ele>2426.4</ele>
        <time>2013-03-25T10:43:44Z</time>
      </trkpt>
      <trkpt lat="-21.20877" lon="55.65572">
        <ele>2424.5</ele>
        <time>2013-03-25T10:43:51Z</time>
      </trkpt>
      <trkpt lat="-21.2087" lon="55.65575">
        <ele>2423.8</ele>
        <time>2013-03-25T10:43:57Z</time>
      </trkpt>
      <trkpt lat="-21.20863" lon="55.65579">
        <ele>2423.5</ele>
        <time>2013-03-25T10:44:03Z</time>
      </trkpt>
      <trkpt lat="-21.20855" lon="55.65583">
        <ele>2422</ele>
        <time>2013-03-25T10:44:09Z</time>
      </trkpt>
      <trkpt lat="-21.20849" lon="55.65587">
        <ele>2422.1</ele>
        <time>2013-03-25T10:44:14Z</time>
      </trkpt>
      <trkpt lat="-21.20842" lon="55.65591">
        <ele>2421.6</ele>
        <time>2013-03-25T10:44:19Z</time>
      </trkpt>
      <trkpt lat="-21.20836" lon="55.65596">
        <ele>2420.9</ele>
        <time>2013-03-25T10:44:24Z</time>
      </trkpt>
      <trkpt lat="-21.20834" lon="55.65596">
        <ele>2420.7</ele>
        <time>2013-03-25T10:44:25Z</time>
      </trkpt>
      <trkpt lat="-21.20823" lon="55.65608">
        <ele>2420.3</ele>
        <time>2013-03-25T10:44:36Z</time>
      </trkpt>
      <trkpt lat="-21.20815" lon="55.65612">
        <ele>2419.7</ele>
        <time>2013-03-25T10:44:42Z</time>
      </trkpt>
      <trkpt lat="-21.20807" lon="55.65614">
        <ele>2419.7</ele>
        <time>2013-03-25T10:44:48Z</time>
      </trkpt>
      <trkpt lat="-21.20799" lon="55.65616">
        <ele>2419.5</ele>
        <time>2013-03-25T10:44:53Z</time>
      </trkpt>
      <trkpt lat="-21.20792" lon="55.65618">
        <ele>2418.1</ele>
        <time>2013-03-25T10:44:58Z</time>
      </trkpt>
      <trkpt lat="-21.20786" lon="55.65625">
        <ele>2417.4</ele>
        <time>2013-03-25T10:45:04Z</time>
      </trkpt>
      <trkpt lat="-21.20781" lon="55.65631">
        <ele>2417.7</ele>
        <time>2013-03-25T10:45:10Z</time>
      </trkpt>
      <trkpt lat="-21.20773" lon="55.65636">
        <ele>2418.2</ele>
        <time>2013-03-25T10:45:17Z</time>
      </trkpt>
      <trkpt lat="-21.20766" lon="55.65639">
        <ele>2417.6</ele>
        <time>2013-03-25T10:45:23Z</time>
      </trkpt>
      <trkpt lat="-21.20758" lon="55.65642">
        <ele>2416.4</ele>
        <time>2013-03-25T10:45:30Z</time>
      </trkpt>
      <trkpt lat="-21.20756" lon="55.65642">
        <ele>2416</ele>
        <time>2013-03-25T10:45:31Z</time>
      </trkpt>
      <trkpt lat="-21.20743" lon="55.65647">
        <ele>2413.4</ele>
        <time>2013-03-25T10:45:42Z</time>
      </trkpt>
      <trkpt lat="-21.20736" lon="55.65647">
        <ele>2413.2</ele>
        <time>2013-03-25T10:45:47Z</time>
      </trkpt>
      <trkpt lat="-21.20729" lon="55.65653">
        <ele>2412</ele>
        <time>2013-03-25T10:45:53Z</time>
      </trkpt>
      <trkpt lat="-21.20722" lon="55.65658">
        <ele>2412.7</ele>
        <time>2013-03-25T10:45:59Z</time>
      </trkpt>
      <trkpt lat="-21.20715" lon="55.65661">
        <ele>2411</ele>
        <time>2013-03-25T10:46:05Z</time>
      </trkpt>
      <trkpt lat="-21.20706" lon="55.65662">
        <ele>2409.3</ele>
        <time>2013-03-25T10:46:11Z</time>
      </trkpt>
      <trkpt lat="-21.20699" lon="55.65664">
        <ele>2409.6</ele>
        <time>2013-03-25T10:46:16Z</time>
      </trkpt>
      <trkpt lat="-21.20692" lon="55.6567">
        <ele>2408.8</ele>
        <time>2013-03-25T10:46:22Z</time>
      </trkpt>
      <trkpt lat="-21.20684" lon="55.65673">
        <ele>2408</ele>
        <time>2013-03-25T10:46:28Z</time>
      </trkpt>
      <trkpt lat="-21.20677" lon="55.65679">
        <ele>2406.7</ele>
        <time>2013-03-25T10:46:33Z</time>
      </trkpt>
      <trkpt lat="-21.20676" lon="55.65679">
        <ele>2406.3</ele>
        <time>2013-03-25T10:46:34Z</time>
      </trkpt>
      <trkpt lat="-21.20664" lon="55.65688">
        <ele>2405.4</ele>
        <time>2013-03-25T10:46:43Z</time>
      </trkpt>
      <trkpt lat="-21.20658" lon="55.65694">
        <ele>2405.1</ele>
        <time>2013-03-25T10:46:49Z</time>
      </trkpt>
      <trkpt lat="-21.2065" lon="55.65698">
        <ele>2404.6</ele>
        <time>2013-03-25T10:46:55Z</time>
      </trkpt>
      <trkpt lat="-21.20648" lon="55.65708">
        <ele>2404.6</ele>
        <time>2013-03-25T10:47:01Z</time>
      </trkpt>
      <trkpt lat="-21.20646" lon="55.65717">
        <ele>2404.4</ele>
        <time>2013-03-25T10:47:08Z</time>
      </trkpt>
      <trkpt lat="-21.2064" lon="55.65722">
        <ele>2404.6</ele>
        <time>2013-03-25T10:47:14Z</time>
      </trkpt>
      <trkpt lat="-21.20632" lon="55.65725">
        <ele>2405.2</ele>
        <time>2013-03-25T10:47:21Z</time>
      </trkpt>
      <trkpt lat="-21.20623" lon="55.65727">
        <ele>2406.6</ele>
        <time>2013-03-25T10:47:27Z</time>
      </trkpt>
      <trkpt lat="-21.20615" lon="55.65729">
        <ele>2407.2</ele>
        <time>2013-03-25T10:47:33Z</time>
      </trkpt>
      <trkpt lat="-21.20607" lon="55.65734">
        <ele>2405.4</ele>
        <time>2013-03-25T10:47:42Z</time>
      </trkpt>
      <trkpt lat="-21.20606" lon="55.65734">
        <ele>2405.1</ele>
        <time>2013-03-25T10:47:43Z</time>
      </trkpt>
      <trkpt lat="-21.20592" lon="55.65741">
        <ele>2401.5</ele>
        <time>2013-03-25T10:48:00Z</time>
      </trkpt>
      <trkpt lat="-21.20583" lon="55.65743">
        <ele>2400.3</ele>
        <time>2013-03-25T10:48:07Z</time>
      </trkpt>
      <trkpt lat="-21.20575" lon="55.65746">
        <ele>2399.9</ele>
        <time>2013-03-25T10:48:13Z</time>
      </trkpt>
      <trkpt lat="-21.20567" lon="55.65749">
        <ele>2399.8</ele>
        <time>2013-03-25T10:48:19Z</time>
      </trkpt>
      <trkpt lat="-21.20559" lon="55.65752">
        <ele>2400.7</ele>
        <time>2013-03-25T10:48:25Z</time>
      </trkpt>
      <trkpt lat="-21.20553" lon="55.65758">
        <ele>2398.8</ele>
        <time>2013-03-25T10:48:31Z</time>
      </trkpt>
      <trkpt lat="-21.20546" lon="55.65763">
        <ele>2397.9</ele>
        <time>2013-03-25T10:48:37Z</time>
      </trkpt>
      <trkpt lat="-21.20539" lon="55.65768">
        <ele>2397.9</ele>
        <time>2013-03-25T10:48:44Z</time>
      </trkpt>
      <trkpt lat="-21.20537" lon="55.65768">
        <ele>2397.6</ele>
        <time>2013-03-25T10:48:45Z</time>
      </trkpt>
      <trkpt lat="-21.20524" lon="55.65778">
        <ele>2396.7</ele>
        <time>2013-03-25T10:48:58Z</time>
      </trkpt>
      <trkpt lat="-21.20516" lon="55.65781">
        <ele>2395.1</ele>
        <time>2013-03-25T10:49:05Z</time>
      </trkpt>
      <trkpt lat="-21.2051" lon="55.65785">
        <ele>2395.6</ele>
        <time>2013-03-25T10:49:11Z</time>
      </trkpt>
      <trkpt lat="-21.20503" lon="55.65791">
        <ele>2393.8</ele>
        <time>2013-03-25T10:49:17Z</time>
      </trkpt>
      <trkpt lat="-21.20495" lon="55.65792">
        <ele>2394.7</ele>
        <time>2013-03-25T10:49:22Z</time>
      </trkpt>
      <trkpt lat="-21.20487" lon="55.65793">
        <ele>2394.8</ele>
        <time>2013-03-25T10:49:27Z</time>
      </trkpt>
      <trkpt lat="-21.20486" lon="55.65802">
        <ele>2397.2</ele>
        <time>2013-03-25T10:49:39Z</time>
      </trkpt>
      <trkpt lat="-21.20484" lon="55.65811">
        <ele>2398.3</ele>
        <time>2013-03-25T10:49:48Z</time>
      </trkpt>
      <trkpt lat="-21.20483" lon="55.65812">
        <ele>2398.4</ele>
        <time>2013-03-25T10:49:49Z</time>
      </trkpt>
      <trkpt lat="-21.20469" lon="55.65818">
        <ele>2400.6</ele>
        <time>2013-03-25T10:50:02Z</time>
      </trkpt>
      <trkpt lat="-21.20463" lon="55.65824">
        <ele>2401.2</ele>
        <time>2013-03-25T10:50:10Z</time>
      </trkpt>
      <trkpt lat="-21.20456" lon="55.65828">
        <ele>2401.6</ele>
        <time>2013-03-25T10:50:17Z</time>
      </trkpt>
      <trkpt lat="-21.20449" lon="55.65834">
        <ele>2402.7</ele>
        <time>2013-03-25T10:50:27Z</time>
      </trkpt>
      <trkpt lat="-21.20448" lon="55.65843">
        <ele>2402.1</ele>
        <time>2013-03-25T10:50:34Z</time>
      </trkpt>
      <trkpt lat="-21.20452" lon="55.65851">
        <ele>2401.8</ele>
        <time>2013-03-25T10:50:42Z</time>
      </trkpt>
      <trkpt lat="-21.20453" lon="55.6586">
        <ele>2402.5</ele>
        <time>2013-03-25T10:50:50Z</time>
      </trkpt>
      <trkpt lat="-21.20453" lon="55.65861">
        <ele>2402.4</ele>
        <time>2013-03-25T10:50:51Z</time>
      </trkpt>
      <trkpt lat="-21.20454" lon="55.65877">
        <ele>2404.6</ele>
        <time>2013-03-25T10:51:03Z</time>
      </trkpt>
      <trkpt lat="-21.2045" lon="55.65886">
        <ele>2404.7</ele>
        <time>2013-03-25T10:51:12Z</time>
      </trkpt>
      <trkpt lat="-21.20446" lon="55.65894">
        <ele>2405.5</ele>
        <time>2013-03-25T10:51:18Z</time>
      </trkpt>
      <trkpt lat="-21.2044" lon="55.659">
        <ele>2405.8</ele>
        <time>2013-03-25T10:51:24Z</time>
      </trkpt>
      <trkpt lat="-21.20432" lon="55.65901">
        <ele>2405.8</ele>
        <time>2013-03-25T10:51:30Z</time>
      </trkpt>
      <trkpt lat="-21.20426" lon="55.65906">
        <ele>2404.6</ele>
        <time>2013-03-25T10:51:36Z</time>
      </trkpt>
      <trkpt lat="-21.2042" lon="55.65913">
        <ele>2404.8</ele>
        <time>2013-03-25T10:51:42Z</time>
      </trkpt>
      <trkpt lat="-21.20413" lon="55.65919">
        <ele>2404.4</ele>
        <time>2013-03-25T10:51:49Z</time>
      </trkpt>
      <trkpt lat="-21.20409" lon="55.65927">
        <ele>2403.9</ele>
        <time>2013-03-25T10:51:56Z</time>
      </trkpt>
      <trkpt lat="-21.20409" lon="55.65928">
        <ele>2404</ele>
        <time>2013-03-25T10:51:57Z</time>
      </trkpt>
      <trkpt lat="-21.20397" lon="55.65941">
        <ele>2403</ele>
        <time>2013-03-25T10:52:15Z</time>
      </trkpt>
      <trkpt lat="-21.20391" lon="55.65947">
        <ele>2403.8</ele>
        <time>2013-03-25T10:52:25Z</time>
      </trkpt>
      <trkpt lat="-21.20388" lon="55.65955">
        <ele>2404.5</ele>
        <time>2013-03-25T10:52:32Z</time>
      </trkpt>
      <trkpt lat="-21.20382" lon="55.65962">
        <ele>2405.4</ele>
        <time>2013-03-25T10:52:38Z</time>
      </trkpt>
      <trkpt lat="-21.20374" lon="55.65963">
        <ele>2405.9</ele>
        <time>2013-03-25T10:52:44Z</time>
      </trkpt>
      <trkpt lat="-21.20367" lon="55.65967">
        <ele>2406.7</ele>
        <time>2013-03-25T10:52:52Z</time>
      </trkpt>
      <trkpt lat="-21.20359" lon="55.65973">
        <ele>2407.5</ele>
        <time>2013-03-25T10:53:01Z</time>
      </trkpt>
      <trkpt lat="-21.20359" lon="55.65973">
        <ele>2407.3</ele>
        <time>2013-03-25T10:53:02Z</time>
      </trkpt>
      <trkpt lat="-21.20349" lon="55.65988">
        <ele>2410.8</ele>
        <time>2013-03-25T10:53:26Z</time>
      </trkpt>
      <trkpt lat="-21.20346" lon="55.65997">
        <ele>2413.1</ele>
        <time>2013-03-25T10:53:39Z</time>
      </trkpt>
      <trkpt lat="-21.20343" lon="55.66005">
        <ele>2414.6</ele>
        <time>2013-03-25T10:53:50Z</time>
      </trkpt>
      <trkpt lat="-21.2034" lon="55.66014">
        <ele>2416.2</ele>
        <time>2013-03-25T10:54:02Z</time>
      </trkpt>
      <trkpt lat="-21.2034" lon="55.66015">
        <ele>2416.2</ele>
        <time>2013-03-25T10:54:03Z</time>
      </trkpt>
      <trkpt lat="-21.20337" lon="55.66033">
        <ele>2421.6</ele>
        <time>2013-03-25T10:54:36Z</time>
      </trkpt>
      <trkpt lat="-21.20337" lon="55.66042">
        <ele>2423.8</ele>
        <time>2013-03-25T10:54:57Z</time>
      </trkpt>
      <trkpt lat="-21.20333" lon="55.66051">
        <ele>2427.3</ele>
        <time>2013-03-25T10:55:15Z</time>
      </trkpt>
      <trkpt lat="-21.20333" lon="55.66051">
        <ele>2427.5</ele>
        <time>2013-03-25T10:55:16Z</time>
      </trkpt>
      <trkpt lat="-21.20322" lon="55.66064">
        <ele>2427.9</ele>
        <time>2013-03-25T10:55:36Z</time>
      </trkpt>
      <trkpt lat="-21.2032" lon="55.66073">
        <ele>2426.9</ele>
        <time>2013-03-25T10:55:47Z</time>
      </trkpt>
      <trkpt lat="-21.20316" lon="55.66081">
        <ele>2426.1</ele>
        <time>2013-03-25T10:55:54Z</time>
      </trkpt>
      <trkpt lat="-21.20313" lon="55.66089">
        <ele>2424.4</ele>
        <time>2013-03-25T10:56:07Z</time>
      </trkpt>
      <trkpt lat="-21.20309" lon="55.66097">
        <ele>2421.2</ele>
        <time>2013-03-25T10:56:17Z</time>
      </trkpt>
      <trkpt lat="-21.20309" lon="55.66098">
        <ele>2420.6</ele>
        <time>2013-03-25T10:56:18Z</time>
      </trkpt>
      <trkpt lat="-21.20304" lon="55.66113">
        <ele>2417.5</ele>
        <time>2013-03-25T10:56:33Z</time>
      </trkpt>
      <trkpt lat="-21.20298" lon="55.66118">
        <ele>2417</ele>
        <time>2013-03-25T10:56:39Z</time>
      </trkpt>
      <trkpt lat="-21.2029" lon="55.66122">
        <ele>2415.6</ele>
        <time>2013-03-25T10:56:47Z</time>
      </trkpt>
      <trkpt lat="-21.20287" lon="55.6613">
        <ele>2413.6</ele>
        <time>2013-03-25T10:56:55Z</time>
      </trkpt>
      <trkpt lat="-21.2028" lon="55.66134">
        <ele>2412.8</ele>
        <time>2013-03-25T10:57:04Z</time>
      </trkpt>
      <trkpt lat="-21.20271" lon="55.66136">
        <ele>2410.7</ele>
        <time>2013-03-25T10:57:11Z</time>
      </trkpt>
      <trkpt lat="-21.20264" lon="55.6614">
        <ele>2409.1</ele>
        <time>2013-03-25T10:57:18Z</time>
      </trkpt>
      <trkpt lat="-21.20263" lon="55.66141">
        <ele>2409.3</ele>
        <time>2013-03-25T10:57:19Z</time>
      </trkpt>
      <trkpt lat="-21.20254" lon="55.66154">
        <ele>2407</ele>
        <time>2013-03-25T10:57:31Z</time>
      </trkpt>
      <trkpt lat="-21.20251" lon="55.66163">
        <ele>2405.4</ele>
        <time>2013-03-25T10:57:39Z</time>
      </trkpt>
      <trkpt lat="-21.20248" lon="55.6617">
        <ele>2404.5</ele>
        <time>2013-03-25T10:57:45Z</time>
      </trkpt>
      <trkpt lat="-21.20243" lon="55.66177">
        <ele>2403.1</ele>
        <time>2013-03-25T10:57:52Z</time>
      </trkpt>
      <trkpt lat="-21.20239" lon="55.66185">
        <ele>2401.5</ele>
        <time>2013-03-25T10:57:59Z</time>
      </trkpt>
      <trkpt lat="-21.20231" lon="55.66188">
        <ele>2401.3</ele>
        <time>2013-03-25T10:58:07Z</time>
      </trkpt>
      <trkpt lat="-21.20223" lon="55.66191">
        <ele>2399.6</ele>
        <time>2013-03-25T10:58:14Z</time>
      </trkpt>
      <trkpt lat="-21.20215" lon="55.66194">
        <ele>2398.4</ele>
        <time>2013-03-25T10:58:20Z</time>
      </trkpt>
      <trkpt lat="-21.20214" lon="55.66194">
        <ele>2398.5</ele>
        <time>2013-03-25T10:58:21Z</time>
      </trkpt>
      <trkpt lat="-21.20201" lon="55.66202">
        <ele>2396.4</ele>
        <time>2013-03-25T10:58:34Z</time>
      </trkpt>
      <trkpt lat="-21.20193" lon="55.66206">
        <ele>2396.4</ele>
        <time>2013-03-25T10:58:40Z</time>
      </trkpt>
      <trkpt lat="-21.20189" lon="55.66214">
        <ele>2395.9</ele>
        <time>2013-03-25T10:58:48Z</time>
      </trkpt>
      <trkpt lat="-21.20182" lon="55.66218">
        <ele>2395.2</ele>
        <time>2013-03-25T10:58:54Z</time>
      </trkpt>
      <trkpt lat="-21.20175" lon="55.66224">
        <ele>2394</ele>
        <time>2013-03-25T10:59:03Z</time>
      </trkpt>
      <trkpt lat="-21.20169" lon="55.6623">
        <ele>2392.6</ele>
        <time>2013-03-25T10:59:11Z</time>
      </trkpt>
      <trkpt lat="-21.20165" lon="55.66238">
        <ele>2390.5</ele>
        <time>2013-03-25T10:59:19Z</time>
      </trkpt>
      <trkpt lat="-21.2016" lon="55.66247">
        <ele>2389.4</ele>
        <time>2013-03-25T10:59:26Z</time>
      </trkpt>
      <trkpt lat="-21.2016" lon="55.66248">
        <ele>2389</ele>
        <time>2013-03-25T10:59:27Z</time>
      </trkpt>
      <trkpt lat="-21.20152" lon="55.66263">
        <ele>2387.1</ele>
        <time>2013-03-25T10:59:38Z</time>
      </trkpt>
      <trkpt lat="-21.20146" lon="55.66269">
        <ele>2387.6</ele>
        <time>2013-03-25T10:59:44Z</time>
      </trkpt>
      <trkpt lat="-21.20141" lon="55.66277">
        <ele>2386.6</ele>
        <time>2013-03-25T10:59:49Z</time>
      </trkpt>
      <trkpt lat="-21.20136" lon="55.66283">
        <ele>2387.8</ele>
        <time>2013-03-25T10:59:54Z</time>
      </trkpt>
      <trkpt lat="-21.20131" lon="55.66291">
        <ele>2387.1</ele>
        <time>2013-03-25T11:00:00Z</time>
      </trkpt>
      <trkpt lat="-21.20126" lon="55.66299">
        <ele>2387.2</ele>
        <time>2013-03-25T11:00:06Z</time>
      </trkpt>
      <trkpt lat="-21.20122" lon="55.66307">
        <ele>2387.6</ele>
        <time>2013-03-25T11:00:12Z</time>
      </trkpt>
      <trkpt lat="-21.20118" lon="55.66313">
        <ele>2386.8</ele>
        <time>2013-03-25T11:00:17Z</time>
      </trkpt>
      <trkpt lat="-21.20113" lon="55.66322">
        <ele>2386.6</ele>
        <time>2013-03-25T11:00:23Z</time>
      </trkpt>
      <trkpt lat="-21.20112" lon="55.66331">
        <ele>2386.8</ele>
        <time>2013-03-25T11:00:29Z</time>
      </trkpt>
      <trkpt lat="-21.20111" lon="55.66332">
        <ele>2386.9</ele>
        <time>2013-03-25T11:00:30Z</time>
      </trkpt>
      <trkpt lat="-21.20104" lon="55.66346">
        <ele>2387</ele>
        <time>2013-03-25T11:00:41Z</time>
      </trkpt>
      <trkpt lat="-21.20102" lon="55.66354">
        <ele>2386.8</ele>
        <time>2013-03-25T11:00:47Z</time>
      </trkpt>
      <trkpt lat="-21.20098" lon="55.66362">
        <ele>2387.3</ele>
        <time>2013-03-25T11:00:53Z</time>
      </trkpt>
      <trkpt lat="-21.20096" lon="55.66371">
        <ele>2387</ele>
        <time>2013-03-25T11:00:59Z</time>
      </trkpt>
      <trkpt lat="-21.20094" lon="55.66379">
        <ele>2386.9</ele>
        <time>2013-03-25T11:01:04Z</time>
      </trkpt>
      <trkpt lat="-21.20095" lon="55.66388">
        <ele>2386.8</ele>
        <time>2013-03-25T11:01:11Z</time>
      </trkpt>
      <trkpt lat="-21.20095" lon="55.66397">
        <ele>2387</ele>
        <time>2013-03-25T11:01:18Z</time>
      </trkpt>
      <trkpt lat="-21.20091" lon="55.66405">
        <ele>2387</ele>
        <time>2013-03-25T11:01:24Z</time>
      </trkpt>
      <trkpt lat="-21.20091" lon="55.66415">
        <ele>2387.5</ele>
        <time>2013-03-25T11:01:33Z</time>
      </trkpt>
      <trkpt lat="-21.20091" lon="55.66415">
        <ele>2387.5</ele>
        <time>2013-03-25T11:01:34Z</time>
      </trkpt>
      <trkpt lat="-21.20102" lon="55.66428">
        <ele>2390.5</ele>
        <time>2013-03-25T11:01:52Z</time>
      </trkpt>
      <trkpt lat="-21.20098" lon="55.66437">
        <ele>2390.2</ele>
        <time>2013-03-25T11:01:59Z</time>
      </trkpt>
      <trkpt lat="-21.20092" lon="55.66444">
        <ele>2389.9</ele>
        <time>2013-03-25T11:02:06Z</time>
      </trkpt>
      <trkpt lat="-21.20088" lon="55.66451">
        <ele>2390.4</ele>
        <time>2013-03-25T11:02:13Z</time>
      </trkpt>
      <trkpt lat="-21.20081" lon="55.66456">
        <ele>2390.2</ele>
        <time>2013-03-25T11:02:19Z</time>
      </trkpt>
      <trkpt lat="-21.20073" lon="55.66459">
        <ele>2389.3</ele>
        <time>2013-03-25T11:02:25Z</time>
      </trkpt>
      <trkpt lat="-21.20065" lon="55.66461">
        <ele>2390.1</ele>
        <time>2013-03-25T11:02:31Z</time>
      </trkpt>
      <trkpt lat="-21.20058" lon="55.66465">
        <ele>2388.8</ele>
        <time>2013-03-25T11:02:37Z</time>
      </trkpt>
      <trkpt lat="-21.20056" lon="55.66465">
        <ele>2388.9</ele>
        <time>2013-03-25T11:02:38Z</time>
      </trkpt>
      <trkpt lat="-21.20041" lon="55.66471">
        <ele>2388.5</ele>
        <time>2013-03-25T11:02:50Z</time>
      </trkpt>
      <trkpt lat="-21.20035" lon="55.66477">
        <ele>2386.8</ele>
        <time>2013-03-25T11:02:56Z</time>
      </trkpt>
      <trkpt lat="-21.20027" lon="55.66481">
        <ele>2387</ele>
        <time>2013-03-25T11:03:02Z</time>
      </trkpt>
      <trkpt lat="-21.20019" lon="55.66483">
        <ele>2386.7</ele>
        <time>2013-03-25T11:03:09Z</time>
      </trkpt>
      <trkpt lat="-21.20016" lon="55.66492">
        <ele>2387.8</ele>
        <time>2013-03-25T11:03:16Z</time>
      </trkpt>
      <trkpt lat="-21.2001" lon="55.66497">
        <ele>2386.8</ele>
        <time>2013-03-25T11:03:22Z</time>
      </trkpt>
      <trkpt lat="-21.20003" lon="55.66501">
        <ele>2387.3</ele>
        <time>2013-03-25T11:03:27Z</time>
      </trkpt>
      <trkpt lat="-21.19995" lon="55.66506">
        <ele>2387.6</ele>
        <time>2013-03-25T11:03:33Z</time>
      </trkpt>
      <trkpt lat="-21.19988" lon="55.66507">
        <ele>2388</ele>
        <time>2013-03-25T11:03:38Z</time>
      </trkpt>
      <trkpt lat="-21.19986" lon="55.66507">
        <ele>2388.1</ele>
        <time>2013-03-25T11:03:39Z</time>
      </trkpt>
      <trkpt lat="-21.19973" lon="55.66513">
        <ele>2387.4</ele>
        <time>2013-03-25T11:03:49Z</time>
      </trkpt>
      <trkpt lat="-21.19967" lon="55.6652">
        <ele>2386.3</ele>
        <time>2013-03-25T11:03:55Z</time>
      </trkpt>
      <trkpt lat="-21.1996" lon="55.66524">
        <ele>2385.6</ele>
        <time>2013-03-25T11:04:01Z</time>
      </trkpt>
      <trkpt lat="-21.19954" lon="55.6653">
        <ele>2385.5</ele>
        <time>2013-03-25T11:04:08Z</time>
      </trkpt>
      <trkpt lat="-21.19947" lon="55.66536">
        <ele>2384.6</ele>
        <time>2013-03-25T11:04:14Z</time>
      </trkpt>
      <trkpt lat="-21.19939" lon="55.66539">
        <ele>2383.4</ele>
        <time>2013-03-25T11:04:20Z</time>
      </trkpt>
      <trkpt lat="-21.19933" lon="55.66545">
        <ele>2382.7</ele>
        <time>2013-03-25T11:04:26Z</time>
      </trkpt>
      <trkpt lat="-21.19925" lon="55.66548">
        <ele>2382.6</ele>
        <time>2013-03-25T11:04:32Z</time>
      </trkpt>
      <trkpt lat="-21.19916" lon="55.6655">
        <ele>2382</ele>
        <time>2013-03-25T11:04:38Z</time>
      </trkpt>
      <trkpt lat="-21.19909" lon="55.66555">
        <ele>2380.1</ele>
        <time>2013-03-25T11:04:47Z</time>
      </trkpt>
      <trkpt lat="-21.19908" lon="55.66556">
        <ele>2379.9</ele>
        <time>2013-03-25T11:04:48Z</time>
      </trkpt>
      <trkpt lat="-21.199" lon="55.6657">
        <ele>2375.6</ele>
        <time>2013-03-25T11:05:04Z</time>
      </trkpt>
      <trkpt lat="-21.19896" lon="55.66578">
        <ele>2374.8</ele>
        <time>2013-03-25T11:05:10Z</time>
      </trkpt>
      <trkpt lat="-21.19896" lon="55.66587">
        <ele>2375.5</ele>
        <time>2013-03-25T11:05:17Z</time>
      </trkpt>
      <trkpt lat="-21.19893" lon="55.66595">
        <ele>2374.9</ele>
        <time>2013-03-25T11:05:25Z</time>
      </trkpt>
      <trkpt lat="-21.19888" lon="55.66602">
        <ele>2373.5</ele>
        <time>2013-03-25T11:05:34Z</time>
      </trkpt>
      <trkpt lat="-21.19881" lon="55.66608">
        <ele>2369.1</ele>
        <time>2013-03-25T11:05:48Z</time>
      </trkpt>
      <trkpt lat="-21.1988" lon="55.66609">
        <ele>2369</ele>
        <time>2013-03-25T11:05:49Z</time>
      </trkpt>
      <trkpt lat="-21.19868" lon="55.6662">
        <ele>2366.2</ele>
        <time>2013-03-25T11:06:03Z</time>
      </trkpt>
      <trkpt lat="-21.19861" lon="55.66627">
        <ele>2365.6</ele>
        <time>2013-03-25T11:06:12Z</time>
      </trkpt>
      <trkpt lat="-21.19856" lon="55.66633">
        <ele>2365.1</ele>
        <time>2013-03-25T11:06:19Z</time>
      </trkpt>
      <trkpt lat="-21.19847" lon="55.66636">
        <ele>2364.3</ele>
        <time>2013-03-25T11:06:24Z</time>
      </trkpt>
      <trkpt lat="-21.19842" lon="55.66641">
        <ele>2363.8</ele>
        <time>2013-03-25T11:06:29Z</time>
      </trkpt>
      <trkpt lat="-21.19837" lon="55.66649">
        <ele>2363.2</ele>
        <time>2013-03-25T11:06:35Z</time>
      </trkpt>
      <trkpt lat="-21.19836" lon="55.66658">
        <ele>2362.7</ele>
        <time>2013-03-25T11:06:42Z</time>
      </trkpt>
      <trkpt lat="-21.19831" lon="55.66666">
        <ele>2364.8</ele>
        <time>2013-03-25T11:06:53Z</time>
      </trkpt>
      <trkpt lat="-21.19831" lon="55.66667">
        <ele>2365.1</ele>
        <time>2013-03-25T11:06:54Z</time>
      </trkpt>
      <trkpt lat="-21.1982" lon="55.66679">
        <ele>2368</ele>
        <time>2013-03-25T11:07:15Z</time>
      </trkpt>
      <trkpt lat="-21.19812" lon="55.6668">
        <ele>2370.3</ele>
        <time>2013-03-25T11:07:26Z</time>
      </trkpt>
      <trkpt lat="-21.19804" lon="55.66684">
        <ele>2371.2</ele>
        <time>2013-03-25T11:07:38Z</time>
      </trkpt>
      <trkpt lat="-21.19796" lon="55.66687">
        <ele>2373.3</ele>
        <time>2013-03-25T11:07:51Z</time>
      </trkpt>
      <trkpt lat="-21.19787" lon="55.66689">
        <ele>2375.2</ele>
        <time>2013-03-25T11:08:06Z</time>
      </trkpt>
      <trkpt lat="-21.19786" lon="55.66689">
        <ele>2375.7</ele>
        <time>2013-03-25T11:08:07Z</time>
      </trkpt>
      <trkpt lat="-21.19778" lon="55.66705">
        <ele>2379.8</ele>
        <time>2013-03-25T11:08:38Z</time>
      </trkpt>
      <trkpt lat="-21.19776" lon="55.66713">
        <ele>2381.3</ele>
        <time>2013-03-25T11:08:49Z</time>
      </trkpt>
      <trkpt lat="-21.19769" lon="55.66718">
        <ele>2382.5</ele>
        <time>2013-03-25T11:08:59Z</time>
      </trkpt>
      <trkpt lat="-21.19764" lon="55.66726">
        <ele>2384.2</ele>
        <time>2013-03-25T11:09:12Z</time>
      </trkpt>
      <trkpt lat="-21.19764" lon="55.66726">
        <ele>2384.1</ele>
        <time>2013-03-25T11:09:13Z</time>
      </trkpt>
      <trkpt lat="-21.19755" lon="55.6674">
        <ele>2386.1</ele>
        <time>2013-03-25T11:09:38Z</time>
      </trkpt>
      <trkpt lat="-21.19749" lon="55.66746">
        <ele>2387</ele>
        <time>2013-03-25T11:09:46Z</time>
      </trkpt>
      <trkpt lat="-21.19744" lon="55.66754">
        <ele>2388.9</ele>
        <time>2013-03-25T11:10:01Z</time>
      </trkpt>
      <trkpt lat="-21.19738" lon="55.6676">
        <ele>2390.7</ele>
        <time>2013-03-25T11:10:13Z</time>
      </trkpt>
      <trkpt lat="-21.19737" lon="55.66761">
        <ele>2390.4</ele>
        <time>2013-03-25T11:10:14Z</time>
      </trkpt>
      <trkpt lat="-21.19728" lon="55.66774">
        <ele>2393.2</ele>
        <time>2013-03-25T11:10:34Z</time>
      </trkpt>
      <trkpt lat="-21.19723" lon="55.66782">
        <ele>2392.8</ele>
        <time>2013-03-25T11:10:45Z</time>
      </trkpt>
      <trkpt lat="-21.19719" lon="55.66789">
        <ele>2391.4</ele>
        <time>2013-03-25T11:10:53Z</time>
      </trkpt>
      <trkpt lat="-21.19713" lon="55.66795">
        <ele>2391.1</ele>
        <time>2013-03-25T11:11:00Z</time>
      </trkpt>
      <trkpt lat="-21.19705" lon="55.66799">
        <ele>2392.1</ele>
        <time>2013-03-25T11:11:10Z</time>
      </trkpt>
      <trkpt lat="-21.19696" lon="55.66799">
        <ele>2392.4</ele>
        <time>2013-03-25T11:11:16Z</time>
      </trkpt>
      <trkpt lat="-21.19694" lon="55.66799">
        <ele>2392.4</ele>
        <time>2013-03-25T11:11:17Z</time>
      </trkpt>
      <trkpt lat="-21.19681" lon="55.66808">
        <ele>2391.4</ele>
        <time>2013-03-25T11:11:30Z</time>
      </trkpt>
      <trkpt lat="-21.19676" lon="55.66815">
        <ele>2390.8</ele>
        <time>2013-03-25T11:11:37Z</time>
      </trkpt>
      <trkpt lat="-21.1967" lon="55.66822">
        <ele>2390.2</ele>
        <time>2013-03-25T11:11:43Z</time>
      </trkpt>
      <trkpt lat="-21.19664" lon="55.66828">
        <ele>2388.9</ele>
        <time>2013-03-25T11:11:50Z</time>
      </trkpt>
      <trkpt lat="-21.19656" lon="55.66832">
        <ele>2387.7</ele>
        <time>2013-03-25T11:11:58Z</time>
      </trkpt>
      <trkpt lat="-21.19652" lon="55.6684">
        <ele>2385.1</ele>
        <time>2013-03-25T11:12:06Z</time>
      </trkpt>
      <trkpt lat="-21.19648" lon="55.66848">
        <ele>2383.9</ele>
        <time>2013-03-25T11:12:13Z</time>
      </trkpt>
      <trkpt lat="-21.19643" lon="55.66855">
        <ele>2381.3</ele>
        <time>2013-03-25T11:12:22Z</time>
      </trkpt>
      <trkpt lat="-21.19642" lon="55.66856">
        <ele>2381.3</ele>
        <time>2013-03-25T11:12:23Z</time>
      </trkpt>
      <trkpt lat="-21.19641" lon="55.66872">
        <ele>2379.6</ele>
        <time>2013-03-25T11:12:41Z</time>
      </trkpt>
      <trkpt lat="-21.19635" lon="55.66879">
        <ele>2379.2</ele>
        <time>2013-03-25T11:12:49Z</time>
      </trkpt>
      <trkpt lat="-21.1963" lon="55.66886">
        <ele>2377.5</ele>
        <time>2013-03-25T11:12:55Z</time>
      </trkpt>
      <trkpt lat="-21.19629" lon="55.66894">
        <ele>2378.2</ele>
        <time>2013-03-25T11:13:02Z</time>
      </trkpt>
      <trkpt lat="-21.19628" lon="55.66904">
        <ele>2379</ele>
        <time>2013-03-25T11:13:10Z</time>
      </trkpt>
      <trkpt lat="-21.19625" lon="55.66913">
        <ele>2380.2</ele>
        <time>2013-03-25T11:13:17Z</time>
      </trkpt>
      <trkpt lat="-21.19623" lon="55.66921">
        <ele>2381.4</ele>
        <time>2013-03-25T11:13:23Z</time>
      </trkpt>
      <trkpt lat="-21.19622" lon="55.66922">
        <ele>2381.2</ele>
        <time>2013-03-25T11:13:24Z</time>
      </trkpt>
      <trkpt lat="-21.19617" lon="55.66937">
        <ele>2380.5</ele>
        <time>2013-03-25T11:13:37Z</time>
      </trkpt>
      <trkpt lat="-21.19615" lon="55.66947">
        <ele>2380.7</ele>
        <time>2013-03-25T11:13:46Z</time>
      </trkpt>
      <trkpt lat="-21.19613" lon="55.66955">
        <ele>2379.7</ele>
        <time>2013-03-25T11:13:54Z</time>
      </trkpt>
      <trkpt lat="-21.19608" lon="55.66963">
        <ele>2379.3</ele>
        <time>2013-03-25T11:14:01Z</time>
      </trkpt>
      <trkpt lat="-21.19605" lon="55.66972">
        <ele>2378</ele>
        <time>2013-03-25T11:14:09Z</time>
      </trkpt>
      <trkpt lat="-21.19602" lon="55.66981">
        <ele>2378.9</ele>
        <time>2013-03-25T11:14:18Z</time>
      </trkpt>
      <trkpt lat="-21.19602" lon="55.6699">
        <ele>2380</ele>
        <time>2013-03-25T11:14:59Z</time>
      </trkpt>
      <trkpt lat="-21.19601" lon="55.66991">
        <ele>2380.1</ele>
        <time>2013-03-25T11:15:00Z</time>
      </trkpt>
      <trkpt lat="-21.19596" lon="55.67006">
        <ele>2378.1</ele>
        <time>2013-03-25T11:15:13Z</time>
      </trkpt>
      <trkpt lat="-21.1959" lon="55.67012">
        <ele>2375.8</ele>
        <time>2013-03-25T11:15:23Z</time>
      </trkpt>
      <trkpt lat="-21.19585" lon="55.6702">
        <ele>2373.1</ele>
        <time>2013-03-25T11:15:33Z</time>
      </trkpt>
      <trkpt lat="-21.19578" lon="55.67025">
        <ele>2369.8</ele>
        <time>2013-03-25T11:15:43Z</time>
      </trkpt>
      <trkpt lat="-21.19572" lon="55.67032">
        <ele>2367.7</ele>
        <time>2013-03-25T11:15:51Z</time>
      </trkpt>
      <trkpt lat="-21.19564" lon="55.67034">
        <ele>2365.6</ele>
        <time>2013-03-25T11:15:59Z</time>
      </trkpt>
      <trkpt lat="-21.19556" lon="55.67033">
        <ele>2364.6</ele>
        <time>2013-03-25T11:16:06Z</time>
      </trkpt>
      <trkpt lat="-21.19555" lon="55.67033">
        <ele>2364.8</ele>
        <time>2013-03-25T11:16:07Z</time>
      </trkpt>
      <trkpt lat="-21.1954" lon="55.67036">
        <ele>2362.2</ele>
        <time>2013-03-25T11:16:19Z</time>
      </trkpt>
      <trkpt lat="-21.19532" lon="55.67038">
        <ele>2360.6</ele>
        <time>2013-03-25T11:16:26Z</time>
      </trkpt>
      <trkpt lat="-21.19523" lon="55.67039">
        <ele>2360</ele>
        <time>2013-03-25T11:16:33Z</time>
      </trkpt>
      <trkpt lat="-21.19516" lon="55.67042">
        <ele>2358</ele>
        <time>2013-03-25T11:16:39Z</time>
      </trkpt>
      <trkpt lat="-21.19509" lon="55.67046">
        <ele>2355.5</ele>
        <time>2013-03-25T11:16:48Z</time>
      </trkpt>
      <trkpt lat="-21.19502" lon="55.67053">
        <ele>2351.7</ele>
        <time>2013-03-25T11:16:57Z</time>
      </trkpt>
      <trkpt lat="-21.19494" lon="55.67052">
        <ele>2349.4</ele>
        <time>2013-03-25T11:17:07Z</time>
      </trkpt>
      <trkpt lat="-21.19493" lon="55.67052">
        <ele>2349</ele>
        <time>2013-03-25T11:17:08Z</time>
      </trkpt>
      <trkpt lat="-21.19478" lon="55.67054">
        <ele>2344.8</ele>
        <time>2013-03-25T11:17:26Z</time>
      </trkpt>
      <trkpt lat="-21.19475" lon="55.67062">
        <ele>2342.9</ele>
        <time>2013-03-25T11:17:34Z</time>
      </trkpt>
      <trkpt lat="-21.19476" lon="55.67071">
        <ele>2341</ele>
        <time>2013-03-25T11:17:40Z</time>
      </trkpt>
      <trkpt lat="-21.19477" lon="55.6708">
        <ele>2340.4</ele>
        <time>2013-03-25T11:17:48Z</time>
      </trkpt>
      <trkpt lat="-21.19475" lon="55.67088">
        <ele>2338.6</ele>
        <time>2013-03-25T11:17:58Z</time>
      </trkpt>
      <trkpt lat="-21.19473" lon="55.67097">
        <ele>2334.5</ele>
        <time>2013-03-25T11:18:07Z</time>
      </trkpt>
      <trkpt lat="-21.19468" lon="55.67104">
        <ele>2333</ele>
        <time>2013-03-25T11:18:17Z</time>
      </trkpt>
      <trkpt lat="-21.19468" lon="55.67105">
        <ele>2332.3</ele>
        <time>2013-03-25T11:18:18Z</time>
      </trkpt>
      <trkpt lat="-21.19464" lon="55.67121">
        <ele>2327.7</ele>
        <time>2013-03-25T11:18:34Z</time>
      </trkpt>
      <trkpt lat="-21.19462" lon="55.6713">
        <ele>2325.9</ele>
        <time>2013-03-25T11:18:42Z</time>
      </trkpt>
      <trkpt lat="-21.19465" lon="55.67138">
        <ele>2325.8</ele>
        <time>2013-03-25T11:18:50Z</time>
      </trkpt>
      <trkpt lat="-21.19462" lon="55.67146">
        <ele>2324.6</ele>
        <time>2013-03-25T11:18:57Z</time>
      </trkpt>
      <trkpt lat="-21.19456" lon="55.67152">
        <ele>2323.5</ele>
        <time>2013-03-25T11:19:04Z</time>
      </trkpt>
      <trkpt lat="-21.1945" lon="55.67157">
        <ele>2324.3</ele>
        <time>2013-03-25T11:19:10Z</time>
      </trkpt>
      <trkpt lat="-21.19443" lon="55.67162">
        <ele>2322.4</ele>
        <time>2013-03-25T11:19:16Z</time>
      </trkpt>
      <trkpt lat="-21.19436" lon="55.67167">
        <ele>2321</ele>
        <time>2013-03-25T11:19:24Z</time>
      </trkpt>
      <trkpt lat="-21.19435" lon="55.67167">
        <ele>2320.9</ele>
        <time>2013-03-25T11:19:25Z</time>
      </trkpt>
      <trkpt lat="-21.19431" lon="55.67184">
        <ele>2317.8</ele>
        <time>2013-03-25T11:19:41Z</time>
      </trkpt>
      <trkpt lat="-21.19431" lon="55.67194">
        <ele>2314.2</ele>
        <time>2013-03-25T11:19:50Z</time>
      </trkpt>
      <trkpt lat="-21.19431" lon="55.67203">
        <ele>2311.8</ele>
        <time>2013-03-25T11:19:58Z</time>
      </trkpt>
      <trkpt lat="-21.19431" lon="55.67212">
        <ele>2310.3</ele>
        <time>2013-03-25T11:20:06Z</time>
      </trkpt>
      <trkpt lat="-21.19425" lon="55.67219">
        <ele>2307.9</ele>
        <time>2013-03-25T11:20:14Z</time>
      </trkpt>
      <trkpt lat="-21.1942" lon="55.67226">
        <ele>2306.8</ele>
        <time>2013-03-25T11:20:21Z</time>
      </trkpt>
      <trkpt lat="-21.19417" lon="55.67234">
        <ele>2305.8</ele>
        <time>2013-03-25T11:20:27Z</time>
      </trkpt>
      <trkpt lat="-21.19417" lon="55.67235">
        <ele>2305.5</ele>
        <time>2013-03-25T11:20:28Z</time>
      </trkpt>
      <trkpt lat="-21.19404" lon="55.67241">
        <ele>2302</ele>
        <time>2013-03-25T11:20:45Z</time>
      </trkpt>
      <trkpt lat="-21.19396" lon="55.67243">
        <ele>2298.5</ele>
        <time>2013-03-25T11:20:57Z</time>
      </trkpt>
      <trkpt lat="-21.19387" lon="55.67244">
        <ele>2296.2</ele>
        <time>2013-03-25T11:21:06Z</time>
      </trkpt>
      <trkpt lat="-21.19379" lon="55.67246">
        <ele>2293.2</ele>
        <time>2013-03-25T11:21:13Z</time>
      </trkpt>
      <trkpt lat="-21.19372" lon="55.67251">
        <ele>2292.1</ele>
        <time>2013-03-25T11:21:20Z</time>
      </trkpt>
      <trkpt lat="-21.19369" lon="55.6726">
        <ele>2290.3</ele>
        <time>2013-03-25T11:21:29Z</time>
      </trkpt>
      <trkpt lat="-21.19369" lon="55.67261">
        <ele>2290.3</ele>
        <time>2013-03-25T11:21:30Z</time>
      </trkpt>
      <trkpt lat="-21.19367" lon="55.67277">
        <ele>2286.5</ele>
        <time>2013-03-25T11:21:44Z</time>
      </trkpt>
      <trkpt lat="-21.1936" lon="55.67282">
        <ele>2284</ele>
        <time>2013-03-25T11:21:52Z</time>
      </trkpt>
      <trkpt lat="-21.19351" lon="55.67282">
        <ele>2282.2</ele>
        <time>2013-03-25T11:22:00Z</time>
      </trkpt>
      <trkpt lat="-21.19343" lon="55.67282">
        <ele>2279.8</ele>
        <time>2013-03-25T11:22:08Z</time>
      </trkpt>
      <trkpt lat="-21.19335" lon="55.67282">
        <ele>2278</ele>
        <time>2013-03-25T11:22:18Z</time>
      </trkpt>
      <trkpt lat="-21.19327" lon="55.67287">
        <ele>2275.5</ele>
        <time>2013-03-25T11:22:27Z</time>
      </trkpt>
      <trkpt lat="-21.1932" lon="55.67289">
        <ele>2273.9</ele>
        <time>2013-03-25T11:22:34Z</time>
      </trkpt>
      <trkpt lat="-21.19318" lon="55.67289">
        <ele>2273.4</ele>
        <time>2013-03-25T11:22:35Z</time>
      </trkpt>
      <trkpt lat="-21.19309" lon="55.67301">
        <ele>2269.9</ele>
        <time>2013-03-25T11:22:48Z</time>
      </trkpt>
      <trkpt lat="-21.19302" lon="55.67306">
        <ele>2268.2</ele>
        <time>2013-03-25T11:22:56Z</time>
      </trkpt>
      <trkpt lat="-21.19294" lon="55.6731">
        <ele>2264.8</ele>
        <time>2013-03-25T11:23:11Z</time>
      </trkpt>
      <trkpt lat="-21.19291" lon="55.67319">
        <ele>2263.2</ele>
        <time>2013-03-25T11:23:20Z</time>
      </trkpt>
      <trkpt lat="-21.19288" lon="55.67327">
        <ele>2262</ele>
        <time>2013-03-25T11:23:28Z</time>
      </trkpt>
      <trkpt lat="-21.19284" lon="55.67335">
        <ele>2259.6</ele>
        <time>2013-03-25T11:23:36Z</time>
      </trkpt>
      <trkpt lat="-21.19284" lon="55.67336">
        <ele>2259.2</ele>
        <time>2013-03-25T11:23:37Z</time>
      </trkpt>
      <trkpt lat="-21.19274" lon="55.67349">
        <ele>2255.9</ele>
        <time>2013-03-25T11:23:53Z</time>
      </trkpt>
      <trkpt lat="-21.19266" lon="55.67354">
        <ele>2254.1</ele>
        <time>2013-03-25T11:24:06Z</time>
      </trkpt>
      <trkpt lat="-21.19261" lon="55.67361">
        <ele>2251.8</ele>
        <time>2013-03-25T11:24:14Z</time>
      </trkpt>
      <trkpt lat="-21.19258" lon="55.6737">
        <ele>2249.5</ele>
        <time>2013-03-25T11:24:24Z</time>
      </trkpt>
      <trkpt lat="-21.19254" lon="55.67377">
        <ele>2249.1</ele>
        <time>2013-03-25T11:24:30Z</time>
      </trkpt>
      <trkpt lat="-21.19251" lon="55.67386">
        <ele>2247.6</ele>
        <time>2013-03-25T11:24:37Z</time>
      </trkpt>
      <trkpt lat="-21.19251" lon="55.67387">
        <ele>2247.1</ele>
        <time>2013-03-25T11:24:38Z</time>
      </trkpt>
      <trkpt lat="-21.19245" lon="55.67402">
        <ele>2246.7</ele>
        <time>2013-03-25T11:24:52Z</time>
      </trkpt>
      <trkpt lat="-21.19241" lon="55.67411">
        <ele>2244.8</ele>
        <time>2013-03-25T11:25:01Z</time>
      </trkpt>
      <trkpt lat="-21.19234" lon="55.67415">
        <ele>2242.8</ele>
        <time>2013-03-25T11:25:12Z</time>
      </trkpt>
      <trkpt lat="-21.19225" lon="55.67416">
        <ele>2241.4</ele>
        <time>2013-03-25T11:25:20Z</time>
      </trkpt>
      <trkpt lat="-21.19217" lon="55.67415">
        <ele>2238</ele>
        <time>2013-03-25T11:25:31Z</time>
      </trkpt>
      <trkpt lat="-21.19208" lon="55.67417">
        <ele>2235.1</ele>
        <time>2013-03-25T11:25:42Z</time>
      </trkpt>
      <trkpt lat="-21.19208" lon="55.67418">
        <ele>2234.7</ele>
        <time>2013-03-25T11:25:43Z</time>
      </trkpt>
      <trkpt lat="-21.19193" lon="55.67424">
        <ele>2228.8</ele>
        <time>2013-03-25T11:26:02Z</time>
      </trkpt>
      <trkpt lat="-21.19186" lon="55.67429">
        <ele>2226.5</ele>
        <time>2013-03-25T11:26:11Z</time>
      </trkpt>
      <trkpt lat="-21.19178" lon="55.67432">
        <ele>2223.7</ele>
        <time>2013-03-25T11:26:20Z</time>
      </trkpt>
      <trkpt lat="-21.19173" lon="55.67439">
        <ele>2221.6</ele>
        <time>2013-03-25T11:26:28Z</time>
      </trkpt>
      <trkpt lat="-21.19165" lon="55.67442">
        <ele>2218.6</ele>
        <time>2013-03-25T11:26:37Z</time>
      </trkpt>
      <trkpt lat="-21.19157" lon="55.67443">
        <ele>2215.7</ele>
        <time>2013-03-25T11:26:45Z</time>
      </trkpt>
      <trkpt lat="-21.19156" lon="55.67442">
        <ele>2215.9</ele>
        <time>2013-03-25T11:26:46Z</time>
      </trkpt>
      <trkpt lat="-21.19141" lon="55.67444">
        <ele>2211.9</ele>
        <time>2013-03-25T11:27:01Z</time>
      </trkpt>
      <trkpt lat="-21.19134" lon="55.67449">
        <ele>2209.6</ele>
        <time>2013-03-25T11:27:12Z</time>
      </trkpt>
      <trkpt lat="-21.19127" lon="55.67453">
        <ele>2207.6</ele>
        <time>2013-03-25T11:27:20Z</time>
      </trkpt>
      <trkpt lat="-21.19119" lon="55.67452">
        <ele>2205.5</ele>
        <time>2013-03-25T11:27:27Z</time>
      </trkpt>
      <trkpt lat="-21.19111" lon="55.67454">
        <ele>2205.6</ele>
        <time>2013-03-25T11:27:36Z</time>
      </trkpt>
      <trkpt lat="-21.19103" lon="55.67457">
        <ele>2204</ele>
        <time>2013-03-25T11:27:42Z</time>
      </trkpt>
      <trkpt lat="-21.19095" lon="55.67461">
        <ele>2204.2</ele>
        <time>2013-03-25T11:27:48Z</time>
      </trkpt>
      <trkpt lat="-21.19094" lon="55.67461">
        <ele>2204.3</ele>
        <time>2013-03-25T11:27:49Z</time>
      </trkpt>
      <trkpt lat="-21.1908" lon="55.67467">
        <ele>2203.6</ele>
        <time>2013-03-25T11:27:59Z</time>
      </trkpt>
      <trkpt lat="-21.19073" lon="55.6747">
        <ele>2203.2</ele>
        <time>2013-03-25T11:28:04Z</time>
      </trkpt>
      <trkpt lat="-21.19065" lon="55.67473">
        <ele>2203.2</ele>
        <time>2013-03-25T11:28:10Z</time>
      </trkpt>
      <trkpt lat="-21.19058" lon="55.67476">
        <ele>2202.4</ele>
        <time>2013-03-25T11:28:15Z</time>
      </trkpt>
      <trkpt lat="-21.1905" lon="55.67478">
        <ele>2202.3</ele>
        <time>2013-03-25T11:28:21Z</time>
      </trkpt>
      <trkpt lat="-21.19041" lon="55.67479">
        <ele>2201.6</ele>
        <time>2013-03-25T11:28:28Z</time>
      </trkpt>
      <trkpt lat="-21.19034" lon="55.67482">
        <ele>2199.6</ele>
        <time>2013-03-25T11:28:37Z</time>
      </trkpt>
      <trkpt lat="-21.19026" lon="55.67485">
        <ele>2198.5</ele>
        <time>2013-03-25T11:28:44Z</time>
      </trkpt>
      <trkpt lat="-21.19017" lon="55.67486">
        <ele>2198</ele>
        <time>2013-03-25T11:28:54Z</time>
      </trkpt>
      <trkpt lat="-21.19016" lon="55.67486">
        <ele>2198.2</ele>
        <time>2013-03-25T11:28:55Z</time>
      </trkpt>
      <trkpt lat="-21.19" lon="55.67492">
        <ele>2198.6</ele>
        <time>2013-03-25T11:29:07Z</time>
      </trkpt>
      <trkpt lat="-21.18992" lon="55.67496">
        <ele>2198.5</ele>
        <time>2013-03-25T11:29:12Z</time>
      </trkpt>
      <trkpt lat="-21.18984" lon="55.67498">
        <ele>2198.8</ele>
        <time>2013-03-25T11:29:17Z</time>
      </trkpt>
      <trkpt lat="-21.18976" lon="55.67495">
        <ele>2197</ele>
        <time>2013-03-25T11:29:23Z</time>
      </trkpt>
      <trkpt lat="-21.18967" lon="55.67495">
        <ele>2193.8</ele>
        <time>2013-03-25T11:29:33Z</time>
      </trkpt>
      <trkpt lat="-21.18959" lon="55.67491">
        <ele>2191.5</ele>
        <time>2013-03-25T11:29:41Z</time>
      </trkpt>
      <trkpt lat="-21.18952" lon="55.67487">
        <ele>2188.8</ele>
        <time>2013-03-25T11:29:48Z</time>
      </trkpt>
      <trkpt lat="-21.18944" lon="55.67484">
        <ele>2185.3</ele>
        <time>2013-03-25T11:29:58Z</time>
      </trkpt>
      <trkpt lat="-21.18943" lon="55.67483">
        <ele>2185.1</ele>
        <time>2013-03-25T11:29:59Z</time>
      </trkpt>
      <trkpt lat="-21.18932" lon="55.67474">
        <ele>2183.2</ele>
        <time>2013-03-25T11:30:08Z</time>
      </trkpt>
      <trkpt lat="-21.18924" lon="55.67469">
        <ele>2182.3</ele>
        <time>2013-03-25T11:30:14Z</time>
      </trkpt>
      <trkpt lat="-21.18918" lon="55.67464">
        <ele>2181.8</ele>
        <time>2013-03-25T11:30:20Z</time>
      </trkpt>
      <trkpt lat="-21.1891" lon="55.6746">
        <ele>2180.8</ele>
        <time>2013-03-25T11:30:26Z</time>
      </trkpt>
      <trkpt lat="-21.18904" lon="55.67454">
        <ele>2179.6</ele>
        <time>2013-03-25T11:30:32Z</time>
      </trkpt>
      <trkpt lat="-21.18898" lon="55.67448">
        <ele>2180.3</ele>
        <time>2013-03-25T11:30:39Z</time>
      </trkpt>
      <trkpt lat="-21.18889" lon="55.67446">
        <ele>2177.1</ele>
        <time>2013-03-25T11:30:48Z</time>
      </trkpt>
      <trkpt lat="-21.18881" lon="55.67442">
        <ele>2174.8</ele>
        <time>2013-03-25T11:30:55Z</time>
      </trkpt>
      <trkpt lat="-21.18874" lon="55.67438">
        <ele>2174.4</ele>
        <time>2013-03-25T11:31:01Z</time>
      </trkpt>
      <trkpt lat="-21.18873" lon="55.67437">
        <ele>2174.6</ele>
        <time>2013-03-25T11:31:02Z</time>
      </trkpt>
      <trkpt lat="-21.1886" lon="55.6743">
        <ele>2174.6</ele>
        <time>2013-03-25T11:31:12Z</time>
      </trkpt>
      <trkpt lat="-21.18852" lon="55.67425">
        <ele>2172.8</ele>
        <time>2013-03-25T11:31:18Z</time>
      </trkpt>
      <trkpt lat="-21.18845" lon="55.67421">
        <ele>2171.9</ele>
        <time>2013-03-25T11:31:24Z</time>
      </trkpt>
      <trkpt lat="-21.18839" lon="55.67417">
        <ele>2171.8</ele>
        <time>2013-03-25T11:31:30Z</time>
      </trkpt>
      <trkpt lat="-21.18832" lon="55.67411">
        <ele>2172.5</ele>
        <time>2013-03-25T11:31:36Z</time>
      </trkpt>
      <trkpt lat="-21.18826" lon="55.67407">
        <ele>2171.4</ele>
        <time>2013-03-25T11:31:42Z</time>
      </trkpt>
      <trkpt lat="-21.18817" lon="55.67404">
        <ele>2170.9</ele>
        <time>2013-03-25T11:31:48Z</time>
      </trkpt>
      <trkpt lat="-21.18809" lon="55.67399">
        <ele>2170.7</ele>
        <time>2013-03-25T11:31:55Z</time>
      </trkpt>
      <trkpt lat="-21.18802" lon="55.67395">
        <ele>2170</ele>
        <time>2013-03-25T11:32:02Z</time>
      </trkpt>
      <trkpt lat="-21.18801" lon="55.67395">
        <ele>2170.1</ele>
        <time>2013-03-25T11:32:03Z</time>
      </trkpt>
      <trkpt lat="-21.18786" lon="55.67391">
        <ele>2169.5</ele>
        <time>2013-03-25T11:32:17Z</time>
      </trkpt>
      <trkpt lat="-21.18778" lon="55.67389">
        <ele>2167.4</ele>
        <time>2013-03-25T11:32:24Z</time>
      </trkpt>
      <trkpt lat="-21.1877" lon="55.67388">
        <ele>2167.2</ele>
        <time>2013-03-25T11:32:31Z</time>
      </trkpt>
      <trkpt lat="-21.18763" lon="55.67382">
        <ele>2165.7</ele>
        <time>2013-03-25T11:32:38Z</time>
      </trkpt>
      <trkpt lat="-21.18757" lon="55.67374">
        <ele>2165.3</ele>
        <time>2013-03-25T11:32:47Z</time>
      </trkpt>
      <trkpt lat="-21.1875" lon="55.67369">
        <ele>2164.9</ele>
        <time>2013-03-25T11:33:00Z</time>
      </trkpt>
      <trkpt lat="-21.18744" lon="55.67362">
        <ele>2164.3</ele>
        <time>2013-03-25T11:33:08Z</time>
      </trkpt>
      <trkpt lat="-21.18743" lon="55.67361">
        <ele>2164.2</ele>
        <time>2013-03-25T11:33:09Z</time>
      </trkpt>
      <trkpt lat="-21.18731" lon="55.6735">
        <ele>2162.4</ele>
        <time>2013-03-25T11:33:22Z</time>
      </trkpt>
      <trkpt lat="-21.18725" lon="55.67344">
        <ele>2161.8</ele>
        <time>2013-03-25T11:33:30Z</time>
      </trkpt>
      <trkpt lat="-21.1872" lon="55.67337">
        <ele>2161.3</ele>
        <time>2013-03-25T11:33:37Z</time>
      </trkpt>
      <trkpt lat="-21.18714" lon="55.6733">
        <ele>2159.5</ele>
        <time>2013-03-25T11:33:44Z</time>
      </trkpt>
      <trkpt lat="-21.18707" lon="55.67324">
        <ele>2158.1</ele>
        <time>2013-03-25T11:33:51Z</time>
      </trkpt>
      <trkpt lat="-21.187" lon="55.67319">
        <ele>2156.4</ele>
        <time>2013-03-25T11:33:59Z</time>
      </trkpt>
      <trkpt lat="-21.18693" lon="55.67316">
        <ele>2153.9</ele>
        <time>2013-03-25T11:34:09Z</time>
      </trkpt>
      <trkpt lat="-21.18692" lon="55.67315">
        <ele>2153.8</ele>
        <time>2013-03-25T11:34:10Z</time>
      </trkpt>
      <trkpt lat="-21.18679" lon="55.67303">
        <ele>2151.9</ele>
        <time>2013-03-25T11:34:24Z</time>
      </trkpt>
      <trkpt lat="-21.18672" lon="55.67298">
        <ele>2148.7</ele>
        <time>2013-03-25T11:34:33Z</time>
      </trkpt>
      <trkpt lat="-21.18664" lon="55.67294">
        <ele>2144.9</ele>
        <time>2013-03-25T11:34:44Z</time>
      </trkpt>
      <trkpt lat="-21.18657" lon="55.67288">
        <ele>2142.7</ele>
        <time>2013-03-25T11:34:53Z</time>
      </trkpt>
      <trkpt lat="-21.18649" lon="55.67284">
        <ele>2139.1</ele>
        <time>2013-03-25T11:35:03Z</time>
      </trkpt>
      <trkpt lat="-21.18641" lon="55.67282">
        <ele>2135.5</ele>
        <time>2013-03-25T11:35:12Z</time>
      </trkpt>
      <trkpt lat="-21.1864" lon="55.67281">
        <ele>2135.4</ele>
        <time>2013-03-25T11:35:13Z</time>
      </trkpt>
      <trkpt lat="-21.18627" lon="55.67277">
        <ele>2133.7</ele>
        <time>2013-03-25T11:35:23Z</time>
      </trkpt>
      <trkpt lat="-21.18618" lon="55.67276">
        <ele>2132.2</ele>
        <time>2013-03-25T11:35:30Z</time>
      </trkpt>
      <trkpt lat="-21.18611" lon="55.67272">
        <ele>2130.6</ele>
        <time>2013-03-25T11:35:36Z</time>
      </trkpt>
      <trkpt lat="-21.18603" lon="55.67268">
        <ele>2129</ele>
        <time>2013-03-25T11:35:42Z</time>
      </trkpt>
      <trkpt lat="-21.18596" lon="55.67264">
        <ele>2127.8</ele>
        <time>2013-03-25T11:35:49Z</time>
      </trkpt>
      <trkpt lat="-21.1859" lon="55.67258">
        <ele>2128.6</ele>
        <time>2013-03-25T11:35:55Z</time>
      </trkpt>
      <trkpt lat="-21.18583" lon="55.67252">
        <ele>2128.8</ele>
        <time>2013-03-25T11:36:02Z</time>
      </trkpt>
      <trkpt lat="-21.18576" lon="55.67247">
        <ele>2127.2</ele>
        <time>2013-03-25T11:36:09Z</time>
      </trkpt>
      <trkpt lat="-21.18568" lon="55.67243">
        <ele>2124.4</ele>
        <time>2013-03-25T11:38:23Z</time>
      </trkpt>
      <trkpt lat="-21.18568" lon="55.67243">
        <ele>2124.2</ele>
        <time>2013-03-25T11:38:24Z</time>
      </trkpt>
      <trkpt lat="-21.18552" lon="55.67238">
        <ele>2124.9</ele>
        <time>2013-03-25T11:39:30Z</time>
      </trkpt>
      <trkpt lat="-21.18551" lon="55.67237">
        <ele>2124.7</ele>
        <time>2013-03-25T11:39:31Z</time>
      </trkpt>
      <trkpt lat="-21.18494" lon="55.67213">
        <ele>2119.4</ele>
        <time>2013-03-25T11:42:23Z</time>
      </trkpt>
      <trkpt lat="-21.18496" lon="55.67205">
        <ele>2119.9</ele>
        <time>2013-03-25T11:43:19Z</time>
      </trkpt>
      <trkpt lat="-21.18502" lon="55.67197">
        <ele>2120</ele>
        <time>2013-03-25T11:43:25Z</time>
      </trkpt>
      <trkpt lat="-21.18502" lon="55.67196">
        <ele>2119.6</ele>
        <time>2013-03-25T11:43:26Z</time>
      </trkpt>
      <trkpt lat="-21.18509" lon="55.67191">
        <ele>2119.6</ele>
        <time>2013-03-25T11:43:32Z</time>
      </trkpt>
      <trkpt lat="-21.18514" lon="55.67185">
        <ele>2119.6</ele>
        <time>2013-03-25T11:43:37Z</time>
      </trkpt>
      <trkpt lat="-21.1852" lon="55.67179">
        <ele>2119.4</ele>
        <time>2013-03-25T11:43:42Z</time>
      </trkpt>
      <trkpt lat="-21.18527" lon="55.67172">
        <ele>2120.5</ele>
        <time>2013-03-25T11:43:48Z</time>
      </trkpt>
      <trkpt lat="-21.18535" lon="55.67171">
        <ele>2119.8</ele>
        <time>2013-03-25T11:43:55Z</time>
      </trkpt>
      <trkpt lat="-21.18543" lon="55.67169">
        <ele>2121.2</ele>
        <time>2013-03-25T11:44:17Z</time>
      </trkpt>
      <trkpt lat="-21.18551" lon="55.67167">
        <ele>2120.5</ele>
        <time>2013-03-25T11:44:45Z</time>
      </trkpt>
      <trkpt lat="-21.18557" lon="55.6716">
        <ele>2121</ele>
        <time>2013-03-25T11:44:54Z</time>
      </trkpt>
      <trkpt lat="-21.1856" lon="55.67152">
        <ele>2121.6</ele>
        <time>2013-03-25T11:45:00Z</time>
      </trkpt>
      <trkpt lat="-21.18561" lon="55.67143">
        <ele>2121</ele>
        <time>2013-03-25T11:45:08Z</time>
      </trkpt>
      <trkpt lat="-21.18564" lon="55.67135">
        <ele>2121.6</ele>
        <time>2013-03-25T11:45:20Z</time>
      </trkpt>
      <trkpt lat="-21.1857" lon="55.67128">
        <ele>2122.6</ele>
        <time>2013-03-25T11:45:34Z</time>
      </trkpt>
      <trkpt lat="-21.18577" lon="55.67124">
        <ele>2122.1</ele>
        <time>2013-03-25T11:45:40Z</time>
      </trkpt>
      <trkpt lat="-21.18579" lon="55.67115">
        <ele>2122.8</ele>
        <time>2013-03-25T11:45:52Z</time>
      </trkpt>
      <trkpt lat="-21.18583" lon="55.67108">
        <ele>2122.5</ele>
        <time>2013-03-25T11:45:58Z</time>
      </trkpt>
      <trkpt lat="-21.18584" lon="55.67099">
        <ele>2123.1</ele>
        <time>2013-03-25T11:46:05Z</time>
      </trkpt>
      <trkpt lat="-21.18593" lon="55.67096">
        <ele>2123.2</ele>
        <time>2013-03-25T11:46:13Z</time>
      </trkpt>
      <trkpt lat="-21.18601" lon="55.67095">
        <ele>2123.6</ele>
        <time>2013-03-25T11:46:23Z</time>
      </trkpt>
      <trkpt lat="-21.18609" lon="55.67092">
        <ele>2123.7</ele>
        <time>2013-03-25T11:46:30Z</time>
      </trkpt>
      <trkpt lat="-21.18617" lon="55.67088">
        <ele>2124.3</ele>
        <time>2013-03-25T11:46:38Z</time>
      </trkpt>
      <trkpt lat="-21.18625" lon="55.67084">
        <ele>2126.6</ele>
        <time>2013-03-25T11:46:51Z</time>
      </trkpt>
      <trkpt lat="-21.18631" lon="55.67077">
        <ele>2126.9</ele>
        <time>2013-03-25T11:47:00Z</time>
      </trkpt>
      <trkpt lat="-21.18637" lon="55.67071">
        <ele>2126.9</ele>
        <time>2013-03-25T11:47:08Z</time>
      </trkpt>
      <trkpt lat="-21.18644" lon="55.67066">
        <ele>2127.1</ele>
        <time>2013-03-25T11:47:26Z</time>
      </trkpt>
      <trkpt lat="-21.18648" lon="55.67057">
        <ele>2127.2</ele>
        <time>2013-03-25T11:47:36Z</time>
      </trkpt>
      <trkpt lat="-21.18648" lon="55.67047">
        <ele>2127.5</ele>
        <time>2013-03-25T11:47:46Z</time>
      </trkpt>
      <trkpt lat="-21.18653" lon="55.6704">
        <ele>2128.4</ele>
        <time>2013-03-25T11:47:56Z</time>
      </trkpt>
      <trkpt lat="-21.18657" lon="55.67033">
        <ele>2129.9</ele>
        <time>2013-03-25T11:48:06Z</time>
      </trkpt>
      <trkpt lat="-21.18661" lon="55.67024">
        <ele>2129.6</ele>
        <time>2013-03-25T11:48:13Z</time>
      </trkpt>
      <trkpt lat="-21.18664" lon="55.67016">
        <ele>2130.5</ele>
        <time>2013-03-25T11:48:20Z</time>
      </trkpt>
      <trkpt lat="-21.18669" lon="55.67009">
        <ele>2131.7</ele>
        <time>2013-03-25T11:48:27Z</time>
      </trkpt>
      <trkpt lat="-21.18673" lon="55.67001">
        <ele>2132.7</ele>
        <time>2013-03-25T11:48:37Z</time>
      </trkpt>
      <trkpt lat="-21.18671" lon="55.66991">
        <ele>2132.9</ele>
        <time>2013-03-25T11:48:45Z</time>
      </trkpt>
      <trkpt lat="-21.18668" lon="55.66982">
        <ele>2132.8</ele>
        <time>2013-03-25T11:48:53Z</time>
      </trkpt>
      <trkpt lat="-21.18662" lon="55.66976">
        <ele>2132.9</ele>
        <time>2013-03-25T11:49:01Z</time>
      </trkpt>
      <trkpt lat="-21.18658" lon="55.66968">
        <ele>2131.5</ele>
        <time>2013-03-25T11:49:08Z</time>
      </trkpt>
      <trkpt lat="-21.18655" lon="55.6696">
        <ele>2131.4</ele>
        <time>2013-03-25T11:49:15Z</time>
      </trkpt>
      <trkpt lat="-21.18654" lon="55.6695">
        <ele>2131.7</ele>
        <time>2013-03-25T11:49:24Z</time>
      </trkpt>
      <trkpt lat="-21.18649" lon="55.66942">
        <ele>2133.1</ele>
        <time>2013-03-25T11:49:32Z</time>
      </trkpt>
      <trkpt lat="-21.18645" lon="55.66936">
        <ele>2133</ele>
        <time>2013-03-25T11:49:39Z</time>
      </trkpt>
      <trkpt lat="-21.18641" lon="55.66929">
        <ele>2131.7</ele>
        <time>2013-03-25T11:49:45Z</time>
      </trkpt>
      <trkpt lat="-21.18638" lon="55.6692">
        <ele>2130.6</ele>
        <time>2013-03-25T11:49:51Z</time>
      </trkpt>
      <trkpt lat="-21.18638" lon="55.66911">
        <ele>2130.9</ele>
        <time>2013-03-25T11:49:59Z</time>
      </trkpt>
      <trkpt lat="-21.18637" lon="55.66902">
        <ele>2131.7</ele>
        <time>2013-03-25T11:50:08Z</time>
      </trkpt>
      <trkpt lat="-21.18631" lon="55.66895">
        <ele>2130.7</ele>
        <time>2013-03-25T11:50:17Z</time>
      </trkpt>
      <trkpt lat="-21.18625" lon="55.6689">
        <ele>2131.4</ele>
        <time>2013-03-25T11:50:25Z</time>
      </trkpt>
      <trkpt lat="-21.18621" lon="55.66882">
        <ele>2131.7</ele>
        <time>2013-03-25T11:50:32Z</time>
      </trkpt>
      <trkpt lat="-21.18623" lon="55.66873">
        <ele>2132.7</ele>
        <time>2013-03-25T11:50:43Z</time>
      </trkpt>
      <trkpt lat="-21.18624" lon="55.66864">
        <ele>2134.5</ele>
        <time>2013-03-25T11:50:53Z</time>
      </trkpt>
      <trkpt lat="-21.18625" lon="55.66855">
        <ele>2134.9</ele>
        <time>2013-03-25T11:51:03Z</time>
      </trkpt>
      <trkpt lat="-21.18624" lon="55.66846">
        <ele>2136</ele>
        <time>2013-03-25T11:51:10Z</time>
      </trkpt>
      <trkpt lat="-21.18623" lon="55.66837">
        <ele>2135.9</ele>
        <time>2013-03-25T11:51:18Z</time>
      </trkpt>
      <trkpt lat="-21.18615" lon="55.66833">
        <ele>2135</ele>
        <time>2013-03-25T11:51:27Z</time>
      </trkpt>
      <trkpt lat="-21.18612" lon="55.66825">
        <ele>2134.7</ele>
        <time>2013-03-25T11:51:34Z</time>
      </trkpt>
      <trkpt lat="-21.18609" lon="55.66816">
        <ele>2134.6</ele>
        <time>2013-03-25T11:51:43Z</time>
      </trkpt>
      <trkpt lat="-21.18607" lon="55.66806">
        <ele>2134</ele>
        <time>2013-03-25T11:51:51Z</time>
      </trkpt>
      <trkpt lat="-21.18603" lon="55.66799">
        <ele>2132.6</ele>
        <time>2013-03-25T11:52:01Z</time>
      </trkpt>
      <trkpt lat="-21.18602" lon="55.6679">
        <ele>2132.5</ele>
        <time>2013-03-25T11:52:09Z</time>
      </trkpt>
      <trkpt lat="-21.18597" lon="55.66782">
        <ele>2134.6</ele>
        <time>2013-03-25T11:52:22Z</time>
      </trkpt>
      <trkpt lat="-21.18588" lon="55.66779">
        <ele>2136.8</ele>
        <time>2013-03-25T11:52:31Z</time>
      </trkpt>
      <trkpt lat="-21.18582" lon="55.66772">
        <ele>2136.2</ele>
        <time>2013-03-25T11:52:37Z</time>
      </trkpt>
      <trkpt lat="-21.18576" lon="55.66767">
        <ele>2136.6</ele>
        <time>2013-03-25T11:52:46Z</time>
      </trkpt>
      <trkpt lat="-21.18569" lon="55.66762">
        <ele>2138.3</ele>
        <time>2013-03-25T11:52:54Z</time>
      </trkpt>
      <trkpt lat="-21.18565" lon="55.66753">
        <ele>2139.4</ele>
        <time>2013-03-25T11:53:06Z</time>
      </trkpt>
      <trkpt lat="-21.18563" lon="55.66744">
        <ele>2141.9</ele>
        <time>2013-03-25T11:53:22Z</time>
      </trkpt>
      <trkpt lat="-21.18563" lon="55.66735">
        <ele>2143.9</ele>
        <time>2013-03-25T11:53:43Z</time>
      </trkpt>
      <trkpt lat="-21.18562" lon="55.66726">
        <ele>2144.8</ele>
        <time>2013-03-25T11:53:54Z</time>
      </trkpt>
      <trkpt lat="-21.18559" lon="55.66718">
        <ele>2145.2</ele>
        <time>2013-03-25T11:54:02Z</time>
      </trkpt>
      <trkpt lat="-21.18555" lon="55.6671">
        <ele>2145</ele>
        <time>2013-03-25T11:54:10Z</time>
      </trkpt>
      <trkpt lat="-21.18552" lon="55.66702">
        <ele>2146.1</ele>
        <time>2013-03-25T11:54:18Z</time>
      </trkpt>
      <trkpt lat="-21.18549" lon="55.66694">
        <ele>2144.9</ele>
        <time>2013-03-25T11:54:24Z</time>
      </trkpt>
      <trkpt lat="-21.18547" lon="55.66685">
        <ele>2145.1</ele>
        <time>2013-03-25T11:54:31Z</time>
      </trkpt>
      <trkpt lat="-21.18545" lon="55.66675">
        <ele>2144.8</ele>
        <time>2013-03-25T11:54:39Z</time>
      </trkpt>
      <trkpt lat="-21.1854" lon="55.66668">
        <ele>2145.3</ele>
        <time>2013-03-25T11:54:52Z</time>
      </trkpt>
      <trkpt lat="-21.18536" lon="55.6666">
        <ele>2144.7</ele>
        <time>2013-03-25T11:55:04Z</time>
      </trkpt>
      <trkpt lat="-21.18536" lon="55.6665">
        <ele>2145.3</ele>
        <time>2013-03-25T11:55:16Z</time>
      </trkpt>
      <trkpt lat="-21.18531" lon="55.66643">
        <ele>2146.1</ele>
        <time>2013-03-25T11:55:24Z</time>
      </trkpt>
      <trkpt lat="-21.18527" lon="55.66635">
        <ele>2146.8</ele>
        <time>2013-03-25T11:55:33Z</time>
      </trkpt>
      <trkpt lat="-21.18523" lon="55.66627">
        <ele>2147.4</ele>
        <time>2013-03-25T11:55:43Z</time>
      </trkpt>
      <trkpt lat="-21.18518" lon="55.66621">
        <ele>2147.8</ele>
        <time>2013-03-25T11:55:50Z</time>
      </trkpt>
      <trkpt lat="-21.18512" lon="55.66613">
        <ele>2147.3</ele>
        <time>2013-03-25T11:55:56Z</time>
      </trkpt>
      <trkpt lat="-21.18512" lon="55.66604">
        <ele>2149.1</ele>
        <time>2013-03-25T11:56:06Z</time>
      </trkpt>
      <trkpt lat="-21.1851" lon="55.66595">
        <ele>2150</ele>
        <time>2013-03-25T11:56:15Z</time>
      </trkpt>
      <trkpt lat="-21.18507" lon="55.66587">
        <ele>2149.7</ele>
        <time>2013-03-25T11:56:22Z</time>
      </trkpt>
      <trkpt lat="-21.18503" lon="55.66579">
        <ele>2149.3</ele>
        <time>2013-03-25T11:56:28Z</time>
      </trkpt>
      <trkpt lat="-21.18499" lon="55.6657">
        <ele>2147.8</ele>
        <time>2013-03-25T11:56:34Z</time>
      </trkpt>
      <trkpt lat="-21.18495" lon="55.66563">
        <ele>2147.5</ele>
        <time>2013-03-25T11:56:40Z</time>
      </trkpt>
      <trkpt lat="-21.1849" lon="55.66556">
        <ele>2148.3</ele>
        <time>2013-03-25T11:56:46Z</time>
      </trkpt>
      <trkpt lat="-21.18483" lon="55.66551">
        <ele>2147.1</ele>
        <time>2013-03-25T11:56:52Z</time>
      </trkpt>
      <trkpt lat="-21.18479" lon="55.66544">
        <ele>2146.2</ele>
        <time>2013-03-25T11:56:57Z</time>
      </trkpt>
      <trkpt lat="-21.18476" lon="55.66535">
        <ele>2146</ele>
        <time>2013-03-25T11:57:03Z</time>
      </trkpt>
      <trkpt lat="-21.18474" lon="55.66526">
        <ele>2145.6</ele>
        <time>2013-03-25T11:57:09Z</time>
      </trkpt>
      <trkpt lat="-21.18472" lon="55.66518">
        <ele>2145.3</ele>
        <time>2013-03-25T11:57:15Z</time>
      </trkpt>
      <trkpt lat="-21.1847" lon="55.66509">
        <ele>2144.9</ele>
        <time>2013-03-25T11:57:22Z</time>
      </trkpt>
      <trkpt lat="-21.18467" lon="55.665">
        <ele>2144.3</ele>
        <time>2013-03-25T11:57:30Z</time>
      </trkpt>
      <trkpt lat="-21.18465" lon="55.66492">
        <ele>2143.7</ele>
        <time>2013-03-25T11:57:37Z</time>
      </trkpt>
      <trkpt lat="-21.18464" lon="55.66482">
        <ele>2146</ele>
        <time>2013-03-25T11:57:46Z</time>
      </trkpt>
      <trkpt lat="-21.18464" lon="55.66473">
        <ele>2146.7</ele>
        <time>2013-03-25T11:57:54Z</time>
      </trkpt>
      <trkpt lat="-21.18464" lon="55.66464">
        <ele>2146.9</ele>
        <time>2013-03-25T11:58:03Z</time>
      </trkpt>
      <trkpt lat="-21.18469" lon="55.66456">
        <ele>2147.5</ele>
        <time>2013-03-25T11:58:11Z</time>
      </trkpt>
      <trkpt lat="-21.18472" lon="55.66447">
        <ele>2149.2</ele>
        <time>2013-03-25T11:58:19Z</time>
      </trkpt>
      <trkpt lat="-21.18471" lon="55.66439">
        <ele>2149.1</ele>
        <time>2013-03-25T11:58:29Z</time>
      </trkpt>
      <trkpt lat="-21.18471" lon="55.6643">
        <ele>2149.6</ele>
        <time>2013-03-25T11:58:36Z</time>
      </trkpt>
      <trkpt lat="-21.18473" lon="55.66421">
        <ele>2149.5</ele>
        <time>2013-03-25T11:58:44Z</time>
      </trkpt>
      <trkpt lat="-21.18475" lon="55.66412">
        <ele>2150.3</ele>
        <time>2013-03-25T11:58:53Z</time>
      </trkpt>
      <trkpt lat="-21.18476" lon="55.66403">
        <ele>2151.4</ele>
        <time>2013-03-25T11:59:00Z</time>
      </trkpt>
      <trkpt lat="-21.18477" lon="55.66394">
        <ele>2151.8</ele>
        <time>2013-03-25T11:59:06Z</time>
      </trkpt>
      <trkpt lat="-21.18479" lon="55.66386">
        <ele>2151.1</ele>
        <time>2013-03-25T11:59:13Z</time>
      </trkpt>
      <trkpt lat="-21.18483" lon="55.66378">
        <ele>2151.6</ele>
        <time>2013-03-25T11:59:21Z</time>
      </trkpt>
      <trkpt lat="-21.18483" lon="55.66369">
        <ele>2152.9</ele>
        <time>2013-03-25T11:59:29Z</time>
      </trkpt>
      <trkpt lat="-21.18486" lon="55.6636">
        <ele>2153.3</ele>
        <time>2013-03-25T11:59:37Z</time>
      </trkpt>
      <trkpt lat="-21.18489" lon="55.66352">
        <ele>2154.3</ele>
        <time>2013-03-25T11:59:45Z</time>
      </trkpt>
      <trkpt lat="-21.18493" lon="55.66345">
        <ele>2154</ele>
        <time>2013-03-25T11:59:54Z</time>
      </trkpt>
      <trkpt lat="-21.18494" lon="55.66335">
        <ele>2155.4</ele>
        <time>2013-03-25T12:00:04Z</time>
      </trkpt>
      <trkpt lat="-21.18497" lon="55.66326">
        <ele>2156.1</ele>
        <time>2013-03-25T12:00:14Z</time>
      </trkpt>
      <trkpt lat="-21.18505" lon="55.66321">
        <ele>2157.3</ele>
        <time>2013-03-25T12:00:23Z</time>
      </trkpt>
      <trkpt lat="-21.18509" lon="55.66314">
        <ele>2158.4</ele>
        <time>2013-03-25T12:00:30Z</time>
      </trkpt>
      <trkpt lat="-21.18516" lon="55.66309">
        <ele>2159.4</ele>
        <time>2013-03-25T12:00:39Z</time>
      </trkpt>
      <trkpt lat="-21.18524" lon="55.66307">
        <ele>2159.5</ele>
        <time>2013-03-25T12:00:47Z</time>
      </trkpt>
      <trkpt lat="-21.18532" lon="55.66304">
        <ele>2159.4</ele>
        <time>2013-03-25T12:00:55Z</time>
      </trkpt>
      <trkpt lat="-21.18537" lon="55.66298">
        <ele>2161.2</ele>
        <time>2013-03-25T12:01:02Z</time>
      </trkpt>
      <trkpt lat="-21.1854" lon="55.66289">
        <ele>2161</ele>
        <time>2013-03-25T12:01:10Z</time>
      </trkpt>
      <trkpt lat="-21.18543" lon="55.66281">
        <ele>2161.8</ele>
        <time>2013-03-25T12:01:19Z</time>
      </trkpt>
      <trkpt lat="-21.18549" lon="55.66274">
        <ele>2163</ele>
        <time>2013-03-25T12:01:28Z</time>
      </trkpt>
      <trkpt lat="-21.18557" lon="55.66272">
        <ele>2163.8</ele>
        <time>2013-03-25T12:01:37Z</time>
      </trkpt>
      <trkpt lat="-21.18566" lon="55.66272">
        <ele>2165.2</ele>
        <time>2013-03-25T12:01:46Z</time>
      </trkpt>
      <trkpt lat="-21.18573" lon="55.66272">
        <ele>2165.4</ele>
        <time>2013-03-25T12:01:54Z</time>
      </trkpt>
      <trkpt lat="-21.18582" lon="55.66269">
        <ele>2165.8</ele>
        <time>2013-03-25T12:02:01Z</time>
      </trkpt>
      <trkpt lat="-21.1859" lon="55.66269">
        <ele>2165.6</ele>
        <time>2013-03-25T12:02:08Z</time>
      </trkpt>
      <trkpt lat="-21.18598" lon="55.66265">
        <ele>2166.3</ele>
        <time>2013-03-25T12:02:16Z</time>
      </trkpt>
      <trkpt lat="-21.18606" lon="55.66261">
        <ele>2166.4</ele>
        <time>2013-03-25T12:02:26Z</time>
      </trkpt>
      <trkpt lat="-21.18613" lon="55.66256">
        <ele>2166.8</ele>
        <time>2013-03-25T12:02:35Z</time>
      </trkpt>
      <trkpt lat="-21.18621" lon="55.66256">
        <ele>2167.3</ele>
        <time>2013-03-25T12:02:44Z</time>
      </trkpt>
      <trkpt lat="-21.18629" lon="55.66253">
        <ele>2167.7</ele>
        <time>2013-03-25T12:02:53Z</time>
      </trkpt>
      <trkpt lat="-21.18636" lon="55.66248">
        <ele>2168.8</ele>
        <time>2013-03-25T12:03:02Z</time>
      </trkpt>
      <trkpt lat="-21.18644" lon="55.66244">
        <ele>2170.6</ele>
        <time>2013-03-25T12:03:11Z</time>
      </trkpt>
      <trkpt lat="-21.18648" lon="55.66236">
        <ele>2171.3</ele>
        <time>2013-03-25T12:03:21Z</time>
      </trkpt>
      <trkpt lat="-21.18654" lon="55.66229">
        <ele>2171.8</ele>
        <time>2013-03-25T12:03:29Z</time>
      </trkpt>
      <trkpt lat="-21.18657" lon="55.6622">
        <ele>2171.6</ele>
        <time>2013-03-25T12:03:37Z</time>
      </trkpt>
      <trkpt lat="-21.1866" lon="55.66212">
        <ele>2171.2</ele>
        <time>2013-03-25T12:03:46Z</time>
      </trkpt>
      <trkpt lat="-21.18666" lon="55.66206">
        <ele>2171</ele>
        <time>2013-03-25T12:03:55Z</time>
      </trkpt>
      <trkpt lat="-21.18674" lon="55.66203">
        <ele>2172.8</ele>
        <time>2013-03-25T12:04:06Z</time>
      </trkpt>
      <trkpt lat="-21.18682" lon="55.66199">
        <ele>2174.5</ele>
        <time>2013-03-25T12:04:18Z</time>
      </trkpt>
      <trkpt lat="-21.1869" lon="55.662">
        <ele>2174.3</ele>
        <time>2013-03-25T12:04:25Z</time>
      </trkpt>
      <trkpt lat="-21.18698" lon="55.662">
        <ele>2175.7</ele>
        <time>2013-03-25T12:04:32Z</time>
      </trkpt>
      <trkpt lat="-21.18706" lon="55.66201">
        <ele>2176.5</ele>
        <time>2013-03-25T12:04:41Z</time>
      </trkpt>
      <trkpt lat="-21.18714" lon="55.66199">
        <ele>2176.2</ele>
        <time>2013-03-25T12:04:49Z</time>
      </trkpt>
      <trkpt lat="-21.18723" lon="55.66197">
        <ele>2176.8</ele>
        <time>2013-03-25T12:04:57Z</time>
      </trkpt>
      <trkpt lat="-21.1873" lon="55.66192">
        <ele>2177.2</ele>
        <time>2013-03-25T12:05:06Z</time>
      </trkpt>
      <trkpt lat="-21.18736" lon="55.66185">
        <ele>2177.6</ele>
        <time>2013-03-25T12:05:15Z</time>
      </trkpt>
      <trkpt lat="-21.18738" lon="55.66176">
        <ele>2176.3</ele>
        <time>2013-03-25T12:05:26Z</time>
      </trkpt>
      <trkpt lat="-21.18741" lon="55.66168">
        <ele>2176.4</ele>
        <time>2013-03-25T12:05:36Z</time>
      </trkpt>
      <trkpt lat="-21.18748" lon="55.66163">
        <ele>2176.8</ele>
        <time>2013-03-25T12:05:45Z</time>
      </trkpt>
      <trkpt lat="-21.18756" lon="55.6616">
        <ele>2178.5</ele>
        <time>2013-03-25T12:05:53Z</time>
      </trkpt>
      <trkpt lat="-21.18763" lon="55.66154">
        <ele>2179.6</ele>
        <time>2013-03-25T12:06:03Z</time>
      </trkpt>
      <trkpt lat="-21.18766" lon="55.66145">
        <ele>2180.8</ele>
        <time>2013-03-25T12:06:12Z</time>
      </trkpt>
      <trkpt lat="-21.18773" lon="55.66139">
        <ele>2180.5</ele>
        <time>2013-03-25T12:06:21Z</time>
      </trkpt>
      <trkpt lat="-21.18776" lon="55.66131">
        <ele>2181.4</ele>
        <time>2013-03-25T12:06:29Z</time>
      </trkpt>
      <trkpt lat="-21.18782" lon="55.66124">
        <ele>2182.2</ele>
        <time>2013-03-25T12:06:38Z</time>
      </trkpt>
      <trkpt lat="-21.18789" lon="55.66118">
        <ele>2183.4</ele>
        <time>2013-03-25T12:06:46Z</time>
      </trkpt>
      <trkpt lat="-21.18797" lon="55.66115">
        <ele>2183.9</ele>
        <time>2013-03-25T12:06:54Z</time>
      </trkpt>
      <trkpt lat="-21.18803" lon="55.66109">
        <ele>2185</ele>
        <time>2013-03-25T12:07:02Z</time>
      </trkpt>
      <trkpt lat="-21.1881" lon="55.66103">
        <ele>2185.7</ele>
        <time>2013-03-25T12:07:11Z</time>
      </trkpt>
      <trkpt lat="-21.18816" lon="55.66098">
        <ele>2186.5</ele>
        <time>2013-03-25T12:07:18Z</time>
      </trkpt>
      <trkpt lat="-21.18824" lon="55.66096">
        <ele>2187.1</ele>
        <time>2013-03-25T12:07:25Z</time>
      </trkpt>
      <trkpt lat="-21.18833" lon="55.66095">
        <ele>2187.8</ele>
        <time>2013-03-25T12:07:32Z</time>
      </trkpt>
      <trkpt lat="-21.18841" lon="55.66094">
        <ele>2187.5</ele>
        <time>2013-03-25T12:07:39Z</time>
      </trkpt>
      <trkpt lat="-21.18849" lon="55.66091">
        <ele>2187.5</ele>
        <time>2013-03-25T12:07:45Z</time>
      </trkpt>
      <trkpt lat="-21.18857" lon="55.66088">
        <ele>2186.7</ele>
        <time>2013-03-25T12:07:52Z</time>
      </trkpt>
      <trkpt lat="-21.18863" lon="55.66082">
        <ele>2188</ele>
        <time>2013-03-25T12:08:00Z</time>
      </trkpt>
      <trkpt lat="-21.18868" lon="55.66075">
        <ele>2188.6</ele>
        <time>2013-03-25T12:08:07Z</time>
      </trkpt>
      <trkpt lat="-21.18875" lon="55.66069">
        <ele>2187.6</ele>
        <time>2013-03-25T12:08:14Z</time>
      </trkpt>
      <trkpt lat="-21.18883" lon="55.66065">
        <ele>2189.1</ele>
        <time>2013-03-25T12:08:21Z</time>
      </trkpt>
      <trkpt lat="-21.18888" lon="55.66057">
        <ele>2188.4</ele>
        <time>2013-03-25T12:08:28Z</time>
      </trkpt>
      <trkpt lat="-21.18889" lon="55.66048">
        <ele>2187.7</ele>
        <time>2013-03-25T12:08:35Z</time>
      </trkpt>
      <trkpt lat="-21.18891" lon="55.66039">
        <ele>2188.3</ele>
        <time>2013-03-25T12:08:42Z</time>
      </trkpt>
      <trkpt lat="-21.18895" lon="55.66031">
        <ele>2187.9</ele>
        <time>2013-03-25T12:08:48Z</time>
      </trkpt>
      <trkpt lat="-21.18898" lon="55.66024">
        <ele>2187.9</ele>
        <time>2013-03-25T12:08:54Z</time>
      </trkpt>
      <trkpt lat="-21.18904" lon="55.66018">
        <ele>2189.3</ele>
        <time>2013-03-25T12:09:00Z</time>
      </trkpt>
      <trkpt lat="-21.1891" lon="55.66011">
        <ele>2187.7</ele>
        <time>2013-03-25T12:09:07Z</time>
      </trkpt>
      <trkpt lat="-21.18913" lon="55.66002">
        <ele>2188.6</ele>
        <time>2013-03-25T12:09:16Z</time>
      </trkpt>
      <trkpt lat="-21.18915" lon="55.65994">
        <ele>2189</ele>
        <time>2013-03-25T12:09:23Z</time>
      </trkpt>
      <trkpt lat="-21.18919" lon="55.65986">
        <ele>2189.4</ele>
        <time>2013-03-25T12:09:30Z</time>
      </trkpt>
      <trkpt lat="-21.1892" lon="55.65977">
        <ele>2189.3</ele>
        <time>2013-03-25T12:09:37Z</time>
      </trkpt>
      <trkpt lat="-21.18917" lon="55.6597">
        <ele>2189.5</ele>
        <time>2013-03-25T12:09:43Z</time>
      </trkpt>
      <trkpt lat="-21.18915" lon="55.65961">
        <ele>2189.4</ele>
        <time>2013-03-25T12:09:51Z</time>
      </trkpt>
      <trkpt lat="-21.1892" lon="55.65953">
        <ele>2190.2</ele>
        <time>2013-03-25T12:10:00Z</time>
      </trkpt>
      <trkpt lat="-21.18924" lon="55.65946">
        <ele>2190.9</ele>
        <time>2013-03-25T12:10:07Z</time>
      </trkpt>
      <trkpt lat="-21.18932" lon="55.65941">
        <ele>2190.9</ele>
        <time>2013-03-25T12:10:14Z</time>
      </trkpt>
      <trkpt lat="-21.18936" lon="55.65933">
        <ele>2192.3</ele>
        <time>2013-03-25T12:10:22Z</time>
      </trkpt>
      <trkpt lat="-21.1894" lon="55.65925">
        <ele>2192.2</ele>
        <time>2013-03-25T12:10:28Z</time>
      </trkpt>
      <trkpt lat="-21.18944" lon="55.65917">
        <ele>2192.2</ele>
        <time>2013-03-25T12:10:42Z</time>
      </trkpt>
      <trkpt lat="-21.18947" lon="55.65909">
        <ele>2193.1</ele>
        <time>2013-03-25T12:10:50Z</time>
      </trkpt>
      <trkpt lat="-21.18951" lon="55.65901">
        <ele>2192.7</ele>
        <time>2013-03-25T12:10:57Z</time>
      </trkpt>
      <trkpt lat="-21.18955" lon="55.65894">
        <ele>2193.2</ele>
        <time>2013-03-25T12:11:04Z</time>
      </trkpt>
      <trkpt lat="-21.18957" lon="55.65886">
        <ele>2193.4</ele>
        <time>2013-03-25T12:11:10Z</time>
      </trkpt>
      <trkpt lat="-21.18961" lon="55.65878">
        <ele>2194.5</ele>
        <time>2013-03-25T12:11:17Z</time>
      </trkpt>
      <trkpt lat="-21.18961" lon="55.65869">
        <ele>2193.2</ele>
        <time>2013-03-25T12:11:24Z</time>
      </trkpt>
      <trkpt lat="-21.18961" lon="55.65861">
        <ele>2193.5</ele>
        <time>2013-03-25T12:11:30Z</time>
      </trkpt>
      <trkpt lat="-21.18963" lon="55.65852">
        <ele>2193.3</ele>
        <time>2013-03-25T12:11:37Z</time>
      </trkpt>
      <trkpt lat="-21.18966" lon="55.65843">
        <ele>2193.6</ele>
        <time>2013-03-25T12:11:43Z</time>
      </trkpt>
      <trkpt lat="-21.1897" lon="55.65836">
        <ele>2191.5</ele>
        <time>2013-03-25T12:11:49Z</time>
      </trkpt>
      <trkpt lat="-21.18975" lon="55.65829">
        <ele>2191.8</ele>
        <time>2013-03-25T12:11:55Z</time>
      </trkpt>
      <trkpt lat="-21.18974" lon="55.6582">
        <ele>2190.5</ele>
        <time>2013-03-25T12:12:02Z</time>
      </trkpt>
      <trkpt lat="-21.18974" lon="55.65811">
        <ele>2190.8</ele>
        <time>2013-03-25T12:12:09Z</time>
      </trkpt>
      <trkpt lat="-21.18974" lon="55.65801">
        <ele>2190.6</ele>
        <time>2013-03-25T12:12:17Z</time>
      </trkpt>
      <trkpt lat="-21.18973" lon="55.65793">
        <ele>2190.3</ele>
        <time>2013-03-25T12:12:24Z</time>
      </trkpt>
      <trkpt lat="-21.18974" lon="55.65783">
        <ele>2191.1</ele>
        <time>2013-03-25T12:12:32Z</time>
      </trkpt>
      <trkpt lat="-21.18973" lon="55.65774">
        <ele>2190</ele>
        <time>2013-03-25T12:12:40Z</time>
      </trkpt>
      <trkpt lat="-21.18971" lon="55.65766">
        <ele>2188.7</ele>
        <time>2013-03-25T12:12:47Z</time>
      </trkpt>
      <trkpt lat="-21.1897" lon="55.65756">
        <ele>2189.5</ele>
        <time>2013-03-25T12:12:56Z</time>
      </trkpt>
      <trkpt lat="-21.18968" lon="55.65748">
        <ele>2190.3</ele>
        <time>2013-03-25T12:13:06Z</time>
      </trkpt>
      <trkpt lat="-21.18966" lon="55.65739">
        <ele>2191.6</ele>
        <time>2013-03-25T12:13:14Z</time>
      </trkpt>
      <trkpt lat="-21.18971" lon="55.65733">
        <ele>2193.6</ele>
        <time>2013-03-25T12:13:22Z</time>
      </trkpt>
      <trkpt lat="-21.18977" lon="55.65726">
        <ele>2192.4</ele>
        <time>2013-03-25T12:13:30Z</time>
      </trkpt>
      <trkpt lat="-21.18983" lon="55.65721">
        <ele>2192.4</ele>
        <time>2013-03-25T12:13:36Z</time>
      </trkpt>
      <trkpt lat="-21.18988" lon="55.65714">
        <ele>2193.4</ele>
        <time>2013-03-25T12:13:43Z</time>
      </trkpt>
      <trkpt lat="-21.18994" lon="55.65707">
        <ele>2192</ele>
        <time>2013-03-25T12:13:50Z</time>
      </trkpt>
      <trkpt lat="-21.19001" lon="55.65701">
        <ele>2192.4</ele>
        <time>2013-03-25T12:13:57Z</time>
      </trkpt>
      <trkpt lat="-21.19007" lon="55.65695">
        <ele>2192.7</ele>
        <time>2013-03-25T12:14:03Z</time>
      </trkpt>
      <trkpt lat="-21.1901" lon="55.65687">
        <ele>2193.1</ele>
        <time>2013-03-25T12:14:09Z</time>
      </trkpt>
      <trkpt lat="-21.19012" lon="55.65678">
        <ele>2192.7</ele>
        <time>2013-03-25T12:14:15Z</time>
      </trkpt>
      <trkpt lat="-21.19016" lon="55.6567">
        <ele>2193</ele>
        <time>2013-03-25T12:14:21Z</time>
      </trkpt>
      <trkpt lat="-21.19013" lon="55.65662">
        <ele>2192.6</ele>
        <time>2013-03-25T12:14:28Z</time>
      </trkpt>
      <trkpt lat="-21.19012" lon="55.65653">
        <ele>2192.4</ele>
        <time>2013-03-25T12:14:35Z</time>
      </trkpt>
      <trkpt lat="-21.19015" lon="55.65644">
        <ele>2192.8</ele>
        <time>2013-03-25T12:14:42Z</time>
      </trkpt>
      <trkpt lat="-21.19019" lon="55.65636">
        <ele>2192.3</ele>
        <time>2013-03-25T12:14:49Z</time>
      </trkpt>
      <trkpt lat="-21.19019" lon="55.65627">
        <ele>2193</ele>
        <time>2013-03-25T12:14:55Z</time>
      </trkpt>
      <trkpt lat="-21.1902" lon="55.65619">
        <ele>2192.6</ele>
        <time>2013-03-25T12:15:01Z</time>
      </trkpt>
      <trkpt lat="-21.1902" lon="55.6561">
        <ele>2192.3</ele>
        <time>2013-03-25T12:15:07Z</time>
      </trkpt>
      <trkpt lat="-21.19025" lon="55.65603">
        <ele>2191.8</ele>
        <time>2013-03-25T12:15:13Z</time>
      </trkpt>
      <trkpt lat="-21.1903" lon="55.65595">
        <ele>2191.9</ele>
        <time>2013-03-25T12:15:20Z</time>
      </trkpt>
      <trkpt lat="-21.19035" lon="55.65589">
        <ele>2191.7</ele>
        <time>2013-03-25T12:15:26Z</time>
      </trkpt>
      <trkpt lat="-21.19039" lon="55.6558">
        <ele>2190.8</ele>
        <time>2013-03-25T12:15:33Z</time>
      </trkpt>
      <trkpt lat="-21.19041" lon="55.65571">
        <ele>2191.7</ele>
        <time>2013-03-25T12:15:39Z</time>
      </trkpt>
      <trkpt lat="-21.19043" lon="55.65563">
        <ele>2190.8</ele>
        <time>2013-03-25T12:15:44Z</time>
      </trkpt>
      <trkpt lat="-21.19045" lon="55.65554">
        <ele>2190.6</ele>
        <time>2013-03-25T12:15:49Z</time>
      </trkpt>
      <trkpt lat="-21.19045" lon="55.65546">
        <ele>2190.5</ele>
        <time>2013-03-25T12:15:55Z</time>
      </trkpt>
      <trkpt lat="-21.19046" lon="55.65537">
        <ele>2190.3</ele>
        <time>2013-03-25T12:16:01Z</time>
      </trkpt>
      <trkpt lat="-21.19049" lon="55.65529">
        <ele>2190.1</ele>
        <time>2013-03-25T12:16:08Z</time>
      </trkpt>
      <trkpt lat="-21.19054" lon="55.65521">
        <ele>2191.1</ele>
        <time>2013-03-25T12:16:15Z</time>
      </trkpt>
      <trkpt lat="-21.19058" lon="55.65514">
        <ele>2190.8</ele>
        <time>2013-03-25T12:16:22Z</time>
      </trkpt>
      <trkpt lat="-21.19065" lon="55.65508">
        <ele>2191.8</ele>
        <time>2013-03-25T12:16:29Z</time>
      </trkpt>
      <trkpt lat="-21.19071" lon="55.65502">
        <ele>2192.4</ele>
        <time>2013-03-25T12:16:37Z</time>
      </trkpt>
      <trkpt lat="-21.19078" lon="55.65497">
        <ele>2193</ele>
        <time>2013-03-25T12:16:44Z</time>
      </trkpt>
      <trkpt lat="-21.19084" lon="55.65491">
        <ele>2192.6</ele>
        <time>2013-03-25T12:16:51Z</time>
      </trkpt>
      <trkpt lat="-21.19087" lon="55.65483">
        <ele>2192.6</ele>
        <time>2013-03-25T12:16:58Z</time>
      </trkpt>
      <trkpt lat="-21.19093" lon="55.65477">
        <ele>2193.9</ele>
        <time>2013-03-25T12:17:07Z</time>
      </trkpt>
      <trkpt lat="-21.19098" lon="55.65469">
        <ele>2195.3</ele>
        <time>2013-03-25T12:17:16Z</time>
      </trkpt>
      <trkpt lat="-21.19104" lon="55.65463">
        <ele>2195.6</ele>
        <time>2013-03-25T12:17:24Z</time>
      </trkpt>
      <trkpt lat="-21.1911" lon="55.65457">
        <ele>2196.1</ele>
        <time>2013-03-25T12:17:32Z</time>
      </trkpt>
      <trkpt lat="-21.19117" lon="55.65451">
        <ele>2196.4</ele>
        <time>2013-03-25T12:17:41Z</time>
      </trkpt>
      <trkpt lat="-21.19115" lon="55.65442">
        <ele>2196.5</ele>
        <time>2013-03-25T12:17:50Z</time>
      </trkpt>
      <trkpt lat="-21.19113" lon="55.65433">
        <ele>2196.5</ele>
        <time>2013-03-25T12:18:05Z</time>
      </trkpt>
      <trkpt lat="-21.19111" lon="55.65424">
        <ele>2196.1</ele>
        <time>2013-03-25T12:18:21Z</time>
      </trkpt>
      <trkpt lat="-21.19108" lon="55.65416">
        <ele>2196</ele>
        <time>2013-03-25T12:18:31Z</time>
      </trkpt>
      <trkpt lat="-21.19106" lon="55.6541">
        <ele>2195.4</ele>
        <time>2013-03-25T12:18:38Z</time>
      </trkpt>
      <trkpt lat="-21.19102" lon="55.65401">
        <ele>2194</ele>
        <time>2013-03-25T12:18:47Z</time>
      </trkpt>
      <trkpt lat="-21.191" lon="55.65393">
        <ele>2193.2</ele>
        <time>2013-03-25T12:18:53Z</time>
      </trkpt>
      <trkpt lat="-21.19099" lon="55.65383">
        <ele>2192.1</ele>
        <time>2013-03-25T12:19:00Z</time>
      </trkpt>
      <trkpt lat="-21.191" lon="55.65375">
        <ele>2191.7</ele>
        <time>2013-03-25T12:19:06Z</time>
      </trkpt>
      <trkpt lat="-21.19097" lon="55.65366">
        <ele>2190.2</ele>
        <time>2013-03-25T12:19:13Z</time>
      </trkpt>
      <trkpt lat="-21.19098" lon="55.65357">
        <ele>2186.4</ele>
        <time>2013-03-25T12:19:24Z</time>
      </trkpt>
      <trkpt lat="-21.19104" lon="55.6535">
        <ele>2184.6</ele>
        <time>2013-03-25T12:19:34Z</time>
      </trkpt>
      <trkpt lat="-21.19103" lon="55.65341">
        <ele>2180.2</ele>
        <time>2013-03-25T12:19:51Z</time>
      </trkpt>
      <trkpt lat="-21.19103" lon="55.65333">
        <ele>2178.5</ele>
        <time>2013-03-25T12:20:04Z</time>
      </trkpt>
      <trkpt lat="-21.19104" lon="55.65324">
        <ele>2174.1</ele>
        <time>2013-03-25T12:20:15Z</time>
      </trkpt>
      <trkpt lat="-21.19109" lon="55.65316">
        <ele>2172</ele>
        <time>2013-03-25T12:20:26Z</time>
      </trkpt>
      <trkpt lat="-21.19114" lon="55.65308">
        <ele>2169.1</ele>
        <time>2013-03-25T12:20:36Z</time>
      </trkpt>
      <trkpt lat="-21.19109" lon="55.653">
        <ele>2166.6</ele>
        <time>2013-03-25T12:20:45Z</time>
      </trkpt>
      <trkpt lat="-21.19107" lon="55.65291">
        <ele>2165.2</ele>
        <time>2013-03-25T12:20:55Z</time>
      </trkpt>
      <trkpt lat="-21.1911" lon="55.65283">
        <ele>2164.9</ele>
        <time>2013-03-25T12:21:01Z</time>
      </trkpt>
      <trkpt lat="-21.19112" lon="55.65274">
        <ele>2163.5</ele>
        <time>2013-03-25T12:21:07Z</time>
      </trkpt>
      <trkpt lat="-21.19114" lon="55.65265">
        <ele>2162.6</ele>
        <time>2013-03-25T12:21:13Z</time>
      </trkpt>
      <trkpt lat="-21.19116" lon="55.65257">
        <ele>2162.2</ele>
        <time>2013-03-25T12:21:19Z</time>
      </trkpt>
      <trkpt lat="-21.19121" lon="55.6525">
        <ele>2160.6</ele>
        <time>2013-03-25T12:21:25Z</time>
      </trkpt>
      <trkpt lat="-21.19128" lon="55.65245">
        <ele>2159</ele>
        <time>2013-03-25T12:21:32Z</time>
      </trkpt>
      <trkpt lat="-21.19134" lon="55.65241">
        <ele>2157.1</ele>
        <time>2013-03-25T12:21:37Z</time>
      </trkpt>
      <trkpt lat="-21.19143" lon="55.65239">
        <ele>2157.5</ele>
        <time>2013-03-25T12:21:44Z</time>
      </trkpt>
      <trkpt lat="-21.1915" lon="55.65236">
        <ele>2157.3</ele>
        <time>2013-03-25T12:21:51Z</time>
      </trkpt>
      <trkpt lat="-21.19158" lon="55.65231">
        <ele>2157.1</ele>
        <time>2013-03-25T12:21:58Z</time>
      </trkpt>
      <trkpt lat="-21.19164" lon="55.65226">
        <ele>2157.6</ele>
        <time>2013-03-25T12:22:04Z</time>
      </trkpt>
      <trkpt lat="-21.19166" lon="55.65216">
        <ele>2157.3</ele>
        <time>2013-03-25T12:22:11Z</time>
      </trkpt>
      <trkpt lat="-21.19168" lon="55.65207">
        <ele>2156.4</ele>
        <time>2013-03-25T12:22:20Z</time>
      </trkpt>
      <trkpt lat="-21.19173" lon="55.652">
        <ele>2157.8</ele>
        <time>2013-03-25T12:22:28Z</time>
      </trkpt>
      <trkpt lat="-21.1918" lon="55.65196">
        <ele>2159.4</ele>
        <time>2013-03-25T12:22:40Z</time>
      </trkpt>
      <trkpt lat="-21.19187" lon="55.65192">
        <ele>2160.2</ele>
        <time>2013-03-25T12:22:46Z</time>
      </trkpt>
      <trkpt lat="-21.19194" lon="55.65186">
        <ele>2159.9</ele>
        <time>2013-03-25T12:22:53Z</time>
      </trkpt>
      <trkpt lat="-21.19197" lon="55.65177">
        <ele>2158.6</ele>
        <time>2013-03-25T12:23:02Z</time>
      </trkpt>
      <trkpt lat="-21.192" lon="55.65169">
        <ele>2159.7</ele>
        <time>2013-03-25T12:23:12Z</time>
      </trkpt>
      <trkpt lat="-21.19206" lon="55.65162">
        <ele>2161.9</ele>
        <time>2013-03-25T12:23:22Z</time>
      </trkpt>
      <trkpt lat="-21.19209" lon="55.65154">
        <ele>2164.4</ele>
        <time>2013-03-25T12:23:34Z</time>
      </trkpt>
      <trkpt lat="-21.19212" lon="55.65145">
        <ele>2166.1</ele>
        <time>2013-03-25T12:23:44Z</time>
      </trkpt>
      <trkpt lat="-21.19215" lon="55.65136">
        <ele>2166.8</ele>
        <time>2013-03-25T12:23:54Z</time>
      </trkpt>
      <trkpt lat="-21.19214" lon="55.65127">
        <ele>2167</ele>
        <time>2013-03-25T12:24:06Z</time>
      </trkpt>
      <trkpt lat="-21.1921" lon="55.65119">
        <ele>2167.1</ele>
        <time>2013-03-25T12:24:16Z</time>
      </trkpt>
      <trkpt lat="-21.19215" lon="55.65111">
        <ele>2166.7</ele>
        <time>2013-03-25T12:24:25Z</time>
      </trkpt>
      <trkpt lat="-21.19222" lon="55.65105">
        <ele>2167.8</ele>
        <time>2013-03-25T12:24:35Z</time>
      </trkpt>
      <trkpt lat="-21.19228" lon="55.65112">
        <ele>2168.3</ele>
        <time>2013-03-25T12:24:58Z</time>
      </trkpt>
      <trkpt lat="-21.19235" lon="55.65118">
        <ele>2170.8</ele>
        <time>2013-03-25T12:25:06Z</time>
      </trkpt>
      <trkpt lat="-21.19243" lon="55.65118">
        <ele>2171.2</ele>
        <time>2013-03-25T12:25:14Z</time>
      </trkpt>
      <trkpt lat="-21.19251" lon="55.65113">
        <ele>2171.8</ele>
        <time>2013-03-25T12:25:24Z</time>
      </trkpt>
      <trkpt lat="-21.19259" lon="55.65116">
        <ele>2171.5</ele>
        <time>2013-03-25T12:25:36Z</time>
      </trkpt>
      <trkpt lat="-21.19266" lon="55.6512">
        <ele>2172.7</ele>
        <time>2013-03-25T12:25:45Z</time>
      </trkpt>
      <trkpt lat="-21.19267" lon="55.65111">
        <ele>2171.2</ele>
        <time>2013-03-25T12:25:54Z</time>
      </trkpt>
      <trkpt lat="-21.19268" lon="55.65101">
        <ele>2170</ele>
        <time>2013-03-25T12:26:01Z</time>
      </trkpt>
      <trkpt lat="-21.19269" lon="55.65093">
        <ele>2169.7</ele>
        <time>2013-03-25T12:26:07Z</time>
      </trkpt>
      <trkpt lat="-21.1927" lon="55.65084">
        <ele>2169.3</ele>
        <time>2013-03-25T12:26:14Z</time>
      </trkpt>
      <trkpt lat="-21.19273" lon="55.65076">
        <ele>2168.6</ele>
        <time>2013-03-25T12:26:20Z</time>
      </trkpt>
      <trkpt lat="-21.19275" lon="55.65067">
        <ele>2168.2</ele>
        <time>2013-03-25T12:26:27Z</time>
      </trkpt>
      <trkpt lat="-21.19275" lon="55.65058">
        <ele>2168.6</ele>
        <time>2013-03-25T12:26:35Z</time>
      </trkpt>
      <trkpt lat="-21.19276" lon="55.65049">
        <ele>2169.5</ele>
        <time>2013-03-25T12:26:43Z</time>
      </trkpt>
      <trkpt lat="-21.19276" lon="55.6504">
        <ele>2170.9</ele>
        <time>2013-03-25T12:26:50Z</time>
      </trkpt>
      <trkpt lat="-21.19279" lon="55.65031">
        <ele>2171.8</ele>
        <time>2013-03-25T12:27:00Z</time>
      </trkpt>
      <trkpt lat="-21.19288" lon="55.6503">
        <ele>2169.4</ele>
        <time>2013-03-25T12:27:08Z</time>
      </trkpt>
      <trkpt lat="-21.19287" lon="55.6502">
        <ele>2166.8</ele>
        <time>2013-03-25T12:27:19Z</time>
      </trkpt>
      <trkpt lat="-21.19291" lon="55.65012">
        <ele>2165.5</ele>
        <time>2013-03-25T12:27:26Z</time>
      </trkpt>
      <trkpt lat="-21.19297" lon="55.65006">
        <ele>2164.3</ele>
        <time>2013-03-25T12:27:33Z</time>
      </trkpt>
      <trkpt lat="-21.19304" lon="55.65001">
        <ele>2164.6</ele>
        <time>2013-03-25T12:27:39Z</time>
      </trkpt>
      <trkpt lat="-21.1931" lon="55.64994">
        <ele>2164.5</ele>
        <time>2013-03-25T12:27:46Z</time>
      </trkpt>
      <trkpt lat="-21.19314" lon="55.64986">
        <ele>2165.3</ele>
        <time>2013-03-25T12:27:54Z</time>
      </trkpt>
      <trkpt lat="-21.19318" lon="55.64978">
        <ele>2165.5</ele>
        <time>2013-03-25T12:28:02Z</time>
      </trkpt>
      <trkpt lat="-21.1932" lon="55.6497">
        <ele>2166.2</ele>
        <time>2013-03-25T12:28:08Z</time>
      </trkpt>
      <trkpt lat="-21.1932" lon="55.64961">
        <ele>2165.1</ele>
        <time>2013-03-25T12:28:14Z</time>
      </trkpt>
      <trkpt lat="-21.19319" lon="55.64952">
        <ele>2165.2</ele>
        <time>2013-03-25T12:28:20Z</time>
      </trkpt>
      <trkpt lat="-21.19317" lon="55.64943">
        <ele>2164.9</ele>
        <time>2013-03-25T12:28:27Z</time>
      </trkpt>
      <trkpt lat="-21.19318" lon="55.64935">
        <ele>2165.7</ele>
        <time>2013-03-25T12:28:33Z</time>
      </trkpt>
      <trkpt lat="-21.1932" lon="55.64927">
        <ele>2165.2</ele>
        <time>2013-03-25T12:28:39Z</time>
      </trkpt>
      <trkpt lat="-21.19312" lon="55.64923">
        <ele>2164.5</ele>
        <time>2013-03-25T12:28:48Z</time>
      </trkpt>
      <trkpt lat="-21.19306" lon="55.64917">
        <ele>2164.9</ele>
        <time>2013-03-25T12:28:55Z</time>
      </trkpt>
      <trkpt lat="-21.19301" lon="55.6491">
        <ele>2164</ele>
        <time>2013-03-25T12:29:01Z</time>
      </trkpt>
      <trkpt lat="-21.19294" lon="55.64906">
        <ele>2163.5</ele>
        <time>2013-03-25T12:29:08Z</time>
      </trkpt>
      <trkpt lat="-21.19291" lon="55.64897">
        <ele>2163.1</ele>
        <time>2013-03-25T12:29:16Z</time>
      </trkpt>
      <trkpt lat="-21.19288" lon="55.64888">
        <ele>2164.4</ele>
        <time>2013-03-25T12:29:24Z</time>
      </trkpt>
      <trkpt lat="-21.19285" lon="55.6488">
        <ele>2163.4</ele>
        <time>2013-03-25T12:29:32Z</time>
      </trkpt>
      <trkpt lat="-21.1928" lon="55.64873">
        <ele>2164.3</ele>
        <time>2013-03-25T12:29:41Z</time>
      </trkpt>
      <trkpt lat="-21.19273" lon="55.64866">
        <ele>2165.8</ele>
        <time>2013-03-25T12:29:51Z</time>
      </trkpt>
      <trkpt lat="-21.19266" lon="55.64862">
        <ele>2166.3</ele>
        <time>2013-03-25T12:30:05Z</time>
      </trkpt>
      <trkpt lat="-21.19263" lon="55.64853">
        <ele>2165.8</ele>
        <time>2013-03-25T12:30:18Z</time>
      </trkpt>
      <trkpt lat="-21.19259" lon="55.64844">
        <ele>2169</ele>
        <time>2013-03-25T12:30:30Z</time>
      </trkpt>
      <trkpt lat="-21.19253" lon="55.64838">
        <ele>2169.9</ele>
        <time>2013-03-25T12:30:40Z</time>
      </trkpt>
      <trkpt lat="-21.19248" lon="55.64831">
        <ele>2169.6</ele>
        <time>2013-03-25T12:30:49Z</time>
      </trkpt>
      <trkpt lat="-21.19244" lon="55.64823">
        <ele>2170.2</ele>
        <time>2013-03-25T12:31:00Z</time>
      </trkpt>
      <trkpt lat="-21.19238" lon="55.64816">
        <ele>2171.5</ele>
        <time>2013-03-25T12:31:11Z</time>
      </trkpt>
      <trkpt lat="-21.19237" lon="55.64807">
        <ele>2172.6</ele>
        <time>2013-03-25T12:31:21Z</time>
      </trkpt>
      <trkpt lat="-21.19239" lon="55.64798">
        <ele>2173.4</ele>
        <time>2013-03-25T12:31:30Z</time>
      </trkpt>
      <trkpt lat="-21.19237" lon="55.6479">
        <ele>2172.6</ele>
        <time>2013-03-25T12:31:37Z</time>
      </trkpt>
      <trkpt lat="-21.19232" lon="55.64783">
        <ele>2172.6</ele>
        <time>2013-03-25T12:31:44Z</time>
      </trkpt>
      <trkpt lat="-21.19229" lon="55.64774">
        <ele>2173.2</ele>
        <time>2013-03-25T12:31:51Z</time>
      </trkpt>
      <trkpt lat="-21.19229" lon="55.64765">
        <ele>2172.5</ele>
        <time>2013-03-25T12:31:58Z</time>
      </trkpt>
      <trkpt lat="-21.19231" lon="55.64755">
        <ele>2173.3</ele>
        <time>2013-03-25T12:32:07Z</time>
      </trkpt>
      <trkpt lat="-21.19233" lon="55.64746">
        <ele>2173.2</ele>
        <time>2013-03-25T12:32:17Z</time>
      </trkpt>
      <trkpt lat="-21.19229" lon="55.64738">
        <ele>2173.8</ele>
        <time>2013-03-25T12:32:24Z</time>
      </trkpt>
      <trkpt lat="-21.19224" lon="55.64731">
        <ele>2173.6</ele>
        <time>2013-03-25T12:32:32Z</time>
      </trkpt>
      <trkpt lat="-21.19219" lon="55.64724">
        <ele>2173.9</ele>
        <time>2013-03-25T12:32:40Z</time>
      </trkpt>
      <trkpt lat="-21.19216" lon="55.64716">
        <ele>2174.5</ele>
        <time>2013-03-25T12:32:48Z</time>
      </trkpt>
      <trkpt lat="-21.19214" lon="55.64707">
        <ele>2174.6</ele>
        <time>2013-03-25T12:32:56Z</time>
      </trkpt>
      <trkpt lat="-21.19209" lon="55.647">
        <ele>2176.1</ele>
        <time>2013-03-25T12:33:04Z</time>
      </trkpt>
      <trkpt lat="-21.19203" lon="55.64693">
        <ele>2176</ele>
        <time>2013-03-25T12:33:12Z</time>
      </trkpt>
      <trkpt lat="-21.19197" lon="55.64687">
        <ele>2173.9</ele>
        <time>2013-03-25T12:33:21Z</time>
      </trkpt>
      <trkpt lat="-21.19195" lon="55.64678">
        <ele>2173.2</ele>
        <time>2013-03-25T12:33:31Z</time>
      </trkpt>
      <trkpt lat="-21.19193" lon="55.6467">
        <ele>2173</ele>
        <time>2013-03-25T12:33:38Z</time>
      </trkpt>
      <trkpt lat="-21.19188" lon="55.64663">
        <ele>2173.6</ele>
        <time>2013-03-25T12:33:46Z</time>
      </trkpt>
      <trkpt lat="-21.19182" lon="55.64655">
        <ele>2173</ele>
        <time>2013-03-25T12:33:53Z</time>
      </trkpt>
      <trkpt lat="-21.19177" lon="55.64648">
        <ele>2171</ele>
        <time>2013-03-25T12:34:01Z</time>
      </trkpt>
      <trkpt lat="-21.19171" lon="55.64641">
        <ele>2171.5</ele>
        <time>2013-03-25T12:34:09Z</time>
      </trkpt>
      <trkpt lat="-21.19165" lon="55.64634">
        <ele>2169.9</ele>
        <time>2013-03-25T12:34:16Z</time>
      </trkpt>
      <trkpt lat="-21.1916" lon="55.64627">
        <ele>2169.5</ele>
        <time>2013-03-25T12:34:22Z</time>
      </trkpt>
      <trkpt lat="-21.19157" lon="55.64618">
        <ele>2168.7</ele>
        <time>2013-03-25T12:34:29Z</time>
      </trkpt>
      <trkpt lat="-21.19155" lon="55.6461">
        <ele>2167.4</ele>
        <time>2013-03-25T12:34:36Z</time>
      </trkpt>
      <trkpt lat="-21.19154" lon="55.646">
        <ele>2167.7</ele>
        <time>2013-03-25T12:34:44Z</time>
      </trkpt>
      <trkpt lat="-21.1915" lon="55.64592">
        <ele>2168.1</ele>
        <time>2013-03-25T12:34:51Z</time>
      </trkpt>
      <trkpt lat="-21.19145" lon="55.64585">
        <ele>2166.7</ele>
        <time>2013-03-25T12:34:58Z</time>
      </trkpt>
      <trkpt lat="-21.19142" lon="55.64576">
        <ele>2166.9</ele>
        <time>2013-03-25T12:35:07Z</time>
      </trkpt>
      <trkpt lat="-21.19142" lon="55.64568">
        <ele>2167.7</ele>
        <time>2013-03-25T12:35:15Z</time>
      </trkpt>
      <trkpt lat="-21.19143" lon="55.64559">
        <ele>2168.1</ele>
        <time>2013-03-25T12:35:22Z</time>
      </trkpt>
      <trkpt lat="-21.19142" lon="55.6455">
        <ele>2169.3</ele>
        <time>2013-03-25T12:35:29Z</time>
      </trkpt>
      <trkpt lat="-21.19141" lon="55.64541">
        <ele>2169.3</ele>
        <time>2013-03-25T12:35:37Z</time>
      </trkpt>
      <trkpt lat="-21.19137" lon="55.64534">
        <ele>2169.8</ele>
        <time>2013-03-25T12:35:43Z</time>
      </trkpt>
      <trkpt lat="-21.19135" lon="55.64524">
        <ele>2168.8</ele>
        <time>2013-03-25T12:35:50Z</time>
      </trkpt>
      <trkpt lat="-21.19133" lon="55.64515">
        <ele>2168.5</ele>
        <time>2013-03-25T12:35:57Z</time>
      </trkpt>
      <trkpt lat="-21.19133" lon="55.64506">
        <ele>2167.8</ele>
        <time>2013-03-25T12:36:05Z</time>
      </trkpt>
      <trkpt lat="-21.19127" lon="55.645">
        <ele>2168.2</ele>
        <time>2013-03-25T12:36:13Z</time>
      </trkpt>
      <trkpt lat="-21.19121" lon="55.64494">
        <ele>2168</ele>
        <time>2013-03-25T12:36:20Z</time>
      </trkpt>
      <trkpt lat="-21.19113" lon="55.64491">
        <ele>2167.5</ele>
        <time>2013-03-25T12:36:27Z</time>
      </trkpt>
      <trkpt lat="-21.19106" lon="55.64485">
        <ele>2166</ele>
        <time>2013-03-25T12:36:36Z</time>
      </trkpt>
      <trkpt lat="-21.191" lon="55.64477">
        <ele>2165.1</ele>
        <time>2013-03-25T12:36:43Z</time>
      </trkpt>
      <trkpt lat="-21.19094" lon="55.64471">
        <ele>2165.3</ele>
        <time>2013-03-25T12:36:50Z</time>
      </trkpt>
      <trkpt lat="-21.19085" lon="55.6447">
        <ele>2163.7</ele>
        <time>2013-03-25T12:36:59Z</time>
      </trkpt>
      <trkpt lat="-21.19078" lon="55.64466">
        <ele>2162.3</ele>
        <time>2013-03-25T12:37:07Z</time>
      </trkpt>
      <trkpt lat="-21.19076" lon="55.64457">
        <ele>2160.5</ele>
        <time>2013-03-25T12:37:15Z</time>
      </trkpt>
      <trkpt lat="-21.19079" lon="55.64449">
        <ele>2159.5</ele>
        <time>2013-03-25T12:37:22Z</time>
      </trkpt>
      <trkpt lat="-21.19085" lon="55.64442">
        <ele>2159</ele>
        <time>2013-03-25T12:37:29Z</time>
      </trkpt>
      <trkpt lat="-21.19093" lon="55.64439">
        <ele>2158.6</ele>
        <time>2013-03-25T12:37:36Z</time>
      </trkpt>
      <trkpt lat="-21.19097" lon="55.64432">
        <ele>2159.8</ele>
        <time>2013-03-25T12:37:43Z</time>
      </trkpt>
      <trkpt lat="-21.19095" lon="55.64424">
        <ele>2159.2</ele>
        <time>2013-03-25T12:37:49Z</time>
      </trkpt>
      <trkpt lat="-21.19091" lon="55.64417">
        <ele>2159.4</ele>
        <time>2013-03-25T12:37:54Z</time>
      </trkpt>
      <trkpt lat="-21.1909" lon="55.64407">
        <ele>2159.4</ele>
        <time>2013-03-25T12:38:01Z</time>
      </trkpt>
      <trkpt lat="-21.19092" lon="55.64398">
        <ele>2159.2</ele>
        <time>2013-03-25T12:38:07Z</time>
      </trkpt>
      <trkpt lat="-21.19095" lon="55.6439">
        <ele>2159.4</ele>
        <time>2013-03-25T12:38:13Z</time>
      </trkpt>
      <trkpt lat="-21.19099" lon="55.64382">
        <ele>2159.4</ele>
        <time>2013-03-25T12:38:20Z</time>
      </trkpt>
      <trkpt lat="-21.19098" lon="55.64374">
        <ele>2158.8</ele>
        <time>2013-03-25T12:38:26Z</time>
      </trkpt>
      <trkpt lat="-21.19099" lon="55.64365">
        <ele>2158.5</ele>
        <time>2013-03-25T12:38:33Z</time>
      </trkpt>
      <trkpt lat="-21.19102" lon="55.64356">
        <ele>2159.7</ele>
        <time>2013-03-25T12:38:41Z</time>
      </trkpt>
      <trkpt lat="-21.19104" lon="55.64347">
        <ele>2159.6</ele>
        <time>2013-03-25T12:38:51Z</time>
      </trkpt>
      <trkpt lat="-21.19109" lon="55.64339">
        <ele>2162.6</ele>
        <time>2013-03-25T12:39:01Z</time>
      </trkpt>
      <trkpt lat="-21.19117" lon="55.64336">
        <ele>2164.1</ele>
        <time>2013-03-25T12:39:11Z</time>
      </trkpt>
      <trkpt lat="-21.19124" lon="55.64332">
        <ele>2164.4</ele>
        <time>2013-03-25T12:39:18Z</time>
      </trkpt>
      <trkpt lat="-21.1913" lon="55.64325">
        <ele>2164.3</ele>
        <time>2013-03-25T12:39:25Z</time>
      </trkpt>
      <trkpt lat="-21.19135" lon="55.64318">
        <ele>2165.2</ele>
        <time>2013-03-25T12:39:32Z</time>
      </trkpt>
      <trkpt lat="-21.19142" lon="55.64313">
        <ele>2165.7</ele>
        <time>2013-03-25T12:39:40Z</time>
      </trkpt>
      <trkpt lat="-21.19147" lon="55.64306">
        <ele>2166.1</ele>
        <time>2013-03-25T12:39:47Z</time>
      </trkpt>
      <trkpt lat="-21.1915" lon="55.64298">
        <ele>2166.4</ele>
        <time>2013-03-25T12:39:54Z</time>
      </trkpt>
      <trkpt lat="-21.19154" lon="55.64291">
        <ele>2165.5</ele>
        <time>2013-03-25T12:40:00Z</time>
      </trkpt>
      <trkpt lat="-21.19155" lon="55.64282">
        <ele>2164.9</ele>
        <time>2013-03-25T12:40:06Z</time>
      </trkpt>
      <trkpt lat="-21.19155" lon="55.64273">
        <ele>2165.3</ele>
        <time>2013-03-25T12:40:12Z</time>
      </trkpt>
      <trkpt lat="-21.19153" lon="55.64264">
        <ele>2164.3</ele>
        <time>2013-03-25T12:40:19Z</time>
      </trkpt>
      <trkpt lat="-21.19156" lon="55.64257">
        <ele>2165.3</ele>
        <time>2013-03-25T12:40:25Z</time>
      </trkpt>
      <trkpt lat="-21.19158" lon="55.64248">
        <ele>2164.3</ele>
        <time>2013-03-25T12:40:31Z</time>
      </trkpt>
      <trkpt lat="-21.19161" lon="55.6424">
        <ele>2163.9</ele>
        <time>2013-03-25T12:40:37Z</time>
      </trkpt>
      <trkpt lat="-21.19164" lon="55.64231">
        <ele>2163.9</ele>
        <time>2013-03-25T12:40:44Z</time>
      </trkpt>
      <trkpt lat="-21.19166" lon="55.64223">
        <ele>2164.1</ele>
        <time>2013-03-25T12:40:50Z</time>
      </trkpt>
      <trkpt lat="-21.19165" lon="55.64214">
        <ele>2164</ele>
        <time>2013-03-25T12:40:56Z</time>
      </trkpt>
      <trkpt lat="-21.19167" lon="55.64205">
        <ele>2163.8</ele>
        <time>2013-03-25T12:41:03Z</time>
      </trkpt>
      <trkpt lat="-21.19169" lon="55.64197">
        <ele>2164.2</ele>
        <time>2013-03-25T12:41:09Z</time>
      </trkpt>
      <trkpt lat="-21.1917" lon="55.64188">
        <ele>2163.4</ele>
        <time>2013-03-25T12:41:16Z</time>
      </trkpt>
      <trkpt lat="-21.19169" lon="55.64178">
        <ele>2163.2</ele>
        <time>2013-03-25T12:41:23Z</time>
      </trkpt>
      <trkpt lat="-21.19163" lon="55.64171">
        <ele>2162.6</ele>
        <time>2013-03-25T12:41:30Z</time>
      </trkpt>
      <trkpt lat="-21.19156" lon="55.64166">
        <ele>2162.9</ele>
        <time>2013-03-25T12:41:37Z</time>
      </trkpt>
      <trkpt lat="-21.19154" lon="55.64157">
        <ele>2162.8</ele>
        <time>2013-03-25T12:41:47Z</time>
      </trkpt>
      <trkpt lat="-21.19151" lon="55.64149">
        <ele>2160.9</ele>
        <time>2013-03-25T12:41:55Z</time>
      </trkpt>
      <trkpt lat="-21.19146" lon="55.64142">
        <ele>2160.1</ele>
        <time>2013-03-25T12:42:02Z</time>
      </trkpt>
      <trkpt lat="-21.19143" lon="55.64134">
        <ele>2158.9</ele>
        <time>2013-03-25T12:42:10Z</time>
      </trkpt>
      <trkpt lat="-21.19142" lon="55.64125">
        <ele>2157.6</ele>
        <time>2013-03-25T12:42:18Z</time>
      </trkpt>
      <trkpt lat="-21.19139" lon="55.64116">
        <ele>2156.5</ele>
        <time>2013-03-25T12:42:25Z</time>
      </trkpt>
      <trkpt lat="-21.19135" lon="55.64109">
        <ele>2155.6</ele>
        <time>2013-03-25T12:42:32Z</time>
      </trkpt>
      <trkpt lat="-21.19133" lon="55.641">
        <ele>2155.7</ele>
        <time>2013-03-25T12:42:39Z</time>
      </trkpt>
      <trkpt lat="-21.19135" lon="55.64091">
        <ele>2155.3</ele>
        <time>2013-03-25T12:42:45Z</time>
      </trkpt>
      <trkpt lat="-21.19132" lon="55.64083">
        <ele>2155</ele>
        <time>2013-03-25T12:42:51Z</time>
      </trkpt>
      <trkpt lat="-21.19128" lon="55.64075">
        <ele>2154.8</ele>
        <time>2013-03-25T12:42:57Z</time>
      </trkpt>
      <trkpt lat="-21.19126" lon="55.64066">
        <ele>2154.1</ele>
        <time>2013-03-25T12:43:03Z</time>
      </trkpt>
      <trkpt lat="-21.19128" lon="55.64057">
        <ele>2155.2</ele>
        <time>2013-03-25T12:43:10Z</time>
      </trkpt>
      <trkpt lat="-21.19129" lon="55.64049">
        <ele>2155</ele>
        <time>2013-03-25T12:43:16Z</time>
      </trkpt>
      <trkpt lat="-21.19127" lon="55.64041">
        <ele>2155</ele>
        <time>2013-03-25T12:43:21Z</time>
      </trkpt>
      <trkpt lat="-21.19124" lon="55.64032">
        <ele>2153.9</ele>
        <time>2013-03-25T12:43:29Z</time>
      </trkpt>
      <trkpt lat="-21.19122" lon="55.64024">
        <ele>2152.4</ele>
        <time>2013-03-25T12:43:36Z</time>
      </trkpt>
      <trkpt lat="-21.19121" lon="55.64015">
        <ele>2151.5</ele>
        <time>2013-03-25T12:43:42Z</time>
      </trkpt>
      <trkpt lat="-21.19122" lon="55.64006">
        <ele>2150.9</ele>
        <time>2013-03-25T12:43:48Z</time>
      </trkpt>
      <trkpt lat="-21.19123" lon="55.63997">
        <ele>2151.2</ele>
        <time>2013-03-25T12:43:54Z</time>
      </trkpt>
      <trkpt lat="-21.19123" lon="55.63988">
        <ele>2151.2</ele>
        <time>2013-03-25T12:44:00Z</time>
      </trkpt>
      <trkpt lat="-21.19122" lon="55.63979">
        <ele>2151.5</ele>
        <time>2013-03-25T12:44:07Z</time>
      </trkpt>
      <trkpt lat="-21.19118" lon="55.63971">
        <ele>2150.6</ele>
        <time>2013-03-25T12:44:13Z</time>
      </trkpt>
      <trkpt lat="-21.19113" lon="55.63963">
        <ele>2149.4</ele>
        <time>2013-03-25T12:44:19Z</time>
      </trkpt>
      <trkpt lat="-21.19111" lon="55.63954">
        <ele>2149.1</ele>
        <time>2013-03-25T12:44:26Z</time>
      </trkpt>
      <trkpt lat="-21.19111" lon="55.63944">
        <ele>2149.8</ele>
        <time>2013-03-25T12:44:34Z</time>
      </trkpt>
      <trkpt lat="-21.1911" lon="55.63935">
        <ele>2150.4</ele>
        <time>2013-03-25T12:44:42Z</time>
      </trkpt>
      <trkpt lat="-21.19112" lon="55.63926">
        <ele>2151.2</ele>
        <time>2013-03-25T12:44:52Z</time>
      </trkpt>
      <trkpt lat="-21.19111" lon="55.63917">
        <ele>2151.2</ele>
        <time>2013-03-25T12:44:59Z</time>
      </trkpt>
      <trkpt lat="-21.19105" lon="55.6391">
        <ele>2151</ele>
        <time>2013-03-25T12:45:07Z</time>
      </trkpt>
      <trkpt lat="-21.19104" lon="55.63905">
        <ele>2153.6</ele>
        <time>2013-03-25T12:49:14Z</time>
      </trkpt>
      <trkpt lat="-21.19113" lon="55.63963">
        <ele>2149.3</ele>
        <time>2013-03-25T12:44:19Z</time>
      </trkpt>
      <trkpt lat="-21.19111" lon="55.63954">
        <ele>2149.1</ele>
        <time>2013-03-25T12:44:26Z</time>
      </trkpt>
      <trkpt lat="-21.19111" lon="55.63944">
        <ele>2149.8</ele>
        <time>2013-03-25T12:44:34Z</time>
      </trkpt>
      <trkpt lat="-21.1911" lon="55.63935">
        <ele>2150.4</ele>
        <time>2013-03-25T12:44:42Z</time>
      </trkpt>
      <trkpt lat="-21.19112" lon="55.63926">
        <ele>2151.2</ele>
        <time>2013-03-25T12:44:52Z</time>
      </trkpt>
      <trkpt lat="-21.19111" lon="55.63917">
        <ele>2151.2</ele>
        <time>2013-03-25T12:44:59Z</time>
      </trkpt>
      <trkpt lat="-21.19105" lon="55.6391">
        <ele>2150.9</ele>
        <time>2013-03-25T12:45:07Z</time>
      </trkpt>
      <trkpt lat="-21.19104" lon="55.63905">
        <ele>2153.7</ele>
        <time>2013-03-25T12:49:15Z</time>
      </trkpt>
      <trkpt lat="-21.19104" lon="55.63905">
        <ele>2153.7</ele>
        <time>2013-03-25T12:49:15Z</time>
      </trkpt>
      <trkpt lat="-21.19107" lon="55.63913">
        <ele>2158.6</ele>
        <time>2013-03-25T12:54:42Z</time>
      </trkpt>
      <trkpt lat="-21.19112" lon="55.63921">
        <ele>2158.6</ele>
        <time>2013-03-25T12:54:51Z</time>
      </trkpt>
      <trkpt lat="-21.19118" lon="55.63927">
        <ele>2158.6</ele>
        <time>2013-03-25T12:55:02Z</time>
      </trkpt>
      <trkpt lat="-21.19125" lon="55.63932">
        <ele>2158.7</ele>
        <time>2013-03-25T12:55:10Z</time>
      </trkpt>
      <trkpt lat="-21.19133" lon="55.63933">
        <ele>2159.4</ele>
        <time>2013-03-25T12:55:18Z</time>
      </trkpt>
      <trkpt lat="-21.19141" lon="55.6393">
        <ele>2159.8</ele>
        <time>2013-03-25T12:55:25Z</time>
      </trkpt>
      <trkpt lat="-21.19142" lon="55.63929">
        <ele>2159.6</ele>
        <time>2013-03-25T12:55:26Z</time>
      </trkpt>
      <trkpt lat="-21.19158" lon="55.63922">
        <ele>2160.2</ele>
        <time>2013-03-25T12:55:44Z</time>
      </trkpt>
      <trkpt lat="-21.19166" lon="55.63919">
        <ele>2160.5</ele>
        <time>2013-03-25T12:55:50Z</time>
      </trkpt>
      <trkpt lat="-21.19174" lon="55.63916">
        <ele>2160.2</ele>
        <time>2013-03-25T12:55:56Z</time>
      </trkpt>
      <trkpt lat="-21.19182" lon="55.63913">
        <ele>2160.7</ele>
        <time>2013-03-25T12:56:03Z</time>
      </trkpt>
      <trkpt lat="-21.19189" lon="55.6391">
        <ele>2160.7</ele>
        <time>2013-03-25T12:56:09Z</time>
      </trkpt>
      <trkpt lat="-21.19197" lon="55.63907">
        <ele>2160.2</ele>
        <time>2013-03-25T12:56:18Z</time>
      </trkpt>
      <trkpt lat="-21.19204" lon="55.63904">
        <ele>2161.3</ele>
        <time>2013-03-25T12:56:24Z</time>
      </trkpt>
      <trkpt lat="-21.19212" lon="55.63901">
        <ele>2161.4</ele>
        <time>2013-03-25T12:56:31Z</time>
      </trkpt>
      <trkpt lat="-21.19213" lon="55.639">
        <ele>2161.4</ele>
        <time>2013-03-25T12:56:32Z</time>
      </trkpt>
      <trkpt lat="-21.19228" lon="55.63894">
        <ele>2161.4</ele>
        <time>2013-03-25T12:56:47Z</time>
      </trkpt>
      <trkpt lat="-21.19236" lon="55.6389">
        <ele>2161.6</ele>
        <time>2013-03-25T12:56:54Z</time>
      </trkpt>
      <trkpt lat="-21.19243" lon="55.63887">
        <ele>2162.7</ele>
        <time>2013-03-25T12:57:01Z</time>
      </trkpt>
      <trkpt lat="-21.19251" lon="55.63883">
        <ele>2163.8</ele>
        <time>2013-03-25T12:57:08Z</time>
      </trkpt>
      <trkpt lat="-21.19258" lon="55.63878">
        <ele>2163.4</ele>
        <time>2013-03-25T12:57:17Z</time>
      </trkpt>
      <trkpt lat="-21.19262" lon="55.6387">
        <ele>2164.1</ele>
        <time>2013-03-25T12:57:26Z</time>
      </trkpt>
      <trkpt lat="-21.19262" lon="55.63861">
        <ele>2164.7</ele>
        <time>2013-03-25T12:57:34Z</time>
      </trkpt>
      <trkpt lat="-21.19262" lon="55.6386">
        <ele>2165.1</ele>
        <time>2013-03-25T12:57:35Z</time>
      </trkpt>
      <trkpt lat="-21.19258" lon="55.63844">
        <ele>2163.7</ele>
        <time>2013-03-25T12:57:47Z</time>
      </trkpt>
      <trkpt lat="-21.19252" lon="55.63838">
        <ele>2163.1</ele>
        <time>2013-03-25T12:57:52Z</time>
      </trkpt>
      <trkpt lat="-21.19246" lon="55.63833">
        <ele>2164.6</ele>
        <time>2013-03-25T12:57:58Z</time>
      </trkpt>
      <trkpt lat="-21.1924" lon="55.63827">
        <ele>2163.5</ele>
        <time>2013-03-25T12:58:04Z</time>
      </trkpt>
      <trkpt lat="-21.19233" lon="55.63826">
        <ele>2161.9</ele>
        <time>2013-03-25T12:58:11Z</time>
      </trkpt>
      <trkpt lat="-21.19225" lon="55.63823">
        <ele>2161</ele>
        <time>2013-03-25T12:58:17Z</time>
      </trkpt>
      <trkpt lat="-21.19218" lon="55.63818">
        <ele>2161.9</ele>
        <time>2013-03-25T12:58:23Z</time>
      </trkpt>
      <trkpt lat="-21.19211" lon="55.63812">
        <ele>2160.7</ele>
        <time>2013-03-25T12:58:29Z</time>
      </trkpt>
      <trkpt lat="-21.19204" lon="55.63806">
        <ele>2160.6</ele>
        <time>2013-03-25T12:58:34Z</time>
      </trkpt>
      <trkpt lat="-21.19198" lon="55.638">
        <ele>2159.8</ele>
        <time>2013-03-25T12:58:40Z</time>
      </trkpt>
      <trkpt lat="-21.19197" lon="55.63799">
        <ele>2159.9</ele>
        <time>2013-03-25T12:58:41Z</time>
      </trkpt>
      <trkpt lat="-21.19188" lon="55.63786">
        <ele>2160.5</ele>
        <time>2013-03-25T12:58:52Z</time>
      </trkpt>
      <trkpt lat="-21.19184" lon="55.63777">
        <ele>2160.7</ele>
        <time>2013-03-25T12:58:57Z</time>
      </trkpt>
      <trkpt lat="-21.19178" lon="55.6377">
        <ele>2161.1</ele>
        <time>2013-03-25T12:59:04Z</time>
      </trkpt>
      <trkpt lat="-21.19175" lon="55.63762">
        <ele>2161.2</ele>
        <time>2013-03-25T12:59:11Z</time>
      </trkpt>
      <trkpt lat="-21.19171" lon="55.63753">
        <ele>2161.2</ele>
        <time>2013-03-25T12:59:18Z</time>
      </trkpt>
      <trkpt lat="-21.19168" lon="55.63745">
        <ele>2160.7</ele>
        <time>2013-03-25T12:59:24Z</time>
      </trkpt>
      <trkpt lat="-21.19166" lon="55.63736">
        <ele>2160.9</ele>
        <time>2013-03-25T12:59:31Z</time>
      </trkpt>
      <trkpt lat="-21.19164" lon="55.63727">
        <ele>2161</ele>
        <time>2013-03-25T12:59:38Z</time>
      </trkpt>
      <trkpt lat="-21.19163" lon="55.63717">
        <ele>2160.9</ele>
        <time>2013-03-25T12:59:45Z</time>
      </trkpt>
      <trkpt lat="-21.19163" lon="55.63716">
        <ele>2161.1</ele>
        <time>2013-03-25T12:59:46Z</time>
      </trkpt>
      <trkpt lat="-21.19159" lon="55.637">
        <ele>2160.2</ele>
        <time>2013-03-25T12:59:58Z</time>
      </trkpt>
      <trkpt lat="-21.19157" lon="55.63691">
        <ele>2161.3</ele>
        <time>2013-03-25T13:00:07Z</time>
      </trkpt>
      <trkpt lat="-21.19156" lon="55.63681">
        <ele>2164.1</ele>
        <time>2013-03-25T13:00:20Z</time>
      </trkpt>
      <trkpt lat="-21.19155" lon="55.63672">
        <ele>2167.1</ele>
        <time>2013-03-25T13:00:31Z</time>
      </trkpt>
      <trkpt lat="-21.19155" lon="55.63663">
        <ele>2168.2</ele>
        <time>2013-03-25T13:00:44Z</time>
      </trkpt>
      <trkpt lat="-21.19157" lon="55.63654">
        <ele>2169.6</ele>
        <time>2013-03-25T13:00:53Z</time>
      </trkpt>
      <trkpt lat="-21.19157" lon="55.63652">
        <ele>2170</ele>
        <time>2013-03-25T13:00:54Z</time>
      </trkpt>
      <trkpt lat="-21.19155" lon="55.63637">
        <ele>2171.6</ele>
        <time>2013-03-25T13:01:08Z</time>
      </trkpt>
      <trkpt lat="-21.1915" lon="55.6363">
        <ele>2172</ele>
        <time>2013-03-25T13:01:16Z</time>
      </trkpt>
      <trkpt lat="-21.19147" lon="55.63621">
        <ele>2172.4</ele>
        <time>2013-03-25T13:01:24Z</time>
      </trkpt>
      <trkpt lat="-21.19143" lon="55.63614">
        <ele>2172</ele>
        <time>2013-03-25T13:01:30Z</time>
      </trkpt>
      <trkpt lat="-21.19142" lon="55.63605">
        <ele>2173.1</ele>
        <time>2013-03-25T13:01:37Z</time>
      </trkpt>
      <trkpt lat="-21.19137" lon="55.63598">
        <ele>2174.2</ele>
        <time>2013-03-25T13:01:44Z</time>
      </trkpt>
      <trkpt lat="-21.19134" lon="55.63589">
        <ele>2175.3</ele>
        <time>2013-03-25T13:01:53Z</time>
      </trkpt>
      <trkpt lat="-21.1913" lon="55.63581">
        <ele>2177</ele>
        <time>2013-03-25T13:02:02Z</time>
      </trkpt>
      <trkpt lat="-21.19129" lon="55.6358">
        <ele>2177.1</ele>
        <time>2013-03-25T13:02:03Z</time>
      </trkpt>
      <trkpt lat="-21.19121" lon="55.63566">
        <ele>2176.7</ele>
        <time>2013-03-25T13:02:15Z</time>
      </trkpt>
      <trkpt lat="-21.19118" lon="55.63558">
        <ele>2176.8</ele>
        <time>2013-03-25T13:02:23Z</time>
      </trkpt>
      <trkpt lat="-21.19109" lon="55.63558">
        <ele>2179.2</ele>
        <time>2013-03-25T13:02:33Z</time>
      </trkpt>
      <trkpt lat="-21.19102" lon="55.63562">
        <ele>2179.2</ele>
        <time>2013-03-25T13:02:40Z</time>
      </trkpt>
      <trkpt lat="-21.19094" lon="55.63566">
        <ele>2179.3</ele>
        <time>2013-03-25T13:02:47Z</time>
      </trkpt>
      <trkpt lat="-21.19085" lon="55.63567">
        <ele>2178.9</ele>
        <time>2013-03-25T13:02:53Z</time>
      </trkpt>
      <trkpt lat="-21.19077" lon="55.63565">
        <ele>2179</ele>
        <time>2013-03-25T13:02:59Z</time>
      </trkpt>
      <trkpt lat="-21.19069" lon="55.63562">
        <ele>2178.7</ele>
        <time>2013-03-25T13:03:06Z</time>
      </trkpt>
      <trkpt lat="-21.19068" lon="55.63562">
        <ele>2178.4</ele>
        <time>2013-03-25T13:03:07Z</time>
      </trkpt>
      <trkpt lat="-21.19052" lon="55.6356">
        <ele>2177.7</ele>
        <time>2013-03-25T13:03:20Z</time>
      </trkpt>
      <trkpt lat="-21.19045" lon="55.63563">
        <ele>2177.4</ele>
        <time>2013-03-25T13:03:28Z</time>
      </trkpt>
      <trkpt lat="-21.19039" lon="55.6357">
        <ele>2178.6</ele>
        <time>2013-03-25T13:03:36Z</time>
      </trkpt>
      <trkpt lat="-21.1903" lon="55.63566">
        <ele>2177.9</ele>
        <time>2013-03-25T13:03:56Z</time>
      </trkpt>
      <trkpt lat="-21.19034" lon="55.63574">
        <ele>2178.2</ele>
        <time>2013-03-25T13:04:38Z</time>
      </trkpt>
      <trkpt lat="-21.19035" lon="55.63575">
        <ele>2178.3</ele>
        <time>2013-03-25T13:04:39Z</time>
      </trkpt>
      <trkpt lat="-21.19041" lon="55.63591">
        <ele>2178</ele>
        <time>2013-03-25T13:05:26Z</time>
      </trkpt>
      <trkpt lat="-21.19038" lon="55.63582">
        <ele>2178.4</ele>
        <time>2013-03-25T13:06:02Z</time>
      </trkpt>
      <trkpt lat="-21.19038" lon="55.63581">
        <ele>2178.5</ele>
        <time>2013-03-25T13:06:03Z</time>
      </trkpt>
      <trkpt lat="-21.1903" lon="55.63567">
        <ele>2178.4</ele>
        <time>2013-03-25T13:06:16Z</time>
      </trkpt>
      <trkpt lat="-21.19023" lon="55.63562">
        <ele>2178</ele>
        <time>2013-03-25T13:06:22Z</time>
      </trkpt>
      <trkpt lat="-21.19016" lon="55.63557">
        <ele>2178.2</ele>
        <time>2013-03-25T13:06:28Z</time>
      </trkpt>
      <trkpt lat="-21.19011" lon="55.63551">
        <ele>2177.5</ele>
        <time>2013-03-25T13:06:34Z</time>
      </trkpt>
      <trkpt lat="-21.19005" lon="55.63545">
        <ele>2177.8</ele>
        <time>2013-03-25T13:06:40Z</time>
      </trkpt>
      <trkpt lat="-21.19011" lon="55.63551">
        <ele>2180</ele>
        <time>2013-03-25T13:08:38Z</time>
      </trkpt>
      <trkpt lat="-21.19012" lon="55.63552">
        <ele>2179.8</ele>
        <time>2013-03-25T13:08:39Z</time>
      </trkpt>
      <trkpt lat="-21.19024" lon="55.63562">
        <ele>2180.7</ele>
        <time>2013-03-25T13:08:52Z</time>
      </trkpt>
      <trkpt lat="-21.19032" lon="55.63566">
        <ele>2180.2</ele>
        <time>2013-03-25T13:08:58Z</time>
      </trkpt>
      <trkpt lat="-21.19038" lon="55.63572">
        <ele>2181.5</ele>
        <time>2013-03-25T13:09:05Z</time>
      </trkpt>
      <trkpt lat="-21.19041" lon="55.6358">
        <ele>2182.1</ele>
        <time>2013-03-25T13:09:13Z</time>
      </trkpt>
      <trkpt lat="-21.19042" lon="55.63589">
        <ele>2180.9</ele>
        <time>2013-03-25T13:09:20Z</time>
      </trkpt>
      <trkpt lat="-21.19042" lon="55.63598">
        <ele>2180.1</ele>
        <time>2013-03-25T13:09:28Z</time>
      </trkpt>
      <trkpt lat="-21.19039" lon="55.63606">
        <ele>2179.8</ele>
        <time>2013-03-25T13:09:34Z</time>
      </trkpt>
      <trkpt lat="-21.19037" lon="55.63615">
        <ele>2179.9</ele>
        <time>2013-03-25T13:09:41Z</time>
      </trkpt>
      <trkpt lat="-21.19036" lon="55.63616">
        <ele>2179.4</ele>
        <time>2013-03-25T13:09:42Z</time>
      </trkpt>
      <trkpt lat="-21.19039" lon="55.63631">
        <ele>2179.6</ele>
        <time>2013-03-25T13:10:05Z</time>
      </trkpt>
      <trkpt lat="-21.19041" lon="55.63639">
        <ele>2179.3</ele>
        <time>2013-03-25T13:10:12Z</time>
      </trkpt>
      <trkpt lat="-21.19038" lon="55.63648">
        <ele>2178.5</ele>
        <time>2013-03-25T13:10:19Z</time>
      </trkpt>
      <trkpt lat="-21.19037" lon="55.63657">
        <ele>2177.9</ele>
        <time>2013-03-25T13:10:26Z</time>
      </trkpt>
      <trkpt lat="-21.19036" lon="55.63667">
        <ele>2177</ele>
        <time>2013-03-25T13:10:33Z</time>
      </trkpt>
      <trkpt lat="-21.19034" lon="55.63675">
        <ele>2176.5</ele>
        <time>2013-03-25T13:10:39Z</time>
      </trkpt>
      <trkpt lat="-21.19031" lon="55.63684">
        <ele>2175.4</ele>
        <time>2013-03-25T13:10:45Z</time>
      </trkpt>
      <trkpt lat="-21.19031" lon="55.63686">
        <ele>2175.3</ele>
        <time>2013-03-25T13:10:46Z</time>
      </trkpt>
      <trkpt lat="-21.19024" lon="55.63699">
        <ele>2174.4</ele>
        <time>2013-03-25T13:10:58Z</time>
      </trkpt>
      <trkpt lat="-21.1902" lon="55.63707">
        <ele>2174.1</ele>
        <time>2013-03-25T13:11:05Z</time>
      </trkpt>
      <trkpt lat="-21.19015" lon="55.63715">
        <ele>2172</ele>
        <time>2013-03-25T13:11:14Z</time>
      </trkpt>
      <trkpt lat="-21.19009" lon="55.63722">
        <ele>2168.9</ele>
        <time>2013-03-25T13:11:34Z</time>
      </trkpt>
      <trkpt lat="-21.19004" lon="55.6373">
        <ele>2163.7</ele>
        <time>2013-03-25T13:11:53Z</time>
      </trkpt>
      <trkpt lat="-21.19004" lon="55.6373">
        <ele>2163.3</ele>
        <time>2013-03-25T13:11:54Z</time>
      </trkpt>
      <trkpt lat="-21.18995" lon="55.63745">
        <ele>2158.2</ele>
        <time>2013-03-25T13:12:14Z</time>
      </trkpt>
      <trkpt lat="-21.18989" lon="55.63751">
        <ele>2157.3</ele>
        <time>2013-03-25T13:12:19Z</time>
      </trkpt>
      <trkpt lat="-21.18983" lon="55.63757">
        <ele>2156.4</ele>
        <time>2013-03-25T13:12:24Z</time>
      </trkpt>
      <trkpt lat="-21.18978" lon="55.63764">
        <ele>2155.7</ele>
        <time>2013-03-25T13:12:29Z</time>
      </trkpt>
      <trkpt lat="-21.18973" lon="55.63771">
        <ele>2155.9</ele>
        <time>2013-03-25T13:12:34Z</time>
      </trkpt>
      <trkpt lat="-21.18969" lon="55.63778">
        <ele>2155.9</ele>
        <time>2013-03-25T13:12:39Z</time>
      </trkpt>
      <trkpt lat="-21.18964" lon="55.63785">
        <ele>2155.7</ele>
        <time>2013-03-25T13:12:44Z</time>
      </trkpt>
      <trkpt lat="-21.1896" lon="55.63793">
        <ele>2155.7</ele>
        <time>2013-03-25T13:12:50Z</time>
      </trkpt>
      <trkpt lat="-21.18955" lon="55.638">
        <ele>2155.6</ele>
        <time>2013-03-25T13:12:55Z</time>
      </trkpt>
      <trkpt lat="-21.18954" lon="55.63801">
        <ele>2155.3</ele>
        <time>2013-03-25T13:12:56Z</time>
      </trkpt>
      <trkpt lat="-21.18945" lon="55.63815">
        <ele>2155.4</ele>
        <time>2013-03-25T13:13:07Z</time>
      </trkpt>
      <trkpt lat="-21.1894" lon="55.63822">
        <ele>2155.9</ele>
        <time>2013-03-25T13:13:13Z</time>
      </trkpt>
      <trkpt lat="-21.18934" lon="55.63829">
        <ele>2155.5</ele>
        <time>2013-03-25T13:13:19Z</time>
      </trkpt>
      <trkpt lat="-21.1893" lon="55.63836">
        <ele>2155</ele>
        <time>2013-03-25T13:13:25Z</time>
      </trkpt>
      <trkpt lat="-21.18926" lon="55.63844">
        <ele>2154.7</ele>
        <time>2013-03-25T13:13:31Z</time>
      </trkpt>
      <trkpt lat="-21.18922" lon="55.63852">
        <ele>2155.3</ele>
        <time>2013-03-25T13:13:37Z</time>
      </trkpt>
      <trkpt lat="-21.18919" lon="55.6386">
        <ele>2154.9</ele>
        <time>2013-03-25T13:13:43Z</time>
      </trkpt>
      <trkpt lat="-21.18918" lon="55.63869">
        <ele>2155.3</ele>
        <time>2013-03-25T13:13:51Z</time>
      </trkpt>
      <trkpt lat="-21.18911" lon="55.63875">
        <ele>2154</ele>
        <time>2013-03-25T13:13:58Z</time>
      </trkpt>
      <trkpt lat="-21.1891" lon="55.63876">
        <ele>2153.9</ele>
        <time>2013-03-25T13:13:59Z</time>
      </trkpt>
      <trkpt lat="-21.18908" lon="55.63888">
        <ele>2151.1</ele>
        <time>2013-03-25T13:14:14Z</time>
      </trkpt>
      <trkpt lat="-21.18914" lon="55.63895">
        <ele>2151.4</ele>
        <time>2013-03-25T13:14:22Z</time>
      </trkpt>
      <trkpt lat="-21.18913" lon="55.63904">
        <ele>2152.7</ele>
        <time>2013-03-25T13:14:33Z</time>
      </trkpt>
      <trkpt lat="-21.18909" lon="55.63912">
        <ele>2154.7</ele>
        <time>2013-03-25T13:14:40Z</time>
      </trkpt>
      <trkpt lat="-21.18906" lon="55.6392">
        <ele>2154.6</ele>
        <time>2013-03-25T13:14:47Z</time>
      </trkpt>
      <trkpt lat="-21.18899" lon="55.63925">
        <ele>2154.2</ele>
        <time>2013-03-25T13:14:54Z</time>
      </trkpt>
      <trkpt lat="-21.18895" lon="55.63932">
        <ele>2153.2</ele>
        <time>2013-03-25T13:15:00Z</time>
      </trkpt>
      <trkpt lat="-21.18894" lon="55.63934">
        <ele>2153.2</ele>
        <time>2013-03-25T13:15:01Z</time>
      </trkpt>
      <trkpt lat="-21.18881" lon="55.63943">
        <ele>2151.8</ele>
        <time>2013-03-25T13:15:12Z</time>
      </trkpt>
      <trkpt lat="-21.18873" lon="55.63945">
        <ele>2151</ele>
        <time>2013-03-25T13:15:18Z</time>
      </trkpt>
      <trkpt lat="-21.18865" lon="55.63946">
        <ele>2150.1</ele>
        <time>2013-03-25T13:15:24Z</time>
      </trkpt>
      <trkpt lat="-21.18857" lon="55.63948">
        <ele>2150.6</ele>
        <time>2013-03-25T13:15:31Z</time>
      </trkpt>
      <trkpt lat="-21.18848" lon="55.63947">
        <ele>2152</ele>
        <time>2013-03-25T13:15:38Z</time>
      </trkpt>
      <trkpt lat="-21.18839" lon="55.63948">
        <ele>2152.7</ele>
        <time>2013-03-25T13:15:44Z</time>
      </trkpt>
      <trkpt lat="-21.18832" lon="55.6395">
        <ele>2153.8</ele>
        <time>2013-03-25T13:15:50Z</time>
      </trkpt>
      <trkpt lat="-21.18824" lon="55.63953">
        <ele>2153.6</ele>
        <time>2013-03-25T13:15:56Z</time>
      </trkpt>
      <trkpt lat="-21.18816" lon="55.63954">
        <ele>2153.5</ele>
        <time>2013-03-25T13:16:02Z</time>
      </trkpt>
      <trkpt lat="-21.18814" lon="55.63955">
        <ele>2153.9</ele>
        <time>2013-03-25T13:16:03Z</time>
      </trkpt>
      <trkpt lat="-21.18802" lon="55.63964">
        <ele>2153.4</ele>
        <time>2013-03-25T13:16:14Z</time>
      </trkpt>
      <trkpt lat="-21.18797" lon="55.63969">
        <ele>2153.9</ele>
        <time>2013-03-25T13:16:20Z</time>
      </trkpt>
      <trkpt lat="-21.18789" lon="55.63974">
        <ele>2154.4</ele>
        <time>2013-03-25T13:16:27Z</time>
      </trkpt>
      <trkpt lat="-21.18781" lon="55.63979">
        <ele>2155.5</ele>
        <time>2013-03-25T13:16:34Z</time>
      </trkpt>
      <trkpt lat="-21.18774" lon="55.63984">
        <ele>2155.2</ele>
        <time>2013-03-25T13:16:41Z</time>
      </trkpt>
      <trkpt lat="-21.18766" lon="55.63986">
        <ele>2153.9</ele>
        <time>2013-03-25T13:16:49Z</time>
      </trkpt>
      <trkpt lat="-21.18757" lon="55.63989">
        <ele>2153.9</ele>
        <time>2013-03-25T13:17:35Z</time>
      </trkpt>
      <trkpt lat="-21.18756" lon="55.63988">
        <ele>2153.7</ele>
        <time>2013-03-25T13:17:36Z</time>
      </trkpt>
      <trkpt lat="-21.18743" lon="55.63981">
        <ele>2153.7</ele>
        <time>2013-03-25T13:17:50Z</time>
      </trkpt>
      <trkpt lat="-21.18735" lon="55.63978">
        <ele>2153.4</ele>
        <time>2013-03-25T13:17:57Z</time>
      </trkpt>
      <trkpt lat="-21.18727" lon="55.6398">
        <ele>2153.5</ele>
        <time>2013-03-25T13:18:04Z</time>
      </trkpt>
      <trkpt lat="-21.18718" lon="55.63982">
        <ele>2152.3</ele>
        <time>2013-03-25T13:18:11Z</time>
      </trkpt>
      <trkpt lat="-21.18711" lon="55.63977">
        <ele>2153.1</ele>
        <time>2013-03-25T13:18:17Z</time>
      </trkpt>
      <trkpt lat="-21.18703" lon="55.63976">
        <ele>2152.6</ele>
        <time>2013-03-25T13:18:23Z</time>
      </trkpt>
      <trkpt lat="-21.18694" lon="55.63975">
        <ele>2152.2</ele>
        <time>2013-03-25T13:18:30Z</time>
      </trkpt>
      <trkpt lat="-21.18688" lon="55.63969">
        <ele>2151.9</ele>
        <time>2013-03-25T13:18:37Z</time>
      </trkpt>
      <trkpt lat="-21.18687" lon="55.63968">
        <ele>2151.5</ele>
        <time>2013-03-25T13:18:38Z</time>
      </trkpt>
      <trkpt lat="-21.18673" lon="55.6396">
        <ele>2150.4</ele>
        <time>2013-03-25T13:18:51Z</time>
      </trkpt>
      <trkpt lat="-21.18665" lon="55.63957">
        <ele>2149.3</ele>
        <time>2013-03-25T13:18:57Z</time>
      </trkpt>
      <trkpt lat="-21.18657" lon="55.63954">
        <ele>2148.7</ele>
        <time>2013-03-25T13:19:04Z</time>
      </trkpt>
      <trkpt lat="-21.1865" lon="55.63948">
        <ele>2148.3</ele>
        <time>2013-03-25T13:19:11Z</time>
      </trkpt>
      <trkpt lat="-21.18642" lon="55.63946">
        <ele>2147.9</ele>
        <time>2013-03-25T13:19:22Z</time>
      </trkpt>
      <trkpt lat="-21.18634" lon="55.63948">
        <ele>2147.9</ele>
        <time>2013-03-25T13:19:27Z</time>
      </trkpt>
      <trkpt lat="-21.18626" lon="55.63944">
        <ele>2146.7</ele>
        <time>2013-03-25T13:19:35Z</time>
      </trkpt>
      <trkpt lat="-21.18617" lon="55.63942">
        <ele>2147.1</ele>
        <time>2013-03-25T13:19:43Z</time>
      </trkpt>
      <trkpt lat="-21.18616" lon="55.63942">
        <ele>2147.3</ele>
        <time>2013-03-25T13:19:44Z</time>
      </trkpt>
      <trkpt lat="-21.18601" lon="55.63944">
        <ele>2146.9</ele>
        <time>2013-03-25T13:19:57Z</time>
      </trkpt>
      <trkpt lat="-21.18593" lon="55.63947">
        <ele>2148.3</ele>
        <time>2013-03-25T13:20:05Z</time>
      </trkpt>
      <trkpt lat="-21.18584" lon="55.63947">
        <ele>2147.8</ele>
        <time>2013-03-25T13:20:12Z</time>
      </trkpt>
      <trkpt lat="-21.18577" lon="55.63951">
        <ele>2147.1</ele>
        <time>2013-03-25T13:20:19Z</time>
      </trkpt>
      <trkpt lat="-21.1857" lon="55.63955">
        <ele>2146.5</ele>
        <time>2013-03-25T13:20:25Z</time>
      </trkpt>
      <trkpt lat="-21.18563" lon="55.63959">
        <ele>2146.1</ele>
        <time>2013-03-25T13:20:31Z</time>
      </trkpt>
      <trkpt lat="-21.18558" lon="55.63966">
        <ele>2144.1</ele>
        <time>2013-03-25T13:20:38Z</time>
      </trkpt>
      <trkpt lat="-21.18553" lon="55.63974">
        <ele>2143.4</ele>
        <time>2013-03-25T13:20:48Z</time>
      </trkpt>
      <trkpt lat="-21.18553" lon="55.63975">
        <ele>2142.9</ele>
        <time>2013-03-25T13:20:49Z</time>
      </trkpt>
      <trkpt lat="-21.18537" lon="55.63979">
        <ele>2142.7</ele>
        <time>2013-03-25T13:21:04Z</time>
      </trkpt>
      <trkpt lat="-21.1853" lon="55.63978">
        <ele>2141.6</ele>
        <time>2013-03-25T13:21:10Z</time>
      </trkpt>
      <trkpt lat="-21.18522" lon="55.63981">
        <ele>2141.2</ele>
        <time>2013-03-25T13:21:16Z</time>
      </trkpt>
      <trkpt lat="-21.18513" lon="55.63981">
        <ele>2141.7</ele>
        <time>2013-03-25T13:21:23Z</time>
      </trkpt>
      <trkpt lat="-21.18505" lon="55.63981">
        <ele>2142.4</ele>
        <time>2013-03-25T13:21:30Z</time>
      </trkpt>
      <trkpt lat="-21.18496" lon="55.63983">
        <ele>2142.3</ele>
        <time>2013-03-25T13:21:36Z</time>
      </trkpt>
      <trkpt lat="-21.18488" lon="55.63984">
        <ele>2141.5</ele>
        <time>2013-03-25T13:21:43Z</time>
      </trkpt>
      <trkpt lat="-21.1848" lon="55.63988">
        <ele>2140.2</ele>
        <time>2013-03-25T13:21:51Z</time>
      </trkpt>
      <trkpt lat="-21.18478" lon="55.63988">
        <ele>2140.5</ele>
        <time>2013-03-25T13:21:52Z</time>
      </trkpt>
      <trkpt lat="-21.18463" lon="55.63989">
        <ele>2139.7</ele>
        <time>2013-03-25T13:22:05Z</time>
      </trkpt>
      <trkpt lat="-21.18454" lon="55.6399">
        <ele>2137.8</ele>
        <time>2013-03-25T13:22:12Z</time>
      </trkpt>
      <trkpt lat="-21.18447" lon="55.63988">
        <ele>2136.1</ele>
        <time>2013-03-25T13:22:18Z</time>
      </trkpt>
      <trkpt lat="-21.18438" lon="55.63986">
        <ele>2133.7</ele>
        <time>2013-03-25T13:22:27Z</time>
      </trkpt>
      <trkpt lat="-21.1843" lon="55.63984">
        <ele>2131.3</ele>
        <time>2013-03-25T13:22:35Z</time>
      </trkpt>
      <trkpt lat="-21.18422" lon="55.63985">
        <ele>2128.8</ele>
        <time>2013-03-25T13:22:44Z</time>
      </trkpt>
      <trkpt lat="-21.18414" lon="55.63985">
        <ele>2125.8</ele>
        <time>2013-03-25T13:22:52Z</time>
      </trkpt>
      <trkpt lat="-21.18413" lon="55.63985">
        <ele>2125.5</ele>
        <time>2013-03-25T13:22:53Z</time>
      </trkpt>
      <trkpt lat="-21.18397" lon="55.63988">
        <ele>2118</ele>
        <time>2013-03-25T13:23:13Z</time>
      </trkpt>
      <trkpt lat="-21.1839" lon="55.63992">
        <ele>2115.2</ele>
        <time>2013-03-25T13:23:24Z</time>
      </trkpt>
      <trkpt lat="-21.18382" lon="55.63993">
        <ele>2114.2</ele>
        <time>2013-03-25T13:23:31Z</time>
      </trkpt>
      <trkpt lat="-21.18374" lon="55.63993">
        <ele>2112.6</ele>
        <time>2013-03-25T13:23:39Z</time>
      </trkpt>
      <trkpt lat="-21.18365" lon="55.63995">
        <ele>2111.8</ele>
        <time>2013-03-25T13:23:47Z</time>
      </trkpt>
      <trkpt lat="-21.18358" lon="55.63998">
        <ele>2110.7</ele>
        <time>2013-03-25T13:23:54Z</time>
      </trkpt>
      <trkpt lat="-21.18357" lon="55.63999">
        <ele>2110.6</ele>
        <time>2013-03-25T13:23:55Z</time>
      </trkpt>
      <trkpt lat="-21.18341" lon="55.63999">
        <ele>2108.5</ele>
        <time>2013-03-25T13:24:10Z</time>
      </trkpt>
      <trkpt lat="-21.18334" lon="55.63998">
        <ele>2107.6</ele>
        <time>2013-03-25T13:24:15Z</time>
      </trkpt>
      <trkpt lat="-21.18325" lon="55.63996">
        <ele>2105.9</ele>
        <time>2013-03-25T13:24:22Z</time>
      </trkpt>
      <trkpt lat="-21.18317" lon="55.63993">
        <ele>2105.3</ele>
        <time>2013-03-25T13:24:30Z</time>
      </trkpt>
      <trkpt lat="-21.1831" lon="55.63988">
        <ele>2101.5</ele>
        <time>2013-03-25T13:24:41Z</time>
      </trkpt>
      <trkpt lat="-21.18302" lon="55.63987">
        <ele>2101.8</ele>
        <time>2013-03-25T13:24:48Z</time>
      </trkpt>
      <trkpt lat="-21.18294" lon="55.63984">
        <ele>2099.5</ele>
        <time>2013-03-25T13:24:55Z</time>
      </trkpt>
      <trkpt lat="-21.18293" lon="55.63984">
        <ele>2099.1</ele>
        <time>2013-03-25T13:24:56Z</time>
      </trkpt>
      <trkpt lat="-21.18277" lon="55.63983">
        <ele>2096.8</ele>
        <time>2013-03-25T13:25:10Z</time>
      </trkpt>
      <trkpt lat="-21.18268" lon="55.63983">
        <ele>2097.9</ele>
        <time>2013-03-25T13:25:18Z</time>
      </trkpt>
      <trkpt lat="-21.18261" lon="55.6398">
        <ele>2096.8</ele>
        <time>2013-03-25T13:25:27Z</time>
      </trkpt>
      <trkpt lat="-21.18254" lon="55.63975">
        <ele>2095.1</ele>
        <time>2013-03-25T13:25:33Z</time>
      </trkpt>
      <trkpt lat="-21.18247" lon="55.63972">
        <ele>2093.9</ele>
        <time>2013-03-25T13:25:40Z</time>
      </trkpt>
      <trkpt lat="-21.18238" lon="55.63971">
        <ele>2093.2</ele>
        <time>2013-03-25T13:25:47Z</time>
      </trkpt>
      <trkpt lat="-21.1823" lon="55.63971">
        <ele>2091.6</ele>
        <time>2013-03-25T13:25:55Z</time>
      </trkpt>
      <trkpt lat="-21.18221" lon="55.6397">
        <ele>2090.2</ele>
        <time>2013-03-25T13:26:02Z</time>
      </trkpt>
      <trkpt lat="-21.18221" lon="55.63969">
        <ele>2090</ele>
        <time>2013-03-25T13:26:03Z</time>
      </trkpt>
      <trkpt lat="-21.18205" lon="55.63972">
        <ele>2089.5</ele>
        <time>2013-03-25T13:26:17Z</time>
      </trkpt>
      <trkpt lat="-21.18197" lon="55.63974">
        <ele>2088</ele>
        <time>2013-03-25T13:26:23Z</time>
      </trkpt>
      <trkpt lat="-21.18189" lon="55.63975">
        <ele>2086.3</ele>
        <time>2013-03-25T13:26:31Z</time>
      </trkpt>
      <trkpt lat="-21.18182" lon="55.6398">
        <ele>2085.6</ele>
        <time>2013-03-25T13:26:38Z</time>
      </trkpt>
      <trkpt lat="-21.18175" lon="55.63986">
        <ele>2083.8</ele>
        <time>2013-03-25T13:26:46Z</time>
      </trkpt>
      <trkpt lat="-21.18168" lon="55.63991">
        <ele>2082.8</ele>
        <time>2013-03-25T13:26:52Z</time>
      </trkpt>
      <trkpt lat="-21.18162" lon="55.63996">
        <ele>2082.3</ele>
        <time>2013-03-25T13:26:58Z</time>
      </trkpt>
      <trkpt lat="-21.18156" lon="55.64003">
        <ele>2081.8</ele>
        <time>2013-03-25T13:27:04Z</time>
      </trkpt>
      <trkpt lat="-21.18155" lon="55.64004">
        <ele>2081.2</ele>
        <time>2013-03-25T13:27:05Z</time>
      </trkpt>
      <trkpt lat="-21.18144" lon="55.64014">
        <ele>2080.4</ele>
        <time>2013-03-25T13:27:17Z</time>
      </trkpt>
      <trkpt lat="-21.18137" lon="55.64019">
        <ele>2079.4</ele>
        <time>2013-03-25T13:27:24Z</time>
      </trkpt>
      <trkpt lat="-21.18129" lon="55.64024">
        <ele>2078.1</ele>
        <time>2013-03-25T13:27:31Z</time>
      </trkpt>
      <trkpt lat="-21.18122" lon="55.64026">
        <ele>2077.1</ele>
        <time>2013-03-25T13:27:37Z</time>
      </trkpt>
      <trkpt lat="-21.18114" lon="55.64027">
        <ele>2076.5</ele>
        <time>2013-03-25T13:27:44Z</time>
      </trkpt>
      <trkpt lat="-21.18105" lon="55.64026">
        <ele>2074.3</ele>
        <time>2013-03-25T13:27:53Z</time>
      </trkpt>
      <trkpt lat="-21.18097" lon="55.64023">
        <ele>2072.2</ele>
        <time>2013-03-25T13:28:03Z</time>
      </trkpt>
      <trkpt lat="-21.18089" lon="55.6402">
        <ele>2070.3</ele>
        <time>2013-03-25T13:28:11Z</time>
      </trkpt>
      <trkpt lat="-21.18088" lon="55.6402">
        <ele>2069.7</ele>
        <time>2013-03-25T13:28:12Z</time>
      </trkpt>
      <trkpt lat="-21.18073" lon="55.64011">
        <ele>2066</ele>
        <time>2013-03-25T13:28:31Z</time>
      </trkpt>
      <trkpt lat="-21.18067" lon="55.64006">
        <ele>2065.2</ele>
        <time>2013-03-25T13:28:38Z</time>
      </trkpt>
      <trkpt lat="-21.1806" lon="55.64002">
        <ele>2064.4</ele>
        <time>2013-03-25T13:28:45Z</time>
      </trkpt>
      <trkpt lat="-21.18055" lon="55.63994">
        <ele>2062.6</ele>
        <time>2013-03-25T13:28:53Z</time>
      </trkpt>
      <trkpt lat="-21.18052" lon="55.63986">
        <ele>2061</ele>
        <time>2013-03-25T13:29:02Z</time>
      </trkpt>
      <trkpt lat="-21.18047" lon="55.63979">
        <ele>2059.7</ele>
        <time>2013-03-25T13:29:10Z</time>
      </trkpt>
      <trkpt lat="-21.18039" lon="55.63975">
        <ele>2057.9</ele>
        <time>2013-03-25T13:29:19Z</time>
      </trkpt>
      <trkpt lat="-21.18039" lon="55.63974">
        <ele>2058</ele>
        <time>2013-03-25T13:29:20Z</time>
      </trkpt>
      <trkpt lat="-21.1804" lon="55.63957">
        <ele>2053.5</ele>
        <time>2013-03-25T13:29:35Z</time>
      </trkpt>
      <trkpt lat="-21.18045" lon="55.6395">
        <ele>2051.9</ele>
        <time>2013-03-25T13:29:42Z</time>
      </trkpt>
      <trkpt lat="-21.18049" lon="55.63943">
        <ele>2051.4</ele>
        <time>2013-03-25T13:29:49Z</time>
      </trkpt>
      <trkpt lat="-21.18046" lon="55.63935">
        <ele>2048.6</ele>
        <time>2013-03-25T13:29:58Z</time>
      </trkpt>
      <trkpt lat="-21.18039" lon="55.63928">
        <ele>2046.7</ele>
        <time>2013-03-25T13:30:09Z</time>
      </trkpt>
      <trkpt lat="-21.18039" lon="55.63919">
        <ele>2044.3</ele>
        <time>2013-03-25T13:30:18Z</time>
      </trkpt>
      <trkpt lat="-21.18032" lon="55.63913">
        <ele>2039.8</ele>
        <time>2013-03-25T13:30:31Z</time>
      </trkpt>
      <trkpt lat="-21.18031" lon="55.63912">
        <ele>2039.5</ele>
        <time>2013-03-25T13:30:32Z</time>
      </trkpt>
      <trkpt lat="-21.18021" lon="55.639">
        <ele>2028.7</ele>
        <time>2013-03-25T13:31:04Z</time>
      </trkpt>
      <trkpt lat="-21.18013" lon="55.63896">
        <ele>2027.5</ele>
        <time>2013-03-25T13:31:13Z</time>
      </trkpt>
      <trkpt lat="-21.18004" lon="55.63896">
        <ele>2026.8</ele>
        <time>2013-03-25T13:31:22Z</time>
      </trkpt>
      <trkpt lat="-21.17996" lon="55.63891">
        <ele>2023.8</ele>
        <time>2013-03-25T13:31:36Z</time>
      </trkpt>
      <trkpt lat="-21.17996" lon="55.6389">
        <ele>2023.8</ele>
        <time>2013-03-25T13:31:37Z</time>
      </trkpt>
      <trkpt lat="-21.17997" lon="55.63881">
        <ele>2013.6</ele>
        <time>2013-03-25T13:32:23Z</time>
      </trkpt>
      <trkpt lat="-21.1799" lon="55.63875">
        <ele>2010.4</ele>
        <time>2013-03-25T13:32:41Z</time>
      </trkpt>
      <trkpt lat="-21.1799" lon="55.63875">
        <ele>2010.1</ele>
        <time>2013-03-25T13:32:42Z</time>
      </trkpt>
      <trkpt lat="-21.1799" lon="55.63861">
        <ele>2001.4</ele>
        <time>2013-03-25T13:33:18Z</time>
      </trkpt>
      <trkpt lat="-21.17995" lon="55.63853">
        <ele>1998.9</ele>
        <time>2013-03-25T13:33:34Z</time>
      </trkpt>
      <trkpt lat="-21.17997" lon="55.63844">
        <ele>1994.7</ele>
        <time>2013-03-25T13:33:47Z</time>
      </trkpt>
      <trkpt lat="-21.17997" lon="55.63844">
        <ele>1994.4</ele>
        <time>2013-03-25T13:33:48Z</time>
      </trkpt>
      <trkpt lat="-21.18011" lon="55.63835">
        <ele>1989.7</ele>
        <time>2013-03-25T13:34:03Z</time>
      </trkpt>
      <trkpt lat="-21.18011" lon="55.63825">
        <ele>1985.2</ele>
        <time>2013-03-25T13:34:28Z</time>
      </trkpt>
      <trkpt lat="-21.18011" lon="55.63816">
        <ele>1977.6</ele>
        <time>2013-03-25T13:34:51Z</time>
      </trkpt>
      <trkpt lat="-21.18011" lon="55.63815">
        <ele>1977.3</ele>
        <time>2013-03-25T13:34:52Z</time>
      </trkpt>
      <trkpt lat="-21.18003" lon="55.63799">
        <ele>1971</ele>
        <time>2013-03-25T13:35:20Z</time>
      </trkpt>
      <trkpt lat="-21.17998" lon="55.63791">
        <ele>1967.3</ele>
        <time>2013-03-25T13:35:33Z</time>
      </trkpt>
      <trkpt lat="-21.18004" lon="55.63785">
        <ele>1963.1</ele>
        <time>2013-03-25T13:35:51Z</time>
      </trkpt>
      <trkpt lat="-21.18008" lon="55.63777">
        <ele>1958.7</ele>
        <time>2013-03-25T13:36:11Z</time>
      </trkpt>
      <trkpt lat="-21.18008" lon="55.63776">
        <ele>1958.6</ele>
        <time>2013-03-25T13:36:12Z</time>
      </trkpt>
      <trkpt lat="-21.18016" lon="55.6376">
        <ele>1948</ele>
        <time>2013-03-25T13:36:49Z</time>
      </trkpt>
      <trkpt lat="-21.18017" lon="55.63751">
        <ele>1943.6</ele>
        <time>2013-03-25T13:37:03Z</time>
      </trkpt>
      <trkpt lat="-21.18018" lon="55.63742">
        <ele>1938.5</ele>
        <time>2013-03-25T13:37:20Z</time>
      </trkpt>
      <trkpt lat="-21.18018" lon="55.63742">
        <ele>1938</ele>
        <time>2013-03-25T13:37:21Z</time>
      </trkpt>
      <trkpt lat="-21.18003" lon="55.63732">
        <ele>1933.3</ele>
        <time>2013-03-25T13:37:59Z</time>
      </trkpt>
      <trkpt lat="-21.18" lon="55.63723">
        <ele>1928.9</ele>
        <time>2013-03-25T13:38:16Z</time>
      </trkpt>
      <trkpt lat="-21.18003" lon="55.63714">
        <ele>1924.6</ele>
        <time>2013-03-25T13:38:35Z</time>
      </trkpt>
      <trkpt lat="-21.18003" lon="55.63714">
        <ele>1924.1</ele>
        <time>2013-03-25T13:38:36Z</time>
      </trkpt>
      <trkpt lat="-21.17999" lon="55.63697">
        <ele>1916.5</ele>
        <time>2013-03-25T13:39:03Z</time>
      </trkpt>
      <trkpt lat="-21.17992" lon="55.63691">
        <ele>1912.7</ele>
        <time>2013-03-25T13:39:16Z</time>
      </trkpt>
      <trkpt lat="-21.17984" lon="55.63689">
        <ele>1910.5</ele>
        <time>2013-03-25T13:39:36Z</time>
      </trkpt>
      <trkpt lat="-21.17984" lon="55.63688">
        <ele>1910.5</ele>
        <time>2013-03-25T13:39:37Z</time>
      </trkpt>
      <trkpt lat="-21.17974" lon="55.63674">
        <ele>1906.6</ele>
        <time>2013-03-25T13:40:02Z</time>
      </trkpt>
      <trkpt lat="-21.17968" lon="55.63667">
        <ele>1906.5</ele>
        <time>2013-03-25T13:40:13Z</time>
      </trkpt>
      <trkpt lat="-21.17962" lon="55.6366">
        <ele>1909.1</ele>
        <time>2013-03-25T13:40:32Z</time>
      </trkpt>
      <trkpt lat="-21.17958" lon="55.63652">
        <ele>1910.1</ele>
        <time>2013-03-25T13:40:43Z</time>
      </trkpt>
      <trkpt lat="-21.17957" lon="55.63651">
        <ele>1909.9</ele>
        <time>2013-03-25T13:40:44Z</time>
      </trkpt>
      <trkpt lat="-21.17944" lon="55.63641">
        <ele>1914.6</ele>
        <time>2013-03-25T13:41:13Z</time>
      </trkpt>
      <trkpt lat="-21.17935" lon="55.63639">
        <ele>1915.2</ele>
        <time>2013-03-25T13:41:25Z</time>
      </trkpt>
      <trkpt lat="-21.17928" lon="55.63634">
        <ele>1915.9</ele>
        <time>2013-03-25T13:41:34Z</time>
      </trkpt>
      <trkpt lat="-21.1792" lon="55.63628">
        <ele>1916.1</ele>
        <time>2013-03-25T13:41:45Z</time>
      </trkpt>
      <trkpt lat="-21.17919" lon="55.63628">
        <ele>1916.2</ele>
        <time>2013-03-25T13:41:46Z</time>
      </trkpt>
      <trkpt lat="-21.17903" lon="55.63628">
        <ele>1914.7</ele>
        <time>2013-03-25T13:42:04Z</time>
      </trkpt>
      <trkpt lat="-21.17895" lon="55.6363">
        <ele>1913.2</ele>
        <time>2013-03-25T13:42:12Z</time>
      </trkpt>
      <trkpt lat="-21.17888" lon="55.63635">
        <ele>1911.9</ele>
        <time>2013-03-25T13:42:20Z</time>
      </trkpt>
      <trkpt lat="-21.17881" lon="55.6364">
        <ele>1913</ele>
        <time>2013-03-25T13:42:31Z</time>
      </trkpt>
      <trkpt lat="-21.17875" lon="55.63646">
        <ele>1914.1</ele>
        <time>2013-03-25T13:42:41Z</time>
      </trkpt>
      <trkpt lat="-21.17868" lon="55.63651">
        <ele>1911.3</ele>
        <time>2013-03-25T13:42:51Z</time>
      </trkpt>
      <trkpt lat="-21.17868" lon="55.63652">
        <ele>1910.9</ele>
        <time>2013-03-25T13:42:52Z</time>
      </trkpt>
      <trkpt lat="-21.17852" lon="55.63655">
        <ele>1903.6</ele>
        <time>2013-03-25T13:43:15Z</time>
      </trkpt>
      <trkpt lat="-21.17844" lon="55.63653">
        <ele>1903</ele>
        <time>2013-03-25T13:43:24Z</time>
      </trkpt>
      <trkpt lat="-21.17835" lon="55.63651">
        <ele>1902.1</ele>
        <time>2013-03-25T13:43:32Z</time>
      </trkpt>
      <trkpt lat="-21.17827" lon="55.63647">
        <ele>1899.6</ele>
        <time>2013-03-25T13:43:43Z</time>
      </trkpt>
      <trkpt lat="-21.17819" lon="55.63644">
        <ele>1896.3</ele>
        <time>2013-03-25T13:43:53Z</time>
      </trkpt>
      <trkpt lat="-21.17818" lon="55.63643">
        <ele>1896.5</ele>
        <time>2013-03-25T13:43:54Z</time>
      </trkpt>
      <trkpt lat="-21.17805" lon="55.63633">
        <ele>1889.5</ele>
        <time>2013-03-25T13:44:20Z</time>
      </trkpt>
      <trkpt lat="-21.17799" lon="55.63626">
        <ele>1887.6</ele>
        <time>2013-03-25T13:44:32Z</time>
      </trkpt>
      <trkpt lat="-21.17792" lon="55.63621">
        <ele>1885</ele>
        <time>2013-03-25T13:44:45Z</time>
      </trkpt>
      <trkpt lat="-21.17784" lon="55.63621">
        <ele>1880.7</ele>
        <time>2013-03-25T13:45:00Z</time>
      </trkpt>
      <trkpt lat="-21.17783" lon="55.63621">
        <ele>1880</ele>
        <time>2013-03-25T13:45:01Z</time>
      </trkpt>
      <trkpt lat="-21.17767" lon="55.63615">
        <ele>1871.5</ele>
        <time>2013-03-25T13:45:30Z</time>
      </trkpt>
      <trkpt lat="-21.1776" lon="55.63611">
        <ele>1867.9</ele>
        <time>2013-03-25T13:45:41Z</time>
      </trkpt>
      <trkpt lat="-21.17751" lon="55.63609">
        <ele>1865</ele>
        <time>2013-03-25T13:45:53Z</time>
      </trkpt>
      <trkpt lat="-21.17751" lon="55.63599">
        <ele>1859.8</ele>
        <time>2013-03-25T13:46:12Z</time>
      </trkpt>
      <trkpt lat="-21.17751" lon="55.63599">
        <ele>1859.8</ele>
        <time>2013-03-25T13:46:13Z</time>
      </trkpt>
      <trkpt lat="-21.17742" lon="55.63584">
        <ele>1855.3</ele>
        <time>2013-03-25T13:46:34Z</time>
      </trkpt>
      <trkpt lat="-21.17735" lon="55.63578">
        <ele>1853.6</ele>
        <time>2013-03-25T13:46:51Z</time>
      </trkpt>
      <trkpt lat="-21.17727" lon="55.63575">
        <ele>1851.8</ele>
        <time>2013-03-25T13:46:59Z</time>
      </trkpt>
      <trkpt lat="-21.17719" lon="55.63572">
        <ele>1848</ele>
        <time>2013-03-25T13:47:18Z</time>
      </trkpt>
      <trkpt lat="-21.17718" lon="55.63572">
        <ele>1847.9</ele>
        <time>2013-03-25T13:47:19Z</time>
      </trkpt>
      <trkpt lat="-21.17703" lon="55.63567">
        <ele>1842.4</ele>
        <time>2013-03-25T13:47:49Z</time>
      </trkpt>
      <trkpt lat="-21.17696" lon="55.63561">
        <ele>1841.9</ele>
        <time>2013-03-25T13:48:00Z</time>
      </trkpt>
      <trkpt lat="-21.17689" lon="55.63556">
        <ele>1837.6</ele>
        <time>2013-03-25T13:48:16Z</time>
      </trkpt>
      <trkpt lat="-21.17684" lon="55.63548">
        <ele>1834.3</ele>
        <time>2013-03-25T13:48:32Z</time>
      </trkpt>
      <trkpt lat="-21.17684" lon="55.63548">
        <ele>1834</ele>
        <time>2013-03-25T13:48:33Z</time>
      </trkpt>
      <trkpt lat="-21.17672" lon="55.63535">
        <ele>1829.2</ele>
        <time>2013-03-25T13:48:54Z</time>
      </trkpt>
      <trkpt lat="-21.17667" lon="55.63527">
        <ele>1826.8</ele>
        <time>2013-03-25T13:49:06Z</time>
      </trkpt>
      <trkpt lat="-21.17661" lon="55.63521">
        <ele>1824.6</ele>
        <time>2013-03-25T13:49:14Z</time>
      </trkpt>
      <trkpt lat="-21.17654" lon="55.63517">
        <ele>1822.2</ele>
        <time>2013-03-25T13:49:27Z</time>
      </trkpt>
      <trkpt lat="-21.17646" lon="55.63512">
        <ele>1821.7</ele>
        <time>2013-03-25T13:49:36Z</time>
      </trkpt>
      <trkpt lat="-21.17646" lon="55.63511">
        <ele>1821.6</ele>
        <time>2013-03-25T13:49:37Z</time>
      </trkpt>
      <trkpt lat="-21.17632" lon="55.63501">
        <ele>1818.9</ele>
        <time>2013-03-25T13:49:58Z</time>
      </trkpt>
      <trkpt lat="-21.17624" lon="55.63498">
        <ele>1818.1</ele>
        <time>2013-03-25T13:50:08Z</time>
      </trkpt>
      <trkpt lat="-21.17617" lon="55.63494">
        <ele>1816.1</ele>
        <time>2013-03-25T13:50:22Z</time>
      </trkpt>
      <trkpt lat="-21.17612" lon="55.63487">
        <ele>1815.1</ele>
        <time>2013-03-25T13:50:33Z</time>
      </trkpt>
      <trkpt lat="-21.17604" lon="55.63482">
        <ele>1813.9</ele>
        <time>2013-03-25T13:50:44Z</time>
      </trkpt>
      <trkpt lat="-21.17604" lon="55.63482">
        <ele>1814</ele>
        <time>2013-03-25T13:50:45Z</time>
      </trkpt>
      <trkpt lat="-21.17598" lon="55.63465">
        <ele>1813.7</ele>
        <time>2013-03-25T13:51:15Z</time>
      </trkpt>
      <trkpt lat="-21.17595" lon="55.63457">
        <ele>1813.3</ele>
        <time>2013-03-25T13:51:24Z</time>
      </trkpt>
      <trkpt lat="-21.17592" lon="55.63448">
        <ele>1812.8</ele>
        <time>2013-03-25T13:51:32Z</time>
      </trkpt>
      <trkpt lat="-21.17583" lon="55.63445">
        <ele>1811.9</ele>
        <time>2013-03-25T13:51:44Z</time>
      </trkpt>
      <trkpt lat="-21.17575" lon="55.63443">
        <ele>1812.5</ele>
        <time>2013-03-25T13:51:52Z</time>
      </trkpt>
      <trkpt lat="-21.17573" lon="55.63443">
        <ele>1812.7</ele>
        <time>2013-03-25T13:51:53Z</time>
      </trkpt>
      <trkpt lat="-21.17558" lon="55.63441">
        <ele>1812</ele>
        <time>2013-03-25T13:52:08Z</time>
      </trkpt>
      <trkpt lat="-21.1755" lon="55.63443">
        <ele>1809.4</ele>
        <time>2013-03-25T13:52:20Z</time>
      </trkpt>
      <trkpt lat="-21.17542" lon="55.63446">
        <ele>1805.6</ele>
        <time>2013-03-25T13:52:34Z</time>
      </trkpt>
      <trkpt lat="-21.17534" lon="55.63447">
        <ele>1800.2</ele>
        <time>2013-03-25T13:52:50Z</time>
      </trkpt>
      <trkpt lat="-21.17526" lon="55.63447">
        <ele>1796.6</ele>
        <time>2013-03-25T13:53:08Z</time>
      </trkpt>
      <trkpt lat="-21.17525" lon="55.63447">
        <ele>1796.5</ele>
        <time>2013-03-25T13:53:09Z</time>
      </trkpt>
      <trkpt lat="-21.1751" lon="55.63441">
        <ele>1790.7</ele>
        <time>2013-03-25T13:53:35Z</time>
      </trkpt>
      <trkpt lat="-21.17502" lon="55.63436">
        <ele>1787.9</ele>
        <time>2013-03-25T13:53:47Z</time>
      </trkpt>
      <trkpt lat="-21.17496" lon="55.63431">
        <ele>1785.8</ele>
        <time>2013-03-25T13:53:59Z</time>
      </trkpt>
      <trkpt lat="-21.17493" lon="55.63422">
        <ele>1784.5</ele>
        <time>2013-03-25T13:54:15Z</time>
      </trkpt>
      <trkpt lat="-21.17493" lon="55.63422">
        <ele>1784.3</ele>
        <time>2013-03-25T13:54:16Z</time>
      </trkpt>
      <trkpt lat="-21.17482" lon="55.63409">
        <ele>1778</ele>
        <time>2013-03-25T13:54:48Z</time>
      </trkpt>
      <trkpt lat="-21.17478" lon="55.63401">
        <ele>1774.2</ele>
        <time>2013-03-25T13:55:02Z</time>
      </trkpt>
      <trkpt lat="-21.17471" lon="55.63395">
        <ele>1771.8</ele>
        <time>2013-03-25T13:55:17Z</time>
      </trkpt>
      <trkpt lat="-21.17471" lon="55.63395">
        <ele>1771</ele>
        <time>2013-03-25T13:55:18Z</time>
      </trkpt>
      <trkpt lat="-21.17456" lon="55.63387">
        <ele>1763.1</ele>
        <time>2013-03-25T13:55:53Z</time>
      </trkpt>
      <trkpt lat="-21.17447" lon="55.63387">
        <ele>1762.8</ele>
        <time>2013-03-25T13:56:04Z</time>
      </trkpt>
      <trkpt lat="-21.17439" lon="55.63385">
        <ele>1760.6</ele>
        <time>2013-03-25T13:56:20Z</time>
      </trkpt>
      <trkpt lat="-21.17439" lon="55.63385">
        <ele>1760.6</ele>
        <time>2013-03-25T13:56:21Z</time>
      </trkpt>
      <trkpt lat="-21.17423" lon="55.63379">
        <ele>1753.8</ele>
        <time>2013-03-25T13:56:49Z</time>
      </trkpt>
      <trkpt lat="-21.17415" lon="55.63376">
        <ele>1752.7</ele>
        <time>2013-03-25T13:56:59Z</time>
      </trkpt>
      <trkpt lat="-21.17407" lon="55.63375">
        <ele>1751</ele>
        <time>2013-03-25T13:57:07Z</time>
      </trkpt>
      <trkpt lat="-21.17399" lon="55.63372">
        <ele>1748.9</ele>
        <time>2013-03-25T13:57:17Z</time>
      </trkpt>
      <trkpt lat="-21.17392" lon="55.63367">
        <ele>1746</ele>
        <time>2013-03-25T13:57:31Z</time>
      </trkpt>
      <trkpt lat="-21.17391" lon="55.63368">
        <ele>1745.9</ele>
        <time>2013-03-25T13:57:32Z</time>
      </trkpt>
      <trkpt lat="-21.17375" lon="55.63369">
        <ele>1739.3</ele>
        <time>2013-03-25T13:58:02Z</time>
      </trkpt>
      <trkpt lat="-21.17369" lon="55.63362">
        <ele>1735.5</ele>
        <time>2013-03-25T13:58:16Z</time>
      </trkpt>
      <trkpt lat="-21.1736" lon="55.63362">
        <ele>1734.6</ele>
        <time>2013-03-25T13:58:26Z</time>
      </trkpt>
      <trkpt lat="-21.17352" lon="55.63362">
        <ele>1731.9</ele>
        <time>2013-03-25T13:58:39Z</time>
      </trkpt>
      <trkpt lat="-21.17351" lon="55.63362">
        <ele>1731.4</ele>
        <time>2013-03-25T13:58:40Z</time>
      </trkpt>
      <trkpt lat="-21.17336" lon="55.63358">
        <ele>1727.2</ele>
        <time>2013-03-25T13:59:02Z</time>
      </trkpt>
      <trkpt lat="-21.17328" lon="55.63359">
        <ele>1726.2</ele>
        <time>2013-03-25T13:59:11Z</time>
      </trkpt>
      <trkpt lat="-21.1732" lon="55.63361">
        <ele>1724.3</ele>
        <time>2013-03-25T13:59:22Z</time>
      </trkpt>
      <trkpt lat="-21.17312" lon="55.63365">
        <ele>1719.2</ele>
        <time>2013-03-25T13:59:41Z</time>
      </trkpt>
      <trkpt lat="-21.17311" lon="55.63365">
        <ele>1719</ele>
        <time>2013-03-25T13:59:42Z</time>
      </trkpt>
      <trkpt lat="-21.17296" lon="55.63374">
        <ele>1715.7</ele>
        <time>2013-03-25T14:00:02Z</time>
      </trkpt>
      <trkpt lat="-21.17288" lon="55.63377">
        <ele>1714.3</ele>
        <time>2013-03-25T14:00:16Z</time>
      </trkpt>
      <trkpt lat="-21.17279" lon="55.63378">
        <ele>1710</ele>
        <time>2013-03-25T14:00:34Z</time>
      </trkpt>
      <trkpt lat="-21.17271" lon="55.63375">
        <ele>1706</ele>
        <time>2013-03-25T14:00:50Z</time>
      </trkpt>
      <trkpt lat="-21.1727" lon="55.63375">
        <ele>1706</ele>
        <time>2013-03-25T14:00:51Z</time>
      </trkpt>
      <trkpt lat="-21.17255" lon="55.63373">
        <ele>1699.4</ele>
        <time>2013-03-25T14:01:13Z</time>
      </trkpt>
      <trkpt lat="-21.17246" lon="55.63373">
        <ele>1697.4</ele>
        <time>2013-03-25T14:01:21Z</time>
      </trkpt>
      <trkpt lat="-21.17238" lon="55.63372">
        <ele>1694.9</ele>
        <time>2013-03-25T14:01:34Z</time>
      </trkpt>
      <trkpt lat="-21.17229" lon="55.63373">
        <ele>1689.2</ele>
        <time>2013-03-25T14:01:58Z</time>
      </trkpt>
      <trkpt lat="-21.17229" lon="55.63373">
        <ele>1689</ele>
        <time>2013-03-25T14:01:59Z</time>
      </trkpt>
      <trkpt lat="-21.17213" lon="55.63372">
        <ele>1685.9</ele>
        <time>2013-03-25T14:02:14Z</time>
      </trkpt>
      <trkpt lat="-21.17205" lon="55.63371">
        <ele>1683.8</ele>
        <time>2013-03-25T14:02:24Z</time>
      </trkpt>
      <trkpt lat="-21.17197" lon="55.63368">
        <ele>1681.6</ele>
        <time>2013-03-25T14:02:37Z</time>
      </trkpt>
      <trkpt lat="-21.17188" lon="55.63367">
        <ele>1672.4</ele>
        <time>2013-03-25T14:03:13Z</time>
      </trkpt>
      <trkpt lat="-21.17187" lon="55.63367">
        <ele>1672</ele>
        <time>2013-03-25T14:03:14Z</time>
      </trkpt>
      <trkpt lat="-21.17172" lon="55.63367">
        <ele>1668.5</ele>
        <time>2013-03-25T14:03:30Z</time>
      </trkpt>
      <trkpt lat="-21.17164" lon="55.63366">
        <ele>1667.3</ele>
        <time>2013-03-25T14:03:37Z</time>
      </trkpt>
      <trkpt lat="-21.17156" lon="55.63365">
        <ele>1665.5</ele>
        <time>2013-03-25T14:03:45Z</time>
      </trkpt>
      <trkpt lat="-21.17147" lon="55.63366">
        <ele>1664.1</ele>
        <time>2013-03-25T14:03:54Z</time>
      </trkpt>
      <trkpt lat="-21.17139" lon="55.63364">
        <ele>1661.3</ele>
        <time>2013-03-25T14:04:10Z</time>
      </trkpt>
      <trkpt lat="-21.17131" lon="55.63365">
        <ele>1656.4</ele>
        <time>2013-03-25T14:04:28Z</time>
      </trkpt>
      <trkpt lat="-21.1713" lon="55.63365">
        <ele>1656.2</ele>
        <time>2013-03-25T14:04:29Z</time>
      </trkpt>
      <trkpt lat="-21.17114" lon="55.63364">
        <ele>1651.9</ele>
        <time>2013-03-25T14:04:50Z</time>
      </trkpt>
      <trkpt lat="-21.17105" lon="55.63361">
        <ele>1649.7</ele>
        <time>2013-03-25T14:05:09Z</time>
      </trkpt>
      <trkpt lat="-21.17097" lon="55.63359">
        <ele>1646.3</ele>
        <time>2013-03-25T14:05:27Z</time>
      </trkpt>
      <trkpt lat="-21.1709" lon="55.63355">
        <ele>1644.1</ele>
        <time>2013-03-25T14:05:43Z</time>
      </trkpt>
      <trkpt lat="-21.17089" lon="55.63355">
        <ele>1644</ele>
        <time>2013-03-25T14:05:44Z</time>
      </trkpt>
      <trkpt lat="-21.17074" lon="55.6335">
        <ele>1636.7</ele>
        <time>2013-03-25T14:06:09Z</time>
      </trkpt>
      <trkpt lat="-21.17065" lon="55.6335">
        <ele>1633.3</ele>
        <time>2013-03-25T14:06:22Z</time>
      </trkpt>
      <trkpt lat="-21.17057" lon="55.63351">
        <ele>1632.5</ele>
        <time>2013-03-25T14:06:29Z</time>
      </trkpt>
      <trkpt lat="-21.17049" lon="55.63353">
        <ele>1631.2</ele>
        <time>2013-03-25T14:06:35Z</time>
      </trkpt>
      <trkpt lat="-21.1704" lon="55.63355">
        <ele>1630.4</ele>
        <time>2013-03-25T14:06:44Z</time>
      </trkpt>
      <trkpt lat="-21.1704" lon="55.63356">
        <ele>1630.2</ele>
        <time>2013-03-25T14:06:45Z</time>
      </trkpt>
      <trkpt lat="-21.17024" lon="55.63363">
        <ele>1625.7</ele>
        <time>2013-03-25T14:07:08Z</time>
      </trkpt>
      <trkpt lat="-21.17016" lon="55.63366">
        <ele>1623.5</ele>
        <time>2013-03-25T14:07:19Z</time>
      </trkpt>
      <trkpt lat="-21.17008" lon="55.63369">
        <ele>1621.7</ele>
        <time>2013-03-25T14:07:28Z</time>
      </trkpt>
      <trkpt lat="-21.17" lon="55.63373">
        <ele>1619.3</ele>
        <time>2013-03-25T14:07:39Z</time>
      </trkpt>
      <trkpt lat="-21.16992" lon="55.63372">
        <ele>1615.1</ele>
        <time>2013-03-25T14:07:57Z</time>
      </trkpt>
      <trkpt lat="-21.16991" lon="55.63372">
        <ele>1615.1</ele>
        <time>2013-03-25T14:07:58Z</time>
      </trkpt>
      <trkpt lat="-21.16975" lon="55.63376">
        <ele>1610.2</ele>
        <time>2013-03-25T14:08:19Z</time>
      </trkpt>
      <trkpt lat="-21.16967" lon="55.63371">
        <ele>1604.8</ele>
        <time>2013-03-25T14:08:35Z</time>
      </trkpt>
      <trkpt lat="-21.16959" lon="55.63372">
        <ele>1602.6</ele>
        <time>2013-03-25T14:08:47Z</time>
      </trkpt>
      <trkpt lat="-21.1695" lon="55.63374">
        <ele>1601.3</ele>
        <time>2013-03-25T14:08:56Z</time>
      </trkpt>
      <trkpt lat="-21.16942" lon="55.63369">
        <ele>1595.6</ele>
        <time>2013-03-25T14:09:13Z</time>
      </trkpt>
      <trkpt lat="-21.16941" lon="55.63369">
        <ele>1595.1</ele>
        <time>2013-03-25T14:09:14Z</time>
      </trkpt>
      <trkpt lat="-21.16929" lon="55.63357">
        <ele>1591.7</ele>
        <time>2013-03-25T14:09:30Z</time>
      </trkpt>
      <trkpt lat="-21.16921" lon="55.63355">
        <ele>1590.1</ele>
        <time>2013-03-25T14:09:40Z</time>
      </trkpt>
      <trkpt lat="-21.16917" lon="55.63347">
        <ele>1587.5</ele>
        <time>2013-03-25T14:09:52Z</time>
      </trkpt>
      <trkpt lat="-21.16909" lon="55.63343">
        <ele>1584.8</ele>
        <time>2013-03-25T14:10:02Z</time>
      </trkpt>
      <trkpt lat="-21.16903" lon="55.63337">
        <ele>1582.9</ele>
        <time>2013-03-25T14:10:12Z</time>
      </trkpt>
      <trkpt lat="-21.16895" lon="55.63333">
        <ele>1580.6</ele>
        <time>2013-03-25T14:10:24Z</time>
      </trkpt>
      <trkpt lat="-21.16895" lon="55.63332">
        <ele>1580.2</ele>
        <time>2013-03-25T14:10:25Z</time>
      </trkpt>
      <trkpt lat="-21.16887" lon="55.6332">
        <ele>1575.3</ele>
        <time>2013-03-25T14:10:52Z</time>
      </trkpt>
      <trkpt lat="-21.16888" lon="55.6331">
        <ele>1573.9</ele>
        <time>2013-03-25T14:11:02Z</time>
      </trkpt>
      <trkpt lat="-21.16886" lon="55.63302">
        <ele>1573.1</ele>
        <time>2013-03-25T14:11:13Z</time>
      </trkpt>
      <trkpt lat="-21.16883" lon="55.63293">
        <ele>1571.5</ele>
        <time>2013-03-25T14:11:22Z</time>
      </trkpt>
      <trkpt lat="-21.16878" lon="55.63286">
        <ele>1569.9</ele>
        <time>2013-03-25T14:11:31Z</time>
      </trkpt>
      <trkpt lat="-21.16878" lon="55.63285">
        <ele>1569.7</ele>
        <time>2013-03-25T14:11:32Z</time>
      </trkpt>
      <trkpt lat="-21.16864" lon="55.63276">
        <ele>1566.2</ele>
        <time>2013-03-25T14:11:49Z</time>
      </trkpt>
      <trkpt lat="-21.16856" lon="55.63274">
        <ele>1564.8</ele>
        <time>2013-03-25T14:13:17Z</time>
      </trkpt>
      <trkpt lat="-21.16856" lon="55.63273">
        <ele>1564.5</ele>
        <time>2013-03-25T14:13:18Z</time>
      </trkpt>
      <trkpt lat="-21.1684" lon="55.63273">
        <ele>1557.5</ele>
        <time>2013-03-25T14:13:45Z</time>
      </trkpt>
      <trkpt lat="-21.16831" lon="55.63274">
        <ele>1554.7</ele>
        <time>2013-03-25T14:14:03Z</time>
      </trkpt>
      <trkpt lat="-21.16822" lon="55.63275">
        <ele>1551.7</ele>
        <time>2013-03-25T14:14:17Z</time>
      </trkpt>
      <trkpt lat="-21.16814" lon="55.63275">
        <ele>1549.7</ele>
        <time>2013-03-25T14:14:26Z</time>
      </trkpt>
      <trkpt lat="-21.16813" lon="55.63275">
        <ele>1549.6</ele>
        <time>2013-03-25T14:14:27Z</time>
      </trkpt>
      <trkpt lat="-21.16797" lon="55.63272">
        <ele>1542.6</ele>
        <time>2013-03-25T14:14:53Z</time>
      </trkpt>
      <trkpt lat="-21.16788" lon="55.63271">
        <ele>1540.4</ele>
        <time>2013-03-25T14:15:05Z</time>
      </trkpt>
      <trkpt lat="-21.1678" lon="55.63269">
        <ele>1536.2</ele>
        <time>2013-03-25T14:15:24Z</time>
      </trkpt>
      <trkpt lat="-21.16771" lon="55.63271">
        <ele>1533.8</ele>
        <time>2013-03-25T14:15:36Z</time>
      </trkpt>
      <trkpt lat="-21.16771" lon="55.63271">
        <ele>1533.6</ele>
        <time>2013-03-25T14:15:37Z</time>
      </trkpt>
      <trkpt lat="-21.16755" lon="55.63265">
        <ele>1529.4</ele>
        <time>2013-03-25T14:15:58Z</time>
      </trkpt>
      <trkpt lat="-21.16747" lon="55.6326">
        <ele>1527</ele>
        <time>2013-03-25T14:16:08Z</time>
      </trkpt>
      <trkpt lat="-21.16739" lon="55.6326">
        <ele>1524.8</ele>
        <time>2013-03-25T14:16:17Z</time>
      </trkpt>
      <trkpt lat="-21.16731" lon="55.63256">
        <ele>1522</ele>
        <time>2013-03-25T14:16:28Z</time>
      </trkpt>
      <trkpt lat="-21.16723" lon="55.63252">
        <ele>1518.8</ele>
        <time>2013-03-25T14:16:43Z</time>
      </trkpt>
      <trkpt lat="-21.16723" lon="55.63252">
        <ele>1518.9</ele>
        <time>2013-03-25T14:16:44Z</time>
      </trkpt>
      <trkpt lat="-21.16707" lon="55.63247">
        <ele>1515.3</ele>
        <time>2013-03-25T14:17:02Z</time>
      </trkpt>
      <trkpt lat="-21.16699" lon="55.63247">
        <ele>1511.8</ele>
        <time>2013-03-25T14:17:12Z</time>
      </trkpt>
      <trkpt lat="-21.1669" lon="55.63245">
        <ele>1509.6</ele>
        <time>2013-03-25T14:17:24Z</time>
      </trkpt>
      <trkpt lat="-21.16683" lon="55.6324">
        <ele>1506</ele>
        <time>2013-03-25T14:17:41Z</time>
      </trkpt>
      <trkpt lat="-21.16682" lon="55.6323">
        <ele>1504</ele>
        <time>2013-03-25T14:18:00Z</time>
      </trkpt>
      <trkpt lat="-21.16682" lon="55.6323">
        <ele>1503.9</ele>
        <time>2013-03-25T14:18:01Z</time>
      </trkpt>
      <trkpt lat="-21.16693" lon="55.63216">
        <ele>1503.3</ele>
        <time>2013-03-25T14:18:29Z</time>
      </trkpt>
      <trkpt lat="-21.16696" lon="55.63207">
        <ele>1504.1</ele>
        <time>2013-03-25T14:18:41Z</time>
      </trkpt>
      <trkpt lat="-21.16701" lon="55.63199">
        <ele>1503.8</ele>
        <time>2013-03-25T14:18:52Z</time>
      </trkpt>
      <trkpt lat="-21.16706" lon="55.63192">
        <ele>1502.4</ele>
        <time>2013-03-25T14:19:07Z</time>
      </trkpt>
      <trkpt lat="-21.16706" lon="55.63191">
        <ele>1502.5</ele>
        <time>2013-03-25T14:19:08Z</time>
      </trkpt>
      <trkpt lat="-21.16708" lon="55.63173">
        <ele>1498.7</ele>
        <time>2013-03-25T14:19:28Z</time>
      </trkpt>
      <trkpt lat="-21.16706" lon="55.63164">
        <ele>1496.1</ele>
        <time>2013-03-25T14:19:40Z</time>
      </trkpt>
      <trkpt lat="-21.167" lon="55.63157">
        <ele>1492.2</ele>
        <time>2013-03-25T14:19:55Z</time>
      </trkpt>
      <trkpt lat="-21.16695" lon="55.63149">
        <ele>1488.4</ele>
        <time>2013-03-25T14:20:23Z</time>
      </trkpt>
      <trkpt lat="-21.16695" lon="55.63149">
        <ele>1488.4</ele>
        <time>2013-03-25T14:20:24Z</time>
      </trkpt>
      <trkpt lat="-21.16686" lon="55.63134">
        <ele>1483.6</ele>
        <time>2013-03-25T14:20:55Z</time>
      </trkpt>
      <trkpt lat="-21.16679" lon="55.63127">
        <ele>1482.1</ele>
        <time>2013-03-25T14:21:06Z</time>
      </trkpt>
      <trkpt lat="-21.16674" lon="55.6312">
        <ele>1479.7</ele>
        <time>2013-03-25T14:21:16Z</time>
      </trkpt>
      <trkpt lat="-21.1667" lon="55.63112">
        <ele>1477.4</ele>
        <time>2013-03-25T14:21:27Z</time>
      </trkpt>
      <trkpt lat="-21.1667" lon="55.63111">
        <ele>1477.5</ele>
        <time>2013-03-25T14:21:28Z</time>
      </trkpt>
      <trkpt lat="-21.16659" lon="55.63098">
        <ele>1472.5</ele>
        <time>2013-03-25T14:21:53Z</time>
      </trkpt>
      <trkpt lat="-21.16653" lon="55.63092">
        <ele>1470.3</ele>
        <time>2013-03-25T14:22:03Z</time>
      </trkpt>
      <trkpt lat="-21.16649" lon="55.63084">
        <ele>1467.9</ele>
        <time>2013-03-25T14:22:12Z</time>
      </trkpt>
      <trkpt lat="-21.16643" lon="55.63077">
        <ele>1465.7</ele>
        <time>2013-03-25T14:22:23Z</time>
      </trkpt>
      <trkpt lat="-21.1664" lon="55.63069">
        <ele>1463.9</ele>
        <time>2013-03-25T14:22:32Z</time>
      </trkpt>
      <trkpt lat="-21.1664" lon="55.63068">
        <ele>1463.9</ele>
        <time>2013-03-25T14:22:33Z</time>
      </trkpt>
      <trkpt lat="-21.16648" lon="55.63058">
        <ele>1465.2</ele>
        <time>2013-03-25T14:23:08Z</time>
      </trkpt>
      <trkpt lat="-21.16656" lon="55.63055">
        <ele>1465.9</ele>
        <time>2013-03-25T14:23:20Z</time>
      </trkpt>
      <trkpt lat="-21.16663" lon="55.63049">
        <ele>1466.6</ele>
        <time>2013-03-25T14:23:31Z</time>
      </trkpt>
      <trkpt lat="-21.16669" lon="55.63043">
        <ele>1468.1</ele>
        <time>2013-03-25T14:23:46Z</time>
      </trkpt>
      <trkpt lat="-21.1667" lon="55.63042">
        <ele>1468.5</ele>
        <time>2013-03-25T14:23:47Z</time>
      </trkpt>
      <trkpt lat="-21.16677" lon="55.63026">
        <ele>1474.7</ele>
        <time>2013-03-25T14:24:24Z</time>
      </trkpt>
      <trkpt lat="-21.16683" lon="55.6302">
        <ele>1476.4</ele>
        <time>2013-03-25T14:24:40Z</time>
      </trkpt>
      <trkpt lat="-21.1669" lon="55.63014">
        <ele>1479</ele>
        <time>2013-03-25T14:24:59Z</time>
      </trkpt>
      <trkpt lat="-21.16691" lon="55.63014">
        <ele>1479</ele>
        <time>2013-03-25T14:25:00Z</time>
      </trkpt>
      <trkpt lat="-21.16696" lon="55.62997">
        <ele>1476.9</ele>
        <time>2013-03-25T14:25:41Z</time>
      </trkpt>
      <trkpt lat="-21.16695" lon="55.62988">
        <ele>1472.6</ele>
        <time>2013-03-25T14:25:57Z</time>
      </trkpt>
      <trkpt lat="-21.16687" lon="55.62984">
        <ele>1470.2</ele>
        <time>2013-03-25T14:26:13Z</time>
      </trkpt>
      <trkpt lat="-21.16687" lon="55.62983">
        <ele>1469.6</ele>
        <time>2013-03-25T14:26:14Z</time>
      </trkpt>
      <trkpt lat="-21.16681" lon="55.6298">
        <ele>1467.8</ele>
        <time>2013-03-25T14:26:25Z</time>
      </trkpt>
      <trkpt lat="-21.1668" lon="55.6298">
        <ele>1467.7</ele>
        <time>2013-03-25T14:26:28Z</time>
      </trkpt>
      <trkpt lat="-21.16671" lon="55.62979">
        <ele>1466.4</ele>
        <time>2013-03-25T14:26:46Z</time>
      </trkpt>
      <trkpt lat="-21.16668" lon="55.6297">
        <ele>1457.6</ele>
        <time>2013-03-25T14:27:30Z</time>
      </trkpt>
      <trkpt lat="-21.16668" lon="55.6297">
        <ele>1457.5</ele>
        <time>2013-03-25T14:27:31Z</time>
      </trkpt>
      <trkpt lat="-21.16672" lon="55.62953">
        <ele>1450.7</ele>
        <time>2013-03-25T14:28:02Z</time>
      </trkpt>
      <trkpt lat="-21.16668" lon="55.62945">
        <ele>1447.6</ele>
        <time>2013-03-25T14:28:12Z</time>
      </trkpt>
      <trkpt lat="-21.16661" lon="55.62939">
        <ele>1445</ele>
        <time>2013-03-25T14:28:22Z</time>
      </trkpt>
      <trkpt lat="-21.16653" lon="55.62934">
        <ele>1444.8</ele>
        <time>2013-03-25T14:28:31Z</time>
      </trkpt>
      <trkpt lat="-21.16652" lon="55.62934">
        <ele>1444.7</ele>
        <time>2013-03-25T14:28:32Z</time>
      </trkpt>
      <trkpt lat="-21.16644" lon="55.62922">
        <ele>1438</ele>
        <time>2013-03-25T14:29:05Z</time>
      </trkpt>
      <trkpt lat="-21.16641" lon="55.62914">
        <ele>1432.2</ele>
        <time>2013-03-25T14:29:28Z</time>
      </trkpt>
      <trkpt lat="-21.16635" lon="55.62908">
        <ele>1429</ele>
        <time>2013-03-25T14:29:36Z</time>
      </trkpt>
      <trkpt lat="-21.16634" lon="55.62907">
        <ele>1428.8</ele>
        <time>2013-03-25T14:29:37Z</time>
      </trkpt>
      <trkpt lat="-21.16622" lon="55.62897">
        <ele>1426.6</ele>
        <time>2013-03-25T14:29:50Z</time>
      </trkpt>
      <trkpt lat="-21.16618" lon="55.62889">
        <ele>1426.2</ele>
        <time>2013-03-25T14:30:00Z</time>
      </trkpt>
      <trkpt lat="-21.16612" lon="55.62882">
        <ele>1425.2</ele>
        <time>2013-03-25T14:30:16Z</time>
      </trkpt>
      <trkpt lat="-21.16605" lon="55.62876">
        <ele>1421</ele>
        <time>2013-03-25T14:30:34Z</time>
      </trkpt>
      <trkpt lat="-21.16599" lon="55.6287">
        <ele>1418.2</ele>
        <time>2013-03-25T14:30:44Z</time>
      </trkpt>
      <trkpt lat="-21.16598" lon="55.6287">
        <ele>1417.9</ele>
        <time>2013-03-25T14:30:45Z</time>
      </trkpt>
      <trkpt lat="-21.16585" lon="55.6286">
        <ele>1412.9</ele>
        <time>2013-03-25T14:31:10Z</time>
      </trkpt>
      <trkpt lat="-21.16577" lon="55.62857">
        <ele>1409.8</ele>
        <time>2013-03-25T14:31:21Z</time>
      </trkpt>
      <trkpt lat="-21.16571" lon="55.62851">
        <ele>1406.6</ele>
        <time>2013-03-25T14:31:32Z</time>
      </trkpt>
      <trkpt lat="-21.16567" lon="55.62843">
        <ele>1402.8</ele>
        <time>2013-03-25T14:31:49Z</time>
      </trkpt>
      <trkpt lat="-21.16566" lon="55.62842">
        <ele>1402.6</ele>
        <time>2013-03-25T14:31:50Z</time>
      </trkpt>
      <trkpt lat="-21.16554" lon="55.62831">
        <ele>1399.4</ele>
        <time>2013-03-25T14:32:15Z</time>
      </trkpt>
      <trkpt lat="-21.16549" lon="55.62823">
        <ele>1396.6</ele>
        <time>2013-03-25T14:32:28Z</time>
      </trkpt>
      <trkpt lat="-21.16546" lon="55.62814">
        <ele>1395.1</ele>
        <time>2013-03-25T14:32:40Z</time>
      </trkpt>
      <trkpt lat="-21.16546" lon="55.62806">
        <ele>1393.7</ele>
        <time>2013-03-25T14:32:50Z</time>
      </trkpt>
      <trkpt lat="-21.16546" lon="55.62805">
        <ele>1393.3</ele>
        <time>2013-03-25T14:32:51Z</time>
      </trkpt>
      <trkpt lat="-21.16534" lon="55.62793">
        <ele>1390.4</ele>
        <time>2013-03-25T14:33:18Z</time>
      </trkpt>
      <trkpt lat="-21.1653" lon="55.62784">
        <ele>1389.5</ele>
        <time>2013-03-25T14:33:29Z</time>
      </trkpt>
      <trkpt lat="-21.16532" lon="55.62775">
        <ele>1387.4</ele>
        <time>2013-03-25T14:33:44Z</time>
      </trkpt>
      <trkpt lat="-21.1654" lon="55.62772">
        <ele>1386.8</ele>
        <time>2013-03-25T14:33:51Z</time>
      </trkpt>
      <trkpt lat="-21.16541" lon="55.62772">
        <ele>1386.8</ele>
        <time>2013-03-25T14:33:52Z</time>
      </trkpt>
      <trkpt lat="-21.16555" lon="55.62763">
        <ele>1384.3</ele>
        <time>2013-03-25T14:34:08Z</time>
      </trkpt>
      <trkpt lat="-21.16555" lon="55.62755">
        <ele>1384.2</ele>
        <time>2013-03-25T14:34:19Z</time>
      </trkpt>
      <trkpt lat="-21.16551" lon="55.62746">
        <ele>1385.9</ele>
        <time>2013-03-25T14:34:29Z</time>
      </trkpt>
      <trkpt lat="-21.16545" lon="55.62739">
        <ele>1386.8</ele>
        <time>2013-03-25T14:34:44Z</time>
      </trkpt>
      <trkpt lat="-21.16538" lon="55.62734">
        <ele>1386.8</ele>
        <time>2013-03-25T14:35:05Z</time>
      </trkpt>
      <trkpt lat="-21.16537" lon="55.62734">
        <ele>1386.9</ele>
        <time>2013-03-25T14:35:06Z</time>
      </trkpt>
      <trkpt lat="-21.16521" lon="55.62734">
        <ele>1387</ele>
        <time>2013-03-25T14:35:30Z</time>
      </trkpt>
      <trkpt lat="-21.1651" lon="55.62735">
        <ele>1386</ele>
        <time>2013-03-25T14:35:39Z</time>
      </trkpt>
      <trkpt lat="-21.16519" lon="55.62733">
        <ele>1385.9</ele>
        <time>2013-03-25T14:36:18Z</time>
      </trkpt>
      <trkpt lat="-21.1652" lon="55.62733">
        <ele>1386.4</ele>
        <time>2013-03-25T14:36:19Z</time>
      </trkpt>
      <trkpt lat="-21.16519" lon="55.62727">
        <ele>1386.5</ele>
        <time>2013-03-25T14:37:34Z</time>
      </trkpt>
      <trkpt lat="-21.16519" lon="55.62727">
        <ele>1386.2</ele>
        <time>2013-03-25T14:37:35Z</time>
      </trkpt>
      <trkpt lat="-21.16532" lon="55.62722">
        <ele>1391.6</ele>
        <time>2013-03-25T14:38:38Z</time>
      </trkpt>
      <trkpt lat="-21.16533" lon="55.62722">
        <ele>1391.6</ele>
        <time>2013-03-25T14:38:39Z</time>
      </trkpt>
      <trkpt lat="-21.16528" lon="55.62705">
        <ele>1393.3</ele>
        <time>2013-03-25T14:39:07Z</time>
      </trkpt>
      <trkpt lat="-21.16522" lon="55.62697">
        <ele>1394</ele>
        <time>2013-03-25T14:39:16Z</time>
      </trkpt>
      <trkpt lat="-21.16519" lon="55.62688">
        <ele>1395.8</ele>
        <time>2013-03-25T14:39:28Z</time>
      </trkpt>
      <trkpt lat="-21.16517" lon="55.6268">
        <ele>1396.8</ele>
        <time>2013-03-25T14:39:43Z</time>
      </trkpt>
      <trkpt lat="-21.16517" lon="55.62679">
        <ele>1397.1</ele>
        <time>2013-03-25T14:39:44Z</time>
      </trkpt>
      <trkpt lat="-21.16519" lon="55.62661">
        <ele>1394.4</ele>
        <time>2013-03-25T14:40:07Z</time>
      </trkpt>
      <trkpt lat="-21.16517" lon="55.62652">
        <ele>1392.8</ele>
        <time>2013-03-25T14:40:19Z</time>
      </trkpt>
      <trkpt lat="-21.16515" lon="55.62643">
        <ele>1390.9</ele>
        <time>2013-03-25T14:40:29Z</time>
      </trkpt>
      <trkpt lat="-21.16512" lon="55.62635">
        <ele>1390.6</ele>
        <time>2013-03-25T14:40:39Z</time>
      </trkpt>
      <trkpt lat="-21.16508" lon="55.62626">
        <ele>1388.7</ele>
        <time>2013-03-25T14:40:51Z</time>
      </trkpt>
      <trkpt lat="-21.16508" lon="55.62625">
        <ele>1388.7</ele>
        <time>2013-03-25T14:40:52Z</time>
      </trkpt>
      <trkpt lat="-21.16494" lon="55.62616">
        <ele>1385.7</ele>
        <time>2013-03-25T14:41:19Z</time>
      </trkpt>
      <trkpt lat="-21.16486" lon="55.62612">
        <ele>1385.7</ele>
        <time>2013-03-25T14:41:28Z</time>
      </trkpt>
      <trkpt lat="-21.16478" lon="55.62613">
        <ele>1385.8</ele>
        <time>2013-03-25T14:41:37Z</time>
      </trkpt>
      <trkpt lat="-21.16469" lon="55.62613">
        <ele>1383.3</ele>
        <time>2013-03-25T14:41:52Z</time>
      </trkpt>
      <trkpt lat="-21.16468" lon="55.62613">
        <ele>1383.2</ele>
        <time>2013-03-25T14:41:53Z</time>
      </trkpt>
      <trkpt lat="-21.16453" lon="55.62621">
        <ele>1380.7</ele>
        <time>2013-03-25T14:42:14Z</time>
      </trkpt>
      <trkpt lat="-21.16446" lon="55.62626">
        <ele>1381.5</ele>
        <time>2013-03-25T14:42:24Z</time>
      </trkpt>
      <trkpt lat="-21.16439" lon="55.62631">
        <ele>1382.1</ele>
        <time>2013-03-25T14:42:33Z</time>
      </trkpt>
      <trkpt lat="-21.16432" lon="55.62635">
        <ele>1380.5</ele>
        <time>2013-03-25T14:42:43Z</time>
      </trkpt>
      <trkpt lat="-21.16423" lon="55.62639">
        <ele>1377.2</ele>
        <time>2013-03-25T14:42:58Z</time>
      </trkpt>
      <trkpt lat="-21.16423" lon="55.62639">
        <ele>1377.2</ele>
        <time>2013-03-25T14:42:59Z</time>
      </trkpt>
      <trkpt lat="-21.16408" lon="55.62646">
        <ele>1371</ele>
        <time>2013-03-25T14:43:27Z</time>
      </trkpt>
      <trkpt lat="-21.16401" lon="55.62651">
        <ele>1369.2</ele>
        <time>2013-03-25T14:43:37Z</time>
      </trkpt>
      <trkpt lat="-21.16393" lon="55.62655">
        <ele>1368.4</ele>
        <time>2013-03-25T14:43:46Z</time>
      </trkpt>
      <trkpt lat="-21.16386" lon="55.6266">
        <ele>1367.7</ele>
        <time>2013-03-25T14:43:54Z</time>
      </trkpt>
      <trkpt lat="-21.16378" lon="55.62664">
        <ele>1368.1</ele>
        <time>2013-03-25T14:44:02Z</time>
      </trkpt>
      <trkpt lat="-21.16377" lon="55.62664">
        <ele>1368.1</ele>
        <time>2013-03-25T14:44:03Z</time>
      </trkpt>
      <trkpt lat="-21.16361" lon="55.62668">
        <ele>1366.7</ele>
        <time>2013-03-25T14:44:26Z</time>
      </trkpt>
      <trkpt lat="-21.16355" lon="55.62673">
        <ele>1366.7</ele>
        <time>2013-03-25T14:44:34Z</time>
      </trkpt>
      <trkpt lat="-21.16346" lon="55.62676">
        <ele>1366.2</ele>
        <time>2013-03-25T14:44:46Z</time>
      </trkpt>
      <trkpt lat="-21.16338" lon="55.62679">
        <ele>1363.6</ele>
        <time>2013-03-25T14:44:57Z</time>
      </trkpt>
      <trkpt lat="-21.16329" lon="55.6268">
        <ele>1361.4</ele>
        <time>2013-03-25T14:45:11Z</time>
      </trkpt>
      <trkpt lat="-21.16329" lon="55.62681">
        <ele>1361.6</ele>
        <time>2013-03-25T14:45:12Z</time>
      </trkpt>
      <trkpt lat="-21.16313" lon="55.62686">
        <ele>1358.6</ele>
        <time>2013-03-25T14:45:38Z</time>
      </trkpt>
      <trkpt lat="-21.16304" lon="55.62689">
        <ele>1356</ele>
        <time>2013-03-25T14:45:52Z</time>
      </trkpt>
      <trkpt lat="-21.16296" lon="55.62692">
        <ele>1355.2</ele>
        <time>2013-03-25T14:46:05Z</time>
      </trkpt>
      <trkpt lat="-21.16289" lon="55.62695">
        <ele>1354</ele>
        <time>2013-03-25T14:46:13Z</time>
      </trkpt>
      <trkpt lat="-21.16288" lon="55.62696">
        <ele>1354.1</ele>
        <time>2013-03-25T14:46:14Z</time>
      </trkpt>
      <trkpt lat="-21.16275" lon="55.62705">
        <ele>1352.4</ele>
        <time>2013-03-25T14:46:31Z</time>
      </trkpt>
      <trkpt lat="-21.16267" lon="55.6271">
        <ele>1351.7</ele>
        <time>2013-03-25T14:46:43Z</time>
      </trkpt>
      <trkpt lat="-21.16259" lon="55.62714">
        <ele>1350</ele>
        <time>2013-03-25T14:46:53Z</time>
      </trkpt>
      <trkpt lat="-21.16252" lon="55.62719">
        <ele>1349.6</ele>
        <time>2013-03-25T14:47:02Z</time>
      </trkpt>
      <trkpt lat="-21.16247" lon="55.62726">
        <ele>1349.8</ele>
        <time>2013-03-25T14:47:10Z</time>
      </trkpt>
      <trkpt lat="-21.16242" lon="55.62733">
        <ele>1349.7</ele>
        <time>2013-03-25T14:47:18Z</time>
      </trkpt>
      <trkpt lat="-21.16241" lon="55.62734">
        <ele>1349.4</ele>
        <time>2013-03-25T14:47:19Z</time>
      </trkpt>
      <trkpt lat="-21.16228" lon="55.62744">
        <ele>1351.7</ele>
        <time>2013-03-25T14:47:34Z</time>
      </trkpt>
      <trkpt lat="-21.16221" lon="55.62748">
        <ele>1350.2</ele>
        <time>2013-03-25T14:47:41Z</time>
      </trkpt>
      <trkpt lat="-21.16215" lon="55.62754">
        <ele>1349.6</ele>
        <time>2013-03-25T14:47:46Z</time>
      </trkpt>
      <trkpt lat="-21.16207" lon="55.62758">
        <ele>1349.1</ele>
        <time>2013-03-25T14:47:53Z</time>
      </trkpt>
      <trkpt lat="-21.16199" lon="55.62758">
        <ele>1348.9</ele>
        <time>2013-03-25T14:48:09Z</time>
      </trkpt>
      <trkpt lat="-21.16191" lon="55.62754">
        <ele>1347.7</ele>
        <time>2013-03-25T14:48:20Z</time>
      </trkpt>
      <trkpt lat="-21.1619" lon="55.62754">
        <ele>1347.5</ele>
        <time>2013-03-25T14:48:21Z</time>
      </trkpt>
      <trkpt lat="-21.16177" lon="55.62764">
        <ele>1346.7</ele>
        <time>2013-03-25T14:48:38Z</time>
      </trkpt>
      <trkpt lat="-21.16171" lon="55.62771">
        <ele>1345.9</ele>
        <time>2013-03-25T14:48:45Z</time>
      </trkpt>
      <trkpt lat="-21.16168" lon="55.62778">
        <ele>1345.8</ele>
        <time>2013-03-25T14:48:51Z</time>
      </trkpt>
      <trkpt lat="-21.16161" lon="55.62785">
        <ele>1344.8</ele>
        <time>2013-03-25T14:48:58Z</time>
      </trkpt>
      <trkpt lat="-21.16155" lon="55.62791">
        <ele>1343.3</ele>
        <time>2013-03-25T14:49:04Z</time>
      </trkpt>
      <trkpt lat="-21.16152" lon="55.62799">
        <ele>1341.7</ele>
        <time>2013-03-25T14:49:10Z</time>
      </trkpt>
      <trkpt lat="-21.16149" lon="55.62806">
        <ele>1341.6</ele>
        <time>2013-03-25T14:49:15Z</time>
      </trkpt>
      <trkpt lat="-21.16146" lon="55.62815">
        <ele>1341.2</ele>
        <time>2013-03-25T14:49:21Z</time>
      </trkpt>
      <trkpt lat="-21.16146" lon="55.62816">
        <ele>1341</ele>
        <time>2013-03-25T14:49:22Z</time>
      </trkpt>
      <trkpt lat="-21.16142" lon="55.62833">
        <ele>1340.4</ele>
        <time>2013-03-25T14:49:33Z</time>
      </trkpt>
      <trkpt lat="-21.1614" lon="55.6284">
        <ele>1339.8</ele>
        <time>2013-03-25T14:49:38Z</time>
      </trkpt>
      <trkpt lat="-21.16137" lon="55.62848">
        <ele>1338.7</ele>
        <time>2013-03-25T14:49:43Z</time>
      </trkpt>
      <trkpt lat="-21.16134" lon="55.62856">
        <ele>1337.8</ele>
        <time>2013-03-25T14:49:49Z</time>
      </trkpt>
      <trkpt lat="-21.1613" lon="55.62865">
        <ele>1336.6</ele>
        <time>2013-03-25T14:49:56Z</time>
      </trkpt>
      <trkpt lat="-21.16125" lon="55.62871">
        <ele>1335.4</ele>
        <time>2013-03-25T14:50:03Z</time>
      </trkpt>
      <trkpt lat="-21.16119" lon="55.62877">
        <ele>1334.7</ele>
        <time>2013-03-25T14:50:11Z</time>
      </trkpt>
      <trkpt lat="-21.16112" lon="55.62882">
        <ele>1333.9</ele>
        <time>2013-03-25T14:50:18Z</time>
      </trkpt>
      <trkpt lat="-21.16105" lon="55.62887">
        <ele>1332.9</ele>
        <time>2013-03-25T14:50:25Z</time>
      </trkpt>
      <trkpt lat="-21.16104" lon="55.62888">
        <ele>1332.5</ele>
        <time>2013-03-25T14:50:26Z</time>
      </trkpt>
      <trkpt lat="-21.16091" lon="55.62897">
        <ele>1332</ele>
        <time>2013-03-25T14:50:37Z</time>
      </trkpt>
      <trkpt lat="-21.16087" lon="55.62904">
        <ele>1331.9</ele>
        <time>2013-03-25T14:50:42Z</time>
      </trkpt>
      <trkpt lat="-21.16082" lon="55.62911">
        <ele>1332.8</ele>
        <time>2013-03-25T14:50:47Z</time>
      </trkpt>
      <trkpt lat="-21.16076" lon="55.62917">
        <ele>1332.1</ele>
        <time>2013-03-25T14:50:52Z</time>
      </trkpt>
      <trkpt lat="-21.16072" lon="55.62924">
        <ele>1330.8</ele>
        <time>2013-03-25T14:50:57Z</time>
      </trkpt>
      <trkpt lat="-21.16066" lon="55.62931">
        <ele>1330.4</ele>
        <time>2013-03-25T14:51:03Z</time>
      </trkpt>
      <trkpt lat="-21.1606" lon="55.62937">
        <ele>1329.2</ele>
        <time>2013-03-25T14:51:08Z</time>
      </trkpt>
      <trkpt lat="-21.16055" lon="55.62944">
        <ele>1329.6</ele>
        <time>2013-03-25T14:51:13Z</time>
      </trkpt>
      <trkpt lat="-21.16049" lon="55.62949">
        <ele>1328.8</ele>
        <time>2013-03-25T14:51:18Z</time>
      </trkpt>
      <trkpt lat="-21.16042" lon="55.62955">
        <ele>1327.9</ele>
        <time>2013-03-25T14:51:24Z</time>
      </trkpt>
      <trkpt lat="-21.16037" lon="55.6296">
        <ele>1327</ele>
        <time>2013-03-25T14:51:29Z</time>
      </trkpt>
      <trkpt lat="-21.16036" lon="55.62961">
        <ele>1327</ele>
        <time>2013-03-25T14:51:30Z</time>
      </trkpt>
      <trkpt lat="-21.16025" lon="55.62971">
        <ele>1326.7</ele>
        <time>2013-03-25T14:51:39Z</time>
      </trkpt>
      <trkpt lat="-21.16019" lon="55.62977">
        <ele>1325.7</ele>
        <time>2013-03-25T14:51:44Z</time>
      </trkpt>
      <trkpt lat="-21.16014" lon="55.62983">
        <ele>1325.4</ele>
        <time>2013-03-25T14:51:49Z</time>
      </trkpt>
      <trkpt lat="-21.16007" lon="55.62988">
        <ele>1325</ele>
        <time>2013-03-25T14:51:54Z</time>
      </trkpt>
      <trkpt lat="-21.16001" lon="55.62993">
        <ele>1324.1</ele>
        <time>2013-03-25T14:51:59Z</time>
      </trkpt>
      <trkpt lat="-21.15995" lon="55.62998">
        <ele>1325.4</ele>
        <time>2013-03-25T14:52:04Z</time>
      </trkpt>
      <trkpt lat="-21.15988" lon="55.63005">
        <ele>1324.7</ele>
        <time>2013-03-25T14:52:10Z</time>
      </trkpt>
      <trkpt lat="-21.15982" lon="55.63011">
        <ele>1323.3</ele>
        <time>2013-03-25T14:52:16Z</time>
      </trkpt>
      <trkpt lat="-21.15976" lon="55.63017">
        <ele>1323</ele>
        <time>2013-03-25T14:52:21Z</time>
      </trkpt>
      <trkpt lat="-21.1597" lon="55.63023">
        <ele>1322.3</ele>
        <time>2013-03-25T14:52:27Z</time>
      </trkpt>
      <trkpt lat="-21.15964" lon="55.6303">
        <ele>1322.1</ele>
        <time>2013-03-25T14:52:33Z</time>
      </trkpt>
      <trkpt lat="-21.15963" lon="55.63031">
        <ele>1321.5</ele>
        <time>2013-03-25T14:52:34Z</time>
      </trkpt>
      <trkpt lat="-21.15953" lon="55.63041">
        <ele>1320.8</ele>
        <time>2013-03-25T14:52:43Z</time>
      </trkpt>
      <trkpt lat="-21.15947" lon="55.63048">
        <ele>1319.3</ele>
        <time>2013-03-25T14:52:49Z</time>
      </trkpt>
      <trkpt lat="-21.15941" lon="55.63053">
        <ele>1318.3</ele>
        <time>2013-03-25T14:52:54Z</time>
      </trkpt>
      <trkpt lat="-21.15935" lon="55.63058">
        <ele>1317.1</ele>
        <time>2013-03-25T14:52:59Z</time>
      </trkpt>
      <trkpt lat="-21.15929" lon="55.63063">
        <ele>1316.6</ele>
        <time>2013-03-25T14:53:04Z</time>
      </trkpt>
      <trkpt lat="-21.15922" lon="55.63068">
        <ele>1316.3</ele>
        <time>2013-03-25T14:53:09Z</time>
      </trkpt>
      <trkpt lat="-21.15917" lon="55.63074">
        <ele>1315.5</ele>
        <time>2013-03-25T14:53:14Z</time>
      </trkpt>
      <trkpt lat="-21.15911" lon="55.6308">
        <ele>1314.2</ele>
        <time>2013-03-25T14:53:20Z</time>
      </trkpt>
      <trkpt lat="-21.15904" lon="55.63086">
        <ele>1314.2</ele>
        <time>2013-03-25T14:53:26Z</time>
      </trkpt>
      <trkpt lat="-21.15898" lon="55.63093">
        <ele>1313.1</ele>
        <time>2013-03-25T14:53:32Z</time>
      </trkpt>
      <trkpt lat="-21.15892" lon="55.63099">
        <ele>1312.6</ele>
        <time>2013-03-25T14:53:38Z</time>
      </trkpt>
      <trkpt lat="-21.1589" lon="55.63099">
        <ele>1312.5</ele>
        <time>2013-03-25T14:53:39Z</time>
      </trkpt>
      <trkpt lat="-21.15876" lon="55.63098">
        <ele>1310.4</ele>
        <time>2013-03-25T14:53:49Z</time>
      </trkpt>
      <trkpt lat="-21.15868" lon="55.63097">
        <ele>1309.7</ele>
        <time>2013-03-25T14:53:55Z</time>
      </trkpt>
      <trkpt lat="-21.1586" lon="55.63095">
        <ele>1308.2</ele>
        <time>2013-03-25T14:54:02Z</time>
      </trkpt>
      <trkpt lat="-21.15853" lon="55.63093">
        <ele>1307.5</ele>
        <time>2013-03-25T14:54:07Z</time>
      </trkpt>
      <trkpt lat="-21.15845" lon="55.63089">
        <ele>1306</ele>
        <time>2013-03-25T14:54:12Z</time>
      </trkpt>
      <trkpt lat="-21.15837" lon="55.63088">
        <ele>1304.7</ele>
        <time>2013-03-25T14:54:18Z</time>
      </trkpt>
      <trkpt lat="-21.15829" lon="55.63087">
        <ele>1303.9</ele>
        <time>2013-03-25T14:54:24Z</time>
      </trkpt>
      <trkpt lat="-21.15821" lon="55.63088">
        <ele>1303</ele>
        <time>2013-03-25T14:54:30Z</time>
      </trkpt>
      <trkpt lat="-21.15813" lon="55.63089">
        <ele>1300.2</ele>
        <time>2013-03-25T14:54:36Z</time>
      </trkpt>
      <trkpt lat="-21.15805" lon="55.63091">
        <ele>1298.6</ele>
        <time>2013-03-25T14:54:42Z</time>
      </trkpt>
      <trkpt lat="-21.15803" lon="55.63091">
        <ele>1298.4</ele>
        <time>2013-03-25T14:54:43Z</time>
      </trkpt>
      <trkpt lat="-21.15795" lon="55.63104">
        <ele>1296.2</ele>
        <time>2013-03-25T14:54:54Z</time>
      </trkpt>
      <trkpt lat="-21.15799" lon="55.63112">
        <ele>1295.6</ele>
        <time>2013-03-25T14:54:58Z</time>
      </trkpt>
      <trkpt lat="-21.15804" lon="55.6312">
        <ele>1294.6</ele>
        <time>2013-03-25T14:55:03Z</time>
      </trkpt>
      <trkpt lat="-21.15808" lon="55.63128">
        <ele>1294.2</ele>
        <time>2013-03-25T14:55:08Z</time>
      </trkpt>
      <trkpt lat="-21.15809" lon="55.63137">
        <ele>1292.4</ele>
        <time>2013-03-25T14:55:14Z</time>
      </trkpt>
      <trkpt lat="-21.15804" lon="55.63145">
        <ele>1292.1</ele>
        <time>2013-03-25T14:55:20Z</time>
      </trkpt>
      <trkpt lat="-21.15798" lon="55.6315">
        <ele>1292.1</ele>
        <time>2013-03-25T14:55:26Z</time>
      </trkpt>
      <trkpt lat="-21.15792" lon="55.63157">
        <ele>1291.3</ele>
        <time>2013-03-25T14:55:32Z</time>
      </trkpt>
      <trkpt lat="-21.15787" lon="55.63163">
        <ele>1289.9</ele>
        <time>2013-03-25T14:55:37Z</time>
      </trkpt>
      <trkpt lat="-21.15781" lon="55.63169">
        <ele>1289.3</ele>
        <time>2013-03-25T14:55:43Z</time>
      </trkpt>
      <trkpt lat="-21.1578" lon="55.6317">
        <ele>1289.2</ele>
        <time>2013-03-25T14:55:44Z</time>
      </trkpt>
      <trkpt lat="-21.15767" lon="55.63179">
        <ele>1287.9</ele>
        <time>2013-03-25T14:55:54Z</time>
      </trkpt>
      <trkpt lat="-21.1576" lon="55.63185">
        <ele>1287.2</ele>
        <time>2013-03-25T14:56:00Z</time>
      </trkpt>
      <trkpt lat="-21.15754" lon="55.6319">
        <ele>1286.4</ele>
        <time>2013-03-25T14:56:05Z</time>
      </trkpt>
      <trkpt lat="-21.15747" lon="55.63194">
        <ele>1285.9</ele>
        <time>2013-03-25T14:56:11Z</time>
      </trkpt>
      <trkpt lat="-21.15739" lon="55.632">
        <ele>1285.1</ele>
        <time>2013-03-25T14:56:17Z</time>
      </trkpt>
      <trkpt lat="-21.15733" lon="55.63205">
        <ele>1284.5</ele>
        <time>2013-03-25T14:56:22Z</time>
      </trkpt>
      <trkpt lat="-21.15727" lon="55.63211">
        <ele>1283.9</ele>
        <time>2013-03-25T14:56:28Z</time>
      </trkpt>
      <trkpt lat="-21.1572" lon="55.63217">
        <ele>1283.2</ele>
        <time>2013-03-25T14:56:34Z</time>
      </trkpt>
      <trkpt lat="-21.15714" lon="55.63224">
        <ele>1282</ele>
        <time>2013-03-25T14:56:40Z</time>
      </trkpt>
      <trkpt lat="-21.15708" lon="55.6323">
        <ele>1281.4</ele>
        <time>2013-03-25T14:56:46Z</time>
      </trkpt>
      <trkpt lat="-21.15707" lon="55.63231">
        <ele>1281.7</ele>
        <time>2013-03-25T14:56:47Z</time>
      </trkpt>
      <trkpt lat="-21.15695" lon="55.63241">
        <ele>1279.5</ele>
        <time>2013-03-25T14:56:59Z</time>
      </trkpt>
      <trkpt lat="-21.15688" lon="55.63246">
        <ele>1278.5</ele>
        <time>2013-03-25T14:57:05Z</time>
      </trkpt>
      <trkpt lat="-21.15683" lon="55.63253">
        <ele>1277.7</ele>
        <time>2013-03-25T14:57:11Z</time>
      </trkpt>
      <trkpt lat="-21.15676" lon="55.6326">
        <ele>1275.6</ele>
        <time>2013-03-25T14:57:17Z</time>
      </trkpt>
      <trkpt lat="-21.15672" lon="55.63267">
        <ele>1274.8</ele>
        <time>2013-03-25T14:57:22Z</time>
      </trkpt>
      <trkpt lat="-21.15666" lon="55.63273">
        <ele>1274.2</ele>
        <time>2013-03-25T14:57:28Z</time>
      </trkpt>
      <trkpt lat="-21.15659" lon="55.63279">
        <ele>1272.2</ele>
        <time>2013-03-25T14:57:35Z</time>
      </trkpt>
      <trkpt lat="-21.15653" lon="55.63285">
        <ele>1271.2</ele>
        <time>2013-03-25T14:57:40Z</time>
      </trkpt>
      <trkpt lat="-21.15647" lon="55.63291">
        <ele>1270</ele>
        <time>2013-03-25T14:57:46Z</time>
      </trkpt>
      <trkpt lat="-21.1564" lon="55.63298">
        <ele>1269.5</ele>
        <time>2013-03-25T14:57:52Z</time>
      </trkpt>
      <trkpt lat="-21.1564" lon="55.63299">
        <ele>1269.2</ele>
        <time>2013-03-25T14:57:53Z</time>
      </trkpt>
      <trkpt lat="-21.15628" lon="55.63308">
        <ele>1267.8</ele>
        <time>2013-03-25T14:58:03Z</time>
      </trkpt>
      <trkpt lat="-21.15622" lon="55.63313">
        <ele>1267.1</ele>
        <time>2013-03-25T14:58:08Z</time>
      </trkpt>
      <trkpt lat="-21.15617" lon="55.6332">
        <ele>1265.8</ele>
        <time>2013-03-25T14:58:13Z</time>
      </trkpt>
      <trkpt lat="-21.15613" lon="55.63327">
        <ele>1265.2</ele>
        <time>2013-03-25T14:58:17Z</time>
      </trkpt>
      <trkpt lat="-21.15607" lon="55.63333">
        <ele>1264.4</ele>
        <time>2013-03-25T14:58:21Z</time>
      </trkpt>
      <trkpt lat="-21.15601" lon="55.63339">
        <ele>1264.2</ele>
        <time>2013-03-25T14:58:26Z</time>
      </trkpt>
      <trkpt lat="-21.15597" lon="55.63345">
        <ele>1264.5</ele>
        <time>2013-03-25T14:58:30Z</time>
      </trkpt>
      <trkpt lat="-21.15591" lon="55.63351">
        <ele>1263.9</ele>
        <time>2013-03-25T14:58:34Z</time>
      </trkpt>
      <trkpt lat="-21.15585" lon="55.63357">
        <ele>1262.7</ele>
        <time>2013-03-25T14:58:38Z</time>
      </trkpt>
      <trkpt lat="-21.15578" lon="55.63363">
        <ele>1262.1</ele>
        <time>2013-03-25T14:58:43Z</time>
      </trkpt>
      <trkpt lat="-21.15572" lon="55.6337">
        <ele>1261</ele>
        <time>2013-03-25T14:58:48Z</time>
      </trkpt>
      <trkpt lat="-21.15568" lon="55.63377">
        <ele>1261.2</ele>
        <time>2013-03-25T14:58:53Z</time>
      </trkpt>
      <trkpt lat="-21.15567" lon="55.63378">
        <ele>1261.3</ele>
        <time>2013-03-25T14:58:54Z</time>
      </trkpt>
      <trkpt lat="-21.15561" lon="55.63393">
        <ele>1260.2</ele>
        <time>2013-03-25T14:59:05Z</time>
      </trkpt>
      <trkpt lat="-21.15556" lon="55.634">
        <ele>1260.4</ele>
        <time>2013-03-25T14:59:11Z</time>
      </trkpt>
      <trkpt lat="-21.15551" lon="55.63406">
        <ele>1260.1</ele>
        <time>2013-03-25T14:59:18Z</time>
      </trkpt>
      <trkpt lat="-21.15545" lon="55.63413">
        <ele>1258.5</ele>
        <time>2013-03-25T14:59:25Z</time>
      </trkpt>
      <trkpt lat="-21.15539" lon="55.6342">
        <ele>1257.3</ele>
        <time>2013-03-25T14:59:32Z</time>
      </trkpt>
      <trkpt lat="-21.15532" lon="55.63425">
        <ele>1257.2</ele>
        <time>2013-03-25T14:59:41Z</time>
      </trkpt>
      <trkpt lat="-21.15525" lon="55.63431">
        <ele>1256.9</ele>
        <time>2013-03-25T14:59:48Z</time>
      </trkpt>
      <trkpt lat="-21.15519" lon="55.63438">
        <ele>1256.1</ele>
        <time>2013-03-25T14:59:55Z</time>
      </trkpt>
      <trkpt lat="-21.15518" lon="55.63439">
        <ele>1256</ele>
        <time>2013-03-25T14:59:56Z</time>
      </trkpt>
      <trkpt lat="-21.15505" lon="55.6345">
        <ele>1254.3</ele>
        <time>2013-03-25T15:00:08Z</time>
      </trkpt>
      <trkpt lat="-21.155" lon="55.63456">
        <ele>1252.6</ele>
        <time>2013-03-25T15:00:14Z</time>
      </trkpt>
      <trkpt lat="-21.15494" lon="55.63462">
        <ele>1253.4</ele>
        <time>2013-03-25T15:00:20Z</time>
      </trkpt>
      <trkpt lat="-21.15488" lon="55.63468">
        <ele>1251.5</ele>
        <time>2013-03-25T15:00:26Z</time>
      </trkpt>
      <trkpt lat="-21.15482" lon="55.63473">
        <ele>1252</ele>
        <time>2013-03-25T15:00:31Z</time>
      </trkpt>
      <trkpt lat="-21.15476" lon="55.63479">
        <ele>1252.1</ele>
        <time>2013-03-25T15:00:36Z</time>
      </trkpt>
      <trkpt lat="-21.15471" lon="55.63485">
        <ele>1251.8</ele>
        <time>2013-03-25T15:00:41Z</time>
      </trkpt>
      <trkpt lat="-21.15463" lon="55.63489">
        <ele>1250.2</ele>
        <time>2013-03-25T15:00:46Z</time>
      </trkpt>
      <trkpt lat="-21.15456" lon="55.63491">
        <ele>1250.7</ele>
        <time>2013-03-25T15:00:51Z</time>
      </trkpt>
      <trkpt lat="-21.15448" lon="55.63492">
        <ele>1249.1</ele>
        <time>2013-03-25T15:00:56Z</time>
      </trkpt>
      <trkpt lat="-21.15446" lon="55.63492">
        <ele>1249.3</ele>
        <time>2013-03-25T15:00:57Z</time>
      </trkpt>
      <trkpt lat="-21.15432" lon="55.63493">
        <ele>1248.6</ele>
        <time>2013-03-25T15:01:06Z</time>
      </trkpt>
      <trkpt lat="-21.15424" lon="55.63493">
        <ele>1248.1</ele>
        <time>2013-03-25T15:01:12Z</time>
      </trkpt>
      <trkpt lat="-21.15416" lon="55.63492">
        <ele>1247.4</ele>
        <time>2013-03-25T15:01:17Z</time>
      </trkpt>
      <trkpt lat="-21.15409" lon="55.63492">
        <ele>1246.4</ele>
        <time>2013-03-25T15:01:22Z</time>
      </trkpt>
      <trkpt lat="-21.15401" lon="55.6349">
        <ele>1245.9</ele>
        <time>2013-03-25T15:01:27Z</time>
      </trkpt>
      <trkpt lat="-21.15394" lon="55.63488">
        <ele>1245.3</ele>
        <time>2013-03-25T15:01:32Z</time>
      </trkpt>
      <trkpt lat="-21.15386" lon="55.63485">
        <ele>1244.1</ele>
        <time>2013-03-25T15:01:37Z</time>
      </trkpt>
      <trkpt lat="-21.15379" lon="55.63483">
        <ele>1243</ele>
        <time>2013-03-25T15:01:42Z</time>
      </trkpt>
      <trkpt lat="-21.15371" lon="55.63481">
        <ele>1242</ele>
        <time>2013-03-25T15:01:47Z</time>
      </trkpt>
      <trkpt lat="-21.15363" lon="55.63479">
        <ele>1242.1</ele>
        <time>2013-03-25T15:01:53Z</time>
      </trkpt>
      <trkpt lat="-21.15355" lon="55.63475">
        <ele>1239.6</ele>
        <time>2013-03-25T15:01:59Z</time>
      </trkpt>
      <trkpt lat="-21.15353" lon="55.63475">
        <ele>1239.3</ele>
        <time>2013-03-25T15:02:00Z</time>
      </trkpt>
      <trkpt lat="-21.15343" lon="55.63487">
        <ele>1236</ele>
        <time>2013-03-25T15:02:13Z</time>
      </trkpt>
      <trkpt lat="-21.15339" lon="55.63496">
        <ele>1235.1</ele>
        <time>2013-03-25T15:02:19Z</time>
      </trkpt>
      <trkpt lat="-21.15333" lon="55.63503">
        <ele>1234.2</ele>
        <time>2013-03-25T15:02:26Z</time>
      </trkpt>
      <trkpt lat="-21.15328" lon="55.63511">
        <ele>1232.5</ele>
        <time>2013-03-25T15:02:32Z</time>
      </trkpt>
      <trkpt lat="-21.15323" lon="55.63518">
        <ele>1232.1</ele>
        <time>2013-03-25T15:02:38Z</time>
      </trkpt>
      <trkpt lat="-21.15318" lon="55.63524">
        <ele>1230.8</ele>
        <time>2013-03-25T15:02:43Z</time>
      </trkpt>
      <trkpt lat="-21.15312" lon="55.6353">
        <ele>1229.6</ele>
        <time>2013-03-25T15:02:50Z</time>
      </trkpt>
      <trkpt lat="-21.15304" lon="55.63535">
        <ele>1228</ele>
        <time>2013-03-25T15:02:57Z</time>
      </trkpt>
      <trkpt lat="-21.15295" lon="55.63536">
        <ele>1227.5</ele>
        <time>2013-03-25T15:03:03Z</time>
      </trkpt>
      <trkpt lat="-21.15294" lon="55.63536">
        <ele>1227.6</ele>
        <time>2013-03-25T15:03:04Z</time>
      </trkpt>
      <trkpt lat="-21.15278" lon="55.63536">
        <ele>1225.7</ele>
        <time>2013-03-25T15:03:14Z</time>
      </trkpt>
      <trkpt lat="-21.15271" lon="55.63535">
        <ele>1225.2</ele>
        <time>2013-03-25T15:03:19Z</time>
      </trkpt>
      <trkpt lat="-21.15263" lon="55.63533">
        <ele>1224.1</ele>
        <time>2013-03-25T15:03:25Z</time>
      </trkpt>
      <trkpt lat="-21.15256" lon="55.63529">
        <ele>1222.9</ele>
        <time>2013-03-25T15:03:32Z</time>
      </trkpt>
      <trkpt lat="-21.15249" lon="55.63525">
        <ele>1221.4</ele>
        <time>2013-03-25T15:03:39Z</time>
      </trkpt>
      <trkpt lat="-21.15244" lon="55.63519">
        <ele>1220.1</ele>
        <time>2013-03-25T15:03:45Z</time>
      </trkpt>
      <trkpt lat="-21.15238" lon="55.63512">
        <ele>1219.5</ele>
        <time>2013-03-25T15:03:51Z</time>
      </trkpt>
      <trkpt lat="-21.15233" lon="55.63504">
        <ele>1217.9</ele>
        <time>2013-03-25T15:03:59Z</time>
      </trkpt>
      <trkpt lat="-21.15228" lon="55.63498">
        <ele>1216.4</ele>
        <time>2013-03-25T15:04:06Z</time>
      </trkpt>
      <trkpt lat="-21.15226" lon="55.63497">
        <ele>1216.4</ele>
        <time>2013-03-25T15:04:07Z</time>
      </trkpt>
      <trkpt lat="-21.15212" lon="55.63492">
        <ele>1215.8</ele>
        <time>2013-03-25T15:04:17Z</time>
      </trkpt>
      <trkpt lat="-21.15204" lon="55.63491">
        <ele>1214.7</ele>
        <time>2013-03-25T15:04:23Z</time>
      </trkpt>
      <trkpt lat="-21.15195" lon="55.63489">
        <ele>1213.7</ele>
        <time>2013-03-25T15:04:28Z</time>
      </trkpt>
      <trkpt lat="-21.15187" lon="55.63488">
        <ele>1213.1</ele>
        <time>2013-03-25T15:04:33Z</time>
      </trkpt>
      <trkpt lat="-21.15178" lon="55.63487">
        <ele>1212.7</ele>
        <time>2013-03-25T15:04:38Z</time>
      </trkpt>
      <trkpt lat="-21.1517" lon="55.63486">
        <ele>1211.8</ele>
        <time>2013-03-25T15:04:43Z</time>
      </trkpt>
      <trkpt lat="-21.15161" lon="55.63485">
        <ele>1211.4</ele>
        <time>2013-03-25T15:04:48Z</time>
      </trkpt>
      <trkpt lat="-21.15153" lon="55.63484">
        <ele>1210.6</ele>
        <time>2013-03-25T15:04:53Z</time>
      </trkpt>
      <trkpt lat="-21.15145" lon="55.63482">
        <ele>1209.6</ele>
        <time>2013-03-25T15:04:58Z</time>
      </trkpt>
      <trkpt lat="-21.15139" lon="55.63478">
        <ele>1208.6</ele>
        <time>2013-03-25T15:05:03Z</time>
      </trkpt>
      <trkpt lat="-21.15131" lon="55.63473">
        <ele>1208.9</ele>
        <time>2013-03-25T15:05:09Z</time>
      </trkpt>
      <trkpt lat="-21.1513" lon="55.63472">
        <ele>1209.1</ele>
        <time>2013-03-25T15:05:10Z</time>
      </trkpt>
      <trkpt lat="-21.15116" lon="55.63467">
        <ele>1208.8</ele>
        <time>2013-03-25T15:05:20Z</time>
      </trkpt>
      <trkpt lat="-21.15108" lon="55.63469">
        <ele>1207.7</ele>
        <time>2013-03-25T15:05:25Z</time>
      </trkpt>
      <trkpt lat="-21.15101" lon="55.63471">
        <ele>1208.3</ele>
        <time>2013-03-25T15:05:30Z</time>
      </trkpt>
      <trkpt lat="-21.15093" lon="55.63472">
        <ele>1208</ele>
        <time>2013-03-25T15:05:35Z</time>
      </trkpt>
      <trkpt lat="-21.15085" lon="55.63474">
        <ele>1207.1</ele>
        <time>2013-03-25T15:05:41Z</time>
      </trkpt>
      <trkpt lat="-21.15077" lon="55.63473">
        <ele>1206.3</ele>
        <time>2013-03-25T15:05:48Z</time>
      </trkpt>
      <trkpt lat="-21.15069" lon="55.63472">
        <ele>1206</ele>
        <time>2013-03-25T15:05:53Z</time>
      </trkpt>
      <trkpt lat="-21.1506" lon="55.63469">
        <ele>1206.1</ele>
        <time>2013-03-25T15:05:59Z</time>
      </trkpt>
      <trkpt lat="-21.15053" lon="55.63465">
        <ele>1205.4</ele>
        <time>2013-03-25T15:06:04Z</time>
      </trkpt>
      <trkpt lat="-21.15046" lon="55.6346">
        <ele>1204.9</ele>
        <time>2013-03-25T15:06:08Z</time>
      </trkpt>
      <trkpt lat="-21.1504" lon="55.63455">
        <ele>1204.2</ele>
        <time>2013-03-25T15:06:13Z</time>
      </trkpt>
      <trkpt lat="-21.15039" lon="55.63454">
        <ele>1203.9</ele>
        <time>2013-03-25T15:06:14Z</time>
      </trkpt>
      <trkpt lat="-21.1503" lon="55.63441">
        <ele>1201.7</ele>
        <time>2013-03-25T15:06:25Z</time>
      </trkpt>
      <trkpt lat="-21.15023" lon="55.63435">
        <ele>1200.6</ele>
        <time>2013-03-25T15:06:33Z</time>
      </trkpt>
      <trkpt lat="-21.15017" lon="55.63429">
        <ele>1199.6</ele>
        <time>2013-03-25T15:06:39Z</time>
      </trkpt>
      <trkpt lat="-21.15012" lon="55.63423">
        <ele>1199.2</ele>
        <time>2013-03-25T15:06:45Z</time>
      </trkpt>
      <trkpt lat="-21.15007" lon="55.63416">
        <ele>1198.4</ele>
        <time>2013-03-25T15:06:51Z</time>
      </trkpt>
      <trkpt lat="-21.15001" lon="55.63409">
        <ele>1196.6</ele>
        <time>2013-03-25T15:06:57Z</time>
      </trkpt>
      <trkpt lat="-21.14996" lon="55.63404">
        <ele>1196</ele>
        <time>2013-03-25T15:07:02Z</time>
      </trkpt>
      <trkpt lat="-21.1499" lon="55.63398">
        <ele>1195.6</ele>
        <time>2013-03-25T15:07:08Z</time>
      </trkpt>
      <trkpt lat="-21.14984" lon="55.63392">
        <ele>1193.6</ele>
        <time>2013-03-25T15:07:15Z</time>
      </trkpt>
      <trkpt lat="-21.14983" lon="55.63391">
        <ele>1193.4</ele>
        <time>2013-03-25T15:07:16Z</time>
      </trkpt>
      <trkpt lat="-21.14972" lon="55.63381">
        <ele>1191.6</ele>
        <time>2013-03-25T15:07:25Z</time>
      </trkpt>
      <trkpt lat="-21.14967" lon="55.63375">
        <ele>1190.4</ele>
        <time>2013-03-25T15:07:31Z</time>
      </trkpt>
      <trkpt lat="-21.14962" lon="55.63369">
        <ele>1189.3</ele>
        <time>2013-03-25T15:07:36Z</time>
      </trkpt>
      <trkpt lat="-21.14956" lon="55.63362">
        <ele>1188.5</ele>
        <time>2013-03-25T15:07:42Z</time>
      </trkpt>
      <trkpt lat="-21.1495" lon="55.63356">
        <ele>1186.7</ele>
        <time>2013-03-25T15:07:48Z</time>
      </trkpt>
      <trkpt lat="-21.14944" lon="55.63349">
        <ele>1186.1</ele>
        <time>2013-03-25T15:07:53Z</time>
      </trkpt>
      <trkpt lat="-21.14938" lon="55.63344">
        <ele>1186.1</ele>
        <time>2013-03-25T15:07:57Z</time>
      </trkpt>
      <trkpt lat="-21.14933" lon="55.63338">
        <ele>1185.4</ele>
        <time>2013-03-25T15:08:02Z</time>
      </trkpt>
      <trkpt lat="-21.14927" lon="55.63332">
        <ele>1184.1</ele>
        <time>2013-03-25T15:08:07Z</time>
      </trkpt>
      <trkpt lat="-21.1492" lon="55.63326">
        <ele>1183.8</ele>
        <time>2013-03-25T15:08:12Z</time>
      </trkpt>
      <trkpt lat="-21.14916" lon="55.6332">
        <ele>1183.2</ele>
        <time>2013-03-25T15:08:17Z</time>
      </trkpt>
      <trkpt lat="-21.14915" lon="55.63318">
        <ele>1183</ele>
        <time>2013-03-25T15:08:18Z</time>
      </trkpt>
      <trkpt lat="-21.14905" lon="55.63307">
        <ele>1183.3</ele>
        <time>2013-03-25T15:08:27Z</time>
      </trkpt>
      <trkpt lat="-21.14899" lon="55.633">
        <ele>1182.6</ele>
        <time>2013-03-25T15:08:33Z</time>
      </trkpt>
      <trkpt lat="-21.14894" lon="55.63294">
        <ele>1181.7</ele>
        <time>2013-03-25T15:08:39Z</time>
      </trkpt>
      <trkpt lat="-21.14888" lon="55.63287">
        <ele>1180.6</ele>
        <time>2013-03-25T15:08:45Z</time>
      </trkpt>
      <trkpt lat="-21.14883" lon="55.63281">
        <ele>1180.4</ele>
        <time>2013-03-25T15:08:50Z</time>
      </trkpt>
      <trkpt lat="-21.14876" lon="55.63274">
        <ele>1179.7</ele>
        <time>2013-03-25T15:08:56Z</time>
      </trkpt>
      <trkpt lat="-21.1487" lon="55.63267">
        <ele>1179.1</ele>
        <time>2013-03-25T15:09:02Z</time>
      </trkpt>
      <trkpt lat="-21.14865" lon="55.63261">
        <ele>1177.3</ele>
        <time>2013-03-25T15:09:07Z</time>
      </trkpt>
      <trkpt lat="-21.14859" lon="55.63256">
        <ele>1176.2</ele>
        <time>2013-03-25T15:09:12Z</time>
      </trkpt>
      <trkpt lat="-21.14853" lon="55.6325">
        <ele>1175.7</ele>
        <time>2013-03-25T15:09:17Z</time>
      </trkpt>
      <trkpt lat="-21.14847" lon="55.63243">
        <ele>1175.4</ele>
        <time>2013-03-25T15:09:22Z</time>
      </trkpt>
      <trkpt lat="-21.14846" lon="55.63242">
        <ele>1175.3</ele>
        <time>2013-03-25T15:09:23Z</time>
      </trkpt>
      <trkpt lat="-21.14836" lon="55.63231">
        <ele>1174.4</ele>
        <time>2013-03-25T15:09:32Z</time>
      </trkpt>
      <trkpt lat="-21.1483" lon="55.63225">
        <ele>1173.6</ele>
        <time>2013-03-25T15:09:37Z</time>
      </trkpt>
      <trkpt lat="-21.14824" lon="55.6322">
        <ele>1173.8</ele>
        <time>2013-03-25T15:09:42Z</time>
      </trkpt>
      <trkpt lat="-21.14817" lon="55.63215">
        <ele>1173.7</ele>
        <time>2013-03-25T15:09:47Z</time>
      </trkpt>
      <trkpt lat="-21.1481" lon="55.63211">
        <ele>1173.7</ele>
        <time>2013-03-25T15:09:52Z</time>
      </trkpt>
      <trkpt lat="-21.14803" lon="55.63208">
        <ele>1173.2</ele>
        <time>2013-03-25T15:09:57Z</time>
      </trkpt>
      <trkpt lat="-21.14796" lon="55.63204">
        <ele>1172.2</ele>
        <time>2013-03-25T15:10:02Z</time>
      </trkpt>
      <trkpt lat="-21.14789" lon="55.63199">
        <ele>1171.6</ele>
        <time>2013-03-25T15:10:07Z</time>
      </trkpt>
      <trkpt lat="-21.14782" lon="55.63195">
        <ele>1171</ele>
        <time>2013-03-25T15:10:11Z</time>
      </trkpt>
      <trkpt lat="-21.14777" lon="55.63189">
        <ele>1169.9</ele>
        <time>2013-03-25T15:10:15Z</time>
      </trkpt>
      <trkpt lat="-21.1477" lon="55.63183">
        <ele>1168.7</ele>
        <time>2013-03-25T15:10:20Z</time>
      </trkpt>
      <trkpt lat="-21.14763" lon="55.6318">
        <ele>1168.7</ele>
        <time>2013-03-25T15:10:25Z</time>
      </trkpt>
      <trkpt lat="-21.14762" lon="55.63179">
        <ele>1168.5</ele>
        <time>2013-03-25T15:10:26Z</time>
      </trkpt>
      <trkpt lat="-21.1475" lon="55.6317">
        <ele>1166.9</ele>
        <time>2013-03-25T15:10:36Z</time>
      </trkpt>
      <trkpt lat="-21.14743" lon="55.63165">
        <ele>1165.2</ele>
        <time>2013-03-25T15:10:43Z</time>
      </trkpt>
      <trkpt lat="-21.14735" lon="55.63162">
        <ele>1163.9</ele>
        <time>2013-03-25T15:10:49Z</time>
      </trkpt>
      <trkpt lat="-21.14728" lon="55.63159">
        <ele>1163.5</ele>
        <time>2013-03-25T15:10:54Z</time>
      </trkpt>
      <trkpt lat="-21.14721" lon="55.63155">
        <ele>1163.1</ele>
        <time>2013-03-25T15:10:59Z</time>
      </trkpt>
      <trkpt lat="-21.14713" lon="55.63153">
        <ele>1162</ele>
        <time>2013-03-25T15:11:04Z</time>
      </trkpt>
      <trkpt lat="-21.14706" lon="55.63149">
        <ele>1160.3</ele>
        <time>2013-03-25T15:11:10Z</time>
      </trkpt>
      <trkpt lat="-21.14698" lon="55.63145">
        <ele>1159.6</ele>
        <time>2013-03-25T15:11:16Z</time>
      </trkpt>
      <trkpt lat="-21.14691" lon="55.63141">
        <ele>1157.7</ele>
        <time>2013-03-25T15:11:22Z</time>
      </trkpt>
      <trkpt lat="-21.14683" lon="55.63137">
        <ele>1156.8</ele>
        <time>2013-03-25T15:11:29Z</time>
      </trkpt>
      <trkpt lat="-21.14682" lon="55.63136">
        <ele>1156.6</ele>
        <time>2013-03-25T15:11:30Z</time>
      </trkpt>
      <trkpt lat="-21.14673" lon="55.63123">
        <ele>1154.7</ele>
        <time>2013-03-25T15:11:42Z</time>
      </trkpt>
      <trkpt lat="-21.14671" lon="55.63115">
        <ele>1152.9</ele>
        <time>2013-03-25T15:11:46Z</time>
      </trkpt>
      <trkpt lat="-21.1467" lon="55.63107">
        <ele>1152.4</ele>
        <time>2013-03-25T15:11:51Z</time>
      </trkpt>
      <trkpt lat="-21.1467" lon="55.63098">
        <ele>1152.7</ele>
        <time>2013-03-25T15:11:57Z</time>
      </trkpt>
      <trkpt lat="-21.14671" lon="55.63089">
        <ele>1151.5</ele>
        <time>2013-03-25T15:12:04Z</time>
      </trkpt>
      <trkpt lat="-21.14671" lon="55.6308">
        <ele>1150.6</ele>
        <time>2013-03-25T15:12:10Z</time>
      </trkpt>
      <trkpt lat="-21.14673" lon="55.63071">
        <ele>1150.3</ele>
        <time>2013-03-25T15:12:17Z</time>
      </trkpt>
      <trkpt lat="-21.14677" lon="55.63063">
        <ele>1149.2</ele>
        <time>2013-03-25T15:12:23Z</time>
      </trkpt>
      <trkpt lat="-21.14682" lon="55.63057">
        <ele>1148.6</ele>
        <time>2013-03-25T15:12:29Z</time>
      </trkpt>
      <trkpt lat="-21.14687" lon="55.63051">
        <ele>1148.3</ele>
        <time>2013-03-25T15:12:34Z</time>
      </trkpt>
      <trkpt lat="-21.14688" lon="55.6305">
        <ele>1148.3</ele>
        <time>2013-03-25T15:12:35Z</time>
      </trkpt>
      <trkpt lat="-21.14701" lon="55.63041">
        <ele>1148.1</ele>
        <time>2013-03-25T15:12:49Z</time>
      </trkpt>
      <trkpt lat="-21.14707" lon="55.63033">
        <ele>1146.3</ele>
        <time>2013-03-25T15:12:57Z</time>
      </trkpt>
      <trkpt lat="-21.14712" lon="55.63028">
        <ele>1145.4</ele>
        <time>2013-03-25T15:13:02Z</time>
      </trkpt>
      <trkpt lat="-21.1472" lon="55.63023">
        <ele>1144.3</ele>
        <time>2013-03-25T15:13:07Z</time>
      </trkpt>
      <trkpt lat="-21.14725" lon="55.63016">
        <ele>1143.2</ele>
        <time>2013-03-25T15:13:13Z</time>
      </trkpt>
      <trkpt lat="-21.14725" lon="55.63006">
        <ele>1143.2</ele>
        <time>2013-03-25T15:13:19Z</time>
      </trkpt>
      <trkpt lat="-21.14721" lon="55.62998">
        <ele>1141.2</ele>
        <time>2013-03-25T15:13:25Z</time>
      </trkpt>
      <trkpt lat="-21.14713" lon="55.62994">
        <ele>1139.7</ele>
        <time>2013-03-25T15:13:30Z</time>
      </trkpt>
      <trkpt lat="-21.14705" lon="55.62994">
        <ele>1138.5</ele>
        <time>2013-03-25T15:13:36Z</time>
      </trkpt>
      <trkpt lat="-21.14703" lon="55.62994">
        <ele>1138.8</ele>
        <time>2013-03-25T15:13:37Z</time>
      </trkpt>
      <trkpt lat="-21.14688" lon="55.62996">
        <ele>1137.3</ele>
        <time>2013-03-25T15:13:48Z</time>
      </trkpt>
      <trkpt lat="-21.14679" lon="55.62997">
        <ele>1136.3</ele>
        <time>2013-03-25T15:13:55Z</time>
      </trkpt>
      <trkpt lat="-21.14671" lon="55.62996">
        <ele>1136.4</ele>
        <time>2013-03-25T15:14:01Z</time>
      </trkpt>
      <trkpt lat="-21.14662" lon="55.62993">
        <ele>1135.2</ele>
        <time>2013-03-25T15:14:07Z</time>
      </trkpt>
      <trkpt lat="-21.14655" lon="55.62991">
        <ele>1134.1</ele>
        <time>2013-03-25T15:14:12Z</time>
      </trkpt>
      <trkpt lat="-21.14647" lon="55.62989">
        <ele>1132.8</ele>
        <time>2013-03-25T15:14:18Z</time>
      </trkpt>
      <trkpt lat="-21.14639" lon="55.62987">
        <ele>1131.4</ele>
        <time>2013-03-25T15:14:24Z</time>
      </trkpt>
      <trkpt lat="-21.1463" lon="55.62986">
        <ele>1131.1</ele>
        <time>2013-03-25T15:14:30Z</time>
      </trkpt>
      <trkpt lat="-21.14622" lon="55.62986">
        <ele>1129.9</ele>
        <time>2013-03-25T15:14:36Z</time>
      </trkpt>
      <trkpt lat="-21.14615" lon="55.6299">
        <ele>1129.4</ele>
        <time>2013-03-25T15:14:41Z</time>
      </trkpt>
      <trkpt lat="-21.14614" lon="55.62991">
        <ele>1129.3</ele>
        <time>2013-03-25T15:14:42Z</time>
      </trkpt>
      <trkpt lat="-21.14602" lon="55.63001">
        <ele>1128.8</ele>
        <time>2013-03-25T15:14:54Z</time>
      </trkpt>
      <trkpt lat="-21.14596" lon="55.63007">
        <ele>1127.6</ele>
        <time>2013-03-25T15:15:00Z</time>
      </trkpt>
      <trkpt lat="-21.1459" lon="55.63013">
        <ele>1127</ele>
        <time>2013-03-25T15:15:06Z</time>
      </trkpt>
      <trkpt lat="-21.14582" lon="55.63014">
        <ele>1126.6</ele>
        <time>2013-03-25T15:15:12Z</time>
      </trkpt>
      <trkpt lat="-21.14574" lon="55.6301">
        <ele>1125.7</ele>
        <time>2013-03-25T15:15:19Z</time>
      </trkpt>
      <trkpt lat="-21.14574" lon="55.63001">
        <ele>1123.5</ele>
        <time>2013-03-25T15:15:27Z</time>
      </trkpt>
      <trkpt lat="-21.14579" lon="55.62993">
        <ele>1121.7</ele>
        <time>2013-03-25T15:15:35Z</time>
      </trkpt>
      <trkpt lat="-21.14582" lon="55.62985">
        <ele>1121.7</ele>
        <time>2013-03-25T15:15:41Z</time>
      </trkpt>
      <trkpt lat="-21.14585" lon="55.62977">
        <ele>1121.4</ele>
        <time>2013-03-25T15:15:47Z</time>
      </trkpt>
      <trkpt lat="-21.14585" lon="55.62976">
        <ele>1121</ele>
        <time>2013-03-25T15:15:48Z</time>
      </trkpt>
      <trkpt lat="-21.14588" lon="55.62959">
        <ele>1118.8</ele>
        <time>2013-03-25T15:15:59Z</time>
      </trkpt>
      <trkpt lat="-21.14589" lon="55.6295">
        <ele>1116.9</ele>
        <time>2013-03-25T15:16:06Z</time>
      </trkpt>
      <trkpt lat="-21.14592" lon="55.62941">
        <ele>1115.7</ele>
        <time>2013-03-25T15:16:18Z</time>
      </trkpt>
      <trkpt lat="-21.146" lon="55.62937">
        <ele>1115</ele>
        <time>2013-03-25T15:16:25Z</time>
      </trkpt>
      <trkpt lat="-21.14608" lon="55.62933">
        <ele>1114.6</ele>
        <time>2013-03-25T15:16:32Z</time>
      </trkpt>
      <trkpt lat="-21.14616" lon="55.6293">
        <ele>1113.9</ele>
        <time>2013-03-25T15:16:39Z</time>
      </trkpt>
      <trkpt lat="-21.14623" lon="55.62926">
        <ele>1111.9</ele>
        <time>2013-03-25T15:16:45Z</time>
      </trkpt>
      <trkpt lat="-21.14628" lon="55.62919">
        <ele>1111.1</ele>
        <time>2013-03-25T15:16:51Z</time>
      </trkpt>
      <trkpt lat="-21.14628" lon="55.62917">
        <ele>1110.8</ele>
        <time>2013-03-25T15:16:52Z</time>
      </trkpt>
      <trkpt lat="-21.14619" lon="55.62906">
        <ele>1109.8</ele>
        <time>2013-03-25T15:17:03Z</time>
      </trkpt>
      <trkpt lat="-21.14612" lon="55.62903">
        <ele>1108</ele>
        <time>2013-03-25T15:17:08Z</time>
      </trkpt>
      <trkpt lat="-21.14603" lon="55.62901">
        <ele>1107</ele>
        <time>2013-03-25T15:17:14Z</time>
      </trkpt>
      <trkpt lat="-21.14594" lon="55.62899">
        <ele>1106.1</ele>
        <time>2013-03-25T15:17:20Z</time>
      </trkpt>
      <trkpt lat="-21.14586" lon="55.62897">
        <ele>1105.2</ele>
        <time>2013-03-25T15:17:26Z</time>
      </trkpt>
      <trkpt lat="-21.14577" lon="55.62895">
        <ele>1104.3</ele>
        <time>2013-03-25T15:17:32Z</time>
      </trkpt>
      <trkpt lat="-21.1457" lon="55.62893">
        <ele>1103.1</ele>
        <time>2013-03-25T15:17:37Z</time>
      </trkpt>
      <trkpt lat="-21.14562" lon="55.62892">
        <ele>1103.5</ele>
        <time>2013-03-25T15:17:42Z</time>
      </trkpt>
      <trkpt lat="-21.14555" lon="55.62889">
        <ele>1102.2</ele>
        <time>2013-03-25T15:17:47Z</time>
      </trkpt>
      <trkpt lat="-21.14547" lon="55.62887">
        <ele>1101.6</ele>
        <time>2013-03-25T15:17:52Z</time>
      </trkpt>
      <trkpt lat="-21.14546" lon="55.62887">
        <ele>1101.7</ele>
        <time>2013-03-25T15:17:53Z</time>
      </trkpt>
      <trkpt lat="-21.14533" lon="55.62878">
        <ele>1100.1</ele>
        <time>2013-03-25T15:18:04Z</time>
      </trkpt>
      <trkpt lat="-21.14527" lon="55.62871">
        <ele>1099.6</ele>
        <time>2013-03-25T15:18:11Z</time>
      </trkpt>
      <trkpt lat="-21.1452" lon="55.62866">
        <ele>1099.5</ele>
        <time>2013-03-25T15:18:18Z</time>
      </trkpt>
      <trkpt lat="-21.14515" lon="55.62859">
        <ele>1098.6</ele>
        <time>2013-03-25T15:18:24Z</time>
      </trkpt>
      <trkpt lat="-21.14509" lon="55.62854">
        <ele>1098.9</ele>
        <time>2013-03-25T15:18:29Z</time>
      </trkpt>
      <trkpt lat="-21.14503" lon="55.62847">
        <ele>1098.2</ele>
        <time>2013-03-25T15:18:35Z</time>
      </trkpt>
      <trkpt lat="-21.14497" lon="55.62841">
        <ele>1098</ele>
        <time>2013-03-25T15:18:40Z</time>
      </trkpt>
      <trkpt lat="-21.14491" lon="55.62836">
        <ele>1097.8</ele>
        <time>2013-03-25T15:18:46Z</time>
      </trkpt>
      <trkpt lat="-21.14485" lon="55.62829">
        <ele>1098.4</ele>
        <time>2013-03-25T15:18:52Z</time>
      </trkpt>
      <trkpt lat="-21.1448" lon="55.62823">
        <ele>1098.2</ele>
        <time>2013-03-25T15:18:57Z</time>
      </trkpt>
      <trkpt lat="-21.14479" lon="55.62822">
        <ele>1098.3</ele>
        <time>2013-03-25T15:18:58Z</time>
      </trkpt>
      <trkpt lat="-21.14465" lon="55.62817">
        <ele>1098.8</ele>
        <time>2013-03-25T15:19:07Z</time>
      </trkpt>
      <trkpt lat="-21.14458" lon="55.62822">
        <ele>1097.3</ele>
        <time>2013-03-25T15:19:13Z</time>
      </trkpt>
      <trkpt lat="-21.14451" lon="55.62826">
        <ele>1097.2</ele>
        <time>2013-03-25T15:19:19Z</time>
      </trkpt>
      <trkpt lat="-21.14444" lon="55.62832">
        <ele>1097.5</ele>
        <time>2013-03-25T15:19:25Z</time>
      </trkpt>
      <trkpt lat="-21.14437" lon="55.62838">
        <ele>1096.3</ele>
        <time>2013-03-25T15:19:31Z</time>
      </trkpt>
      <trkpt lat="-21.1443" lon="55.62843">
        <ele>1096.2</ele>
        <time>2013-03-25T15:19:37Z</time>
      </trkpt>
      <trkpt lat="-21.14423" lon="55.62846">
        <ele>1095.4</ele>
        <time>2013-03-25T15:19:44Z</time>
      </trkpt>
      <trkpt lat="-21.14416" lon="55.62851">
        <ele>1095.3</ele>
        <time>2013-03-25T15:19:51Z</time>
      </trkpt>
      <trkpt lat="-21.1441" lon="55.62857">
        <ele>1094</ele>
        <time>2013-03-25T15:19:57Z</time>
      </trkpt>
      <trkpt lat="-21.14403" lon="55.62863">
        <ele>1093.8</ele>
        <time>2013-03-25T15:20:02Z</time>
      </trkpt>
      <trkpt lat="-21.14402" lon="55.62864">
        <ele>1093.7</ele>
        <time>2013-03-25T15:20:03Z</time>
      </trkpt>
      <trkpt lat="-21.1439" lon="55.62874">
        <ele>1093.6</ele>
        <time>2013-03-25T15:20:12Z</time>
      </trkpt>
      <trkpt lat="-21.14383" lon="55.6288">
        <ele>1093.1</ele>
        <time>2013-03-25T15:20:17Z</time>
      </trkpt>
      <trkpt lat="-21.14375" lon="55.62885">
        <ele>1092.5</ele>
        <time>2013-03-25T15:20:22Z</time>
      </trkpt>
      <trkpt lat="-21.14369" lon="55.6289">
        <ele>1092.1</ele>
        <time>2013-03-25T15:20:27Z</time>
      </trkpt>
      <trkpt lat="-21.14362" lon="55.62896">
        <ele>1091.2</ele>
        <time>2013-03-25T15:20:33Z</time>
      </trkpt>
      <trkpt lat="-21.14355" lon="55.62901">
        <ele>1090.6</ele>
        <time>2013-03-25T15:20:39Z</time>
      </trkpt>
      <trkpt lat="-21.14348" lon="55.62906">
        <ele>1089.4</ele>
        <time>2013-03-25T15:20:44Z</time>
      </trkpt>
      <trkpt lat="-21.14341" lon="55.62911">
        <ele>1090.2</ele>
        <time>2013-03-25T15:20:49Z</time>
      </trkpt>
      <trkpt lat="-21.14335" lon="55.62916">
        <ele>1089.1</ele>
        <time>2013-03-25T15:20:54Z</time>
      </trkpt>
      <trkpt lat="-21.14329" lon="55.62923">
        <ele>1087.5</ele>
        <time>2013-03-25T15:21:00Z</time>
      </trkpt>
      <trkpt lat="-21.14323" lon="55.62929">
        <ele>1087.5</ele>
        <time>2013-03-25T15:21:05Z</time>
      </trkpt>
      <trkpt lat="-21.14322" lon="55.62931">
        <ele>1087.4</ele>
        <time>2013-03-25T15:21:06Z</time>
      </trkpt>
      <trkpt lat="-21.14311" lon="55.6294">
        <ele>1086.3</ele>
        <time>2013-03-25T15:21:16Z</time>
      </trkpt>
      <trkpt lat="-21.14305" lon="55.62946">
        <ele>1085.2</ele>
        <time>2013-03-25T15:21:22Z</time>
      </trkpt>
      <trkpt lat="-21.14299" lon="55.62951">
        <ele>1084.6</ele>
        <time>2013-03-25T15:21:27Z</time>
      </trkpt>
      <trkpt lat="-21.14292" lon="55.62956">
        <ele>1083.9</ele>
        <time>2013-03-25T15:21:32Z</time>
      </trkpt>
      <trkpt lat="-21.14285" lon="55.62961">
        <ele>1084.1</ele>
        <time>2013-03-25T15:21:37Z</time>
      </trkpt>
      <trkpt lat="-21.14278" lon="55.62964">
        <ele>1082.9</ele>
        <time>2013-03-25T15:21:42Z</time>
      </trkpt>
      <trkpt lat="-21.14271" lon="55.62968">
        <ele>1083.5</ele>
        <time>2013-03-25T15:21:47Z</time>
      </trkpt>
      <trkpt lat="-21.14264" lon="55.62974">
        <ele>1083.1</ele>
        <time>2013-03-25T15:21:52Z</time>
      </trkpt>
      <trkpt lat="-21.14257" lon="55.62979">
        <ele>1082.4</ele>
        <time>2013-03-25T15:21:57Z</time>
      </trkpt>
      <trkpt lat="-21.1425" lon="55.62984">
        <ele>1082.1</ele>
        <time>2013-03-25T15:22:04Z</time>
      </trkpt>
      <trkpt lat="-21.14243" lon="55.6299">
        <ele>1081.4</ele>
        <time>2013-03-25T15:22:11Z</time>
      </trkpt>
      <trkpt lat="-21.14242" lon="55.62991">
        <ele>1081.1</ele>
        <time>2013-03-25T15:22:12Z</time>
      </trkpt>
      <trkpt lat="-21.1423" lon="55.63001">
        <ele>1080.1</ele>
        <time>2013-03-25T15:22:22Z</time>
      </trkpt>
      <trkpt lat="-21.14223" lon="55.63005">
        <ele>1079.8</ele>
        <time>2013-03-25T15:22:28Z</time>
      </trkpt>
      <trkpt lat="-21.14216" lon="55.63012">
        <ele>1079</ele>
        <time>2013-03-25T15:22:34Z</time>
      </trkpt>
      <trkpt lat="-21.1421" lon="55.63017">
        <ele>1078.4</ele>
        <time>2013-03-25T15:22:39Z</time>
      </trkpt>
      <trkpt lat="-21.14203" lon="55.63022">
        <ele>1078.3</ele>
        <time>2013-03-25T15:22:43Z</time>
      </trkpt>
      <trkpt lat="-21.14197" lon="55.63028">
        <ele>1077.5</ele>
        <time>2013-03-25T15:22:49Z</time>
      </trkpt>
      <trkpt lat="-21.1419" lon="55.63034">
        <ele>1078.1</ele>
        <time>2013-03-25T15:22:55Z</time>
      </trkpt>
      <trkpt lat="-21.14183" lon="55.6304">
        <ele>1077.6</ele>
        <time>2013-03-25T15:23:01Z</time>
      </trkpt>
      <trkpt lat="-21.14177" lon="55.63047">
        <ele>1075.9</ele>
        <time>2013-03-25T15:23:07Z</time>
      </trkpt>
      <trkpt lat="-21.1417" lon="55.63052">
        <ele>1075.7</ele>
        <time>2013-03-25T15:23:12Z</time>
      </trkpt>
      <trkpt lat="-21.14169" lon="55.63053">
        <ele>1075.6</ele>
        <time>2013-03-25T15:23:13Z</time>
      </trkpt>
      <trkpt lat="-21.14159" lon="55.63064">
        <ele>1074.5</ele>
        <time>2013-03-25T15:23:22Z</time>
      </trkpt>
      <trkpt lat="-21.14154" lon="55.6307">
        <ele>1074.8</ele>
        <time>2013-03-25T15:23:27Z</time>
      </trkpt>
      <trkpt lat="-21.14149" lon="55.63077">
        <ele>1073.6</ele>
        <time>2013-03-25T15:23:32Z</time>
      </trkpt>
      <trkpt lat="-21.14144" lon="55.63083">
        <ele>1073.8</ele>
        <time>2013-03-25T15:23:36Z</time>
      </trkpt>
      <trkpt lat="-21.14137" lon="55.63089">
        <ele>1073.2</ele>
        <time>2013-03-25T15:23:41Z</time>
      </trkpt>
      <trkpt lat="-21.14131" lon="55.63094">
        <ele>1073.5</ele>
        <time>2013-03-25T15:23:46Z</time>
      </trkpt>
      <trkpt lat="-21.14122" lon="55.63097">
        <ele>1072.9</ele>
        <time>2013-03-25T15:23:52Z</time>
      </trkpt>
      <trkpt lat="-21.14115" lon="55.63093">
        <ele>1072.5</ele>
        <time>2013-03-25T15:23:57Z</time>
      </trkpt>
      <trkpt lat="-21.14108" lon="55.63087">
        <ele>1073.2</ele>
        <time>2013-03-25T15:24:03Z</time>
      </trkpt>
      <trkpt lat="-21.14102" lon="55.63081">
        <ele>1072.1</ele>
        <time>2013-03-25T15:24:09Z</time>
      </trkpt>
      <trkpt lat="-21.14096" lon="55.63075">
        <ele>1072.2</ele>
        <time>2013-03-25T15:24:15Z</time>
      </trkpt>
      <trkpt lat="-21.14095" lon="55.63074">
        <ele>1072.3</ele>
        <time>2013-03-25T15:24:16Z</time>
      </trkpt>
      <trkpt lat="-21.14084" lon="55.63062">
        <ele>1071.5</ele>
        <time>2013-03-25T15:24:27Z</time>
      </trkpt>
      <trkpt lat="-21.14078" lon="55.63056">
        <ele>1071.2</ele>
        <time>2013-03-25T15:24:34Z</time>
      </trkpt>
      <trkpt lat="-21.14073" lon="55.63049">
        <ele>1071</ele>
        <time>2013-03-25T15:24:40Z</time>
      </trkpt>
      <trkpt lat="-21.14067" lon="55.63043">
        <ele>1071.3</ele>
        <time>2013-03-25T15:24:46Z</time>
      </trkpt>
      <trkpt lat="-21.14062" lon="55.63036">
        <ele>1071.6</ele>
        <time>2013-03-25T15:24:52Z</time>
      </trkpt>
      <trkpt lat="-21.14056" lon="55.63029">
        <ele>1072</ele>
        <time>2013-03-25T15:24:58Z</time>
      </trkpt>
      <trkpt lat="-21.1405" lon="55.63022">
        <ele>1071</ele>
        <time>2013-03-25T15:25:04Z</time>
      </trkpt>
      <trkpt lat="-21.14044" lon="55.63015">
        <ele>1071.7</ele>
        <time>2013-03-25T15:25:10Z</time>
      </trkpt>
      <trkpt lat="-21.14038" lon="55.63009">
        <ele>1072.6</ele>
        <time>2013-03-25T15:25:16Z</time>
      </trkpt>
      <trkpt lat="-21.14037" lon="55.63008">
        <ele>1072.7</ele>
        <time>2013-03-25T15:25:17Z</time>
      </trkpt>
      <trkpt lat="-21.14025" lon="55.62998">
        <ele>1075</ele>
        <time>2013-03-25T15:25:27Z</time>
      </trkpt>
      <trkpt lat="-21.14018" lon="55.62992">
        <ele>1074.1</ele>
        <time>2013-03-25T15:25:33Z</time>
      </trkpt>
      <trkpt lat="-21.14012" lon="55.62987">
        <ele>1074.9</ele>
        <time>2013-03-25T15:25:38Z</time>
      </trkpt>
      <trkpt lat="-21.14006" lon="55.62982">
        <ele>1075.1</ele>
        <time>2013-03-25T15:25:43Z</time>
      </trkpt>
      <trkpt lat="-21.13999" lon="55.62976">
        <ele>1075.4</ele>
        <time>2013-03-25T15:25:49Z</time>
      </trkpt>
      <trkpt lat="-21.13993" lon="55.62971">
        <ele>1076.1</ele>
        <time>2013-03-25T15:25:54Z</time>
      </trkpt>
      <trkpt lat="-21.13988" lon="55.62965">
        <ele>1075.8</ele>
        <time>2013-03-25T15:26:00Z</time>
      </trkpt>
      <trkpt lat="-21.13983" lon="55.62958">
        <ele>1075.5</ele>
        <time>2013-03-25T15:26:06Z</time>
      </trkpt>
      <trkpt lat="-21.13976" lon="55.62952">
        <ele>1076</ele>
        <time>2013-03-25T15:26:12Z</time>
      </trkpt>
      <trkpt lat="-21.1397" lon="55.62945">
        <ele>1076.1</ele>
        <time>2013-03-25T15:26:18Z</time>
      </trkpt>
      <trkpt lat="-21.13969" lon="55.62944">
        <ele>1076.3</ele>
        <time>2013-03-25T15:26:19Z</time>
      </trkpt>
      <trkpt lat="-21.13958" lon="55.62934">
        <ele>1077.1</ele>
        <time>2013-03-25T15:26:31Z</time>
      </trkpt>
      <trkpt lat="-21.13952" lon="55.62929">
        <ele>1076.8</ele>
        <time>2013-03-25T15:26:36Z</time>
      </trkpt>
      <trkpt lat="-21.13946" lon="55.62923">
        <ele>1077.1</ele>
        <time>2013-03-25T15:26:41Z</time>
      </trkpt>
      <trkpt lat="-21.13941" lon="55.62917">
        <ele>1077</ele>
        <time>2013-03-25T15:26:46Z</time>
      </trkpt>
      <trkpt lat="-21.13935" lon="55.6291">
        <ele>1076.6</ele>
        <time>2013-03-25T15:26:51Z</time>
      </trkpt>
      <trkpt lat="-21.13929" lon="55.62904">
        <ele>1076.9</ele>
        <time>2013-03-25T15:26:56Z</time>
      </trkpt>
      <trkpt lat="-21.13924" lon="55.62896">
        <ele>1076</ele>
        <time>2013-03-25T15:27:02Z</time>
      </trkpt>
      <trkpt lat="-21.13919" lon="55.6289">
        <ele>1076</ele>
        <time>2013-03-25T15:27:07Z</time>
      </trkpt>
      <trkpt lat="-21.13914" lon="55.62884">
        <ele>1075.8</ele>
        <time>2013-03-25T15:27:12Z</time>
      </trkpt>
      <trkpt lat="-21.13908" lon="55.62878">
        <ele>1075.7</ele>
        <time>2013-03-25T15:27:17Z</time>
      </trkpt>
      <trkpt lat="-21.13902" lon="55.62872">
        <ele>1076.5</ele>
        <time>2013-03-25T15:27:22Z</time>
      </trkpt>
      <trkpt lat="-21.13901" lon="55.62871">
        <ele>1076.2</ele>
        <time>2013-03-25T15:27:23Z</time>
      </trkpt>
      <trkpt lat="-21.13891" lon="55.62859">
        <ele>1076.2</ele>
        <time>2013-03-25T15:27:33Z</time>
      </trkpt>
      <trkpt lat="-21.13885" lon="55.62853">
        <ele>1076.5</ele>
        <time>2013-03-25T15:27:39Z</time>
      </trkpt>
      <trkpt lat="-21.1388" lon="55.62845">
        <ele>1075.1</ele>
        <time>2013-03-25T15:27:45Z</time>
      </trkpt>
      <trkpt lat="-21.13874" lon="55.62838">
        <ele>1076.1</ele>
        <time>2013-03-25T15:27:51Z</time>
      </trkpt>
      <trkpt lat="-21.13869" lon="55.62831">
        <ele>1075.4</ele>
        <time>2013-03-25T15:27:57Z</time>
      </trkpt>
      <trkpt lat="-21.13864" lon="55.62824">
        <ele>1075.5</ele>
        <time>2013-03-25T15:28:03Z</time>
      </trkpt>
      <trkpt lat="-21.13858" lon="55.62817">
        <ele>1075.5</ele>
        <time>2013-03-25T15:28:09Z</time>
      </trkpt>
      <trkpt lat="-21.13852" lon="55.62812">
        <ele>1074.8</ele>
        <time>2013-03-25T15:28:14Z</time>
      </trkpt>
      <trkpt lat="-21.13846" lon="55.62807">
        <ele>1077</ele>
        <time>2013-03-25T15:28:19Z</time>
      </trkpt>
      <trkpt lat="-21.1384" lon="55.628">
        <ele>1076.8</ele>
        <time>2013-03-25T15:28:25Z</time>
      </trkpt>
      <trkpt lat="-21.13838" lon="55.62799">
        <ele>1076.6</ele>
        <time>2013-03-25T15:28:26Z</time>
      </trkpt>
      <trkpt lat="-21.13828" lon="55.62789">
        <ele>1076.1</ele>
        <time>2013-03-25T15:28:35Z</time>
      </trkpt>
      <trkpt lat="-21.13823" lon="55.62782">
        <ele>1075.7</ele>
        <time>2013-03-25T15:28:41Z</time>
      </trkpt>
      <trkpt lat="-21.13817" lon="55.62777">
        <ele>1076.2</ele>
        <time>2013-03-25T15:28:46Z</time>
      </trkpt>
      <trkpt lat="-21.13812" lon="55.6277">
        <ele>1076.8</ele>
        <time>2013-03-25T15:28:52Z</time>
      </trkpt>
      <trkpt lat="-21.13806" lon="55.62763">
        <ele>1076.5</ele>
        <time>2013-03-25T15:28:58Z</time>
      </trkpt>
      <trkpt lat="-21.138" lon="55.62757">
        <ele>1076.9</ele>
        <time>2013-03-25T15:29:04Z</time>
      </trkpt>
      <trkpt lat="-21.13793" lon="55.6275">
        <ele>1077.3</ele>
        <time>2013-03-25T15:29:10Z</time>
      </trkpt>
      <trkpt lat="-21.13786" lon="55.62744">
        <ele>1077.1</ele>
        <time>2013-03-25T15:29:16Z</time>
      </trkpt>
      <trkpt lat="-21.1378" lon="55.62738">
        <ele>1077.6</ele>
        <time>2013-03-25T15:29:22Z</time>
      </trkpt>
      <trkpt lat="-21.13774" lon="55.62732">
        <ele>1077.7</ele>
        <time>2013-03-25T15:29:28Z</time>
      </trkpt>
      <trkpt lat="-21.13773" lon="55.62731">
        <ele>1077.7</ele>
        <time>2013-03-25T15:29:29Z</time>
      </trkpt>
      <trkpt lat="-21.13763" lon="55.62719">
        <ele>1077.1</ele>
        <time>2013-03-25T15:29:39Z</time>
      </trkpt>
      <trkpt lat="-21.13758" lon="55.62713">
        <ele>1077.9</ele>
        <time>2013-03-25T15:29:44Z</time>
      </trkpt>
      <trkpt lat="-21.13752" lon="55.62706">
        <ele>1077.4</ele>
        <time>2013-03-25T15:29:50Z</time>
      </trkpt>
      <trkpt lat="-21.13746" lon="55.62699">
        <ele>1078.1</ele>
        <time>2013-03-25T15:29:56Z</time>
      </trkpt>
      <trkpt lat="-21.1374" lon="55.62693">
        <ele>1077.8</ele>
        <time>2013-03-25T15:30:02Z</time>
      </trkpt>
      <trkpt lat="-21.13734" lon="55.62686">
        <ele>1077.9</ele>
        <time>2013-03-25T15:30:08Z</time>
      </trkpt>
      <trkpt lat="-21.13728" lon="55.62679">
        <ele>1078.3</ele>
        <time>2013-03-25T15:30:14Z</time>
      </trkpt>
      <trkpt lat="-21.13723" lon="55.62673">
        <ele>1078.8</ele>
        <time>2013-03-25T15:30:19Z</time>
      </trkpt>
      <trkpt lat="-21.13718" lon="55.62668">
        <ele>1077.9</ele>
        <time>2013-03-25T15:30:24Z</time>
      </trkpt>
      <trkpt lat="-21.13712" lon="55.6266">
        <ele>1077.6</ele>
        <time>2013-03-25T15:30:30Z</time>
      </trkpt>
      <trkpt lat="-21.13711" lon="55.62659">
        <ele>1077.7</ele>
        <time>2013-03-25T15:30:31Z</time>
      </trkpt>
      <trkpt lat="-21.13701" lon="55.62647">
        <ele>1077.8</ele>
        <time>2013-03-25T15:30:41Z</time>
      </trkpt>
      <trkpt lat="-21.13695" lon="55.62641">
        <ele>1077</ele>
        <time>2013-03-25T15:30:46Z</time>
      </trkpt>
      <trkpt lat="-21.1369" lon="55.62635">
        <ele>1078.1</ele>
        <time>2013-03-25T15:30:51Z</time>
      </trkpt>
      <trkpt lat="-21.13685" lon="55.62629">
        <ele>1078.4</ele>
        <time>2013-03-25T15:30:56Z</time>
      </trkpt>
      <trkpt lat="-21.13679" lon="55.62623">
        <ele>1078.6</ele>
        <time>2013-03-25T15:31:01Z</time>
      </trkpt>
      <trkpt lat="-21.13673" lon="55.62618">
        <ele>1078.8</ele>
        <time>2013-03-25T15:31:06Z</time>
      </trkpt>
      <trkpt lat="-21.13667" lon="55.62613">
        <ele>1078.6</ele>
        <time>2013-03-25T15:31:11Z</time>
      </trkpt>
      <trkpt lat="-21.1366" lon="55.62607">
        <ele>1078.3</ele>
        <time>2013-03-25T15:31:16Z</time>
      </trkpt>
      <trkpt lat="-21.13655" lon="55.62601">
        <ele>1077.6</ele>
        <time>2013-03-25T15:31:21Z</time>
      </trkpt>
      <trkpt lat="-21.1365" lon="55.62595">
        <ele>1077.3</ele>
        <time>2013-03-25T15:31:26Z</time>
      </trkpt>
      <trkpt lat="-21.13643" lon="55.6259">
        <ele>1078.1</ele>
        <time>2013-03-25T15:31:31Z</time>
      </trkpt>
      <trkpt lat="-21.13642" lon="55.62589">
        <ele>1078.2</ele>
        <time>2013-03-25T15:31:32Z</time>
      </trkpt>
      <trkpt lat="-21.13632" lon="55.62576">
        <ele>1078.8</ele>
        <time>2013-03-25T15:31:43Z</time>
      </trkpt>
      <trkpt lat="-21.13626" lon="55.6257">
        <ele>1079.4</ele>
        <time>2013-03-25T15:31:49Z</time>
      </trkpt>
      <trkpt lat="-21.1362" lon="55.62563">
        <ele>1079.6</ele>
        <time>2013-03-25T15:31:56Z</time>
      </trkpt>
      <trkpt lat="-21.13614" lon="55.62557">
        <ele>1078.9</ele>
        <time>2013-03-25T15:32:03Z</time>
      </trkpt>
      <trkpt lat="-21.13607" lon="55.6255">
        <ele>1079.2</ele>
        <time>2013-03-25T15:32:10Z</time>
      </trkpt>
      <trkpt lat="-21.13601" lon="55.62544">
        <ele>1079.4</ele>
        <time>2013-03-25T15:32:16Z</time>
      </trkpt>
      <trkpt lat="-21.13595" lon="55.62538">
        <ele>1080.2</ele>
        <time>2013-03-25T15:32:24Z</time>
      </trkpt>
      <trkpt lat="-21.13587" lon="55.62538">
        <ele>1080.6</ele>
        <time>2013-03-25T15:32:30Z</time>
      </trkpt>
      <trkpt lat="-21.13581" lon="55.62543">
        <ele>1080.2</ele>
        <time>2013-03-25T15:32:36Z</time>
      </trkpt>
      <trkpt lat="-21.1358" lon="55.62545">
        <ele>1080.3</ele>
        <time>2013-03-25T15:32:37Z</time>
      </trkpt>
      <trkpt lat="-21.1357" lon="55.62557">
        <ele>1079</ele>
        <time>2013-03-25T15:32:47Z</time>
      </trkpt>
      <trkpt lat="-21.13565" lon="55.62564">
        <ele>1078.9</ele>
        <time>2013-03-25T15:32:53Z</time>
      </trkpt>
      <trkpt lat="-21.13559" lon="55.6257">
        <ele>1077.4</ele>
        <time>2013-03-25T15:32:59Z</time>
      </trkpt>
      <trkpt lat="-21.13555" lon="55.62577">
        <ele>1078.4</ele>
        <time>2013-03-25T15:33:05Z</time>
      </trkpt>
      <trkpt lat="-21.13551" lon="55.62585">
        <ele>1078.4</ele>
        <time>2013-03-25T15:33:10Z</time>
      </trkpt>
      <trkpt lat="-21.13546" lon="55.62591">
        <ele>1077.2</ele>
        <time>2013-03-25T15:33:15Z</time>
      </trkpt>
      <trkpt lat="-21.13541" lon="55.62598">
        <ele>1076.3</ele>
        <time>2013-03-25T15:33:21Z</time>
      </trkpt>
      <trkpt lat="-21.13535" lon="55.62605">
        <ele>1076.2</ele>
        <time>2013-03-25T15:33:27Z</time>
      </trkpt>
      <trkpt lat="-21.13531" lon="55.62612">
        <ele>1075.8</ele>
        <time>2013-03-25T15:33:32Z</time>
      </trkpt>
      <trkpt lat="-21.13525" lon="55.62619">
        <ele>1075.7</ele>
        <time>2013-03-25T15:33:38Z</time>
      </trkpt>
      <trkpt lat="-21.13525" lon="55.6262">
        <ele>1075.8</ele>
        <time>2013-03-25T15:33:39Z</time>
      </trkpt>
      <trkpt lat="-21.13516" lon="55.62633">
        <ele>1075.6</ele>
        <time>2013-03-25T15:33:50Z</time>
      </trkpt>
      <trkpt lat="-21.13513" lon="55.62641">
        <ele>1074.9</ele>
        <time>2013-03-25T15:33:55Z</time>
      </trkpt>
      <trkpt lat="-21.1351" lon="55.62649">
        <ele>1074.9</ele>
        <time>2013-03-25T15:34:01Z</time>
      </trkpt>
      <trkpt lat="-21.13507" lon="55.62657">
        <ele>1074.4</ele>
        <time>2013-03-25T15:34:06Z</time>
      </trkpt>
      <trkpt lat="-21.13502" lon="55.62663">
        <ele>1074.4</ele>
        <time>2013-03-25T15:34:12Z</time>
      </trkpt>
      <trkpt lat="-21.13497" lon="55.62671">
        <ele>1074.5</ele>
        <time>2013-03-25T15:34:18Z</time>
      </trkpt>
      <trkpt lat="-21.13493" lon="55.62679">
        <ele>1074</ele>
        <time>2013-03-25T15:34:24Z</time>
      </trkpt>
      <trkpt lat="-21.1349" lon="55.62687">
        <ele>1073.6</ele>
        <time>2013-03-25T15:34:29Z</time>
      </trkpt>
      <trkpt lat="-21.13485" lon="55.62694">
        <ele>1073.7</ele>
        <time>2013-03-25T15:34:35Z</time>
      </trkpt>
      <trkpt lat="-21.13481" lon="55.62702">
        <ele>1073</ele>
        <time>2013-03-25T15:34:40Z</time>
      </trkpt>
      <trkpt lat="-21.1348" lon="55.62703">
        <ele>1073.1</ele>
        <time>2013-03-25T15:34:41Z</time>
      </trkpt>
      <trkpt lat="-21.13473" lon="55.62715">
        <ele>1072.9</ele>
        <time>2013-03-25T15:34:50Z</time>
      </trkpt>
      <trkpt lat="-21.13468" lon="55.62723">
        <ele>1071.8</ele>
        <time>2013-03-25T15:34:55Z</time>
      </trkpt>
      <trkpt lat="-21.13465" lon="55.62731">
        <ele>1070.8</ele>
        <time>2013-03-25T15:35:00Z</time>
      </trkpt>
      <trkpt lat="-21.1346" lon="55.62738">
        <ele>1070.2</ele>
        <time>2013-03-25T15:35:05Z</time>
      </trkpt>
      <trkpt lat="-21.13455" lon="55.62745">
        <ele>1068.9</ele>
        <time>2013-03-25T15:35:10Z</time>
      </trkpt>
      <trkpt lat="-21.1345" lon="55.62751">
        <ele>1068.1</ele>
        <time>2013-03-25T15:35:15Z</time>
      </trkpt>
      <trkpt lat="-21.13446" lon="55.62758">
        <ele>1067.8</ele>
        <time>2013-03-25T15:35:20Z</time>
      </trkpt>
      <trkpt lat="-21.13442" lon="55.62766">
        <ele>1068.2</ele>
        <time>2013-03-25T15:35:25Z</time>
      </trkpt>
      <trkpt lat="-21.13437" lon="55.62773">
        <ele>1067.8</ele>
        <time>2013-03-25T15:35:31Z</time>
      </trkpt>
      <trkpt lat="-21.13433" lon="55.6278">
        <ele>1066</ele>
        <time>2013-03-25T15:35:36Z</time>
      </trkpt>
      <trkpt lat="-21.13431" lon="55.62788">
        <ele>1066.1</ele>
        <time>2013-03-25T15:35:41Z</time>
      </trkpt>
      <trkpt lat="-21.1343" lon="55.62789">
        <ele>1065.8</ele>
        <time>2013-03-25T15:35:42Z</time>
      </trkpt>
      <trkpt lat="-21.13422" lon="55.62803">
        <ele>1063.9</ele>
        <time>2013-03-25T15:35:52Z</time>
      </trkpt>
      <trkpt lat="-21.13418" lon="55.6281">
        <ele>1063.9</ele>
        <time>2013-03-25T15:35:58Z</time>
      </trkpt>
      <trkpt lat="-21.13412" lon="55.62817">
        <ele>1063</ele>
        <time>2013-03-25T15:36:05Z</time>
      </trkpt>
      <trkpt lat="-21.13409" lon="55.62824">
        <ele>1061.8</ele>
        <time>2013-03-25T15:36:11Z</time>
      </trkpt>
      <trkpt lat="-21.13406" lon="55.62832">
        <ele>1060.2</ele>
        <time>2013-03-25T15:36:16Z</time>
      </trkpt>
      <trkpt lat="-21.13402" lon="55.62839">
        <ele>1059.7</ele>
        <time>2013-03-25T15:36:21Z</time>
      </trkpt>
      <trkpt lat="-21.13401" lon="55.62848">
        <ele>1059.4</ele>
        <time>2013-03-25T15:36:26Z</time>
      </trkpt>
      <trkpt lat="-21.13399" lon="55.62856">
        <ele>1058.7</ele>
        <time>2013-03-25T15:36:31Z</time>
      </trkpt>
      <trkpt lat="-21.13398" lon="55.62865">
        <ele>1058.3</ele>
        <time>2013-03-25T15:36:36Z</time>
      </trkpt>
      <trkpt lat="-21.13397" lon="55.62873">
        <ele>1057.4</ele>
        <time>2013-03-25T15:36:41Z</time>
      </trkpt>
      <trkpt lat="-21.13396" lon="55.62881">
        <ele>1056.8</ele>
        <time>2013-03-25T15:36:46Z</time>
      </trkpt>
      <trkpt lat="-21.13396" lon="55.62883">
        <ele>1056.6</ele>
        <time>2013-03-25T15:36:47Z</time>
      </trkpt>
      <trkpt lat="-21.13397" lon="55.62899">
        <ele>1055.6</ele>
        <time>2013-03-25T15:36:57Z</time>
      </trkpt>
      <trkpt lat="-21.13395" lon="55.62907">
        <ele>1055.4</ele>
        <time>2013-03-25T15:37:02Z</time>
      </trkpt>
      <trkpt lat="-21.13395" lon="55.62915">
        <ele>1054.8</ele>
        <time>2013-03-25T15:37:08Z</time>
      </trkpt>
      <trkpt lat="-21.13395" lon="55.62925">
        <ele>1054.2</ele>
        <time>2013-03-25T15:37:14Z</time>
      </trkpt>
      <trkpt lat="-21.13394" lon="55.62934">
        <ele>1053.4</ele>
        <time>2013-03-25T15:37:20Z</time>
      </trkpt>
      <trkpt lat="-21.13395" lon="55.62943">
        <ele>1051.9</ele>
        <time>2013-03-25T15:37:26Z</time>
      </trkpt>
      <trkpt lat="-21.13395" lon="55.62952">
        <ele>1052</ele>
        <time>2013-03-25T15:37:31Z</time>
      </trkpt>
      <trkpt lat="-21.13396" lon="55.6296">
        <ele>1051.8</ele>
        <time>2013-03-25T15:37:35Z</time>
      </trkpt>
      <trkpt lat="-21.13395" lon="55.62969">
        <ele>1051.5</ele>
        <time>2013-03-25T15:37:40Z</time>
      </trkpt>
      <trkpt lat="-21.13392" lon="55.62976">
        <ele>1050.9</ele>
        <time>2013-03-25T15:37:44Z</time>
      </trkpt>
      <trkpt lat="-21.1339" lon="55.62984">
        <ele>1050.7</ele>
        <time>2013-03-25T15:37:49Z</time>
      </trkpt>
      <trkpt lat="-21.13389" lon="55.62985">
        <ele>1050.6</ele>
        <time>2013-03-25T15:37:50Z</time>
      </trkpt>
      <trkpt lat="-21.13378" lon="55.62998">
        <ele>1049.3</ele>
        <time>2013-03-25T15:38:01Z</time>
      </trkpt>
      <trkpt lat="-21.13372" lon="55.63004">
        <ele>1049.1</ele>
        <time>2013-03-25T15:38:07Z</time>
      </trkpt>
      <trkpt lat="-21.13366" lon="55.63012">
        <ele>1049</ele>
        <time>2013-03-25T15:38:13Z</time>
      </trkpt>
      <trkpt lat="-21.1336" lon="55.63017">
        <ele>1048.2</ele>
        <time>2013-03-25T15:38:18Z</time>
      </trkpt>
      <trkpt lat="-21.13355" lon="55.63023">
        <ele>1048.3</ele>
        <time>2013-03-25T15:38:23Z</time>
      </trkpt>
      <trkpt lat="-21.13347" lon="55.63028">
        <ele>1048.2</ele>
        <time>2013-03-25T15:38:29Z</time>
      </trkpt>
      <trkpt lat="-21.13341" lon="55.63035">
        <ele>1047.5</ele>
        <time>2013-03-25T15:38:39Z</time>
      </trkpt>
      <trkpt lat="-21.13336" lon="55.63043">
        <ele>1047.9</ele>
        <time>2013-03-25T15:38:49Z</time>
      </trkpt>
      <trkpt lat="-21.13331" lon="55.63049">
        <ele>1046.8</ele>
        <time>2013-03-25T15:38:55Z</time>
      </trkpt>
      <trkpt lat="-21.1333" lon="55.6305">
        <ele>1047.1</ele>
        <time>2013-03-25T15:38:56Z</time>
      </trkpt>
      <trkpt lat="-21.13319" lon="55.63062">
        <ele>1047.9</ele>
        <time>2013-03-25T15:39:08Z</time>
      </trkpt>
      <trkpt lat="-21.13312" lon="55.63067">
        <ele>1047</ele>
        <time>2013-03-25T15:39:14Z</time>
      </trkpt>
      <trkpt lat="-21.13306" lon="55.63073">
        <ele>1046.5</ele>
        <time>2013-03-25T15:39:21Z</time>
      </trkpt>
      <trkpt lat="-21.13299" lon="55.63079">
        <ele>1046.4</ele>
        <time>2013-03-25T15:39:27Z</time>
      </trkpt>
      <trkpt lat="-21.13301" lon="55.63088">
        <ele>1045.9</ele>
        <time>2013-03-25T15:39:33Z</time>
      </trkpt>
      <trkpt lat="-21.13306" lon="55.63095">
        <ele>1046</ele>
        <time>2013-03-25T15:39:38Z</time>
      </trkpt>
      <trkpt lat="-21.13311" lon="55.63102">
        <ele>1045.6</ele>
        <time>2013-03-25T15:39:43Z</time>
      </trkpt>
      <trkpt lat="-21.13317" lon="55.63108">
        <ele>1045.8</ele>
        <time>2013-03-25T15:39:49Z</time>
      </trkpt>
      <trkpt lat="-21.13322" lon="55.63113">
        <ele>1045</ele>
        <time>2013-03-25T15:39:55Z</time>
      </trkpt>
      <trkpt lat="-21.13328" lon="55.6312">
        <ele>1043.5</ele>
        <time>2013-03-25T15:40:01Z</time>
      </trkpt>
      <trkpt lat="-21.13329" lon="55.63121">
        <ele>1043</ele>
        <time>2013-03-25T15:40:02Z</time>
      </trkpt>
      <trkpt lat="-21.13331" lon="55.63136">
        <ele>1040.4</ele>
        <time>2013-03-25T15:40:15Z</time>
      </trkpt>
      <trkpt lat="-21.13332" lon="55.63145">
        <ele>1040.7</ele>
        <time>2013-03-25T15:41:09Z</time>
      </trkpt>
      <trkpt lat="-21.13333" lon="55.63146">
        <ele>1040.9</ele>
        <time>2013-03-25T15:41:10Z</time>
      </trkpt>
      <trkpt lat="-21.13335" lon="55.63139">
        <ele>1040.6</ele>
        <time>2013-03-25T15:42:37Z</time>
      </trkpt>
      <trkpt lat="-21.13334" lon="55.63138">
        <ele>1040.7</ele>
        <time>2013-03-25T15:42:38Z</time>
      </trkpt>
      <trkpt lat="-21.13332" lon="55.63151">
        <ele>1041.2</ele>
        <time>2013-03-25T15:43:24Z</time>
      </trkpt>
      <trkpt lat="-21.13332" lon="55.63151">
        <ele>1041.2</ele>
        <time>2013-03-25T15:43:24Z</time>
      </trkpt>
    </trkseg>
  </trk>
</gpx>